<?xml version="1.0"?>
<gpx
 version="1.1"
 creator="Satmap Active 20"
 xmlns:xsi="http://www.w3.org/2001/XMLSchema-instance"
 xmlns="http://www.topografix.com/GPX/1/1"
 xmlns:satmap="http://www.satmap.com/updates/xmlschemas/GpxExtensions/v2/GpxExtensions_v2.xsd"
 xsi:schemaLocation="http://www.topografix.com/GPX/1/1 http://www.topografix.com/GPX/1/1/gpx.xsd">
<metadata>
<time>2020-06-12T09:14:00Z</time>
<extensions>
<satmap:platform>43</satmap:platform>
<satmap:software version="3.12.831">SM15.exe</satmap:software>
<satmap:username>Jim Grant</satmap:username>
<satmap:network_ids>
<satmap:network_id type="wifi">00-23-A7-EC-D5-78</satmap:network_id>
<satmap:network_id type="bluetooth">80-BB-EB-D7-5B-7C</satmap:network_id>
</satmap:network_ids>
<satmap:snap_type>simple</satmap:snap_type>
</extensions>
</metadata>
<trk>
<name>2020-06-12_0914</name>
<desc>Track 1</desc>
<number>1</number>
<trkseg>
<trkpt lat="54.345416" lon="-3.093150"><ele>109</ele><time>2020-06-12T09:14:00Z</time><name>PT1</name></trkpt>
<trkpt lat="54.345416" lon="-3.093143"><ele>109</ele><time>2020-06-12T09:14:13Z</time><name>PT2</name></trkpt>
<trkpt lat="54.345415" lon="-3.093140"><ele>109</ele><time>2020-06-12T09:14:14Z</time><name>PT3</name></trkpt>
<trkpt lat="54.345413" lon="-3.093133"><ele>109</ele><time>2020-06-12T09:14:16Z</time><name>PT4</name></trkpt>
<trkpt lat="54.345412" lon="-3.093136"><ele>109</ele><time>2020-06-12T09:14:17Z</time><name>PT5</name></trkpt>
<trkpt lat="54.345411" lon="-3.093135"><ele>109</ele><time>2020-06-12T09:14:18Z</time><name>PT6</name></trkpt>
<trkpt lat="54.345409" lon="-3.093137"><ele>109</ele><time>2020-06-12T09:14:37Z</time><name>PT7</name></trkpt>
<trkpt lat="54.345407" lon="-3.093133"><ele>110</ele><time>2020-06-12T09:14:38Z</time><name>PT8</name></trkpt>
<trkpt lat="54.345406" lon="-3.093131"><ele>110</ele><time>2020-06-12T09:14:39Z</time><name>PT9</name></trkpt>
<trkpt lat="54.345405" lon="-3.093130"><ele>110</ele><time>2020-06-12T09:14:40Z</time><name>PT10</name></trkpt>
<trkpt lat="54.345406" lon="-3.093131"><ele>110</ele><time>2020-06-12T09:14:41Z</time><name>PT11</name></trkpt>
<trkpt lat="54.345404" lon="-3.093132"><ele>110</ele><time>2020-06-12T09:14:54Z</time><name>PT12</name></trkpt>
<trkpt lat="54.345403" lon="-3.093132"><ele>110</ele><time>2020-06-12T09:14:55Z</time><name>PT13</name></trkpt>
<trkpt lat="54.345401" lon="-3.093130"><ele>110</ele><time>2020-06-12T09:14:56Z</time><name>PT14</name></trkpt>
<trkpt lat="54.345410" lon="-3.093127"><ele>110</ele><time>2020-06-12T09:15:08Z</time><name>PT15</name></trkpt>
<trkpt lat="54.345421" lon="-3.093112"><ele>110</ele><time>2020-06-12T09:15:08Z</time><name>PT16</name></trkpt>
<trkpt lat="54.345429" lon="-3.093108"><ele>110</ele><time>2020-06-12T09:15:09Z</time><name>PT17</name></trkpt>
<trkpt lat="54.345437" lon="-3.093100"><ele>110</ele><time>2020-06-12T09:15:10Z</time><name>PT18</name></trkpt>
<trkpt lat="54.345441" lon="-3.093094"><ele>110</ele><time>2020-06-12T09:15:11Z</time><name>PT19</name></trkpt>
<trkpt lat="54.345444" lon="-3.093093"><ele>110</ele><time>2020-06-12T09:15:12Z</time><name>PT20</name></trkpt>
<trkpt lat="54.345447" lon="-3.093091"><ele>109</ele><time>2020-06-12T09:15:13Z</time><name>PT21</name></trkpt>
<trkpt lat="54.345454" lon="-3.093092"><ele>110</ele><time>2020-06-12T09:15:14Z</time><name>PT22</name></trkpt>
<trkpt lat="54.345456" lon="-3.093095"><ele>110</ele><time>2020-06-12T09:15:15Z</time><name>PT23</name></trkpt>
<trkpt lat="54.345460" lon="-3.093087"><ele>110</ele><time>2020-06-12T09:15:54Z</time><name>PT24</name></trkpt>
<trkpt lat="54.345460" lon="-3.093087"><ele>110</ele><time>2020-06-12T09:15:55Z</time><name>PT25</name></trkpt>
<trkpt lat="54.345457" lon="-3.093087"><ele>110</ele><time>2020-06-12T09:15:56Z</time><name>PT26</name></trkpt>
<trkpt lat="54.345456" lon="-3.093087"><ele>110</ele><time>2020-06-12T09:15:57Z</time><name>PT27</name></trkpt>
<trkpt lat="54.345456" lon="-3.093094"><ele>111</ele><time>2020-06-12T09:16:02Z</time><name>PT28</name></trkpt>
<trkpt lat="54.345452" lon="-3.093092"><ele>111</ele><time>2020-06-12T09:16:02Z</time><name>PT29</name></trkpt>
<trkpt lat="54.345450" lon="-3.093086"><ele>111</ele><time>2020-06-12T09:16:03Z</time><name>PT30</name></trkpt>
<trkpt lat="54.345449" lon="-3.093083"><ele>111</ele><time>2020-06-12T09:16:04Z</time><name>PT31</name></trkpt>
<trkpt lat="54.345452" lon="-3.093079"><ele>111</ele><time>2020-06-12T09:16:05Z</time><name>PT32</name></trkpt>
<trkpt lat="54.345453" lon="-3.093075"><ele>111</ele><time>2020-06-12T09:16:07Z</time><name>PT33</name></trkpt>
<trkpt lat="54.345450" lon="-3.093069"><ele>111</ele><time>2020-06-12T09:16:07Z</time><name>PT34</name></trkpt>
<trkpt lat="54.345448" lon="-3.093066"><ele>111</ele><time>2020-06-12T09:16:08Z</time><name>PT35</name></trkpt>
<trkpt lat="54.345452" lon="-3.093066"><ele>111</ele><time>2020-06-12T09:16:09Z</time><name>PT36</name></trkpt>
<trkpt lat="54.345453" lon="-3.093070"><ele>111</ele><time>2020-06-12T09:16:10Z</time><name>PT37</name></trkpt>
<trkpt lat="54.345456" lon="-3.093067"><ele>111</ele><time>2020-06-12T09:16:11Z</time><name>PT38</name></trkpt>
<trkpt lat="54.345455" lon="-3.093076"><ele>111</ele><time>2020-06-12T09:17:19Z</time><name>PT39</name></trkpt>
<trkpt lat="54.345457" lon="-3.093075"><ele>111</ele><time>2020-06-12T09:17:20Z</time><name>PT40</name></trkpt>
<trkpt lat="54.345454" lon="-3.093072"><ele>110</ele><time>2020-06-12T09:17:21Z</time><name>PT41</name></trkpt>
<trkpt lat="54.345452" lon="-3.093070"><ele>110</ele><time>2020-06-12T09:17:22Z</time><name>PT42</name></trkpt>
<trkpt lat="54.345449" lon="-3.093067"><ele>110</ele><time>2020-06-12T09:17:23Z</time><name>PT43</name></trkpt>
<trkpt lat="54.345450" lon="-3.093066"><ele>110</ele><time>2020-06-12T09:17:24Z</time><name>PT44</name></trkpt>
<trkpt lat="54.345449" lon="-3.093065"><ele>110</ele><time>2020-06-12T09:17:25Z</time><name>PT45</name></trkpt>
<trkpt lat="54.345452" lon="-3.093065"><ele>111</ele><time>2020-06-12T09:17:26Z</time><name>PT46</name></trkpt>
<trkpt lat="54.345455" lon="-3.093066"><ele>111</ele><time>2020-06-12T09:17:27Z</time><name>PT47</name></trkpt>
<trkpt lat="54.345456" lon="-3.093064"><ele>111</ele><time>2020-06-12T09:17:28Z</time><name>PT48</name></trkpt>
<trkpt lat="54.345457" lon="-3.093063"><ele>111</ele><time>2020-06-12T09:17:39Z</time><name>PT49</name></trkpt>
<trkpt lat="54.345461" lon="-3.093057"><ele>111</ele><time>2020-06-12T09:17:40Z</time><name>PT50</name></trkpt>
<trkpt lat="54.345467" lon="-3.093054"><ele>111</ele><time>2020-06-12T09:17:41Z</time><name>PT51</name></trkpt>
<trkpt lat="54.345476" lon="-3.093044"><ele>111</ele><time>2020-06-12T09:17:42Z</time><name>PT52</name></trkpt>
<trkpt lat="54.345478" lon="-3.093033"><ele>110</ele><time>2020-06-12T09:17:43Z</time><name>PT53</name></trkpt>
<trkpt lat="54.345485" lon="-3.093059"><ele>109</ele><time>2020-06-12T09:17:44Z</time><name>PT54</name></trkpt>
<trkpt lat="54.345486" lon="-3.093063"><ele>109</ele><time>2020-06-12T09:17:45Z</time><name>PT55</name></trkpt>
<trkpt lat="54.345486" lon="-3.093067"><ele>109</ele><time>2020-06-12T09:17:46Z</time><name>PT56</name></trkpt>
<trkpt lat="54.345487" lon="-3.093066"><ele>109</ele><time>2020-06-12T09:17:47Z</time><name>PT57</name></trkpt>
<trkpt lat="54.345492" lon="-3.093061"><ele>109</ele><time>2020-06-12T09:17:48Z</time><name>PT58</name></trkpt>
<trkpt lat="54.345501" lon="-3.093058"><ele>109</ele><time>2020-06-12T09:17:49Z</time><name>PT59</name></trkpt>
<trkpt lat="54.345509" lon="-3.093056"><ele>109</ele><time>2020-06-12T09:17:50Z</time><name>PT60</name></trkpt>
<trkpt lat="54.345513" lon="-3.093057"><ele>108</ele><time>2020-06-12T09:17:51Z</time><name>PT61</name></trkpt>
<trkpt lat="54.345521" lon="-3.093055"><ele>108</ele><time>2020-06-12T09:17:52Z</time><name>PT62</name></trkpt>
<trkpt lat="54.345532" lon="-3.093054"><ele>108</ele><time>2020-06-12T09:17:53Z</time><name>PT63</name></trkpt>
<trkpt lat="54.345542" lon="-3.093065"><ele>108</ele><time>2020-06-12T09:17:54Z</time><name>PT64</name></trkpt>
<trkpt lat="54.345547" lon="-3.093082"><ele>108</ele><time>2020-06-12T09:17:55Z</time><name>PT65</name></trkpt>
<trkpt lat="54.345551" lon="-3.093095"><ele>107</ele><time>2020-06-12T09:17:56Z</time><name>PT66</name></trkpt>
<trkpt lat="54.345550" lon="-3.093105"><ele>107</ele><time>2020-06-12T09:17:57Z</time><name>PT67</name></trkpt>
<trkpt lat="54.345555" lon="-3.093116"><ele>107</ele><time>2020-06-12T09:17:58Z</time><name>PT68</name></trkpt>
<trkpt lat="54.345561" lon="-3.093133"><ele>107</ele><time>2020-06-12T09:17:59Z</time><name>PT69</name></trkpt>
<trkpt lat="54.345568" lon="-3.093143"><ele>108</ele><time>2020-06-12T09:18:00Z</time><name>PT70</name></trkpt>
<trkpt lat="54.345576" lon="-3.093149"><ele>108</ele><time>2020-06-12T09:18:01Z</time><name>PT71</name></trkpt>
<trkpt lat="54.345579" lon="-3.093161"><ele>108</ele><time>2020-06-12T09:18:02Z</time><name>PT72</name></trkpt>
<trkpt lat="54.345579" lon="-3.093167"><ele>107</ele><time>2020-06-12T09:18:03Z</time><name>PT73</name></trkpt>
<trkpt lat="54.345584" lon="-3.093183"><ele>107</ele><time>2020-06-12T09:18:04Z</time><name>PT74</name></trkpt>
<trkpt lat="54.345588" lon="-3.093202"><ele>107</ele><time>2020-06-12T09:18:05Z</time><name>PT75</name></trkpt>
<trkpt lat="54.345590" lon="-3.093219"><ele>107</ele><time>2020-06-12T09:18:06Z</time><name>PT76</name></trkpt>
<trkpt lat="54.345593" lon="-3.093237"><ele>108</ele><time>2020-06-12T09:18:07Z</time><name>PT77</name></trkpt>
<trkpt lat="54.345599" lon="-3.093257"><ele>108</ele><time>2020-06-12T09:18:08Z</time><name>PT78</name></trkpt>
<trkpt lat="54.345606" lon="-3.093271"><ele>108</ele><time>2020-06-12T09:18:09Z</time><name>PT79</name></trkpt>
<trkpt lat="54.345612" lon="-3.093286"><ele>108</ele><time>2020-06-12T09:18:10Z</time><name>PT80</name></trkpt>
<trkpt lat="54.345614" lon="-3.093298"><ele>108</ele><time>2020-06-12T09:18:11Z</time><name>PT81</name></trkpt>
<trkpt lat="54.345618" lon="-3.093316"><ele>108</ele><time>2020-06-12T09:18:12Z</time><name>PT82</name></trkpt>
<trkpt lat="54.345623" lon="-3.093338"><ele>109</ele><time>2020-06-12T09:18:13Z</time><name>PT83</name></trkpt>
<trkpt lat="54.345627" lon="-3.093355"><ele>109</ele><time>2020-06-12T09:18:14Z</time><name>PT84</name></trkpt>
<trkpt lat="54.345632" lon="-3.093373"><ele>109</ele><time>2020-06-12T09:18:15Z</time><name>PT85</name></trkpt>
<trkpt lat="54.345635" lon="-3.093391"><ele>110</ele><time>2020-06-12T09:18:16Z</time><name>PT86</name></trkpt>
<trkpt lat="54.345637" lon="-3.093408"><ele>109</ele><time>2020-06-12T09:18:17Z</time><name>PT87</name></trkpt>
<trkpt lat="54.345639" lon="-3.093422"><ele>109</ele><time>2020-06-12T09:18:18Z</time><name>PT88</name></trkpt>
<trkpt lat="54.345642" lon="-3.093437"><ele>108</ele><time>2020-06-12T09:18:19Z</time><name>PT89</name></trkpt>
<trkpt lat="54.345645" lon="-3.093455"><ele>109</ele><time>2020-06-12T09:18:20Z</time><name>PT90</name></trkpt>
<trkpt lat="54.345647" lon="-3.093472"><ele>109</ele><time>2020-06-12T09:18:21Z</time><name>PT91</name></trkpt>
<trkpt lat="54.345653" lon="-3.093496"><ele>110</ele><time>2020-06-12T09:18:22Z</time><name>PT92</name></trkpt>
<trkpt lat="54.345664" lon="-3.093511"><ele>110</ele><time>2020-06-12T09:18:23Z</time><name>PT93</name></trkpt>
<trkpt lat="54.345662" lon="-3.093526"><ele>110</ele><time>2020-06-12T09:18:24Z</time><name>PT94</name></trkpt>
<trkpt lat="54.345662" lon="-3.093538"><ele>110</ele><time>2020-06-12T09:18:25Z</time><name>PT95</name></trkpt>
<trkpt lat="54.345662" lon="-3.093546"><ele>110</ele><time>2020-06-12T09:18:26Z</time><name>PT96</name></trkpt>
<trkpt lat="54.345662" lon="-3.093559"><ele>110</ele><time>2020-06-12T09:18:27Z</time><name>PT97</name></trkpt>
<trkpt lat="54.345661" lon="-3.093570"><ele>110</ele><time>2020-06-12T09:18:28Z</time><name>PT98</name></trkpt>
<trkpt lat="54.345663" lon="-3.093584"><ele>110</ele><time>2020-06-12T09:18:29Z</time><name>PT99</name></trkpt>
<trkpt lat="54.345665" lon="-3.093597"><ele>110</ele><time>2020-06-12T09:18:30Z</time><name>PT100</name></trkpt>
<trkpt lat="54.345667" lon="-3.093606"><ele>110</ele><time>2020-06-12T09:18:31Z</time><name>PT101</name></trkpt>
<trkpt lat="54.345670" lon="-3.093620"><ele>109</ele><time>2020-06-12T09:18:32Z</time><name>PT102</name></trkpt>
<trkpt lat="54.345671" lon="-3.093632"><ele>109</ele><time>2020-06-12T09:18:33Z</time><name>PT103</name></trkpt>
<trkpt lat="54.345668" lon="-3.093649"><ele>110</ele><time>2020-06-12T09:18:34Z</time><name>PT104</name></trkpt>
<trkpt lat="54.345666" lon="-3.093662"><ele>109</ele><time>2020-06-12T09:18:35Z</time><name>PT105</name></trkpt>
<trkpt lat="54.345661" lon="-3.093679"><ele>109</ele><time>2020-06-12T09:18:36Z</time><name>PT106</name></trkpt>
<trkpt lat="54.345661" lon="-3.093695"><ele>108</ele><time>2020-06-12T09:18:37Z</time><name>PT107</name></trkpt>
<trkpt lat="54.345656" lon="-3.093709"><ele>109</ele><time>2020-06-12T09:18:38Z</time><name>PT108</name></trkpt>
<trkpt lat="54.345648" lon="-3.093727"><ele>112</ele><time>2020-06-12T09:18:39Z</time><name>PT109</name></trkpt>
<trkpt lat="54.345641" lon="-3.093744"><ele>113</ele><time>2020-06-12T09:18:40Z</time><name>PT110</name></trkpt>
<trkpt lat="54.345637" lon="-3.093755"><ele>113</ele><time>2020-06-12T09:18:41Z</time><name>PT111</name></trkpt>
<trkpt lat="54.345633" lon="-3.093763"><ele>114</ele><time>2020-06-12T09:18:42Z</time><name>PT112</name></trkpt>
<trkpt lat="54.345628" lon="-3.093774"><ele>115</ele><time>2020-06-12T09:18:43Z</time><name>PT113</name></trkpt>
<trkpt lat="54.345624" lon="-3.093794"><ele>115</ele><time>2020-06-12T09:18:44Z</time><name>PT114</name></trkpt>
<trkpt lat="54.345621" lon="-3.093810"><ele>116</ele><time>2020-06-12T09:18:45Z</time><name>PT115</name></trkpt>
<trkpt lat="54.345616" lon="-3.093825"><ele>116</ele><time>2020-06-12T09:18:46Z</time><name>PT116</name></trkpt>
<trkpt lat="54.345608" lon="-3.093843"><ele>116</ele><time>2020-06-12T09:18:47Z</time><name>PT117</name></trkpt>
<trkpt lat="54.345604" lon="-3.093860"><ele>117</ele><time>2020-06-12T09:18:48Z</time><name>PT118</name></trkpt>
<trkpt lat="54.345604" lon="-3.093876"><ele>117</ele><time>2020-06-12T09:18:49Z</time><name>PT119</name></trkpt>
<trkpt lat="54.345604" lon="-3.093889"><ele>117</ele><time>2020-06-12T09:18:50Z</time><name>PT120</name></trkpt>
<trkpt lat="54.345606" lon="-3.093905"><ele>117</ele><time>2020-06-12T09:18:51Z</time><name>PT121</name></trkpt>
<trkpt lat="54.345606" lon="-3.093926"><ele>118</ele><time>2020-06-12T09:18:52Z</time><name>PT122</name></trkpt>
<trkpt lat="54.345603" lon="-3.093944"><ele>118</ele><time>2020-06-12T09:18:53Z</time><name>PT123</name></trkpt>
<trkpt lat="54.345600" lon="-3.093964"><ele>119</ele><time>2020-06-12T09:18:54Z</time><name>PT124</name></trkpt>
<trkpt lat="54.345597" lon="-3.093979"><ele>120</ele><time>2020-06-12T09:18:55Z</time><name>PT125</name></trkpt>
<trkpt lat="54.345599" lon="-3.093991"><ele>120</ele><time>2020-06-12T09:18:56Z</time><name>PT126</name></trkpt>
<trkpt lat="54.345601" lon="-3.093999"><ele>120</ele><time>2020-06-12T09:18:57Z</time><name>PT127</name></trkpt>
<trkpt lat="54.345602" lon="-3.094011"><ele>121</ele><time>2020-06-12T09:18:58Z</time><name>PT128</name></trkpt>
<trkpt lat="54.345599" lon="-3.094014"><ele>121</ele><time>2020-06-12T09:18:59Z</time><name>PT129</name></trkpt>
<trkpt lat="54.345594" lon="-3.094014"><ele>122</ele><time>2020-06-12T09:19:00Z</time><name>PT130</name></trkpt>
<trkpt lat="54.345595" lon="-3.094019"><ele>122</ele><time>2020-06-12T09:19:01Z</time><name>PT131</name></trkpt>
<trkpt lat="54.345599" lon="-3.094034"><ele>122</ele><time>2020-06-12T09:19:02Z</time><name>PT132</name></trkpt>
<trkpt lat="54.345599" lon="-3.094040"><ele>121</ele><time>2020-06-12T09:19:03Z</time><name>PT133</name></trkpt>
<trkpt lat="54.345599" lon="-3.094060"><ele>122</ele><time>2020-06-12T09:19:04Z</time><name>PT134</name></trkpt>
<trkpt lat="54.345599" lon="-3.094077"><ele>122</ele><time>2020-06-12T09:19:05Z</time><name>PT135</name></trkpt>
<trkpt lat="54.345599" lon="-3.094088"><ele>122</ele><time>2020-06-12T09:19:06Z</time><name>PT136</name></trkpt>
<trkpt lat="54.345602" lon="-3.094103"><ele>121</ele><time>2020-06-12T09:19:07Z</time><name>PT137</name></trkpt>
<trkpt lat="54.345599" lon="-3.094115"><ele>121</ele><time>2020-06-12T09:19:08Z</time><name>PT138</name></trkpt>
<trkpt lat="54.345598" lon="-3.094134"><ele>121</ele><time>2020-06-12T09:19:09Z</time><name>PT139</name></trkpt>
<trkpt lat="54.345609" lon="-3.094166"><ele>121</ele><time>2020-06-12T09:19:10Z</time><name>PT140</name></trkpt>
<trkpt lat="54.345600" lon="-3.094185"><ele>121</ele><time>2020-06-12T09:19:11Z</time><name>PT141</name></trkpt>
<trkpt lat="54.345603" lon="-3.094199"><ele>121</ele><time>2020-06-12T09:19:12Z</time><name>PT142</name></trkpt>
<trkpt lat="54.345604" lon="-3.094224"><ele>122</ele><time>2020-06-12T09:19:13Z</time><name>PT143</name></trkpt>
<trkpt lat="54.345601" lon="-3.094248"><ele>123</ele><time>2020-06-12T09:19:14Z</time><name>PT144</name></trkpt>
<trkpt lat="54.345596" lon="-3.094271"><ele>123</ele><time>2020-06-12T09:19:15Z</time><name>PT145</name></trkpt>
<trkpt lat="54.345595" lon="-3.094290"><ele>124</ele><time>2020-06-12T09:19:16Z</time><name>PT146</name></trkpt>
<trkpt lat="54.345595" lon="-3.094304"><ele>123</ele><time>2020-06-12T09:19:17Z</time><name>PT147</name></trkpt>
<trkpt lat="54.345592" lon="-3.094316"><ele>123</ele><time>2020-06-12T09:19:18Z</time><name>PT148</name></trkpt>
<trkpt lat="54.345588" lon="-3.094327"><ele>123</ele><time>2020-06-12T09:19:19Z</time><name>PT149</name></trkpt>
<trkpt lat="54.345585" lon="-3.094326"><ele>122</ele><time>2020-06-12T09:19:20Z</time><name>PT150</name></trkpt>
<trkpt lat="54.345584" lon="-3.094335"><ele>122</ele><time>2020-06-12T09:19:21Z</time><name>PT151</name></trkpt>
<trkpt lat="54.345584" lon="-3.094338"><ele>122</ele><time>2020-06-12T09:19:22Z</time><name>PT152</name></trkpt>
<trkpt lat="54.345583" lon="-3.094358"><ele>122</ele><time>2020-06-12T09:19:23Z</time><name>PT153</name></trkpt>
<trkpt lat="54.345584" lon="-3.094375"><ele>122</ele><time>2020-06-12T09:19:24Z</time><name>PT154</name></trkpt>
<trkpt lat="54.345586" lon="-3.094385"><ele>122</ele><time>2020-06-12T09:19:25Z</time><name>PT155</name></trkpt>
<trkpt lat="54.345581" lon="-3.094410"><ele>123</ele><time>2020-06-12T09:19:26Z</time><name>PT156</name></trkpt>
<trkpt lat="54.345580" lon="-3.094420"><ele>123</ele><time>2020-06-12T09:19:27Z</time><name>PT157</name></trkpt>
<trkpt lat="54.345575" lon="-3.094435"><ele>123</ele><time>2020-06-12T09:19:28Z</time><name>PT158</name></trkpt>
<trkpt lat="54.345569" lon="-3.094451"><ele>123</ele><time>2020-06-12T09:19:29Z</time><name>PT159</name></trkpt>
<trkpt lat="54.345566" lon="-3.094468"><ele>123</ele><time>2020-06-12T09:19:30Z</time><name>PT160</name></trkpt>
<trkpt lat="54.345563" lon="-3.094485"><ele>123</ele><time>2020-06-12T09:19:31Z</time><name>PT161</name></trkpt>
<trkpt lat="54.345562" lon="-3.094502"><ele>123</ele><time>2020-06-12T09:19:32Z</time><name>PT162</name></trkpt>
<trkpt lat="54.345560" lon="-3.094519"><ele>123</ele><time>2020-06-12T09:19:33Z</time><name>PT163</name></trkpt>
<trkpt lat="54.345560" lon="-3.094530"><ele>124</ele><time>2020-06-12T09:19:34Z</time><name>PT164</name></trkpt>
<trkpt lat="54.345560" lon="-3.094538"><ele>124</ele><time>2020-06-12T09:19:35Z</time><name>PT165</name></trkpt>
<trkpt lat="54.345554" lon="-3.094549"><ele>125</ele><time>2020-06-12T09:19:36Z</time><name>PT166</name></trkpt>
<trkpt lat="54.345550" lon="-3.094554"><ele>125</ele><time>2020-06-12T09:19:37Z</time><name>PT167</name></trkpt>
<trkpt lat="54.345552" lon="-3.094563"><ele>126</ele><time>2020-06-12T09:19:38Z</time><name>PT168</name></trkpt>
<trkpt lat="54.345551" lon="-3.094566"><ele>126</ele><time>2020-06-12T09:19:39Z</time><name>PT169</name></trkpt>
<trkpt lat="54.345547" lon="-3.094572"><ele>126</ele><time>2020-06-12T09:19:40Z</time><name>PT170</name></trkpt>
<trkpt lat="54.345546" lon="-3.094573"><ele>126</ele><time>2020-06-12T09:19:41Z</time><name>PT171</name></trkpt>
<trkpt lat="54.345531" lon="-3.094595"><ele>127</ele><time>2020-06-12T09:19:51Z</time><name>PT172</name></trkpt>
<trkpt lat="54.345526" lon="-3.094614"><ele>126</ele><time>2020-06-12T09:19:52Z</time><name>PT173</name></trkpt>
<trkpt lat="54.345527" lon="-3.094623"><ele>126</ele><time>2020-06-12T09:19:53Z</time><name>PT174</name></trkpt>
<trkpt lat="54.345530" lon="-3.094632"><ele>126</ele><time>2020-06-12T09:19:54Z</time><name>PT175</name></trkpt>
<trkpt lat="54.345532" lon="-3.094636"><ele>125</ele><time>2020-06-12T09:19:55Z</time><name>PT176</name></trkpt>
<trkpt lat="54.345526" lon="-3.094654"><ele>126</ele><time>2020-06-12T09:19:58Z</time><name>PT177</name></trkpt>
<trkpt lat="54.345529" lon="-3.094659"><ele>125</ele><time>2020-06-12T09:19:59Z</time><name>PT178</name></trkpt>
<trkpt lat="54.345530" lon="-3.094669"><ele>125</ele><time>2020-06-12T09:20:00Z</time><name>PT179</name></trkpt>
<trkpt lat="54.345521" lon="-3.094669"><ele>125</ele><time>2020-06-12T09:20:01Z</time><name>PT180</name></trkpt>
<trkpt lat="54.345520" lon="-3.094667"><ele>125</ele><time>2020-06-12T09:20:02Z</time><name>PT181</name></trkpt>
<trkpt lat="54.345518" lon="-3.094666"><ele>124</ele><time>2020-06-12T09:20:03Z</time><name>PT182</name></trkpt>
<trkpt lat="54.345519" lon="-3.094662"><ele>124</ele><time>2020-06-12T09:20:04Z</time><name>PT183</name></trkpt>
<trkpt lat="54.345517" lon="-3.094661"><ele>125</ele><time>2020-06-12T09:20:05Z</time><name>PT184</name></trkpt>
<trkpt lat="54.345518" lon="-3.094663"><ele>125</ele><time>2020-06-12T09:20:06Z</time><name>PT185</name></trkpt>
<trkpt lat="54.345516" lon="-3.094664"><ele>125</ele><time>2020-06-12T09:20:07Z</time><name>PT186</name></trkpt>
<trkpt lat="54.345521" lon="-3.094664"><ele>124</ele><time>2020-06-12T09:20:08Z</time><name>PT187</name></trkpt>
<trkpt lat="54.345524" lon="-3.094667"><ele>125</ele><time>2020-06-12T09:20:09Z</time><name>PT188</name></trkpt>
<trkpt lat="54.345526" lon="-3.094668"><ele>124</ele><time>2020-06-12T09:20:10Z</time><name>PT189</name></trkpt>
<trkpt lat="54.345531" lon="-3.094667"><ele>124</ele><time>2020-06-12T09:20:11Z</time><name>PT190</name></trkpt>
<trkpt lat="54.345532" lon="-3.094678"><ele>124</ele><time>2020-06-12T09:20:13Z</time><name>PT191</name></trkpt>
<trkpt lat="54.345533" lon="-3.094700"><ele>124</ele><time>2020-06-12T09:20:14Z</time><name>PT192</name></trkpt>
<trkpt lat="54.345536" lon="-3.094724"><ele>123</ele><time>2020-06-12T09:20:15Z</time><name>PT193</name></trkpt>
<trkpt lat="54.345537" lon="-3.094735"><ele>123</ele><time>2020-06-12T09:20:16Z</time><name>PT194</name></trkpt>
<trkpt lat="54.345535" lon="-3.094748"><ele>122</ele><time>2020-06-12T09:20:17Z</time><name>PT195</name></trkpt>
<trkpt lat="54.345531" lon="-3.094754"><ele>121</ele><time>2020-06-12T09:20:18Z</time><name>PT196</name></trkpt>
<trkpt lat="54.345529" lon="-3.094767"><ele>121</ele><time>2020-06-12T09:20:19Z</time><name>PT197</name></trkpt>
<trkpt lat="54.345528" lon="-3.094784"><ele>120</ele><time>2020-06-12T09:20:20Z</time><name>PT198</name></trkpt>
<trkpt lat="54.345529" lon="-3.094800"><ele>120</ele><time>2020-06-12T09:20:21Z</time><name>PT199</name></trkpt>
<trkpt lat="54.345528" lon="-3.094814"><ele>120</ele><time>2020-06-12T09:20:22Z</time><name>PT200</name></trkpt>
<trkpt lat="54.345528" lon="-3.094830"><ele>120</ele><time>2020-06-12T09:20:23Z</time><name>PT201</name></trkpt>
<trkpt lat="54.345525" lon="-3.094844"><ele>120</ele><time>2020-06-12T09:20:24Z</time><name>PT202</name></trkpt>
<trkpt lat="54.345522" lon="-3.094856"><ele>118</ele><time>2020-06-12T09:20:25Z</time><name>PT203</name></trkpt>
<trkpt lat="54.345522" lon="-3.094869"><ele>118</ele><time>2020-06-12T09:20:26Z</time><name>PT204</name></trkpt>
<trkpt lat="54.345524" lon="-3.094888"><ele>118</ele><time>2020-06-12T09:20:27Z</time><name>PT205</name></trkpt>
<trkpt lat="54.345527" lon="-3.094905"><ele>119</ele><time>2020-06-12T09:20:28Z</time><name>PT206</name></trkpt>
<trkpt lat="54.345529" lon="-3.094919"><ele>119</ele><time>2020-06-12T09:20:29Z</time><name>PT207</name></trkpt>
<trkpt lat="54.345532" lon="-3.094934"><ele>119</ele><time>2020-06-12T09:20:30Z</time><name>PT208</name></trkpt>
<trkpt lat="54.345540" lon="-3.094937"><ele>119</ele><time>2020-06-12T09:20:31Z</time><name>PT209</name></trkpt>
<trkpt lat="54.345543" lon="-3.094943"><ele>119</ele><time>2020-06-12T09:20:32Z</time><name>PT210</name></trkpt>
<trkpt lat="54.345546" lon="-3.094954"><ele>119</ele><time>2020-06-12T09:20:33Z</time><name>PT211</name></trkpt>
<trkpt lat="54.345551" lon="-3.094964"><ele>119</ele><time>2020-06-12T09:20:34Z</time><name>PT212</name></trkpt>
<trkpt lat="54.345551" lon="-3.094972"><ele>119</ele><time>2020-06-12T09:20:35Z</time><name>PT213</name></trkpt>
<trkpt lat="54.345552" lon="-3.094983"><ele>119</ele><time>2020-06-12T09:20:36Z</time><name>PT214</name></trkpt>
<trkpt lat="54.345556" lon="-3.094995"><ele>119</ele><time>2020-06-12T09:20:37Z</time><name>PT215</name></trkpt>
<trkpt lat="54.345562" lon="-3.095008"><ele>119</ele><time>2020-06-12T09:20:38Z</time><name>PT216</name></trkpt>
<trkpt lat="54.345573" lon="-3.095021"><ele>119</ele><time>2020-06-12T09:20:39Z</time><name>PT217</name></trkpt>
<trkpt lat="54.345583" lon="-3.095035"><ele>118</ele><time>2020-06-12T09:20:40Z</time><name>PT218</name></trkpt>
<trkpt lat="54.345592" lon="-3.095046"><ele>118</ele><time>2020-06-12T09:20:41Z</time><name>PT219</name></trkpt>
<trkpt lat="54.345601" lon="-3.095054"><ele>117</ele><time>2020-06-12T09:20:42Z</time><name>PT220</name></trkpt>
<trkpt lat="54.345608" lon="-3.095066"><ele>118</ele><time>2020-06-12T09:20:43Z</time><name>PT221</name></trkpt>
<trkpt lat="54.345611" lon="-3.095072"><ele>118</ele><time>2020-06-12T09:20:44Z</time><name>PT222</name></trkpt>
<trkpt lat="54.345611" lon="-3.095070"><ele>118</ele><time>2020-06-12T09:20:45Z</time><name>PT223</name></trkpt>
<trkpt lat="54.345623" lon="-3.095072"><ele>118</ele><time>2020-06-12T09:20:46Z</time><name>PT224</name></trkpt>
<trkpt lat="54.345627" lon="-3.095080"><ele>118</ele><time>2020-06-12T09:20:47Z</time><name>PT225</name></trkpt>
<trkpt lat="54.345632" lon="-3.095093"><ele>119</ele><time>2020-06-12T09:20:48Z</time><name>PT226</name></trkpt>
<trkpt lat="54.345636" lon="-3.095106"><ele>119</ele><time>2020-06-12T09:20:49Z</time><name>PT227</name></trkpt>
<trkpt lat="54.345635" lon="-3.095122"><ele>119</ele><time>2020-06-12T09:20:50Z</time><name>PT228</name></trkpt>
<trkpt lat="54.345639" lon="-3.095140"><ele>120</ele><time>2020-06-12T09:20:51Z</time><name>PT229</name></trkpt>
<trkpt lat="54.345643" lon="-3.095155"><ele>120</ele><time>2020-06-12T09:20:52Z</time><name>PT230</name></trkpt>
<trkpt lat="54.345649" lon="-3.095169"><ele>121</ele><time>2020-06-12T09:20:53Z</time><name>PT231</name></trkpt>
<trkpt lat="54.345652" lon="-3.095179"><ele>121</ele><time>2020-06-12T09:20:54Z</time><name>PT232</name></trkpt>
<trkpt lat="54.345656" lon="-3.095191"><ele>121</ele><time>2020-06-12T09:20:55Z</time><name>PT233</name></trkpt>
<trkpt lat="54.345660" lon="-3.095207"><ele>122</ele><time>2020-06-12T09:20:56Z</time><name>PT234</name></trkpt>
<trkpt lat="54.345662" lon="-3.095219"><ele>121</ele><time>2020-06-12T09:20:57Z</time><name>PT235</name></trkpt>
<trkpt lat="54.345663" lon="-3.095231"><ele>121</ele><time>2020-06-12T09:20:58Z</time><name>PT236</name></trkpt>
<trkpt lat="54.345666" lon="-3.095239"><ele>121</ele><time>2020-06-12T09:20:59Z</time><name>PT237</name></trkpt>
<trkpt lat="54.345672" lon="-3.095251"><ele>122</ele><time>2020-06-12T09:21:00Z</time><name>PT238</name></trkpt>
<trkpt lat="54.345678" lon="-3.095266"><ele>122</ele><time>2020-06-12T09:21:01Z</time><name>PT239</name></trkpt>
<trkpt lat="54.345681" lon="-3.095280"><ele>123</ele><time>2020-06-12T09:21:02Z</time><name>PT240</name></trkpt>
<trkpt lat="54.345685" lon="-3.095296"><ele>123</ele><time>2020-06-12T09:21:03Z</time><name>PT241</name></trkpt>
<trkpt lat="54.345689" lon="-3.095307"><ele>123</ele><time>2020-06-12T09:21:04Z</time><name>PT242</name></trkpt>
<trkpt lat="54.345691" lon="-3.095319"><ele>123</ele><time>2020-06-12T09:21:05Z</time><name>PT243</name></trkpt>
<trkpt lat="54.345695" lon="-3.095331"><ele>123</ele><time>2020-06-12T09:21:06Z</time><name>PT244</name></trkpt>
<trkpt lat="54.345696" lon="-3.095342"><ele>124</ele><time>2020-06-12T09:21:07Z</time><name>PT245</name></trkpt>
<trkpt lat="54.345697" lon="-3.095355"><ele>124</ele><time>2020-06-12T09:21:08Z</time><name>PT246</name></trkpt>
<trkpt lat="54.345701" lon="-3.095365"><ele>124</ele><time>2020-06-12T09:21:09Z</time><name>PT247</name></trkpt>
<trkpt lat="54.345704" lon="-3.095379"><ele>124</ele><time>2020-06-12T09:21:10Z</time><name>PT248</name></trkpt>
<trkpt lat="54.345706" lon="-3.095391"><ele>124</ele><time>2020-06-12T09:21:11Z</time><name>PT249</name></trkpt>
<trkpt lat="54.345706" lon="-3.095405"><ele>125</ele><time>2020-06-12T09:21:12Z</time><name>PT250</name></trkpt>
<trkpt lat="54.345708" lon="-3.095419"><ele>125</ele><time>2020-06-12T09:21:13Z</time><name>PT251</name></trkpt>
<trkpt lat="54.345714" lon="-3.095431"><ele>126</ele><time>2020-06-12T09:21:14Z</time><name>PT252</name></trkpt>
<trkpt lat="54.345718" lon="-3.095443"><ele>126</ele><time>2020-06-12T09:21:15Z</time><name>PT253</name></trkpt>
<trkpt lat="54.345721" lon="-3.095451"><ele>126</ele><time>2020-06-12T09:21:16Z</time><name>PT254</name></trkpt>
<trkpt lat="54.345724" lon="-3.095461"><ele>126</ele><time>2020-06-12T09:21:17Z</time><name>PT255</name></trkpt>
<trkpt lat="54.345727" lon="-3.095469"><ele>126</ele><time>2020-06-12T09:21:18Z</time><name>PT256</name></trkpt>
<trkpt lat="54.345733" lon="-3.095481"><ele>126</ele><time>2020-06-12T09:21:19Z</time><name>PT257</name></trkpt>
<trkpt lat="54.345732" lon="-3.095502"><ele>127</ele><time>2020-06-12T09:21:20Z</time><name>PT258</name></trkpt>
<trkpt lat="54.345732" lon="-3.095514"><ele>126</ele><time>2020-06-12T09:21:21Z</time><name>PT259</name></trkpt>
<trkpt lat="54.345739" lon="-3.095530"><ele>127</ele><time>2020-06-12T09:21:22Z</time><name>PT260</name></trkpt>
<trkpt lat="54.345743" lon="-3.095548"><ele>127</ele><time>2020-06-12T09:21:23Z</time><name>PT261</name></trkpt>
<trkpt lat="54.345746" lon="-3.095561"><ele>128</ele><time>2020-06-12T09:21:24Z</time><name>PT262</name></trkpt>
<trkpt lat="54.345746" lon="-3.095577"><ele>128</ele><time>2020-06-12T09:21:25Z</time><name>PT263</name></trkpt>
<trkpt lat="54.345750" lon="-3.095591"><ele>128</ele><time>2020-06-12T09:21:26Z</time><name>PT264</name></trkpt>
<trkpt lat="54.345755" lon="-3.095608"><ele>127</ele><time>2020-06-12T09:21:27Z</time><name>PT265</name></trkpt>
<trkpt lat="54.345760" lon="-3.095627"><ele>128</ele><time>2020-06-12T09:21:28Z</time><name>PT266</name></trkpt>
<trkpt lat="54.345762" lon="-3.095641"><ele>129</ele><time>2020-06-12T09:21:29Z</time><name>PT267</name></trkpt>
<trkpt lat="54.345764" lon="-3.095655"><ele>129</ele><time>2020-06-12T09:21:30Z</time><name>PT268</name></trkpt>
<trkpt lat="54.345765" lon="-3.095673"><ele>129</ele><time>2020-06-12T09:21:31Z</time><name>PT269</name></trkpt>
<trkpt lat="54.345763" lon="-3.095692"><ele>129</ele><time>2020-06-12T09:21:32Z</time><name>PT270</name></trkpt>
<trkpt lat="54.345764" lon="-3.095708"><ele>129</ele><time>2020-06-12T09:21:33Z</time><name>PT271</name></trkpt>
<trkpt lat="54.345765" lon="-3.095723"><ele>129</ele><time>2020-06-12T09:21:34Z</time><name>PT272</name></trkpt>
<trkpt lat="54.345765" lon="-3.095737"><ele>129</ele><time>2020-06-12T09:21:35Z</time><name>PT273</name></trkpt>
<trkpt lat="54.345767" lon="-3.095751"><ele>129</ele><time>2020-06-12T09:21:36Z</time><name>PT274</name></trkpt>
<trkpt lat="54.345769" lon="-3.095770"><ele>129</ele><time>2020-06-12T09:21:37Z</time><name>PT275</name></trkpt>
<trkpt lat="54.345768" lon="-3.095782"><ele>128</ele><time>2020-06-12T09:21:38Z</time><name>PT276</name></trkpt>
<trkpt lat="54.345767" lon="-3.095789"><ele>128</ele><time>2020-06-12T09:21:39Z</time><name>PT277</name></trkpt>
<trkpt lat="54.345778" lon="-3.095800"><ele>128</ele><time>2020-06-12T09:21:40Z</time><name>PT278</name></trkpt>
<trkpt lat="54.345782" lon="-3.095813"><ele>128</ele><time>2020-06-12T09:21:41Z</time><name>PT279</name></trkpt>
<trkpt lat="54.345784" lon="-3.095823"><ele>127</ele><time>2020-06-12T09:21:42Z</time><name>PT280</name></trkpt>
<trkpt lat="54.345789" lon="-3.095833"><ele>128</ele><time>2020-06-12T09:21:43Z</time><name>PT281</name></trkpt>
<trkpt lat="54.345791" lon="-3.095846"><ele>127</ele><time>2020-06-12T09:21:44Z</time><name>PT282</name></trkpt>
<trkpt lat="54.345795" lon="-3.095857"><ele>127</ele><time>2020-06-12T09:21:45Z</time><name>PT283</name></trkpt>
<trkpt lat="54.345798" lon="-3.095871"><ele>127</ele><time>2020-06-12T09:21:46Z</time><name>PT284</name></trkpt>
<trkpt lat="54.345802" lon="-3.095887"><ele>127</ele><time>2020-06-12T09:21:47Z</time><name>PT285</name></trkpt>
<trkpt lat="54.345802" lon="-3.095899"><ele>127</ele><time>2020-06-12T09:21:48Z</time><name>PT286</name></trkpt>
<trkpt lat="54.345804" lon="-3.095916"><ele>125</ele><time>2020-06-12T09:21:49Z</time><name>PT287</name></trkpt>
<trkpt lat="54.345809" lon="-3.095946"><ele>127</ele><time>2020-06-12T09:21:50Z</time><name>PT288</name></trkpt>
<trkpt lat="54.345812" lon="-3.095964"><ele>126</ele><time>2020-06-12T09:21:51Z</time><name>PT289</name></trkpt>
<trkpt lat="54.345816" lon="-3.095986"><ele>126</ele><time>2020-06-12T09:21:52Z</time><name>PT290</name></trkpt>
<trkpt lat="54.345820" lon="-3.096005"><ele>126</ele><time>2020-06-12T09:21:53Z</time><name>PT291</name></trkpt>
<trkpt lat="54.345823" lon="-3.096023"><ele>126</ele><time>2020-06-12T09:21:54Z</time><name>PT292</name></trkpt>
<trkpt lat="54.345829" lon="-3.096042"><ele>127</ele><time>2020-06-12T09:21:55Z</time><name>PT293</name></trkpt>
<trkpt lat="54.345833" lon="-3.096060"><ele>127</ele><time>2020-06-12T09:21:56Z</time><name>PT294</name></trkpt>
<trkpt lat="54.345837" lon="-3.096075"><ele>127</ele><time>2020-06-12T09:21:57Z</time><name>PT295</name></trkpt>
<trkpt lat="54.345841" lon="-3.096086"><ele>127</ele><time>2020-06-12T09:21:58Z</time><name>PT296</name></trkpt>
<trkpt lat="54.345847" lon="-3.096095"><ele>128</ele><time>2020-06-12T09:21:59Z</time><name>PT297</name></trkpt>
<trkpt lat="54.345855" lon="-3.096107"><ele>129</ele><time>2020-06-12T09:22:00Z</time><name>PT298</name></trkpt>
<trkpt lat="54.345860" lon="-3.096120"><ele>130</ele><time>2020-06-12T09:22:01Z</time><name>PT299</name></trkpt>
<trkpt lat="54.345864" lon="-3.096133"><ele>130</ele><time>2020-06-12T09:22:02Z</time><name>PT300</name></trkpt>
<trkpt lat="54.345867" lon="-3.096147"><ele>130</ele><time>2020-06-12T09:22:03Z</time><name>PT301</name></trkpt>
<trkpt lat="54.345869" lon="-3.096153"><ele>130</ele><time>2020-06-12T09:22:04Z</time><name>PT302</name></trkpt>
<trkpt lat="54.345871" lon="-3.096157"><ele>131</ele><time>2020-06-12T09:22:05Z</time><name>PT303</name></trkpt>
<trkpt lat="54.345867" lon="-3.096155"><ele>131</ele><time>2020-06-12T09:22:06Z</time><name>PT304</name></trkpt>
<trkpt lat="54.345864" lon="-3.096146"><ele>130</ele><time>2020-06-12T09:22:07Z</time><name>PT305</name></trkpt>
<trkpt lat="54.345869" lon="-3.096135"><ele>130</ele><time>2020-06-12T09:22:08Z</time><name>PT306</name></trkpt>
<trkpt lat="54.345874" lon="-3.096128"><ele>131</ele><time>2020-06-12T09:22:09Z</time><name>PT307</name></trkpt>
<trkpt lat="54.345876" lon="-3.096126"><ele>130</ele><time>2020-06-12T09:22:10Z</time><name>PT308</name></trkpt>
<trkpt lat="54.345880" lon="-3.096129"><ele>130</ele><time>2020-06-12T09:22:11Z</time><name>PT309</name></trkpt>
<trkpt lat="54.345884" lon="-3.096132"><ele>130</ele><time>2020-06-12T09:22:12Z</time><name>PT310</name></trkpt>
<trkpt lat="54.345888" lon="-3.096134"><ele>130</ele><time>2020-06-12T09:22:13Z</time><name>PT311</name></trkpt>
<trkpt lat="54.345892" lon="-3.096144"><ele>131</ele><time>2020-06-12T09:22:14Z</time><name>PT312</name></trkpt>
<trkpt lat="54.345899" lon="-3.096152"><ele>131</ele><time>2020-06-12T09:22:15Z</time><name>PT313</name></trkpt>
<trkpt lat="54.345907" lon="-3.096161"><ele>131</ele><time>2020-06-12T09:22:16Z</time><name>PT314</name></trkpt>
<trkpt lat="54.345915" lon="-3.096171"><ele>131</ele><time>2020-06-12T09:22:17Z</time><name>PT315</name></trkpt>
<trkpt lat="54.345922" lon="-3.096177"><ele>132</ele><time>2020-06-12T09:22:18Z</time><name>PT316</name></trkpt>
<trkpt lat="54.345928" lon="-3.096189"><ele>132</ele><time>2020-06-12T09:22:19Z</time><name>PT317</name></trkpt>
<trkpt lat="54.345937" lon="-3.096203"><ele>133</ele><time>2020-06-12T09:22:20Z</time><name>PT318</name></trkpt>
<trkpt lat="54.345940" lon="-3.096219"><ele>134</ele><time>2020-06-12T09:22:22Z</time><name>PT319</name></trkpt>
<trkpt lat="54.345944" lon="-3.096232"><ele>134</ele><time>2020-06-12T09:22:22Z</time><name>PT320</name></trkpt>
<trkpt lat="54.345944" lon="-3.096243"><ele>135</ele><time>2020-06-12T09:22:24Z</time><name>PT321</name></trkpt>
<trkpt lat="54.345950" lon="-3.096249"><ele>135</ele><time>2020-06-12T09:22:24Z</time><name>PT322</name></trkpt>
<trkpt lat="54.345954" lon="-3.096258"><ele>135</ele><time>2020-06-12T09:22:25Z</time><name>PT323</name></trkpt>
<trkpt lat="54.345963" lon="-3.096269"><ele>134</ele><time>2020-06-12T09:22:26Z</time><name>PT324</name></trkpt>
<trkpt lat="54.345968" lon="-3.096278"><ele>133</ele><time>2020-06-12T09:22:27Z</time><name>PT325</name></trkpt>
<trkpt lat="54.345978" lon="-3.096288"><ele>133</ele><time>2020-06-12T09:22:28Z</time><name>PT326</name></trkpt>
<trkpt lat="54.345995" lon="-3.096287"><ele>133</ele><time>2020-06-12T09:22:29Z</time><name>PT327</name></trkpt>
<trkpt lat="54.345996" lon="-3.096297"><ele>134</ele><time>2020-06-12T09:22:30Z</time><name>PT328</name></trkpt>
<trkpt lat="54.345998" lon="-3.096308"><ele>134</ele><time>2020-06-12T09:22:31Z</time><name>PT329</name></trkpt>
<trkpt lat="54.346002" lon="-3.096322"><ele>134</ele><time>2020-06-12T09:22:32Z</time><name>PT330</name></trkpt>
<trkpt lat="54.346007" lon="-3.096338"><ele>134</ele><time>2020-06-12T09:22:33Z</time><name>PT331</name></trkpt>
<trkpt lat="54.346007" lon="-3.096356"><ele>135</ele><time>2020-06-12T09:22:34Z</time><name>PT332</name></trkpt>
<trkpt lat="54.346011" lon="-3.096368"><ele>135</ele><time>2020-06-12T09:22:35Z</time><name>PT333</name></trkpt>
<trkpt lat="54.346020" lon="-3.096384"><ele>135</ele><time>2020-06-12T09:22:36Z</time><name>PT334</name></trkpt>
<trkpt lat="54.346023" lon="-3.096398"><ele>134</ele><time>2020-06-12T09:22:37Z</time><name>PT335</name></trkpt>
<trkpt lat="54.346027" lon="-3.096410"><ele>134</ele><time>2020-06-12T09:22:38Z</time><name>PT336</name></trkpt>
<trkpt lat="54.346028" lon="-3.096428"><ele>134</ele><time>2020-06-12T09:22:39Z</time><name>PT337</name></trkpt>
<trkpt lat="54.346036" lon="-3.096443"><ele>135</ele><time>2020-06-12T09:22:40Z</time><name>PT338</name></trkpt>
<trkpt lat="54.346036" lon="-3.096447"><ele>133</ele><time>2020-06-12T09:22:41Z</time><name>PT339</name></trkpt>
<trkpt lat="54.346026" lon="-3.096455"><ele>132</ele><time>2020-06-12T09:22:42Z</time><name>PT340</name></trkpt>
<trkpt lat="54.346016" lon="-3.096469"><ele>131</ele><time>2020-06-12T09:22:43Z</time><name>PT341</name></trkpt>
<trkpt lat="54.346013" lon="-3.096484"><ele>131</ele><time>2020-06-12T09:22:44Z</time><name>PT342</name></trkpt>
<trkpt lat="54.346014" lon="-3.096495"><ele>130</ele><time>2020-06-12T09:22:45Z</time><name>PT343</name></trkpt>
<trkpt lat="54.346016" lon="-3.096509"><ele>130</ele><time>2020-06-12T09:22:46Z</time><name>PT344</name></trkpt>
<trkpt lat="54.346021" lon="-3.096520"><ele>130</ele><time>2020-06-12T09:22:47Z</time><name>PT345</name></trkpt>
<trkpt lat="54.346024" lon="-3.096534"><ele>130</ele><time>2020-06-12T09:22:48Z</time><name>PT346</name></trkpt>
<trkpt lat="54.346027" lon="-3.096552"><ele>131</ele><time>2020-06-12T09:22:49Z</time><name>PT347</name></trkpt>
<trkpt lat="54.346026" lon="-3.096568"><ele>131</ele><time>2020-06-12T09:22:50Z</time><name>PT348</name></trkpt>
<trkpt lat="54.346021" lon="-3.096587"><ele>132</ele><time>2020-06-12T09:22:51Z</time><name>PT349</name></trkpt>
<trkpt lat="54.346023" lon="-3.096600"><ele>132</ele><time>2020-06-12T09:22:52Z</time><name>PT350</name></trkpt>
<trkpt lat="54.346036" lon="-3.096613"><ele>133</ele><time>2020-06-12T09:22:53Z</time><name>PT351</name></trkpt>
<trkpt lat="54.346035" lon="-3.096624"><ele>133</ele><time>2020-06-12T09:22:54Z</time><name>PT352</name></trkpt>
<trkpt lat="54.346036" lon="-3.096634"><ele>133</ele><time>2020-06-12T09:22:55Z</time><name>PT353</name></trkpt>
<trkpt lat="54.346035" lon="-3.096646"><ele>133</ele><time>2020-06-12T09:22:56Z</time><name>PT354</name></trkpt>
<trkpt lat="54.346040" lon="-3.096662"><ele>133</ele><time>2020-06-12T09:22:57Z</time><name>PT355</name></trkpt>
<trkpt lat="54.346044" lon="-3.096678"><ele>134</ele><time>2020-06-12T09:22:58Z</time><name>PT356</name></trkpt>
<trkpt lat="54.346043" lon="-3.096694"><ele>134</ele><time>2020-06-12T09:22:59Z</time><name>PT357</name></trkpt>
<trkpt lat="54.346045" lon="-3.096712"><ele>135</ele><time>2020-06-12T09:23:00Z</time><name>PT358</name></trkpt>
<trkpt lat="54.346045" lon="-3.096722"><ele>134</ele><time>2020-06-12T09:23:01Z</time><name>PT359</name></trkpt>
<trkpt lat="54.346046" lon="-3.096731"><ele>133</ele><time>2020-06-12T09:23:02Z</time><name>PT360</name></trkpt>
<trkpt lat="54.346050" lon="-3.096741"><ele>134</ele><time>2020-06-12T09:23:03Z</time><name>PT361</name></trkpt>
<trkpt lat="54.346056" lon="-3.096755"><ele>135</ele><time>2020-06-12T09:23:04Z</time><name>PT362</name></trkpt>
<trkpt lat="54.346058" lon="-3.096773"><ele>136</ele><time>2020-06-12T09:23:05Z</time><name>PT363</name></trkpt>
<trkpt lat="54.346060" lon="-3.096788"><ele>136</ele><time>2020-06-12T09:23:06Z</time><name>PT364</name></trkpt>
<trkpt lat="54.346067" lon="-3.096798"><ele>136</ele><time>2020-06-12T09:23:07Z</time><name>PT365</name></trkpt>
<trkpt lat="54.346073" lon="-3.096809"><ele>136</ele><time>2020-06-12T09:23:08Z</time><name>PT366</name></trkpt>
<trkpt lat="54.346078" lon="-3.096822"><ele>136</ele><time>2020-06-12T09:23:09Z</time><name>PT367</name></trkpt>
<trkpt lat="54.346077" lon="-3.096835"><ele>136</ele><time>2020-06-12T09:23:10Z</time><name>PT368</name></trkpt>
<trkpt lat="54.346080" lon="-3.096845"><ele>136</ele><time>2020-06-12T09:23:11Z</time><name>PT369</name></trkpt>
<trkpt lat="54.346085" lon="-3.096849"><ele>136</ele><time>2020-06-12T09:23:12Z</time><name>PT370</name></trkpt>
<trkpt lat="54.346087" lon="-3.096859"><ele>136</ele><time>2020-06-12T09:23:13Z</time><name>PT371</name></trkpt>
<trkpt lat="54.346093" lon="-3.096870"><ele>136</ele><time>2020-06-12T09:23:14Z</time><name>PT372</name></trkpt>
<trkpt lat="54.346093" lon="-3.096875"><ele>137</ele><time>2020-06-12T09:23:15Z</time><name>PT373</name></trkpt>
<trkpt lat="54.346091" lon="-3.096883"><ele>137</ele><time>2020-06-12T09:23:16Z</time><name>PT374</name></trkpt>
<trkpt lat="54.346088" lon="-3.096884"><ele>137</ele><time>2020-06-12T09:23:17Z</time><name>PT375</name></trkpt>
<trkpt lat="54.346084" lon="-3.096889"><ele>137</ele><time>2020-06-12T09:23:18Z</time><name>PT376</name></trkpt>
<trkpt lat="54.346081" lon="-3.096893"><ele>137</ele><time>2020-06-12T09:23:19Z</time><name>PT377</name></trkpt>
<trkpt lat="54.346077" lon="-3.096899"><ele>137</ele><time>2020-06-12T09:23:20Z</time><name>PT378</name></trkpt>
<trkpt lat="54.346068" lon="-3.096949"><ele>137</ele><time>2020-06-12T09:23:26Z</time><name>PT379</name></trkpt>
<trkpt lat="54.346061" lon="-3.096990"><ele>137</ele><time>2020-06-12T09:23:27Z</time><name>PT380</name></trkpt>
<trkpt lat="54.346060" lon="-3.097005"><ele>137</ele><time>2020-06-12T09:23:28Z</time><name>PT381</name></trkpt>
<trkpt lat="54.346055" lon="-3.097024"><ele>136</ele><time>2020-06-12T09:23:31Z</time><name>PT382</name></trkpt>
<trkpt lat="54.346053" lon="-3.097050"><ele>136</ele><time>2020-06-12T09:23:32Z</time><name>PT383</name></trkpt>
<trkpt lat="54.346052" lon="-3.097065"><ele>136</ele><time>2020-06-12T09:23:33Z</time><name>PT384</name></trkpt>
<trkpt lat="54.346053" lon="-3.097086"><ele>136</ele><time>2020-06-12T09:23:34Z</time><name>PT385</name></trkpt>
<trkpt lat="54.346051" lon="-3.097102"><ele>136</ele><time>2020-06-12T09:23:35Z</time><name>PT386</name></trkpt>
<trkpt lat="54.346052" lon="-3.097111"><ele>135</ele><time>2020-06-12T09:23:36Z</time><name>PT387</name></trkpt>
<trkpt lat="54.346052" lon="-3.097123"><ele>136</ele><time>2020-06-12T09:23:37Z</time><name>PT388</name></trkpt>
<trkpt lat="54.346052" lon="-3.097133"><ele>136</ele><time>2020-06-12T09:23:38Z</time><name>PT389</name></trkpt>
<trkpt lat="54.346053" lon="-3.097150"><ele>136</ele><time>2020-06-12T09:23:39Z</time><name>PT390</name></trkpt>
<trkpt lat="54.346048" lon="-3.097166"><ele>136</ele><time>2020-06-12T09:23:40Z</time><name>PT391</name></trkpt>
<trkpt lat="54.346056" lon="-3.097178"><ele>136</ele><time>2020-06-12T09:23:41Z</time><name>PT392</name></trkpt>
<trkpt lat="54.346058" lon="-3.097188"><ele>135</ele><time>2020-06-12T09:23:42Z</time><name>PT393</name></trkpt>
<trkpt lat="54.346058" lon="-3.097205"><ele>137</ele><time>2020-06-12T09:23:43Z</time><name>PT394</name></trkpt>
<trkpt lat="54.346060" lon="-3.097223"><ele>138</ele><time>2020-06-12T09:23:44Z</time><name>PT395</name></trkpt>
<trkpt lat="54.346072" lon="-3.097234"><ele>140</ele><time>2020-06-12T09:23:45Z</time><name>PT396</name></trkpt>
<trkpt lat="54.346070" lon="-3.097251"><ele>140</ele><time>2020-06-12T09:23:46Z</time><name>PT397</name></trkpt>
<trkpt lat="54.346071" lon="-3.097268"><ele>141</ele><time>2020-06-12T09:23:47Z</time><name>PT398</name></trkpt>
<trkpt lat="54.346066" lon="-3.097287"><ele>141</ele><time>2020-06-12T09:23:48Z</time><name>PT399</name></trkpt>
<trkpt lat="54.346060" lon="-3.097315"><ele>142</ele><time>2020-06-12T09:23:49Z</time><name>PT400</name></trkpt>
<trkpt lat="54.346049" lon="-3.097335"><ele>142</ele><time>2020-06-12T09:23:50Z</time><name>PT401</name></trkpt>
<trkpt lat="54.346047" lon="-3.097349"><ele>142</ele><time>2020-06-12T09:23:51Z</time><name>PT402</name></trkpt>
<trkpt lat="54.346047" lon="-3.097365"><ele>142</ele><time>2020-06-12T09:23:52Z</time><name>PT403</name></trkpt>
<trkpt lat="54.346045" lon="-3.097385"><ele>143</ele><time>2020-06-12T09:23:53Z</time><name>PT404</name></trkpt>
<trkpt lat="54.346034" lon="-3.097410"><ele>144</ele><time>2020-06-12T09:23:54Z</time><name>PT405</name></trkpt>
<trkpt lat="54.346034" lon="-3.097422"><ele>144</ele><time>2020-06-12T09:23:55Z</time><name>PT406</name></trkpt>
<trkpt lat="54.346035" lon="-3.097435"><ele>145</ele><time>2020-06-12T09:23:56Z</time><name>PT407</name></trkpt>
<trkpt lat="54.346034" lon="-3.097450"><ele>146</ele><time>2020-06-12T09:23:57Z</time><name>PT408</name></trkpt>
<trkpt lat="54.346030" lon="-3.097463"><ele>146</ele><time>2020-06-12T09:23:58Z</time><name>PT409</name></trkpt>
<trkpt lat="54.346017" lon="-3.097478"><ele>147</ele><time>2020-06-12T09:23:59Z</time><name>PT410</name></trkpt>
<trkpt lat="54.346017" lon="-3.097496"><ele>148</ele><time>2020-06-12T09:24:00Z</time><name>PT411</name></trkpt>
<trkpt lat="54.346018" lon="-3.097509"><ele>148</ele><time>2020-06-12T09:24:01Z</time><name>PT412</name></trkpt>
<trkpt lat="54.346020" lon="-3.097523"><ele>148</ele><time>2020-06-12T09:24:02Z</time><name>PT413</name></trkpt>
<trkpt lat="54.346023" lon="-3.097539"><ele>148</ele><time>2020-06-12T09:24:03Z</time><name>PT414</name></trkpt>
<trkpt lat="54.346024" lon="-3.097559"><ele>150</ele><time>2020-06-12T09:24:04Z</time><name>PT415</name></trkpt>
<trkpt lat="54.346028" lon="-3.097575"><ele>150</ele><time>2020-06-12T09:24:05Z</time><name>PT416</name></trkpt>
<trkpt lat="54.346030" lon="-3.097589"><ele>150</ele><time>2020-06-12T09:24:06Z</time><name>PT417</name></trkpt>
<trkpt lat="54.346036" lon="-3.097603"><ele>150</ele><time>2020-06-12T09:24:07Z</time><name>PT418</name></trkpt>
<trkpt lat="54.346046" lon="-3.097617"><ele>151</ele><time>2020-06-12T09:24:08Z</time><name>PT419</name></trkpt>
<trkpt lat="54.346058" lon="-3.097626"><ele>151</ele><time>2020-06-12T09:24:09Z</time><name>PT420</name></trkpt>
<trkpt lat="54.346064" lon="-3.097634"><ele>151</ele><time>2020-06-12T09:24:10Z</time><name>PT421</name></trkpt>
<trkpt lat="54.346069" lon="-3.097641"><ele>151</ele><time>2020-06-12T09:24:11Z</time><name>PT422</name></trkpt>
<trkpt lat="54.346073" lon="-3.097645"><ele>151</ele><time>2020-06-12T09:24:12Z</time><name>PT423</name></trkpt>
<trkpt lat="54.346083" lon="-3.097645"><ele>150</ele><time>2020-06-12T09:24:13Z</time><name>PT424</name></trkpt>
<trkpt lat="54.346084" lon="-3.097658"><ele>151</ele><time>2020-06-12T09:24:14Z</time><name>PT425</name></trkpt>
<trkpt lat="54.346086" lon="-3.097670"><ele>151</ele><time>2020-06-12T09:24:15Z</time><name>PT426</name></trkpt>
<trkpt lat="54.346089" lon="-3.097680"><ele>151</ele><time>2020-06-12T09:24:16Z</time><name>PT427</name></trkpt>
<trkpt lat="54.346102" lon="-3.097696"><ele>151</ele><time>2020-06-12T09:24:24Z</time><name>PT428</name></trkpt>
<trkpt lat="54.346117" lon="-3.097702"><ele>151</ele><time>2020-06-12T09:24:25Z</time><name>PT429</name></trkpt>
<trkpt lat="54.346134" lon="-3.097732"><ele>152</ele><time>2020-06-12T09:24:26Z</time><name>PT430</name></trkpt>
<trkpt lat="54.346142" lon="-3.097750"><ele>152</ele><time>2020-06-12T09:24:27Z</time><name>PT431</name></trkpt>
<trkpt lat="54.346155" lon="-3.097771"><ele>153</ele><time>2020-06-12T09:24:28Z</time><name>PT432</name></trkpt>
<trkpt lat="54.346164" lon="-3.097779"><ele>153</ele><time>2020-06-12T09:24:29Z</time><name>PT433</name></trkpt>
<trkpt lat="54.346172" lon="-3.097793"><ele>153</ele><time>2020-06-12T09:24:30Z</time><name>PT434</name></trkpt>
<trkpt lat="54.346179" lon="-3.097806"><ele>153</ele><time>2020-06-12T09:24:31Z</time><name>PT435</name></trkpt>
<trkpt lat="54.346187" lon="-3.097814"><ele>154</ele><time>2020-06-12T09:24:32Z</time><name>PT436</name></trkpt>
<trkpt lat="54.346189" lon="-3.097825"><ele>154</ele><time>2020-06-12T09:24:33Z</time><name>PT437</name></trkpt>
<trkpt lat="54.346190" lon="-3.097835"><ele>154</ele><time>2020-06-12T09:24:34Z</time><name>PT438</name></trkpt>
<trkpt lat="54.346192" lon="-3.097844"><ele>154</ele><time>2020-06-12T09:24:35Z</time><name>PT439</name></trkpt>
<trkpt lat="54.346202" lon="-3.097851"><ele>154</ele><time>2020-06-12T09:24:36Z</time><name>PT440</name></trkpt>
<trkpt lat="54.346204" lon="-3.097866"><ele>155</ele><time>2020-06-12T09:24:37Z</time><name>PT441</name></trkpt>
<trkpt lat="54.346204" lon="-3.097877"><ele>155</ele><time>2020-06-12T09:24:38Z</time><name>PT442</name></trkpt>
<trkpt lat="54.346210" lon="-3.097892"><ele>155</ele><time>2020-06-12T09:24:39Z</time><name>PT443</name></trkpt>
<trkpt lat="54.346213" lon="-3.097903"><ele>155</ele><time>2020-06-12T09:24:40Z</time><name>PT444</name></trkpt>
<trkpt lat="54.346215" lon="-3.097916"><ele>155</ele><time>2020-06-12T09:24:41Z</time><name>PT445</name></trkpt>
<trkpt lat="54.346220" lon="-3.097925"><ele>156</ele><time>2020-06-12T09:24:42Z</time><name>PT446</name></trkpt>
<trkpt lat="54.346222" lon="-3.097941"><ele>156</ele><time>2020-06-12T09:24:43Z</time><name>PT447</name></trkpt>
<trkpt lat="54.346223" lon="-3.097942"><ele>156</ele><time>2020-06-12T09:24:44Z</time><name>PT448</name></trkpt>
<trkpt lat="54.346225" lon="-3.097944"><ele>156</ele><time>2020-06-12T09:24:45Z</time><name>PT449</name></trkpt>
<trkpt lat="54.346225" lon="-3.097933"><ele>156</ele><time>2020-06-12T09:24:50Z</time><name>PT450</name></trkpt>
<trkpt lat="54.346231" lon="-3.097921"><ele>156</ele><time>2020-06-12T09:24:51Z</time><name>PT451</name></trkpt>
<trkpt lat="54.346231" lon="-3.097924"><ele>157</ele><time>2020-06-12T09:24:52Z</time><name>PT452</name></trkpt>
<trkpt lat="54.346233" lon="-3.097927"><ele>157</ele><time>2020-06-12T09:24:53Z</time><name>PT453</name></trkpt>
<trkpt lat="54.346230" lon="-3.097931"><ele>157</ele><time>2020-06-12T09:24:54Z</time><name>PT454</name></trkpt>
<trkpt lat="54.346230" lon="-3.097939"><ele>158</ele><time>2020-06-12T09:24:55Z</time><name>PT455</name></trkpt>
<trkpt lat="54.346229" lon="-3.097947"><ele>158</ele><time>2020-06-12T09:24:56Z</time><name>PT456</name></trkpt>
<trkpt lat="54.346230" lon="-3.097955"><ele>158</ele><time>2020-06-12T09:24:57Z</time><name>PT457</name></trkpt>
<trkpt lat="54.346231" lon="-3.097952"><ele>158</ele><time>2020-06-12T09:24:58Z</time><name>PT458</name></trkpt>
<trkpt lat="54.346230" lon="-3.097956"><ele>158</ele><time>2020-06-12T09:24:59Z</time><name>PT459</name></trkpt>
<trkpt lat="54.346228" lon="-3.097967"><ele>158</ele><time>2020-06-12T09:25:00Z</time><name>PT460</name></trkpt>
<trkpt lat="54.346223" lon="-3.097979"><ele>158</ele><time>2020-06-12T09:25:01Z</time><name>PT461</name></trkpt>
<trkpt lat="54.346222" lon="-3.097996"><ele>158</ele><time>2020-06-12T09:25:02Z</time><name>PT462</name></trkpt>
<trkpt lat="54.346217" lon="-3.098007"><ele>158</ele><time>2020-06-12T09:25:03Z</time><name>PT463</name></trkpt>
<trkpt lat="54.346219" lon="-3.098024"><ele>158</ele><time>2020-06-12T09:25:04Z</time><name>PT464</name></trkpt>
<trkpt lat="54.346214" lon="-3.098037"><ele>158</ele><time>2020-06-12T09:25:05Z</time><name>PT465</name></trkpt>
<trkpt lat="54.346206" lon="-3.098053"><ele>158</ele><time>2020-06-12T09:25:06Z</time><name>PT466</name></trkpt>
<trkpt lat="54.346200" lon="-3.098068"><ele>159</ele><time>2020-06-12T09:25:07Z</time><name>PT467</name></trkpt>
<trkpt lat="54.346197" lon="-3.098086"><ele>159</ele><time>2020-06-12T09:25:08Z</time><name>PT468</name></trkpt>
<trkpt lat="54.346194" lon="-3.098101"><ele>159</ele><time>2020-06-12T09:25:09Z</time><name>PT469</name></trkpt>
<trkpt lat="54.346189" lon="-3.098116"><ele>159</ele><time>2020-06-12T09:25:10Z</time><name>PT470</name></trkpt>
<trkpt lat="54.346188" lon="-3.098131"><ele>159</ele><time>2020-06-12T09:25:11Z</time><name>PT471</name></trkpt>
<trkpt lat="54.346187" lon="-3.098144"><ele>160</ele><time>2020-06-12T09:25:12Z</time><name>PT472</name></trkpt>
<trkpt lat="54.346190" lon="-3.098160"><ele>160</ele><time>2020-06-12T09:25:13Z</time><name>PT473</name></trkpt>
<trkpt lat="54.346188" lon="-3.098173"><ele>160</ele><time>2020-06-12T09:25:14Z</time><name>PT474</name></trkpt>
<trkpt lat="54.346183" lon="-3.098185"><ele>160</ele><time>2020-06-12T09:25:15Z</time><name>PT475</name></trkpt>
<trkpt lat="54.346178" lon="-3.098194"><ele>160</ele><time>2020-06-12T09:25:16Z</time><name>PT476</name></trkpt>
<trkpt lat="54.346172" lon="-3.098208"><ele>160</ele><time>2020-06-12T09:25:17Z</time><name>PT477</name></trkpt>
<trkpt lat="54.346171" lon="-3.098219"><ele>160</ele><time>2020-06-12T09:25:18Z</time><name>PT478</name></trkpt>
<trkpt lat="54.346170" lon="-3.098230"><ele>160</ele><time>2020-06-12T09:25:19Z</time><name>PT479</name></trkpt>
<trkpt lat="54.346168" lon="-3.098243"><ele>160</ele><time>2020-06-12T09:25:20Z</time><name>PT480</name></trkpt>
<trkpt lat="54.346161" lon="-3.098263"><ele>160</ele><time>2020-06-12T09:25:21Z</time><name>PT481</name></trkpt>
<trkpt lat="54.346155" lon="-3.098283"><ele>161</ele><time>2020-06-12T09:25:22Z</time><name>PT482</name></trkpt>
<trkpt lat="54.346153" lon="-3.098299"><ele>161</ele><time>2020-06-12T09:25:23Z</time><name>PT483</name></trkpt>
<trkpt lat="54.346157" lon="-3.098315"><ele>161</ele><time>2020-06-12T09:25:24Z</time><name>PT484</name></trkpt>
<trkpt lat="54.346156" lon="-3.098328"><ele>160</ele><time>2020-06-12T09:25:25Z</time><name>PT485</name></trkpt>
<trkpt lat="54.346156" lon="-3.098344"><ele>160</ele><time>2020-06-12T09:25:26Z</time><name>PT486</name></trkpt>
<trkpt lat="54.346159" lon="-3.098364"><ele>160</ele><time>2020-06-12T09:25:27Z</time><name>PT487</name></trkpt>
<trkpt lat="54.346160" lon="-3.098386"><ele>161</ele><time>2020-06-12T09:25:28Z</time><name>PT488</name></trkpt>
<trkpt lat="54.346162" lon="-3.098401"><ele>160</ele><time>2020-06-12T09:25:29Z</time><name>PT489</name></trkpt>
<trkpt lat="54.346164" lon="-3.098413"><ele>161</ele><time>2020-06-12T09:25:30Z</time><name>PT490</name></trkpt>
<trkpt lat="54.346166" lon="-3.098427"><ele>161</ele><time>2020-06-12T09:25:31Z</time><name>PT491</name></trkpt>
<trkpt lat="54.346167" lon="-3.098445"><ele>162</ele><time>2020-06-12T09:25:32Z</time><name>PT492</name></trkpt>
<trkpt lat="54.346167" lon="-3.098457"><ele>161</ele><time>2020-06-12T09:25:33Z</time><name>PT493</name></trkpt>
<trkpt lat="54.346169" lon="-3.098473"><ele>161</ele><time>2020-06-12T09:25:34Z</time><name>PT494</name></trkpt>
<trkpt lat="54.346173" lon="-3.098487"><ele>161</ele><time>2020-06-12T09:25:35Z</time><name>PT495</name></trkpt>
<trkpt lat="54.346176" lon="-3.098507"><ele>161</ele><time>2020-06-12T09:25:36Z</time><name>PT496</name></trkpt>
<trkpt lat="54.346177" lon="-3.098520"><ele>161</ele><time>2020-06-12T09:25:37Z</time><name>PT497</name></trkpt>
<trkpt lat="54.346180" lon="-3.098538"><ele>161</ele><time>2020-06-12T09:25:38Z</time><name>PT498</name></trkpt>
<trkpt lat="54.346186" lon="-3.098550"><ele>161</ele><time>2020-06-12T09:25:39Z</time><name>PT499</name></trkpt>
<trkpt lat="54.346193" lon="-3.098561"><ele>161</ele><time>2020-06-12T09:25:40Z</time><name>PT500</name></trkpt>
<trkpt lat="54.346199" lon="-3.098571"><ele>161</ele><time>2020-06-12T09:25:41Z</time><name>PT501</name></trkpt>
<trkpt lat="54.346203" lon="-3.098584"><ele>161</ele><time>2020-06-12T09:25:42Z</time><name>PT502</name></trkpt>
<trkpt lat="54.346211" lon="-3.098601"><ele>161</ele><time>2020-06-12T09:25:43Z</time><name>PT503</name></trkpt>
<trkpt lat="54.346221" lon="-3.098613"><ele>161</ele><time>2020-06-12T09:25:44Z</time><name>PT504</name></trkpt>
<trkpt lat="54.346231" lon="-3.098622"><ele>162</ele><time>2020-06-12T09:25:45Z</time><name>PT505</name></trkpt>
<trkpt lat="54.346239" lon="-3.098632"><ele>162</ele><time>2020-06-12T09:25:46Z</time><name>PT506</name></trkpt>
<trkpt lat="54.346247" lon="-3.098641"><ele>162</ele><time>2020-06-12T09:25:47Z</time><name>PT507</name></trkpt>
<trkpt lat="54.346251" lon="-3.098646"><ele>161</ele><time>2020-06-12T09:25:48Z</time><name>PT508</name></trkpt>
<trkpt lat="54.346254" lon="-3.098656"><ele>162</ele><time>2020-06-12T09:25:49Z</time><name>PT509</name></trkpt>
<trkpt lat="54.346259" lon="-3.098666"><ele>162</ele><time>2020-06-12T09:25:50Z</time><name>PT510</name></trkpt>
<trkpt lat="54.346264" lon="-3.098675"><ele>162</ele><time>2020-06-12T09:25:51Z</time><name>PT511</name></trkpt>
<trkpt lat="54.346278" lon="-3.098676"><ele>162</ele><time>2020-06-12T09:25:52Z</time><name>PT512</name></trkpt>
<trkpt lat="54.346284" lon="-3.098687"><ele>162</ele><time>2020-06-12T09:25:53Z</time><name>PT513</name></trkpt>
<trkpt lat="54.346290" lon="-3.098699"><ele>163</ele><time>2020-06-12T09:25:54Z</time><name>PT514</name></trkpt>
<trkpt lat="54.346296" lon="-3.098711"><ele>163</ele><time>2020-06-12T09:25:55Z</time><name>PT515</name></trkpt>
<trkpt lat="54.346306" lon="-3.098717"><ele>163</ele><time>2020-06-12T09:25:56Z</time><name>PT516</name></trkpt>
<trkpt lat="54.346312" lon="-3.098724"><ele>163</ele><time>2020-06-12T09:25:57Z</time><name>PT517</name></trkpt>
<trkpt lat="54.346321" lon="-3.098729"><ele>164</ele><time>2020-06-12T09:25:58Z</time><name>PT518</name></trkpt>
<trkpt lat="54.346329" lon="-3.098726"><ele>163</ele><time>2020-06-12T09:25:59Z</time><name>PT519</name></trkpt>
<trkpt lat="54.346339" lon="-3.098726"><ele>163</ele><time>2020-06-12T09:26:00Z</time><name>PT520</name></trkpt>
<trkpt lat="54.346347" lon="-3.098726"><ele>163</ele><time>2020-06-12T09:26:01Z</time><name>PT521</name></trkpt>
<trkpt lat="54.346354" lon="-3.098734"><ele>163</ele><time>2020-06-12T09:26:02Z</time><name>PT522</name></trkpt>
<trkpt lat="54.346359" lon="-3.098742"><ele>163</ele><time>2020-06-12T09:26:03Z</time><name>PT523</name></trkpt>
<trkpt lat="54.346360" lon="-3.098760"><ele>164</ele><time>2020-06-12T09:26:04Z</time><name>PT524</name></trkpt>
<trkpt lat="54.346366" lon="-3.098769"><ele>164</ele><time>2020-06-12T09:26:05Z</time><name>PT525</name></trkpt>
<trkpt lat="54.346371" lon="-3.098790"><ele>165</ele><time>2020-06-12T09:26:06Z</time><name>PT526</name></trkpt>
<trkpt lat="54.346383" lon="-3.098792"><ele>165</ele><time>2020-06-12T09:26:07Z</time><name>PT527</name></trkpt>
<trkpt lat="54.346395" lon="-3.098794"><ele>165</ele><time>2020-06-12T09:26:08Z</time><name>PT528</name></trkpt>
<trkpt lat="54.346406" lon="-3.098798"><ele>165</ele><time>2020-06-12T09:26:09Z</time><name>PT529</name></trkpt>
<trkpt lat="54.346417" lon="-3.098803"><ele>165</ele><time>2020-06-12T09:26:10Z</time><name>PT530</name></trkpt>
<trkpt lat="54.346427" lon="-3.098810"><ele>165</ele><time>2020-06-12T09:26:11Z</time><name>PT531</name></trkpt>
<trkpt lat="54.346439" lon="-3.098818"><ele>164</ele><time>2020-06-12T09:26:12Z</time><name>PT532</name></trkpt>
<trkpt lat="54.346451" lon="-3.098824"><ele>164</ele><time>2020-06-12T09:26:13Z</time><name>PT533</name></trkpt>
<trkpt lat="54.346462" lon="-3.098831"><ele>165</ele><time>2020-06-12T09:26:14Z</time><name>PT534</name></trkpt>
<trkpt lat="54.346470" lon="-3.098835"><ele>165</ele><time>2020-06-12T09:26:15Z</time><name>PT535</name></trkpt>
<trkpt lat="54.346478" lon="-3.098840"><ele>164</ele><time>2020-06-12T09:26:16Z</time><name>PT536</name></trkpt>
<trkpt lat="54.346489" lon="-3.098845"><ele>164</ele><time>2020-06-12T09:26:17Z</time><name>PT537</name></trkpt>
<trkpt lat="54.346501" lon="-3.098850"><ele>164</ele><time>2020-06-12T09:26:18Z</time><name>PT538</name></trkpt>
<trkpt lat="54.346511" lon="-3.098854"><ele>164</ele><time>2020-06-12T09:26:19Z</time><name>PT539</name></trkpt>
<trkpt lat="54.346522" lon="-3.098859"><ele>164</ele><time>2020-06-12T09:26:20Z</time><name>PT540</name></trkpt>
<trkpt lat="54.346530" lon="-3.098861"><ele>164</ele><time>2020-06-12T09:26:21Z</time><name>PT541</name></trkpt>
<trkpt lat="54.346537" lon="-3.098863"><ele>164</ele><time>2020-06-12T09:26:22Z</time><name>PT542</name></trkpt>
<trkpt lat="54.346545" lon="-3.098866"><ele>163</ele><time>2020-06-12T09:26:23Z</time><name>PT543</name></trkpt>
<trkpt lat="54.346564" lon="-3.098868"><ele>165</ele><time>2020-06-12T09:26:24Z</time><name>PT544</name></trkpt>
<trkpt lat="54.346575" lon="-3.098868"><ele>165</ele><time>2020-06-12T09:26:25Z</time><name>PT545</name></trkpt>
<trkpt lat="54.346587" lon="-3.098872"><ele>165</ele><time>2020-06-12T09:26:26Z</time><name>PT546</name></trkpt>
<trkpt lat="54.346600" lon="-3.098874"><ele>166</ele><time>2020-06-12T09:26:27Z</time><name>PT547</name></trkpt>
<trkpt lat="54.346614" lon="-3.098876"><ele>166</ele><time>2020-06-12T09:26:28Z</time><name>PT548</name></trkpt>
<trkpt lat="54.346625" lon="-3.098878"><ele>167</ele><time>2020-06-12T09:26:29Z</time><name>PT549</name></trkpt>
<trkpt lat="54.346637" lon="-3.098881"><ele>167</ele><time>2020-06-12T09:26:30Z</time><name>PT550</name></trkpt>
<trkpt lat="54.346646" lon="-3.098885"><ele>166</ele><time>2020-06-12T09:26:31Z</time><name>PT551</name></trkpt>
<trkpt lat="54.346656" lon="-3.098888"><ele>166</ele><time>2020-06-12T09:26:32Z</time><name>PT552</name></trkpt>
<trkpt lat="54.346668" lon="-3.098888"><ele>166</ele><time>2020-06-12T09:26:34Z</time><name>PT553</name></trkpt>
<trkpt lat="54.346679" lon="-3.098887"><ele>167</ele><time>2020-06-12T09:26:34Z</time><name>PT554</name></trkpt>
<trkpt lat="54.346688" lon="-3.098883"><ele>166</ele><time>2020-06-12T09:26:35Z</time><name>PT555</name></trkpt>
<trkpt lat="54.346697" lon="-3.098881"><ele>166</ele><time>2020-06-12T09:26:36Z</time><name>PT556</name></trkpt>
<trkpt lat="54.346708" lon="-3.098880"><ele>166</ele><time>2020-06-12T09:26:37Z</time><name>PT557</name></trkpt>
<trkpt lat="54.346723" lon="-3.098880"><ele>167</ele><time>2020-06-12T09:26:38Z</time><name>PT558</name></trkpt>
<trkpt lat="54.346735" lon="-3.098883"><ele>167</ele><time>2020-06-12T09:26:40Z</time><name>PT559</name></trkpt>
<trkpt lat="54.346743" lon="-3.098884"><ele>166</ele><time>2020-06-12T09:26:40Z</time><name>PT560</name></trkpt>
<trkpt lat="54.346755" lon="-3.098886"><ele>166</ele><time>2020-06-12T09:26:41Z</time><name>PT561</name></trkpt>
<trkpt lat="54.346766" lon="-3.098887"><ele>166</ele><time>2020-06-12T09:26:42Z</time><name>PT562</name></trkpt>
<trkpt lat="54.346775" lon="-3.098890"><ele>165</ele><time>2020-06-12T09:26:43Z</time><name>PT563</name></trkpt>
<trkpt lat="54.346786" lon="-3.098892"><ele>166</ele><time>2020-06-12T09:26:44Z</time><name>PT564</name></trkpt>
<trkpt lat="54.346798" lon="-3.098892"><ele>166</ele><time>2020-06-12T09:26:45Z</time><name>PT565</name></trkpt>
<trkpt lat="54.346807" lon="-3.098891"><ele>166</ele><time>2020-06-12T09:26:46Z</time><name>PT566</name></trkpt>
<trkpt lat="54.346813" lon="-3.098890"><ele>165</ele><time>2020-06-12T09:26:47Z</time><name>PT567</name></trkpt>
<trkpt lat="54.346822" lon="-3.098888"><ele>166</ele><time>2020-06-12T09:26:48Z</time><name>PT568</name></trkpt>
<trkpt lat="54.346832" lon="-3.098884"><ele>166</ele><time>2020-06-12T09:26:49Z</time><name>PT569</name></trkpt>
<trkpt lat="54.346842" lon="-3.098881"><ele>165</ele><time>2020-06-12T09:26:50Z</time><name>PT570</name></trkpt>
<trkpt lat="54.346854" lon="-3.098886"><ele>166</ele><time>2020-06-12T09:26:51Z</time><name>PT571</name></trkpt>
<trkpt lat="54.346866" lon="-3.098888"><ele>166</ele><time>2020-06-12T09:26:52Z</time><name>PT572</name></trkpt>
<trkpt lat="54.346876" lon="-3.098888"><ele>166</ele><time>2020-06-12T09:26:53Z</time><name>PT573</name></trkpt>
<trkpt lat="54.346884" lon="-3.098889"><ele>166</ele><time>2020-06-12T09:26:54Z</time><name>PT574</name></trkpt>
<trkpt lat="54.346893" lon="-3.098888"><ele>166</ele><time>2020-06-12T09:26:55Z</time><name>PT575</name></trkpt>
<trkpt lat="54.346899" lon="-3.098888"><ele>166</ele><time>2020-06-12T09:26:56Z</time><name>PT576</name></trkpt>
<trkpt lat="54.346908" lon="-3.098886"><ele>166</ele><time>2020-06-12T09:26:57Z</time><name>PT577</name></trkpt>
<trkpt lat="54.346917" lon="-3.098885"><ele>165</ele><time>2020-06-12T09:26:58Z</time><name>PT578</name></trkpt>
<trkpt lat="54.346927" lon="-3.098884"><ele>165</ele><time>2020-06-12T09:26:59Z</time><name>PT579</name></trkpt>
<trkpt lat="54.346933" lon="-3.098883"><ele>165</ele><time>2020-06-12T09:27:00Z</time><name>PT580</name></trkpt>
<trkpt lat="54.346941" lon="-3.098885"><ele>165</ele><time>2020-06-12T09:27:01Z</time><name>PT581</name></trkpt>
<trkpt lat="54.346954" lon="-3.098884"><ele>165</ele><time>2020-06-12T09:27:02Z</time><name>PT582</name></trkpt>
<trkpt lat="54.346964" lon="-3.098882"><ele>165</ele><time>2020-06-12T09:27:03Z</time><name>PT583</name></trkpt>
<trkpt lat="54.346975" lon="-3.098878"><ele>165</ele><time>2020-06-12T09:27:04Z</time><name>PT584</name></trkpt>
<trkpt lat="54.346985" lon="-3.098877"><ele>165</ele><time>2020-06-12T09:27:05Z</time><name>PT585</name></trkpt>
<trkpt lat="54.346996" lon="-3.098876"><ele>165</ele><time>2020-06-12T09:27:06Z</time><name>PT586</name></trkpt>
<trkpt lat="54.347008" lon="-3.098872"><ele>165</ele><time>2020-06-12T09:27:07Z</time><name>PT587</name></trkpt>
<trkpt lat="54.347020" lon="-3.098868"><ele>165</ele><time>2020-06-12T09:27:08Z</time><name>PT588</name></trkpt>
<trkpt lat="54.347031" lon="-3.098865"><ele>165</ele><time>2020-06-12T09:27:09Z</time><name>PT589</name></trkpt>
<trkpt lat="54.347044" lon="-3.098865"><ele>165</ele><time>2020-06-12T09:27:10Z</time><name>PT590</name></trkpt>
<trkpt lat="54.347055" lon="-3.098864"><ele>165</ele><time>2020-06-12T09:27:11Z</time><name>PT591</name></trkpt>
<trkpt lat="54.347065" lon="-3.098863"><ele>165</ele><time>2020-06-12T09:27:12Z</time><name>PT592</name></trkpt>
<trkpt lat="54.347075" lon="-3.098862"><ele>164</ele><time>2020-06-12T09:27:13Z</time><name>PT593</name></trkpt>
<trkpt lat="54.347087" lon="-3.098859"><ele>165</ele><time>2020-06-12T09:27:14Z</time><name>PT594</name></trkpt>
<trkpt lat="54.347098" lon="-3.098856"><ele>164</ele><time>2020-06-12T09:27:15Z</time><name>PT595</name></trkpt>
<trkpt lat="54.347107" lon="-3.098851"><ele>164</ele><time>2020-06-12T09:27:16Z</time><name>PT596</name></trkpt>
<trkpt lat="54.347119" lon="-3.098848"><ele>165</ele><time>2020-06-12T09:27:17Z</time><name>PT597</name></trkpt>
<trkpt lat="54.347130" lon="-3.098844"><ele>165</ele><time>2020-06-12T09:27:18Z</time><name>PT598</name></trkpt>
<trkpt lat="54.347142" lon="-3.098841"><ele>165</ele><time>2020-06-12T09:27:19Z</time><name>PT599</name></trkpt>
<trkpt lat="54.347155" lon="-3.098843"><ele>165</ele><time>2020-06-12T09:27:20Z</time><name>PT600</name></trkpt>
<trkpt lat="54.347165" lon="-3.098842"><ele>165</ele><time>2020-06-12T09:27:21Z</time><name>PT601</name></trkpt>
<trkpt lat="54.347176" lon="-3.098838"><ele>165</ele><time>2020-06-12T09:27:22Z</time><name>PT602</name></trkpt>
<trkpt lat="54.347187" lon="-3.098836"><ele>165</ele><time>2020-06-12T09:27:23Z</time><name>PT603</name></trkpt>
<trkpt lat="54.347198" lon="-3.098835"><ele>165</ele><time>2020-06-12T09:27:24Z</time><name>PT604</name></trkpt>
<trkpt lat="54.347209" lon="-3.098835"><ele>165</ele><time>2020-06-12T09:27:25Z</time><name>PT605</name></trkpt>
<trkpt lat="54.347222" lon="-3.098837"><ele>166</ele><time>2020-06-12T09:27:26Z</time><name>PT606</name></trkpt>
<trkpt lat="54.347230" lon="-3.098842"><ele>165</ele><time>2020-06-12T09:27:27Z</time><name>PT607</name></trkpt>
<trkpt lat="54.347243" lon="-3.098845"><ele>166</ele><time>2020-06-12T09:27:28Z</time><name>PT608</name></trkpt>
<trkpt lat="54.347254" lon="-3.098843"><ele>166</ele><time>2020-06-12T09:27:29Z</time><name>PT609</name></trkpt>
<trkpt lat="54.347267" lon="-3.098841"><ele>167</ele><time>2020-06-12T09:27:30Z</time><name>PT610</name></trkpt>
<trkpt lat="54.347279" lon="-3.098839"><ele>167</ele><time>2020-06-12T09:27:31Z</time><name>PT611</name></trkpt>
<trkpt lat="54.347291" lon="-3.098840"><ele>167</ele><time>2020-06-12T09:27:32Z</time><name>PT612</name></trkpt>
<trkpt lat="54.347301" lon="-3.098840"><ele>167</ele><time>2020-06-12T09:27:33Z</time><name>PT613</name></trkpt>
<trkpt lat="54.347311" lon="-3.098843"><ele>167</ele><time>2020-06-12T09:27:34Z</time><name>PT614</name></trkpt>
<trkpt lat="54.347320" lon="-3.098846"><ele>166</ele><time>2020-06-12T09:27:35Z</time><name>PT615</name></trkpt>
<trkpt lat="54.347329" lon="-3.098847"><ele>166</ele><time>2020-06-12T09:27:36Z</time><name>PT616</name></trkpt>
<trkpt lat="54.347339" lon="-3.098847"><ele>167</ele><time>2020-06-12T09:27:37Z</time><name>PT617</name></trkpt>
<trkpt lat="54.347349" lon="-3.098848"><ele>167</ele><time>2020-06-12T09:27:38Z</time><name>PT618</name></trkpt>
<trkpt lat="54.347358" lon="-3.098843"><ele>167</ele><time>2020-06-12T09:27:39Z</time><name>PT619</name></trkpt>
<trkpt lat="54.347366" lon="-3.098847"><ele>168</ele><time>2020-06-12T09:27:40Z</time><name>PT620</name></trkpt>
<trkpt lat="54.347369" lon="-3.098846"><ele>168</ele><time>2020-06-12T09:27:41Z</time><name>PT621</name></trkpt>
<trkpt lat="54.347375" lon="-3.098844"><ele>169</ele><time>2020-06-12T09:27:42Z</time><name>PT622</name></trkpt>
<trkpt lat="54.347380" lon="-3.098846"><ele>170</ele><time>2020-06-12T09:27:43Z</time><name>PT623</name></trkpt>
<trkpt lat="54.347387" lon="-3.098849"><ele>170</ele><time>2020-06-12T09:27:44Z</time><name>PT624</name></trkpt>
<trkpt lat="54.347393" lon="-3.098849"><ele>170</ele><time>2020-06-12T09:27:45Z</time><name>PT625</name></trkpt>
<trkpt lat="54.347396" lon="-3.098849"><ele>170</ele><time>2020-06-12T09:27:46Z</time><name>PT626</name></trkpt>
<trkpt lat="54.347397" lon="-3.098854"><ele>170</ele><time>2020-06-12T09:27:47Z</time><name>PT627</name></trkpt>
<trkpt lat="54.347394" lon="-3.098853"><ele>170</ele><time>2020-06-12T09:27:48Z</time><name>PT628</name></trkpt>
<trkpt lat="54.347400" lon="-3.098846"><ele>171</ele><time>2020-06-12T09:27:49Z</time><name>PT629</name></trkpt>
<trkpt lat="54.347400" lon="-3.098845"><ele>171</ele><time>2020-06-12T09:27:50Z</time><name>PT630</name></trkpt>
<trkpt lat="54.347400" lon="-3.098845"><ele>171</ele><time>2020-06-12T09:27:51Z</time><name>PT631</name></trkpt>
<trkpt lat="54.347399" lon="-3.098845"><ele>171</ele><time>2020-06-12T09:27:52Z</time><name>PT632</name></trkpt>
<trkpt lat="54.347399" lon="-3.098844"><ele>171</ele><time>2020-06-12T09:27:59Z</time><name>PT633</name></trkpt>
<trkpt lat="54.347407" lon="-3.098841"><ele>171</ele><time>2020-06-12T09:28:00Z</time><name>PT634</name></trkpt>
<trkpt lat="54.347419" lon="-3.098848"><ele>172</ele><time>2020-06-12T09:28:01Z</time><name>PT635</name></trkpt>
<trkpt lat="54.347429" lon="-3.098857"><ele>172</ele><time>2020-06-12T09:28:02Z</time><name>PT636</name></trkpt>
<trkpt lat="54.347438" lon="-3.098862"><ele>171</ele><time>2020-06-12T09:28:03Z</time><name>PT637</name></trkpt>
<trkpt lat="54.347445" lon="-3.098863"><ele>170</ele><time>2020-06-12T09:28:04Z</time><name>PT638</name></trkpt>
<trkpt lat="54.347460" lon="-3.098866"><ele>170</ele><time>2020-06-12T09:28:05Z</time><name>PT639</name></trkpt>
<trkpt lat="54.347469" lon="-3.098863"><ele>170</ele><time>2020-06-12T09:28:06Z</time><name>PT640</name></trkpt>
<trkpt lat="54.347479" lon="-3.098869"><ele>170</ele><time>2020-06-12T09:28:07Z</time><name>PT641</name></trkpt>
<trkpt lat="54.347486" lon="-3.098873"><ele>169</ele><time>2020-06-12T09:28:08Z</time><name>PT642</name></trkpt>
<trkpt lat="54.347492" lon="-3.098873"><ele>169</ele><time>2020-06-12T09:28:09Z</time><name>PT643</name></trkpt>
<trkpt lat="54.347498" lon="-3.098877"><ele>169</ele><time>2020-06-12T09:28:10Z</time><name>PT644</name></trkpt>
<trkpt lat="54.347502" lon="-3.098878"><ele>169</ele><time>2020-06-12T09:28:11Z</time><name>PT645</name></trkpt>
<trkpt lat="54.347509" lon="-3.098879"><ele>169</ele><time>2020-06-12T09:28:12Z</time><name>PT646</name></trkpt>
<trkpt lat="54.347518" lon="-3.098882"><ele>168</ele><time>2020-06-12T09:28:13Z</time><name>PT647</name></trkpt>
<trkpt lat="54.347528" lon="-3.098892"><ele>168</ele><time>2020-06-12T09:28:14Z</time><name>PT648</name></trkpt>
<trkpt lat="54.347539" lon="-3.098903"><ele>169</ele><time>2020-06-12T09:28:15Z</time><name>PT649</name></trkpt>
<trkpt lat="54.347550" lon="-3.098912"><ele>168</ele><time>2020-06-12T09:28:16Z</time><name>PT650</name></trkpt>
<trkpt lat="54.347560" lon="-3.098921"><ele>168</ele><time>2020-06-12T09:28:17Z</time><name>PT651</name></trkpt>
<trkpt lat="54.347570" lon="-3.098927"><ele>168</ele><time>2020-06-12T09:28:18Z</time><name>PT652</name></trkpt>
<trkpt lat="54.347584" lon="-3.098931"><ele>168</ele><time>2020-06-12T09:28:19Z</time><name>PT653</name></trkpt>
<trkpt lat="54.347596" lon="-3.098933"><ele>169</ele><time>2020-06-12T09:28:20Z</time><name>PT654</name></trkpt>
<trkpt lat="54.347602" lon="-3.098937"><ele>168</ele><time>2020-06-12T09:28:21Z</time><name>PT655</name></trkpt>
<trkpt lat="54.347613" lon="-3.098944"><ele>169</ele><time>2020-06-12T09:28:22Z</time><name>PT656</name></trkpt>
<trkpt lat="54.347626" lon="-3.098952"><ele>168</ele><time>2020-06-12T09:28:23Z</time><name>PT657</name></trkpt>
<trkpt lat="54.347639" lon="-3.098959"><ele>168</ele><time>2020-06-12T09:28:24Z</time><name>PT658</name></trkpt>
<trkpt lat="54.347651" lon="-3.098962"><ele>168</ele><time>2020-06-12T09:28:25Z</time><name>PT659</name></trkpt>
<trkpt lat="54.347661" lon="-3.098962"><ele>168</ele><time>2020-06-12T09:28:26Z</time><name>PT660</name></trkpt>
<trkpt lat="54.347670" lon="-3.098969"><ele>168</ele><time>2020-06-12T09:28:27Z</time><name>PT661</name></trkpt>
<trkpt lat="54.347679" lon="-3.098978"><ele>167</ele><time>2020-06-12T09:28:28Z</time><name>PT662</name></trkpt>
<trkpt lat="54.347689" lon="-3.098988"><ele>167</ele><time>2020-06-12T09:28:29Z</time><name>PT663</name></trkpt>
<trkpt lat="54.347697" lon="-3.098995"><ele>167</ele><time>2020-06-12T09:28:30Z</time><name>PT664</name></trkpt>
<trkpt lat="54.347704" lon="-3.099003"><ele>168</ele><time>2020-06-12T09:28:31Z</time><name>PT665</name></trkpt>
<trkpt lat="54.347714" lon="-3.099012"><ele>168</ele><time>2020-06-12T09:28:32Z</time><name>PT666</name></trkpt>
<trkpt lat="54.347724" lon="-3.099018"><ele>168</ele><time>2020-06-12T09:28:33Z</time><name>PT667</name></trkpt>
<trkpt lat="54.347733" lon="-3.099025"><ele>168</ele><time>2020-06-12T09:28:34Z</time><name>PT668</name></trkpt>
<trkpt lat="54.347743" lon="-3.099034"><ele>168</ele><time>2020-06-12T09:28:35Z</time><name>PT669</name></trkpt>
<trkpt lat="54.347752" lon="-3.099041"><ele>168</ele><time>2020-06-12T09:28:36Z</time><name>PT670</name></trkpt>
<trkpt lat="54.347763" lon="-3.099049"><ele>168</ele><time>2020-06-12T09:28:37Z</time><name>PT671</name></trkpt>
<trkpt lat="54.347770" lon="-3.099052"><ele>167</ele><time>2020-06-12T09:28:38Z</time><name>PT672</name></trkpt>
<trkpt lat="54.347777" lon="-3.099058"><ele>167</ele><time>2020-06-12T09:28:39Z</time><name>PT673</name></trkpt>
<trkpt lat="54.347785" lon="-3.099067"><ele>167</ele><time>2020-06-12T09:28:40Z</time><name>PT674</name></trkpt>
<trkpt lat="54.347793" lon="-3.099077"><ele>167</ele><time>2020-06-12T09:28:41Z</time><name>PT675</name></trkpt>
<trkpt lat="54.347801" lon="-3.099086"><ele>167</ele><time>2020-06-12T09:28:42Z</time><name>PT676</name></trkpt>
<trkpt lat="54.347810" lon="-3.099091"><ele>167</ele><time>2020-06-12T09:28:43Z</time><name>PT677</name></trkpt>
<trkpt lat="54.347826" lon="-3.099097"><ele>168</ele><time>2020-06-12T09:28:44Z</time><name>PT678</name></trkpt>
<trkpt lat="54.347837" lon="-3.099102"><ele>168</ele><time>2020-06-12T09:28:45Z</time><name>PT679</name></trkpt>
<trkpt lat="54.347854" lon="-3.099108"><ele>168</ele><time>2020-06-12T09:28:46Z</time><name>PT680</name></trkpt>
<trkpt lat="54.347866" lon="-3.099118"><ele>167</ele><time>2020-06-12T09:28:47Z</time><name>PT681</name></trkpt>
<trkpt lat="54.347870" lon="-3.099123"><ele>166</ele><time>2020-06-12T09:28:48Z</time><name>PT682</name></trkpt>
<trkpt lat="54.347875" lon="-3.099138"><ele>166</ele><time>2020-06-12T09:28:49Z</time><name>PT683</name></trkpt>
<trkpt lat="54.347883" lon="-3.099150"><ele>166</ele><time>2020-06-12T09:28:50Z</time><name>PT684</name></trkpt>
<trkpt lat="54.347894" lon="-3.099158"><ele>166</ele><time>2020-06-12T09:28:51Z</time><name>PT685</name></trkpt>
<trkpt lat="54.347910" lon="-3.099163"><ele>167</ele><time>2020-06-12T09:28:52Z</time><name>PT686</name></trkpt>
<trkpt lat="54.347919" lon="-3.099173"><ele>167</ele><time>2020-06-12T09:28:53Z</time><name>PT687</name></trkpt>
<trkpt lat="54.347924" lon="-3.099180"><ele>166</ele><time>2020-06-12T09:28:54Z</time><name>PT688</name></trkpt>
<trkpt lat="54.347933" lon="-3.099188"><ele>167</ele><time>2020-06-12T09:28:55Z</time><name>PT689</name></trkpt>
<trkpt lat="54.347938" lon="-3.099199"><ele>166</ele><time>2020-06-12T09:28:56Z</time><name>PT690</name></trkpt>
<trkpt lat="54.347945" lon="-3.099211"><ele>165</ele><time>2020-06-12T09:28:57Z</time><name>PT691</name></trkpt>
<trkpt lat="54.347953" lon="-3.099224"><ele>165</ele><time>2020-06-12T09:28:58Z</time><name>PT692</name></trkpt>
<trkpt lat="54.347960" lon="-3.099236"><ele>165</ele><time>2020-06-12T09:28:59Z</time><name>PT693</name></trkpt>
<trkpt lat="54.347970" lon="-3.099249"><ele>166</ele><time>2020-06-12T09:29:00Z</time><name>PT694</name></trkpt>
<trkpt lat="54.347978" lon="-3.099263"><ele>165</ele><time>2020-06-12T09:29:01Z</time><name>PT695</name></trkpt>
<trkpt lat="54.347986" lon="-3.099277"><ele>165</ele><time>2020-06-12T09:29:02Z</time><name>PT696</name></trkpt>
<trkpt lat="54.347998" lon="-3.099301"><ele>167</ele><time>2020-06-12T09:29:03Z</time><name>PT697</name></trkpt>
<trkpt lat="54.348005" lon="-3.099312"><ele>167</ele><time>2020-06-12T09:29:04Z</time><name>PT698</name></trkpt>
<trkpt lat="54.348017" lon="-3.099321"><ele>167</ele><time>2020-06-12T09:29:05Z</time><name>PT699</name></trkpt>
<trkpt lat="54.348032" lon="-3.099335"><ele>168</ele><time>2020-06-12T09:29:06Z</time><name>PT700</name></trkpt>
<trkpt lat="54.348047" lon="-3.099343"><ele>168</ele><time>2020-06-12T09:29:07Z</time><name>PT701</name></trkpt>
<trkpt lat="54.348061" lon="-3.099357"><ele>169</ele><time>2020-06-12T09:29:08Z</time><name>PT702</name></trkpt>
<trkpt lat="54.348074" lon="-3.099372"><ele>169</ele><time>2020-06-12T09:29:09Z</time><name>PT703</name></trkpt>
<trkpt lat="54.348085" lon="-3.099388"><ele>169</ele><time>2020-06-12T09:29:10Z</time><name>PT704</name></trkpt>
<trkpt lat="54.348092" lon="-3.099400"><ele>168</ele><time>2020-06-12T09:29:11Z</time><name>PT705</name></trkpt>
<trkpt lat="54.348104" lon="-3.099405"><ele>168</ele><time>2020-06-12T09:29:12Z</time><name>PT706</name></trkpt>
<trkpt lat="54.348115" lon="-3.099412"><ele>168</ele><time>2020-06-12T09:29:13Z</time><name>PT707</name></trkpt>
<trkpt lat="54.348127" lon="-3.099421"><ele>168</ele><time>2020-06-12T09:29:14Z</time><name>PT708</name></trkpt>
<trkpt lat="54.348140" lon="-3.099431"><ele>168</ele><time>2020-06-12T09:29:15Z</time><name>PT709</name></trkpt>
<trkpt lat="54.348157" lon="-3.099444"><ele>168</ele><time>2020-06-12T09:29:16Z</time><name>PT710</name></trkpt>
<trkpt lat="54.348170" lon="-3.099454"><ele>168</ele><time>2020-06-12T09:29:17Z</time><name>PT711</name></trkpt>
<trkpt lat="54.348185" lon="-3.099464"><ele>168</ele><time>2020-06-12T09:29:18Z</time><name>PT712</name></trkpt>
<trkpt lat="54.348197" lon="-3.099474"><ele>168</ele><time>2020-06-12T09:29:19Z</time><name>PT713</name></trkpt>
<trkpt lat="54.348210" lon="-3.099481"><ele>168</ele><time>2020-06-12T09:29:20Z</time><name>PT714</name></trkpt>
<trkpt lat="54.348223" lon="-3.099487"><ele>168</ele><time>2020-06-12T09:29:21Z</time><name>PT715</name></trkpt>
<trkpt lat="54.348236" lon="-3.099497"><ele>169</ele><time>2020-06-12T09:29:22Z</time><name>PT716</name></trkpt>
<trkpt lat="54.348246" lon="-3.099511"><ele>169</ele><time>2020-06-12T09:29:23Z</time><name>PT717</name></trkpt>
<trkpt lat="54.348254" lon="-3.099529"><ele>169</ele><time>2020-06-12T09:29:24Z</time><name>PT718</name></trkpt>
<trkpt lat="54.348265" lon="-3.099547"><ele>169</ele><time>2020-06-12T09:29:25Z</time><name>PT719</name></trkpt>
<trkpt lat="54.348273" lon="-3.099564"><ele>168</ele><time>2020-06-12T09:29:26Z</time><name>PT720</name></trkpt>
<trkpt lat="54.348281" lon="-3.099576"><ele>168</ele><time>2020-06-12T09:29:27Z</time><name>PT721</name></trkpt>
<trkpt lat="54.348291" lon="-3.099587"><ele>168</ele><time>2020-06-12T09:29:28Z</time><name>PT722</name></trkpt>
<trkpt lat="54.348300" lon="-3.099602"><ele>168</ele><time>2020-06-12T09:29:29Z</time><name>PT723</name></trkpt>
<trkpt lat="54.348310" lon="-3.099615"><ele>168</ele><time>2020-06-12T09:29:30Z</time><name>PT724</name></trkpt>
<trkpt lat="54.348320" lon="-3.099630"><ele>168</ele><time>2020-06-12T09:29:31Z</time><name>PT725</name></trkpt>
<trkpt lat="54.348331" lon="-3.099647"><ele>169</ele><time>2020-06-12T09:29:32Z</time><name>PT726</name></trkpt>
<trkpt lat="54.348344" lon="-3.099665"><ele>169</ele><time>2020-06-12T09:29:33Z</time><name>PT727</name></trkpt>
<trkpt lat="54.348353" lon="-3.099683"><ele>170</ele><time>2020-06-12T09:29:34Z</time><name>PT728</name></trkpt>
<trkpt lat="54.348358" lon="-3.099697"><ele>170</ele><time>2020-06-12T09:29:35Z</time><name>PT729</name></trkpt>
<trkpt lat="54.348368" lon="-3.099711"><ele>170</ele><time>2020-06-12T09:29:36Z</time><name>PT730</name></trkpt>
<trkpt lat="54.348377" lon="-3.099726"><ele>171</ele><time>2020-06-12T09:29:38Z</time><name>PT731</name></trkpt>
<trkpt lat="54.348385" lon="-3.099738"><ele>171</ele><time>2020-06-12T09:29:38Z</time><name>PT732</name></trkpt>
<trkpt lat="54.348393" lon="-3.099753"><ele>171</ele><time>2020-06-12T09:29:39Z</time><name>PT733</name></trkpt>
<trkpt lat="54.348404" lon="-3.099767"><ele>171</ele><time>2020-06-12T09:29:40Z</time><name>PT734</name></trkpt>
<trkpt lat="54.348409" lon="-3.099778"><ele>171</ele><time>2020-06-12T09:29:41Z</time><name>PT735</name></trkpt>
<trkpt lat="54.348416" lon="-3.099792"><ele>172</ele><time>2020-06-12T09:29:42Z</time><name>PT736</name></trkpt>
<trkpt lat="54.348422" lon="-3.099809"><ele>172</ele><time>2020-06-12T09:29:43Z</time><name>PT737</name></trkpt>
<trkpt lat="54.348432" lon="-3.099828"><ele>174</ele><time>2020-06-12T09:29:44Z</time><name>PT738</name></trkpt>
<trkpt lat="54.348437" lon="-3.099848"><ele>174</ele><time>2020-06-12T09:29:45Z</time><name>PT739</name></trkpt>
<trkpt lat="54.348441" lon="-3.099865"><ele>174</ele><time>2020-06-12T09:29:46Z</time><name>PT740</name></trkpt>
<trkpt lat="54.348445" lon="-3.099879"><ele>175</ele><time>2020-06-12T09:29:48Z</time><name>PT741</name></trkpt>
<trkpt lat="54.348450" lon="-3.099895"><ele>175</ele><time>2020-06-12T09:29:48Z</time><name>PT742</name></trkpt>
<trkpt lat="54.348454" lon="-3.099903"><ele>175</ele><time>2020-06-12T09:29:49Z</time><name>PT743</name></trkpt>
<trkpt lat="54.348460" lon="-3.099913"><ele>175</ele><time>2020-06-12T09:29:50Z</time><name>PT744</name></trkpt>
<trkpt lat="54.348465" lon="-3.099925"><ele>174</ele><time>2020-06-12T09:29:51Z</time><name>PT745</name></trkpt>
<trkpt lat="54.348468" lon="-3.099936"><ele>174</ele><time>2020-06-12T09:29:52Z</time><name>PT746</name></trkpt>
<trkpt lat="54.348473" lon="-3.099952"><ele>175</ele><time>2020-06-12T09:29:53Z</time><name>PT747</name></trkpt>
<trkpt lat="54.348478" lon="-3.099966"><ele>175</ele><time>2020-06-12T09:29:54Z</time><name>PT748</name></trkpt>
<trkpt lat="54.348484" lon="-3.099981"><ele>175</ele><time>2020-06-12T09:29:55Z</time><name>PT749</name></trkpt>
<trkpt lat="54.348489" lon="-3.099996"><ele>176</ele><time>2020-06-12T09:29:56Z</time><name>PT750</name></trkpt>
<trkpt lat="54.348493" lon="-3.100013"><ele>176</ele><time>2020-06-12T09:29:57Z</time><name>PT751</name></trkpt>
<trkpt lat="54.348498" lon="-3.100030"><ele>176</ele><time>2020-06-12T09:29:58Z</time><name>PT752</name></trkpt>
<trkpt lat="54.348504" lon="-3.100047"><ele>176</ele><time>2020-06-12T09:29:59Z</time><name>PT753</name></trkpt>
<trkpt lat="54.348509" lon="-3.100065"><ele>177</ele><time>2020-06-12T09:30:00Z</time><name>PT754</name></trkpt>
<trkpt lat="54.348517" lon="-3.100081"><ele>177</ele><time>2020-06-12T09:30:01Z</time><name>PT755</name></trkpt>
<trkpt lat="54.348522" lon="-3.100097"><ele>177</ele><time>2020-06-12T09:30:02Z</time><name>PT756</name></trkpt>
<trkpt lat="54.348528" lon="-3.100113"><ele>177</ele><time>2020-06-12T09:30:03Z</time><name>PT757</name></trkpt>
<trkpt lat="54.348532" lon="-3.100130"><ele>177</ele><time>2020-06-12T09:30:04Z</time><name>PT758</name></trkpt>
<trkpt lat="54.348538" lon="-3.100150"><ele>177</ele><time>2020-06-12T09:30:05Z</time><name>PT759</name></trkpt>
<trkpt lat="54.348542" lon="-3.100167"><ele>178</ele><time>2020-06-12T09:30:06Z</time><name>PT760</name></trkpt>
<trkpt lat="54.348546" lon="-3.100183"><ele>178</ele><time>2020-06-12T09:30:07Z</time><name>PT761</name></trkpt>
<trkpt lat="54.348550" lon="-3.100199"><ele>178</ele><time>2020-06-12T09:30:08Z</time><name>PT762</name></trkpt>
<trkpt lat="54.348554" lon="-3.100208"><ele>178</ele><time>2020-06-12T09:30:09Z</time><name>PT763</name></trkpt>
<trkpt lat="54.348560" lon="-3.100224"><ele>179</ele><time>2020-06-12T09:30:10Z</time><name>PT764</name></trkpt>
<trkpt lat="54.348561" lon="-3.100233"><ele>179</ele><time>2020-06-12T09:30:11Z</time><name>PT765</name></trkpt>
<trkpt lat="54.348563" lon="-3.100246"><ele>179</ele><time>2020-06-12T09:30:12Z</time><name>PT766</name></trkpt>
<trkpt lat="54.348566" lon="-3.100260"><ele>179</ele><time>2020-06-12T09:30:13Z</time><name>PT767</name></trkpt>
<trkpt lat="54.348571" lon="-3.100276"><ele>179</ele><time>2020-06-12T09:30:14Z</time><name>PT768</name></trkpt>
<trkpt lat="54.348579" lon="-3.100292"><ele>180</ele><time>2020-06-12T09:30:15Z</time><name>PT769</name></trkpt>
<trkpt lat="54.348583" lon="-3.100306"><ele>180</ele><time>2020-06-12T09:30:16Z</time><name>PT770</name></trkpt>
<trkpt lat="54.348589" lon="-3.100318"><ele>181</ele><time>2020-06-12T09:30:17Z</time><name>PT771</name></trkpt>
<trkpt lat="54.348595" lon="-3.100329"><ele>181</ele><time>2020-06-12T09:30:18Z</time><name>PT772</name></trkpt>
<trkpt lat="54.348603" lon="-3.100339"><ele>181</ele><time>2020-06-12T09:30:19Z</time><name>PT773</name></trkpt>
<trkpt lat="54.348611" lon="-3.100351"><ele>181</ele><time>2020-06-12T09:30:20Z</time><name>PT774</name></trkpt>
<trkpt lat="54.348617" lon="-3.100366"><ele>181</ele><time>2020-06-12T09:30:21Z</time><name>PT775</name></trkpt>
<trkpt lat="54.348622" lon="-3.100379"><ele>181</ele><time>2020-06-12T09:30:22Z</time><name>PT776</name></trkpt>
<trkpt lat="54.348629" lon="-3.100396"><ele>181</ele><time>2020-06-12T09:30:23Z</time><name>PT777</name></trkpt>
<trkpt lat="54.348634" lon="-3.100412"><ele>180</ele><time>2020-06-12T09:30:24Z</time><name>PT778</name></trkpt>
<trkpt lat="54.348641" lon="-3.100426"><ele>181</ele><time>2020-06-12T09:30:25Z</time><name>PT779</name></trkpt>
<trkpt lat="54.348648" lon="-3.100442"><ele>181</ele><time>2020-06-12T09:30:26Z</time><name>PT780</name></trkpt>
<trkpt lat="54.348655" lon="-3.100459"><ele>181</ele><time>2020-06-12T09:30:27Z</time><name>PT781</name></trkpt>
<trkpt lat="54.348662" lon="-3.100476"><ele>181</ele><time>2020-06-12T09:30:28Z</time><name>PT782</name></trkpt>
<trkpt lat="54.348670" lon="-3.100489"><ele>180</ele><time>2020-06-12T09:30:29Z</time><name>PT783</name></trkpt>
<trkpt lat="54.348679" lon="-3.100505"><ele>180</ele><time>2020-06-12T09:30:30Z</time><name>PT784</name></trkpt>
<trkpt lat="54.348688" lon="-3.100518"><ele>180</ele><time>2020-06-12T09:30:31Z</time><name>PT785</name></trkpt>
<trkpt lat="54.348695" lon="-3.100532"><ele>180</ele><time>2020-06-12T09:30:32Z</time><name>PT786</name></trkpt>
<trkpt lat="54.348702" lon="-3.100546"><ele>180</ele><time>2020-06-12T09:30:33Z</time><name>PT787</name></trkpt>
<trkpt lat="54.348713" lon="-3.100559"><ele>180</ele><time>2020-06-12T09:30:34Z</time><name>PT788</name></trkpt>
<trkpt lat="54.348722" lon="-3.100569"><ele>180</ele><time>2020-06-12T09:30:35Z</time><name>PT789</name></trkpt>
<trkpt lat="54.348731" lon="-3.100584"><ele>180</ele><time>2020-06-12T09:30:36Z</time><name>PT790</name></trkpt>
<trkpt lat="54.348744" lon="-3.100602"><ele>180</ele><time>2020-06-12T09:30:37Z</time><name>PT791</name></trkpt>
<trkpt lat="54.348749" lon="-3.100612"><ele>180</ele><time>2020-06-12T09:30:38Z</time><name>PT792</name></trkpt>
<trkpt lat="54.348756" lon="-3.100625"><ele>180</ele><time>2020-06-12T09:30:39Z</time><name>PT793</name></trkpt>
<trkpt lat="54.348767" lon="-3.100643"><ele>180</ele><time>2020-06-12T09:30:40Z</time><name>PT794</name></trkpt>
<trkpt lat="54.348773" lon="-3.100659"><ele>180</ele><time>2020-06-12T09:30:41Z</time><name>PT795</name></trkpt>
<trkpt lat="54.348778" lon="-3.100676"><ele>179</ele><time>2020-06-12T09:30:42Z</time><name>PT796</name></trkpt>
<trkpt lat="54.348785" lon="-3.100691"><ele>179</ele><time>2020-06-12T09:30:43Z</time><name>PT797</name></trkpt>
<trkpt lat="54.348790" lon="-3.100704"><ele>179</ele><time>2020-06-12T09:30:44Z</time><name>PT798</name></trkpt>
<trkpt lat="54.348796" lon="-3.100718"><ele>179</ele><time>2020-06-12T09:30:45Z</time><name>PT799</name></trkpt>
<trkpt lat="54.348803" lon="-3.100731"><ele>179</ele><time>2020-06-12T09:30:46Z</time><name>PT800</name></trkpt>
<trkpt lat="54.348808" lon="-3.100744"><ele>179</ele><time>2020-06-12T09:30:47Z</time><name>PT801</name></trkpt>
<trkpt lat="54.348815" lon="-3.100756"><ele>179</ele><time>2020-06-12T09:30:48Z</time><name>PT802</name></trkpt>
<trkpt lat="54.348822" lon="-3.100765"><ele>179</ele><time>2020-06-12T09:30:49Z</time><name>PT803</name></trkpt>
<trkpt lat="54.348827" lon="-3.100776"><ele>179</ele><time>2020-06-12T09:30:50Z</time><name>PT804</name></trkpt>
<trkpt lat="54.348833" lon="-3.100792"><ele>179</ele><time>2020-06-12T09:30:51Z</time><name>PT805</name></trkpt>
<trkpt lat="54.348838" lon="-3.100805"><ele>179</ele><time>2020-06-12T09:30:52Z</time><name>PT806</name></trkpt>
<trkpt lat="54.348844" lon="-3.100819"><ele>179</ele><time>2020-06-12T09:30:53Z</time><name>PT807</name></trkpt>
<trkpt lat="54.348849" lon="-3.100831"><ele>179</ele><time>2020-06-12T09:30:54Z</time><name>PT808</name></trkpt>
<trkpt lat="54.348856" lon="-3.100845"><ele>178</ele><time>2020-06-12T09:30:55Z</time><name>PT809</name></trkpt>
<trkpt lat="54.348860" lon="-3.100861"><ele>178</ele><time>2020-06-12T09:30:56Z</time><name>PT810</name></trkpt>
<trkpt lat="54.348865" lon="-3.100878"><ele>178</ele><time>2020-06-12T09:30:57Z</time><name>PT811</name></trkpt>
<trkpt lat="54.348874" lon="-3.100893"><ele>179</ele><time>2020-06-12T09:30:58Z</time><name>PT812</name></trkpt>
<trkpt lat="54.348879" lon="-3.100902"><ele>179</ele><time>2020-06-12T09:30:59Z</time><name>PT813</name></trkpt>
<trkpt lat="54.348888" lon="-3.100918"><ele>179</ele><time>2020-06-12T09:31:00Z</time><name>PT814</name></trkpt>
<trkpt lat="54.348891" lon="-3.100932"><ele>178</ele><time>2020-06-12T09:31:01Z</time><name>PT815</name></trkpt>
<trkpt lat="54.348893" lon="-3.100944"><ele>178</ele><time>2020-06-12T09:31:02Z</time><name>PT816</name></trkpt>
<trkpt lat="54.348895" lon="-3.100957"><ele>178</ele><time>2020-06-12T09:31:03Z</time><name>PT817</name></trkpt>
<trkpt lat="54.348900" lon="-3.100973"><ele>178</ele><time>2020-06-12T09:31:04Z</time><name>PT818</name></trkpt>
<trkpt lat="54.348905" lon="-3.100991"><ele>178</ele><time>2020-06-12T09:31:05Z</time><name>PT819</name></trkpt>
<trkpt lat="54.348910" lon="-3.101005"><ele>178</ele><time>2020-06-12T09:31:06Z</time><name>PT820</name></trkpt>
<trkpt lat="54.348917" lon="-3.101017"><ele>177</ele><time>2020-06-12T09:31:07Z</time><name>PT821</name></trkpt>
<trkpt lat="54.348924" lon="-3.101031"><ele>177</ele><time>2020-06-12T09:31:08Z</time><name>PT822</name></trkpt>
<trkpt lat="54.348928" lon="-3.101043"><ele>176</ele><time>2020-06-12T09:31:10Z</time><name>PT823</name></trkpt>
<trkpt lat="54.348933" lon="-3.101054"><ele>176</ele><time>2020-06-12T09:31:10Z</time><name>PT824</name></trkpt>
<trkpt lat="54.348939" lon="-3.101068"><ele>176</ele><time>2020-06-12T09:31:11Z</time><name>PT825</name></trkpt>
<trkpt lat="54.348944" lon="-3.101082"><ele>176</ele><time>2020-06-12T09:31:12Z</time><name>PT826</name></trkpt>
<trkpt lat="54.348951" lon="-3.101093"><ele>176</ele><time>2020-06-12T09:31:13Z</time><name>PT827</name></trkpt>
<trkpt lat="54.348957" lon="-3.101116"><ele>176</ele><time>2020-06-12T09:31:14Z</time><name>PT828</name></trkpt>
<trkpt lat="54.348964" lon="-3.101137"><ele>176</ele><time>2020-06-12T09:31:15Z</time><name>PT829</name></trkpt>
<trkpt lat="54.348974" lon="-3.101160"><ele>176</ele><time>2020-06-12T09:31:16Z</time><name>PT830</name></trkpt>
<trkpt lat="54.348982" lon="-3.101181"><ele>176</ele><time>2020-06-12T09:31:17Z</time><name>PT831</name></trkpt>
<trkpt lat="54.348991" lon="-3.101200"><ele>176</ele><time>2020-06-12T09:31:18Z</time><name>PT832</name></trkpt>
<trkpt lat="54.348999" lon="-3.101220"><ele>176</ele><time>2020-06-12T09:31:20Z</time><name>PT833</name></trkpt>
<trkpt lat="54.349011" lon="-3.101236"><ele>176</ele><time>2020-06-12T09:31:20Z</time><name>PT834</name></trkpt>
<trkpt lat="54.349021" lon="-3.101250"><ele>176</ele><time>2020-06-12T09:31:21Z</time><name>PT835</name></trkpt>
<trkpt lat="54.349031" lon="-3.101260"><ele>175</ele><time>2020-06-12T09:31:22Z</time><name>PT836</name></trkpt>
<trkpt lat="54.349039" lon="-3.101274"><ele>174</ele><time>2020-06-12T09:31:23Z</time><name>PT837</name></trkpt>
<trkpt lat="54.349044" lon="-3.101287"><ele>174</ele><time>2020-06-12T09:31:24Z</time><name>PT838</name></trkpt>
<trkpt lat="54.349051" lon="-3.101296"><ele>174</ele><time>2020-06-12T09:31:25Z</time><name>PT839</name></trkpt>
<trkpt lat="54.349060" lon="-3.101306"><ele>174</ele><time>2020-06-12T09:31:26Z</time><name>PT840</name></trkpt>
<trkpt lat="54.349067" lon="-3.101319"><ele>174</ele><time>2020-06-12T09:31:27Z</time><name>PT841</name></trkpt>
<trkpt lat="54.349077" lon="-3.101341"><ele>175</ele><time>2020-06-12T09:31:28Z</time><name>PT842</name></trkpt>
<trkpt lat="54.349087" lon="-3.101359"><ele>176</ele><time>2020-06-12T09:31:30Z</time><name>PT843</name></trkpt>
<trkpt lat="54.349096" lon="-3.101378"><ele>176</ele><time>2020-06-12T09:31:30Z</time><name>PT844</name></trkpt>
<trkpt lat="54.349102" lon="-3.101388"><ele>176</ele><time>2020-06-12T09:31:31Z</time><name>PT845</name></trkpt>
<trkpt lat="54.349111" lon="-3.101405"><ele>177</ele><time>2020-06-12T09:31:32Z</time><name>PT846</name></trkpt>
<trkpt lat="54.349122" lon="-3.101418"><ele>177</ele><time>2020-06-12T09:31:33Z</time><name>PT847</name></trkpt>
<trkpt lat="54.349130" lon="-3.101430"><ele>176</ele><time>2020-06-12T09:31:34Z</time><name>PT848</name></trkpt>
<trkpt lat="54.349139" lon="-3.101438"><ele>176</ele><time>2020-06-12T09:31:36Z</time><name>PT849</name></trkpt>
<trkpt lat="54.349150" lon="-3.101447"><ele>176</ele><time>2020-06-12T09:31:36Z</time><name>PT850</name></trkpt>
<trkpt lat="54.349159" lon="-3.101459"><ele>176</ele><time>2020-06-12T09:31:37Z</time><name>PT851</name></trkpt>
<trkpt lat="54.349172" lon="-3.101471"><ele>177</ele><time>2020-06-12T09:31:38Z</time><name>PT852</name></trkpt>
<trkpt lat="54.349185" lon="-3.101478"><ele>176</ele><time>2020-06-12T09:31:39Z</time><name>PT853</name></trkpt>
<trkpt lat="54.349192" lon="-3.101480"><ele>176</ele><time>2020-06-12T09:31:40Z</time><name>PT854</name></trkpt>
<trkpt lat="54.349200" lon="-3.101484"><ele>175</ele><time>2020-06-12T09:31:42Z</time><name>PT855</name></trkpt>
<trkpt lat="54.349209" lon="-3.101485"><ele>175</ele><time>2020-06-12T09:31:42Z</time><name>PT856</name></trkpt>
<trkpt lat="54.349212" lon="-3.101488"><ele>174</ele><time>2020-06-12T09:31:43Z</time><name>PT857</name></trkpt>
<trkpt lat="54.349222" lon="-3.101493"><ele>173</ele><time>2020-06-12T09:31:44Z</time><name>PT858</name></trkpt>
<trkpt lat="54.349232" lon="-3.101498"><ele>173</ele><time>2020-06-12T09:31:45Z</time><name>PT859</name></trkpt>
<trkpt lat="54.349239" lon="-3.101506"><ele>172</ele><time>2020-06-12T09:31:46Z</time><name>PT860</name></trkpt>
<trkpt lat="54.349253" lon="-3.101520"><ele>173</ele><time>2020-06-12T09:31:47Z</time><name>PT861</name></trkpt>
<trkpt lat="54.349267" lon="-3.101534"><ele>173</ele><time>2020-06-12T09:31:48Z</time><name>PT862</name></trkpt>
<trkpt lat="54.349279" lon="-3.101542"><ele>172</ele><time>2020-06-12T09:31:49Z</time><name>PT863</name></trkpt>
<trkpt lat="54.349291" lon="-3.101553"><ele>172</ele><time>2020-06-12T09:31:50Z</time><name>PT864</name></trkpt>
<trkpt lat="54.349300" lon="-3.101566"><ele>172</ele><time>2020-06-12T09:31:51Z</time><name>PT865</name></trkpt>
<trkpt lat="54.349303" lon="-3.101585"><ele>171</ele><time>2020-06-12T09:31:52Z</time><name>PT866</name></trkpt>
<trkpt lat="54.349314" lon="-3.101601"><ele>172</ele><time>2020-06-12T09:31:53Z</time><name>PT867</name></trkpt>
<trkpt lat="54.349322" lon="-3.101612"><ele>173</ele><time>2020-06-12T09:31:54Z</time><name>PT868</name></trkpt>
<trkpt lat="54.349328" lon="-3.101618"><ele>172</ele><time>2020-06-12T09:31:55Z</time><name>PT869</name></trkpt>
<trkpt lat="54.349338" lon="-3.101631"><ele>173</ele><time>2020-06-12T09:31:56Z</time><name>PT870</name></trkpt>
<trkpt lat="54.349344" lon="-3.101645"><ele>173</ele><time>2020-06-12T09:31:57Z</time><name>PT871</name></trkpt>
<trkpt lat="54.349353" lon="-3.101658"><ele>174</ele><time>2020-06-12T09:31:58Z</time><name>PT872</name></trkpt>
<trkpt lat="54.349363" lon="-3.101672"><ele>174</ele><time>2020-06-12T09:31:59Z</time><name>PT873</name></trkpt>
<trkpt lat="54.349374" lon="-3.101684"><ele>175</ele><time>2020-06-12T09:32:00Z</time><name>PT874</name></trkpt>
<trkpt lat="54.349386" lon="-3.101694"><ele>176</ele><time>2020-06-12T09:32:01Z</time><name>PT875</name></trkpt>
<trkpt lat="54.349398" lon="-3.101704"><ele>176</ele><time>2020-06-12T09:32:02Z</time><name>PT876</name></trkpt>
<trkpt lat="54.349407" lon="-3.101714"><ele>176</ele><time>2020-06-12T09:32:03Z</time><name>PT877</name></trkpt>
<trkpt lat="54.349417" lon="-3.101725"><ele>176</ele><time>2020-06-12T09:32:04Z</time><name>PT878</name></trkpt>
<trkpt lat="54.349430" lon="-3.101735"><ele>177</ele><time>2020-06-12T09:32:05Z</time><name>PT879</name></trkpt>
<trkpt lat="54.349442" lon="-3.101746"><ele>176</ele><time>2020-06-12T09:32:06Z</time><name>PT880</name></trkpt>
<trkpt lat="54.349453" lon="-3.101754"><ele>177</ele><time>2020-06-12T09:32:07Z</time><name>PT881</name></trkpt>
<trkpt lat="54.349461" lon="-3.101761"><ele>176</ele><time>2020-06-12T09:32:08Z</time><name>PT882</name></trkpt>
<trkpt lat="54.349475" lon="-3.101761"><ele>177</ele><time>2020-06-12T09:32:09Z</time><name>PT883</name></trkpt>
<trkpt lat="54.349485" lon="-3.101763"><ele>177</ele><time>2020-06-12T09:32:10Z</time><name>PT884</name></trkpt>
<trkpt lat="54.349494" lon="-3.101767"><ele>177</ele><time>2020-06-12T09:32:11Z</time><name>PT885</name></trkpt>
<trkpt lat="54.349511" lon="-3.101776"><ele>178</ele><time>2020-06-12T09:32:12Z</time><name>PT886</name></trkpt>
<trkpt lat="54.349522" lon="-3.101787"><ele>178</ele><time>2020-06-12T09:32:13Z</time><name>PT887</name></trkpt>
<trkpt lat="54.349520" lon="-3.101790"><ele>177</ele><time>2020-06-12T09:32:14Z</time><name>PT888</name></trkpt>
<trkpt lat="54.349526" lon="-3.101794"><ele>176</ele><time>2020-06-12T09:32:15Z</time><name>PT889</name></trkpt>
<trkpt lat="54.349536" lon="-3.101798"><ele>176</ele><time>2020-06-12T09:32:16Z</time><name>PT890</name></trkpt>
<trkpt lat="54.349544" lon="-3.101805"><ele>175</ele><time>2020-06-12T09:32:17Z</time><name>PT891</name></trkpt>
<trkpt lat="54.349555" lon="-3.101807"><ele>176</ele><time>2020-06-12T09:32:18Z</time><name>PT892</name></trkpt>
<trkpt lat="54.349569" lon="-3.101806"><ele>177</ele><time>2020-06-12T09:32:19Z</time><name>PT893</name></trkpt>
<trkpt lat="54.349581" lon="-3.101810"><ele>178</ele><time>2020-06-12T09:32:20Z</time><name>PT894</name></trkpt>
<trkpt lat="54.349590" lon="-3.101812"><ele>178</ele><time>2020-06-12T09:32:21Z</time><name>PT895</name></trkpt>
<trkpt lat="54.349601" lon="-3.101813"><ele>178</ele><time>2020-06-12T09:32:22Z</time><name>PT896</name></trkpt>
<trkpt lat="54.349610" lon="-3.101815"><ele>177</ele><time>2020-06-12T09:32:23Z</time><name>PT897</name></trkpt>
<trkpt lat="54.349628" lon="-3.101823"><ele>179</ele><time>2020-06-12T09:32:24Z</time><name>PT898</name></trkpt>
<trkpt lat="54.349642" lon="-3.101827"><ele>179</ele><time>2020-06-12T09:32:25Z</time><name>PT899</name></trkpt>
<trkpt lat="54.349654" lon="-3.101831"><ele>179</ele><time>2020-06-12T09:32:26Z</time><name>PT900</name></trkpt>
<trkpt lat="54.349667" lon="-3.101833"><ele>178</ele><time>2020-06-12T09:32:27Z</time><name>PT901</name></trkpt>
<trkpt lat="54.349679" lon="-3.101834"><ele>178</ele><time>2020-06-12T09:32:28Z</time><name>PT902</name></trkpt>
<trkpt lat="54.349685" lon="-3.101832"><ele>177</ele><time>2020-06-12T09:32:29Z</time><name>PT903</name></trkpt>
<trkpt lat="54.349698" lon="-3.101833"><ele>177</ele><time>2020-06-12T09:32:30Z</time><name>PT904</name></trkpt>
<trkpt lat="54.349711" lon="-3.101837"><ele>177</ele><time>2020-06-12T09:32:31Z</time><name>PT905</name></trkpt>
<trkpt lat="54.349723" lon="-3.101836"><ele>177</ele><time>2020-06-12T09:32:32Z</time><name>PT906</name></trkpt>
<trkpt lat="54.349734" lon="-3.101834"><ele>176</ele><time>2020-06-12T09:32:33Z</time><name>PT907</name></trkpt>
<trkpt lat="54.349747" lon="-3.101837"><ele>177</ele><time>2020-06-12T09:32:34Z</time><name>PT908</name></trkpt>
<trkpt lat="54.349759" lon="-3.101840"><ele>177</ele><time>2020-06-12T09:32:35Z</time><name>PT909</name></trkpt>
<trkpt lat="54.349774" lon="-3.101845"><ele>178</ele><time>2020-06-12T09:32:36Z</time><name>PT910</name></trkpt>
<trkpt lat="54.349786" lon="-3.101851"><ele>178</ele><time>2020-06-12T09:32:37Z</time><name>PT911</name></trkpt>
<trkpt lat="54.349798" lon="-3.101857"><ele>178</ele><time>2020-06-12T09:32:38Z</time><name>PT912</name></trkpt>
<trkpt lat="54.349812" lon="-3.101862"><ele>178</ele><time>2020-06-12T09:32:39Z</time><name>PT913</name></trkpt>
<trkpt lat="54.349825" lon="-3.101862"><ele>178</ele><time>2020-06-12T09:32:40Z</time><name>PT914</name></trkpt>
<trkpt lat="54.349835" lon="-3.101867"><ele>178</ele><time>2020-06-12T09:32:41Z</time><name>PT915</name></trkpt>
<trkpt lat="54.349844" lon="-3.101877"><ele>178</ele><time>2020-06-12T09:32:42Z</time><name>PT916</name></trkpt>
<trkpt lat="54.349855" lon="-3.101882"><ele>177</ele><time>2020-06-12T09:32:43Z</time><name>PT917</name></trkpt>
<trkpt lat="54.349866" lon="-3.101891"><ele>177</ele><time>2020-06-12T09:32:44Z</time><name>PT918</name></trkpt>
<trkpt lat="54.349877" lon="-3.101897"><ele>177</ele><time>2020-06-12T09:32:45Z</time><name>PT919</name></trkpt>
<trkpt lat="54.349887" lon="-3.101902"><ele>177</ele><time>2020-06-12T09:32:46Z</time><name>PT920</name></trkpt>
<trkpt lat="54.349898" lon="-3.101908"><ele>177</ele><time>2020-06-12T09:32:47Z</time><name>PT921</name></trkpt>
<trkpt lat="54.349911" lon="-3.101915"><ele>177</ele><time>2020-06-12T09:32:48Z</time><name>PT922</name></trkpt>
<trkpt lat="54.349921" lon="-3.101921"><ele>176</ele><time>2020-06-12T09:32:49Z</time><name>PT923</name></trkpt>
<trkpt lat="54.349934" lon="-3.101928"><ele>176</ele><time>2020-06-12T09:32:50Z</time><name>PT924</name></trkpt>
<trkpt lat="54.349942" lon="-3.101937"><ele>176</ele><time>2020-06-12T09:32:51Z</time><name>PT925</name></trkpt>
<trkpt lat="54.349954" lon="-3.101947"><ele>176</ele><time>2020-06-12T09:32:52Z</time><name>PT926</name></trkpt>
<trkpt lat="54.349968" lon="-3.101954"><ele>176</ele><time>2020-06-12T09:32:53Z</time><name>PT927</name></trkpt>
<trkpt lat="54.349977" lon="-3.101958"><ele>175</ele><time>2020-06-12T09:32:54Z</time><name>PT928</name></trkpt>
<trkpt lat="54.349989" lon="-3.101963"><ele>175</ele><time>2020-06-12T09:32:55Z</time><name>PT929</name></trkpt>
<trkpt lat="54.349998" lon="-3.101969"><ele>175</ele><time>2020-06-12T09:32:56Z</time><name>PT930</name></trkpt>
<trkpt lat="54.350009" lon="-3.101974"><ele>175</ele><time>2020-06-12T09:32:57Z</time><name>PT931</name></trkpt>
<trkpt lat="54.350019" lon="-3.101984"><ele>176</ele><time>2020-06-12T09:32:58Z</time><name>PT932</name></trkpt>
<trkpt lat="54.350028" lon="-3.101991"><ele>176</ele><time>2020-06-12T09:32:59Z</time><name>PT933</name></trkpt>
<trkpt lat="54.350035" lon="-3.101997"><ele>176</ele><time>2020-06-12T09:33:01Z</time><name>PT934</name></trkpt>
<trkpt lat="54.350038" lon="-3.102004"><ele>175</ele><time>2020-06-12T09:33:01Z</time><name>PT935</name></trkpt>
<trkpt lat="54.350044" lon="-3.102009"><ele>176</ele><time>2020-06-12T09:33:02Z</time><name>PT936</name></trkpt>
<trkpt lat="54.350048" lon="-3.102018"><ele>176</ele><time>2020-06-12T09:33:03Z</time><name>PT937</name></trkpt>
<trkpt lat="54.350057" lon="-3.102030"><ele>176</ele><time>2020-06-12T09:33:04Z</time><name>PT938</name></trkpt>
<trkpt lat="54.350062" lon="-3.102030"><ele>177</ele><time>2020-06-12T09:33:05Z</time><name>PT939</name></trkpt>
<trkpt lat="54.350063" lon="-3.102026"><ele>176</ele><time>2020-06-12T09:33:06Z</time><name>PT940</name></trkpt>
<trkpt lat="54.350061" lon="-3.102029"><ele>176</ele><time>2020-06-12T09:33:07Z</time><name>PT941</name></trkpt>
<trkpt lat="54.350062" lon="-3.102043"><ele>176</ele><time>2020-06-12T09:33:08Z</time><name>PT942</name></trkpt>
<trkpt lat="54.350069" lon="-3.102063"><ele>176</ele><time>2020-06-12T09:33:09Z</time><name>PT943</name></trkpt>
<trkpt lat="54.350081" lon="-3.102087"><ele>178</ele><time>2020-06-12T09:33:10Z</time><name>PT944</name></trkpt>
<trkpt lat="54.350091" lon="-3.102106"><ele>178</ele><time>2020-06-12T09:33:11Z</time><name>PT945</name></trkpt>
<trkpt lat="54.350101" lon="-3.102125"><ele>178</ele><time>2020-06-12T09:33:12Z</time><name>PT946</name></trkpt>
<trkpt lat="54.350109" lon="-3.102144"><ele>178</ele><time>2020-06-12T09:33:13Z</time><name>PT947</name></trkpt>
<trkpt lat="54.350114" lon="-3.102160"><ele>178</ele><time>2020-06-12T09:33:14Z</time><name>PT948</name></trkpt>
<trkpt lat="54.350122" lon="-3.102180"><ele>178</ele><time>2020-06-12T09:33:15Z</time><name>PT949</name></trkpt>
<trkpt lat="54.350130" lon="-3.102200"><ele>178</ele><time>2020-06-12T09:33:16Z</time><name>PT950</name></trkpt>
<trkpt lat="54.350135" lon="-3.102221"><ele>177</ele><time>2020-06-12T09:33:17Z</time><name>PT951</name></trkpt>
<trkpt lat="54.350142" lon="-3.102240"><ele>177</ele><time>2020-06-12T09:33:18Z</time><name>PT952</name></trkpt>
<trkpt lat="54.350150" lon="-3.102260"><ele>177</ele><time>2020-06-12T09:33:19Z</time><name>PT953</name></trkpt>
<trkpt lat="54.350158" lon="-3.102281"><ele>177</ele><time>2020-06-12T09:33:20Z</time><name>PT954</name></trkpt>
<trkpt lat="54.350166" lon="-3.102298"><ele>177</ele><time>2020-06-12T09:33:21Z</time><name>PT955</name></trkpt>
<trkpt lat="54.350172" lon="-3.102314"><ele>177</ele><time>2020-06-12T09:33:22Z</time><name>PT956</name></trkpt>
<trkpt lat="54.350178" lon="-3.102330"><ele>177</ele><time>2020-06-12T09:33:23Z</time><name>PT957</name></trkpt>
<trkpt lat="54.350184" lon="-3.102348"><ele>177</ele><time>2020-06-12T09:33:24Z</time><name>PT958</name></trkpt>
<trkpt lat="54.350189" lon="-3.102365"><ele>177</ele><time>2020-06-12T09:33:25Z</time><name>PT959</name></trkpt>
<trkpt lat="54.350195" lon="-3.102379"><ele>177</ele><time>2020-06-12T09:33:26Z</time><name>PT960</name></trkpt>
<trkpt lat="54.350201" lon="-3.102395"><ele>177</ele><time>2020-06-12T09:33:27Z</time><name>PT961</name></trkpt>
<trkpt lat="54.350207" lon="-3.102410"><ele>178</ele><time>2020-06-12T09:33:28Z</time><name>PT962</name></trkpt>
<trkpt lat="54.350211" lon="-3.102425"><ele>178</ele><time>2020-06-12T09:33:29Z</time><name>PT963</name></trkpt>
<trkpt lat="54.350217" lon="-3.102442"><ele>178</ele><time>2020-06-12T09:33:30Z</time><name>PT964</name></trkpt>
<trkpt lat="54.350221" lon="-3.102461"><ele>179</ele><time>2020-06-12T09:33:31Z</time><name>PT965</name></trkpt>
<trkpt lat="54.350227" lon="-3.102474"><ele>179</ele><time>2020-06-12T09:33:32Z</time><name>PT966</name></trkpt>
<trkpt lat="54.350233" lon="-3.102488"><ele>179</ele><time>2020-06-12T09:33:33Z</time><name>PT967</name></trkpt>
<trkpt lat="54.350240" lon="-3.102504"><ele>179</ele><time>2020-06-12T09:33:34Z</time><name>PT968</name></trkpt>
<trkpt lat="54.350244" lon="-3.102518"><ele>179</ele><time>2020-06-12T09:33:35Z</time><name>PT969</name></trkpt>
<trkpt lat="54.350250" lon="-3.102532"><ele>179</ele><time>2020-06-12T09:33:36Z</time><name>PT970</name></trkpt>
<trkpt lat="54.350258" lon="-3.102549"><ele>179</ele><time>2020-06-12T09:33:37Z</time><name>PT971</name></trkpt>
<trkpt lat="54.350264" lon="-3.102563"><ele>180</ele><time>2020-06-12T09:33:38Z</time><name>PT972</name></trkpt>
<trkpt lat="54.350269" lon="-3.102576"><ele>180</ele><time>2020-06-12T09:33:39Z</time><name>PT973</name></trkpt>
<trkpt lat="54.350276" lon="-3.102591"><ele>180</ele><time>2020-06-12T09:33:40Z</time><name>PT974</name></trkpt>
<trkpt lat="54.350283" lon="-3.102605"><ele>181</ele><time>2020-06-12T09:33:41Z</time><name>PT975</name></trkpt>
<trkpt lat="54.350289" lon="-3.102617"><ele>181</ele><time>2020-06-12T09:33:42Z</time><name>PT976</name></trkpt>
<trkpt lat="54.350293" lon="-3.102632"><ele>181</ele><time>2020-06-12T09:33:43Z</time><name>PT977</name></trkpt>
<trkpt lat="54.350299" lon="-3.102645"><ele>182</ele><time>2020-06-12T09:33:44Z</time><name>PT978</name></trkpt>
<trkpt lat="54.350302" lon="-3.102655"><ele>182</ele><time>2020-06-12T09:33:45Z</time><name>PT979</name></trkpt>
<trkpt lat="54.350308" lon="-3.102665"><ele>182</ele><time>2020-06-12T09:33:46Z</time><name>PT980</name></trkpt>
<trkpt lat="54.350315" lon="-3.102672"><ele>183</ele><time>2020-06-12T09:33:47Z</time><name>PT981</name></trkpt>
<trkpt lat="54.350319" lon="-3.102681"><ele>183</ele><time>2020-06-12T09:33:48Z</time><name>PT982</name></trkpt>
<trkpt lat="54.350326" lon="-3.102694"><ele>183</ele><time>2020-06-12T09:33:49Z</time><name>PT983</name></trkpt>
<trkpt lat="54.350329" lon="-3.102706"><ele>183</ele><time>2020-06-12T09:33:50Z</time><name>PT984</name></trkpt>
<trkpt lat="54.350332" lon="-3.102718"><ele>183</ele><time>2020-06-12T09:33:51Z</time><name>PT985</name></trkpt>
<trkpt lat="54.350336" lon="-3.102727"><ele>183</ele><time>2020-06-12T09:33:52Z</time><name>PT986</name></trkpt>
<trkpt lat="54.350343" lon="-3.102737"><ele>184</ele><time>2020-06-12T09:33:53Z</time><name>PT987</name></trkpt>
<trkpt lat="54.350348" lon="-3.102747"><ele>184</ele><time>2020-06-12T09:33:54Z</time><name>PT988</name></trkpt>
<trkpt lat="54.350351" lon="-3.102757"><ele>184</ele><time>2020-06-12T09:33:55Z</time><name>PT989</name></trkpt>
<trkpt lat="54.350356" lon="-3.102767"><ele>184</ele><time>2020-06-12T09:33:56Z</time><name>PT990</name></trkpt>
<trkpt lat="54.350361" lon="-3.102782"><ele>184</ele><time>2020-06-12T09:33:57Z</time><name>PT991</name></trkpt>
<trkpt lat="54.350366" lon="-3.102794"><ele>184</ele><time>2020-06-12T09:33:58Z</time><name>PT992</name></trkpt>
<trkpt lat="54.350370" lon="-3.102806"><ele>185</ele><time>2020-06-12T09:33:59Z</time><name>PT993</name></trkpt>
<trkpt lat="54.350375" lon="-3.102821"><ele>185</ele><time>2020-06-12T09:34:00Z</time><name>PT994</name></trkpt>
<trkpt lat="54.350383" lon="-3.102835"><ele>186</ele><time>2020-06-12T09:34:01Z</time><name>PT995</name></trkpt>
<trkpt lat="54.350389" lon="-3.102847"><ele>186</ele><time>2020-06-12T09:34:02Z</time><name>PT996</name></trkpt>
<trkpt lat="54.350397" lon="-3.102858"><ele>187</ele><time>2020-06-12T09:34:03Z</time><name>PT997</name></trkpt>
<trkpt lat="54.350405" lon="-3.102870"><ele>187</ele><time>2020-06-12T09:34:04Z</time><name>PT998</name></trkpt>
<trkpt lat="54.350409" lon="-3.102875"><ele>187</ele><time>2020-06-12T09:34:05Z</time><name>PT999</name></trkpt>
<trkpt lat="54.350409" lon="-3.102875"><ele>187</ele><time>2020-06-12T09:34:06Z</time><name>PT1000</name></trkpt>
<trkpt lat="54.350416" lon="-3.102878"><ele>187</ele><time>2020-06-12T09:34:07Z</time><name>PT1001</name></trkpt>
<trkpt lat="54.350424" lon="-3.102885"><ele>187</ele><time>2020-06-12T09:34:08Z</time><name>PT1002</name></trkpt>
<trkpt lat="54.350434" lon="-3.102895"><ele>188</ele><time>2020-06-12T09:34:09Z</time><name>PT1003</name></trkpt>
<trkpt lat="54.350443" lon="-3.102906"><ele>188</ele><time>2020-06-12T09:34:10Z</time><name>PT1004</name></trkpt>
<trkpt lat="54.350452" lon="-3.102916"><ele>188</ele><time>2020-06-12T09:34:11Z</time><name>PT1005</name></trkpt>
<trkpt lat="54.350462" lon="-3.102924"><ele>188</ele><time>2020-06-12T09:34:12Z</time><name>PT1006</name></trkpt>
<trkpt lat="54.350470" lon="-3.102931"><ele>188</ele><time>2020-06-12T09:34:13Z</time><name>PT1007</name></trkpt>
<trkpt lat="54.350482" lon="-3.102937"><ele>189</ele><time>2020-06-12T09:34:14Z</time><name>PT1008</name></trkpt>
<trkpt lat="54.350494" lon="-3.102939"><ele>189</ele><time>2020-06-12T09:34:15Z</time><name>PT1009</name></trkpt>
<trkpt lat="54.350508" lon="-3.102942"><ele>189</ele><time>2020-06-12T09:34:16Z</time><name>PT1010</name></trkpt>
<trkpt lat="54.350520" lon="-3.102945"><ele>189</ele><time>2020-06-12T09:34:17Z</time><name>PT1011</name></trkpt>
<trkpt lat="54.350533" lon="-3.102944"><ele>190</ele><time>2020-06-12T09:34:18Z</time><name>PT1012</name></trkpt>
<trkpt lat="54.350543" lon="-3.102946"><ele>189</ele><time>2020-06-12T09:34:19Z</time><name>PT1013</name></trkpt>
<trkpt lat="54.350553" lon="-3.102947"><ele>189</ele><time>2020-06-12T09:34:20Z</time><name>PT1014</name></trkpt>
<trkpt lat="54.350563" lon="-3.102947"><ele>189</ele><time>2020-06-12T09:34:21Z</time><name>PT1015</name></trkpt>
<trkpt lat="54.350572" lon="-3.102945"><ele>189</ele><time>2020-06-12T09:34:22Z</time><name>PT1016</name></trkpt>
<trkpt lat="54.350584" lon="-3.102945"><ele>189</ele><time>2020-06-12T09:34:23Z</time><name>PT1017</name></trkpt>
<trkpt lat="54.350596" lon="-3.102950"><ele>189</ele><time>2020-06-12T09:34:24Z</time><name>PT1018</name></trkpt>
<trkpt lat="54.350606" lon="-3.102957"><ele>189</ele><time>2020-06-12T09:34:25Z</time><name>PT1019</name></trkpt>
<trkpt lat="54.350616" lon="-3.102963"><ele>189</ele><time>2020-06-12T09:34:26Z</time><name>PT1020</name></trkpt>
<trkpt lat="54.350626" lon="-3.102974"><ele>189</ele><time>2020-06-12T09:34:27Z</time><name>PT1021</name></trkpt>
<trkpt lat="54.350635" lon="-3.102983"><ele>189</ele><time>2020-06-12T09:34:28Z</time><name>PT1022</name></trkpt>
<trkpt lat="54.350645" lon="-3.102990"><ele>189</ele><time>2020-06-12T09:34:29Z</time><name>PT1023</name></trkpt>
<trkpt lat="54.350656" lon="-3.102996"><ele>189</ele><time>2020-06-12T09:34:30Z</time><name>PT1024</name></trkpt>
<trkpt lat="54.350665" lon="-3.103001"><ele>188</ele><time>2020-06-12T09:34:31Z</time><name>PT1025</name></trkpt>
<trkpt lat="54.350676" lon="-3.103007"><ele>188</ele><time>2020-06-12T09:34:32Z</time><name>PT1026</name></trkpt>
<trkpt lat="54.350688" lon="-3.103012"><ele>188</ele><time>2020-06-12T09:34:33Z</time><name>PT1027</name></trkpt>
<trkpt lat="54.350700" lon="-3.103015"><ele>188</ele><time>2020-06-12T09:34:34Z</time><name>PT1028</name></trkpt>
<trkpt lat="54.350710" lon="-3.103018"><ele>188</ele><time>2020-06-12T09:34:35Z</time><name>PT1029</name></trkpt>
<trkpt lat="54.350722" lon="-3.103022"><ele>188</ele><time>2020-06-12T09:34:36Z</time><name>PT1030</name></trkpt>
<trkpt lat="54.350732" lon="-3.103025"><ele>188</ele><time>2020-06-12T09:34:37Z</time><name>PT1031</name></trkpt>
<trkpt lat="54.350748" lon="-3.103030"><ele>189</ele><time>2020-06-12T09:34:38Z</time><name>PT1032</name></trkpt>
<trkpt lat="54.350759" lon="-3.103033"><ele>189</ele><time>2020-06-12T09:34:39Z</time><name>PT1033</name></trkpt>
<trkpt lat="54.350772" lon="-3.103042"><ele>189</ele><time>2020-06-12T09:34:40Z</time><name>PT1034</name></trkpt>
<trkpt lat="54.350782" lon="-3.103045"><ele>189</ele><time>2020-06-12T09:34:41Z</time><name>PT1035</name></trkpt>
<trkpt lat="54.350793" lon="-3.103051"><ele>189</ele><time>2020-06-12T09:34:42Z</time><name>PT1036</name></trkpt>
<trkpt lat="54.350804" lon="-3.103057"><ele>189</ele><time>2020-06-12T09:34:43Z</time><name>PT1037</name></trkpt>
<trkpt lat="54.350814" lon="-3.103065"><ele>189</ele><time>2020-06-12T09:34:44Z</time><name>PT1038</name></trkpt>
<trkpt lat="54.350825" lon="-3.103071"><ele>189</ele><time>2020-06-12T09:34:45Z</time><name>PT1039</name></trkpt>
<trkpt lat="54.350837" lon="-3.103075"><ele>188</ele><time>2020-06-12T09:34:46Z</time><name>PT1040</name></trkpt>
<trkpt lat="54.350848" lon="-3.103081"><ele>188</ele><time>2020-06-12T09:34:47Z</time><name>PT1041</name></trkpt>
<trkpt lat="54.350858" lon="-3.103088"><ele>188</ele><time>2020-06-12T09:34:48Z</time><name>PT1042</name></trkpt>
<trkpt lat="54.350867" lon="-3.103099"><ele>188</ele><time>2020-06-12T09:34:49Z</time><name>PT1043</name></trkpt>
<trkpt lat="54.350878" lon="-3.103107"><ele>188</ele><time>2020-06-12T09:34:50Z</time><name>PT1044</name></trkpt>
<trkpt lat="54.350890" lon="-3.103110"><ele>188</ele><time>2020-06-12T09:34:51Z</time><name>PT1045</name></trkpt>
<trkpt lat="54.350900" lon="-3.103117"><ele>188</ele><time>2020-06-12T09:34:52Z</time><name>PT1046</name></trkpt>
<trkpt lat="54.350909" lon="-3.103124"><ele>188</ele><time>2020-06-12T09:34:53Z</time><name>PT1047</name></trkpt>
<trkpt lat="54.350921" lon="-3.103134"><ele>188</ele><time>2020-06-12T09:34:54Z</time><name>PT1048</name></trkpt>
<trkpt lat="54.350932" lon="-3.103140"><ele>189</ele><time>2020-06-12T09:34:55Z</time><name>PT1049</name></trkpt>
<trkpt lat="54.350946" lon="-3.103145"><ele>189</ele><time>2020-06-12T09:34:56Z</time><name>PT1050</name></trkpt>
<trkpt lat="54.350961" lon="-3.103146"><ele>189</ele><time>2020-06-12T09:34:57Z</time><name>PT1051</name></trkpt>
<trkpt lat="54.350974" lon="-3.103148"><ele>189</ele><time>2020-06-12T09:34:58Z</time><name>PT1052</name></trkpt>
<trkpt lat="54.350985" lon="-3.103154"><ele>190</ele><time>2020-06-12T09:34:59Z</time><name>PT1053</name></trkpt>
<trkpt lat="54.350996" lon="-3.103162"><ele>189</ele><time>2020-06-12T09:35:00Z</time><name>PT1054</name></trkpt>
<trkpt lat="54.351006" lon="-3.103172"><ele>189</ele><time>2020-06-12T09:35:01Z</time><name>PT1055</name></trkpt>
<trkpt lat="54.351015" lon="-3.103181"><ele>189</ele><time>2020-06-12T09:35:02Z</time><name>PT1056</name></trkpt>
<trkpt lat="54.351025" lon="-3.103189"><ele>189</ele><time>2020-06-12T09:35:03Z</time><name>PT1057</name></trkpt>
<trkpt lat="54.351035" lon="-3.103198"><ele>189</ele><time>2020-06-12T09:35:04Z</time><name>PT1058</name></trkpt>
<trkpt lat="54.351047" lon="-3.103207"><ele>189</ele><time>2020-06-12T09:35:05Z</time><name>PT1059</name></trkpt>
<trkpt lat="54.351057" lon="-3.103215"><ele>189</ele><time>2020-06-12T09:35:06Z</time><name>PT1060</name></trkpt>
<trkpt lat="54.351069" lon="-3.103222"><ele>189</ele><time>2020-06-12T09:35:07Z</time><name>PT1061</name></trkpt>
<trkpt lat="54.351079" lon="-3.103228"><ele>188</ele><time>2020-06-12T09:35:08Z</time><name>PT1062</name></trkpt>
<trkpt lat="54.351091" lon="-3.103240"><ele>189</ele><time>2020-06-12T09:35:09Z</time><name>PT1063</name></trkpt>
<trkpt lat="54.351099" lon="-3.103251"><ele>189</ele><time>2020-06-12T09:35:10Z</time><name>PT1064</name></trkpt>
<trkpt lat="54.351109" lon="-3.103262"><ele>189</ele><time>2020-06-12T09:35:11Z</time><name>PT1065</name></trkpt>
<trkpt lat="54.351120" lon="-3.103273"><ele>189</ele><time>2020-06-12T09:35:12Z</time><name>PT1066</name></trkpt>
<trkpt lat="54.351131" lon="-3.103285"><ele>189</ele><time>2020-06-12T09:35:13Z</time><name>PT1067</name></trkpt>
<trkpt lat="54.351138" lon="-3.103295"><ele>189</ele><time>2020-06-12T09:35:14Z</time><name>PT1068</name></trkpt>
<trkpt lat="54.351147" lon="-3.103306"><ele>189</ele><time>2020-06-12T09:35:15Z</time><name>PT1069</name></trkpt>
<trkpt lat="54.351160" lon="-3.103318"><ele>189</ele><time>2020-06-12T09:35:16Z</time><name>PT1070</name></trkpt>
<trkpt lat="54.351170" lon="-3.103326"><ele>189</ele><time>2020-06-12T09:35:17Z</time><name>PT1071</name></trkpt>
<trkpt lat="54.351180" lon="-3.103332"><ele>189</ele><time>2020-06-12T09:35:18Z</time><name>PT1072</name></trkpt>
<trkpt lat="54.351189" lon="-3.103341"><ele>189</ele><time>2020-06-12T09:35:19Z</time><name>PT1073</name></trkpt>
<trkpt lat="54.351197" lon="-3.103356"><ele>189</ele><time>2020-06-12T09:35:20Z</time><name>PT1074</name></trkpt>
<trkpt lat="54.351206" lon="-3.103373"><ele>189</ele><time>2020-06-12T09:35:21Z</time><name>PT1075</name></trkpt>
<trkpt lat="54.351216" lon="-3.103382"><ele>189</ele><time>2020-06-12T09:35:22Z</time><name>PT1076</name></trkpt>
<trkpt lat="54.351226" lon="-3.103395"><ele>190</ele><time>2020-06-12T09:35:23Z</time><name>PT1077</name></trkpt>
<trkpt lat="54.351232" lon="-3.103408"><ele>189</ele><time>2020-06-12T09:35:24Z</time><name>PT1078</name></trkpt>
<trkpt lat="54.351240" lon="-3.103422"><ele>189</ele><time>2020-06-12T09:35:25Z</time><name>PT1079</name></trkpt>
<trkpt lat="54.351246" lon="-3.103433"><ele>189</ele><time>2020-06-12T09:35:26Z</time><name>PT1080</name></trkpt>
<trkpt lat="54.351254" lon="-3.103447"><ele>189</ele><time>2020-06-12T09:35:27Z</time><name>PT1081</name></trkpt>
<trkpt lat="54.351261" lon="-3.103462"><ele>189</ele><time>2020-06-12T09:35:28Z</time><name>PT1082</name></trkpt>
<trkpt lat="54.351271" lon="-3.103474"><ele>189</ele><time>2020-06-12T09:35:29Z</time><name>PT1083</name></trkpt>
<trkpt lat="54.351281" lon="-3.103486"><ele>189</ele><time>2020-06-12T09:35:30Z</time><name>PT1084</name></trkpt>
<trkpt lat="54.351291" lon="-3.103501"><ele>188</ele><time>2020-06-12T09:35:31Z</time><name>PT1085</name></trkpt>
<trkpt lat="54.351299" lon="-3.103512"><ele>188</ele><time>2020-06-12T09:35:32Z</time><name>PT1086</name></trkpt>
<trkpt lat="54.351308" lon="-3.103528"><ele>188</ele><time>2020-06-12T09:35:33Z</time><name>PT1087</name></trkpt>
<trkpt lat="54.351316" lon="-3.103544"><ele>188</ele><time>2020-06-12T09:35:34Z</time><name>PT1088</name></trkpt>
<trkpt lat="54.351327" lon="-3.103559"><ele>189</ele><time>2020-06-12T09:35:35Z</time><name>PT1089</name></trkpt>
<trkpt lat="54.351334" lon="-3.103574"><ele>188</ele><time>2020-06-12T09:35:36Z</time><name>PT1090</name></trkpt>
<trkpt lat="54.351342" lon="-3.103589"><ele>188</ele><time>2020-06-12T09:35:37Z</time><name>PT1091</name></trkpt>
<trkpt lat="54.351350" lon="-3.103604"><ele>188</ele><time>2020-06-12T09:35:38Z</time><name>PT1092</name></trkpt>
<trkpt lat="54.351358" lon="-3.103619"><ele>188</ele><time>2020-06-12T09:35:39Z</time><name>PT1093</name></trkpt>
<trkpt lat="54.351366" lon="-3.103637"><ele>188</ele><time>2020-06-12T09:35:40Z</time><name>PT1094</name></trkpt>
<trkpt lat="54.351375" lon="-3.103653"><ele>189</ele><time>2020-06-12T09:35:41Z</time><name>PT1095</name></trkpt>
<trkpt lat="54.351381" lon="-3.103666"><ele>189</ele><time>2020-06-12T09:35:42Z</time><name>PT1096</name></trkpt>
<trkpt lat="54.351388" lon="-3.103677"><ele>189</ele><time>2020-06-12T09:35:43Z</time><name>PT1097</name></trkpt>
<trkpt lat="54.351396" lon="-3.103691"><ele>189</ele><time>2020-06-12T09:35:44Z</time><name>PT1098</name></trkpt>
<trkpt lat="54.351400" lon="-3.103705"><ele>189</ele><time>2020-06-12T09:35:45Z</time><name>PT1099</name></trkpt>
<trkpt lat="54.351406" lon="-3.103717"><ele>189</ele><time>2020-06-12T09:35:46Z</time><name>PT1100</name></trkpt>
<trkpt lat="54.351412" lon="-3.103729"><ele>189</ele><time>2020-06-12T09:35:47Z</time><name>PT1101</name></trkpt>
<trkpt lat="54.351419" lon="-3.103742"><ele>188</ele><time>2020-06-12T09:35:48Z</time><name>PT1102</name></trkpt>
<trkpt lat="54.351426" lon="-3.103754"><ele>188</ele><time>2020-06-12T09:35:49Z</time><name>PT1103</name></trkpt>
<trkpt lat="54.351433" lon="-3.103770"><ele>188</ele><time>2020-06-12T09:35:50Z</time><name>PT1104</name></trkpt>
<trkpt lat="54.351441" lon="-3.103787"><ele>187</ele><time>2020-06-12T09:35:51Z</time><name>PT1105</name></trkpt>
<trkpt lat="54.351449" lon="-3.103801"><ele>187</ele><time>2020-06-12T09:35:52Z</time><name>PT1106</name></trkpt>
<trkpt lat="54.351457" lon="-3.103814"><ele>187</ele><time>2020-06-12T09:35:53Z</time><name>PT1107</name></trkpt>
<trkpt lat="54.351465" lon="-3.103827"><ele>187</ele><time>2020-06-12T09:35:54Z</time><name>PT1108</name></trkpt>
<trkpt lat="54.351472" lon="-3.103842"><ele>187</ele><time>2020-06-12T09:35:55Z</time><name>PT1109</name></trkpt>
<trkpt lat="54.351479" lon="-3.103857"><ele>187</ele><time>2020-06-12T09:35:56Z</time><name>PT1110</name></trkpt>
<trkpt lat="54.351490" lon="-3.103872"><ele>188</ele><time>2020-06-12T09:35:57Z</time><name>PT1111</name></trkpt>
<trkpt lat="54.351495" lon="-3.103884"><ele>187</ele><time>2020-06-12T09:35:58Z</time><name>PT1112</name></trkpt>
<trkpt lat="54.351504" lon="-3.103896"><ele>186</ele><time>2020-06-12T09:35:59Z</time><name>PT1113</name></trkpt>
<trkpt lat="54.351514" lon="-3.103908"><ele>186</ele><time>2020-06-12T09:36:00Z</time><name>PT1114</name></trkpt>
<trkpt lat="54.351523" lon="-3.103919"><ele>186</ele><time>2020-06-12T09:36:01Z</time><name>PT1115</name></trkpt>
<trkpt lat="54.351530" lon="-3.103932"><ele>186</ele><time>2020-06-12T09:36:02Z</time><name>PT1116</name></trkpt>
<trkpt lat="54.351539" lon="-3.103945"><ele>185</ele><time>2020-06-12T09:36:03Z</time><name>PT1117</name></trkpt>
<trkpt lat="54.351548" lon="-3.103956"><ele>185</ele><time>2020-06-12T09:36:04Z</time><name>PT1118</name></trkpt>
<trkpt lat="54.351558" lon="-3.103968"><ele>185</ele><time>2020-06-12T09:36:05Z</time><name>PT1119</name></trkpt>
<trkpt lat="54.351570" lon="-3.103983"><ele>185</ele><time>2020-06-12T09:36:06Z</time><name>PT1120</name></trkpt>
<trkpt lat="54.351579" lon="-3.103995"><ele>185</ele><time>2020-06-12T09:36:07Z</time><name>PT1121</name></trkpt>
<trkpt lat="54.351589" lon="-3.104009"><ele>185</ele><time>2020-06-12T09:36:08Z</time><name>PT1122</name></trkpt>
<trkpt lat="54.351601" lon="-3.104026"><ele>186</ele><time>2020-06-12T09:36:09Z</time><name>PT1123</name></trkpt>
<trkpt lat="54.351609" lon="-3.104037"><ele>186</ele><time>2020-06-12T09:36:10Z</time><name>PT1124</name></trkpt>
<trkpt lat="54.351619" lon="-3.104048"><ele>186</ele><time>2020-06-12T09:36:11Z</time><name>PT1125</name></trkpt>
<trkpt lat="54.351630" lon="-3.104060"><ele>186</ele><time>2020-06-12T09:36:12Z</time><name>PT1126</name></trkpt>
<trkpt lat="54.351638" lon="-3.104074"><ele>186</ele><time>2020-06-12T09:36:13Z</time><name>PT1127</name></trkpt>
<trkpt lat="54.351647" lon="-3.104086"><ele>186</ele><time>2020-06-12T09:36:14Z</time><name>PT1128</name></trkpt>
<trkpt lat="54.351655" lon="-3.104101"><ele>187</ele><time>2020-06-12T09:36:15Z</time><name>PT1129</name></trkpt>
<trkpt lat="54.351663" lon="-3.104115"><ele>186</ele><time>2020-06-12T09:36:16Z</time><name>PT1130</name></trkpt>
<trkpt lat="54.351670" lon="-3.104127"><ele>186</ele><time>2020-06-12T09:36:17Z</time><name>PT1131</name></trkpt>
<trkpt lat="54.351677" lon="-3.104141"><ele>185</ele><time>2020-06-12T09:36:18Z</time><name>PT1132</name></trkpt>
<trkpt lat="54.351683" lon="-3.104158"><ele>186</ele><time>2020-06-12T09:36:19Z</time><name>PT1133</name></trkpt>
<trkpt lat="54.351688" lon="-3.104170"><ele>186</ele><time>2020-06-12T09:36:20Z</time><name>PT1134</name></trkpt>
<trkpt lat="54.351696" lon="-3.104185"><ele>186</ele><time>2020-06-12T09:36:21Z</time><name>PT1135</name></trkpt>
<trkpt lat="54.351704" lon="-3.104199"><ele>186</ele><time>2020-06-12T09:36:22Z</time><name>PT1136</name></trkpt>
<trkpt lat="54.351709" lon="-3.104210"><ele>186</ele><time>2020-06-12T09:36:23Z</time><name>PT1137</name></trkpt>
<trkpt lat="54.351717" lon="-3.104229"><ele>186</ele><time>2020-06-12T09:36:24Z</time><name>PT1138</name></trkpt>
<trkpt lat="54.351723" lon="-3.104247"><ele>187</ele><time>2020-06-12T09:36:25Z</time><name>PT1139</name></trkpt>
<trkpt lat="54.351727" lon="-3.104263"><ele>186</ele><time>2020-06-12T09:36:26Z</time><name>PT1140</name></trkpt>
<trkpt lat="54.351733" lon="-3.104279"><ele>186</ele><time>2020-06-12T09:36:27Z</time><name>PT1141</name></trkpt>
<trkpt lat="54.351738" lon="-3.104292"><ele>186</ele><time>2020-06-12T09:36:28Z</time><name>PT1142</name></trkpt>
<trkpt lat="54.351745" lon="-3.104307"><ele>186</ele><time>2020-06-12T09:36:29Z</time><name>PT1143</name></trkpt>
<trkpt lat="54.351743" lon="-3.104318"><ele>184</ele><time>2020-06-12T09:36:30Z</time><name>PT1144</name></trkpt>
<trkpt lat="54.351748" lon="-3.104331"><ele>184</ele><time>2020-06-12T09:36:31Z</time><name>PT1145</name></trkpt>
<trkpt lat="54.351754" lon="-3.104345"><ele>184</ele><time>2020-06-12T09:36:32Z</time><name>PT1146</name></trkpt>
<trkpt lat="54.351760" lon="-3.104360"><ele>184</ele><time>2020-06-12T09:36:33Z</time><name>PT1147</name></trkpt>
<trkpt lat="54.351764" lon="-3.104372"><ele>184</ele><time>2020-06-12T09:36:34Z</time><name>PT1148</name></trkpt>
<trkpt lat="54.351770" lon="-3.104388"><ele>184</ele><time>2020-06-12T09:36:35Z</time><name>PT1149</name></trkpt>
<trkpt lat="54.351782" lon="-3.104402"><ele>183</ele><time>2020-06-12T09:36:36Z</time><name>PT1150</name></trkpt>
<trkpt lat="54.351791" lon="-3.104419"><ele>183</ele><time>2020-06-12T09:36:37Z</time><name>PT1151</name></trkpt>
<trkpt lat="54.351795" lon="-3.104438"><ele>183</ele><time>2020-06-12T09:36:38Z</time><name>PT1152</name></trkpt>
<trkpt lat="54.351802" lon="-3.104454"><ele>183</ele><time>2020-06-12T09:36:39Z</time><name>PT1153</name></trkpt>
<trkpt lat="54.351807" lon="-3.104471"><ele>184</ele><time>2020-06-12T09:36:40Z</time><name>PT1154</name></trkpt>
<trkpt lat="54.351810" lon="-3.104486"><ele>184</ele><time>2020-06-12T09:36:41Z</time><name>PT1155</name></trkpt>
<trkpt lat="54.351814" lon="-3.104500"><ele>184</ele><time>2020-06-12T09:36:42Z</time><name>PT1156</name></trkpt>
<trkpt lat="54.351819" lon="-3.104514"><ele>185</ele><time>2020-06-12T09:36:43Z</time><name>PT1157</name></trkpt>
<trkpt lat="54.351825" lon="-3.104529"><ele>185</ele><time>2020-06-12T09:36:44Z</time><name>PT1158</name></trkpt>
<trkpt lat="54.351832" lon="-3.104543"><ele>185</ele><time>2020-06-12T09:36:45Z</time><name>PT1159</name></trkpt>
<trkpt lat="54.351840" lon="-3.104559"><ele>186</ele><time>2020-06-12T09:36:46Z</time><name>PT1160</name></trkpt>
<trkpt lat="54.351853" lon="-3.104578"><ele>187</ele><time>2020-06-12T09:36:47Z</time><name>PT1161</name></trkpt>
<trkpt lat="54.351866" lon="-3.104602"><ele>187</ele><time>2020-06-12T09:36:48Z</time><name>PT1162</name></trkpt>
<trkpt lat="54.351874" lon="-3.104617"><ele>188</ele><time>2020-06-12T09:36:49Z</time><name>PT1163</name></trkpt>
<trkpt lat="54.351883" lon="-3.104631"><ele>188</ele><time>2020-06-12T09:36:50Z</time><name>PT1164</name></trkpt>
<trkpt lat="54.351893" lon="-3.104647"><ele>189</ele><time>2020-06-12T09:36:51Z</time><name>PT1165</name></trkpt>
<trkpt lat="54.351900" lon="-3.104661"><ele>189</ele><time>2020-06-12T09:36:52Z</time><name>PT1166</name></trkpt>
<trkpt lat="54.351908" lon="-3.104674"><ele>189</ele><time>2020-06-12T09:36:53Z</time><name>PT1167</name></trkpt>
<trkpt lat="54.351914" lon="-3.104683"><ele>190</ele><time>2020-06-12T09:36:54Z</time><name>PT1168</name></trkpt>
<trkpt lat="54.351921" lon="-3.104693"><ele>190</ele><time>2020-06-12T09:36:55Z</time><name>PT1169</name></trkpt>
<trkpt lat="54.351929" lon="-3.104708"><ele>189</ele><time>2020-06-12T09:36:56Z</time><name>PT1170</name></trkpt>
<trkpt lat="54.351937" lon="-3.104720"><ele>189</ele><time>2020-06-12T09:36:57Z</time><name>PT1171</name></trkpt>
<trkpt lat="54.351944" lon="-3.104734"><ele>189</ele><time>2020-06-12T09:36:58Z</time><name>PT1172</name></trkpt>
<trkpt lat="54.351955" lon="-3.104750"><ele>189</ele><time>2020-06-12T09:36:59Z</time><name>PT1173</name></trkpt>
<trkpt lat="54.351965" lon="-3.104765"><ele>189</ele><time>2020-06-12T09:37:00Z</time><name>PT1174</name></trkpt>
<trkpt lat="54.351974" lon="-3.104783"><ele>190</ele><time>2020-06-12T09:37:01Z</time><name>PT1175</name></trkpt>
<trkpt lat="54.351981" lon="-3.104798"><ele>190</ele><time>2020-06-12T09:37:02Z</time><name>PT1176</name></trkpt>
<trkpt lat="54.351990" lon="-3.104812"><ele>189</ele><time>2020-06-12T09:37:03Z</time><name>PT1177</name></trkpt>
<trkpt lat="54.351998" lon="-3.104824"><ele>189</ele><time>2020-06-12T09:37:04Z</time><name>PT1178</name></trkpt>
<trkpt lat="54.352008" lon="-3.104836"><ele>189</ele><time>2020-06-12T09:37:05Z</time><name>PT1179</name></trkpt>
<trkpt lat="54.352020" lon="-3.104851"><ele>190</ele><time>2020-06-12T09:37:06Z</time><name>PT1180</name></trkpt>
<trkpt lat="54.352030" lon="-3.104861"><ele>190</ele><time>2020-06-12T09:37:07Z</time><name>PT1181</name></trkpt>
<trkpt lat="54.352041" lon="-3.104872"><ele>190</ele><time>2020-06-12T09:37:09Z</time><name>PT1182</name></trkpt>
<trkpt lat="54.352051" lon="-3.104884"><ele>190</ele><time>2020-06-12T09:37:09Z</time><name>PT1183</name></trkpt>
<trkpt lat="54.352060" lon="-3.104896"><ele>190</ele><time>2020-06-12T09:37:11Z</time><name>PT1184</name></trkpt>
<trkpt lat="54.352069" lon="-3.104908"><ele>189</ele><time>2020-06-12T09:37:11Z</time><name>PT1185</name></trkpt>
<trkpt lat="54.352080" lon="-3.104919"><ele>189</ele><time>2020-06-12T09:37:12Z</time><name>PT1186</name></trkpt>
<trkpt lat="54.352092" lon="-3.104925"><ele>190</ele><time>2020-06-12T09:37:13Z</time><name>PT1187</name></trkpt>
<trkpt lat="54.352103" lon="-3.104929"><ele>190</ele><time>2020-06-12T09:37:14Z</time><name>PT1188</name></trkpt>
<trkpt lat="54.352114" lon="-3.104936"><ele>190</ele><time>2020-06-12T09:37:15Z</time><name>PT1189</name></trkpt>
<trkpt lat="54.352123" lon="-3.104946"><ele>190</ele><time>2020-06-12T09:37:16Z</time><name>PT1190</name></trkpt>
<trkpt lat="54.352133" lon="-3.104952"><ele>190</ele><time>2020-06-12T09:37:17Z</time><name>PT1191</name></trkpt>
<trkpt lat="54.352143" lon="-3.104960"><ele>190</ele><time>2020-06-12T09:37:19Z</time><name>PT1192</name></trkpt>
<trkpt lat="54.352155" lon="-3.104972"><ele>190</ele><time>2020-06-12T09:37:19Z</time><name>PT1193</name></trkpt>
<trkpt lat="54.352163" lon="-3.104981"><ele>190</ele><time>2020-06-12T09:37:20Z</time><name>PT1194</name></trkpt>
<trkpt lat="54.352171" lon="-3.104993"><ele>190</ele><time>2020-06-12T09:37:21Z</time><name>PT1195</name></trkpt>
<trkpt lat="54.352177" lon="-3.105003"><ele>190</ele><time>2020-06-12T09:37:22Z</time><name>PT1196</name></trkpt>
<trkpt lat="54.352184" lon="-3.105013"><ele>190</ele><time>2020-06-12T09:37:23Z</time><name>PT1197</name></trkpt>
<trkpt lat="54.352189" lon="-3.105027"><ele>189</ele><time>2020-06-12T09:37:24Z</time><name>PT1198</name></trkpt>
<trkpt lat="54.352193" lon="-3.105038"><ele>189</ele><time>2020-06-12T09:37:25Z</time><name>PT1199</name></trkpt>
<trkpt lat="54.352199" lon="-3.105048"><ele>189</ele><time>2020-06-12T09:37:26Z</time><name>PT1200</name></trkpt>
<trkpt lat="54.352208" lon="-3.105058"><ele>190</ele><time>2020-06-12T09:37:27Z</time><name>PT1201</name></trkpt>
<trkpt lat="54.352214" lon="-3.105066"><ele>190</ele><time>2020-06-12T09:37:28Z</time><name>PT1202</name></trkpt>
<trkpt lat="54.352221" lon="-3.105076"><ele>190</ele><time>2020-06-12T09:37:29Z</time><name>PT1203</name></trkpt>
<trkpt lat="54.352227" lon="-3.105086"><ele>190</ele><time>2020-06-12T09:37:30Z</time><name>PT1204</name></trkpt>
<trkpt lat="54.352237" lon="-3.105098"><ele>191</ele><time>2020-06-12T09:37:31Z</time><name>PT1205</name></trkpt>
<trkpt lat="54.352244" lon="-3.105106"><ele>191</ele><time>2020-06-12T09:37:32Z</time><name>PT1206</name></trkpt>
<trkpt lat="54.352251" lon="-3.105116"><ele>191</ele><time>2020-06-12T09:37:33Z</time><name>PT1207</name></trkpt>
<trkpt lat="54.352259" lon="-3.105124"><ele>191</ele><time>2020-06-12T09:37:34Z</time><name>PT1208</name></trkpt>
<trkpt lat="54.352267" lon="-3.105137"><ele>192</ele><time>2020-06-12T09:37:35Z</time><name>PT1209</name></trkpt>
<trkpt lat="54.352274" lon="-3.105147"><ele>192</ele><time>2020-06-12T09:37:36Z</time><name>PT1210</name></trkpt>
<trkpt lat="54.352281" lon="-3.105156"><ele>192</ele><time>2020-06-12T09:37:37Z</time><name>PT1211</name></trkpt>
<trkpt lat="54.352291" lon="-3.105163"><ele>192</ele><time>2020-06-12T09:37:38Z</time><name>PT1212</name></trkpt>
<trkpt lat="54.352297" lon="-3.105168"><ele>192</ele><time>2020-06-12T09:37:39Z</time><name>PT1213</name></trkpt>
<trkpt lat="54.352310" lon="-3.105176"><ele>193</ele><time>2020-06-12T09:37:40Z</time><name>PT1214</name></trkpt>
<trkpt lat="54.352323" lon="-3.105187"><ele>194</ele><time>2020-06-12T09:37:41Z</time><name>PT1215</name></trkpt>
<trkpt lat="54.352334" lon="-3.105196"><ele>194</ele><time>2020-06-12T09:37:42Z</time><name>PT1216</name></trkpt>
<trkpt lat="54.352346" lon="-3.105202"><ele>194</ele><time>2020-06-12T09:37:43Z</time><name>PT1217</name></trkpt>
<trkpt lat="54.352348" lon="-3.105211"><ele>193</ele><time>2020-06-12T09:37:44Z</time><name>PT1218</name></trkpt>
<trkpt lat="54.352364" lon="-3.105217"><ele>195</ele><time>2020-06-12T09:37:45Z</time><name>PT1219</name></trkpt>
<trkpt lat="54.352376" lon="-3.105225"><ele>195</ele><time>2020-06-12T09:37:46Z</time><name>PT1220</name></trkpt>
<trkpt lat="54.352390" lon="-3.105229"><ele>197</ele><time>2020-06-12T09:37:47Z</time><name>PT1221</name></trkpt>
<trkpt lat="54.352393" lon="-3.105238"><ele>197</ele><time>2020-06-12T09:37:48Z</time><name>PT1222</name></trkpt>
<trkpt lat="54.352398" lon="-3.105247"><ele>196</ele><time>2020-06-12T09:37:49Z</time><name>PT1223</name></trkpt>
<trkpt lat="54.352407" lon="-3.105255"><ele>196</ele><time>2020-06-12T09:37:50Z</time><name>PT1224</name></trkpt>
<trkpt lat="54.352415" lon="-3.105265"><ele>195</ele><time>2020-06-12T09:37:51Z</time><name>PT1225</name></trkpt>
<trkpt lat="54.352423" lon="-3.105277"><ele>194</ele><time>2020-06-12T09:37:52Z</time><name>PT1226</name></trkpt>
<trkpt lat="54.352433" lon="-3.105289"><ele>195</ele><time>2020-06-12T09:37:53Z</time><name>PT1227</name></trkpt>
<trkpt lat="54.352442" lon="-3.105300"><ele>195</ele><time>2020-06-12T09:37:54Z</time><name>PT1228</name></trkpt>
<trkpt lat="54.352450" lon="-3.105312"><ele>195</ele><time>2020-06-12T09:37:55Z</time><name>PT1229</name></trkpt>
<trkpt lat="54.352456" lon="-3.105324"><ele>194</ele><time>2020-06-12T09:37:56Z</time><name>PT1230</name></trkpt>
<trkpt lat="54.352465" lon="-3.105340"><ele>194</ele><time>2020-06-12T09:37:57Z</time><name>PT1231</name></trkpt>
<trkpt lat="54.352474" lon="-3.105352"><ele>194</ele><time>2020-06-12T09:37:58Z</time><name>PT1232</name></trkpt>
<trkpt lat="54.352482" lon="-3.105364"><ele>194</ele><time>2020-06-12T09:37:59Z</time><name>PT1233</name></trkpt>
<trkpt lat="54.352492" lon="-3.105377"><ele>194</ele><time>2020-06-12T09:38:00Z</time><name>PT1234</name></trkpt>
<trkpt lat="54.352500" lon="-3.105388"><ele>193</ele><time>2020-06-12T09:38:01Z</time><name>PT1235</name></trkpt>
<trkpt lat="54.352509" lon="-3.105397"><ele>193</ele><time>2020-06-12T09:38:02Z</time><name>PT1236</name></trkpt>
<trkpt lat="54.352519" lon="-3.105409"><ele>193</ele><time>2020-06-12T09:38:03Z</time><name>PT1237</name></trkpt>
<trkpt lat="54.352529" lon="-3.105420"><ele>193</ele><time>2020-06-12T09:38:04Z</time><name>PT1238</name></trkpt>
<trkpt lat="54.352539" lon="-3.105431"><ele>194</ele><time>2020-06-12T09:38:05Z</time><name>PT1239</name></trkpt>
<trkpt lat="54.352550" lon="-3.105440"><ele>194</ele><time>2020-06-12T09:38:06Z</time><name>PT1240</name></trkpt>
<trkpt lat="54.352562" lon="-3.105454"><ele>195</ele><time>2020-06-12T09:38:07Z</time><name>PT1241</name></trkpt>
<trkpt lat="54.352570" lon="-3.105465"><ele>195</ele><time>2020-06-12T09:38:08Z</time><name>PT1242</name></trkpt>
<trkpt lat="54.352579" lon="-3.105474"><ele>194</ele><time>2020-06-12T09:38:09Z</time><name>PT1243</name></trkpt>
<trkpt lat="54.352591" lon="-3.105486"><ele>194</ele><time>2020-06-12T09:38:10Z</time><name>PT1244</name></trkpt>
<trkpt lat="54.352603" lon="-3.105498"><ele>195</ele><time>2020-06-12T09:38:11Z</time><name>PT1245</name></trkpt>
<trkpt lat="54.352615" lon="-3.105507"><ele>195</ele><time>2020-06-12T09:38:12Z</time><name>PT1246</name></trkpt>
<trkpt lat="54.352627" lon="-3.105514"><ele>195</ele><time>2020-06-12T09:38:13Z</time><name>PT1247</name></trkpt>
<trkpt lat="54.352638" lon="-3.105524"><ele>195</ele><time>2020-06-12T09:38:14Z</time><name>PT1248</name></trkpt>
<trkpt lat="54.352649" lon="-3.105535"><ele>195</ele><time>2020-06-12T09:38:15Z</time><name>PT1249</name></trkpt>
<trkpt lat="54.352658" lon="-3.105550"><ele>194</ele><time>2020-06-12T09:38:16Z</time><name>PT1250</name></trkpt>
<trkpt lat="54.352668" lon="-3.105562"><ele>194</ele><time>2020-06-12T09:38:17Z</time><name>PT1251</name></trkpt>
<trkpt lat="54.352678" lon="-3.105571"><ele>194</ele><time>2020-06-12T09:38:18Z</time><name>PT1252</name></trkpt>
<trkpt lat="54.352690" lon="-3.105580"><ele>194</ele><time>2020-06-12T09:38:19Z</time><name>PT1253</name></trkpt>
<trkpt lat="54.352701" lon="-3.105590"><ele>194</ele><time>2020-06-12T09:38:20Z</time><name>PT1254</name></trkpt>
<trkpt lat="54.352710" lon="-3.105602"><ele>194</ele><time>2020-06-12T09:38:21Z</time><name>PT1255</name></trkpt>
<trkpt lat="54.352718" lon="-3.105616"><ele>194</ele><time>2020-06-12T09:38:22Z</time><name>PT1256</name></trkpt>
<trkpt lat="54.352730" lon="-3.105629"><ele>194</ele><time>2020-06-12T09:38:23Z</time><name>PT1257</name></trkpt>
<trkpt lat="54.352735" lon="-3.105645"><ele>194</ele><time>2020-06-12T09:38:24Z</time><name>PT1258</name></trkpt>
<trkpt lat="54.352741" lon="-3.105662"><ele>194</ele><time>2020-06-12T09:38:25Z</time><name>PT1259</name></trkpt>
<trkpt lat="54.352745" lon="-3.105680"><ele>194</ele><time>2020-06-12T09:38:26Z</time><name>PT1260</name></trkpt>
<trkpt lat="54.352749" lon="-3.105701"><ele>194</ele><time>2020-06-12T09:38:27Z</time><name>PT1261</name></trkpt>
<trkpt lat="54.352754" lon="-3.105721"><ele>195</ele><time>2020-06-12T09:38:28Z</time><name>PT1262</name></trkpt>
<trkpt lat="54.352760" lon="-3.105741"><ele>195</ele><time>2020-06-12T09:38:29Z</time><name>PT1263</name></trkpt>
<trkpt lat="54.352762" lon="-3.105759"><ele>195</ele><time>2020-06-12T09:38:30Z</time><name>PT1264</name></trkpt>
<trkpt lat="54.352764" lon="-3.105778"><ele>195</ele><time>2020-06-12T09:38:31Z</time><name>PT1265</name></trkpt>
<trkpt lat="54.352766" lon="-3.105801"><ele>195</ele><time>2020-06-12T09:38:32Z</time><name>PT1266</name></trkpt>
<trkpt lat="54.352767" lon="-3.105821"><ele>195</ele><time>2020-06-12T09:38:33Z</time><name>PT1267</name></trkpt>
<trkpt lat="54.352771" lon="-3.105842"><ele>195</ele><time>2020-06-12T09:38:34Z</time><name>PT1268</name></trkpt>
<trkpt lat="54.352771" lon="-3.105861"><ele>195</ele><time>2020-06-12T09:38:35Z</time><name>PT1269</name></trkpt>
<trkpt lat="54.352774" lon="-3.105877"><ele>195</ele><time>2020-06-12T09:38:36Z</time><name>PT1270</name></trkpt>
<trkpt lat="54.352776" lon="-3.105897"><ele>195</ele><time>2020-06-12T09:38:37Z</time><name>PT1271</name></trkpt>
<trkpt lat="54.352778" lon="-3.105916"><ele>195</ele><time>2020-06-12T09:38:38Z</time><name>PT1272</name></trkpt>
<trkpt lat="54.352778" lon="-3.105934"><ele>195</ele><time>2020-06-12T09:38:39Z</time><name>PT1273</name></trkpt>
<trkpt lat="54.352779" lon="-3.105954"><ele>195</ele><time>2020-06-12T09:38:40Z</time><name>PT1274</name></trkpt>
<trkpt lat="54.352781" lon="-3.105972"><ele>195</ele><time>2020-06-12T09:38:41Z</time><name>PT1275</name></trkpt>
<trkpt lat="54.352785" lon="-3.105991"><ele>196</ele><time>2020-06-12T09:38:42Z</time><name>PT1276</name></trkpt>
<trkpt lat="54.352785" lon="-3.106010"><ele>196</ele><time>2020-06-12T09:38:43Z</time><name>PT1277</name></trkpt>
<trkpt lat="54.352787" lon="-3.106025"><ele>196</ele><time>2020-06-12T09:38:44Z</time><name>PT1278</name></trkpt>
<trkpt lat="54.352788" lon="-3.106041"><ele>195</ele><time>2020-06-12T09:38:45Z</time><name>PT1279</name></trkpt>
<trkpt lat="54.352789" lon="-3.106057"><ele>195</ele><time>2020-06-12T09:38:46Z</time><name>PT1280</name></trkpt>
<trkpt lat="54.352790" lon="-3.106073"><ele>195</ele><time>2020-06-12T09:38:47Z</time><name>PT1281</name></trkpt>
<trkpt lat="54.352792" lon="-3.106091"><ele>195</ele><time>2020-06-12T09:38:48Z</time><name>PT1282</name></trkpt>
<trkpt lat="54.352794" lon="-3.106109"><ele>195</ele><time>2020-06-12T09:38:49Z</time><name>PT1283</name></trkpt>
<trkpt lat="54.352795" lon="-3.106126"><ele>195</ele><time>2020-06-12T09:38:50Z</time><name>PT1284</name></trkpt>
<trkpt lat="54.352800" lon="-3.106141"><ele>195</ele><time>2020-06-12T09:38:51Z</time><name>PT1285</name></trkpt>
<trkpt lat="54.352805" lon="-3.106156"><ele>195</ele><time>2020-06-12T09:38:52Z</time><name>PT1286</name></trkpt>
<trkpt lat="54.352809" lon="-3.106173"><ele>195</ele><time>2020-06-12T09:38:53Z</time><name>PT1287</name></trkpt>
<trkpt lat="54.352811" lon="-3.106186"><ele>195</ele><time>2020-06-12T09:38:54Z</time><name>PT1288</name></trkpt>
<trkpt lat="54.352813" lon="-3.106201"><ele>195</ele><time>2020-06-12T09:38:55Z</time><name>PT1289</name></trkpt>
<trkpt lat="54.352814" lon="-3.106212"><ele>194</ele><time>2020-06-12T09:38:56Z</time><name>PT1290</name></trkpt>
<trkpt lat="54.352816" lon="-3.106220"><ele>195</ele><time>2020-06-12T09:38:57Z</time><name>PT1291</name></trkpt>
<trkpt lat="54.352816" lon="-3.106227"><ele>194</ele><time>2020-06-12T09:38:58Z</time><name>PT1292</name></trkpt>
<trkpt lat="54.352818" lon="-3.106231"><ele>194</ele><time>2020-06-12T09:38:59Z</time><name>PT1293</name></trkpt>
<trkpt lat="54.352817" lon="-3.106233"><ele>195</ele><time>2020-06-12T09:39:00Z</time><name>PT1294</name></trkpt>
<trkpt lat="54.352817" lon="-3.106236"><ele>195</ele><time>2020-06-12T09:39:01Z</time><name>PT1295</name></trkpt>
<trkpt lat="54.352819" lon="-3.106241"><ele>195</ele><time>2020-06-12T09:39:03Z</time><name>PT1296</name></trkpt>
<trkpt lat="54.352818" lon="-3.106250"><ele>195</ele><time>2020-06-12T09:39:04Z</time><name>PT1297</name></trkpt>
<trkpt lat="54.352816" lon="-3.106252"><ele>195</ele><time>2020-06-12T09:39:05Z</time><name>PT1298</name></trkpt>
<trkpt lat="54.352820" lon="-3.106257"><ele>195</ele><time>2020-06-12T09:39:06Z</time><name>PT1299</name></trkpt>
<trkpt lat="54.352825" lon="-3.106273"><ele>195</ele><time>2020-06-12T09:39:07Z</time><name>PT1300</name></trkpt>
<trkpt lat="54.352827" lon="-3.106293"><ele>195</ele><time>2020-06-12T09:39:08Z</time><name>PT1301</name></trkpt>
<trkpt lat="54.352835" lon="-3.106308"><ele>195</ele><time>2020-06-12T09:39:09Z</time><name>PT1302</name></trkpt>
<trkpt lat="54.352839" lon="-3.106325"><ele>194</ele><time>2020-06-12T09:39:11Z</time><name>PT1303</name></trkpt>
<trkpt lat="54.352848" lon="-3.106350"><ele>194</ele><time>2020-06-12T09:39:11Z</time><name>PT1304</name></trkpt>
<trkpt lat="54.352854" lon="-3.106369"><ele>195</ele><time>2020-06-12T09:39:12Z</time><name>PT1305</name></trkpt>
<trkpt lat="54.352862" lon="-3.106384"><ele>195</ele><time>2020-06-12T09:39:13Z</time><name>PT1306</name></trkpt>
<trkpt lat="54.352871" lon="-3.106401"><ele>195</ele><time>2020-06-12T09:39:14Z</time><name>PT1307</name></trkpt>
<trkpt lat="54.352878" lon="-3.106417"><ele>196</ele><time>2020-06-12T09:39:15Z</time><name>PT1308</name></trkpt>
<trkpt lat="54.352884" lon="-3.106433"><ele>196</ele><time>2020-06-12T09:39:16Z</time><name>PT1309</name></trkpt>
<trkpt lat="54.352889" lon="-3.106453"><ele>196</ele><time>2020-06-12T09:39:17Z</time><name>PT1310</name></trkpt>
<trkpt lat="54.352894" lon="-3.106468"><ele>196</ele><time>2020-06-12T09:39:18Z</time><name>PT1311</name></trkpt>
<trkpt lat="54.352899" lon="-3.106481"><ele>195</ele><time>2020-06-12T09:39:19Z</time><name>PT1312</name></trkpt>
<trkpt lat="54.352903" lon="-3.106495"><ele>195</ele><time>2020-06-12T09:39:20Z</time><name>PT1313</name></trkpt>
<trkpt lat="54.352907" lon="-3.106508"><ele>195</ele><time>2020-06-12T09:39:21Z</time><name>PT1314</name></trkpt>
<trkpt lat="54.352911" lon="-3.106526"><ele>195</ele><time>2020-06-12T09:39:22Z</time><name>PT1315</name></trkpt>
<trkpt lat="54.352918" lon="-3.106544"><ele>195</ele><time>2020-06-12T09:39:23Z</time><name>PT1316</name></trkpt>
<trkpt lat="54.352923" lon="-3.106560"><ele>195</ele><time>2020-06-12T09:39:24Z</time><name>PT1317</name></trkpt>
<trkpt lat="54.352928" lon="-3.106577"><ele>195</ele><time>2020-06-12T09:39:25Z</time><name>PT1318</name></trkpt>
<trkpt lat="54.352933" lon="-3.106594"><ele>195</ele><time>2020-06-12T09:39:26Z</time><name>PT1319</name></trkpt>
<trkpt lat="54.352936" lon="-3.106612"><ele>195</ele><time>2020-06-12T09:39:27Z</time><name>PT1320</name></trkpt>
<trkpt lat="54.352941" lon="-3.106630"><ele>195</ele><time>2020-06-12T09:39:28Z</time><name>PT1321</name></trkpt>
<trkpt lat="54.352947" lon="-3.106647"><ele>195</ele><time>2020-06-12T09:39:29Z</time><name>PT1322</name></trkpt>
<trkpt lat="54.352951" lon="-3.106662"><ele>195</ele><time>2020-06-12T09:39:30Z</time><name>PT1323</name></trkpt>
<trkpt lat="54.352958" lon="-3.106682"><ele>195</ele><time>2020-06-12T09:39:31Z</time><name>PT1324</name></trkpt>
<trkpt lat="54.352964" lon="-3.106700"><ele>194</ele><time>2020-06-12T09:39:32Z</time><name>PT1325</name></trkpt>
<trkpt lat="54.352969" lon="-3.106713"><ele>194</ele><time>2020-06-12T09:39:33Z</time><name>PT1326</name></trkpt>
<trkpt lat="54.352974" lon="-3.106727"><ele>194</ele><time>2020-06-12T09:39:34Z</time><name>PT1327</name></trkpt>
<trkpt lat="54.352982" lon="-3.106745"><ele>194</ele><time>2020-06-12T09:39:35Z</time><name>PT1328</name></trkpt>
<trkpt lat="54.352987" lon="-3.106760"><ele>195</ele><time>2020-06-12T09:39:36Z</time><name>PT1329</name></trkpt>
<trkpt lat="54.352991" lon="-3.106776"><ele>195</ele><time>2020-06-12T09:39:37Z</time><name>PT1330</name></trkpt>
<trkpt lat="54.352995" lon="-3.106789"><ele>195</ele><time>2020-06-12T09:39:38Z</time><name>PT1331</name></trkpt>
<trkpt lat="54.352999" lon="-3.106805"><ele>195</ele><time>2020-06-12T09:39:39Z</time><name>PT1332</name></trkpt>
<trkpt lat="54.353004" lon="-3.106824"><ele>195</ele><time>2020-06-12T09:39:40Z</time><name>PT1333</name></trkpt>
<trkpt lat="54.353010" lon="-3.106841"><ele>195</ele><time>2020-06-12T09:39:41Z</time><name>PT1334</name></trkpt>
<trkpt lat="54.353015" lon="-3.106856"><ele>195</ele><time>2020-06-12T09:39:42Z</time><name>PT1335</name></trkpt>
<trkpt lat="54.353017" lon="-3.106872"><ele>195</ele><time>2020-06-12T09:39:43Z</time><name>PT1336</name></trkpt>
<trkpt lat="54.353019" lon="-3.106893"><ele>196</ele><time>2020-06-12T09:39:44Z</time><name>PT1337</name></trkpt>
<trkpt lat="54.353019" lon="-3.106911"><ele>195</ele><time>2020-06-12T09:39:45Z</time><name>PT1338</name></trkpt>
<trkpt lat="54.353020" lon="-3.106929"><ele>196</ele><time>2020-06-12T09:39:46Z</time><name>PT1339</name></trkpt>
<trkpt lat="54.353020" lon="-3.106942"><ele>196</ele><time>2020-06-12T09:39:47Z</time><name>PT1340</name></trkpt>
<trkpt lat="54.353018" lon="-3.106956"><ele>195</ele><time>2020-06-12T09:39:48Z</time><name>PT1341</name></trkpt>
<trkpt lat="54.353013" lon="-3.106969"><ele>195</ele><time>2020-06-12T09:39:49Z</time><name>PT1342</name></trkpt>
<trkpt lat="54.353014" lon="-3.106979"><ele>195</ele><time>2020-06-12T09:39:50Z</time><name>PT1343</name></trkpt>
<trkpt lat="54.353014" lon="-3.106989"><ele>196</ele><time>2020-06-12T09:39:51Z</time><name>PT1344</name></trkpt>
<trkpt lat="54.353012" lon="-3.106997"><ele>195</ele><time>2020-06-12T09:39:52Z</time><name>PT1345</name></trkpt>
<trkpt lat="54.353011" lon="-3.107004"><ele>195</ele><time>2020-06-12T09:39:53Z</time><name>PT1346</name></trkpt>
<trkpt lat="54.353009" lon="-3.107008"><ele>195</ele><time>2020-06-12T09:39:54Z</time><name>PT1347</name></trkpt>
<trkpt lat="54.353005" lon="-3.107018"><ele>195</ele><time>2020-06-12T09:39:55Z</time><name>PT1348</name></trkpt>
<trkpt lat="54.353002" lon="-3.107030"><ele>195</ele><time>2020-06-12T09:39:56Z</time><name>PT1349</name></trkpt>
<trkpt lat="54.352999" lon="-3.107046"><ele>195</ele><time>2020-06-12T09:39:57Z</time><name>PT1350</name></trkpt>
<trkpt lat="54.352996" lon="-3.107061"><ele>196</ele><time>2020-06-12T09:39:58Z</time><name>PT1351</name></trkpt>
<trkpt lat="54.352995" lon="-3.107071"><ele>196</ele><time>2020-06-12T09:39:59Z</time><name>PT1352</name></trkpt>
<trkpt lat="54.352994" lon="-3.107086"><ele>196</ele><time>2020-06-12T09:40:00Z</time><name>PT1353</name></trkpt>
<trkpt lat="54.352991" lon="-3.107104"><ele>197</ele><time>2020-06-12T09:40:01Z</time><name>PT1354</name></trkpt>
<trkpt lat="54.352993" lon="-3.107115"><ele>197</ele><time>2020-06-12T09:40:02Z</time><name>PT1355</name></trkpt>
<trkpt lat="54.352992" lon="-3.107125"><ele>197</ele><time>2020-06-12T09:40:03Z</time><name>PT1356</name></trkpt>
<trkpt lat="54.352995" lon="-3.107136"><ele>197</ele><time>2020-06-12T09:40:04Z</time><name>PT1357</name></trkpt>
<trkpt lat="54.352994" lon="-3.107156"><ele>197</ele><time>2020-06-12T09:40:05Z</time><name>PT1358</name></trkpt>
<trkpt lat="54.352992" lon="-3.107180"><ele>197</ele><time>2020-06-12T09:40:06Z</time><name>PT1359</name></trkpt>
<trkpt lat="54.352989" lon="-3.107202"><ele>198</ele><time>2020-06-12T09:40:07Z</time><name>PT1360</name></trkpt>
<trkpt lat="54.352986" lon="-3.107222"><ele>199</ele><time>2020-06-12T09:40:08Z</time><name>PT1361</name></trkpt>
<trkpt lat="54.352981" lon="-3.107240"><ele>199</ele><time>2020-06-12T09:40:09Z</time><name>PT1362</name></trkpt>
<trkpt lat="54.352975" lon="-3.107252"><ele>199</ele><time>2020-06-12T09:40:10Z</time><name>PT1363</name></trkpt>
<trkpt lat="54.352970" lon="-3.107269"><ele>199</ele><time>2020-06-12T09:40:11Z</time><name>PT1364</name></trkpt>
<trkpt lat="54.352968" lon="-3.107286"><ele>199</ele><time>2020-06-12T09:40:12Z</time><name>PT1365</name></trkpt>
<trkpt lat="54.352967" lon="-3.107303"><ele>199</ele><time>2020-06-12T09:40:13Z</time><name>PT1366</name></trkpt>
<trkpt lat="54.352961" lon="-3.107319"><ele>200</ele><time>2020-06-12T09:40:14Z</time><name>PT1367</name></trkpt>
<trkpt lat="54.352957" lon="-3.107335"><ele>200</ele><time>2020-06-12T09:40:15Z</time><name>PT1368</name></trkpt>
<trkpt lat="54.352955" lon="-3.107353"><ele>200</ele><time>2020-06-12T09:40:16Z</time><name>PT1369</name></trkpt>
<trkpt lat="54.352951" lon="-3.107371"><ele>200</ele><time>2020-06-12T09:40:17Z</time><name>PT1370</name></trkpt>
<trkpt lat="54.352947" lon="-3.107388"><ele>200</ele><time>2020-06-12T09:40:18Z</time><name>PT1371</name></trkpt>
<trkpt lat="54.352946" lon="-3.107405"><ele>201</ele><time>2020-06-12T09:40:19Z</time><name>PT1372</name></trkpt>
<trkpt lat="54.352945" lon="-3.107420"><ele>201</ele><time>2020-06-12T09:40:20Z</time><name>PT1373</name></trkpt>
<trkpt lat="54.352942" lon="-3.107437"><ele>201</ele><time>2020-06-12T09:40:21Z</time><name>PT1374</name></trkpt>
<trkpt lat="54.352939" lon="-3.107452"><ele>201</ele><time>2020-06-12T09:40:22Z</time><name>PT1375</name></trkpt>
<trkpt lat="54.352936" lon="-3.107466"><ele>202</ele><time>2020-06-12T09:40:23Z</time><name>PT1376</name></trkpt>
<trkpt lat="54.352932" lon="-3.107485"><ele>202</ele><time>2020-06-12T09:40:24Z</time><name>PT1377</name></trkpt>
<trkpt lat="54.352931" lon="-3.107504"><ele>203</ele><time>2020-06-12T09:40:25Z</time><name>PT1378</name></trkpt>
<trkpt lat="54.352930" lon="-3.107519"><ele>203</ele><time>2020-06-12T09:40:26Z</time><name>PT1379</name></trkpt>
<trkpt lat="54.352930" lon="-3.107532"><ele>203</ele><time>2020-06-12T09:40:27Z</time><name>PT1380</name></trkpt>
<trkpt lat="54.352930" lon="-3.107544"><ele>203</ele><time>2020-06-12T09:40:28Z</time><name>PT1381</name></trkpt>
<trkpt lat="54.352927" lon="-3.107557"><ele>203</ele><time>2020-06-12T09:40:29Z</time><name>PT1382</name></trkpt>
<trkpt lat="54.352926" lon="-3.107571"><ele>203</ele><time>2020-06-12T09:40:30Z</time><name>PT1383</name></trkpt>
<trkpt lat="54.352925" lon="-3.107582"><ele>203</ele><time>2020-06-12T09:40:31Z</time><name>PT1384</name></trkpt>
<trkpt lat="54.352925" lon="-3.107595"><ele>203</ele><time>2020-06-12T09:40:32Z</time><name>PT1385</name></trkpt>
<trkpt lat="54.352923" lon="-3.107607"><ele>202</ele><time>2020-06-12T09:40:33Z</time><name>PT1386</name></trkpt>
<trkpt lat="54.352925" lon="-3.107622"><ele>202</ele><time>2020-06-12T09:40:34Z</time><name>PT1387</name></trkpt>
<trkpt lat="54.352927" lon="-3.107640"><ele>202</ele><time>2020-06-12T09:40:35Z</time><name>PT1388</name></trkpt>
<trkpt lat="54.352930" lon="-3.107658"><ele>203</ele><time>2020-06-12T09:40:36Z</time><name>PT1389</name></trkpt>
<trkpt lat="54.352930" lon="-3.107671"><ele>201</ele><time>2020-06-12T09:40:37Z</time><name>PT1390</name></trkpt>
<trkpt lat="54.352934" lon="-3.107688"><ele>201</ele><time>2020-06-12T09:40:38Z</time><name>PT1391</name></trkpt>
<trkpt lat="54.352936" lon="-3.107706"><ele>201</ele><time>2020-06-12T09:40:39Z</time><name>PT1392</name></trkpt>
<trkpt lat="54.352939" lon="-3.107725"><ele>201</ele><time>2020-06-12T09:40:40Z</time><name>PT1393</name></trkpt>
<trkpt lat="54.352943" lon="-3.107747"><ele>201</ele><time>2020-06-12T09:40:41Z</time><name>PT1394</name></trkpt>
<trkpt lat="54.352946" lon="-3.107764"><ele>201</ele><time>2020-06-12T09:40:42Z</time><name>PT1395</name></trkpt>
<trkpt lat="54.352950" lon="-3.107781"><ele>201</ele><time>2020-06-12T09:40:43Z</time><name>PT1396</name></trkpt>
<trkpt lat="54.352955" lon="-3.107799"><ele>201</ele><time>2020-06-12T09:40:44Z</time><name>PT1397</name></trkpt>
<trkpt lat="54.352961" lon="-3.107814"><ele>201</ele><time>2020-06-12T09:40:45Z</time><name>PT1398</name></trkpt>
<trkpt lat="54.352964" lon="-3.107828"><ele>201</ele><time>2020-06-12T09:40:46Z</time><name>PT1399</name></trkpt>
<trkpt lat="54.352966" lon="-3.107841"><ele>201</ele><time>2020-06-12T09:40:47Z</time><name>PT1400</name></trkpt>
<trkpt lat="54.352967" lon="-3.107856"><ele>201</ele><time>2020-06-12T09:40:48Z</time><name>PT1401</name></trkpt>
<trkpt lat="54.352967" lon="-3.107870"><ele>201</ele><time>2020-06-12T09:40:49Z</time><name>PT1402</name></trkpt>
<trkpt lat="54.352962" lon="-3.107882"><ele>200</ele><time>2020-06-12T09:40:50Z</time><name>PT1403</name></trkpt>
<trkpt lat="54.352959" lon="-3.107898"><ele>200</ele><time>2020-06-12T09:40:51Z</time><name>PT1404</name></trkpt>
<trkpt lat="54.352958" lon="-3.107914"><ele>200</ele><time>2020-06-12T09:40:52Z</time><name>PT1405</name></trkpt>
<trkpt lat="54.352961" lon="-3.107935"><ele>200</ele><time>2020-06-12T09:40:53Z</time><name>PT1406</name></trkpt>
<trkpt lat="54.352964" lon="-3.107952"><ele>200</ele><time>2020-06-12T09:40:54Z</time><name>PT1407</name></trkpt>
<trkpt lat="54.352966" lon="-3.107971"><ele>201</ele><time>2020-06-12T09:40:55Z</time><name>PT1408</name></trkpt>
<trkpt lat="54.352966" lon="-3.107990"><ele>201</ele><time>2020-06-12T09:40:56Z</time><name>PT1409</name></trkpt>
<trkpt lat="54.352967" lon="-3.108007"><ele>201</ele><time>2020-06-12T09:40:57Z</time><name>PT1410</name></trkpt>
<trkpt lat="54.352969" lon="-3.108027"><ele>201</ele><time>2020-06-12T09:40:58Z</time><name>PT1411</name></trkpt>
<trkpt lat="54.352969" lon="-3.108046"><ele>201</ele><time>2020-06-12T09:40:59Z</time><name>PT1412</name></trkpt>
<trkpt lat="54.352969" lon="-3.108067"><ele>201</ele><time>2020-06-12T09:41:00Z</time><name>PT1413</name></trkpt>
<trkpt lat="54.352968" lon="-3.108082"><ele>201</ele><time>2020-06-12T09:41:01Z</time><name>PT1414</name></trkpt>
<trkpt lat="54.352968" lon="-3.108097"><ele>201</ele><time>2020-06-12T09:41:02Z</time><name>PT1415</name></trkpt>
<trkpt lat="54.352970" lon="-3.108117"><ele>201</ele><time>2020-06-12T09:41:03Z</time><name>PT1416</name></trkpt>
<trkpt lat="54.352967" lon="-3.108134"><ele>201</ele><time>2020-06-12T09:41:04Z</time><name>PT1417</name></trkpt>
<trkpt lat="54.352970" lon="-3.108148"><ele>201</ele><time>2020-06-12T09:41:05Z</time><name>PT1418</name></trkpt>
<trkpt lat="54.352972" lon="-3.108169"><ele>202</ele><time>2020-06-12T09:41:06Z</time><name>PT1419</name></trkpt>
<trkpt lat="54.352970" lon="-3.108187"><ele>202</ele><time>2020-06-12T09:41:07Z</time><name>PT1420</name></trkpt>
<trkpt lat="54.352971" lon="-3.108210"><ele>202</ele><time>2020-06-12T09:41:08Z</time><name>PT1421</name></trkpt>
<trkpt lat="54.352973" lon="-3.108230"><ele>203</ele><time>2020-06-12T09:41:09Z</time><name>PT1422</name></trkpt>
<trkpt lat="54.352971" lon="-3.108252"><ele>203</ele><time>2020-06-12T09:41:10Z</time><name>PT1423</name></trkpt>
<trkpt lat="54.352972" lon="-3.108272"><ele>203</ele><time>2020-06-12T09:41:11Z</time><name>PT1424</name></trkpt>
<trkpt lat="54.352976" lon="-3.108286"><ele>203</ele><time>2020-06-12T09:41:12Z</time><name>PT1425</name></trkpt>
<trkpt lat="54.352983" lon="-3.108306"><ele>204</ele><time>2020-06-12T09:41:13Z</time><name>PT1426</name></trkpt>
<trkpt lat="54.352992" lon="-3.108322"><ele>204</ele><time>2020-06-12T09:41:14Z</time><name>PT1427</name></trkpt>
<trkpt lat="54.352996" lon="-3.108337"><ele>204</ele><time>2020-06-12T09:41:15Z</time><name>PT1428</name></trkpt>
<trkpt lat="54.352998" lon="-3.108352"><ele>204</ele><time>2020-06-12T09:41:17Z</time><name>PT1429</name></trkpt>
<trkpt lat="54.352998" lon="-3.108363"><ele>204</ele><time>2020-06-12T09:41:17Z</time><name>PT1430</name></trkpt>
<trkpt lat="54.352998" lon="-3.108367"><ele>204</ele><time>2020-06-12T09:41:18Z</time><name>PT1431</name></trkpt>
<trkpt lat="54.352995" lon="-3.108368"><ele>203</ele><time>2020-06-12T09:41:19Z</time><name>PT1432</name></trkpt>
<trkpt lat="54.352996" lon="-3.108369"><ele>203</ele><time>2020-06-12T09:41:20Z</time><name>PT1433</name></trkpt>
<trkpt lat="54.352999" lon="-3.108388"><ele>203</ele><time>2020-06-12T09:41:25Z</time><name>PT1434</name></trkpt>
<trkpt lat="54.353002" lon="-3.108414"><ele>203</ele><time>2020-06-12T09:41:25Z</time><name>PT1435</name></trkpt>
<trkpt lat="54.353004" lon="-3.108436"><ele>203</ele><time>2020-06-12T09:41:26Z</time><name>PT1436</name></trkpt>
<trkpt lat="54.353013" lon="-3.108460"><ele>204</ele><time>2020-06-12T09:41:27Z</time><name>PT1437</name></trkpt>
<trkpt lat="54.353022" lon="-3.108480"><ele>204</ele><time>2020-06-12T09:41:28Z</time><name>PT1438</name></trkpt>
<trkpt lat="54.353029" lon="-3.108495"><ele>204</ele><time>2020-06-12T09:41:29Z</time><name>PT1439</name></trkpt>
<trkpt lat="54.353032" lon="-3.108514"><ele>204</ele><time>2020-06-12T09:41:30Z</time><name>PT1440</name></trkpt>
<trkpt lat="54.353037" lon="-3.108533"><ele>205</ele><time>2020-06-12T09:41:31Z</time><name>PT1441</name></trkpt>
<trkpt lat="54.353040" lon="-3.108548"><ele>205</ele><time>2020-06-12T09:41:32Z</time><name>PT1442</name></trkpt>
<trkpt lat="54.353037" lon="-3.108553"><ele>205</ele><time>2020-06-12T09:41:33Z</time><name>PT1443</name></trkpt>
<trkpt lat="54.353033" lon="-3.108557"><ele>205</ele><time>2020-06-12T09:41:35Z</time><name>PT1444</name></trkpt>
<trkpt lat="54.353032" lon="-3.108564"><ele>205</ele><time>2020-06-12T09:41:35Z</time><name>PT1445</name></trkpt>
<trkpt lat="54.353032" lon="-3.108568"><ele>205</ele><time>2020-06-12T09:41:36Z</time><name>PT1446</name></trkpt>
<trkpt lat="54.353032" lon="-3.108579"><ele>205</ele><time>2020-06-12T09:41:37Z</time><name>PT1447</name></trkpt>
<trkpt lat="54.353032" lon="-3.108593"><ele>205</ele><time>2020-06-12T09:41:38Z</time><name>PT1448</name></trkpt>
<trkpt lat="54.353037" lon="-3.108608"><ele>205</ele><time>2020-06-12T09:41:39Z</time><name>PT1449</name></trkpt>
<trkpt lat="54.353044" lon="-3.108626"><ele>205</ele><time>2020-06-12T09:41:40Z</time><name>PT1450</name></trkpt>
<trkpt lat="54.353048" lon="-3.108645"><ele>204</ele><time>2020-06-12T09:41:41Z</time><name>PT1451</name></trkpt>
<trkpt lat="54.353052" lon="-3.108667"><ele>204</ele><time>2020-06-12T09:41:42Z</time><name>PT1452</name></trkpt>
<trkpt lat="54.353058" lon="-3.108687"><ele>205</ele><time>2020-06-12T09:41:43Z</time><name>PT1453</name></trkpt>
<trkpt lat="54.353064" lon="-3.108707"><ele>205</ele><time>2020-06-12T09:41:45Z</time><name>PT1454</name></trkpt>
<trkpt lat="54.353070" lon="-3.108729"><ele>206</ele><time>2020-06-12T09:41:45Z</time><name>PT1455</name></trkpt>
<trkpt lat="54.353074" lon="-3.108748"><ele>206</ele><time>2020-06-12T09:41:46Z</time><name>PT1456</name></trkpt>
<trkpt lat="54.353078" lon="-3.108766"><ele>207</ele><time>2020-06-12T09:41:47Z</time><name>PT1457</name></trkpt>
<trkpt lat="54.353083" lon="-3.108786"><ele>207</ele><time>2020-06-12T09:41:48Z</time><name>PT1458</name></trkpt>
<trkpt lat="54.353089" lon="-3.108802"><ele>207</ele><time>2020-06-12T09:41:49Z</time><name>PT1459</name></trkpt>
<trkpt lat="54.353093" lon="-3.108821"><ele>208</ele><time>2020-06-12T09:41:50Z</time><name>PT1460</name></trkpt>
<trkpt lat="54.353095" lon="-3.108841"><ele>208</ele><time>2020-06-12T09:41:51Z</time><name>PT1461</name></trkpt>
<trkpt lat="54.353096" lon="-3.108859"><ele>208</ele><time>2020-06-12T09:41:52Z</time><name>PT1462</name></trkpt>
<trkpt lat="54.353096" lon="-3.108877"><ele>208</ele><time>2020-06-12T09:41:53Z</time><name>PT1463</name></trkpt>
<trkpt lat="54.353098" lon="-3.108895"><ele>208</ele><time>2020-06-12T09:41:54Z</time><name>PT1464</name></trkpt>
<trkpt lat="54.353099" lon="-3.108911"><ele>209</ele><time>2020-06-12T09:41:55Z</time><name>PT1465</name></trkpt>
<trkpt lat="54.353101" lon="-3.108929"><ele>209</ele><time>2020-06-12T09:41:56Z</time><name>PT1466</name></trkpt>
<trkpt lat="54.353100" lon="-3.108946"><ele>210</ele><time>2020-06-12T09:41:57Z</time><name>PT1467</name></trkpt>
<trkpt lat="54.353103" lon="-3.108963"><ele>209</ele><time>2020-06-12T09:41:58Z</time><name>PT1468</name></trkpt>
<trkpt lat="54.353103" lon="-3.108984"><ele>209</ele><time>2020-06-12T09:41:59Z</time><name>PT1469</name></trkpt>
<trkpt lat="54.353105" lon="-3.108996"><ele>209</ele><time>2020-06-12T09:42:00Z</time><name>PT1470</name></trkpt>
<trkpt lat="54.353107" lon="-3.109008"><ele>209</ele><time>2020-06-12T09:42:01Z</time><name>PT1471</name></trkpt>
<trkpt lat="54.353108" lon="-3.109026"><ele>209</ele><time>2020-06-12T09:42:02Z</time><name>PT1472</name></trkpt>
<trkpt lat="54.353110" lon="-3.109046"><ele>210</ele><time>2020-06-12T09:42:03Z</time><name>PT1473</name></trkpt>
<trkpt lat="54.353115" lon="-3.109066"><ele>210</ele><time>2020-06-12T09:42:04Z</time><name>PT1474</name></trkpt>
<trkpt lat="54.353116" lon="-3.109082"><ele>210</ele><time>2020-06-12T09:42:05Z</time><name>PT1475</name></trkpt>
<trkpt lat="54.353118" lon="-3.109100"><ele>210</ele><time>2020-06-12T09:42:06Z</time><name>PT1476</name></trkpt>
<trkpt lat="54.353119" lon="-3.109114"><ele>210</ele><time>2020-06-12T09:42:07Z</time><name>PT1477</name></trkpt>
<trkpt lat="54.353120" lon="-3.109132"><ele>209</ele><time>2020-06-12T09:42:08Z</time><name>PT1478</name></trkpt>
<trkpt lat="54.353121" lon="-3.109151"><ele>209</ele><time>2020-06-12T09:42:09Z</time><name>PT1479</name></trkpt>
<trkpt lat="54.353121" lon="-3.109168"><ele>209</ele><time>2020-06-12T09:42:10Z</time><name>PT1480</name></trkpt>
<trkpt lat="54.353121" lon="-3.109183"><ele>209</ele><time>2020-06-12T09:42:11Z</time><name>PT1481</name></trkpt>
<trkpt lat="54.353122" lon="-3.109196"><ele>209</ele><time>2020-06-12T09:42:12Z</time><name>PT1482</name></trkpt>
<trkpt lat="54.353123" lon="-3.109213"><ele>209</ele><time>2020-06-12T09:42:13Z</time><name>PT1483</name></trkpt>
<trkpt lat="54.353126" lon="-3.109233"><ele>209</ele><time>2020-06-12T09:42:14Z</time><name>PT1484</name></trkpt>
<trkpt lat="54.353127" lon="-3.109250"><ele>210</ele><time>2020-06-12T09:42:15Z</time><name>PT1485</name></trkpt>
<trkpt lat="54.353131" lon="-3.109264"><ele>210</ele><time>2020-06-12T09:42:16Z</time><name>PT1486</name></trkpt>
<trkpt lat="54.353132" lon="-3.109286"><ele>210</ele><time>2020-06-12T09:42:17Z</time><name>PT1487</name></trkpt>
<trkpt lat="54.353134" lon="-3.109303"><ele>210</ele><time>2020-06-12T09:42:18Z</time><name>PT1488</name></trkpt>
<trkpt lat="54.353134" lon="-3.109320"><ele>211</ele><time>2020-06-12T09:42:19Z</time><name>PT1489</name></trkpt>
<trkpt lat="54.353138" lon="-3.109336"><ele>211</ele><time>2020-06-12T09:42:20Z</time><name>PT1490</name></trkpt>
<trkpt lat="54.353138" lon="-3.109353"><ele>211</ele><time>2020-06-12T09:42:21Z</time><name>PT1491</name></trkpt>
<trkpt lat="54.353140" lon="-3.109368"><ele>211</ele><time>2020-06-12T09:42:22Z</time><name>PT1492</name></trkpt>
<trkpt lat="54.353142" lon="-3.109383"><ele>211</ele><time>2020-06-12T09:42:23Z</time><name>PT1493</name></trkpt>
<trkpt lat="54.353146" lon="-3.109398"><ele>211</ele><time>2020-06-12T09:42:24Z</time><name>PT1494</name></trkpt>
<trkpt lat="54.353150" lon="-3.109418"><ele>211</ele><time>2020-06-12T09:42:25Z</time><name>PT1495</name></trkpt>
<trkpt lat="54.353150" lon="-3.109434"><ele>211</ele><time>2020-06-12T09:42:26Z</time><name>PT1496</name></trkpt>
<trkpt lat="54.353150" lon="-3.109450"><ele>210</ele><time>2020-06-12T09:42:27Z</time><name>PT1497</name></trkpt>
<trkpt lat="54.353153" lon="-3.109467"><ele>210</ele><time>2020-06-12T09:42:28Z</time><name>PT1498</name></trkpt>
<trkpt lat="54.353154" lon="-3.109484"><ele>211</ele><time>2020-06-12T09:42:29Z</time><name>PT1499</name></trkpt>
<trkpt lat="54.353154" lon="-3.109500"><ele>210</ele><time>2020-06-12T09:42:30Z</time><name>PT1500</name></trkpt>
<trkpt lat="54.353157" lon="-3.109517"><ele>210</ele><time>2020-06-12T09:42:31Z</time><name>PT1501</name></trkpt>
<trkpt lat="54.353159" lon="-3.109531"><ele>209</ele><time>2020-06-12T09:42:32Z</time><name>PT1502</name></trkpt>
<trkpt lat="54.353162" lon="-3.109548"><ele>209</ele><time>2020-06-12T09:42:33Z</time><name>PT1503</name></trkpt>
<trkpt lat="54.353165" lon="-3.109557"><ele>209</ele><time>2020-06-12T09:42:34Z</time><name>PT1504</name></trkpt>
<trkpt lat="54.353169" lon="-3.109579"><ele>210</ele><time>2020-06-12T09:42:35Z</time><name>PT1505</name></trkpt>
<trkpt lat="54.353172" lon="-3.109600"><ele>210</ele><time>2020-06-12T09:42:36Z</time><name>PT1506</name></trkpt>
<trkpt lat="54.353176" lon="-3.109613"><ele>210</ele><time>2020-06-12T09:42:37Z</time><name>PT1507</name></trkpt>
<trkpt lat="54.353180" lon="-3.109625"><ele>210</ele><time>2020-06-12T09:42:38Z</time><name>PT1508</name></trkpt>
<trkpt lat="54.353181" lon="-3.109635"><ele>211</ele><time>2020-06-12T09:42:39Z</time><name>PT1509</name></trkpt>
<trkpt lat="54.353183" lon="-3.109646"><ele>210</ele><time>2020-06-12T09:42:40Z</time><name>PT1510</name></trkpt>
<trkpt lat="54.353185" lon="-3.109661"><ele>210</ele><time>2020-06-12T09:42:41Z</time><name>PT1511</name></trkpt>
<trkpt lat="54.353188" lon="-3.109675"><ele>211</ele><time>2020-06-12T09:42:42Z</time><name>PT1512</name></trkpt>
<trkpt lat="54.353191" lon="-3.109686"><ele>211</ele><time>2020-06-12T09:42:43Z</time><name>PT1513</name></trkpt>
<trkpt lat="54.353196" lon="-3.109705"><ele>211</ele><time>2020-06-12T09:42:44Z</time><name>PT1514</name></trkpt>
<trkpt lat="54.353199" lon="-3.109719"><ele>211</ele><time>2020-06-12T09:42:45Z</time><name>PT1515</name></trkpt>
<trkpt lat="54.353203" lon="-3.109737"><ele>212</ele><time>2020-06-12T09:42:46Z</time><name>PT1516</name></trkpt>
<trkpt lat="54.353205" lon="-3.109755"><ele>213</ele><time>2020-06-12T09:42:47Z</time><name>PT1517</name></trkpt>
<trkpt lat="54.353208" lon="-3.109770"><ele>213</ele><time>2020-06-12T09:42:48Z</time><name>PT1518</name></trkpt>
<trkpt lat="54.353212" lon="-3.109781"><ele>213</ele><time>2020-06-12T09:42:49Z</time><name>PT1519</name></trkpt>
<trkpt lat="54.353218" lon="-3.109792"><ele>213</ele><time>2020-06-12T09:42:50Z</time><name>PT1520</name></trkpt>
<trkpt lat="54.353225" lon="-3.109805"><ele>213</ele><time>2020-06-12T09:42:51Z</time><name>PT1521</name></trkpt>
<trkpt lat="54.353231" lon="-3.109818"><ele>213</ele><time>2020-06-12T09:42:52Z</time><name>PT1522</name></trkpt>
<trkpt lat="54.353236" lon="-3.109828"><ele>213</ele><time>2020-06-12T09:42:53Z</time><name>PT1523</name></trkpt>
<trkpt lat="54.353244" lon="-3.109839"><ele>214</ele><time>2020-06-12T09:42:54Z</time><name>PT1524</name></trkpt>
<trkpt lat="54.353249" lon="-3.109848"><ele>214</ele><time>2020-06-12T09:42:55Z</time><name>PT1525</name></trkpt>
<trkpt lat="54.353254" lon="-3.109860"><ele>215</ele><time>2020-06-12T09:42:56Z</time><name>PT1526</name></trkpt>
<trkpt lat="54.353260" lon="-3.109878"><ele>216</ele><time>2020-06-12T09:42:57Z</time><name>PT1527</name></trkpt>
<trkpt lat="54.353265" lon="-3.109891"><ele>216</ele><time>2020-06-12T09:42:58Z</time><name>PT1528</name></trkpt>
<trkpt lat="54.353273" lon="-3.109901"><ele>217</ele><time>2020-06-12T09:42:59Z</time><name>PT1529</name></trkpt>
<trkpt lat="54.353280" lon="-3.109912"><ele>217</ele><time>2020-06-12T09:43:00Z</time><name>PT1530</name></trkpt>
<trkpt lat="54.353286" lon="-3.109923"><ele>218</ele><time>2020-06-12T09:43:01Z</time><name>PT1531</name></trkpt>
<trkpt lat="54.353291" lon="-3.109935"><ele>218</ele><time>2020-06-12T09:43:02Z</time><name>PT1532</name></trkpt>
<trkpt lat="54.353295" lon="-3.109945"><ele>218</ele><time>2020-06-12T09:43:03Z</time><name>PT1533</name></trkpt>
<trkpt lat="54.353300" lon="-3.109955"><ele>218</ele><time>2020-06-12T09:43:04Z</time><name>PT1534</name></trkpt>
<trkpt lat="54.353309" lon="-3.109964"><ele>219</ele><time>2020-06-12T09:43:05Z</time><name>PT1535</name></trkpt>
<trkpt lat="54.353319" lon="-3.109974"><ele>219</ele><time>2020-06-12T09:43:06Z</time><name>PT1536</name></trkpt>
<trkpt lat="54.353327" lon="-3.109986"><ele>219</ele><time>2020-06-12T09:43:07Z</time><name>PT1537</name></trkpt>
<trkpt lat="54.353333" lon="-3.109995"><ele>220</ele><time>2020-06-12T09:43:08Z</time><name>PT1538</name></trkpt>
<trkpt lat="54.353338" lon="-3.110004"><ele>220</ele><time>2020-06-12T09:43:09Z</time><name>PT1539</name></trkpt>
<trkpt lat="54.353342" lon="-3.110014"><ele>220</ele><time>2020-06-12T09:43:10Z</time><name>PT1540</name></trkpt>
<trkpt lat="54.353348" lon="-3.110028"><ele>221</ele><time>2020-06-12T09:43:11Z</time><name>PT1541</name></trkpt>
<trkpt lat="54.353351" lon="-3.110040"><ele>221</ele><time>2020-06-12T09:43:12Z</time><name>PT1542</name></trkpt>
<trkpt lat="54.353358" lon="-3.110054"><ele>221</ele><time>2020-06-12T09:43:13Z</time><name>PT1543</name></trkpt>
<trkpt lat="54.353366" lon="-3.110063"><ele>220</ele><time>2020-06-12T09:43:14Z</time><name>PT1544</name></trkpt>
<trkpt lat="54.353375" lon="-3.110074"><ele>220</ele><time>2020-06-12T09:43:15Z</time><name>PT1545</name></trkpt>
<trkpt lat="54.353379" lon="-3.110087"><ele>221</ele><time>2020-06-12T09:43:16Z</time><name>PT1546</name></trkpt>
<trkpt lat="54.353382" lon="-3.110100"><ele>221</ele><time>2020-06-12T09:43:17Z</time><name>PT1547</name></trkpt>
<trkpt lat="54.353388" lon="-3.110109"><ele>221</ele><time>2020-06-12T09:43:18Z</time><name>PT1548</name></trkpt>
<trkpt lat="54.353393" lon="-3.110119"><ele>221</ele><time>2020-06-12T09:43:19Z</time><name>PT1549</name></trkpt>
<trkpt lat="54.353398" lon="-3.110128"><ele>222</ele><time>2020-06-12T09:43:20Z</time><name>PT1550</name></trkpt>
<trkpt lat="54.353402" lon="-3.110139"><ele>222</ele><time>2020-06-12T09:43:21Z</time><name>PT1551</name></trkpt>
<trkpt lat="54.353407" lon="-3.110149"><ele>222</ele><time>2020-06-12T09:43:22Z</time><name>PT1552</name></trkpt>
<trkpt lat="54.353406" lon="-3.110162"><ele>221</ele><time>2020-06-12T09:43:23Z</time><name>PT1553</name></trkpt>
<trkpt lat="54.353406" lon="-3.110174"><ele>221</ele><time>2020-06-12T09:43:24Z</time><name>PT1554</name></trkpt>
<trkpt lat="54.353407" lon="-3.110182"><ele>221</ele><time>2020-06-12T09:43:25Z</time><name>PT1555</name></trkpt>
<trkpt lat="54.353410" lon="-3.110195"><ele>222</ele><time>2020-06-12T09:43:26Z</time><name>PT1556</name></trkpt>
<trkpt lat="54.353418" lon="-3.110209"><ele>221</ele><time>2020-06-12T09:43:27Z</time><name>PT1557</name></trkpt>
<trkpt lat="54.353424" lon="-3.110225"><ele>221</ele><time>2020-06-12T09:43:28Z</time><name>PT1558</name></trkpt>
<trkpt lat="54.353427" lon="-3.110239"><ele>221</ele><time>2020-06-12T09:43:29Z</time><name>PT1559</name></trkpt>
<trkpt lat="54.353435" lon="-3.110252"><ele>222</ele><time>2020-06-12T09:43:30Z</time><name>PT1560</name></trkpt>
<trkpt lat="54.353440" lon="-3.110263"><ele>222</ele><time>2020-06-12T09:43:31Z</time><name>PT1561</name></trkpt>
<trkpt lat="54.353444" lon="-3.110276"><ele>222</ele><time>2020-06-12T09:43:32Z</time><name>PT1562</name></trkpt>
<trkpt lat="54.353451" lon="-3.110293"><ele>223</ele><time>2020-06-12T09:43:33Z</time><name>PT1563</name></trkpt>
<trkpt lat="54.353457" lon="-3.110307"><ele>224</ele><time>2020-06-12T09:43:34Z</time><name>PT1564</name></trkpt>
<trkpt lat="54.353462" lon="-3.110320"><ele>223</ele><time>2020-06-12T09:43:35Z</time><name>PT1565</name></trkpt>
<trkpt lat="54.353469" lon="-3.110331"><ele>224</ele><time>2020-06-12T09:43:36Z</time><name>PT1566</name></trkpt>
<trkpt lat="54.353475" lon="-3.110344"><ele>225</ele><time>2020-06-12T09:43:37Z</time><name>PT1567</name></trkpt>
<trkpt lat="54.353479" lon="-3.110356"><ele>225</ele><time>2020-06-12T09:43:38Z</time><name>PT1568</name></trkpt>
<trkpt lat="54.353482" lon="-3.110369"><ele>225</ele><time>2020-06-12T09:43:39Z</time><name>PT1569</name></trkpt>
<trkpt lat="54.353489" lon="-3.110384"><ele>225</ele><time>2020-06-12T09:43:40Z</time><name>PT1570</name></trkpt>
<trkpt lat="54.353493" lon="-3.110397"><ele>225</ele><time>2020-06-12T09:43:41Z</time><name>PT1571</name></trkpt>
<trkpt lat="54.353499" lon="-3.110413"><ele>225</ele><time>2020-06-12T09:43:42Z</time><name>PT1572</name></trkpt>
<trkpt lat="54.353506" lon="-3.110423"><ele>225</ele><time>2020-06-12T09:43:43Z</time><name>PT1573</name></trkpt>
<trkpt lat="54.353510" lon="-3.110434"><ele>225</ele><time>2020-06-12T09:43:44Z</time><name>PT1574</name></trkpt>
<trkpt lat="54.353516" lon="-3.110442"><ele>226</ele><time>2020-06-12T09:43:45Z</time><name>PT1575</name></trkpt>
<trkpt lat="54.353523" lon="-3.110454"><ele>226</ele><time>2020-06-12T09:43:46Z</time><name>PT1576</name></trkpt>
<trkpt lat="54.353527" lon="-3.110467"><ele>226</ele><time>2020-06-12T09:43:47Z</time><name>PT1577</name></trkpt>
<trkpt lat="54.353533" lon="-3.110479"><ele>226</ele><time>2020-06-12T09:43:48Z</time><name>PT1578</name></trkpt>
<trkpt lat="54.353540" lon="-3.110493"><ele>226</ele><time>2020-06-12T09:43:49Z</time><name>PT1579</name></trkpt>
<trkpt lat="54.353547" lon="-3.110504"><ele>226</ele><time>2020-06-12T09:43:50Z</time><name>PT1580</name></trkpt>
<trkpt lat="54.353556" lon="-3.110515"><ele>226</ele><time>2020-06-12T09:43:51Z</time><name>PT1581</name></trkpt>
<trkpt lat="54.353563" lon="-3.110525"><ele>226</ele><time>2020-06-12T09:43:52Z</time><name>PT1582</name></trkpt>
<trkpt lat="54.353568" lon="-3.110535"><ele>226</ele><time>2020-06-12T09:43:53Z</time><name>PT1583</name></trkpt>
<trkpt lat="54.353574" lon="-3.110547"><ele>226</ele><time>2020-06-12T09:43:54Z</time><name>PT1584</name></trkpt>
<trkpt lat="54.353579" lon="-3.110559"><ele>226</ele><time>2020-06-12T09:43:55Z</time><name>PT1585</name></trkpt>
<trkpt lat="54.353584" lon="-3.110571"><ele>225</ele><time>2020-06-12T09:43:56Z</time><name>PT1586</name></trkpt>
<trkpt lat="54.353591" lon="-3.110582"><ele>225</ele><time>2020-06-12T09:43:57Z</time><name>PT1587</name></trkpt>
<trkpt lat="54.353599" lon="-3.110591"><ele>225</ele><time>2020-06-12T09:43:58Z</time><name>PT1588</name></trkpt>
<trkpt lat="54.353607" lon="-3.110600"><ele>225</ele><time>2020-06-12T09:43:59Z</time><name>PT1589</name></trkpt>
<trkpt lat="54.353614" lon="-3.110612"><ele>226</ele><time>2020-06-12T09:44:00Z</time><name>PT1590</name></trkpt>
<trkpt lat="54.353618" lon="-3.110624"><ele>225</ele><time>2020-06-12T09:44:01Z</time><name>PT1591</name></trkpt>
<trkpt lat="54.353623" lon="-3.110636"><ele>225</ele><time>2020-06-12T09:44:02Z</time><name>PT1592</name></trkpt>
<trkpt lat="54.353629" lon="-3.110644"><ele>225</ele><time>2020-06-12T09:44:03Z</time><name>PT1593</name></trkpt>
<trkpt lat="54.353636" lon="-3.110652"><ele>225</ele><time>2020-06-12T09:44:04Z</time><name>PT1594</name></trkpt>
<trkpt lat="54.353643" lon="-3.110660"><ele>225</ele><time>2020-06-12T09:44:05Z</time><name>PT1595</name></trkpt>
<trkpt lat="54.353648" lon="-3.110670"><ele>224</ele><time>2020-06-12T09:44:06Z</time><name>PT1596</name></trkpt>
<trkpt lat="54.353653" lon="-3.110679"><ele>224</ele><time>2020-06-12T09:44:07Z</time><name>PT1597</name></trkpt>
<trkpt lat="54.353662" lon="-3.110687"><ele>224</ele><time>2020-06-12T09:44:08Z</time><name>PT1598</name></trkpt>
<trkpt lat="54.353671" lon="-3.110700"><ele>225</ele><time>2020-06-12T09:44:09Z</time><name>PT1599</name></trkpt>
<trkpt lat="54.353679" lon="-3.110709"><ele>225</ele><time>2020-06-12T09:44:10Z</time><name>PT1600</name></trkpt>
<trkpt lat="54.353687" lon="-3.110715"><ele>225</ele><time>2020-06-12T09:44:11Z</time><name>PT1601</name></trkpt>
<trkpt lat="54.353696" lon="-3.110718"><ele>226</ele><time>2020-06-12T09:44:12Z</time><name>PT1602</name></trkpt>
<trkpt lat="54.353706" lon="-3.110724"><ele>226</ele><time>2020-06-12T09:44:13Z</time><name>PT1603</name></trkpt>
<trkpt lat="54.353714" lon="-3.110729"><ele>226</ele><time>2020-06-12T09:44:14Z</time><name>PT1604</name></trkpt>
<trkpt lat="54.353721" lon="-3.110733"><ele>226</ele><time>2020-06-12T09:44:15Z</time><name>PT1605</name></trkpt>
<trkpt lat="54.353729" lon="-3.110736"><ele>226</ele><time>2020-06-12T09:44:16Z</time><name>PT1606</name></trkpt>
<trkpt lat="54.353737" lon="-3.110743"><ele>226</ele><time>2020-06-12T09:44:17Z</time><name>PT1607</name></trkpt>
<trkpt lat="54.353745" lon="-3.110751"><ele>226</ele><time>2020-06-12T09:44:18Z</time><name>PT1608</name></trkpt>
<trkpt lat="54.353751" lon="-3.110760"><ele>226</ele><time>2020-06-12T09:44:19Z</time><name>PT1609</name></trkpt>
<trkpt lat="54.353760" lon="-3.110764"><ele>226</ele><time>2020-06-12T09:44:20Z</time><name>PT1610</name></trkpt>
<trkpt lat="54.353771" lon="-3.110768"><ele>226</ele><time>2020-06-12T09:44:21Z</time><name>PT1611</name></trkpt>
<trkpt lat="54.353785" lon="-3.110769"><ele>226</ele><time>2020-06-12T09:44:22Z</time><name>PT1612</name></trkpt>
<trkpt lat="54.353799" lon="-3.110775"><ele>227</ele><time>2020-06-12T09:44:23Z</time><name>PT1613</name></trkpt>
<trkpt lat="54.353810" lon="-3.110776"><ele>227</ele><time>2020-06-12T09:44:24Z</time><name>PT1614</name></trkpt>
<trkpt lat="54.353820" lon="-3.110778"><ele>227</ele><time>2020-06-12T09:44:25Z</time><name>PT1615</name></trkpt>
<trkpt lat="54.353831" lon="-3.110780"><ele>227</ele><time>2020-06-12T09:44:26Z</time><name>PT1616</name></trkpt>
<trkpt lat="54.353841" lon="-3.110782"><ele>227</ele><time>2020-06-12T09:44:27Z</time><name>PT1617</name></trkpt>
<trkpt lat="54.353851" lon="-3.110781"><ele>228</ele><time>2020-06-12T09:44:28Z</time><name>PT1618</name></trkpt>
<trkpt lat="54.353862" lon="-3.110781"><ele>228</ele><time>2020-06-12T09:44:29Z</time><name>PT1619</name></trkpt>
<trkpt lat="54.353872" lon="-3.110779"><ele>228</ele><time>2020-06-12T09:44:30Z</time><name>PT1620</name></trkpt>
<trkpt lat="54.353884" lon="-3.110779"><ele>228</ele><time>2020-06-12T09:44:31Z</time><name>PT1621</name></trkpt>
<trkpt lat="54.353897" lon="-3.110780"><ele>228</ele><time>2020-06-12T09:44:32Z</time><name>PT1622</name></trkpt>
<trkpt lat="54.353907" lon="-3.110782"><ele>228</ele><time>2020-06-12T09:44:33Z</time><name>PT1623</name></trkpt>
<trkpt lat="54.353916" lon="-3.110785"><ele>228</ele><time>2020-06-12T09:44:34Z</time><name>PT1624</name></trkpt>
<trkpt lat="54.353927" lon="-3.110790"><ele>228</ele><time>2020-06-12T09:44:35Z</time><name>PT1625</name></trkpt>
<trkpt lat="54.353938" lon="-3.110795"><ele>229</ele><time>2020-06-12T09:44:36Z</time><name>PT1626</name></trkpt>
<trkpt lat="54.353944" lon="-3.110804"><ele>228</ele><time>2020-06-12T09:44:37Z</time><name>PT1627</name></trkpt>
<trkpt lat="54.353949" lon="-3.110814"><ele>228</ele><time>2020-06-12T09:44:38Z</time><name>PT1628</name></trkpt>
<trkpt lat="54.353956" lon="-3.110826"><ele>228</ele><time>2020-06-12T09:44:39Z</time><name>PT1629</name></trkpt>
<trkpt lat="54.353962" lon="-3.110839"><ele>228</ele><time>2020-06-12T09:44:40Z</time><name>PT1630</name></trkpt>
<trkpt lat="54.353968" lon="-3.110851"><ele>229</ele><time>2020-06-12T09:44:41Z</time><name>PT1631</name></trkpt>
<trkpt lat="54.353971" lon="-3.110864"><ele>229</ele><time>2020-06-12T09:44:42Z</time><name>PT1632</name></trkpt>
<trkpt lat="54.353973" lon="-3.110876"><ele>229</ele><time>2020-06-12T09:44:43Z</time><name>PT1633</name></trkpt>
<trkpt lat="54.353975" lon="-3.110888"><ele>229</ele><time>2020-06-12T09:44:44Z</time><name>PT1634</name></trkpt>
<trkpt lat="54.353979" lon="-3.110898"><ele>230</ele><time>2020-06-12T09:44:45Z</time><name>PT1635</name></trkpt>
<trkpt lat="54.353982" lon="-3.110909"><ele>230</ele><time>2020-06-12T09:44:46Z</time><name>PT1636</name></trkpt>
<trkpt lat="54.353988" lon="-3.110916"><ele>231</ele><time>2020-06-12T09:44:47Z</time><name>PT1637</name></trkpt>
<trkpt lat="54.353993" lon="-3.110927"><ele>230</ele><time>2020-06-12T09:44:48Z</time><name>PT1638</name></trkpt>
<trkpt lat="54.353997" lon="-3.110944"><ele>230</ele><time>2020-06-12T09:44:49Z</time><name>PT1639</name></trkpt>
<trkpt lat="54.354002" lon="-3.110957"><ele>229</ele><time>2020-06-12T09:44:50Z</time><name>PT1640</name></trkpt>
<trkpt lat="54.354007" lon="-3.110973"><ele>229</ele><time>2020-06-12T09:44:51Z</time><name>PT1641</name></trkpt>
<trkpt lat="54.354011" lon="-3.110985"><ele>229</ele><time>2020-06-12T09:44:52Z</time><name>PT1642</name></trkpt>
<trkpt lat="54.354016" lon="-3.110998"><ele>230</ele><time>2020-06-12T09:44:53Z</time><name>PT1643</name></trkpt>
<trkpt lat="54.354021" lon="-3.111010"><ele>230</ele><time>2020-06-12T09:44:54Z</time><name>PT1644</name></trkpt>
<trkpt lat="54.354026" lon="-3.111024"><ele>230</ele><time>2020-06-12T09:44:55Z</time><name>PT1645</name></trkpt>
<trkpt lat="54.354031" lon="-3.111036"><ele>231</ele><time>2020-06-12T09:44:56Z</time><name>PT1646</name></trkpt>
<trkpt lat="54.354033" lon="-3.111054"><ele>230</ele><time>2020-06-12T09:44:57Z</time><name>PT1647</name></trkpt>
<trkpt lat="54.354037" lon="-3.111070"><ele>230</ele><time>2020-06-12T09:44:58Z</time><name>PT1648</name></trkpt>
<trkpt lat="54.354044" lon="-3.111084"><ele>230</ele><time>2020-06-12T09:44:59Z</time><name>PT1649</name></trkpt>
<trkpt lat="54.354051" lon="-3.111097"><ele>230</ele><time>2020-06-12T09:45:00Z</time><name>PT1650</name></trkpt>
<trkpt lat="54.354058" lon="-3.111110"><ele>231</ele><time>2020-06-12T09:45:01Z</time><name>PT1651</name></trkpt>
<trkpt lat="54.354066" lon="-3.111126"><ele>231</ele><time>2020-06-12T09:45:02Z</time><name>PT1652</name></trkpt>
<trkpt lat="54.354070" lon="-3.111141"><ele>231</ele><time>2020-06-12T09:45:03Z</time><name>PT1653</name></trkpt>
<trkpt lat="54.354074" lon="-3.111155"><ele>231</ele><time>2020-06-12T09:45:04Z</time><name>PT1654</name></trkpt>
<trkpt lat="54.354078" lon="-3.111166"><ele>231</ele><time>2020-06-12T09:45:05Z</time><name>PT1655</name></trkpt>
<trkpt lat="54.354083" lon="-3.111181"><ele>231</ele><time>2020-06-12T09:45:06Z</time><name>PT1656</name></trkpt>
<trkpt lat="54.354090" lon="-3.111198"><ele>232</ele><time>2020-06-12T09:45:07Z</time><name>PT1657</name></trkpt>
<trkpt lat="54.354093" lon="-3.111210"><ele>232</ele><time>2020-06-12T09:45:08Z</time><name>PT1658</name></trkpt>
<trkpt lat="54.354096" lon="-3.111224"><ele>232</ele><time>2020-06-12T09:45:09Z</time><name>PT1659</name></trkpt>
<trkpt lat="54.354096" lon="-3.111236"><ele>232</ele><time>2020-06-12T09:45:10Z</time><name>PT1660</name></trkpt>
<trkpt lat="54.354096" lon="-3.111251"><ele>232</ele><time>2020-06-12T09:45:11Z</time><name>PT1661</name></trkpt>
<trkpt lat="54.354097" lon="-3.111261"><ele>232</ele><time>2020-06-12T09:45:12Z</time><name>PT1662</name></trkpt>
<trkpt lat="54.354101" lon="-3.111273"><ele>232</ele><time>2020-06-12T09:45:13Z</time><name>PT1663</name></trkpt>
<trkpt lat="54.354103" lon="-3.111286"><ele>233</ele><time>2020-06-12T09:45:14Z</time><name>PT1664</name></trkpt>
<trkpt lat="54.354105" lon="-3.111301"><ele>233</ele><time>2020-06-12T09:45:15Z</time><name>PT1665</name></trkpt>
<trkpt lat="54.354107" lon="-3.111307"><ele>232</ele><time>2020-06-12T09:45:16Z</time><name>PT1666</name></trkpt>
<trkpt lat="54.354111" lon="-3.111315"><ele>232</ele><time>2020-06-12T09:45:17Z</time><name>PT1667</name></trkpt>
<trkpt lat="54.354112" lon="-3.111326"><ele>232</ele><time>2020-06-12T09:45:18Z</time><name>PT1668</name></trkpt>
<trkpt lat="54.354115" lon="-3.111338"><ele>232</ele><time>2020-06-12T09:45:19Z</time><name>PT1669</name></trkpt>
<trkpt lat="54.354119" lon="-3.111357"><ele>233</ele><time>2020-06-12T09:45:20Z</time><name>PT1670</name></trkpt>
<trkpt lat="54.354119" lon="-3.111371"><ele>233</ele><time>2020-06-12T09:45:21Z</time><name>PT1671</name></trkpt>
<trkpt lat="54.354123" lon="-3.111385"><ele>234</ele><time>2020-06-12T09:45:22Z</time><name>PT1672</name></trkpt>
<trkpt lat="54.354123" lon="-3.111396"><ele>234</ele><time>2020-06-12T09:45:23Z</time><name>PT1673</name></trkpt>
<trkpt lat="54.354127" lon="-3.111410"><ele>234</ele><time>2020-06-12T09:45:24Z</time><name>PT1674</name></trkpt>
<trkpt lat="54.354134" lon="-3.111423"><ele>234</ele><time>2020-06-12T09:45:25Z</time><name>PT1675</name></trkpt>
<trkpt lat="54.354137" lon="-3.111435"><ele>234</ele><time>2020-06-12T09:45:26Z</time><name>PT1676</name></trkpt>
<trkpt lat="54.354141" lon="-3.111446"><ele>235</ele><time>2020-06-12T09:45:27Z</time><name>PT1677</name></trkpt>
<trkpt lat="54.354148" lon="-3.111466"><ele>235</ele><time>2020-06-12T09:45:28Z</time><name>PT1678</name></trkpt>
<trkpt lat="54.354151" lon="-3.111481"><ele>235</ele><time>2020-06-12T09:45:29Z</time><name>PT1679</name></trkpt>
<trkpt lat="54.354155" lon="-3.111497"><ele>235</ele><time>2020-06-12T09:45:30Z</time><name>PT1680</name></trkpt>
<trkpt lat="54.354161" lon="-3.111512"><ele>235</ele><time>2020-06-12T09:45:31Z</time><name>PT1681</name></trkpt>
<trkpt lat="54.354165" lon="-3.111524"><ele>235</ele><time>2020-06-12T09:45:32Z</time><name>PT1682</name></trkpt>
<trkpt lat="54.354173" lon="-3.111541"><ele>235</ele><time>2020-06-12T09:45:33Z</time><name>PT1683</name></trkpt>
<trkpt lat="54.354177" lon="-3.111552"><ele>235</ele><time>2020-06-12T09:45:34Z</time><name>PT1684</name></trkpt>
<trkpt lat="54.354180" lon="-3.111562"><ele>235</ele><time>2020-06-12T09:45:35Z</time><name>PT1685</name></trkpt>
<trkpt lat="54.354181" lon="-3.111574"><ele>236</ele><time>2020-06-12T09:45:36Z</time><name>PT1686</name></trkpt>
<trkpt lat="54.354181" lon="-3.111592"><ele>235</ele><time>2020-06-12T09:45:37Z</time><name>PT1687</name></trkpt>
<trkpt lat="54.354184" lon="-3.111608"><ele>236</ele><time>2020-06-12T09:45:38Z</time><name>PT1688</name></trkpt>
<trkpt lat="54.354188" lon="-3.111623"><ele>236</ele><time>2020-06-12T09:45:39Z</time><name>PT1689</name></trkpt>
<trkpt lat="54.354192" lon="-3.111636"><ele>236</ele><time>2020-06-12T09:45:40Z</time><name>PT1690</name></trkpt>
<trkpt lat="54.354197" lon="-3.111651"><ele>236</ele><time>2020-06-12T09:45:41Z</time><name>PT1691</name></trkpt>
<trkpt lat="54.354201" lon="-3.111668"><ele>237</ele><time>2020-06-12T09:45:42Z</time><name>PT1692</name></trkpt>
<trkpt lat="54.354206" lon="-3.111686"><ele>237</ele><time>2020-06-12T09:45:43Z</time><name>PT1693</name></trkpt>
<trkpt lat="54.354205" lon="-3.111699"><ele>237</ele><time>2020-06-12T09:45:44Z</time><name>PT1694</name></trkpt>
<trkpt lat="54.354208" lon="-3.111712"><ele>237</ele><time>2020-06-12T09:45:45Z</time><name>PT1695</name></trkpt>
<trkpt lat="54.354211" lon="-3.111725"><ele>237</ele><time>2020-06-12T09:45:46Z</time><name>PT1696</name></trkpt>
<trkpt lat="54.354216" lon="-3.111738"><ele>237</ele><time>2020-06-12T09:45:47Z</time><name>PT1697</name></trkpt>
<trkpt lat="54.354221" lon="-3.111753"><ele>237</ele><time>2020-06-12T09:45:48Z</time><name>PT1698</name></trkpt>
<trkpt lat="54.354227" lon="-3.111770"><ele>237</ele><time>2020-06-12T09:45:49Z</time><name>PT1699</name></trkpt>
<trkpt lat="54.354234" lon="-3.111781"><ele>237</ele><time>2020-06-12T09:45:50Z</time><name>PT1700</name></trkpt>
<trkpt lat="54.354244" lon="-3.111790"><ele>237</ele><time>2020-06-12T09:45:51Z</time><name>PT1701</name></trkpt>
<trkpt lat="54.354253" lon="-3.111801"><ele>237</ele><time>2020-06-12T09:45:52Z</time><name>PT1702</name></trkpt>
<trkpt lat="54.354260" lon="-3.111813"><ele>237</ele><time>2020-06-12T09:45:53Z</time><name>PT1703</name></trkpt>
<trkpt lat="54.354264" lon="-3.111820"><ele>237</ele><time>2020-06-12T09:45:54Z</time><name>PT1704</name></trkpt>
<trkpt lat="54.354270" lon="-3.111831"><ele>237</ele><time>2020-06-12T09:45:55Z</time><name>PT1705</name></trkpt>
<trkpt lat="54.354277" lon="-3.111841"><ele>238</ele><time>2020-06-12T09:45:56Z</time><name>PT1706</name></trkpt>
<trkpt lat="54.354285" lon="-3.111849"><ele>238</ele><time>2020-06-12T09:45:57Z</time><name>PT1707</name></trkpt>
<trkpt lat="54.354293" lon="-3.111855"><ele>238</ele><time>2020-06-12T09:45:58Z</time><name>PT1708</name></trkpt>
<trkpt lat="54.354303" lon="-3.111857"><ele>238</ele><time>2020-06-12T09:45:59Z</time><name>PT1709</name></trkpt>
<trkpt lat="54.354312" lon="-3.111858"><ele>238</ele><time>2020-06-12T09:46:00Z</time><name>PT1710</name></trkpt>
<trkpt lat="54.354323" lon="-3.111858"><ele>238</ele><time>2020-06-12T09:46:01Z</time><name>PT1711</name></trkpt>
<trkpt lat="54.354334" lon="-3.111860"><ele>239</ele><time>2020-06-12T09:46:02Z</time><name>PT1712</name></trkpt>
<trkpt lat="54.354345" lon="-3.111863"><ele>239</ele><time>2020-06-12T09:46:03Z</time><name>PT1713</name></trkpt>
<trkpt lat="54.354354" lon="-3.111866"><ele>239</ele><time>2020-06-12T09:46:04Z</time><name>PT1714</name></trkpt>
<trkpt lat="54.354364" lon="-3.111866"><ele>239</ele><time>2020-06-12T09:46:05Z</time><name>PT1715</name></trkpt>
<trkpt lat="54.354380" lon="-3.111865"><ele>240</ele><time>2020-06-12T09:46:06Z</time><name>PT1716</name></trkpt>
<trkpt lat="54.354391" lon="-3.111862"><ele>240</ele><time>2020-06-12T09:46:07Z</time><name>PT1717</name></trkpt>
<trkpt lat="54.354402" lon="-3.111859"><ele>240</ele><time>2020-06-12T09:46:08Z</time><name>PT1718</name></trkpt>
<trkpt lat="54.354413" lon="-3.111854"><ele>241</ele><time>2020-06-12T09:46:09Z</time><name>PT1719</name></trkpt>
<trkpt lat="54.354423" lon="-3.111848"><ele>241</ele><time>2020-06-12T09:46:10Z</time><name>PT1720</name></trkpt>
<trkpt lat="54.354434" lon="-3.111841"><ele>241</ele><time>2020-06-12T09:46:11Z</time><name>PT1721</name></trkpt>
<trkpt lat="54.354446" lon="-3.111833"><ele>241</ele><time>2020-06-12T09:46:12Z</time><name>PT1722</name></trkpt>
<trkpt lat="54.354456" lon="-3.111826"><ele>241</ele><time>2020-06-12T09:46:13Z</time><name>PT1723</name></trkpt>
<trkpt lat="54.354469" lon="-3.111820"><ele>241</ele><time>2020-06-12T09:46:14Z</time><name>PT1724</name></trkpt>
<trkpt lat="54.354480" lon="-3.111812"><ele>241</ele><time>2020-06-12T09:46:15Z</time><name>PT1725</name></trkpt>
<trkpt lat="54.354491" lon="-3.111806"><ele>241</ele><time>2020-06-12T09:46:16Z</time><name>PT1726</name></trkpt>
<trkpt lat="54.354501" lon="-3.111801"><ele>242</ele><time>2020-06-12T09:46:17Z</time><name>PT1727</name></trkpt>
<trkpt lat="54.354511" lon="-3.111795"><ele>242</ele><time>2020-06-12T09:46:18Z</time><name>PT1728</name></trkpt>
<trkpt lat="54.354522" lon="-3.111790"><ele>242</ele><time>2020-06-12T09:46:19Z</time><name>PT1729</name></trkpt>
<trkpt lat="54.354534" lon="-3.111784"><ele>242</ele><time>2020-06-12T09:46:20Z</time><name>PT1730</name></trkpt>
<trkpt lat="54.354548" lon="-3.111780"><ele>242</ele><time>2020-06-12T09:46:21Z</time><name>PT1731</name></trkpt>
<trkpt lat="54.354557" lon="-3.111775"><ele>242</ele><time>2020-06-12T09:46:22Z</time><name>PT1732</name></trkpt>
<trkpt lat="54.354568" lon="-3.111770"><ele>242</ele><time>2020-06-12T09:46:23Z</time><name>PT1733</name></trkpt>
<trkpt lat="54.354580" lon="-3.111764"><ele>242</ele><time>2020-06-12T09:46:24Z</time><name>PT1734</name></trkpt>
<trkpt lat="54.354588" lon="-3.111759"><ele>242</ele><time>2020-06-12T09:46:25Z</time><name>PT1735</name></trkpt>
<trkpt lat="54.354598" lon="-3.111756"><ele>242</ele><time>2020-06-12T09:46:26Z</time><name>PT1736</name></trkpt>
<trkpt lat="54.354610" lon="-3.111753"><ele>242</ele><time>2020-06-12T09:46:27Z</time><name>PT1737</name></trkpt>
<trkpt lat="54.354619" lon="-3.111747"><ele>242</ele><time>2020-06-12T09:46:28Z</time><name>PT1738</name></trkpt>
<trkpt lat="54.354628" lon="-3.111737"><ele>242</ele><time>2020-06-12T09:46:29Z</time><name>PT1739</name></trkpt>
<trkpt lat="54.354637" lon="-3.111730"><ele>242</ele><time>2020-06-12T09:46:31Z</time><name>PT1740</name></trkpt>
<trkpt lat="54.354647" lon="-3.111726"><ele>242</ele><time>2020-06-12T09:46:31Z</time><name>PT1741</name></trkpt>
<trkpt lat="54.354662" lon="-3.111724"><ele>243</ele><time>2020-06-12T09:46:32Z</time><name>PT1742</name></trkpt>
<trkpt lat="54.354672" lon="-3.111724"><ele>243</ele><time>2020-06-12T09:46:33Z</time><name>PT1743</name></trkpt>
<trkpt lat="54.354683" lon="-3.111723"><ele>243</ele><time>2020-06-12T09:46:34Z</time><name>PT1744</name></trkpt>
<trkpt lat="54.354691" lon="-3.111719"><ele>243</ele><time>2020-06-12T09:46:35Z</time><name>PT1745</name></trkpt>
<trkpt lat="54.354702" lon="-3.111716"><ele>244</ele><time>2020-06-12T09:46:36Z</time><name>PT1746</name></trkpt>
<trkpt lat="54.354710" lon="-3.111718"><ele>243</ele><time>2020-06-12T09:46:37Z</time><name>PT1747</name></trkpt>
<trkpt lat="54.354720" lon="-3.111722"><ele>243</ele><time>2020-06-12T09:46:38Z</time><name>PT1748</name></trkpt>
<trkpt lat="54.354726" lon="-3.111723"><ele>243</ele><time>2020-06-12T09:46:39Z</time><name>PT1749</name></trkpt>
<trkpt lat="54.354735" lon="-3.111723"><ele>244</ele><time>2020-06-12T09:46:40Z</time><name>PT1750</name></trkpt>
<trkpt lat="54.354743" lon="-3.111725"><ele>244</ele><time>2020-06-12T09:46:41Z</time><name>PT1751</name></trkpt>
<trkpt lat="54.354745" lon="-3.111728"><ele>243</ele><time>2020-06-12T09:46:42Z</time><name>PT1752</name></trkpt>
<trkpt lat="54.354751" lon="-3.111730"><ele>243</ele><time>2020-06-12T09:46:43Z</time><name>PT1753</name></trkpt>
<trkpt lat="54.354757" lon="-3.111734"><ele>244</ele><time>2020-06-12T09:46:44Z</time><name>PT1754</name></trkpt>
<trkpt lat="54.354762" lon="-3.111736"><ele>244</ele><time>2020-06-12T09:46:45Z</time><name>PT1755</name></trkpt>
<trkpt lat="54.354768" lon="-3.111738"><ele>244</ele><time>2020-06-12T09:46:46Z</time><name>PT1756</name></trkpt>
<trkpt lat="54.354767" lon="-3.111737"><ele>243</ele><time>2020-06-12T09:46:47Z</time><name>PT1757</name></trkpt>
<trkpt lat="54.354764" lon="-3.111738"><ele>243</ele><time>2020-06-12T09:46:48Z</time><name>PT1758</name></trkpt>
<trkpt lat="54.354766" lon="-3.111738"><ele>243</ele><time>2020-06-12T09:46:49Z</time><name>PT1759</name></trkpt>
<trkpt lat="54.354771" lon="-3.111738"><ele>243</ele><time>2020-06-12T09:46:50Z</time><name>PT1760</name></trkpt>
<trkpt lat="54.354778" lon="-3.111740"><ele>243</ele><time>2020-06-12T09:46:51Z</time><name>PT1761</name></trkpt>
<trkpt lat="54.354787" lon="-3.111747"><ele>243</ele><time>2020-06-12T09:46:52Z</time><name>PT1762</name></trkpt>
<trkpt lat="54.354795" lon="-3.111755"><ele>243</ele><time>2020-06-12T09:46:53Z</time><name>PT1763</name></trkpt>
<trkpt lat="54.354799" lon="-3.111762"><ele>243</ele><time>2020-06-12T09:46:54Z</time><name>PT1764</name></trkpt>
<trkpt lat="54.354802" lon="-3.111766"><ele>243</ele><time>2020-06-12T09:46:55Z</time><name>PT1765</name></trkpt>
<trkpt lat="54.354807" lon="-3.111770"><ele>243</ele><time>2020-06-12T09:46:56Z</time><name>PT1766</name></trkpt>
<trkpt lat="54.354810" lon="-3.111774"><ele>243</ele><time>2020-06-12T09:46:57Z</time><name>PT1767</name></trkpt>
<trkpt lat="54.354809" lon="-3.111775"><ele>243</ele><time>2020-06-12T09:46:58Z</time><name>PT1768</name></trkpt>
<trkpt lat="54.354809" lon="-3.111775"><ele>243</ele><time>2020-06-12T09:46:59Z</time><name>PT1769</name></trkpt>
<trkpt lat="54.354810" lon="-3.111775"><ele>243</ele><time>2020-06-12T09:47:00Z</time><name>PT1770</name></trkpt>
<trkpt lat="54.354814" lon="-3.111780"><ele>243</ele><time>2020-06-12T09:47:04Z</time><name>PT1771</name></trkpt>
<trkpt lat="54.354819" lon="-3.111784"><ele>243</ele><time>2020-06-12T09:47:05Z</time><name>PT1772</name></trkpt>
<trkpt lat="54.354828" lon="-3.111793"><ele>244</ele><time>2020-06-12T09:47:06Z</time><name>PT1773</name></trkpt>
<trkpt lat="54.354836" lon="-3.111802"><ele>244</ele><time>2020-06-12T09:47:07Z</time><name>PT1774</name></trkpt>
<trkpt lat="54.354841" lon="-3.111809"><ele>244</ele><time>2020-06-12T09:47:08Z</time><name>PT1775</name></trkpt>
<trkpt lat="54.354850" lon="-3.111818"><ele>244</ele><time>2020-06-12T09:47:09Z</time><name>PT1776</name></trkpt>
<trkpt lat="54.354857" lon="-3.111825"><ele>244</ele><time>2020-06-12T09:47:10Z</time><name>PT1777</name></trkpt>
<trkpt lat="54.354862" lon="-3.111837"><ele>244</ele><time>2020-06-12T09:47:11Z</time><name>PT1778</name></trkpt>
<trkpt lat="54.354869" lon="-3.111849"><ele>244</ele><time>2020-06-12T09:47:12Z</time><name>PT1779</name></trkpt>
<trkpt lat="54.354874" lon="-3.111858"><ele>244</ele><time>2020-06-12T09:47:13Z</time><name>PT1780</name></trkpt>
<trkpt lat="54.354876" lon="-3.111873"><ele>244</ele><time>2020-06-12T09:47:14Z</time><name>PT1781</name></trkpt>
<trkpt lat="54.354879" lon="-3.111887"><ele>244</ele><time>2020-06-12T09:47:15Z</time><name>PT1782</name></trkpt>
<trkpt lat="54.354883" lon="-3.111902"><ele>244</ele><time>2020-06-12T09:47:16Z</time><name>PT1783</name></trkpt>
<trkpt lat="54.354886" lon="-3.111913"><ele>244</ele><time>2020-06-12T09:47:17Z</time><name>PT1784</name></trkpt>
<trkpt lat="54.354888" lon="-3.111927"><ele>244</ele><time>2020-06-12T09:47:18Z</time><name>PT1785</name></trkpt>
<trkpt lat="54.354892" lon="-3.111940"><ele>245</ele><time>2020-06-12T09:47:19Z</time><name>PT1786</name></trkpt>
<trkpt lat="54.354894" lon="-3.111951"><ele>245</ele><time>2020-06-12T09:47:20Z</time><name>PT1787</name></trkpt>
<trkpt lat="54.354896" lon="-3.111964"><ele>245</ele><time>2020-06-12T09:47:21Z</time><name>PT1788</name></trkpt>
<trkpt lat="54.354899" lon="-3.111981"><ele>245</ele><time>2020-06-12T09:47:22Z</time><name>PT1789</name></trkpt>
<trkpt lat="54.354901" lon="-3.112000"><ele>245</ele><time>2020-06-12T09:47:23Z</time><name>PT1790</name></trkpt>
<trkpt lat="54.354906" lon="-3.112017"><ele>245</ele><time>2020-06-12T09:47:24Z</time><name>PT1791</name></trkpt>
<trkpt lat="54.354909" lon="-3.112030"><ele>245</ele><time>2020-06-12T09:47:25Z</time><name>PT1792</name></trkpt>
<trkpt lat="54.354908" lon="-3.112043"><ele>245</ele><time>2020-06-12T09:47:26Z</time><name>PT1793</name></trkpt>
<trkpt lat="54.354908" lon="-3.112056"><ele>245</ele><time>2020-06-12T09:47:27Z</time><name>PT1794</name></trkpt>
<trkpt lat="54.354911" lon="-3.112068"><ele>245</ele><time>2020-06-12T09:47:28Z</time><name>PT1795</name></trkpt>
<trkpt lat="54.354910" lon="-3.112081"><ele>245</ele><time>2020-06-12T09:47:29Z</time><name>PT1796</name></trkpt>
<trkpt lat="54.354907" lon="-3.112090"><ele>245</ele><time>2020-06-12T09:47:30Z</time><name>PT1797</name></trkpt>
<trkpt lat="54.354906" lon="-3.112098"><ele>246</ele><time>2020-06-12T09:47:31Z</time><name>PT1798</name></trkpt>
<trkpt lat="54.354905" lon="-3.112102"><ele>246</ele><time>2020-06-12T09:47:32Z</time><name>PT1799</name></trkpt>
<trkpt lat="54.354902" lon="-3.112110"><ele>245</ele><time>2020-06-12T09:47:33Z</time><name>PT1800</name></trkpt>
<trkpt lat="54.354900" lon="-3.112119"><ele>245</ele><time>2020-06-12T09:47:34Z</time><name>PT1801</name></trkpt>
<trkpt lat="54.354898" lon="-3.112125"><ele>245</ele><time>2020-06-12T09:47:35Z</time><name>PT1802</name></trkpt>
<trkpt lat="54.354900" lon="-3.112128"><ele>245</ele><time>2020-06-12T09:47:36Z</time><name>PT1803</name></trkpt>
<trkpt lat="54.354901" lon="-3.112130"><ele>245</ele><time>2020-06-12T09:47:37Z</time><name>PT1804</name></trkpt>
<trkpt lat="54.354905" lon="-3.112139"><ele>245</ele><time>2020-06-12T09:47:41Z</time><name>PT1805</name></trkpt>
<trkpt lat="54.354908" lon="-3.112153"><ele>245</ele><time>2020-06-12T09:47:42Z</time><name>PT1806</name></trkpt>
<trkpt lat="54.354914" lon="-3.112176"><ele>246</ele><time>2020-06-12T09:47:43Z</time><name>PT1807</name></trkpt>
<trkpt lat="54.354918" lon="-3.112204"><ele>246</ele><time>2020-06-12T09:47:44Z</time><name>PT1808</name></trkpt>
<trkpt lat="54.354918" lon="-3.112224"><ele>246</ele><time>2020-06-12T09:47:45Z</time><name>PT1809</name></trkpt>
<trkpt lat="54.354919" lon="-3.112251"><ele>246</ele><time>2020-06-12T09:47:46Z</time><name>PT1810</name></trkpt>
<trkpt lat="54.354924" lon="-3.112276"><ele>247</ele><time>2020-06-12T09:47:47Z</time><name>PT1811</name></trkpt>
<trkpt lat="54.354926" lon="-3.112291"><ele>247</ele><time>2020-06-12T09:47:48Z</time><name>PT1812</name></trkpt>
<trkpt lat="54.354930" lon="-3.112313"><ele>247</ele><time>2020-06-12T09:47:49Z</time><name>PT1813</name></trkpt>
<trkpt lat="54.354931" lon="-3.112331"><ele>247</ele><time>2020-06-12T09:47:50Z</time><name>PT1814</name></trkpt>
<trkpt lat="54.354932" lon="-3.112350"><ele>247</ele><time>2020-06-12T09:47:51Z</time><name>PT1815</name></trkpt>
<trkpt lat="54.354934" lon="-3.112372"><ele>247</ele><time>2020-06-12T09:47:52Z</time><name>PT1816</name></trkpt>
<trkpt lat="54.354935" lon="-3.112391"><ele>247</ele><time>2020-06-12T09:47:53Z</time><name>PT1817</name></trkpt>
<trkpt lat="54.354938" lon="-3.112411"><ele>247</ele><time>2020-06-12T09:47:54Z</time><name>PT1818</name></trkpt>
<trkpt lat="54.354942" lon="-3.112434"><ele>247</ele><time>2020-06-12T09:47:55Z</time><name>PT1819</name></trkpt>
<trkpt lat="54.354943" lon="-3.112451"><ele>247</ele><time>2020-06-12T09:47:56Z</time><name>PT1820</name></trkpt>
<trkpt lat="54.354941" lon="-3.112466"><ele>247</ele><time>2020-06-12T09:47:57Z</time><name>PT1821</name></trkpt>
<trkpt lat="54.354942" lon="-3.112483"><ele>247</ele><time>2020-06-12T09:47:58Z</time><name>PT1822</name></trkpt>
<trkpt lat="54.354944" lon="-3.112501"><ele>247</ele><time>2020-06-12T09:47:59Z</time><name>PT1823</name></trkpt>
<trkpt lat="54.354947" lon="-3.112522"><ele>247</ele><time>2020-06-12T09:48:00Z</time><name>PT1824</name></trkpt>
<trkpt lat="54.354950" lon="-3.112540"><ele>248</ele><time>2020-06-12T09:48:01Z</time><name>PT1825</name></trkpt>
<trkpt lat="54.354952" lon="-3.112560"><ele>247</ele><time>2020-06-12T09:48:02Z</time><name>PT1826</name></trkpt>
<trkpt lat="54.354956" lon="-3.112579"><ele>247</ele><time>2020-06-12T09:48:03Z</time><name>PT1827</name></trkpt>
<trkpt lat="54.354960" lon="-3.112598"><ele>247</ele><time>2020-06-12T09:48:04Z</time><name>PT1828</name></trkpt>
<trkpt lat="54.354966" lon="-3.112621"><ele>247</ele><time>2020-06-12T09:48:05Z</time><name>PT1829</name></trkpt>
<trkpt lat="54.354967" lon="-3.112639"><ele>247</ele><time>2020-06-12T09:48:06Z</time><name>PT1830</name></trkpt>
<trkpt lat="54.354969" lon="-3.112659"><ele>247</ele><time>2020-06-12T09:48:07Z</time><name>PT1831</name></trkpt>
<trkpt lat="54.354973" lon="-3.112677"><ele>247</ele><time>2020-06-12T09:48:08Z</time><name>PT1832</name></trkpt>
<trkpt lat="54.354977" lon="-3.112693"><ele>247</ele><time>2020-06-12T09:48:09Z</time><name>PT1833</name></trkpt>
<trkpt lat="54.354978" lon="-3.112714"><ele>247</ele><time>2020-06-12T09:48:10Z</time><name>PT1834</name></trkpt>
<trkpt lat="54.354978" lon="-3.112733"><ele>247</ele><time>2020-06-12T09:48:11Z</time><name>PT1835</name></trkpt>
<trkpt lat="54.354977" lon="-3.112751"><ele>248</ele><time>2020-06-12T09:48:12Z</time><name>PT1836</name></trkpt>
<trkpt lat="54.354975" lon="-3.112769"><ele>248</ele><time>2020-06-12T09:48:13Z</time><name>PT1837</name></trkpt>
<trkpt lat="54.354978" lon="-3.112788"><ele>248</ele><time>2020-06-12T09:48:14Z</time><name>PT1838</name></trkpt>
<trkpt lat="54.354979" lon="-3.112808"><ele>248</ele><time>2020-06-12T09:48:15Z</time><name>PT1839</name></trkpt>
<trkpt lat="54.354983" lon="-3.112823"><ele>248</ele><time>2020-06-12T09:48:16Z</time><name>PT1840</name></trkpt>
<trkpt lat="54.354989" lon="-3.112839"><ele>248</ele><time>2020-06-12T09:48:17Z</time><name>PT1841</name></trkpt>
<trkpt lat="54.354995" lon="-3.112860"><ele>248</ele><time>2020-06-12T09:48:18Z</time><name>PT1842</name></trkpt>
<trkpt lat="54.354998" lon="-3.112878"><ele>249</ele><time>2020-06-12T09:48:19Z</time><name>PT1843</name></trkpt>
<trkpt lat="54.355001" lon="-3.112897"><ele>249</ele><time>2020-06-12T09:48:20Z</time><name>PT1844</name></trkpt>
<trkpt lat="54.355003" lon="-3.112917"><ele>249</ele><time>2020-06-12T09:48:21Z</time><name>PT1845</name></trkpt>
<trkpt lat="54.355004" lon="-3.112933"><ele>250</ele><time>2020-06-12T09:48:22Z</time><name>PT1846</name></trkpt>
<trkpt lat="54.355004" lon="-3.112951"><ele>250</ele><time>2020-06-12T09:48:23Z</time><name>PT1847</name></trkpt>
<trkpt lat="54.355003" lon="-3.112972"><ele>250</ele><time>2020-06-12T09:48:24Z</time><name>PT1848</name></trkpt>
<trkpt lat="54.355004" lon="-3.112991"><ele>251</ele><time>2020-06-12T09:48:25Z</time><name>PT1849</name></trkpt>
<trkpt lat="54.355005" lon="-3.113010"><ele>251</ele><time>2020-06-12T09:48:26Z</time><name>PT1850</name></trkpt>
<trkpt lat="54.355007" lon="-3.113028"><ele>251</ele><time>2020-06-12T09:48:27Z</time><name>PT1851</name></trkpt>
<trkpt lat="54.355010" lon="-3.113045"><ele>252</ele><time>2020-06-12T09:48:28Z</time><name>PT1852</name></trkpt>
<trkpt lat="54.355010" lon="-3.113063"><ele>252</ele><time>2020-06-12T09:48:29Z</time><name>PT1853</name></trkpt>
<trkpt lat="54.355009" lon="-3.113081"><ele>252</ele><time>2020-06-12T09:48:30Z</time><name>PT1854</name></trkpt>
<trkpt lat="54.355009" lon="-3.113097"><ele>252</ele><time>2020-06-12T09:48:31Z</time><name>PT1855</name></trkpt>
<trkpt lat="54.355009" lon="-3.113114"><ele>252</ele><time>2020-06-12T09:48:32Z</time><name>PT1856</name></trkpt>
<trkpt lat="54.355011" lon="-3.113134"><ele>252</ele><time>2020-06-12T09:48:33Z</time><name>PT1857</name></trkpt>
<trkpt lat="54.355012" lon="-3.113149"><ele>252</ele><time>2020-06-12T09:48:34Z</time><name>PT1858</name></trkpt>
<trkpt lat="54.355013" lon="-3.113166"><ele>253</ele><time>2020-06-12T09:48:35Z</time><name>PT1859</name></trkpt>
<trkpt lat="54.355012" lon="-3.113186"><ele>253</ele><time>2020-06-12T09:48:36Z</time><name>PT1860</name></trkpt>
<trkpt lat="54.355011" lon="-3.113205"><ele>254</ele><time>2020-06-12T09:48:37Z</time><name>PT1861</name></trkpt>
<trkpt lat="54.355012" lon="-3.113222"><ele>254</ele><time>2020-06-12T09:48:38Z</time><name>PT1862</name></trkpt>
<trkpt lat="54.355014" lon="-3.113238"><ele>254</ele><time>2020-06-12T09:48:39Z</time><name>PT1863</name></trkpt>
<trkpt lat="54.355014" lon="-3.113254"><ele>254</ele><time>2020-06-12T09:48:40Z</time><name>PT1864</name></trkpt>
<trkpt lat="54.355013" lon="-3.113270"><ele>254</ele><time>2020-06-12T09:48:41Z</time><name>PT1865</name></trkpt>
<trkpt lat="54.355012" lon="-3.113290"><ele>255</ele><time>2020-06-12T09:48:42Z</time><name>PT1866</name></trkpt>
<trkpt lat="54.355011" lon="-3.113306"><ele>255</ele><time>2020-06-12T09:48:43Z</time><name>PT1867</name></trkpt>
<trkpt lat="54.355010" lon="-3.113324"><ele>255</ele><time>2020-06-12T09:48:44Z</time><name>PT1868</name></trkpt>
<trkpt lat="54.355007" lon="-3.113338"><ele>255</ele><time>2020-06-12T09:48:45Z</time><name>PT1869</name></trkpt>
<trkpt lat="54.355007" lon="-3.113353"><ele>255</ele><time>2020-06-12T09:48:46Z</time><name>PT1870</name></trkpt>
<trkpt lat="54.355009" lon="-3.113369"><ele>255</ele><time>2020-06-12T09:48:47Z</time><name>PT1871</name></trkpt>
<trkpt lat="54.355010" lon="-3.113386"><ele>256</ele><time>2020-06-12T09:48:48Z</time><name>PT1872</name></trkpt>
<trkpt lat="54.355012" lon="-3.113406"><ele>256</ele><time>2020-06-12T09:48:49Z</time><name>PT1873</name></trkpt>
<trkpt lat="54.355013" lon="-3.113424"><ele>256</ele><time>2020-06-12T09:48:50Z</time><name>PT1874</name></trkpt>
<trkpt lat="54.355013" lon="-3.113446"><ele>256</ele><time>2020-06-12T09:48:51Z</time><name>PT1875</name></trkpt>
<trkpt lat="54.355014" lon="-3.113463"><ele>256</ele><time>2020-06-12T09:48:52Z</time><name>PT1876</name></trkpt>
<trkpt lat="54.355012" lon="-3.113478"><ele>256</ele><time>2020-06-12T09:48:53Z</time><name>PT1877</name></trkpt>
<trkpt lat="54.355009" lon="-3.113496"><ele>257</ele><time>2020-06-12T09:48:54Z</time><name>PT1878</name></trkpt>
<trkpt lat="54.355008" lon="-3.113511"><ele>257</ele><time>2020-06-12T09:48:55Z</time><name>PT1879</name></trkpt>
<trkpt lat="54.355006" lon="-3.113523"><ele>256</ele><time>2020-06-12T09:48:56Z</time><name>PT1880</name></trkpt>
<trkpt lat="54.355004" lon="-3.113538"><ele>256</ele><time>2020-06-12T09:48:57Z</time><name>PT1881</name></trkpt>
<trkpt lat="54.355002" lon="-3.113556"><ele>256</ele><time>2020-06-12T09:48:58Z</time><name>PT1882</name></trkpt>
<trkpt lat="54.354999" lon="-3.113568"><ele>256</ele><time>2020-06-12T09:48:59Z</time><name>PT1883</name></trkpt>
<trkpt lat="54.354996" lon="-3.113582"><ele>257</ele><time>2020-06-12T09:49:00Z</time><name>PT1884</name></trkpt>
<trkpt lat="54.354995" lon="-3.113599"><ele>257</ele><time>2020-06-12T09:49:01Z</time><name>PT1885</name></trkpt>
<trkpt lat="54.354994" lon="-3.113614"><ele>257</ele><time>2020-06-12T09:49:02Z</time><name>PT1886</name></trkpt>
<trkpt lat="54.354994" lon="-3.113629"><ele>258</ele><time>2020-06-12T09:49:03Z</time><name>PT1887</name></trkpt>
<trkpt lat="54.354996" lon="-3.113643"><ele>258</ele><time>2020-06-12T09:49:04Z</time><name>PT1888</name></trkpt>
<trkpt lat="54.354996" lon="-3.113657"><ele>259</ele><time>2020-06-12T09:49:05Z</time><name>PT1889</name></trkpt>
<trkpt lat="54.354995" lon="-3.113672"><ele>259</ele><time>2020-06-12T09:49:06Z</time><name>PT1890</name></trkpt>
<trkpt lat="54.354994" lon="-3.113687"><ele>259</ele><time>2020-06-12T09:49:07Z</time><name>PT1891</name></trkpt>
<trkpt lat="54.354994" lon="-3.113704"><ele>259</ele><time>2020-06-12T09:49:08Z</time><name>PT1892</name></trkpt>
<trkpt lat="54.354993" lon="-3.113725"><ele>259</ele><time>2020-06-12T09:49:09Z</time><name>PT1893</name></trkpt>
<trkpt lat="54.354992" lon="-3.113742"><ele>259</ele><time>2020-06-12T09:49:10Z</time><name>PT1894</name></trkpt>
<trkpt lat="54.354991" lon="-3.113762"><ele>259</ele><time>2020-06-12T09:49:11Z</time><name>PT1895</name></trkpt>
<trkpt lat="54.354993" lon="-3.113777"><ele>259</ele><time>2020-06-12T09:49:12Z</time><name>PT1896</name></trkpt>
<trkpt lat="54.354992" lon="-3.113791"><ele>259</ele><time>2020-06-12T09:49:13Z</time><name>PT1897</name></trkpt>
<trkpt lat="54.354990" lon="-3.113805"><ele>260</ele><time>2020-06-12T09:49:14Z</time><name>PT1898</name></trkpt>
<trkpt lat="54.354992" lon="-3.113820"><ele>260</ele><time>2020-06-12T09:49:15Z</time><name>PT1899</name></trkpt>
<trkpt lat="54.354992" lon="-3.113834"><ele>260</ele><time>2020-06-12T09:49:16Z</time><name>PT1900</name></trkpt>
<trkpt lat="54.354993" lon="-3.113846"><ele>261</ele><time>2020-06-12T09:49:17Z</time><name>PT1901</name></trkpt>
<trkpt lat="54.354996" lon="-3.113860"><ele>261</ele><time>2020-06-12T09:49:18Z</time><name>PT1902</name></trkpt>
<trkpt lat="54.355000" lon="-3.113876"><ele>262</ele><time>2020-06-12T09:49:19Z</time><name>PT1903</name></trkpt>
<trkpt lat="54.355002" lon="-3.113895"><ele>262</ele><time>2020-06-12T09:49:20Z</time><name>PT1904</name></trkpt>
<trkpt lat="54.355008" lon="-3.113907"><ele>263</ele><time>2020-06-12T09:49:21Z</time><name>PT1905</name></trkpt>
<trkpt lat="54.355010" lon="-3.113908"><ele>262</ele><time>2020-06-12T09:49:22Z</time><name>PT1906</name></trkpt>
<trkpt lat="54.355014" lon="-3.113911"><ele>262</ele><time>2020-06-12T09:49:23Z</time><name>PT1907</name></trkpt>
<trkpt lat="54.355019" lon="-3.113917"><ele>262</ele><time>2020-06-12T09:49:24Z</time><name>PT1908</name></trkpt>
<trkpt lat="54.355024" lon="-3.113920"><ele>262</ele><time>2020-06-12T09:49:25Z</time><name>PT1909</name></trkpt>
<trkpt lat="54.355033" lon="-3.113925"><ele>262</ele><time>2020-06-12T09:49:26Z</time><name>PT1910</name></trkpt>
<trkpt lat="54.355042" lon="-3.113926"><ele>262</ele><time>2020-06-12T09:49:27Z</time><name>PT1911</name></trkpt>
<trkpt lat="54.355052" lon="-3.113930"><ele>262</ele><time>2020-06-12T09:49:28Z</time><name>PT1912</name></trkpt>
<trkpt lat="54.355060" lon="-3.113939"><ele>262</ele><time>2020-06-12T09:49:29Z</time><name>PT1913</name></trkpt>
<trkpt lat="54.355069" lon="-3.113947"><ele>263</ele><time>2020-06-12T09:49:30Z</time><name>PT1914</name></trkpt>
<trkpt lat="54.355078" lon="-3.113957"><ele>263</ele><time>2020-06-12T09:49:31Z</time><name>PT1915</name></trkpt>
<trkpt lat="54.355087" lon="-3.113968"><ele>263</ele><time>2020-06-12T09:49:32Z</time><name>PT1916</name></trkpt>
<trkpt lat="54.355091" lon="-3.113981"><ele>263</ele><time>2020-06-12T09:49:33Z</time><name>PT1917</name></trkpt>
<trkpt lat="54.355098" lon="-3.113994"><ele>263</ele><time>2020-06-12T09:49:34Z</time><name>PT1918</name></trkpt>
<trkpt lat="54.355101" lon="-3.114001"><ele>263</ele><time>2020-06-12T09:49:35Z</time><name>PT1919</name></trkpt>
<trkpt lat="54.355106" lon="-3.114011"><ele>263</ele><time>2020-06-12T09:49:36Z</time><name>PT1920</name></trkpt>
<trkpt lat="54.355113" lon="-3.114021"><ele>263</ele><time>2020-06-12T09:49:37Z</time><name>PT1921</name></trkpt>
<trkpt lat="54.355120" lon="-3.114029"><ele>263</ele><time>2020-06-12T09:49:38Z</time><name>PT1922</name></trkpt>
<trkpt lat="54.355127" lon="-3.114035"><ele>263</ele><time>2020-06-12T09:49:39Z</time><name>PT1923</name></trkpt>
<trkpt lat="54.355135" lon="-3.114044"><ele>263</ele><time>2020-06-12T09:49:40Z</time><name>PT1924</name></trkpt>
<trkpt lat="54.355143" lon="-3.114052"><ele>264</ele><time>2020-06-12T09:49:41Z</time><name>PT1925</name></trkpt>
<trkpt lat="54.355150" lon="-3.114060"><ele>264</ele><time>2020-06-12T09:49:42Z</time><name>PT1926</name></trkpt>
<trkpt lat="54.355156" lon="-3.114067"><ele>264</ele><time>2020-06-12T09:49:43Z</time><name>PT1927</name></trkpt>
<trkpt lat="54.355163" lon="-3.114077"><ele>265</ele><time>2020-06-12T09:49:44Z</time><name>PT1928</name></trkpt>
<trkpt lat="54.355169" lon="-3.114085"><ele>265</ele><time>2020-06-12T09:49:45Z</time><name>PT1929</name></trkpt>
<trkpt lat="54.355177" lon="-3.114090"><ele>265</ele><time>2020-06-12T09:49:46Z</time><name>PT1930</name></trkpt>
<trkpt lat="54.355187" lon="-3.114096"><ele>265</ele><time>2020-06-12T09:49:47Z</time><name>PT1931</name></trkpt>
<trkpt lat="54.355196" lon="-3.114105"><ele>265</ele><time>2020-06-12T09:49:48Z</time><name>PT1932</name></trkpt>
<trkpt lat="54.355206" lon="-3.114108"><ele>265</ele><time>2020-06-12T09:49:49Z</time><name>PT1933</name></trkpt>
<trkpt lat="54.355215" lon="-3.114108"><ele>266</ele><time>2020-06-12T09:49:50Z</time><name>PT1934</name></trkpt>
<trkpt lat="54.355224" lon="-3.114108"><ele>266</ele><time>2020-06-12T09:49:51Z</time><name>PT1935</name></trkpt>
<trkpt lat="54.355231" lon="-3.114108"><ele>266</ele><time>2020-06-12T09:49:52Z</time><name>PT1936</name></trkpt>
<trkpt lat="54.355240" lon="-3.114105"><ele>266</ele><time>2020-06-12T09:49:53Z</time><name>PT1937</name></trkpt>
<trkpt lat="54.355249" lon="-3.114104"><ele>267</ele><time>2020-06-12T09:49:54Z</time><name>PT1938</name></trkpt>
<trkpt lat="54.355260" lon="-3.114105"><ele>267</ele><time>2020-06-12T09:49:55Z</time><name>PT1939</name></trkpt>
<trkpt lat="54.355268" lon="-3.114106"><ele>267</ele><time>2020-06-12T09:49:56Z</time><name>PT1940</name></trkpt>
<trkpt lat="54.355279" lon="-3.114106"><ele>268</ele><time>2020-06-12T09:49:57Z</time><name>PT1941</name></trkpt>
<trkpt lat="54.355287" lon="-3.114109"><ele>268</ele><time>2020-06-12T09:49:58Z</time><name>PT1942</name></trkpt>
<trkpt lat="54.355293" lon="-3.114115"><ele>268</ele><time>2020-06-12T09:49:59Z</time><name>PT1943</name></trkpt>
<trkpt lat="54.355299" lon="-3.114119"><ele>268</ele><time>2020-06-12T09:50:00Z</time><name>PT1944</name></trkpt>
<trkpt lat="54.355307" lon="-3.114125"><ele>268</ele><time>2020-06-12T09:50:01Z</time><name>PT1945</name></trkpt>
<trkpt lat="54.355314" lon="-3.114135"><ele>268</ele><time>2020-06-12T09:50:02Z</time><name>PT1946</name></trkpt>
<trkpt lat="54.355323" lon="-3.114144"><ele>268</ele><time>2020-06-12T09:50:03Z</time><name>PT1947</name></trkpt>
<trkpt lat="54.355328" lon="-3.114155"><ele>268</ele><time>2020-06-12T09:50:04Z</time><name>PT1948</name></trkpt>
<trkpt lat="54.355332" lon="-3.114166"><ele>268</ele><time>2020-06-12T09:50:05Z</time><name>PT1949</name></trkpt>
<trkpt lat="54.355335" lon="-3.114172"><ele>268</ele><time>2020-06-12T09:50:06Z</time><name>PT1950</name></trkpt>
<trkpt lat="54.355340" lon="-3.114182"><ele>268</ele><time>2020-06-12T09:50:07Z</time><name>PT1951</name></trkpt>
<trkpt lat="54.355344" lon="-3.114193"><ele>268</ele><time>2020-06-12T09:50:08Z</time><name>PT1952</name></trkpt>
<trkpt lat="54.355348" lon="-3.114202"><ele>268</ele><time>2020-06-12T09:50:09Z</time><name>PT1953</name></trkpt>
<trkpt lat="54.355353" lon="-3.114213"><ele>268</ele><time>2020-06-12T09:50:10Z</time><name>PT1954</name></trkpt>
<trkpt lat="54.355359" lon="-3.114224"><ele>269</ele><time>2020-06-12T09:50:11Z</time><name>PT1955</name></trkpt>
<trkpt lat="54.355366" lon="-3.114234"><ele>269</ele><time>2020-06-12T09:50:12Z</time><name>PT1956</name></trkpt>
<trkpt lat="54.355373" lon="-3.114243"><ele>269</ele><time>2020-06-12T09:50:13Z</time><name>PT1957</name></trkpt>
<trkpt lat="54.355379" lon="-3.114252"><ele>269</ele><time>2020-06-12T09:50:14Z</time><name>PT1958</name></trkpt>
<trkpt lat="54.355385" lon="-3.114261"><ele>269</ele><time>2020-06-12T09:50:15Z</time><name>PT1959</name></trkpt>
<trkpt lat="54.355392" lon="-3.114271"><ele>269</ele><time>2020-06-12T09:50:16Z</time><name>PT1960</name></trkpt>
<trkpt lat="54.355402" lon="-3.114279"><ele>269</ele><time>2020-06-12T09:50:17Z</time><name>PT1961</name></trkpt>
<trkpt lat="54.355411" lon="-3.114289"><ele>269</ele><time>2020-06-12T09:50:18Z</time><name>PT1962</name></trkpt>
<trkpt lat="54.355421" lon="-3.114301"><ele>269</ele><time>2020-06-12T09:50:19Z</time><name>PT1963</name></trkpt>
<trkpt lat="54.355430" lon="-3.114312"><ele>269</ele><time>2020-06-12T09:50:20Z</time><name>PT1964</name></trkpt>
<trkpt lat="54.355438" lon="-3.114320"><ele>269</ele><time>2020-06-12T09:50:21Z</time><name>PT1965</name></trkpt>
<trkpt lat="54.355449" lon="-3.114328"><ele>269</ele><time>2020-06-12T09:50:22Z</time><name>PT1966</name></trkpt>
<trkpt lat="54.355460" lon="-3.114336"><ele>269</ele><time>2020-06-12T09:50:23Z</time><name>PT1967</name></trkpt>
<trkpt lat="54.355468" lon="-3.114345"><ele>269</ele><time>2020-06-12T09:50:24Z</time><name>PT1968</name></trkpt>
<trkpt lat="54.355480" lon="-3.114352"><ele>269</ele><time>2020-06-12T09:50:25Z</time><name>PT1969</name></trkpt>
<trkpt lat="54.355490" lon="-3.114355"><ele>269</ele><time>2020-06-12T09:50:26Z</time><name>PT1970</name></trkpt>
<trkpt lat="54.355499" lon="-3.114360"><ele>268</ele><time>2020-06-12T09:50:27Z</time><name>PT1971</name></trkpt>
<trkpt lat="54.355510" lon="-3.114369"><ele>268</ele><time>2020-06-12T09:50:28Z</time><name>PT1972</name></trkpt>
<trkpt lat="54.355517" lon="-3.114380"><ele>268</ele><time>2020-06-12T09:50:29Z</time><name>PT1973</name></trkpt>
<trkpt lat="54.355526" lon="-3.114390"><ele>268</ele><time>2020-06-12T09:50:30Z</time><name>PT1974</name></trkpt>
<trkpt lat="54.355536" lon="-3.114397"><ele>268</ele><time>2020-06-12T09:50:31Z</time><name>PT1975</name></trkpt>
<trkpt lat="54.355548" lon="-3.114407"><ele>268</ele><time>2020-06-12T09:50:32Z</time><name>PT1976</name></trkpt>
<trkpt lat="54.355556" lon="-3.114417"><ele>268</ele><time>2020-06-12T09:50:33Z</time><name>PT1977</name></trkpt>
<trkpt lat="54.355566" lon="-3.114424"><ele>268</ele><time>2020-06-12T09:50:34Z</time><name>PT1978</name></trkpt>
<trkpt lat="54.355576" lon="-3.114426"><ele>268</ele><time>2020-06-12T09:50:35Z</time><name>PT1979</name></trkpt>
<trkpt lat="54.355585" lon="-3.114430"><ele>268</ele><time>2020-06-12T09:50:36Z</time><name>PT1980</name></trkpt>
<trkpt lat="54.355598" lon="-3.114437"><ele>268</ele><time>2020-06-12T09:50:37Z</time><name>PT1981</name></trkpt>
<trkpt lat="54.355608" lon="-3.114444"><ele>268</ele><time>2020-06-12T09:50:38Z</time><name>PT1982</name></trkpt>
<trkpt lat="54.355620" lon="-3.114452"><ele>269</ele><time>2020-06-12T09:50:39Z</time><name>PT1983</name></trkpt>
<trkpt lat="54.355629" lon="-3.114458"><ele>269</ele><time>2020-06-12T09:50:40Z</time><name>PT1984</name></trkpt>
<trkpt lat="54.355639" lon="-3.114466"><ele>269</ele><time>2020-06-12T09:50:41Z</time><name>PT1985</name></trkpt>
<trkpt lat="54.355646" lon="-3.114474"><ele>269</ele><time>2020-06-12T09:50:42Z</time><name>PT1986</name></trkpt>
<trkpt lat="54.355655" lon="-3.114479"><ele>269</ele><time>2020-06-12T09:50:43Z</time><name>PT1987</name></trkpt>
<trkpt lat="54.355664" lon="-3.114485"><ele>269</ele><time>2020-06-12T09:50:44Z</time><name>PT1988</name></trkpt>
<trkpt lat="54.355672" lon="-3.114491"><ele>270</ele><time>2020-06-12T09:50:45Z</time><name>PT1989</name></trkpt>
<trkpt lat="54.355679" lon="-3.114504"><ele>270</ele><time>2020-06-12T09:50:47Z</time><name>PT1990</name></trkpt>
<trkpt lat="54.355686" lon="-3.114514"><ele>270</ele><time>2020-06-12T09:50:47Z</time><name>PT1991</name></trkpt>
<trkpt lat="54.355695" lon="-3.114525"><ele>270</ele><time>2020-06-12T09:50:48Z</time><name>PT1992</name></trkpt>
<trkpt lat="54.355704" lon="-3.114535"><ele>270</ele><time>2020-06-12T09:50:49Z</time><name>PT1993</name></trkpt>
<trkpt lat="54.355714" lon="-3.114551"><ele>271</ele><time>2020-06-12T09:50:50Z</time><name>PT1994</name></trkpt>
<trkpt lat="54.355720" lon="-3.114561"><ele>271</ele><time>2020-06-12T09:50:51Z</time><name>PT1995</name></trkpt>
<trkpt lat="54.355727" lon="-3.114575"><ele>271</ele><time>2020-06-12T09:50:52Z</time><name>PT1996</name></trkpt>
<trkpt lat="54.355731" lon="-3.114589"><ele>271</ele><time>2020-06-12T09:50:53Z</time><name>PT1997</name></trkpt>
<trkpt lat="54.355737" lon="-3.114602"><ele>271</ele><time>2020-06-12T09:50:54Z</time><name>PT1998</name></trkpt>
<trkpt lat="54.355743" lon="-3.114614"><ele>271</ele><time>2020-06-12T09:50:55Z</time><name>PT1999</name></trkpt>
<trkpt lat="54.355747" lon="-3.114626"><ele>271</ele><time>2020-06-12T09:50:56Z</time><name>PT2000</name></trkpt>
<trkpt lat="54.355755" lon="-3.114636"><ele>272</ele><time>2020-06-12T09:50:57Z</time><name>PT2001</name></trkpt>
<trkpt lat="54.355761" lon="-3.114643"><ele>271</ele><time>2020-06-12T09:50:58Z</time><name>PT2002</name></trkpt>
<trkpt lat="54.355766" lon="-3.114651"><ele>271</ele><time>2020-06-12T09:50:59Z</time><name>PT2003</name></trkpt>
<trkpt lat="54.355773" lon="-3.114665"><ele>271</ele><time>2020-06-12T09:51:00Z</time><name>PT2004</name></trkpt>
<trkpt lat="54.355778" lon="-3.114677"><ele>271</ele><time>2020-06-12T09:51:01Z</time><name>PT2005</name></trkpt>
<trkpt lat="54.355782" lon="-3.114686"><ele>271</ele><time>2020-06-12T09:51:02Z</time><name>PT2006</name></trkpt>
<trkpt lat="54.355790" lon="-3.114697"><ele>271</ele><time>2020-06-12T09:51:03Z</time><name>PT2007</name></trkpt>
<trkpt lat="54.355797" lon="-3.114706"><ele>271</ele><time>2020-06-12T09:51:04Z</time><name>PT2008</name></trkpt>
<trkpt lat="54.355806" lon="-3.114714"><ele>271</ele><time>2020-06-12T09:51:05Z</time><name>PT2009</name></trkpt>
<trkpt lat="54.355814" lon="-3.114725"><ele>271</ele><time>2020-06-12T09:51:06Z</time><name>PT2010</name></trkpt>
<trkpt lat="54.355821" lon="-3.114735"><ele>271</ele><time>2020-06-12T09:51:07Z</time><name>PT2011</name></trkpt>
<trkpt lat="54.355831" lon="-3.114750"><ele>272</ele><time>2020-06-12T09:51:08Z</time><name>PT2012</name></trkpt>
<trkpt lat="54.355840" lon="-3.114763"><ele>272</ele><time>2020-06-12T09:51:09Z</time><name>PT2013</name></trkpt>
<trkpt lat="54.355849" lon="-3.114771"><ele>271</ele><time>2020-06-12T09:51:10Z</time><name>PT2014</name></trkpt>
<trkpt lat="54.355860" lon="-3.114781"><ele>272</ele><time>2020-06-12T09:51:11Z</time><name>PT2015</name></trkpt>
<trkpt lat="54.355866" lon="-3.114787"><ele>271</ele><time>2020-06-12T09:51:12Z</time><name>PT2016</name></trkpt>
<trkpt lat="54.355877" lon="-3.114795"><ele>271</ele><time>2020-06-12T09:51:13Z</time><name>PT2017</name></trkpt>
<trkpt lat="54.355888" lon="-3.114804"><ele>272</ele><time>2020-06-12T09:51:14Z</time><name>PT2018</name></trkpt>
<trkpt lat="54.355898" lon="-3.114815"><ele>272</ele><time>2020-06-12T09:51:15Z</time><name>PT2019</name></trkpt>
<trkpt lat="54.355908" lon="-3.114826"><ele>272</ele><time>2020-06-12T09:51:16Z</time><name>PT2020</name></trkpt>
<trkpt lat="54.355916" lon="-3.114836"><ele>273</ele><time>2020-06-12T09:51:17Z</time><name>PT2021</name></trkpt>
<trkpt lat="54.355923" lon="-3.114845"><ele>273</ele><time>2020-06-12T09:51:18Z</time><name>PT2022</name></trkpt>
<trkpt lat="54.355930" lon="-3.114854"><ele>273</ele><time>2020-06-12T09:51:19Z</time><name>PT2023</name></trkpt>
<trkpt lat="54.355936" lon="-3.114864"><ele>272</ele><time>2020-06-12T09:51:20Z</time><name>PT2024</name></trkpt>
<trkpt lat="54.355938" lon="-3.114873"><ele>272</ele><time>2020-06-12T09:51:21Z</time><name>PT2025</name></trkpt>
<trkpt lat="54.355940" lon="-3.114878"><ele>272</ele><time>2020-06-12T09:51:22Z</time><name>PT2026</name></trkpt>
<trkpt lat="54.355943" lon="-3.114879"><ele>272</ele><time>2020-06-12T09:51:23Z</time><name>PT2027</name></trkpt>
<trkpt lat="54.355945" lon="-3.114880"><ele>273</ele><time>2020-06-12T09:51:24Z</time><name>PT2028</name></trkpt>
<trkpt lat="54.355945" lon="-3.114882"><ele>273</ele><time>2020-06-12T09:51:25Z</time><name>PT2029</name></trkpt>
<trkpt lat="54.355946" lon="-3.114882"><ele>273</ele><time>2020-06-12T09:53:16Z</time><name>PT2030</name></trkpt>
<trkpt lat="54.355955" lon="-3.114899"><ele>273</ele><time>2020-06-12T09:53:17Z</time><name>PT2031</name></trkpt>
<trkpt lat="54.355963" lon="-3.114910"><ele>273</ele><time>2020-06-12T09:53:18Z</time><name>PT2032</name></trkpt>
<trkpt lat="54.355973" lon="-3.114917"><ele>273</ele><time>2020-06-12T09:53:19Z</time><name>PT2033</name></trkpt>
<trkpt lat="54.355985" lon="-3.114923"><ele>274</ele><time>2020-06-12T09:53:20Z</time><name>PT2034</name></trkpt>
<trkpt lat="54.355995" lon="-3.114926"><ele>274</ele><time>2020-06-12T09:53:21Z</time><name>PT2035</name></trkpt>
<trkpt lat="54.356003" lon="-3.114935"><ele>274</ele><time>2020-06-12T09:53:22Z</time><name>PT2036</name></trkpt>
<trkpt lat="54.356011" lon="-3.114946"><ele>274</ele><time>2020-06-12T09:53:23Z</time><name>PT2037</name></trkpt>
<trkpt lat="54.356017" lon="-3.114957"><ele>274</ele><time>2020-06-12T09:53:24Z</time><name>PT2038</name></trkpt>
<trkpt lat="54.356026" lon="-3.114968"><ele>274</ele><time>2020-06-12T09:53:25Z</time><name>PT2039</name></trkpt>
<trkpt lat="54.356035" lon="-3.114975"><ele>274</ele><time>2020-06-12T09:53:26Z</time><name>PT2040</name></trkpt>
<trkpt lat="54.356044" lon="-3.114984"><ele>274</ele><time>2020-06-12T09:53:27Z</time><name>PT2041</name></trkpt>
<trkpt lat="54.356055" lon="-3.114994"><ele>274</ele><time>2020-06-12T09:53:28Z</time><name>PT2042</name></trkpt>
<trkpt lat="54.356064" lon="-3.114999"><ele>274</ele><time>2020-06-12T09:53:29Z</time><name>PT2043</name></trkpt>
<trkpt lat="54.356073" lon="-3.115008"><ele>274</ele><time>2020-06-12T09:53:30Z</time><name>PT2044</name></trkpt>
<trkpt lat="54.356083" lon="-3.115016"><ele>274</ele><time>2020-06-12T09:53:31Z</time><name>PT2045</name></trkpt>
<trkpt lat="54.356094" lon="-3.115023"><ele>274</ele><time>2020-06-12T09:53:32Z</time><name>PT2046</name></trkpt>
<trkpt lat="54.356105" lon="-3.115032"><ele>274</ele><time>2020-06-12T09:53:33Z</time><name>PT2047</name></trkpt>
<trkpt lat="54.356117" lon="-3.115043"><ele>274</ele><time>2020-06-12T09:53:34Z</time><name>PT2048</name></trkpt>
<trkpt lat="54.356128" lon="-3.115050"><ele>274</ele><time>2020-06-12T09:53:35Z</time><name>PT2049</name></trkpt>
<trkpt lat="54.356138" lon="-3.115056"><ele>275</ele><time>2020-06-12T09:53:36Z</time><name>PT2050</name></trkpt>
<trkpt lat="54.356151" lon="-3.115060"><ele>275</ele><time>2020-06-12T09:53:37Z</time><name>PT2051</name></trkpt>
<trkpt lat="54.356160" lon="-3.115064"><ele>275</ele><time>2020-06-12T09:53:38Z</time><name>PT2052</name></trkpt>
<trkpt lat="54.356173" lon="-3.115071"><ele>275</ele><time>2020-06-12T09:53:39Z</time><name>PT2053</name></trkpt>
<trkpt lat="54.356185" lon="-3.115078"><ele>275</ele><time>2020-06-12T09:53:40Z</time><name>PT2054</name></trkpt>
<trkpt lat="54.356194" lon="-3.115083"><ele>275</ele><time>2020-06-12T09:53:41Z</time><name>PT2055</name></trkpt>
<trkpt lat="54.356207" lon="-3.115089"><ele>275</ele><time>2020-06-12T09:53:42Z</time><name>PT2056</name></trkpt>
<trkpt lat="54.356217" lon="-3.115094"><ele>275</ele><time>2020-06-12T09:53:43Z</time><name>PT2057</name></trkpt>
<trkpt lat="54.356222" lon="-3.115100"><ele>275</ele><time>2020-06-12T09:53:44Z</time><name>PT2058</name></trkpt>
<trkpt lat="54.356226" lon="-3.115107"><ele>275</ele><time>2020-06-12T09:53:45Z</time><name>PT2059</name></trkpt>
<trkpt lat="54.356227" lon="-3.115110"><ele>274</ele><time>2020-06-12T09:53:46Z</time><name>PT2060</name></trkpt>
<trkpt lat="54.356226" lon="-3.115110"><ele>274</ele><time>2020-06-12T09:53:47Z</time><name>PT2061</name></trkpt>
<trkpt lat="54.356226" lon="-3.115110"><ele>274</ele><time>2020-06-12T09:53:48Z</time><name>PT2062</name></trkpt>
<trkpt lat="54.356231" lon="-3.115126"><ele>275</ele><time>2020-06-12T09:54:01Z</time><name>PT2063</name></trkpt>
<trkpt lat="54.356242" lon="-3.115136"><ele>275</ele><time>2020-06-12T09:54:02Z</time><name>PT2064</name></trkpt>
<trkpt lat="54.356250" lon="-3.115138"><ele>275</ele><time>2020-06-12T09:54:03Z</time><name>PT2065</name></trkpt>
<trkpt lat="54.356261" lon="-3.115156"><ele>274</ele><time>2020-06-12T09:54:04Z</time><name>PT2066</name></trkpt>
<trkpt lat="54.356273" lon="-3.115163"><ele>274</ele><time>2020-06-12T09:54:05Z</time><name>PT2067</name></trkpt>
<trkpt lat="54.356285" lon="-3.115170"><ele>274</ele><time>2020-06-12T09:54:06Z</time><name>PT2068</name></trkpt>
<trkpt lat="54.356297" lon="-3.115178"><ele>274</ele><time>2020-06-12T09:54:07Z</time><name>PT2069</name></trkpt>
<trkpt lat="54.356308" lon="-3.115187"><ele>274</ele><time>2020-06-12T09:54:08Z</time><name>PT2070</name></trkpt>
<trkpt lat="54.356318" lon="-3.115199"><ele>274</ele><time>2020-06-12T09:54:09Z</time><name>PT2071</name></trkpt>
<trkpt lat="54.356330" lon="-3.115209"><ele>274</ele><time>2020-06-12T09:54:10Z</time><name>PT2072</name></trkpt>
<trkpt lat="54.356340" lon="-3.115219"><ele>275</ele><time>2020-06-12T09:54:11Z</time><name>PT2073</name></trkpt>
<trkpt lat="54.356351" lon="-3.115228"><ele>275</ele><time>2020-06-12T09:54:12Z</time><name>PT2074</name></trkpt>
<trkpt lat="54.356362" lon="-3.115234"><ele>275</ele><time>2020-06-12T09:54:13Z</time><name>PT2075</name></trkpt>
<trkpt lat="54.356374" lon="-3.115238"><ele>275</ele><time>2020-06-12T09:54:14Z</time><name>PT2076</name></trkpt>
<trkpt lat="54.356384" lon="-3.115242"><ele>275</ele><time>2020-06-12T09:54:15Z</time><name>PT2077</name></trkpt>
<trkpt lat="54.356393" lon="-3.115249"><ele>275</ele><time>2020-06-12T09:54:16Z</time><name>PT2078</name></trkpt>
<trkpt lat="54.356401" lon="-3.115251"><ele>275</ele><time>2020-06-12T09:54:17Z</time><name>PT2079</name></trkpt>
<trkpt lat="54.356412" lon="-3.115253"><ele>275</ele><time>2020-06-12T09:54:18Z</time><name>PT2080</name></trkpt>
<trkpt lat="54.356422" lon="-3.115259"><ele>276</ele><time>2020-06-12T09:54:19Z</time><name>PT2081</name></trkpt>
<trkpt lat="54.356430" lon="-3.115263"><ele>276</ele><time>2020-06-12T09:54:20Z</time><name>PT2082</name></trkpt>
<trkpt lat="54.356435" lon="-3.115274"><ele>276</ele><time>2020-06-12T09:54:21Z</time><name>PT2083</name></trkpt>
<trkpt lat="54.356443" lon="-3.115289"><ele>276</ele><time>2020-06-12T09:54:22Z</time><name>PT2084</name></trkpt>
<trkpt lat="54.356447" lon="-3.115306"><ele>276</ele><time>2020-06-12T09:54:23Z</time><name>PT2085</name></trkpt>
<trkpt lat="54.356453" lon="-3.115318"><ele>277</ele><time>2020-06-12T09:54:24Z</time><name>PT2086</name></trkpt>
<trkpt lat="54.356458" lon="-3.115329"><ele>278</ele><time>2020-06-12T09:54:25Z</time><name>PT2087</name></trkpt>
<trkpt lat="54.356461" lon="-3.115347"><ele>277</ele><time>2020-06-12T09:54:26Z</time><name>PT2088</name></trkpt>
<trkpt lat="54.356462" lon="-3.115364"><ele>277</ele><time>2020-06-12T09:54:27Z</time><name>PT2089</name></trkpt>
<trkpt lat="54.356467" lon="-3.115380"><ele>277</ele><time>2020-06-12T09:54:28Z</time><name>PT2090</name></trkpt>
<trkpt lat="54.356472" lon="-3.115393"><ele>277</ele><time>2020-06-12T09:54:29Z</time><name>PT2091</name></trkpt>
<trkpt lat="54.356478" lon="-3.115402"><ele>277</ele><time>2020-06-12T09:54:30Z</time><name>PT2092</name></trkpt>
<trkpt lat="54.356487" lon="-3.115415"><ele>277</ele><time>2020-06-12T09:54:31Z</time><name>PT2093</name></trkpt>
<trkpt lat="54.356493" lon="-3.115427"><ele>278</ele><time>2020-06-12T09:54:32Z</time><name>PT2094</name></trkpt>
<trkpt lat="54.356501" lon="-3.115439"><ele>278</ele><time>2020-06-12T09:54:33Z</time><name>PT2095</name></trkpt>
<trkpt lat="54.356507" lon="-3.115448"><ele>278</ele><time>2020-06-12T09:54:34Z</time><name>PT2096</name></trkpt>
<trkpt lat="54.356511" lon="-3.115459"><ele>278</ele><time>2020-06-12T09:54:35Z</time><name>PT2097</name></trkpt>
<trkpt lat="54.356517" lon="-3.115470"><ele>278</ele><time>2020-06-12T09:54:36Z</time><name>PT2098</name></trkpt>
<trkpt lat="54.356524" lon="-3.115484"><ele>278</ele><time>2020-06-12T09:54:37Z</time><name>PT2099</name></trkpt>
<trkpt lat="54.356532" lon="-3.115497"><ele>277</ele><time>2020-06-12T09:54:38Z</time><name>PT2100</name></trkpt>
<trkpt lat="54.356543" lon="-3.115506"><ele>277</ele><time>2020-06-12T09:54:39Z</time><name>PT2101</name></trkpt>
<trkpt lat="54.356555" lon="-3.115510"><ele>278</ele><time>2020-06-12T09:54:40Z</time><name>PT2102</name></trkpt>
<trkpt lat="54.356565" lon="-3.115517"><ele>277</ele><time>2020-06-12T09:54:41Z</time><name>PT2103</name></trkpt>
<trkpt lat="54.356576" lon="-3.115522"><ele>277</ele><time>2020-06-12T09:54:42Z</time><name>PT2104</name></trkpt>
<trkpt lat="54.356586" lon="-3.115527"><ele>277</ele><time>2020-06-12T09:54:43Z</time><name>PT2105</name></trkpt>
<trkpt lat="54.356598" lon="-3.115531"><ele>278</ele><time>2020-06-12T09:54:44Z</time><name>PT2106</name></trkpt>
<trkpt lat="54.356610" lon="-3.115530"><ele>278</ele><time>2020-06-12T09:54:45Z</time><name>PT2107</name></trkpt>
<trkpt lat="54.356620" lon="-3.115530"><ele>278</ele><time>2020-06-12T09:54:46Z</time><name>PT2108</name></trkpt>
<trkpt lat="54.356631" lon="-3.115533"><ele>278</ele><time>2020-06-12T09:54:47Z</time><name>PT2109</name></trkpt>
<trkpt lat="54.356644" lon="-3.115537"><ele>278</ele><time>2020-06-12T09:54:48Z</time><name>PT2110</name></trkpt>
<trkpt lat="54.356654" lon="-3.115542"><ele>278</ele><time>2020-06-12T09:54:49Z</time><name>PT2111</name></trkpt>
<trkpt lat="54.356664" lon="-3.115546"><ele>278</ele><time>2020-06-12T09:54:50Z</time><name>PT2112</name></trkpt>
<trkpt lat="54.356677" lon="-3.115551"><ele>278</ele><time>2020-06-12T09:54:51Z</time><name>PT2113</name></trkpt>
<trkpt lat="54.356686" lon="-3.115555"><ele>278</ele><time>2020-06-12T09:54:52Z</time><name>PT2114</name></trkpt>
<trkpt lat="54.356699" lon="-3.115560"><ele>279</ele><time>2020-06-12T09:54:53Z</time><name>PT2115</name></trkpt>
<trkpt lat="54.356710" lon="-3.115568"><ele>279</ele><time>2020-06-12T09:54:54Z</time><name>PT2116</name></trkpt>
<trkpt lat="54.356719" lon="-3.115575"><ele>279</ele><time>2020-06-12T09:54:55Z</time><name>PT2117</name></trkpt>
<trkpt lat="54.356729" lon="-3.115580"><ele>279</ele><time>2020-06-12T09:54:56Z</time><name>PT2118</name></trkpt>
<trkpt lat="54.356739" lon="-3.115585"><ele>279</ele><time>2020-06-12T09:54:57Z</time><name>PT2119</name></trkpt>
<trkpt lat="54.356748" lon="-3.115591"><ele>279</ele><time>2020-06-12T09:54:58Z</time><name>PT2120</name></trkpt>
<trkpt lat="54.356757" lon="-3.115600"><ele>279</ele><time>2020-06-12T09:54:59Z</time><name>PT2121</name></trkpt>
<trkpt lat="54.356766" lon="-3.115610"><ele>279</ele><time>2020-06-12T09:55:00Z</time><name>PT2122</name></trkpt>
<trkpt lat="54.356776" lon="-3.115618"><ele>279</ele><time>2020-06-12T09:55:01Z</time><name>PT2123</name></trkpt>
<trkpt lat="54.356785" lon="-3.115629"><ele>279</ele><time>2020-06-12T09:55:02Z</time><name>PT2124</name></trkpt>
<trkpt lat="54.356796" lon="-3.115640"><ele>279</ele><time>2020-06-12T09:55:03Z</time><name>PT2125</name></trkpt>
<trkpt lat="54.356806" lon="-3.115648"><ele>279</ele><time>2020-06-12T09:55:04Z</time><name>PT2126</name></trkpt>
<trkpt lat="54.356814" lon="-3.115658"><ele>280</ele><time>2020-06-12T09:55:05Z</time><name>PT2127</name></trkpt>
<trkpt lat="54.356823" lon="-3.115667"><ele>280</ele><time>2020-06-12T09:55:06Z</time><name>PT2128</name></trkpt>
<trkpt lat="54.356833" lon="-3.115676"><ele>280</ele><time>2020-06-12T09:55:07Z</time><name>PT2129</name></trkpt>
<trkpt lat="54.356843" lon="-3.115682"><ele>280</ele><time>2020-06-12T09:55:08Z</time><name>PT2130</name></trkpt>
<trkpt lat="54.356853" lon="-3.115687"><ele>280</ele><time>2020-06-12T09:55:09Z</time><name>PT2131</name></trkpt>
<trkpt lat="54.356864" lon="-3.115695"><ele>281</ele><time>2020-06-12T09:55:10Z</time><name>PT2132</name></trkpt>
<trkpt lat="54.356871" lon="-3.115705"><ele>282</ele><time>2020-06-12T09:55:11Z</time><name>PT2133</name></trkpt>
<trkpt lat="54.356876" lon="-3.115714"><ele>282</ele><time>2020-06-12T09:55:12Z</time><name>PT2134</name></trkpt>
<trkpt lat="54.356883" lon="-3.115722"><ele>283</ele><time>2020-06-12T09:55:13Z</time><name>PT2135</name></trkpt>
<trkpt lat="54.356883" lon="-3.115733"><ele>282</ele><time>2020-06-12T09:55:14Z</time><name>PT2136</name></trkpt>
<trkpt lat="54.356880" lon="-3.115744"><ele>282</ele><time>2020-06-12T09:55:15Z</time><name>PT2137</name></trkpt>
<trkpt lat="54.356884" lon="-3.115755"><ele>282</ele><time>2020-06-12T09:55:16Z</time><name>PT2138</name></trkpt>
<trkpt lat="54.356886" lon="-3.115764"><ele>282</ele><time>2020-06-12T09:55:17Z</time><name>PT2139</name></trkpt>
<trkpt lat="54.356889" lon="-3.115777"><ele>282</ele><time>2020-06-12T09:55:18Z</time><name>PT2140</name></trkpt>
<trkpt lat="54.356893" lon="-3.115790"><ele>283</ele><time>2020-06-12T09:55:19Z</time><name>PT2141</name></trkpt>
<trkpt lat="54.356894" lon="-3.115801"><ele>283</ele><time>2020-06-12T09:55:20Z</time><name>PT2142</name></trkpt>
<trkpt lat="54.356893" lon="-3.115812"><ele>283</ele><time>2020-06-12T09:55:21Z</time><name>PT2143</name></trkpt>
<trkpt lat="54.356891" lon="-3.115824"><ele>283</ele><time>2020-06-12T09:55:22Z</time><name>PT2144</name></trkpt>
<trkpt lat="54.356892" lon="-3.115838"><ele>284</ele><time>2020-06-12T09:55:23Z</time><name>PT2145</name></trkpt>
<trkpt lat="54.356888" lon="-3.115851"><ele>283</ele><time>2020-06-12T09:55:24Z</time><name>PT2146</name></trkpt>
<trkpt lat="54.356887" lon="-3.115863"><ele>283</ele><time>2020-06-12T09:55:25Z</time><name>PT2147</name></trkpt>
<trkpt lat="54.356887" lon="-3.115881"><ele>284</ele><time>2020-06-12T09:55:26Z</time><name>PT2148</name></trkpt>
<trkpt lat="54.356886" lon="-3.115898"><ele>284</ele><time>2020-06-12T09:55:27Z</time><name>PT2149</name></trkpt>
<trkpt lat="54.356885" lon="-3.115918"><ele>284</ele><time>2020-06-12T09:55:28Z</time><name>PT2150</name></trkpt>
<trkpt lat="54.356883" lon="-3.115936"><ele>284</ele><time>2020-06-12T09:55:29Z</time><name>PT2151</name></trkpt>
<trkpt lat="54.356883" lon="-3.115953"><ele>284</ele><time>2020-06-12T09:55:30Z</time><name>PT2152</name></trkpt>
<trkpt lat="54.356879" lon="-3.115971"><ele>284</ele><time>2020-06-12T09:55:31Z</time><name>PT2153</name></trkpt>
<trkpt lat="54.356874" lon="-3.115986"><ele>284</ele><time>2020-06-12T09:55:32Z</time><name>PT2154</name></trkpt>
<trkpt lat="54.356871" lon="-3.116001"><ele>284</ele><time>2020-06-12T09:55:33Z</time><name>PT2155</name></trkpt>
<trkpt lat="54.356870" lon="-3.116018"><ele>284</ele><time>2020-06-12T09:55:34Z</time><name>PT2156</name></trkpt>
<trkpt lat="54.356867" lon="-3.116033"><ele>285</ele><time>2020-06-12T09:55:35Z</time><name>PT2157</name></trkpt>
<trkpt lat="54.356864" lon="-3.116050"><ele>285</ele><time>2020-06-12T09:55:36Z</time><name>PT2158</name></trkpt>
<trkpt lat="54.356862" lon="-3.116069"><ele>285</ele><time>2020-06-12T09:55:37Z</time><name>PT2159</name></trkpt>
<trkpt lat="54.356860" lon="-3.116085"><ele>285</ele><time>2020-06-12T09:55:38Z</time><name>PT2160</name></trkpt>
<trkpt lat="54.356858" lon="-3.116102"><ele>285</ele><time>2020-06-12T09:55:39Z</time><name>PT2161</name></trkpt>
<trkpt lat="54.356856" lon="-3.116122"><ele>286</ele><time>2020-06-12T09:55:40Z</time><name>PT2162</name></trkpt>
<trkpt lat="54.356854" lon="-3.116137"><ele>286</ele><time>2020-06-12T09:55:41Z</time><name>PT2163</name></trkpt>
<trkpt lat="54.356854" lon="-3.116154"><ele>286</ele><time>2020-06-12T09:55:42Z</time><name>PT2164</name></trkpt>
<trkpt lat="54.356852" lon="-3.116170"><ele>286</ele><time>2020-06-12T09:55:43Z</time><name>PT2165</name></trkpt>
<trkpt lat="54.356852" lon="-3.116188"><ele>286</ele><time>2020-06-12T09:55:44Z</time><name>PT2166</name></trkpt>
<trkpt lat="54.356851" lon="-3.116205"><ele>286</ele><time>2020-06-12T09:55:45Z</time><name>PT2167</name></trkpt>
<trkpt lat="54.356850" lon="-3.116218"><ele>286</ele><time>2020-06-12T09:55:46Z</time><name>PT2168</name></trkpt>
<trkpt lat="54.356851" lon="-3.116234"><ele>286</ele><time>2020-06-12T09:55:47Z</time><name>PT2169</name></trkpt>
<trkpt lat="54.356851" lon="-3.116250"><ele>287</ele><time>2020-06-12T09:55:48Z</time><name>PT2170</name></trkpt>
<trkpt lat="54.356851" lon="-3.116264"><ele>287</ele><time>2020-06-12T09:55:49Z</time><name>PT2171</name></trkpt>
<trkpt lat="54.356848" lon="-3.116278"><ele>287</ele><time>2020-06-12T09:55:50Z</time><name>PT2172</name></trkpt>
<trkpt lat="54.356847" lon="-3.116301"><ele>287</ele><time>2020-06-12T09:55:51Z</time><name>PT2173</name></trkpt>
<trkpt lat="54.356846" lon="-3.116320"><ele>288</ele><time>2020-06-12T09:55:52Z</time><name>PT2174</name></trkpt>
<trkpt lat="54.356846" lon="-3.116336"><ele>288</ele><time>2020-06-12T09:55:53Z</time><name>PT2175</name></trkpt>
<trkpt lat="54.356846" lon="-3.116353"><ele>288</ele><time>2020-06-12T09:55:54Z</time><name>PT2176</name></trkpt>
<trkpt lat="54.356847" lon="-3.116361"><ele>288</ele><time>2020-06-12T09:55:55Z</time><name>PT2177</name></trkpt>
<trkpt lat="54.356846" lon="-3.116377"><ele>288</ele><time>2020-06-12T09:55:56Z</time><name>PT2178</name></trkpt>
<trkpt lat="54.356844" lon="-3.116392"><ele>288</ele><time>2020-06-12T09:55:57Z</time><name>PT2179</name></trkpt>
<trkpt lat="54.356841" lon="-3.116404"><ele>288</ele><time>2020-06-12T09:55:58Z</time><name>PT2180</name></trkpt>
<trkpt lat="54.356839" lon="-3.116418"><ele>288</ele><time>2020-06-12T09:55:59Z</time><name>PT2181</name></trkpt>
<trkpt lat="54.356835" lon="-3.116432"><ele>288</ele><time>2020-06-12T09:56:00Z</time><name>PT2182</name></trkpt>
<trkpt lat="54.356833" lon="-3.116449"><ele>288</ele><time>2020-06-12T09:56:01Z</time><name>PT2183</name></trkpt>
<trkpt lat="54.356827" lon="-3.116473"><ele>288</ele><time>2020-06-12T09:56:02Z</time><name>PT2184</name></trkpt>
<trkpt lat="54.356826" lon="-3.116488"><ele>288</ele><time>2020-06-12T09:56:03Z</time><name>PT2185</name></trkpt>
<trkpt lat="54.356823" lon="-3.116503"><ele>288</ele><time>2020-06-12T09:56:04Z</time><name>PT2186</name></trkpt>
<trkpt lat="54.356821" lon="-3.116520"><ele>288</ele><time>2020-06-12T09:56:05Z</time><name>PT2187</name></trkpt>
<trkpt lat="54.356820" lon="-3.116536"><ele>288</ele><time>2020-06-12T09:56:06Z</time><name>PT2188</name></trkpt>
<trkpt lat="54.356818" lon="-3.116549"><ele>289</ele><time>2020-06-12T09:56:07Z</time><name>PT2189</name></trkpt>
<trkpt lat="54.356816" lon="-3.116565"><ele>289</ele><time>2020-06-12T09:56:08Z</time><name>PT2190</name></trkpt>
<trkpt lat="54.356816" lon="-3.116581"><ele>289</ele><time>2020-06-12T09:56:09Z</time><name>PT2191</name></trkpt>
<trkpt lat="54.356813" lon="-3.116596"><ele>289</ele><time>2020-06-12T09:56:10Z</time><name>PT2192</name></trkpt>
<trkpt lat="54.356813" lon="-3.116611"><ele>289</ele><time>2020-06-12T09:56:11Z</time><name>PT2193</name></trkpt>
<trkpt lat="54.356813" lon="-3.116624"><ele>290</ele><time>2020-06-12T09:56:12Z</time><name>PT2194</name></trkpt>
<trkpt lat="54.356814" lon="-3.116641"><ele>290</ele><time>2020-06-12T09:56:13Z</time><name>PT2195</name></trkpt>
<trkpt lat="54.356815" lon="-3.116664"><ele>291</ele><time>2020-06-12T09:56:14Z</time><name>PT2196</name></trkpt>
<trkpt lat="54.356818" lon="-3.116680"><ele>291</ele><time>2020-06-12T09:56:15Z</time><name>PT2197</name></trkpt>
<trkpt lat="54.356821" lon="-3.116694"><ele>291</ele><time>2020-06-12T09:56:16Z</time><name>PT2198</name></trkpt>
<trkpt lat="54.356823" lon="-3.116711"><ele>291</ele><time>2020-06-12T09:56:17Z</time><name>PT2199</name></trkpt>
<trkpt lat="54.356822" lon="-3.116729"><ele>291</ele><time>2020-06-12T09:56:18Z</time><name>PT2200</name></trkpt>
<trkpt lat="54.356821" lon="-3.116757"><ele>293</ele><time>2020-06-12T09:56:19Z</time><name>PT2201</name></trkpt>
<trkpt lat="54.356822" lon="-3.116772"><ele>293</ele><time>2020-06-12T09:56:20Z</time><name>PT2202</name></trkpt>
<trkpt lat="54.356824" lon="-3.116785"><ele>293</ele><time>2020-06-12T09:56:21Z</time><name>PT2203</name></trkpt>
<trkpt lat="54.356825" lon="-3.116796"><ele>293</ele><time>2020-06-12T09:56:22Z</time><name>PT2204</name></trkpt>
<trkpt lat="54.356826" lon="-3.116804"><ele>293</ele><time>2020-06-12T09:56:23Z</time><name>PT2205</name></trkpt>
<trkpt lat="54.356827" lon="-3.116806"><ele>293</ele><time>2020-06-12T09:56:24Z</time><name>PT2206</name></trkpt>
<trkpt lat="54.356829" lon="-3.116808"><ele>293</ele><time>2020-06-12T09:56:25Z</time><name>PT2207</name></trkpt>
<trkpt lat="54.356823" lon="-3.116813"><ele>293</ele><time>2020-06-12T09:56:26Z</time><name>PT2208</name></trkpt>
<trkpt lat="54.356823" lon="-3.116831"><ele>294</ele><time>2020-06-12T09:56:27Z</time><name>PT2209</name></trkpt>
<trkpt lat="54.356827" lon="-3.116843"><ele>294</ele><time>2020-06-12T09:56:28Z</time><name>PT2210</name></trkpt>
<trkpt lat="54.356828" lon="-3.116855"><ele>294</ele><time>2020-06-12T09:56:29Z</time><name>PT2211</name></trkpt>
<trkpt lat="54.356828" lon="-3.116866"><ele>294</ele><time>2020-06-12T09:56:30Z</time><name>PT2212</name></trkpt>
<trkpt lat="54.356831" lon="-3.116881"><ele>295</ele><time>2020-06-12T09:56:31Z</time><name>PT2213</name></trkpt>
<trkpt lat="54.356834" lon="-3.116896"><ele>295</ele><time>2020-06-12T09:56:32Z</time><name>PT2214</name></trkpt>
<trkpt lat="54.356835" lon="-3.116910"><ele>295</ele><time>2020-06-12T09:56:33Z</time><name>PT2215</name></trkpt>
<trkpt lat="54.356839" lon="-3.116927"><ele>296</ele><time>2020-06-12T09:56:34Z</time><name>PT2216</name></trkpt>
<trkpt lat="54.356840" lon="-3.116939"><ele>296</ele><time>2020-06-12T09:56:35Z</time><name>PT2217</name></trkpt>
<trkpt lat="54.356840" lon="-3.116949"><ele>295</ele><time>2020-06-12T09:56:36Z</time><name>PT2218</name></trkpt>
<trkpt lat="54.356843" lon="-3.116963"><ele>295</ele><time>2020-06-12T09:56:37Z</time><name>PT2219</name></trkpt>
<trkpt lat="54.356847" lon="-3.116976"><ele>296</ele><time>2020-06-12T09:56:38Z</time><name>PT2220</name></trkpt>
<trkpt lat="54.356850" lon="-3.116990"><ele>296</ele><time>2020-06-12T09:56:39Z</time><name>PT2221</name></trkpt>
<trkpt lat="54.356854" lon="-3.117009"><ele>296</ele><time>2020-06-12T09:56:40Z</time><name>PT2222</name></trkpt>
<trkpt lat="54.356858" lon="-3.117021"><ele>296</ele><time>2020-06-12T09:56:41Z</time><name>PT2223</name></trkpt>
<trkpt lat="54.356862" lon="-3.117031"><ele>297</ele><time>2020-06-12T09:56:42Z</time><name>PT2224</name></trkpt>
<trkpt lat="54.356866" lon="-3.117040"><ele>297</ele><time>2020-06-12T09:56:43Z</time><name>PT2225</name></trkpt>
<trkpt lat="54.356871" lon="-3.117052"><ele>297</ele><time>2020-06-12T09:56:44Z</time><name>PT2226</name></trkpt>
<trkpt lat="54.356879" lon="-3.117066"><ele>298</ele><time>2020-06-12T09:56:45Z</time><name>PT2227</name></trkpt>
<trkpt lat="54.356886" lon="-3.117077"><ele>298</ele><time>2020-06-12T09:56:47Z</time><name>PT2228</name></trkpt>
<trkpt lat="54.356892" lon="-3.117088"><ele>298</ele><time>2020-06-12T09:56:47Z</time><name>PT2229</name></trkpt>
<trkpt lat="54.356899" lon="-3.117098"><ele>298</ele><time>2020-06-12T09:56:48Z</time><name>PT2230</name></trkpt>
<trkpt lat="54.356907" lon="-3.117109"><ele>298</ele><time>2020-06-12T09:56:49Z</time><name>PT2231</name></trkpt>
<trkpt lat="54.356916" lon="-3.117120"><ele>298</ele><time>2020-06-12T09:56:50Z</time><name>PT2232</name></trkpt>
<trkpt lat="54.356923" lon="-3.117128"><ele>298</ele><time>2020-06-12T09:56:51Z</time><name>PT2233</name></trkpt>
<trkpt lat="54.356930" lon="-3.117139"><ele>298</ele><time>2020-06-12T09:56:52Z</time><name>PT2234</name></trkpt>
<trkpt lat="54.356938" lon="-3.117146"><ele>298</ele><time>2020-06-12T09:56:53Z</time><name>PT2235</name></trkpt>
<trkpt lat="54.356949" lon="-3.117152"><ele>298</ele><time>2020-06-12T09:56:54Z</time><name>PT2236</name></trkpt>
<trkpt lat="54.356958" lon="-3.117161"><ele>298</ele><time>2020-06-12T09:56:55Z</time><name>PT2237</name></trkpt>
<trkpt lat="54.356963" lon="-3.117166"><ele>298</ele><time>2020-06-12T09:56:56Z</time><name>PT2238</name></trkpt>
<trkpt lat="54.356970" lon="-3.117171"><ele>298</ele><time>2020-06-12T09:56:57Z</time><name>PT2239</name></trkpt>
<trkpt lat="54.356977" lon="-3.117175"><ele>298</ele><time>2020-06-12T09:56:58Z</time><name>PT2240</name></trkpt>
<trkpt lat="54.356984" lon="-3.117182"><ele>298</ele><time>2020-06-12T09:56:59Z</time><name>PT2241</name></trkpt>
<trkpt lat="54.356989" lon="-3.117192"><ele>298</ele><time>2020-06-12T09:57:00Z</time><name>PT2242</name></trkpt>
<trkpt lat="54.356993" lon="-3.117203"><ele>298</ele><time>2020-06-12T09:57:01Z</time><name>PT2243</name></trkpt>
<trkpt lat="54.356999" lon="-3.117213"><ele>298</ele><time>2020-06-12T09:57:02Z</time><name>PT2244</name></trkpt>
<trkpt lat="54.357003" lon="-3.117219"><ele>298</ele><time>2020-06-12T09:57:03Z</time><name>PT2245</name></trkpt>
<trkpt lat="54.357009" lon="-3.117225"><ele>298</ele><time>2020-06-12T09:57:04Z</time><name>PT2246</name></trkpt>
<trkpt lat="54.357016" lon="-3.117232"><ele>299</ele><time>2020-06-12T09:57:05Z</time><name>PT2247</name></trkpt>
<trkpt lat="54.357023" lon="-3.117241"><ele>299</ele><time>2020-06-12T09:57:06Z</time><name>PT2248</name></trkpt>
<trkpt lat="54.357030" lon="-3.117252"><ele>300</ele><time>2020-06-12T09:57:07Z</time><name>PT2249</name></trkpt>
<trkpt lat="54.357036" lon="-3.117260"><ele>300</ele><time>2020-06-12T09:57:08Z</time><name>PT2250</name></trkpt>
<trkpt lat="54.357043" lon="-3.117269"><ele>300</ele><time>2020-06-12T09:57:09Z</time><name>PT2251</name></trkpt>
<trkpt lat="54.357050" lon="-3.117276"><ele>300</ele><time>2020-06-12T09:57:10Z</time><name>PT2252</name></trkpt>
<trkpt lat="54.357058" lon="-3.117286"><ele>300</ele><time>2020-06-12T09:57:11Z</time><name>PT2253</name></trkpt>
<trkpt lat="54.357064" lon="-3.117293"><ele>300</ele><time>2020-06-12T09:57:12Z</time><name>PT2254</name></trkpt>
<trkpt lat="54.357070" lon="-3.117302"><ele>300</ele><time>2020-06-12T09:57:13Z</time><name>PT2255</name></trkpt>
<trkpt lat="54.357078" lon="-3.117310"><ele>300</ele><time>2020-06-12T09:57:14Z</time><name>PT2256</name></trkpt>
<trkpt lat="54.357083" lon="-3.117314"><ele>300</ele><time>2020-06-12T09:57:15Z</time><name>PT2257</name></trkpt>
<trkpt lat="54.357085" lon="-3.117320"><ele>301</ele><time>2020-06-12T09:57:16Z</time><name>PT2258</name></trkpt>
<trkpt lat="54.357090" lon="-3.117328"><ele>301</ele><time>2020-06-12T09:57:17Z</time><name>PT2259</name></trkpt>
<trkpt lat="54.357099" lon="-3.117336"><ele>301</ele><time>2020-06-12T09:57:18Z</time><name>PT2260</name></trkpt>
<trkpt lat="54.357105" lon="-3.117345"><ele>301</ele><time>2020-06-12T09:57:19Z</time><name>PT2261</name></trkpt>
<trkpt lat="54.357114" lon="-3.117354"><ele>301</ele><time>2020-06-12T09:57:20Z</time><name>PT2262</name></trkpt>
<trkpt lat="54.357122" lon="-3.117360"><ele>301</ele><time>2020-06-12T09:57:21Z</time><name>PT2263</name></trkpt>
<trkpt lat="54.357130" lon="-3.117369"><ele>302</ele><time>2020-06-12T09:57:22Z</time><name>PT2264</name></trkpt>
<trkpt lat="54.357137" lon="-3.117375"><ele>302</ele><time>2020-06-12T09:57:23Z</time><name>PT2265</name></trkpt>
<trkpt lat="54.357145" lon="-3.117381"><ele>302</ele><time>2020-06-12T09:57:24Z</time><name>PT2266</name></trkpt>
<trkpt lat="54.357152" lon="-3.117388"><ele>302</ele><time>2020-06-12T09:57:25Z</time><name>PT2267</name></trkpt>
<trkpt lat="54.357160" lon="-3.117400"><ele>302</ele><time>2020-06-12T09:57:26Z</time><name>PT2268</name></trkpt>
<trkpt lat="54.357166" lon="-3.117409"><ele>303</ele><time>2020-06-12T09:57:27Z</time><name>PT2269</name></trkpt>
<trkpt lat="54.357174" lon="-3.117419"><ele>303</ele><time>2020-06-12T09:57:28Z</time><name>PT2270</name></trkpt>
<trkpt lat="54.357181" lon="-3.117427"><ele>303</ele><time>2020-06-12T09:57:29Z</time><name>PT2271</name></trkpt>
<trkpt lat="54.357190" lon="-3.117436"><ele>303</ele><time>2020-06-12T09:57:30Z</time><name>PT2272</name></trkpt>
<trkpt lat="54.357196" lon="-3.117444"><ele>303</ele><time>2020-06-12T09:57:31Z</time><name>PT2273</name></trkpt>
<trkpt lat="54.357203" lon="-3.117453"><ele>303</ele><time>2020-06-12T09:57:32Z</time><name>PT2274</name></trkpt>
<trkpt lat="54.357208" lon="-3.117463"><ele>303</ele><time>2020-06-12T09:57:33Z</time><name>PT2275</name></trkpt>
<trkpt lat="54.357216" lon="-3.117474"><ele>303</ele><time>2020-06-12T09:57:34Z</time><name>PT2276</name></trkpt>
<trkpt lat="54.357221" lon="-3.117485"><ele>304</ele><time>2020-06-12T09:57:35Z</time><name>PT2277</name></trkpt>
<trkpt lat="54.357225" lon="-3.117492"><ele>304</ele><time>2020-06-12T09:57:36Z</time><name>PT2278</name></trkpt>
<trkpt lat="54.357230" lon="-3.117498"><ele>304</ele><time>2020-06-12T09:57:37Z</time><name>PT2279</name></trkpt>
<trkpt lat="54.357234" lon="-3.117504"><ele>303</ele><time>2020-06-12T09:57:38Z</time><name>PT2280</name></trkpt>
<trkpt lat="54.357237" lon="-3.117517"><ele>304</ele><time>2020-06-12T09:57:39Z</time><name>PT2281</name></trkpt>
<trkpt lat="54.357242" lon="-3.117526"><ele>304</ele><time>2020-06-12T09:57:40Z</time><name>PT2282</name></trkpt>
<trkpt lat="54.357247" lon="-3.117533"><ele>305</ele><time>2020-06-12T09:57:41Z</time><name>PT2283</name></trkpt>
<trkpt lat="54.357250" lon="-3.117540"><ele>305</ele><time>2020-06-12T09:57:42Z</time><name>PT2284</name></trkpt>
<trkpt lat="54.357254" lon="-3.117550"><ele>306</ele><time>2020-06-12T09:57:43Z</time><name>PT2285</name></trkpt>
<trkpt lat="54.357260" lon="-3.117560"><ele>306</ele><time>2020-06-12T09:57:44Z</time><name>PT2286</name></trkpt>
<trkpt lat="54.357263" lon="-3.117565"><ele>306</ele><time>2020-06-12T09:57:45Z</time><name>PT2287</name></trkpt>
<trkpt lat="54.357266" lon="-3.117571"><ele>306</ele><time>2020-06-12T09:57:46Z</time><name>PT2288</name></trkpt>
<trkpt lat="54.357272" lon="-3.117579"><ele>307</ele><time>2020-06-12T09:57:47Z</time><name>PT2289</name></trkpt>
<trkpt lat="54.357279" lon="-3.117590"><ele>307</ele><time>2020-06-12T09:57:48Z</time><name>PT2290</name></trkpt>
<trkpt lat="54.357283" lon="-3.117597"><ele>308</ele><time>2020-06-12T09:57:49Z</time><name>PT2291</name></trkpt>
<trkpt lat="54.357289" lon="-3.117605"><ele>308</ele><time>2020-06-12T09:57:50Z</time><name>PT2292</name></trkpt>
<trkpt lat="54.357294" lon="-3.117615"><ele>309</ele><time>2020-06-12T09:57:51Z</time><name>PT2293</name></trkpt>
<trkpt lat="54.357298" lon="-3.117625"><ele>309</ele><time>2020-06-12T09:57:52Z</time><name>PT2294</name></trkpt>
<trkpt lat="54.357303" lon="-3.117636"><ele>310</ele><time>2020-06-12T09:57:53Z</time><name>PT2295</name></trkpt>
<trkpt lat="54.357309" lon="-3.117644"><ele>310</ele><time>2020-06-12T09:57:54Z</time><name>PT2296</name></trkpt>
<trkpt lat="54.357315" lon="-3.117652"><ele>310</ele><time>2020-06-12T09:57:55Z</time><name>PT2297</name></trkpt>
<trkpt lat="54.357322" lon="-3.117660"><ele>311</ele><time>2020-06-12T09:57:56Z</time><name>PT2298</name></trkpt>
<trkpt lat="54.357331" lon="-3.117669"><ele>312</ele><time>2020-06-12T09:57:57Z</time><name>PT2299</name></trkpt>
<trkpt lat="54.357334" lon="-3.117675"><ele>312</ele><time>2020-06-12T09:57:58Z</time><name>PT2300</name></trkpt>
<trkpt lat="54.357339" lon="-3.117682"><ele>312</ele><time>2020-06-12T09:57:59Z</time><name>PT2301</name></trkpt>
<trkpt lat="54.357343" lon="-3.117691"><ele>312</ele><time>2020-06-12T09:58:00Z</time><name>PT2302</name></trkpt>
<trkpt lat="54.357348" lon="-3.117698"><ele>312</ele><time>2020-06-12T09:58:01Z</time><name>PT2303</name></trkpt>
<trkpt lat="54.357354" lon="-3.117703"><ele>312</ele><time>2020-06-12T09:58:02Z</time><name>PT2304</name></trkpt>
<trkpt lat="54.357358" lon="-3.117707"><ele>312</ele><time>2020-06-12T09:58:03Z</time><name>PT2305</name></trkpt>
<trkpt lat="54.357364" lon="-3.117715"><ele>313</ele><time>2020-06-12T09:58:04Z</time><name>PT2306</name></trkpt>
<trkpt lat="54.357368" lon="-3.117722"><ele>313</ele><time>2020-06-12T09:58:05Z</time><name>PT2307</name></trkpt>
<trkpt lat="54.357373" lon="-3.117727"><ele>313</ele><time>2020-06-12T09:58:06Z</time><name>PT2308</name></trkpt>
<trkpt lat="54.357374" lon="-3.117734"><ele>313</ele><time>2020-06-12T09:58:07Z</time><name>PT2309</name></trkpt>
<trkpt lat="54.357378" lon="-3.117742"><ele>313</ele><time>2020-06-12T09:58:08Z</time><name>PT2310</name></trkpt>
<trkpt lat="54.357383" lon="-3.117746"><ele>313</ele><time>2020-06-12T09:58:09Z</time><name>PT2311</name></trkpt>
<trkpt lat="54.357389" lon="-3.117753"><ele>314</ele><time>2020-06-12T09:58:10Z</time><name>PT2312</name></trkpt>
<trkpt lat="54.357389" lon="-3.117753"><ele>314</ele><time>2020-06-12T09:58:11Z</time><name>PT2313</name></trkpt>
<trkpt lat="54.357395" lon="-3.117750"><ele>315</ele><time>2020-06-12T09:58:12Z</time><name>PT2314</name></trkpt>
<trkpt lat="54.357398" lon="-3.117752"><ele>315</ele><time>2020-06-12T09:58:13Z</time><name>PT2315</name></trkpt>
<trkpt lat="54.357404" lon="-3.117756"><ele>315</ele><time>2020-06-12T09:58:33Z</time><name>PT2316</name></trkpt>
<trkpt lat="54.357413" lon="-3.117763"><ele>315</ele><time>2020-06-12T09:58:35Z</time><name>PT2317</name></trkpt>
<trkpt lat="54.357424" lon="-3.117775"><ele>314</ele><time>2020-06-12T09:58:36Z</time><name>PT2318</name></trkpt>
<trkpt lat="54.357430" lon="-3.117781"><ele>313</ele><time>2020-06-12T09:58:36Z</time><name>PT2319</name></trkpt>
<trkpt lat="54.357439" lon="-3.117791"><ele>313</ele><time>2020-06-12T09:58:37Z</time><name>PT2320</name></trkpt>
<trkpt lat="54.357449" lon="-3.117802"><ele>314</ele><time>2020-06-12T09:58:39Z</time><name>PT2321</name></trkpt>
<trkpt lat="54.357457" lon="-3.117821"><ele>314</ele><time>2020-06-12T09:58:39Z</time><name>PT2322</name></trkpt>
<trkpt lat="54.357466" lon="-3.117836"><ele>314</ele><time>2020-06-12T09:58:40Z</time><name>PT2323</name></trkpt>
<trkpt lat="54.357474" lon="-3.117851"><ele>314</ele><time>2020-06-12T09:58:42Z</time><name>PT2324</name></trkpt>
<trkpt lat="54.357483" lon="-3.117863"><ele>314</ele><time>2020-06-12T09:58:42Z</time><name>PT2325</name></trkpt>
<trkpt lat="54.357492" lon="-3.117874"><ele>314</ele><time>2020-06-12T09:58:43Z</time><name>PT2326</name></trkpt>
<trkpt lat="54.357499" lon="-3.117891"><ele>314</ele><time>2020-06-12T09:58:45Z</time><name>PT2327</name></trkpt>
<trkpt lat="54.357509" lon="-3.117904"><ele>314</ele><time>2020-06-12T09:58:45Z</time><name>PT2328</name></trkpt>
<trkpt lat="54.357516" lon="-3.117915"><ele>314</ele><time>2020-06-12T09:58:46Z</time><name>PT2329</name></trkpt>
<trkpt lat="54.357523" lon="-3.117926"><ele>314</ele><time>2020-06-12T09:58:47Z</time><name>PT2330</name></trkpt>
<trkpt lat="54.357530" lon="-3.117938"><ele>314</ele><time>2020-06-12T09:58:48Z</time><name>PT2331</name></trkpt>
<trkpt lat="54.357538" lon="-3.117953"><ele>315</ele><time>2020-06-12T09:58:49Z</time><name>PT2332</name></trkpt>
<trkpt lat="54.357544" lon="-3.117967"><ele>315</ele><time>2020-06-12T09:58:50Z</time><name>PT2333</name></trkpt>
<trkpt lat="54.357549" lon="-3.117982"><ele>315</ele><time>2020-06-12T09:58:51Z</time><name>PT2334</name></trkpt>
<trkpt lat="54.357555" lon="-3.117993"><ele>315</ele><time>2020-06-12T09:58:52Z</time><name>PT2335</name></trkpt>
<trkpt lat="54.357558" lon="-3.118005"><ele>315</ele><time>2020-06-12T09:58:53Z</time><name>PT2336</name></trkpt>
<trkpt lat="54.357563" lon="-3.118016"><ele>315</ele><time>2020-06-12T09:58:54Z</time><name>PT2337</name></trkpt>
<trkpt lat="54.357568" lon="-3.118027"><ele>315</ele><time>2020-06-12T09:58:55Z</time><name>PT2338</name></trkpt>
<trkpt lat="54.357578" lon="-3.118035"><ele>315</ele><time>2020-06-12T09:58:56Z</time><name>PT2339</name></trkpt>
<trkpt lat="54.357590" lon="-3.118044"><ele>316</ele><time>2020-06-12T09:58:57Z</time><name>PT2340</name></trkpt>
<trkpt lat="54.357597" lon="-3.118057"><ele>316</ele><time>2020-06-12T09:58:58Z</time><name>PT2341</name></trkpt>
<trkpt lat="54.357603" lon="-3.118068"><ele>316</ele><time>2020-06-12T09:58:59Z</time><name>PT2342</name></trkpt>
<trkpt lat="54.357609" lon="-3.118077"><ele>316</ele><time>2020-06-12T09:59:00Z</time><name>PT2343</name></trkpt>
<trkpt lat="54.357613" lon="-3.118088"><ele>316</ele><time>2020-06-12T09:59:01Z</time><name>PT2344</name></trkpt>
<trkpt lat="54.357612" lon="-3.118100"><ele>317</ele><time>2020-06-12T09:59:02Z</time><name>PT2345</name></trkpt>
<trkpt lat="54.357615" lon="-3.118112"><ele>317</ele><time>2020-06-12T09:59:03Z</time><name>PT2346</name></trkpt>
<trkpt lat="54.357618" lon="-3.118120"><ele>317</ele><time>2020-06-12T09:59:04Z</time><name>PT2347</name></trkpt>
<trkpt lat="54.357623" lon="-3.118129"><ele>317</ele><time>2020-06-12T09:59:05Z</time><name>PT2348</name></trkpt>
<trkpt lat="54.357629" lon="-3.118141"><ele>317</ele><time>2020-06-12T09:59:06Z</time><name>PT2349</name></trkpt>
<trkpt lat="54.357636" lon="-3.118150"><ele>318</ele><time>2020-06-12T09:59:07Z</time><name>PT2350</name></trkpt>
<trkpt lat="54.357644" lon="-3.118159"><ele>318</ele><time>2020-06-12T09:59:08Z</time><name>PT2351</name></trkpt>
<trkpt lat="54.357651" lon="-3.118162"><ele>318</ele><time>2020-06-12T09:59:09Z</time><name>PT2352</name></trkpt>
<trkpt lat="54.357660" lon="-3.118169"><ele>318</ele><time>2020-06-12T09:59:10Z</time><name>PT2353</name></trkpt>
<trkpt lat="54.357669" lon="-3.118177"><ele>318</ele><time>2020-06-12T09:59:11Z</time><name>PT2354</name></trkpt>
<trkpt lat="54.357676" lon="-3.118180"><ele>319</ele><time>2020-06-12T09:59:12Z</time><name>PT2355</name></trkpt>
<trkpt lat="54.357679" lon="-3.118182"><ele>319</ele><time>2020-06-12T09:59:13Z</time><name>PT2356</name></trkpt>
<trkpt lat="54.357688" lon="-3.118188"><ele>320</ele><time>2020-06-12T09:59:14Z</time><name>PT2357</name></trkpt>
<trkpt lat="54.357694" lon="-3.118187"><ele>320</ele><time>2020-06-12T09:59:15Z</time><name>PT2358</name></trkpt>
<trkpt lat="54.357703" lon="-3.118188"><ele>320</ele><time>2020-06-12T09:59:16Z</time><name>PT2359</name></trkpt>
<trkpt lat="54.357708" lon="-3.118190"><ele>320</ele><time>2020-06-12T09:59:17Z</time><name>PT2360</name></trkpt>
<trkpt lat="54.357718" lon="-3.118188"><ele>321</ele><time>2020-06-12T09:59:18Z</time><name>PT2361</name></trkpt>
<trkpt lat="54.357727" lon="-3.118188"><ele>321</ele><time>2020-06-12T09:59:19Z</time><name>PT2362</name></trkpt>
<trkpt lat="54.357735" lon="-3.118188"><ele>321</ele><time>2020-06-12T09:59:20Z</time><name>PT2363</name></trkpt>
<trkpt lat="54.357743" lon="-3.118187"><ele>321</ele><time>2020-06-12T09:59:21Z</time><name>PT2364</name></trkpt>
<trkpt lat="54.357748" lon="-3.118185"><ele>322</ele><time>2020-06-12T09:59:22Z</time><name>PT2365</name></trkpt>
<trkpt lat="54.357755" lon="-3.118186"><ele>323</ele><time>2020-06-12T09:59:23Z</time><name>PT2366</name></trkpt>
<trkpt lat="54.357761" lon="-3.118187"><ele>323</ele><time>2020-06-12T09:59:24Z</time><name>PT2367</name></trkpt>
<trkpt lat="54.357770" lon="-3.118190"><ele>323</ele><time>2020-06-12T09:59:25Z</time><name>PT2368</name></trkpt>
<trkpt lat="54.357780" lon="-3.118192"><ele>323</ele><time>2020-06-12T09:59:26Z</time><name>PT2369</name></trkpt>
<trkpt lat="54.357790" lon="-3.118195"><ele>323</ele><time>2020-06-12T09:59:27Z</time><name>PT2370</name></trkpt>
<trkpt lat="54.357797" lon="-3.118202"><ele>322</ele><time>2020-06-12T09:59:28Z</time><name>PT2371</name></trkpt>
<trkpt lat="54.357806" lon="-3.118210"><ele>322</ele><time>2020-06-12T09:59:29Z</time><name>PT2372</name></trkpt>
<trkpt lat="54.357815" lon="-3.118215"><ele>322</ele><time>2020-06-12T09:59:30Z</time><name>PT2373</name></trkpt>
<trkpt lat="54.357822" lon="-3.118221"><ele>322</ele><time>2020-06-12T09:59:31Z</time><name>PT2374</name></trkpt>
<trkpt lat="54.357831" lon="-3.118229"><ele>322</ele><time>2020-06-12T09:59:32Z</time><name>PT2375</name></trkpt>
<trkpt lat="54.357840" lon="-3.118235"><ele>322</ele><time>2020-06-12T09:59:33Z</time><name>PT2376</name></trkpt>
<trkpt lat="54.357848" lon="-3.118241"><ele>322</ele><time>2020-06-12T09:59:34Z</time><name>PT2377</name></trkpt>
<trkpt lat="54.357854" lon="-3.118246"><ele>321</ele><time>2020-06-12T09:59:35Z</time><name>PT2378</name></trkpt>
<trkpt lat="54.357861" lon="-3.118251"><ele>321</ele><time>2020-06-12T09:59:36Z</time><name>PT2379</name></trkpt>
<trkpt lat="54.357868" lon="-3.118259"><ele>321</ele><time>2020-06-12T09:59:37Z</time><name>PT2380</name></trkpt>
<trkpt lat="54.357871" lon="-3.118273"><ele>322</ele><time>2020-06-12T09:59:38Z</time><name>PT2381</name></trkpt>
<trkpt lat="54.357877" lon="-3.118281"><ele>322</ele><time>2020-06-12T09:59:39Z</time><name>PT2382</name></trkpt>
<trkpt lat="54.357881" lon="-3.118288"><ele>322</ele><time>2020-06-12T09:59:40Z</time><name>PT2383</name></trkpt>
<trkpt lat="54.357886" lon="-3.118295"><ele>323</ele><time>2020-06-12T09:59:41Z</time><name>PT2384</name></trkpt>
<trkpt lat="54.357892" lon="-3.118303"><ele>323</ele><time>2020-06-12T09:59:42Z</time><name>PT2385</name></trkpt>
<trkpt lat="54.357897" lon="-3.118312"><ele>323</ele><time>2020-06-12T09:59:43Z</time><name>PT2386</name></trkpt>
<trkpt lat="54.357903" lon="-3.118323"><ele>323</ele><time>2020-06-12T09:59:44Z</time><name>PT2387</name></trkpt>
<trkpt lat="54.357907" lon="-3.118331"><ele>323</ele><time>2020-06-12T09:59:45Z</time><name>PT2388</name></trkpt>
<trkpt lat="54.357914" lon="-3.118342"><ele>324</ele><time>2020-06-12T09:59:46Z</time><name>PT2389</name></trkpt>
<trkpt lat="54.357912" lon="-3.118352"><ele>325</ele><time>2020-06-12T09:59:47Z</time><name>PT2390</name></trkpt>
<trkpt lat="54.357914" lon="-3.118361"><ele>326</ele><time>2020-06-12T09:59:48Z</time><name>PT2391</name></trkpt>
<trkpt lat="54.357919" lon="-3.118368"><ele>326</ele><time>2020-06-12T09:59:49Z</time><name>PT2392</name></trkpt>
<trkpt lat="54.357923" lon="-3.118378"><ele>326</ele><time>2020-06-12T09:59:50Z</time><name>PT2393</name></trkpt>
<trkpt lat="54.357929" lon="-3.118388"><ele>326</ele><time>2020-06-12T09:59:51Z</time><name>PT2394</name></trkpt>
<trkpt lat="54.357933" lon="-3.118397"><ele>327</ele><time>2020-06-12T09:59:52Z</time><name>PT2395</name></trkpt>
<trkpt lat="54.357938" lon="-3.118409"><ele>327</ele><time>2020-06-12T09:59:53Z</time><name>PT2396</name></trkpt>
<trkpt lat="54.357943" lon="-3.118421"><ele>327</ele><time>2020-06-12T09:59:54Z</time><name>PT2397</name></trkpt>
<trkpt lat="54.357947" lon="-3.118434"><ele>328</ele><time>2020-06-12T09:59:55Z</time><name>PT2398</name></trkpt>
<trkpt lat="54.357951" lon="-3.118444"><ele>328</ele><time>2020-06-12T09:59:56Z</time><name>PT2399</name></trkpt>
<trkpt lat="54.357956" lon="-3.118455"><ele>329</ele><time>2020-06-12T09:59:57Z</time><name>PT2400</name></trkpt>
<trkpt lat="54.357962" lon="-3.118466"><ele>329</ele><time>2020-06-12T09:59:58Z</time><name>PT2401</name></trkpt>
<trkpt lat="54.357967" lon="-3.118476"><ele>329</ele><time>2020-06-12T09:59:59Z</time><name>PT2402</name></trkpt>
<trkpt lat="54.357971" lon="-3.118487"><ele>329</ele><time>2020-06-12T10:00:00Z</time><name>PT2403</name></trkpt>
<trkpt lat="54.357975" lon="-3.118497"><ele>329</ele><time>2020-06-12T10:00:01Z</time><name>PT2404</name></trkpt>
<trkpt lat="54.357978" lon="-3.118506"><ele>329</ele><time>2020-06-12T10:00:02Z</time><name>PT2405</name></trkpt>
<trkpt lat="54.357983" lon="-3.118514"><ele>329</ele><time>2020-06-12T10:00:03Z</time><name>PT2406</name></trkpt>
<trkpt lat="54.357988" lon="-3.118523"><ele>329</ele><time>2020-06-12T10:00:04Z</time><name>PT2407</name></trkpt>
<trkpt lat="54.357994" lon="-3.118535"><ele>329</ele><time>2020-06-12T10:00:05Z</time><name>PT2408</name></trkpt>
<trkpt lat="54.357998" lon="-3.118546"><ele>329</ele><time>2020-06-12T10:00:06Z</time><name>PT2409</name></trkpt>
<trkpt lat="54.358001" lon="-3.118558"><ele>330</ele><time>2020-06-12T10:00:07Z</time><name>PT2410</name></trkpt>
<trkpt lat="54.358005" lon="-3.118568"><ele>330</ele><time>2020-06-12T10:00:08Z</time><name>PT2411</name></trkpt>
<trkpt lat="54.358010" lon="-3.118582"><ele>330</ele><time>2020-06-12T10:00:09Z</time><name>PT2412</name></trkpt>
<trkpt lat="54.358014" lon="-3.118592"><ele>330</ele><time>2020-06-12T10:00:10Z</time><name>PT2413</name></trkpt>
<trkpt lat="54.358017" lon="-3.118599"><ele>330</ele><time>2020-06-12T10:00:11Z</time><name>PT2414</name></trkpt>
<trkpt lat="54.358022" lon="-3.118605"><ele>330</ele><time>2020-06-12T10:00:12Z</time><name>PT2415</name></trkpt>
<trkpt lat="54.358028" lon="-3.118614"><ele>330</ele><time>2020-06-12T10:00:13Z</time><name>PT2416</name></trkpt>
<trkpt lat="54.358030" lon="-3.118624"><ele>330</ele><time>2020-06-12T10:00:14Z</time><name>PT2417</name></trkpt>
<trkpt lat="54.358033" lon="-3.118637"><ele>330</ele><time>2020-06-12T10:00:15Z</time><name>PT2418</name></trkpt>
<trkpt lat="54.358037" lon="-3.118647"><ele>330</ele><time>2020-06-12T10:00:16Z</time><name>PT2419</name></trkpt>
<trkpt lat="54.358041" lon="-3.118658"><ele>330</ele><time>2020-06-12T10:00:17Z</time><name>PT2420</name></trkpt>
<trkpt lat="54.358044" lon="-3.118670"><ele>331</ele><time>2020-06-12T10:00:18Z</time><name>PT2421</name></trkpt>
<trkpt lat="54.358049" lon="-3.118680"><ele>332</ele><time>2020-06-12T10:00:19Z</time><name>PT2422</name></trkpt>
<trkpt lat="54.358052" lon="-3.118688"><ele>332</ele><time>2020-06-12T10:00:20Z</time><name>PT2423</name></trkpt>
<trkpt lat="54.358057" lon="-3.118699"><ele>332</ele><time>2020-06-12T10:00:21Z</time><name>PT2424</name></trkpt>
<trkpt lat="54.358061" lon="-3.118713"><ele>333</ele><time>2020-06-12T10:00:22Z</time><name>PT2425</name></trkpt>
<trkpt lat="54.358066" lon="-3.118725"><ele>333</ele><time>2020-06-12T10:00:23Z</time><name>PT2426</name></trkpt>
<trkpt lat="54.358071" lon="-3.118737"><ele>333</ele><time>2020-06-12T10:00:24Z</time><name>PT2427</name></trkpt>
<trkpt lat="54.358075" lon="-3.118749"><ele>333</ele><time>2020-06-12T10:00:25Z</time><name>PT2428</name></trkpt>
<trkpt lat="54.358080" lon="-3.118760"><ele>333</ele><time>2020-06-12T10:00:26Z</time><name>PT2429</name></trkpt>
<trkpt lat="54.358084" lon="-3.118772"><ele>334</ele><time>2020-06-12T10:00:27Z</time><name>PT2430</name></trkpt>
<trkpt lat="54.358088" lon="-3.118784"><ele>334</ele><time>2020-06-12T10:00:28Z</time><name>PT2431</name></trkpt>
<trkpt lat="54.358093" lon="-3.118791"><ele>334</ele><time>2020-06-12T10:00:29Z</time><name>PT2432</name></trkpt>
<trkpt lat="54.358095" lon="-3.118797"><ele>334</ele><time>2020-06-12T10:00:30Z</time><name>PT2433</name></trkpt>
<trkpt lat="54.358097" lon="-3.118809"><ele>334</ele><time>2020-06-12T10:00:31Z</time><name>PT2434</name></trkpt>
<trkpt lat="54.358102" lon="-3.118820"><ele>334</ele><time>2020-06-12T10:00:32Z</time><name>PT2435</name></trkpt>
<trkpt lat="54.358107" lon="-3.118829"><ele>334</ele><time>2020-06-12T10:00:33Z</time><name>PT2436</name></trkpt>
<trkpt lat="54.358110" lon="-3.118839"><ele>334</ele><time>2020-06-12T10:00:34Z</time><name>PT2437</name></trkpt>
<trkpt lat="54.358115" lon="-3.118851"><ele>335</ele><time>2020-06-12T10:00:35Z</time><name>PT2438</name></trkpt>
<trkpt lat="54.358118" lon="-3.118863"><ele>335</ele><time>2020-06-12T10:00:36Z</time><name>PT2439</name></trkpt>
<trkpt lat="54.358121" lon="-3.118870"><ele>335</ele><time>2020-06-12T10:00:37Z</time><name>PT2440</name></trkpt>
<trkpt lat="54.358125" lon="-3.118882"><ele>335</ele><time>2020-06-12T10:00:38Z</time><name>PT2441</name></trkpt>
<trkpt lat="54.358130" lon="-3.118897"><ele>336</ele><time>2020-06-12T10:00:39Z</time><name>PT2442</name></trkpt>
<trkpt lat="54.358135" lon="-3.118909"><ele>336</ele><time>2020-06-12T10:00:40Z</time><name>PT2443</name></trkpt>
<trkpt lat="54.358139" lon="-3.118918"><ele>336</ele><time>2020-06-12T10:00:41Z</time><name>PT2444</name></trkpt>
<trkpt lat="54.358142" lon="-3.118931"><ele>336</ele><time>2020-06-12T10:00:42Z</time><name>PT2445</name></trkpt>
<trkpt lat="54.358146" lon="-3.118943"><ele>336</ele><time>2020-06-12T10:00:43Z</time><name>PT2446</name></trkpt>
<trkpt lat="54.358149" lon="-3.118950"><ele>336</ele><time>2020-06-12T10:00:44Z</time><name>PT2447</name></trkpt>
<trkpt lat="54.358154" lon="-3.118957"><ele>336</ele><time>2020-06-12T10:00:45Z</time><name>PT2448</name></trkpt>
<trkpt lat="54.358158" lon="-3.118967"><ele>337</ele><time>2020-06-12T10:00:46Z</time><name>PT2449</name></trkpt>
<trkpt lat="54.358163" lon="-3.118977"><ele>337</ele><time>2020-06-12T10:00:47Z</time><name>PT2450</name></trkpt>
<trkpt lat="54.358166" lon="-3.118988"><ele>337</ele><time>2020-06-12T10:00:48Z</time><name>PT2451</name></trkpt>
<trkpt lat="54.358170" lon="-3.118998"><ele>337</ele><time>2020-06-12T10:00:49Z</time><name>PT2452</name></trkpt>
<trkpt lat="54.358174" lon="-3.119006"><ele>337</ele><time>2020-06-12T10:00:50Z</time><name>PT2453</name></trkpt>
<trkpt lat="54.358175" lon="-3.119014"><ele>337</ele><time>2020-06-12T10:00:51Z</time><name>PT2454</name></trkpt>
<trkpt lat="54.358178" lon="-3.119023"><ele>337</ele><time>2020-06-12T10:00:52Z</time><name>PT2455</name></trkpt>
<trkpt lat="54.358179" lon="-3.119031"><ele>337</ele><time>2020-06-12T10:00:53Z</time><name>PT2456</name></trkpt>
<trkpt lat="54.358184" lon="-3.119041"><ele>337</ele><time>2020-06-12T10:00:54Z</time><name>PT2457</name></trkpt>
<trkpt lat="54.358188" lon="-3.119050"><ele>337</ele><time>2020-06-12T10:00:55Z</time><name>PT2458</name></trkpt>
<trkpt lat="54.358191" lon="-3.119058"><ele>338</ele><time>2020-06-12T10:00:56Z</time><name>PT2459</name></trkpt>
<trkpt lat="54.358194" lon="-3.119070"><ele>338</ele><time>2020-06-12T10:00:57Z</time><name>PT2460</name></trkpt>
<trkpt lat="54.358196" lon="-3.119080"><ele>339</ele><time>2020-06-12T10:00:58Z</time><name>PT2461</name></trkpt>
<trkpt lat="54.358199" lon="-3.119090"><ele>339</ele><time>2020-06-12T10:00:59Z</time><name>PT2462</name></trkpt>
<trkpt lat="54.358203" lon="-3.119097"><ele>339</ele><time>2020-06-12T10:01:00Z</time><name>PT2463</name></trkpt>
<trkpt lat="54.358207" lon="-3.119107"><ele>339</ele><time>2020-06-12T10:01:01Z</time><name>PT2464</name></trkpt>
<trkpt lat="54.358212" lon="-3.119117"><ele>339</ele><time>2020-06-12T10:01:02Z</time><name>PT2465</name></trkpt>
<trkpt lat="54.358216" lon="-3.119126"><ele>339</ele><time>2020-06-12T10:01:03Z</time><name>PT2466</name></trkpt>
<trkpt lat="54.358219" lon="-3.119131"><ele>339</ele><time>2020-06-12T10:01:04Z</time><name>PT2467</name></trkpt>
<trkpt lat="54.358223" lon="-3.119138"><ele>339</ele><time>2020-06-12T10:01:05Z</time><name>PT2468</name></trkpt>
<trkpt lat="54.358225" lon="-3.119152"><ele>340</ele><time>2020-06-12T10:01:06Z</time><name>PT2469</name></trkpt>
<trkpt lat="54.358229" lon="-3.119156"><ele>340</ele><time>2020-06-12T10:01:07Z</time><name>PT2470</name></trkpt>
<trkpt lat="54.358234" lon="-3.119163"><ele>340</ele><time>2020-06-12T10:01:08Z</time><name>PT2471</name></trkpt>
<trkpt lat="54.358239" lon="-3.119171"><ele>340</ele><time>2020-06-12T10:01:09Z</time><name>PT2472</name></trkpt>
<trkpt lat="54.358244" lon="-3.119180"><ele>341</ele><time>2020-06-12T10:01:10Z</time><name>PT2473</name></trkpt>
<trkpt lat="54.358245" lon="-3.119193"><ele>341</ele><time>2020-06-12T10:01:11Z</time><name>PT2474</name></trkpt>
<trkpt lat="54.358246" lon="-3.119205"><ele>341</ele><time>2020-06-12T10:01:12Z</time><name>PT2475</name></trkpt>
<trkpt lat="54.358249" lon="-3.119212"><ele>341</ele><time>2020-06-12T10:01:13Z</time><name>PT2476</name></trkpt>
<trkpt lat="54.358251" lon="-3.119217"><ele>341</ele><time>2020-06-12T10:01:14Z</time><name>PT2477</name></trkpt>
<trkpt lat="54.358256" lon="-3.119222"><ele>341</ele><time>2020-06-12T10:01:15Z</time><name>PT2478</name></trkpt>
<trkpt lat="54.358259" lon="-3.119223"><ele>341</ele><time>2020-06-12T10:01:16Z</time><name>PT2479</name></trkpt>
<trkpt lat="54.358261" lon="-3.119223"><ele>342</ele><time>2020-06-12T10:01:17Z</time><name>PT2480</name></trkpt>
<trkpt lat="54.358260" lon="-3.119222"><ele>341</ele><time>2020-06-12T10:01:18Z</time><name>PT2481</name></trkpt>
<trkpt lat="54.358257" lon="-3.119238"><ele>341</ele><time>2020-06-12T10:01:23Z</time><name>PT2482</name></trkpt>
<trkpt lat="54.358256" lon="-3.119240"><ele>341</ele><time>2020-06-12T10:01:24Z</time><name>PT2483</name></trkpt>
<trkpt lat="54.358255" lon="-3.119244"><ele>341</ele><time>2020-06-12T10:01:25Z</time><name>PT2484</name></trkpt>
<trkpt lat="54.358259" lon="-3.119257"><ele>342</ele><time>2020-06-12T10:01:45Z</time><name>PT2485</name></trkpt>
<trkpt lat="54.358266" lon="-3.119277"><ele>342</ele><time>2020-06-12T10:01:46Z</time><name>PT2486</name></trkpt>
<trkpt lat="54.358267" lon="-3.119293"><ele>342</ele><time>2020-06-12T10:01:47Z</time><name>PT2487</name></trkpt>
<trkpt lat="54.358267" lon="-3.119310"><ele>342</ele><time>2020-06-12T10:01:48Z</time><name>PT2488</name></trkpt>
<trkpt lat="54.358260" lon="-3.119325"><ele>343</ele><time>2020-06-12T10:01:49Z</time><name>PT2489</name></trkpt>
<trkpt lat="54.358259" lon="-3.119345"><ele>343</ele><time>2020-06-12T10:01:50Z</time><name>PT2490</name></trkpt>
<trkpt lat="54.358259" lon="-3.119363"><ele>343</ele><time>2020-06-12T10:01:51Z</time><name>PT2491</name></trkpt>
<trkpt lat="54.358262" lon="-3.119377"><ele>343</ele><time>2020-06-12T10:01:52Z</time><name>PT2492</name></trkpt>
<trkpt lat="54.358263" lon="-3.119389"><ele>342</ele><time>2020-06-12T10:01:53Z</time><name>PT2493</name></trkpt>
<trkpt lat="54.358264" lon="-3.119403"><ele>342</ele><time>2020-06-12T10:01:54Z</time><name>PT2494</name></trkpt>
<trkpt lat="54.358268" lon="-3.119416"><ele>342</ele><time>2020-06-12T10:01:55Z</time><name>PT2495</name></trkpt>
<trkpt lat="54.358268" lon="-3.119428"><ele>343</ele><time>2020-06-12T10:01:56Z</time><name>PT2496</name></trkpt>
<trkpt lat="54.358268" lon="-3.119440"><ele>344</ele><time>2020-06-12T10:01:57Z</time><name>PT2497</name></trkpt>
<trkpt lat="54.358270" lon="-3.119452"><ele>343</ele><time>2020-06-12T10:01:58Z</time><name>PT2498</name></trkpt>
<trkpt lat="54.358271" lon="-3.119466"><ele>343</ele><time>2020-06-12T10:01:59Z</time><name>PT2499</name></trkpt>
<trkpt lat="54.358273" lon="-3.119484"><ele>343</ele><time>2020-06-12T10:02:00Z</time><name>PT2500</name></trkpt>
<trkpt lat="54.358274" lon="-3.119497"><ele>342</ele><time>2020-06-12T10:02:01Z</time><name>PT2501</name></trkpt>
<trkpt lat="54.358274" lon="-3.119514"><ele>342</ele><time>2020-06-12T10:02:02Z</time><name>PT2502</name></trkpt>
<trkpt lat="54.358273" lon="-3.119532"><ele>343</ele><time>2020-06-12T10:02:03Z</time><name>PT2503</name></trkpt>
<trkpt lat="54.358273" lon="-3.119545"><ele>343</ele><time>2020-06-12T10:02:04Z</time><name>PT2504</name></trkpt>
<trkpt lat="54.358275" lon="-3.119561"><ele>343</ele><time>2020-06-12T10:02:05Z</time><name>PT2505</name></trkpt>
<trkpt lat="54.358276" lon="-3.119577"><ele>343</ele><time>2020-06-12T10:02:06Z</time><name>PT2506</name></trkpt>
<trkpt lat="54.358277" lon="-3.119591"><ele>343</ele><time>2020-06-12T10:02:07Z</time><name>PT2507</name></trkpt>
<trkpt lat="54.358279" lon="-3.119604"><ele>343</ele><time>2020-06-12T10:02:08Z</time><name>PT2508</name></trkpt>
<trkpt lat="54.358281" lon="-3.119617"><ele>343</ele><time>2020-06-12T10:02:09Z</time><name>PT2509</name></trkpt>
<trkpt lat="54.358283" lon="-3.119631"><ele>344</ele><time>2020-06-12T10:02:10Z</time><name>PT2510</name></trkpt>
<trkpt lat="54.358284" lon="-3.119646"><ele>344</ele><time>2020-06-12T10:02:11Z</time><name>PT2511</name></trkpt>
<trkpt lat="54.358285" lon="-3.119660"><ele>344</ele><time>2020-06-12T10:02:12Z</time><name>PT2512</name></trkpt>
<trkpt lat="54.358286" lon="-3.119674"><ele>344</ele><time>2020-06-12T10:02:13Z</time><name>PT2513</name></trkpt>
<trkpt lat="54.358288" lon="-3.119689"><ele>345</ele><time>2020-06-12T10:02:14Z</time><name>PT2514</name></trkpt>
<trkpt lat="54.358289" lon="-3.119704"><ele>345</ele><time>2020-06-12T10:02:15Z</time><name>PT2515</name></trkpt>
<trkpt lat="54.358289" lon="-3.119719"><ele>345</ele><time>2020-06-12T10:02:16Z</time><name>PT2516</name></trkpt>
<trkpt lat="54.358290" lon="-3.119732"><ele>345</ele><time>2020-06-12T10:02:17Z</time><name>PT2517</name></trkpt>
<trkpt lat="54.358292" lon="-3.119745"><ele>345</ele><time>2020-06-12T10:02:18Z</time><name>PT2518</name></trkpt>
<trkpt lat="54.358293" lon="-3.119758"><ele>346</ele><time>2020-06-12T10:02:19Z</time><name>PT2519</name></trkpt>
<trkpt lat="54.358294" lon="-3.119770"><ele>346</ele><time>2020-06-12T10:02:20Z</time><name>PT2520</name></trkpt>
<trkpt lat="54.358295" lon="-3.119782"><ele>346</ele><time>2020-06-12T10:02:21Z</time><name>PT2521</name></trkpt>
<trkpt lat="54.358297" lon="-3.119794"><ele>346</ele><time>2020-06-12T10:02:22Z</time><name>PT2522</name></trkpt>
<trkpt lat="54.358298" lon="-3.119805"><ele>347</ele><time>2020-06-12T10:02:23Z</time><name>PT2523</name></trkpt>
<trkpt lat="54.358301" lon="-3.119820"><ele>347</ele><time>2020-06-12T10:02:24Z</time><name>PT2524</name></trkpt>
<trkpt lat="54.358301" lon="-3.119833"><ele>347</ele><time>2020-06-12T10:02:25Z</time><name>PT2525</name></trkpt>
<trkpt lat="54.358301" lon="-3.119843"><ele>347</ele><time>2020-06-12T10:02:26Z</time><name>PT2526</name></trkpt>
<trkpt lat="54.358302" lon="-3.119854"><ele>348</ele><time>2020-06-12T10:02:27Z</time><name>PT2527</name></trkpt>
<trkpt lat="54.358300" lon="-3.119865"><ele>348</ele><time>2020-06-12T10:02:28Z</time><name>PT2528</name></trkpt>
<trkpt lat="54.358298" lon="-3.119878"><ele>348</ele><time>2020-06-12T10:02:29Z</time><name>PT2529</name></trkpt>
<trkpt lat="54.358297" lon="-3.119894"><ele>349</ele><time>2020-06-12T10:02:30Z</time><name>PT2530</name></trkpt>
<trkpt lat="54.358293" lon="-3.119904"><ele>349</ele><time>2020-06-12T10:02:31Z</time><name>PT2531</name></trkpt>
<trkpt lat="54.358286" lon="-3.119917"><ele>349</ele><time>2020-06-12T10:02:32Z</time><name>PT2532</name></trkpt>
<trkpt lat="54.358280" lon="-3.119928"><ele>350</ele><time>2020-06-12T10:02:33Z</time><name>PT2533</name></trkpt>
<trkpt lat="54.358275" lon="-3.119940"><ele>350</ele><time>2020-06-12T10:02:34Z</time><name>PT2534</name></trkpt>
<trkpt lat="54.358268" lon="-3.119953"><ele>350</ele><time>2020-06-12T10:02:35Z</time><name>PT2535</name></trkpt>
<trkpt lat="54.358262" lon="-3.119967"><ele>350</ele><time>2020-06-12T10:02:36Z</time><name>PT2536</name></trkpt>
<trkpt lat="54.358257" lon="-3.119976"><ele>350</ele><time>2020-06-12T10:02:37Z</time><name>PT2537</name></trkpt>
<trkpt lat="54.358252" lon="-3.119989"><ele>350</ele><time>2020-06-12T10:02:38Z</time><name>PT2538</name></trkpt>
<trkpt lat="54.358246" lon="-3.120000"><ele>350</ele><time>2020-06-12T10:02:39Z</time><name>PT2539</name></trkpt>
<trkpt lat="54.358239" lon="-3.120011"><ele>351</ele><time>2020-06-12T10:02:40Z</time><name>PT2540</name></trkpt>
<trkpt lat="54.358233" lon="-3.120025"><ele>351</ele><time>2020-06-12T10:02:41Z</time><name>PT2541</name></trkpt>
<trkpt lat="54.358227" lon="-3.120038"><ele>351</ele><time>2020-06-12T10:02:42Z</time><name>PT2542</name></trkpt>
<trkpt lat="54.358221" lon="-3.120051"><ele>351</ele><time>2020-06-12T10:02:43Z</time><name>PT2543</name></trkpt>
<trkpt lat="54.358217" lon="-3.120063"><ele>352</ele><time>2020-06-12T10:02:44Z</time><name>PT2544</name></trkpt>
<trkpt lat="54.358211" lon="-3.120077"><ele>352</ele><time>2020-06-12T10:02:45Z</time><name>PT2545</name></trkpt>
<trkpt lat="54.358207" lon="-3.120089"><ele>352</ele><time>2020-06-12T10:02:46Z</time><name>PT2546</name></trkpt>
<trkpt lat="54.358201" lon="-3.120102"><ele>352</ele><time>2020-06-12T10:02:47Z</time><name>PT2547</name></trkpt>
<trkpt lat="54.358194" lon="-3.120116"><ele>352</ele><time>2020-06-12T10:02:48Z</time><name>PT2548</name></trkpt>
<trkpt lat="54.358188" lon="-3.120128"><ele>352</ele><time>2020-06-12T10:02:49Z</time><name>PT2549</name></trkpt>
<trkpt lat="54.358180" lon="-3.120146"><ele>352</ele><time>2020-06-12T10:02:50Z</time><name>PT2550</name></trkpt>
<trkpt lat="54.358176" lon="-3.120157"><ele>352</ele><time>2020-06-12T10:02:51Z</time><name>PT2551</name></trkpt>
<trkpt lat="54.358169" lon="-3.120175"><ele>353</ele><time>2020-06-12T10:02:52Z</time><name>PT2552</name></trkpt>
<trkpt lat="54.358164" lon="-3.120188"><ele>353</ele><time>2020-06-12T10:02:53Z</time><name>PT2553</name></trkpt>
<trkpt lat="54.358159" lon="-3.120201"><ele>353</ele><time>2020-06-12T10:02:54Z</time><name>PT2554</name></trkpt>
<trkpt lat="54.358153" lon="-3.120216"><ele>353</ele><time>2020-06-12T10:02:55Z</time><name>PT2555</name></trkpt>
<trkpt lat="54.358149" lon="-3.120232"><ele>353</ele><time>2020-06-12T10:02:56Z</time><name>PT2556</name></trkpt>
<trkpt lat="54.358144" lon="-3.120247"><ele>353</ele><time>2020-06-12T10:02:57Z</time><name>PT2557</name></trkpt>
<trkpt lat="54.358140" lon="-3.120264"><ele>354</ele><time>2020-06-12T10:02:58Z</time><name>PT2558</name></trkpt>
<trkpt lat="54.358135" lon="-3.120282"><ele>354</ele><time>2020-06-12T10:02:59Z</time><name>PT2559</name></trkpt>
<trkpt lat="54.358131" lon="-3.120298"><ele>354</ele><time>2020-06-12T10:03:00Z</time><name>PT2560</name></trkpt>
<trkpt lat="54.358129" lon="-3.120313"><ele>354</ele><time>2020-06-12T10:03:01Z</time><name>PT2561</name></trkpt>
<trkpt lat="54.358128" lon="-3.120329"><ele>355</ele><time>2020-06-12T10:03:02Z</time><name>PT2562</name></trkpt>
<trkpt lat="54.358127" lon="-3.120343"><ele>355</ele><time>2020-06-12T10:03:03Z</time><name>PT2563</name></trkpt>
<trkpt lat="54.358124" lon="-3.120357"><ele>355</ele><time>2020-06-12T10:03:04Z</time><name>PT2564</name></trkpt>
<trkpt lat="54.358125" lon="-3.120369"><ele>355</ele><time>2020-06-12T10:03:05Z</time><name>PT2565</name></trkpt>
<trkpt lat="54.358126" lon="-3.120382"><ele>356</ele><time>2020-06-12T10:03:06Z</time><name>PT2566</name></trkpt>
<trkpt lat="54.358128" lon="-3.120399"><ele>356</ele><time>2020-06-12T10:03:07Z</time><name>PT2567</name></trkpt>
<trkpt lat="54.358126" lon="-3.120411"><ele>356</ele><time>2020-06-12T10:03:08Z</time><name>PT2568</name></trkpt>
<trkpt lat="54.358125" lon="-3.120422"><ele>357</ele><time>2020-06-12T10:03:09Z</time><name>PT2569</name></trkpt>
<trkpt lat="54.358125" lon="-3.120425"><ele>356</ele><time>2020-06-12T10:03:10Z</time><name>PT2570</name></trkpt>
<trkpt lat="54.358124" lon="-3.120430"><ele>357</ele><time>2020-06-12T10:03:11Z</time><name>PT2571</name></trkpt>
<trkpt lat="54.358124" lon="-3.120435"><ele>357</ele><time>2020-06-12T10:03:13Z</time><name>PT2572</name></trkpt>
<trkpt lat="54.358123" lon="-3.120439"><ele>357</ele><time>2020-06-12T10:03:14Z</time><name>PT2573</name></trkpt>
<trkpt lat="54.358123" lon="-3.120434"><ele>356</ele><time>2020-06-12T10:03:15Z</time><name>PT2574</name></trkpt>
<trkpt lat="54.358123" lon="-3.120431"><ele>356</ele><time>2020-06-12T10:03:16Z</time><name>PT2575</name></trkpt>
<trkpt lat="54.358122" lon="-3.120409"><ele>356</ele><time>2020-06-12T10:03:17Z</time><name>PT2576</name></trkpt>
<trkpt lat="54.358124" lon="-3.120394"><ele>356</ele><time>2020-06-12T10:03:18Z</time><name>PT2577</name></trkpt>
<trkpt lat="54.358125" lon="-3.120382"><ele>356</ele><time>2020-06-12T10:03:19Z</time><name>PT2578</name></trkpt>
<trkpt lat="54.358128" lon="-3.120365"><ele>356</ele><time>2020-06-12T10:03:20Z</time><name>PT2579</name></trkpt>
<trkpt lat="54.358130" lon="-3.120349"><ele>356</ele><time>2020-06-12T10:03:21Z</time><name>PT2580</name></trkpt>
<trkpt lat="54.358136" lon="-3.120332"><ele>356</ele><time>2020-06-12T10:03:22Z</time><name>PT2581</name></trkpt>
<trkpt lat="54.358142" lon="-3.120313"><ele>355</ele><time>2020-06-12T10:03:23Z</time><name>PT2582</name></trkpt>
<trkpt lat="54.358147" lon="-3.120300"><ele>355</ele><time>2020-06-12T10:03:24Z</time><name>PT2583</name></trkpt>
<trkpt lat="54.358154" lon="-3.120284"><ele>355</ele><time>2020-06-12T10:03:25Z</time><name>PT2584</name></trkpt>
<trkpt lat="54.358157" lon="-3.120266"><ele>355</ele><time>2020-06-12T10:03:26Z</time><name>PT2585</name></trkpt>
<trkpt lat="54.358160" lon="-3.120250"><ele>355</ele><time>2020-06-12T10:03:27Z</time><name>PT2586</name></trkpt>
<trkpt lat="54.358164" lon="-3.120230"><ele>355</ele><time>2020-06-12T10:03:28Z</time><name>PT2587</name></trkpt>
<trkpt lat="54.358172" lon="-3.120215"><ele>354</ele><time>2020-06-12T10:03:29Z</time><name>PT2588</name></trkpt>
<trkpt lat="54.358179" lon="-3.120199"><ele>354</ele><time>2020-06-12T10:03:30Z</time><name>PT2589</name></trkpt>
<trkpt lat="54.358186" lon="-3.120184"><ele>354</ele><time>2020-06-12T10:03:32Z</time><name>PT2590</name></trkpt>
<trkpt lat="54.358192" lon="-3.120172"><ele>354</ele><time>2020-06-12T10:03:32Z</time><name>PT2591</name></trkpt>
<trkpt lat="54.358197" lon="-3.120158"><ele>353</ele><time>2020-06-12T10:03:33Z</time><name>PT2592</name></trkpt>
<trkpt lat="54.358205" lon="-3.120145"><ele>353</ele><time>2020-06-12T10:03:35Z</time><name>PT2593</name></trkpt>
<trkpt lat="54.358214" lon="-3.120135"><ele>353</ele><time>2020-06-12T10:03:35Z</time><name>PT2594</name></trkpt>
<trkpt lat="54.358222" lon="-3.120123"><ele>353</ele><time>2020-06-12T10:03:36Z</time><name>PT2595</name></trkpt>
<trkpt lat="54.358231" lon="-3.120114"><ele>353</ele><time>2020-06-12T10:03:38Z</time><name>PT2596</name></trkpt>
<trkpt lat="54.358238" lon="-3.120100"><ele>352</ele><time>2020-06-12T10:03:38Z</time><name>PT2597</name></trkpt>
<trkpt lat="54.358242" lon="-3.120085"><ele>352</ele><time>2020-06-12T10:03:39Z</time><name>PT2598</name></trkpt>
<trkpt lat="54.358246" lon="-3.120070"><ele>352</ele><time>2020-06-12T10:03:41Z</time><name>PT2599</name></trkpt>
<trkpt lat="54.358254" lon="-3.120057"><ele>352</ele><time>2020-06-12T10:03:41Z</time><name>PT2600</name></trkpt>
<trkpt lat="54.358259" lon="-3.120045"><ele>352</ele><time>2020-06-12T10:03:42Z</time><name>PT2601</name></trkpt>
<trkpt lat="54.358265" lon="-3.120036"><ele>352</ele><time>2020-06-12T10:03:44Z</time><name>PT2602</name></trkpt>
<trkpt lat="54.358269" lon="-3.120027"><ele>351</ele><time>2020-06-12T10:03:44Z</time><name>PT2603</name></trkpt>
<trkpt lat="54.358273" lon="-3.120016"><ele>351</ele><time>2020-06-12T10:03:45Z</time><name>PT2604</name></trkpt>
<trkpt lat="54.358279" lon="-3.120005"><ele>351</ele><time>2020-06-12T10:03:47Z</time><name>PT2605</name></trkpt>
<trkpt lat="54.358282" lon="-3.119992"><ele>351</ele><time>2020-06-12T10:03:48Z</time><name>PT2606</name></trkpt>
<trkpt lat="54.358283" lon="-3.119980"><ele>351</ele><time>2020-06-12T10:03:48Z</time><name>PT2607</name></trkpt>
<trkpt lat="54.358285" lon="-3.119968"><ele>351</ele><time>2020-06-12T10:03:49Z</time><name>PT2608</name></trkpt>
<trkpt lat="54.358288" lon="-3.119947"><ele>352</ele><time>2020-06-12T10:03:50Z</time><name>PT2609</name></trkpt>
<trkpt lat="54.358295" lon="-3.119942"><ele>351</ele><time>2020-06-12T10:03:51Z</time><name>PT2610</name></trkpt>
<trkpt lat="54.358295" lon="-3.119930"><ele>351</ele><time>2020-06-12T10:03:52Z</time><name>PT2611</name></trkpt>
<trkpt lat="54.358303" lon="-3.119918"><ele>351</ele><time>2020-06-12T10:03:53Z</time><name>PT2612</name></trkpt>
<trkpt lat="54.358307" lon="-3.119905"><ele>351</ele><time>2020-06-12T10:03:54Z</time><name>PT2613</name></trkpt>
<trkpt lat="54.358311" lon="-3.119893"><ele>351</ele><time>2020-06-12T10:03:55Z</time><name>PT2614</name></trkpt>
<trkpt lat="54.358311" lon="-3.119879"><ele>350</ele><time>2020-06-12T10:03:56Z</time><name>PT2615</name></trkpt>
<trkpt lat="54.358311" lon="-3.119864"><ele>350</ele><time>2020-06-12T10:03:57Z</time><name>PT2616</name></trkpt>
<trkpt lat="54.358312" lon="-3.119851"><ele>350</ele><time>2020-06-12T10:03:58Z</time><name>PT2617</name></trkpt>
<trkpt lat="54.358311" lon="-3.119837"><ele>350</ele><time>2020-06-12T10:03:59Z</time><name>PT2618</name></trkpt>
<trkpt lat="54.358312" lon="-3.119825"><ele>350</ele><time>2020-06-12T10:04:00Z</time><name>PT2619</name></trkpt>
<trkpt lat="54.358311" lon="-3.119811"><ele>350</ele><time>2020-06-12T10:04:01Z</time><name>PT2620</name></trkpt>
<trkpt lat="54.358312" lon="-3.119802"><ele>349</ele><time>2020-06-12T10:04:02Z</time><name>PT2621</name></trkpt>
<trkpt lat="54.358312" lon="-3.119793"><ele>349</ele><time>2020-06-12T10:04:03Z</time><name>PT2622</name></trkpt>
<trkpt lat="54.358313" lon="-3.119789"><ele>349</ele><time>2020-06-12T10:04:04Z</time><name>PT2623</name></trkpt>
<trkpt lat="54.358313" lon="-3.119781"><ele>350</ele><time>2020-06-12T10:04:05Z</time><name>PT2624</name></trkpt>
<trkpt lat="54.358316" lon="-3.119772"><ele>350</ele><time>2020-06-12T10:04:06Z</time><name>PT2625</name></trkpt>
<trkpt lat="54.358316" lon="-3.119763"><ele>349</ele><time>2020-06-12T10:04:07Z</time><name>PT2626</name></trkpt>
<trkpt lat="54.358316" lon="-3.119759"><ele>349</ele><time>2020-06-12T10:04:08Z</time><name>PT2627</name></trkpt>
<trkpt lat="54.358317" lon="-3.119754"><ele>349</ele><time>2020-06-12T10:04:09Z</time><name>PT2628</name></trkpt>
<trkpt lat="54.358319" lon="-3.119747"><ele>349</ele><time>2020-06-12T10:04:10Z</time><name>PT2629</name></trkpt>
<trkpt lat="54.358321" lon="-3.119740"><ele>349</ele><time>2020-06-12T10:04:11Z</time><name>PT2630</name></trkpt>
<trkpt lat="54.358325" lon="-3.119717"><ele>350</ele><time>2020-06-12T10:04:18Z</time><name>PT2631</name></trkpt>
<trkpt lat="54.358330" lon="-3.119703"><ele>350</ele><time>2020-06-12T10:04:19Z</time><name>PT2632</name></trkpt>
<trkpt lat="54.358333" lon="-3.119694"><ele>350</ele><time>2020-06-12T10:04:20Z</time><name>PT2633</name></trkpt>
<trkpt lat="54.358334" lon="-3.119685"><ele>350</ele><time>2020-06-12T10:04:21Z</time><name>PT2634</name></trkpt>
<trkpt lat="54.358336" lon="-3.119673"><ele>349</ele><time>2020-06-12T10:04:22Z</time><name>PT2635</name></trkpt>
<trkpt lat="54.358342" lon="-3.119660"><ele>349</ele><time>2020-06-12T10:04:23Z</time><name>PT2636</name></trkpt>
<trkpt lat="54.358351" lon="-3.119643"><ele>349</ele><time>2020-06-12T10:04:24Z</time><name>PT2637</name></trkpt>
<trkpt lat="54.358353" lon="-3.119635"><ele>349</ele><time>2020-06-12T10:04:25Z</time><name>PT2638</name></trkpt>
<trkpt lat="54.358358" lon="-3.119629"><ele>349</ele><time>2020-06-12T10:04:26Z</time><name>PT2639</name></trkpt>
<trkpt lat="54.358361" lon="-3.119624"><ele>349</ele><time>2020-06-12T10:04:27Z</time><name>PT2640</name></trkpt>
<trkpt lat="54.358364" lon="-3.119616"><ele>350</ele><time>2020-06-12T10:04:28Z</time><name>PT2641</name></trkpt>
<trkpt lat="54.358370" lon="-3.119607"><ele>350</ele><time>2020-06-12T10:04:29Z</time><name>PT2642</name></trkpt>
<trkpt lat="54.358374" lon="-3.119594"><ele>349</ele><time>2020-06-12T10:04:30Z</time><name>PT2643</name></trkpt>
<trkpt lat="54.358381" lon="-3.119591"><ele>349</ele><time>2020-06-12T10:04:31Z</time><name>PT2644</name></trkpt>
<trkpt lat="54.358392" lon="-3.119578"><ele>349</ele><time>2020-06-12T10:04:32Z</time><name>PT2645</name></trkpt>
<trkpt lat="54.358406" lon="-3.119575"><ele>349</ele><time>2020-06-12T10:04:33Z</time><name>PT2646</name></trkpt>
<trkpt lat="54.358415" lon="-3.119575"><ele>349</ele><time>2020-06-12T10:04:34Z</time><name>PT2647</name></trkpt>
<trkpt lat="54.358424" lon="-3.119574"><ele>349</ele><time>2020-06-12T10:04:35Z</time><name>PT2648</name></trkpt>
<trkpt lat="54.358432" lon="-3.119571"><ele>348</ele><time>2020-06-12T10:04:36Z</time><name>PT2649</name></trkpt>
<trkpt lat="54.358440" lon="-3.119567"><ele>348</ele><time>2020-06-12T10:04:37Z</time><name>PT2650</name></trkpt>
<trkpt lat="54.358447" lon="-3.119558"><ele>348</ele><time>2020-06-12T10:04:38Z</time><name>PT2651</name></trkpt>
<trkpt lat="54.358454" lon="-3.119554"><ele>348</ele><time>2020-06-12T10:04:40Z</time><name>PT2652</name></trkpt>
<trkpt lat="54.358459" lon="-3.119552"><ele>349</ele><time>2020-06-12T10:04:40Z</time><name>PT2653</name></trkpt>
<trkpt lat="54.358471" lon="-3.119549"><ele>348</ele><time>2020-06-12T10:04:41Z</time><name>PT2654</name></trkpt>
<trkpt lat="54.358480" lon="-3.119553"><ele>348</ele><time>2020-06-12T10:04:43Z</time><name>PT2655</name></trkpt>
<trkpt lat="54.358490" lon="-3.119551"><ele>348</ele><time>2020-06-12T10:04:43Z</time><name>PT2656</name></trkpt>
<trkpt lat="54.358497" lon="-3.119544"><ele>348</ele><time>2020-06-12T10:04:44Z</time><name>PT2657</name></trkpt>
<trkpt lat="54.358503" lon="-3.119539"><ele>349</ele><time>2020-06-12T10:04:46Z</time><name>PT2658</name></trkpt>
<trkpt lat="54.358512" lon="-3.119531"><ele>349</ele><time>2020-06-12T10:04:46Z</time><name>PT2659</name></trkpt>
<trkpt lat="54.358522" lon="-3.119526"><ele>349</ele><time>2020-06-12T10:04:47Z</time><name>PT2660</name></trkpt>
<trkpt lat="54.358526" lon="-3.119524"><ele>350</ele><time>2020-06-12T10:04:49Z</time><name>PT2661</name></trkpt>
<trkpt lat="54.358533" lon="-3.119525"><ele>350</ele><time>2020-06-12T10:04:49Z</time><name>PT2662</name></trkpt>
<trkpt lat="54.358541" lon="-3.119524"><ele>350</ele><time>2020-06-12T10:04:50Z</time><name>PT2663</name></trkpt>
<trkpt lat="54.358547" lon="-3.119527"><ele>350</ele><time>2020-06-12T10:04:52Z</time><name>PT2664</name></trkpt>
<trkpt lat="54.358553" lon="-3.119534"><ele>350</ele><time>2020-06-12T10:04:52Z</time><name>PT2665</name></trkpt>
<trkpt lat="54.358560" lon="-3.119543"><ele>350</ele><time>2020-06-12T10:04:53Z</time><name>PT2666</name></trkpt>
<trkpt lat="54.358566" lon="-3.119548"><ele>350</ele><time>2020-06-12T10:04:55Z</time><name>PT2667</name></trkpt>
<trkpt lat="54.358573" lon="-3.119553"><ele>351</ele><time>2020-06-12T10:04:55Z</time><name>PT2668</name></trkpt>
<trkpt lat="54.358587" lon="-3.119551"><ele>351</ele><time>2020-06-12T10:04:56Z</time><name>PT2669</name></trkpt>
<trkpt lat="54.358592" lon="-3.119554"><ele>351</ele><time>2020-06-12T10:04:57Z</time><name>PT2670</name></trkpt>
<trkpt lat="54.358593" lon="-3.119553"><ele>352</ele><time>2020-06-12T10:04:58Z</time><name>PT2671</name></trkpt>
<trkpt lat="54.358599" lon="-3.119552"><ele>351</ele><time>2020-06-12T10:04:59Z</time><name>PT2672</name></trkpt>
<trkpt lat="54.358604" lon="-3.119546"><ele>352</ele><time>2020-06-12T10:05:00Z</time><name>PT2673</name></trkpt>
<trkpt lat="54.358608" lon="-3.119543"><ele>352</ele><time>2020-06-12T10:05:01Z</time><name>PT2674</name></trkpt>
<trkpt lat="54.358613" lon="-3.119546"><ele>352</ele><time>2020-06-12T10:05:02Z</time><name>PT2675</name></trkpt>
<trkpt lat="54.358620" lon="-3.119548"><ele>352</ele><time>2020-06-12T10:05:03Z</time><name>PT2676</name></trkpt>
<trkpt lat="54.358626" lon="-3.119553"><ele>353</ele><time>2020-06-12T10:05:04Z</time><name>PT2677</name></trkpt>
<trkpt lat="54.358628" lon="-3.119560"><ele>353</ele><time>2020-06-12T10:05:05Z</time><name>PT2678</name></trkpt>
<trkpt lat="54.358631" lon="-3.119562"><ele>353</ele><time>2020-06-12T10:05:06Z</time><name>PT2679</name></trkpt>
<trkpt lat="54.358634" lon="-3.119564"><ele>352</ele><time>2020-06-12T10:05:07Z</time><name>PT2680</name></trkpt>
<trkpt lat="54.358640" lon="-3.119566"><ele>352</ele><time>2020-06-12T10:05:08Z</time><name>PT2681</name></trkpt>
<trkpt lat="54.358644" lon="-3.119568"><ele>352</ele><time>2020-06-12T10:05:09Z</time><name>PT2682</name></trkpt>
<trkpt lat="54.358647" lon="-3.119571"><ele>352</ele><time>2020-06-12T10:05:10Z</time><name>PT2683</name></trkpt>
<trkpt lat="54.358657" lon="-3.119591"><ele>353</ele><time>2020-06-12T10:05:12Z</time><name>PT2684</name></trkpt>
<trkpt lat="54.358663" lon="-3.119585"><ele>353</ele><time>2020-06-12T10:05:13Z</time><name>PT2685</name></trkpt>
<trkpt lat="54.358670" lon="-3.119587"><ele>353</ele><time>2020-06-12T10:05:14Z</time><name>PT2686</name></trkpt>
<trkpt lat="54.358674" lon="-3.119585"><ele>353</ele><time>2020-06-12T10:05:15Z</time><name>PT2687</name></trkpt>
<trkpt lat="54.358679" lon="-3.119583"><ele>352</ele><time>2020-06-12T10:05:16Z</time><name>PT2688</name></trkpt>
<trkpt lat="54.358681" lon="-3.119578"><ele>352</ele><time>2020-06-12T10:05:17Z</time><name>PT2689</name></trkpt>
<trkpt lat="54.358684" lon="-3.119582"><ele>352</ele><time>2020-06-12T10:05:18Z</time><name>PT2690</name></trkpt>
<trkpt lat="54.358690" lon="-3.119586"><ele>351</ele><time>2020-06-12T10:05:19Z</time><name>PT2691</name></trkpt>
<trkpt lat="54.358693" lon="-3.119589"><ele>351</ele><time>2020-06-12T10:05:20Z</time><name>PT2692</name></trkpt>
<trkpt lat="54.358697" lon="-3.119591"><ele>351</ele><time>2020-06-12T10:05:21Z</time><name>PT2693</name></trkpt>
<trkpt lat="54.358706" lon="-3.119591"><ele>351</ele><time>2020-06-12T10:05:22Z</time><name>PT2694</name></trkpt>
<trkpt lat="54.358711" lon="-3.119591"><ele>351</ele><time>2020-06-12T10:05:23Z</time><name>PT2695</name></trkpt>
<trkpt lat="54.358715" lon="-3.119587"><ele>351</ele><time>2020-06-12T10:05:24Z</time><name>PT2696</name></trkpt>
<trkpt lat="54.358721" lon="-3.119582"><ele>351</ele><time>2020-06-12T10:05:25Z</time><name>PT2697</name></trkpt>
<trkpt lat="54.358728" lon="-3.119580"><ele>351</ele><time>2020-06-12T10:05:26Z</time><name>PT2698</name></trkpt>
<trkpt lat="54.358733" lon="-3.119580"><ele>351</ele><time>2020-06-12T10:05:27Z</time><name>PT2699</name></trkpt>
<trkpt lat="54.358737" lon="-3.119582"><ele>351</ele><time>2020-06-12T10:05:28Z</time><name>PT2700</name></trkpt>
<trkpt lat="54.358740" lon="-3.119582"><ele>351</ele><time>2020-06-12T10:05:29Z</time><name>PT2701</name></trkpt>
<trkpt lat="54.358743" lon="-3.119585"><ele>351</ele><time>2020-06-12T10:05:30Z</time><name>PT2702</name></trkpt>
<trkpt lat="54.358746" lon="-3.119585"><ele>351</ele><time>2020-06-12T10:05:31Z</time><name>PT2703</name></trkpt>
<trkpt lat="54.358750" lon="-3.119583"><ele>352</ele><time>2020-06-12T10:05:32Z</time><name>PT2704</name></trkpt>
<trkpt lat="54.358753" lon="-3.119583"><ele>352</ele><time>2020-06-12T10:05:33Z</time><name>PT2705</name></trkpt>
<trkpt lat="54.358755" lon="-3.119580"><ele>352</ele><time>2020-06-12T10:05:34Z</time><name>PT2706</name></trkpt>
<trkpt lat="54.358762" lon="-3.119579"><ele>352</ele><time>2020-06-12T10:05:35Z</time><name>PT2707</name></trkpt>
<trkpt lat="54.358767" lon="-3.119576"><ele>352</ele><time>2020-06-12T10:05:36Z</time><name>PT2708</name></trkpt>
<trkpt lat="54.358770" lon="-3.119574"><ele>352</ele><time>2020-06-12T10:05:37Z</time><name>PT2709</name></trkpt>
<trkpt lat="54.358775" lon="-3.119565"><ele>353</ele><time>2020-06-12T10:05:38Z</time><name>PT2710</name></trkpt>
<trkpt lat="54.358778" lon="-3.119563"><ele>353</ele><time>2020-06-12T10:05:39Z</time><name>PT2711</name></trkpt>
<trkpt lat="54.358779" lon="-3.119563"><ele>354</ele><time>2020-06-12T10:05:40Z</time><name>PT2712</name></trkpt>
<trkpt lat="54.358781" lon="-3.119563"><ele>354</ele><time>2020-06-12T10:05:41Z</time><name>PT2713</name></trkpt>
<trkpt lat="54.358782" lon="-3.119563"><ele>354</ele><time>2020-06-12T10:05:42Z</time><name>PT2714</name></trkpt>
<trkpt lat="54.358779" lon="-3.119563"><ele>354</ele><time>2020-06-12T10:05:44Z</time><name>PT2715</name></trkpt>
<trkpt lat="54.358780" lon="-3.119558"><ele>353</ele><time>2020-06-12T10:05:45Z</time><name>PT2716</name></trkpt>
<trkpt lat="54.358784" lon="-3.119563"><ele>353</ele><time>2020-06-12T10:05:46Z</time><name>PT2717</name></trkpt>
<trkpt lat="54.358790" lon="-3.119565"><ele>353</ele><time>2020-06-12T10:05:47Z</time><name>PT2718</name></trkpt>
<trkpt lat="54.358797" lon="-3.119570"><ele>352</ele><time>2020-06-12T10:05:49Z</time><name>PT2719</name></trkpt>
<trkpt lat="54.358801" lon="-3.119570"><ele>352</ele><time>2020-06-12T10:05:49Z</time><name>PT2720</name></trkpt>
<trkpt lat="54.358809" lon="-3.119562"><ele>352</ele><time>2020-06-12T10:05:50Z</time><name>PT2721</name></trkpt>
<trkpt lat="54.358815" lon="-3.119559"><ele>352</ele><time>2020-06-12T10:05:51Z</time><name>PT2722</name></trkpt>
<trkpt lat="54.358820" lon="-3.119562"><ele>352</ele><time>2020-06-12T10:05:52Z</time><name>PT2723</name></trkpt>
<trkpt lat="54.358829" lon="-3.119561"><ele>352</ele><time>2020-06-12T10:05:53Z</time><name>PT2724</name></trkpt>
<trkpt lat="54.358837" lon="-3.119564"><ele>352</ele><time>2020-06-12T10:05:54Z</time><name>PT2725</name></trkpt>
<trkpt lat="54.358846" lon="-3.119560"><ele>353</ele><time>2020-06-12T10:05:55Z</time><name>PT2726</name></trkpt>
<trkpt lat="54.358854" lon="-3.119558"><ele>353</ele><time>2020-06-12T10:05:56Z</time><name>PT2727</name></trkpt>
<trkpt lat="54.358861" lon="-3.119558"><ele>352</ele><time>2020-06-12T10:05:57Z</time><name>PT2728</name></trkpt>
<trkpt lat="54.358866" lon="-3.119558"><ele>353</ele><time>2020-06-12T10:05:58Z</time><name>PT2729</name></trkpt>
<trkpt lat="54.358870" lon="-3.119556"><ele>352</ele><time>2020-06-12T10:05:59Z</time><name>PT2730</name></trkpt>
<trkpt lat="54.358872" lon="-3.119554"><ele>352</ele><time>2020-06-12T10:06:00Z</time><name>PT2731</name></trkpt>
<trkpt lat="54.358877" lon="-3.119551"><ele>353</ele><time>2020-06-12T10:06:01Z</time><name>PT2732</name></trkpt>
<trkpt lat="54.358884" lon="-3.119544"><ele>352</ele><time>2020-06-12T10:06:02Z</time><name>PT2733</name></trkpt>
<trkpt lat="54.358891" lon="-3.119543"><ele>352</ele><time>2020-06-12T10:06:03Z</time><name>PT2734</name></trkpt>
<trkpt lat="54.358895" lon="-3.119545"><ele>353</ele><time>2020-06-12T10:06:04Z</time><name>PT2735</name></trkpt>
<trkpt lat="54.358900" lon="-3.119544"><ele>353</ele><time>2020-06-12T10:06:05Z</time><name>PT2736</name></trkpt>
<trkpt lat="54.358906" lon="-3.119548"><ele>353</ele><time>2020-06-12T10:06:09Z</time><name>PT2737</name></trkpt>
<trkpt lat="54.358914" lon="-3.119545"><ele>353</ele><time>2020-06-12T10:06:10Z</time><name>PT2738</name></trkpt>
<trkpt lat="54.358922" lon="-3.119544"><ele>353</ele><time>2020-06-12T10:06:11Z</time><name>PT2739</name></trkpt>
<trkpt lat="54.358930" lon="-3.119545"><ele>353</ele><time>2020-06-12T10:06:12Z</time><name>PT2740</name></trkpt>
<trkpt lat="54.358935" lon="-3.119543"><ele>353</ele><time>2020-06-12T10:06:13Z</time><name>PT2741</name></trkpt>
<trkpt lat="54.358939" lon="-3.119540"><ele>353</ele><time>2020-06-12T10:06:14Z</time><name>PT2742</name></trkpt>
<trkpt lat="54.358943" lon="-3.119539"><ele>354</ele><time>2020-06-12T10:06:15Z</time><name>PT2743</name></trkpt>
<trkpt lat="54.358951" lon="-3.119544"><ele>353</ele><time>2020-06-12T10:06:16Z</time><name>PT2744</name></trkpt>
<trkpt lat="54.358957" lon="-3.119545"><ele>353</ele><time>2020-06-12T10:06:17Z</time><name>PT2745</name></trkpt>
<trkpt lat="54.358963" lon="-3.119545"><ele>353</ele><time>2020-06-12T10:06:18Z</time><name>PT2746</name></trkpt>
<trkpt lat="54.358965" lon="-3.119545"><ele>354</ele><time>2020-06-12T10:06:19Z</time><name>PT2747</name></trkpt>
<trkpt lat="54.358969" lon="-3.119546"><ele>354</ele><time>2020-06-12T10:06:20Z</time><name>PT2748</name></trkpt>
<trkpt lat="54.358972" lon="-3.119543"><ele>354</ele><time>2020-06-12T10:06:21Z</time><name>PT2749</name></trkpt>
<trkpt lat="54.358979" lon="-3.119535"><ele>355</ele><time>2020-06-12T10:06:22Z</time><name>PT2750</name></trkpt>
<trkpt lat="54.358980" lon="-3.119529"><ele>355</ele><time>2020-06-12T10:06:23Z</time><name>PT2751</name></trkpt>
<trkpt lat="54.358982" lon="-3.119524"><ele>355</ele><time>2020-06-12T10:06:24Z</time><name>PT2752</name></trkpt>
<trkpt lat="54.358987" lon="-3.119522"><ele>356</ele><time>2020-06-12T10:06:25Z</time><name>PT2753</name></trkpt>
<trkpt lat="54.358995" lon="-3.119526"><ele>356</ele><time>2020-06-12T10:06:26Z</time><name>PT2754</name></trkpt>
<trkpt lat="54.359002" lon="-3.119528"><ele>356</ele><time>2020-06-12T10:06:27Z</time><name>PT2755</name></trkpt>
<trkpt lat="54.359007" lon="-3.119524"><ele>357</ele><time>2020-06-12T10:06:28Z</time><name>PT2756</name></trkpt>
<trkpt lat="54.359012" lon="-3.119523"><ele>357</ele><time>2020-06-12T10:06:29Z</time><name>PT2757</name></trkpt>
<trkpt lat="54.359016" lon="-3.119523"><ele>357</ele><time>2020-06-12T10:06:30Z</time><name>PT2758</name></trkpt>
<trkpt lat="54.359021" lon="-3.119519"><ele>358</ele><time>2020-06-12T10:06:31Z</time><name>PT2759</name></trkpt>
<trkpt lat="54.359027" lon="-3.119520"><ele>358</ele><time>2020-06-12T10:06:32Z</time><name>PT2760</name></trkpt>
<trkpt lat="54.359032" lon="-3.119528"><ele>359</ele><time>2020-06-12T10:06:33Z</time><name>PT2761</name></trkpt>
<trkpt lat="54.359037" lon="-3.119536"><ele>359</ele><time>2020-06-12T10:06:34Z</time><name>PT2762</name></trkpt>
<trkpt lat="54.359037" lon="-3.119550"><ele>359</ele><time>2020-06-12T10:06:35Z</time><name>PT2763</name></trkpt>
<trkpt lat="54.359037" lon="-3.119561"><ele>360</ele><time>2020-06-12T10:06:36Z</time><name>PT2764</name></trkpt>
<trkpt lat="54.359036" lon="-3.119579"><ele>360</ele><time>2020-06-12T10:06:37Z</time><name>PT2765</name></trkpt>
<trkpt lat="54.359035" lon="-3.119594"><ele>361</ele><time>2020-06-12T10:06:38Z</time><name>PT2766</name></trkpt>
<trkpt lat="54.359035" lon="-3.119607"><ele>361</ele><time>2020-06-12T10:06:39Z</time><name>PT2767</name></trkpt>
<trkpt lat="54.359036" lon="-3.119623"><ele>362</ele><time>2020-06-12T10:06:40Z</time><name>PT2768</name></trkpt>
<trkpt lat="54.359038" lon="-3.119631"><ele>363</ele><time>2020-06-12T10:06:41Z</time><name>PT2769</name></trkpt>
<trkpt lat="54.359041" lon="-3.119641"><ele>363</ele><time>2020-06-12T10:06:42Z</time><name>PT2770</name></trkpt>
<trkpt lat="54.359042" lon="-3.119651"><ele>363</ele><time>2020-06-12T10:06:43Z</time><name>PT2771</name></trkpt>
<trkpt lat="54.359043" lon="-3.119662"><ele>363</ele><time>2020-06-12T10:06:44Z</time><name>PT2772</name></trkpt>
<trkpt lat="54.359043" lon="-3.119679"><ele>364</ele><time>2020-06-12T10:06:45Z</time><name>PT2773</name></trkpt>
<trkpt lat="54.359043" lon="-3.119697"><ele>363</ele><time>2020-06-12T10:06:46Z</time><name>PT2774</name></trkpt>
<trkpt lat="54.359043" lon="-3.119710"><ele>363</ele><time>2020-06-12T10:06:47Z</time><name>PT2775</name></trkpt>
<trkpt lat="54.359045" lon="-3.119726"><ele>362</ele><time>2020-06-12T10:06:48Z</time><name>PT2776</name></trkpt>
<trkpt lat="54.359049" lon="-3.119740"><ele>362</ele><time>2020-06-12T10:06:49Z</time><name>PT2777</name></trkpt>
<trkpt lat="54.359054" lon="-3.119755"><ele>362</ele><time>2020-06-12T10:06:50Z</time><name>PT2778</name></trkpt>
<trkpt lat="54.359059" lon="-3.119770"><ele>363</ele><time>2020-06-12T10:06:51Z</time><name>PT2779</name></trkpt>
<trkpt lat="54.359063" lon="-3.119783"><ele>363</ele><time>2020-06-12T10:06:52Z</time><name>PT2780</name></trkpt>
<trkpt lat="54.359063" lon="-3.119797"><ele>364</ele><time>2020-06-12T10:06:53Z</time><name>PT2781</name></trkpt>
<trkpt lat="54.359062" lon="-3.119813"><ele>363</ele><time>2020-06-12T10:06:54Z</time><name>PT2782</name></trkpt>
<trkpt lat="54.359062" lon="-3.119830"><ele>363</ele><time>2020-06-12T10:06:55Z</time><name>PT2783</name></trkpt>
<trkpt lat="54.359063" lon="-3.119847"><ele>363</ele><time>2020-06-12T10:06:56Z</time><name>PT2784</name></trkpt>
<trkpt lat="54.359064" lon="-3.119860"><ele>363</ele><time>2020-06-12T10:06:57Z</time><name>PT2785</name></trkpt>
<trkpt lat="54.359066" lon="-3.119874"><ele>363</ele><time>2020-06-12T10:06:58Z</time><name>PT2786</name></trkpt>
<trkpt lat="54.359069" lon="-3.119891"><ele>364</ele><time>2020-06-12T10:06:59Z</time><name>PT2787</name></trkpt>
<trkpt lat="54.359073" lon="-3.119906"><ele>364</ele><time>2020-06-12T10:07:00Z</time><name>PT2788</name></trkpt>
<trkpt lat="54.359076" lon="-3.119920"><ele>364</ele><time>2020-06-12T10:07:01Z</time><name>PT2789</name></trkpt>
<trkpt lat="54.359079" lon="-3.119931"><ele>364</ele><time>2020-06-12T10:07:02Z</time><name>PT2790</name></trkpt>
<trkpt lat="54.359083" lon="-3.119946"><ele>364</ele><time>2020-06-12T10:07:03Z</time><name>PT2791</name></trkpt>
<trkpt lat="54.359086" lon="-3.119961"><ele>365</ele><time>2020-06-12T10:07:04Z</time><name>PT2792</name></trkpt>
<trkpt lat="54.359090" lon="-3.119973"><ele>365</ele><time>2020-06-12T10:07:05Z</time><name>PT2793</name></trkpt>
<trkpt lat="54.359092" lon="-3.119980"><ele>365</ele><time>2020-06-12T10:07:06Z</time><name>PT2794</name></trkpt>
<trkpt lat="54.359095" lon="-3.119991"><ele>365</ele><time>2020-06-12T10:07:07Z</time><name>PT2795</name></trkpt>
<trkpt lat="54.359098" lon="-3.120004"><ele>365</ele><time>2020-06-12T10:07:08Z</time><name>PT2796</name></trkpt>
<trkpt lat="54.359100" lon="-3.120019"><ele>366</ele><time>2020-06-12T10:07:09Z</time><name>PT2797</name></trkpt>
<trkpt lat="54.359102" lon="-3.120034"><ele>366</ele><time>2020-06-12T10:07:10Z</time><name>PT2798</name></trkpt>
<trkpt lat="54.359105" lon="-3.120048"><ele>366</ele><time>2020-06-12T10:07:11Z</time><name>PT2799</name></trkpt>
<trkpt lat="54.359108" lon="-3.120059"><ele>365</ele><time>2020-06-12T10:07:12Z</time><name>PT2800</name></trkpt>
<trkpt lat="54.359111" lon="-3.120073"><ele>365</ele><time>2020-06-12T10:07:13Z</time><name>PT2801</name></trkpt>
<trkpt lat="54.359115" lon="-3.120084"><ele>365</ele><time>2020-06-12T10:07:14Z</time><name>PT2802</name></trkpt>
<trkpt lat="54.359120" lon="-3.120092"><ele>366</ele><time>2020-06-12T10:07:15Z</time><name>PT2803</name></trkpt>
<trkpt lat="54.359127" lon="-3.120102"><ele>366</ele><time>2020-06-12T10:07:16Z</time><name>PT2804</name></trkpt>
<trkpt lat="54.359132" lon="-3.120107"><ele>366</ele><time>2020-06-12T10:07:17Z</time><name>PT2805</name></trkpt>
<trkpt lat="54.359136" lon="-3.120116"><ele>366</ele><time>2020-06-12T10:07:19Z</time><name>PT2806</name></trkpt>
<trkpt lat="54.359139" lon="-3.120122"><ele>366</ele><time>2020-06-12T10:07:19Z</time><name>PT2807</name></trkpt>
<trkpt lat="54.359141" lon="-3.120135"><ele>365</ele><time>2020-06-12T10:07:20Z</time><name>PT2808</name></trkpt>
<trkpt lat="54.359144" lon="-3.120149"><ele>365</ele><time>2020-06-12T10:07:21Z</time><name>PT2809</name></trkpt>
<trkpt lat="54.359148" lon="-3.120160"><ele>366</ele><time>2020-06-12T10:07:22Z</time><name>PT2810</name></trkpt>
<trkpt lat="54.359151" lon="-3.120172"><ele>366</ele><time>2020-06-12T10:07:23Z</time><name>PT2811</name></trkpt>
<trkpt lat="54.359156" lon="-3.120185"><ele>366</ele><time>2020-06-12T10:07:24Z</time><name>PT2812</name></trkpt>
<trkpt lat="54.359159" lon="-3.120197"><ele>366</ele><time>2020-06-12T10:07:25Z</time><name>PT2813</name></trkpt>
<trkpt lat="54.359163" lon="-3.120206"><ele>367</ele><time>2020-06-12T10:07:26Z</time><name>PT2814</name></trkpt>
<trkpt lat="54.359166" lon="-3.120213"><ele>367</ele><time>2020-06-12T10:07:27Z</time><name>PT2815</name></trkpt>
<trkpt lat="54.359170" lon="-3.120221"><ele>366</ele><time>2020-06-12T10:07:28Z</time><name>PT2816</name></trkpt>
<trkpt lat="54.359172" lon="-3.120232"><ele>366</ele><time>2020-06-12T10:07:29Z</time><name>PT2817</name></trkpt>
<trkpt lat="54.359175" lon="-3.120244"><ele>366</ele><time>2020-06-12T10:07:30Z</time><name>PT2818</name></trkpt>
<trkpt lat="54.359178" lon="-3.120257"><ele>367</ele><time>2020-06-12T10:07:31Z</time><name>PT2819</name></trkpt>
<trkpt lat="54.359180" lon="-3.120269"><ele>367</ele><time>2020-06-12T10:07:32Z</time><name>PT2820</name></trkpt>
<trkpt lat="54.359180" lon="-3.120281"><ele>368</ele><time>2020-06-12T10:07:33Z</time><name>PT2821</name></trkpt>
<trkpt lat="54.359180" lon="-3.120293"><ele>368</ele><time>2020-06-12T10:07:34Z</time><name>PT2822</name></trkpt>
<trkpt lat="54.359182" lon="-3.120304"><ele>368</ele><time>2020-06-12T10:07:35Z</time><name>PT2823</name></trkpt>
<trkpt lat="54.359184" lon="-3.120314"><ele>369</ele><time>2020-06-12T10:07:36Z</time><name>PT2824</name></trkpt>
<trkpt lat="54.359183" lon="-3.120327"><ele>369</ele><time>2020-06-12T10:07:37Z</time><name>PT2825</name></trkpt>
<trkpt lat="54.359182" lon="-3.120339"><ele>369</ele><time>2020-06-12T10:07:38Z</time><name>PT2826</name></trkpt>
<trkpt lat="54.359185" lon="-3.120352"><ele>369</ele><time>2020-06-12T10:07:39Z</time><name>PT2827</name></trkpt>
<trkpt lat="54.359189" lon="-3.120362"><ele>369</ele><time>2020-06-12T10:07:40Z</time><name>PT2828</name></trkpt>
<trkpt lat="54.359192" lon="-3.120368"><ele>369</ele><time>2020-06-12T10:07:41Z</time><name>PT2829</name></trkpt>
<trkpt lat="54.359193" lon="-3.120371"><ele>369</ele><time>2020-06-12T10:07:42Z</time><name>PT2830</name></trkpt>
<trkpt lat="54.359194" lon="-3.120377"><ele>369</ele><time>2020-06-12T10:07:43Z</time><name>PT2831</name></trkpt>
<trkpt lat="54.359195" lon="-3.120379"><ele>370</ele><time>2020-06-12T10:07:44Z</time><name>PT2832</name></trkpt>
<trkpt lat="54.359195" lon="-3.120377"><ele>370</ele><time>2020-06-12T10:07:45Z</time><name>PT2833</name></trkpt>
<trkpt lat="54.359195" lon="-3.120376"><ele>370</ele><time>2020-06-12T10:07:46Z</time><name>PT2834</name></trkpt>
<trkpt lat="54.359199" lon="-3.120384"><ele>370</ele><time>2020-06-12T10:07:58Z</time><name>PT2835</name></trkpt>
<trkpt lat="54.359201" lon="-3.120392"><ele>371</ele><time>2020-06-12T10:07:59Z</time><name>PT2836</name></trkpt>
<trkpt lat="54.359198" lon="-3.120400"><ele>370</ele><time>2020-06-12T10:08:00Z</time><name>PT2837</name></trkpt>
<trkpt lat="54.359200" lon="-3.120412"><ele>371</ele><time>2020-06-12T10:08:01Z</time><name>PT2838</name></trkpt>
<trkpt lat="54.359209" lon="-3.120435"><ele>371</ele><time>2020-06-12T10:08:02Z</time><name>PT2839</name></trkpt>
<trkpt lat="54.359212" lon="-3.120446"><ele>371</ele><time>2020-06-12T10:08:03Z</time><name>PT2840</name></trkpt>
<trkpt lat="54.359214" lon="-3.120456"><ele>371</ele><time>2020-06-12T10:08:04Z</time><name>PT2841</name></trkpt>
<trkpt lat="54.359217" lon="-3.120471"><ele>371</ele><time>2020-06-12T10:08:05Z</time><name>PT2842</name></trkpt>
<trkpt lat="54.359222" lon="-3.120488"><ele>372</ele><time>2020-06-12T10:08:06Z</time><name>PT2843</name></trkpt>
<trkpt lat="54.359227" lon="-3.120504"><ele>372</ele><time>2020-06-12T10:08:07Z</time><name>PT2844</name></trkpt>
<trkpt lat="54.359232" lon="-3.120513"><ele>372</ele><time>2020-06-12T10:08:08Z</time><name>PT2845</name></trkpt>
<trkpt lat="54.359239" lon="-3.120524"><ele>372</ele><time>2020-06-12T10:08:09Z</time><name>PT2846</name></trkpt>
<trkpt lat="54.359248" lon="-3.120533"><ele>372</ele><time>2020-06-12T10:08:10Z</time><name>PT2847</name></trkpt>
<trkpt lat="54.359254" lon="-3.120542"><ele>372</ele><time>2020-06-12T10:08:11Z</time><name>PT2848</name></trkpt>
<trkpt lat="54.359260" lon="-3.120551"><ele>372</ele><time>2020-06-12T10:08:12Z</time><name>PT2849</name></trkpt>
<trkpt lat="54.359268" lon="-3.120557"><ele>372</ele><time>2020-06-12T10:08:13Z</time><name>PT2850</name></trkpt>
<trkpt lat="54.359279" lon="-3.120562"><ele>372</ele><time>2020-06-12T10:08:14Z</time><name>PT2851</name></trkpt>
<trkpt lat="54.359287" lon="-3.120568"><ele>373</ele><time>2020-06-12T10:08:15Z</time><name>PT2852</name></trkpt>
<trkpt lat="54.359293" lon="-3.120575"><ele>372</ele><time>2020-06-12T10:08:16Z</time><name>PT2853</name></trkpt>
<trkpt lat="54.359303" lon="-3.120583"><ele>373</ele><time>2020-06-12T10:08:17Z</time><name>PT2854</name></trkpt>
<trkpt lat="54.359310" lon="-3.120600"><ele>374</ele><time>2020-06-12T10:08:18Z</time><name>PT2855</name></trkpt>
<trkpt lat="54.359317" lon="-3.120614"><ele>374</ele><time>2020-06-12T10:08:19Z</time><name>PT2856</name></trkpt>
<trkpt lat="54.359323" lon="-3.120626"><ele>375</ele><time>2020-06-12T10:08:20Z</time><name>PT2857</name></trkpt>
<trkpt lat="54.359328" lon="-3.120639"><ele>375</ele><time>2020-06-12T10:08:21Z</time><name>PT2858</name></trkpt>
<trkpt lat="54.359333" lon="-3.120652"><ele>375</ele><time>2020-06-12T10:08:22Z</time><name>PT2859</name></trkpt>
<trkpt lat="54.359337" lon="-3.120661"><ele>374</ele><time>2020-06-12T10:08:23Z</time><name>PT2860</name></trkpt>
<trkpt lat="54.359342" lon="-3.120672"><ele>374</ele><time>2020-06-12T10:08:24Z</time><name>PT2861</name></trkpt>
<trkpt lat="54.359349" lon="-3.120681"><ele>374</ele><time>2020-06-12T10:08:25Z</time><name>PT2862</name></trkpt>
<trkpt lat="54.359355" lon="-3.120692"><ele>374</ele><time>2020-06-12T10:08:26Z</time><name>PT2863</name></trkpt>
<trkpt lat="54.359364" lon="-3.120704"><ele>374</ele><time>2020-06-12T10:08:27Z</time><name>PT2864</name></trkpt>
<trkpt lat="54.359369" lon="-3.120712"><ele>374</ele><time>2020-06-12T10:08:28Z</time><name>PT2865</name></trkpt>
<trkpt lat="54.359376" lon="-3.120717"><ele>373</ele><time>2020-06-12T10:08:29Z</time><name>PT2866</name></trkpt>
<trkpt lat="54.359385" lon="-3.120723"><ele>374</ele><time>2020-06-12T10:08:30Z</time><name>PT2867</name></trkpt>
<trkpt lat="54.359393" lon="-3.120731"><ele>374</ele><time>2020-06-12T10:08:31Z</time><name>PT2868</name></trkpt>
<trkpt lat="54.359399" lon="-3.120742"><ele>374</ele><time>2020-06-12T10:08:32Z</time><name>PT2869</name></trkpt>
<trkpt lat="54.359405" lon="-3.120753"><ele>373</ele><time>2020-06-12T10:08:33Z</time><name>PT2870</name></trkpt>
<trkpt lat="54.359411" lon="-3.120761"><ele>373</ele><time>2020-06-12T10:08:34Z</time><name>PT2871</name></trkpt>
<trkpt lat="54.359417" lon="-3.120773"><ele>373</ele><time>2020-06-12T10:08:35Z</time><name>PT2872</name></trkpt>
<trkpt lat="54.359424" lon="-3.120788"><ele>373</ele><time>2020-06-12T10:08:36Z</time><name>PT2873</name></trkpt>
<trkpt lat="54.359431" lon="-3.120800"><ele>373</ele><time>2020-06-12T10:08:37Z</time><name>PT2874</name></trkpt>
<trkpt lat="54.359434" lon="-3.120811"><ele>373</ele><time>2020-06-12T10:08:38Z</time><name>PT2875</name></trkpt>
<trkpt lat="54.359437" lon="-3.120828"><ele>374</ele><time>2020-06-12T10:08:39Z</time><name>PT2876</name></trkpt>
<trkpt lat="54.359444" lon="-3.120842"><ele>375</ele><time>2020-06-12T10:08:40Z</time><name>PT2877</name></trkpt>
<trkpt lat="54.359451" lon="-3.120854"><ele>375</ele><time>2020-06-12T10:08:41Z</time><name>PT2878</name></trkpt>
<trkpt lat="54.359456" lon="-3.120867"><ele>376</ele><time>2020-06-12T10:08:42Z</time><name>PT2879</name></trkpt>
<trkpt lat="54.359460" lon="-3.120879"><ele>376</ele><time>2020-06-12T10:08:43Z</time><name>PT2880</name></trkpt>
<trkpt lat="54.359463" lon="-3.120893"><ele>376</ele><time>2020-06-12T10:08:44Z</time><name>PT2881</name></trkpt>
<trkpt lat="54.359466" lon="-3.120904"><ele>376</ele><time>2020-06-12T10:08:45Z</time><name>PT2882</name></trkpt>
<trkpt lat="54.359468" lon="-3.120914"><ele>377</ele><time>2020-06-12T10:08:46Z</time><name>PT2883</name></trkpt>
<trkpt lat="54.359472" lon="-3.120924"><ele>377</ele><time>2020-06-12T10:08:47Z</time><name>PT2884</name></trkpt>
<trkpt lat="54.359475" lon="-3.120936"><ele>377</ele><time>2020-06-12T10:08:48Z</time><name>PT2885</name></trkpt>
<trkpt lat="54.359479" lon="-3.120949"><ele>378</ele><time>2020-06-12T10:08:49Z</time><name>PT2886</name></trkpt>
<trkpt lat="54.359483" lon="-3.120960"><ele>378</ele><time>2020-06-12T10:08:50Z</time><name>PT2887</name></trkpt>
<trkpt lat="54.359490" lon="-3.120973"><ele>378</ele><time>2020-06-12T10:08:51Z</time><name>PT2888</name></trkpt>
<trkpt lat="54.359496" lon="-3.120986"><ele>378</ele><time>2020-06-12T10:08:52Z</time><name>PT2889</name></trkpt>
<trkpt lat="54.359504" lon="-3.120998"><ele>378</ele><time>2020-06-12T10:08:53Z</time><name>PT2890</name></trkpt>
<trkpt lat="54.359507" lon="-3.121010"><ele>378</ele><time>2020-06-12T10:08:54Z</time><name>PT2891</name></trkpt>
<trkpt lat="54.359513" lon="-3.121024"><ele>378</ele><time>2020-06-12T10:08:55Z</time><name>PT2892</name></trkpt>
<trkpt lat="54.359516" lon="-3.121034"><ele>378</ele><time>2020-06-12T10:08:56Z</time><name>PT2893</name></trkpt>
<trkpt lat="54.359519" lon="-3.121051"><ele>378</ele><time>2020-06-12T10:08:57Z</time><name>PT2894</name></trkpt>
<trkpt lat="54.359521" lon="-3.121067"><ele>379</ele><time>2020-06-12T10:08:58Z</time><name>PT2895</name></trkpt>
<trkpt lat="54.359530" lon="-3.121083"><ele>380</ele><time>2020-06-12T10:08:59Z</time><name>PT2896</name></trkpt>
<trkpt lat="54.359534" lon="-3.121097"><ele>380</ele><time>2020-06-12T10:09:00Z</time><name>PT2897</name></trkpt>
<trkpt lat="54.359538" lon="-3.121110"><ele>380</ele><time>2020-06-12T10:09:01Z</time><name>PT2898</name></trkpt>
<trkpt lat="54.359544" lon="-3.121122"><ele>381</ele><time>2020-06-12T10:09:02Z</time><name>PT2899</name></trkpt>
<trkpt lat="54.359549" lon="-3.121135"><ele>381</ele><time>2020-06-12T10:09:03Z</time><name>PT2900</name></trkpt>
<trkpt lat="54.359554" lon="-3.121146"><ele>381</ele><time>2020-06-12T10:09:04Z</time><name>PT2901</name></trkpt>
<trkpt lat="54.359560" lon="-3.121160"><ele>381</ele><time>2020-06-12T10:09:05Z</time><name>PT2902</name></trkpt>
<trkpt lat="54.359565" lon="-3.121174"><ele>382</ele><time>2020-06-12T10:09:06Z</time><name>PT2903</name></trkpt>
<trkpt lat="54.359570" lon="-3.121187"><ele>382</ele><time>2020-06-12T10:09:07Z</time><name>PT2904</name></trkpt>
<trkpt lat="54.359572" lon="-3.121199"><ele>381</ele><time>2020-06-12T10:09:08Z</time><name>PT2905</name></trkpt>
<trkpt lat="54.359576" lon="-3.121212"><ele>381</ele><time>2020-06-12T10:09:09Z</time><name>PT2906</name></trkpt>
<trkpt lat="54.359582" lon="-3.121222"><ele>382</ele><time>2020-06-12T10:09:10Z</time><name>PT2907</name></trkpt>
<trkpt lat="54.359584" lon="-3.121234"><ele>381</ele><time>2020-06-12T10:09:11Z</time><name>PT2908</name></trkpt>
<trkpt lat="54.359587" lon="-3.121247"><ele>381</ele><time>2020-06-12T10:09:12Z</time><name>PT2909</name></trkpt>
<trkpt lat="54.359589" lon="-3.121265"><ele>381</ele><time>2020-06-12T10:09:13Z</time><name>PT2910</name></trkpt>
<trkpt lat="54.359592" lon="-3.121279"><ele>381</ele><time>2020-06-12T10:09:14Z</time><name>PT2911</name></trkpt>
<trkpt lat="54.359598" lon="-3.121292"><ele>382</ele><time>2020-06-12T10:09:15Z</time><name>PT2912</name></trkpt>
<trkpt lat="54.359604" lon="-3.121310"><ele>382</ele><time>2020-06-12T10:09:16Z</time><name>PT2913</name></trkpt>
<trkpt lat="54.359609" lon="-3.121324"><ele>382</ele><time>2020-06-12T10:09:17Z</time><name>PT2914</name></trkpt>
<trkpt lat="54.359615" lon="-3.121334"><ele>383</ele><time>2020-06-12T10:09:18Z</time><name>PT2915</name></trkpt>
<trkpt lat="54.359620" lon="-3.121346"><ele>382</ele><time>2020-06-12T10:09:19Z</time><name>PT2916</name></trkpt>
<trkpt lat="54.359626" lon="-3.121359"><ele>382</ele><time>2020-06-12T10:09:20Z</time><name>PT2917</name></trkpt>
<trkpt lat="54.359630" lon="-3.121372"><ele>382</ele><time>2020-06-12T10:09:21Z</time><name>PT2918</name></trkpt>
<trkpt lat="54.359639" lon="-3.121385"><ele>383</ele><time>2020-06-12T10:09:22Z</time><name>PT2919</name></trkpt>
<trkpt lat="54.359645" lon="-3.121397"><ele>384</ele><time>2020-06-12T10:09:23Z</time><name>PT2920</name></trkpt>
<trkpt lat="54.359651" lon="-3.121410"><ele>384</ele><time>2020-06-12T10:09:24Z</time><name>PT2921</name></trkpt>
<trkpt lat="54.359657" lon="-3.121420"><ele>384</ele><time>2020-06-12T10:09:25Z</time><name>PT2922</name></trkpt>
<trkpt lat="54.359664" lon="-3.121430"><ele>385</ele><time>2020-06-12T10:09:26Z</time><name>PT2923</name></trkpt>
<trkpt lat="54.359670" lon="-3.121440"><ele>385</ele><time>2020-06-12T10:09:27Z</time><name>PT2924</name></trkpt>
<trkpt lat="54.359676" lon="-3.121451"><ele>385</ele><time>2020-06-12T10:09:28Z</time><name>PT2925</name></trkpt>
<trkpt lat="54.359682" lon="-3.121463"><ele>385</ele><time>2020-06-12T10:09:29Z</time><name>PT2926</name></trkpt>
<trkpt lat="54.359687" lon="-3.121475"><ele>385</ele><time>2020-06-12T10:09:30Z</time><name>PT2927</name></trkpt>
<trkpt lat="54.359691" lon="-3.121484"><ele>386</ele><time>2020-06-12T10:09:31Z</time><name>PT2928</name></trkpt>
<trkpt lat="54.359695" lon="-3.121495"><ele>386</ele><time>2020-06-12T10:09:32Z</time><name>PT2929</name></trkpt>
<trkpt lat="54.359700" lon="-3.121507"><ele>386</ele><time>2020-06-12T10:09:33Z</time><name>PT2930</name></trkpt>
<trkpt lat="54.359705" lon="-3.121521"><ele>386</ele><time>2020-06-12T10:09:34Z</time><name>PT2931</name></trkpt>
<trkpt lat="54.359713" lon="-3.121537"><ele>387</ele><time>2020-06-12T10:09:35Z</time><name>PT2932</name></trkpt>
<trkpt lat="54.359719" lon="-3.121551"><ele>387</ele><time>2020-06-12T10:09:36Z</time><name>PT2933</name></trkpt>
<trkpt lat="54.359724" lon="-3.121567"><ele>387</ele><time>2020-06-12T10:09:37Z</time><name>PT2934</name></trkpt>
<trkpt lat="54.359731" lon="-3.121580"><ele>388</ele><time>2020-06-12T10:09:38Z</time><name>PT2935</name></trkpt>
<trkpt lat="54.359735" lon="-3.121592"><ele>388</ele><time>2020-06-12T10:09:39Z</time><name>PT2936</name></trkpt>
<trkpt lat="54.359742" lon="-3.121606"><ele>389</ele><time>2020-06-12T10:09:40Z</time><name>PT2937</name></trkpt>
<trkpt lat="54.359749" lon="-3.121620"><ele>389</ele><time>2020-06-12T10:09:41Z</time><name>PT2938</name></trkpt>
<trkpt lat="54.359755" lon="-3.121635"><ele>389</ele><time>2020-06-12T10:09:42Z</time><name>PT2939</name></trkpt>
<trkpt lat="54.359762" lon="-3.121647"><ele>389</ele><time>2020-06-12T10:09:43Z</time><name>PT2940</name></trkpt>
<trkpt lat="54.359772" lon="-3.121658"><ele>389</ele><time>2020-06-12T10:09:44Z</time><name>PT2941</name></trkpt>
<trkpt lat="54.359778" lon="-3.121671"><ele>389</ele><time>2020-06-12T10:09:45Z</time><name>PT2942</name></trkpt>
<trkpt lat="54.359784" lon="-3.121684"><ele>389</ele><time>2020-06-12T10:09:46Z</time><name>PT2943</name></trkpt>
<trkpt lat="54.359791" lon="-3.121695"><ele>390</ele><time>2020-06-12T10:09:47Z</time><name>PT2944</name></trkpt>
<trkpt lat="54.359796" lon="-3.121705"><ele>390</ele><time>2020-06-12T10:09:48Z</time><name>PT2945</name></trkpt>
<trkpt lat="54.359799" lon="-3.121717"><ele>391</ele><time>2020-06-12T10:09:49Z</time><name>PT2946</name></trkpt>
<trkpt lat="54.359804" lon="-3.121728"><ele>391</ele><time>2020-06-12T10:09:50Z</time><name>PT2947</name></trkpt>
<trkpt lat="54.359812" lon="-3.121738"><ele>391</ele><time>2020-06-12T10:09:51Z</time><name>PT2948</name></trkpt>
<trkpt lat="54.359820" lon="-3.121745"><ele>392</ele><time>2020-06-12T10:09:52Z</time><name>PT2949</name></trkpt>
<trkpt lat="54.359828" lon="-3.121753"><ele>392</ele><time>2020-06-12T10:09:53Z</time><name>PT2950</name></trkpt>
<trkpt lat="54.359833" lon="-3.121763"><ele>391</ele><time>2020-06-12T10:09:54Z</time><name>PT2951</name></trkpt>
<trkpt lat="54.359839" lon="-3.121777"><ele>392</ele><time>2020-06-12T10:09:55Z</time><name>PT2952</name></trkpt>
<trkpt lat="54.359846" lon="-3.121790"><ele>392</ele><time>2020-06-12T10:09:56Z</time><name>PT2953</name></trkpt>
<trkpt lat="54.359853" lon="-3.121800"><ele>392</ele><time>2020-06-12T10:09:57Z</time><name>PT2954</name></trkpt>
<trkpt lat="54.359859" lon="-3.121809"><ele>392</ele><time>2020-06-12T10:09:58Z</time><name>PT2955</name></trkpt>
<trkpt lat="54.359865" lon="-3.121815"><ele>392</ele><time>2020-06-12T10:09:59Z</time><name>PT2956</name></trkpt>
<trkpt lat="54.359873" lon="-3.121820"><ele>392</ele><time>2020-06-12T10:10:00Z</time><name>PT2957</name></trkpt>
<trkpt lat="54.359881" lon="-3.121827"><ele>392</ele><time>2020-06-12T10:10:01Z</time><name>PT2958</name></trkpt>
<trkpt lat="54.359890" lon="-3.121833"><ele>393</ele><time>2020-06-12T10:10:02Z</time><name>PT2959</name></trkpt>
<trkpt lat="54.359898" lon="-3.121841"><ele>393</ele><time>2020-06-12T10:10:03Z</time><name>PT2960</name></trkpt>
<trkpt lat="54.359905" lon="-3.121848"><ele>392</ele><time>2020-06-12T10:10:04Z</time><name>PT2961</name></trkpt>
<trkpt lat="54.359912" lon="-3.121857"><ele>392</ele><time>2020-06-12T10:10:05Z</time><name>PT2962</name></trkpt>
<trkpt lat="54.359922" lon="-3.121868"><ele>392</ele><time>2020-06-12T10:10:06Z</time><name>PT2963</name></trkpt>
<trkpt lat="54.359931" lon="-3.121877"><ele>392</ele><time>2020-06-12T10:10:07Z</time><name>PT2964</name></trkpt>
<trkpt lat="54.359940" lon="-3.121888"><ele>392</ele><time>2020-06-12T10:10:08Z</time><name>PT2965</name></trkpt>
<trkpt lat="54.359948" lon="-3.121899"><ele>393</ele><time>2020-06-12T10:10:09Z</time><name>PT2966</name></trkpt>
<trkpt lat="54.359954" lon="-3.121910"><ele>392</ele><time>2020-06-12T10:10:10Z</time><name>PT2967</name></trkpt>
<trkpt lat="54.359962" lon="-3.121918"><ele>392</ele><time>2020-06-12T10:10:11Z</time><name>PT2968</name></trkpt>
<trkpt lat="54.359968" lon="-3.121928"><ele>392</ele><time>2020-06-12T10:10:12Z</time><name>PT2969</name></trkpt>
<trkpt lat="54.359977" lon="-3.121941"><ele>392</ele><time>2020-06-12T10:10:13Z</time><name>PT2970</name></trkpt>
<trkpt lat="54.359983" lon="-3.121952"><ele>392</ele><time>2020-06-12T10:10:14Z</time><name>PT2971</name></trkpt>
<trkpt lat="54.359989" lon="-3.121960"><ele>392</ele><time>2020-06-12T10:10:15Z</time><name>PT2972</name></trkpt>
<trkpt lat="54.359995" lon="-3.121969"><ele>393</ele><time>2020-06-12T10:10:16Z</time><name>PT2973</name></trkpt>
<trkpt lat="54.360004" lon="-3.121979"><ele>393</ele><time>2020-06-12T10:10:17Z</time><name>PT2974</name></trkpt>
<trkpt lat="54.360011" lon="-3.121988"><ele>394</ele><time>2020-06-12T10:10:18Z</time><name>PT2975</name></trkpt>
<trkpt lat="54.360014" lon="-3.122002"><ele>394</ele><time>2020-06-12T10:10:19Z</time><name>PT2976</name></trkpt>
<trkpt lat="54.360018" lon="-3.122014"><ele>394</ele><time>2020-06-12T10:10:20Z</time><name>PT2977</name></trkpt>
<trkpt lat="54.360024" lon="-3.122026"><ele>394</ele><time>2020-06-12T10:10:21Z</time><name>PT2978</name></trkpt>
<trkpt lat="54.360030" lon="-3.122040"><ele>395</ele><time>2020-06-12T10:10:22Z</time><name>PT2979</name></trkpt>
<trkpt lat="54.360034" lon="-3.122054"><ele>395</ele><time>2020-06-12T10:10:23Z</time><name>PT2980</name></trkpt>
<trkpt lat="54.360037" lon="-3.122066"><ele>393</ele><time>2020-06-12T10:10:24Z</time><name>PT2981</name></trkpt>
<trkpt lat="54.360044" lon="-3.122079"><ele>393</ele><time>2020-06-12T10:10:25Z</time><name>PT2982</name></trkpt>
<trkpt lat="54.360050" lon="-3.122091"><ele>394</ele><time>2020-06-12T10:10:26Z</time><name>PT2983</name></trkpt>
<trkpt lat="54.360057" lon="-3.122103"><ele>394</ele><time>2020-06-12T10:10:27Z</time><name>PT2984</name></trkpt>
<trkpt lat="54.360064" lon="-3.122115"><ele>393</ele><time>2020-06-12T10:10:28Z</time><name>PT2985</name></trkpt>
<trkpt lat="54.360071" lon="-3.122125"><ele>393</ele><time>2020-06-12T10:10:29Z</time><name>PT2986</name></trkpt>
<trkpt lat="54.360078" lon="-3.122136"><ele>393</ele><time>2020-06-12T10:10:30Z</time><name>PT2987</name></trkpt>
<trkpt lat="54.360085" lon="-3.122151"><ele>393</ele><time>2020-06-12T10:10:31Z</time><name>PT2988</name></trkpt>
<trkpt lat="54.360090" lon="-3.122165"><ele>393</ele><time>2020-06-12T10:10:32Z</time><name>PT2989</name></trkpt>
<trkpt lat="54.360095" lon="-3.122180"><ele>393</ele><time>2020-06-12T10:10:33Z</time><name>PT2990</name></trkpt>
<trkpt lat="54.360102" lon="-3.122192"><ele>393</ele><time>2020-06-12T10:10:34Z</time><name>PT2991</name></trkpt>
<trkpt lat="54.360109" lon="-3.122202"><ele>393</ele><time>2020-06-12T10:10:35Z</time><name>PT2992</name></trkpt>
<trkpt lat="54.360116" lon="-3.122212"><ele>393</ele><time>2020-06-12T10:10:36Z</time><name>PT2993</name></trkpt>
<trkpt lat="54.360122" lon="-3.122221"><ele>393</ele><time>2020-06-12T10:10:37Z</time><name>PT2994</name></trkpt>
<trkpt lat="54.360130" lon="-3.122231"><ele>393</ele><time>2020-06-12T10:10:38Z</time><name>PT2995</name></trkpt>
<trkpt lat="54.360138" lon="-3.122239"><ele>394</ele><time>2020-06-12T10:10:39Z</time><name>PT2996</name></trkpt>
<trkpt lat="54.360144" lon="-3.122250"><ele>394</ele><time>2020-06-12T10:10:40Z</time><name>PT2997</name></trkpt>
<trkpt lat="54.360149" lon="-3.122260"><ele>394</ele><time>2020-06-12T10:10:41Z</time><name>PT2998</name></trkpt>
<trkpt lat="54.360156" lon="-3.122267"><ele>395</ele><time>2020-06-12T10:10:42Z</time><name>PT2999</name></trkpt>
<trkpt lat="54.360163" lon="-3.122275"><ele>395</ele><time>2020-06-12T10:10:43Z</time><name>PT3000</name></trkpt>
<trkpt lat="54.360171" lon="-3.122286"><ele>395</ele><time>2020-06-12T10:10:44Z</time><name>PT3001</name></trkpt>
<trkpt lat="54.360178" lon="-3.122297"><ele>395</ele><time>2020-06-12T10:10:45Z</time><name>PT3002</name></trkpt>
<trkpt lat="54.360185" lon="-3.122306"><ele>396</ele><time>2020-06-12T10:10:46Z</time><name>PT3003</name></trkpt>
<trkpt lat="54.360193" lon="-3.122315"><ele>396</ele><time>2020-06-12T10:10:47Z</time><name>PT3004</name></trkpt>
<trkpt lat="54.360199" lon="-3.122324"><ele>395</ele><time>2020-06-12T10:10:48Z</time><name>PT3005</name></trkpt>
<trkpt lat="54.360205" lon="-3.122332"><ele>396</ele><time>2020-06-12T10:10:49Z</time><name>PT3006</name></trkpt>
<trkpt lat="54.360211" lon="-3.122340"><ele>396</ele><time>2020-06-12T10:10:50Z</time><name>PT3007</name></trkpt>
<trkpt lat="54.360216" lon="-3.122349"><ele>397</ele><time>2020-06-12T10:10:51Z</time><name>PT3008</name></trkpt>
<trkpt lat="54.360221" lon="-3.122358"><ele>396</ele><time>2020-06-12T10:10:52Z</time><name>PT3009</name></trkpt>
<trkpt lat="54.360228" lon="-3.122370"><ele>397</ele><time>2020-06-12T10:10:53Z</time><name>PT3010</name></trkpt>
<trkpt lat="54.360233" lon="-3.122378"><ele>397</ele><time>2020-06-12T10:10:54Z</time><name>PT3011</name></trkpt>
<trkpt lat="54.360241" lon="-3.122388"><ele>397</ele><time>2020-06-12T10:10:55Z</time><name>PT3012</name></trkpt>
<trkpt lat="54.360249" lon="-3.122402"><ele>397</ele><time>2020-06-12T10:10:56Z</time><name>PT3013</name></trkpt>
<trkpt lat="54.360258" lon="-3.122412"><ele>398</ele><time>2020-06-12T10:10:57Z</time><name>PT3014</name></trkpt>
<trkpt lat="54.360265" lon="-3.122418"><ele>398</ele><time>2020-06-12T10:10:58Z</time><name>PT3015</name></trkpt>
<trkpt lat="54.360272" lon="-3.122426"><ele>398</ele><time>2020-06-12T10:10:59Z</time><name>PT3016</name></trkpt>
<trkpt lat="54.360281" lon="-3.122430"><ele>399</ele><time>2020-06-12T10:11:00Z</time><name>PT3017</name></trkpt>
<trkpt lat="54.360290" lon="-3.122436"><ele>399</ele><time>2020-06-12T10:11:01Z</time><name>PT3018</name></trkpt>
<trkpt lat="54.360297" lon="-3.122445"><ele>399</ele><time>2020-06-12T10:11:02Z</time><name>PT3019</name></trkpt>
<trkpt lat="54.360306" lon="-3.122454"><ele>399</ele><time>2020-06-12T10:11:03Z</time><name>PT3020</name></trkpt>
<trkpt lat="54.360310" lon="-3.122463"><ele>399</ele><time>2020-06-12T10:11:04Z</time><name>PT3021</name></trkpt>
<trkpt lat="54.360316" lon="-3.122473"><ele>399</ele><time>2020-06-12T10:11:05Z</time><name>PT3022</name></trkpt>
<trkpt lat="54.360321" lon="-3.122486"><ele>399</ele><time>2020-06-12T10:11:06Z</time><name>PT3023</name></trkpt>
<trkpt lat="54.360327" lon="-3.122498"><ele>400</ele><time>2020-06-12T10:11:07Z</time><name>PT3024</name></trkpt>
<trkpt lat="54.360335" lon="-3.122509"><ele>400</ele><time>2020-06-12T10:11:08Z</time><name>PT3025</name></trkpt>
<trkpt lat="54.360344" lon="-3.122520"><ele>400</ele><time>2020-06-12T10:11:09Z</time><name>PT3026</name></trkpt>
<trkpt lat="54.360351" lon="-3.122529"><ele>401</ele><time>2020-06-12T10:11:10Z</time><name>PT3027</name></trkpt>
<trkpt lat="54.360361" lon="-3.122539"><ele>402</ele><time>2020-06-12T10:11:11Z</time><name>PT3028</name></trkpt>
<trkpt lat="54.360368" lon="-3.122545"><ele>403</ele><time>2020-06-12T10:11:12Z</time><name>PT3029</name></trkpt>
<trkpt lat="54.360374" lon="-3.122551"><ele>403</ele><time>2020-06-12T10:11:13Z</time><name>PT3030</name></trkpt>
<trkpt lat="54.360382" lon="-3.122556"><ele>403</ele><time>2020-06-12T10:11:15Z</time><name>PT3031</name></trkpt>
<trkpt lat="54.360388" lon="-3.122566"><ele>404</ele><time>2020-06-12T10:11:15Z</time><name>PT3032</name></trkpt>
<trkpt lat="54.360394" lon="-3.122575"><ele>404</ele><time>2020-06-12T10:11:16Z</time><name>PT3033</name></trkpt>
<trkpt lat="54.360401" lon="-3.122583"><ele>405</ele><time>2020-06-12T10:11:17Z</time><name>PT3034</name></trkpt>
<trkpt lat="54.360407" lon="-3.122589"><ele>404</ele><time>2020-06-12T10:11:18Z</time><name>PT3035</name></trkpt>
<trkpt lat="54.360412" lon="-3.122596"><ele>403</ele><time>2020-06-12T10:11:19Z</time><name>PT3036</name></trkpt>
<trkpt lat="54.360417" lon="-3.122606"><ele>404</ele><time>2020-06-12T10:11:21Z</time><name>PT3037</name></trkpt>
<trkpt lat="54.360421" lon="-3.122618"><ele>404</ele><time>2020-06-12T10:11:21Z</time><name>PT3038</name></trkpt>
<trkpt lat="54.360425" lon="-3.122629"><ele>405</ele><time>2020-06-12T10:11:22Z</time><name>PT3039</name></trkpt>
<trkpt lat="54.360429" lon="-3.122638"><ele>404</ele><time>2020-06-12T10:11:23Z</time><name>PT3040</name></trkpt>
<trkpt lat="54.360431" lon="-3.122650"><ele>404</ele><time>2020-06-12T10:11:25Z</time><name>PT3041</name></trkpt>
<trkpt lat="54.360435" lon="-3.122663"><ele>405</ele><time>2020-06-12T10:11:25Z</time><name>PT3042</name></trkpt>
<trkpt lat="54.360439" lon="-3.122675"><ele>405</ele><time>2020-06-12T10:11:26Z</time><name>PT3043</name></trkpt>
<trkpt lat="54.360442" lon="-3.122683"><ele>405</ele><time>2020-06-12T10:11:27Z</time><name>PT3044</name></trkpt>
<trkpt lat="54.360443" lon="-3.122689"><ele>405</ele><time>2020-06-12T10:11:28Z</time><name>PT3045</name></trkpt>
<trkpt lat="54.360444" lon="-3.122699"><ele>405</ele><time>2020-06-12T10:11:29Z</time><name>PT3046</name></trkpt>
<trkpt lat="54.360445" lon="-3.122706"><ele>404</ele><time>2020-06-12T10:11:30Z</time><name>PT3047</name></trkpt>
<trkpt lat="54.360448" lon="-3.122716"><ele>404</ele><time>2020-06-12T10:11:31Z</time><name>PT3048</name></trkpt>
<trkpt lat="54.360453" lon="-3.122729"><ele>404</ele><time>2020-06-12T10:11:32Z</time><name>PT3049</name></trkpt>
<trkpt lat="54.360454" lon="-3.122742"><ele>404</ele><time>2020-06-12T10:11:33Z</time><name>PT3050</name></trkpt>
<trkpt lat="54.360457" lon="-3.122756"><ele>405</ele><time>2020-06-12T10:11:34Z</time><name>PT3051</name></trkpt>
<trkpt lat="54.360462" lon="-3.122768"><ele>405</ele><time>2020-06-12T10:11:35Z</time><name>PT3052</name></trkpt>
<trkpt lat="54.360466" lon="-3.122779"><ele>405</ele><time>2020-06-12T10:11:36Z</time><name>PT3053</name></trkpt>
<trkpt lat="54.360470" lon="-3.122792"><ele>405</ele><time>2020-06-12T10:11:37Z</time><name>PT3054</name></trkpt>
<trkpt lat="54.360472" lon="-3.122806"><ele>406</ele><time>2020-06-12T10:11:38Z</time><name>PT3055</name></trkpt>
<trkpt lat="54.360476" lon="-3.122816"><ele>406</ele><time>2020-06-12T10:11:39Z</time><name>PT3056</name></trkpt>
<trkpt lat="54.360479" lon="-3.122826"><ele>406</ele><time>2020-06-12T10:11:40Z</time><name>PT3057</name></trkpt>
<trkpt lat="54.360482" lon="-3.122838"><ele>406</ele><time>2020-06-12T10:11:41Z</time><name>PT3058</name></trkpt>
<trkpt lat="54.360486" lon="-3.122848"><ele>406</ele><time>2020-06-12T10:11:42Z</time><name>PT3059</name></trkpt>
<trkpt lat="54.360489" lon="-3.122860"><ele>406</ele><time>2020-06-12T10:11:43Z</time><name>PT3060</name></trkpt>
<trkpt lat="54.360494" lon="-3.122869"><ele>406</ele><time>2020-06-12T10:11:44Z</time><name>PT3061</name></trkpt>
<trkpt lat="54.360498" lon="-3.122878"><ele>406</ele><time>2020-06-12T10:11:45Z</time><name>PT3062</name></trkpt>
<trkpt lat="54.360504" lon="-3.122890"><ele>406</ele><time>2020-06-12T10:11:46Z</time><name>PT3063</name></trkpt>
<trkpt lat="54.360511" lon="-3.122896"><ele>407</ele><time>2020-06-12T10:11:47Z</time><name>PT3064</name></trkpt>
<trkpt lat="54.360517" lon="-3.122907"><ele>407</ele><time>2020-06-12T10:11:48Z</time><name>PT3065</name></trkpt>
<trkpt lat="54.360522" lon="-3.122913"><ele>407</ele><time>2020-06-12T10:11:49Z</time><name>PT3066</name></trkpt>
<trkpt lat="54.360525" lon="-3.122922"><ele>406</ele><time>2020-06-12T10:11:50Z</time><name>PT3067</name></trkpt>
<trkpt lat="54.360534" lon="-3.122931"><ele>407</ele><time>2020-06-12T10:11:51Z</time><name>PT3068</name></trkpt>
<trkpt lat="54.360541" lon="-3.122937"><ele>407</ele><time>2020-06-12T10:11:52Z</time><name>PT3069</name></trkpt>
<trkpt lat="54.360548" lon="-3.122943"><ele>407</ele><time>2020-06-12T10:11:53Z</time><name>PT3070</name></trkpt>
<trkpt lat="54.360557" lon="-3.122948"><ele>407</ele><time>2020-06-12T10:11:54Z</time><name>PT3071</name></trkpt>
<trkpt lat="54.360568" lon="-3.122957"><ele>408</ele><time>2020-06-12T10:11:55Z</time><name>PT3072</name></trkpt>
<trkpt lat="54.360577" lon="-3.122967"><ele>409</ele><time>2020-06-12T10:11:56Z</time><name>PT3073</name></trkpt>
<trkpt lat="54.360585" lon="-3.122977"><ele>409</ele><time>2020-06-12T10:11:57Z</time><name>PT3074</name></trkpt>
<trkpt lat="54.360592" lon="-3.122987"><ele>410</ele><time>2020-06-12T10:11:58Z</time><name>PT3075</name></trkpt>
<trkpt lat="54.360599" lon="-3.122996"><ele>410</ele><time>2020-06-12T10:11:59Z</time><name>PT3076</name></trkpt>
<trkpt lat="54.360605" lon="-3.123005"><ele>410</ele><time>2020-06-12T10:12:00Z</time><name>PT3077</name></trkpt>
<trkpt lat="54.360611" lon="-3.123015"><ele>410</ele><time>2020-06-12T10:12:01Z</time><name>PT3078</name></trkpt>
<trkpt lat="54.360617" lon="-3.123027"><ele>410</ele><time>2020-06-12T10:12:02Z</time><name>PT3079</name></trkpt>
<trkpt lat="54.360621" lon="-3.123040"><ele>410</ele><time>2020-06-12T10:12:03Z</time><name>PT3080</name></trkpt>
<trkpt lat="54.360626" lon="-3.123056"><ele>410</ele><time>2020-06-12T10:12:04Z</time><name>PT3081</name></trkpt>
<trkpt lat="54.360633" lon="-3.123066"><ele>411</ele><time>2020-06-12T10:12:05Z</time><name>PT3082</name></trkpt>
<trkpt lat="54.360640" lon="-3.123077"><ele>411</ele><time>2020-06-12T10:12:06Z</time><name>PT3083</name></trkpt>
<trkpt lat="54.360649" lon="-3.123086"><ele>411</ele><time>2020-06-12T10:12:07Z</time><name>PT3084</name></trkpt>
<trkpt lat="54.360657" lon="-3.123091"><ele>410</ele><time>2020-06-12T10:12:08Z</time><name>PT3085</name></trkpt>
<trkpt lat="54.360664" lon="-3.123100"><ele>410</ele><time>2020-06-12T10:12:09Z</time><name>PT3086</name></trkpt>
<trkpt lat="54.360669" lon="-3.123107"><ele>410</ele><time>2020-06-12T10:12:10Z</time><name>PT3087</name></trkpt>
<trkpt lat="54.360676" lon="-3.123112"><ele>410</ele><time>2020-06-12T10:12:11Z</time><name>PT3088</name></trkpt>
<trkpt lat="54.360683" lon="-3.123118"><ele>410</ele><time>2020-06-12T10:12:12Z</time><name>PT3089</name></trkpt>
<trkpt lat="54.360690" lon="-3.123124"><ele>410</ele><time>2020-06-12T10:12:13Z</time><name>PT3090</name></trkpt>
<trkpt lat="54.360697" lon="-3.123130"><ele>411</ele><time>2020-06-12T10:12:14Z</time><name>PT3091</name></trkpt>
<trkpt lat="54.360705" lon="-3.123134"><ele>411</ele><time>2020-06-12T10:12:15Z</time><name>PT3092</name></trkpt>
<trkpt lat="54.360713" lon="-3.123136"><ele>411</ele><time>2020-06-12T10:12:16Z</time><name>PT3093</name></trkpt>
<trkpt lat="54.360721" lon="-3.123140"><ele>412</ele><time>2020-06-12T10:12:17Z</time><name>PT3094</name></trkpt>
<trkpt lat="54.360730" lon="-3.123146"><ele>412</ele><time>2020-06-12T10:12:18Z</time><name>PT3095</name></trkpt>
<trkpt lat="54.360737" lon="-3.123150"><ele>412</ele><time>2020-06-12T10:12:19Z</time><name>PT3096</name></trkpt>
<trkpt lat="54.360744" lon="-3.123156"><ele>412</ele><time>2020-06-12T10:12:20Z</time><name>PT3097</name></trkpt>
<trkpt lat="54.360753" lon="-3.123159"><ele>412</ele><time>2020-06-12T10:12:21Z</time><name>PT3098</name></trkpt>
<trkpt lat="54.360761" lon="-3.123164"><ele>412</ele><time>2020-06-12T10:12:22Z</time><name>PT3099</name></trkpt>
<trkpt lat="54.360768" lon="-3.123169"><ele>412</ele><time>2020-06-12T10:12:23Z</time><name>PT3100</name></trkpt>
<trkpt lat="54.360777" lon="-3.123174"><ele>413</ele><time>2020-06-12T10:12:24Z</time><name>PT3101</name></trkpt>
<trkpt lat="54.360785" lon="-3.123179"><ele>413</ele><time>2020-06-12T10:12:25Z</time><name>PT3102</name></trkpt>
<trkpt lat="54.360790" lon="-3.123189"><ele>412</ele><time>2020-06-12T10:12:26Z</time><name>PT3103</name></trkpt>
<trkpt lat="54.360796" lon="-3.123198"><ele>413</ele><time>2020-06-12T10:12:27Z</time><name>PT3104</name></trkpt>
<trkpt lat="54.360802" lon="-3.123208"><ele>413</ele><time>2020-06-12T10:12:28Z</time><name>PT3105</name></trkpt>
<trkpt lat="54.360810" lon="-3.123217"><ele>413</ele><time>2020-06-12T10:12:29Z</time><name>PT3106</name></trkpt>
<trkpt lat="54.360818" lon="-3.123224"><ele>414</ele><time>2020-06-12T10:12:30Z</time><name>PT3107</name></trkpt>
<trkpt lat="54.360826" lon="-3.123233"><ele>413</ele><time>2020-06-12T10:12:31Z</time><name>PT3108</name></trkpt>
<trkpt lat="54.360833" lon="-3.123238"><ele>413</ele><time>2020-06-12T10:12:32Z</time><name>PT3109</name></trkpt>
<trkpt lat="54.360842" lon="-3.123241"><ele>414</ele><time>2020-06-12T10:12:33Z</time><name>PT3110</name></trkpt>
<trkpt lat="54.360849" lon="-3.123245"><ele>414</ele><time>2020-06-12T10:12:34Z</time><name>PT3111</name></trkpt>
<trkpt lat="54.360856" lon="-3.123251"><ele>414</ele><time>2020-06-12T10:12:35Z</time><name>PT3112</name></trkpt>
<trkpt lat="54.360859" lon="-3.123260"><ele>414</ele><time>2020-06-12T10:12:36Z</time><name>PT3113</name></trkpt>
<trkpt lat="54.360861" lon="-3.123271"><ele>414</ele><time>2020-06-12T10:12:37Z</time><name>PT3114</name></trkpt>
<trkpt lat="54.360865" lon="-3.123279"><ele>415</ele><time>2020-06-12T10:12:38Z</time><name>PT3115</name></trkpt>
<trkpt lat="54.360868" lon="-3.123288"><ele>415</ele><time>2020-06-12T10:12:39Z</time><name>PT3116</name></trkpt>
<trkpt lat="54.360873" lon="-3.123295"><ele>415</ele><time>2020-06-12T10:12:40Z</time><name>PT3117</name></trkpt>
<trkpt lat="54.360878" lon="-3.123298"><ele>415</ele><time>2020-06-12T10:12:41Z</time><name>PT3118</name></trkpt>
<trkpt lat="54.360885" lon="-3.123303"><ele>416</ele><time>2020-06-12T10:12:42Z</time><name>PT3119</name></trkpt>
<trkpt lat="54.360892" lon="-3.123311"><ele>416</ele><time>2020-06-12T10:12:43Z</time><name>PT3120</name></trkpt>
<trkpt lat="54.360900" lon="-3.123319"><ele>416</ele><time>2020-06-12T10:12:44Z</time><name>PT3121</name></trkpt>
<trkpt lat="54.360908" lon="-3.123324"><ele>416</ele><time>2020-06-12T10:12:45Z</time><name>PT3122</name></trkpt>
<trkpt lat="54.360917" lon="-3.123326"><ele>417</ele><time>2020-06-12T10:12:46Z</time><name>PT3123</name></trkpt>
<trkpt lat="54.360927" lon="-3.123326"><ele>417</ele><time>2020-06-12T10:12:47Z</time><name>PT3124</name></trkpt>
<trkpt lat="54.360935" lon="-3.123322"><ele>417</ele><time>2020-06-12T10:12:48Z</time><name>PT3125</name></trkpt>
<trkpt lat="54.360943" lon="-3.123322"><ele>417</ele><time>2020-06-12T10:12:49Z</time><name>PT3126</name></trkpt>
<trkpt lat="54.360948" lon="-3.123328"><ele>417</ele><time>2020-06-12T10:12:50Z</time><name>PT3127</name></trkpt>
<trkpt lat="54.360954" lon="-3.123335"><ele>417</ele><time>2020-06-12T10:12:51Z</time><name>PT3128</name></trkpt>
<trkpt lat="54.360958" lon="-3.123338"><ele>418</ele><time>2020-06-12T10:12:52Z</time><name>PT3129</name></trkpt>
<trkpt lat="54.360964" lon="-3.123339"><ele>418</ele><time>2020-06-12T10:12:53Z</time><name>PT3130</name></trkpt>
<trkpt lat="54.360970" lon="-3.123343"><ele>418</ele><time>2020-06-12T10:12:54Z</time><name>PT3131</name></trkpt>
<trkpt lat="54.360975" lon="-3.123353"><ele>418</ele><time>2020-06-12T10:12:55Z</time><name>PT3132</name></trkpt>
<trkpt lat="54.360980" lon="-3.123358"><ele>418</ele><time>2020-06-12T10:12:56Z</time><name>PT3133</name></trkpt>
<trkpt lat="54.360988" lon="-3.123360"><ele>419</ele><time>2020-06-12T10:12:57Z</time><name>PT3134</name></trkpt>
<trkpt lat="54.360996" lon="-3.123362"><ele>419</ele><time>2020-06-12T10:12:58Z</time><name>PT3135</name></trkpt>
<trkpt lat="54.361004" lon="-3.123363"><ele>420</ele><time>2020-06-12T10:12:59Z</time><name>PT3136</name></trkpt>
<trkpt lat="54.361011" lon="-3.123364"><ele>421</ele><time>2020-06-12T10:13:00Z</time><name>PT3137</name></trkpt>
<trkpt lat="54.361018" lon="-3.123365"><ele>421</ele><time>2020-06-12T10:13:01Z</time><name>PT3138</name></trkpt>
<trkpt lat="54.361025" lon="-3.123366"><ele>421</ele><time>2020-06-12T10:13:02Z</time><name>PT3139</name></trkpt>
<trkpt lat="54.361032" lon="-3.123370"><ele>421</ele><time>2020-06-12T10:13:03Z</time><name>PT3140</name></trkpt>
<trkpt lat="54.361037" lon="-3.123379"><ele>421</ele><time>2020-06-12T10:13:04Z</time><name>PT3141</name></trkpt>
<trkpt lat="54.361042" lon="-3.123385"><ele>421</ele><time>2020-06-12T10:13:05Z</time><name>PT3142</name></trkpt>
<trkpt lat="54.361044" lon="-3.123393"><ele>420</ele><time>2020-06-12T10:13:06Z</time><name>PT3143</name></trkpt>
<trkpt lat="54.361047" lon="-3.123404"><ele>420</ele><time>2020-06-12T10:13:07Z</time><name>PT3144</name></trkpt>
<trkpt lat="54.361052" lon="-3.123411"><ele>421</ele><time>2020-06-12T10:13:08Z</time><name>PT3145</name></trkpt>
<trkpt lat="54.361058" lon="-3.123420"><ele>422</ele><time>2020-06-12T10:13:09Z</time><name>PT3146</name></trkpt>
<trkpt lat="54.361060" lon="-3.123434"><ele>421</ele><time>2020-06-12T10:13:10Z</time><name>PT3147</name></trkpt>
<trkpt lat="54.361064" lon="-3.123446"><ele>422</ele><time>2020-06-12T10:13:11Z</time><name>PT3148</name></trkpt>
<trkpt lat="54.361067" lon="-3.123453"><ele>422</ele><time>2020-06-12T10:13:12Z</time><name>PT3149</name></trkpt>
<trkpt lat="54.361068" lon="-3.123458"><ele>422</ele><time>2020-06-12T10:13:13Z</time><name>PT3150</name></trkpt>
<trkpt lat="54.361068" lon="-3.123469"><ele>421</ele><time>2020-06-12T10:13:14Z</time><name>PT3151</name></trkpt>
<trkpt lat="54.361073" lon="-3.123477"><ele>421</ele><time>2020-06-12T10:13:15Z</time><name>PT3152</name></trkpt>
<trkpt lat="54.361083" lon="-3.123483"><ele>423</ele><time>2020-06-12T10:13:16Z</time><name>PT3153</name></trkpt>
<trkpt lat="54.361088" lon="-3.123494"><ele>424</ele><time>2020-06-12T10:13:17Z</time><name>PT3154</name></trkpt>
<trkpt lat="54.361091" lon="-3.123503"><ele>424</ele><time>2020-06-12T10:13:18Z</time><name>PT3155</name></trkpt>
<trkpt lat="54.361095" lon="-3.123506"><ele>424</ele><time>2020-06-12T10:13:19Z</time><name>PT3156</name></trkpt>
<trkpt lat="54.361099" lon="-3.123510"><ele>424</ele><time>2020-06-12T10:13:20Z</time><name>PT3157</name></trkpt>
<trkpt lat="54.361102" lon="-3.123514"><ele>424</ele><time>2020-06-12T10:13:21Z</time><name>PT3158</name></trkpt>
<trkpt lat="54.361109" lon="-3.123519"><ele>424</ele><time>2020-06-12T10:13:22Z</time><name>PT3159</name></trkpt>
<trkpt lat="54.361114" lon="-3.123523"><ele>424</ele><time>2020-06-12T10:13:23Z</time><name>PT3160</name></trkpt>
<trkpt lat="54.361118" lon="-3.123529"><ele>425</ele><time>2020-06-12T10:13:24Z</time><name>PT3161</name></trkpt>
<trkpt lat="54.361124" lon="-3.123535"><ele>425</ele><time>2020-06-12T10:13:25Z</time><name>PT3162</name></trkpt>
<trkpt lat="54.361131" lon="-3.123541"><ele>424</ele><time>2020-06-12T10:13:26Z</time><name>PT3163</name></trkpt>
<trkpt lat="54.361138" lon="-3.123542"><ele>424</ele><time>2020-06-12T10:13:27Z</time><name>PT3164</name></trkpt>
<trkpt lat="54.361145" lon="-3.123541"><ele>424</ele><time>2020-06-12T10:13:28Z</time><name>PT3165</name></trkpt>
<trkpt lat="54.361152" lon="-3.123537"><ele>424</ele><time>2020-06-12T10:13:29Z</time><name>PT3166</name></trkpt>
<trkpt lat="54.361158" lon="-3.123530"><ele>424</ele><time>2020-06-12T10:13:30Z</time><name>PT3167</name></trkpt>
<trkpt lat="54.361165" lon="-3.123527"><ele>425</ele><time>2020-06-12T10:13:31Z</time><name>PT3168</name></trkpt>
<trkpt lat="54.361173" lon="-3.123526"><ele>425</ele><time>2020-06-12T10:13:32Z</time><name>PT3169</name></trkpt>
<trkpt lat="54.361179" lon="-3.123526"><ele>425</ele><time>2020-06-12T10:13:33Z</time><name>PT3170</name></trkpt>
<trkpt lat="54.361185" lon="-3.123528"><ele>425</ele><time>2020-06-12T10:13:34Z</time><name>PT3171</name></trkpt>
<trkpt lat="54.361192" lon="-3.123533"><ele>425</ele><time>2020-06-12T10:13:35Z</time><name>PT3172</name></trkpt>
<trkpt lat="54.361199" lon="-3.123535"><ele>425</ele><time>2020-06-12T10:13:36Z</time><name>PT3173</name></trkpt>
<trkpt lat="54.361205" lon="-3.123531"><ele>425</ele><time>2020-06-12T10:13:37Z</time><name>PT3174</name></trkpt>
<trkpt lat="54.361211" lon="-3.123527"><ele>426</ele><time>2020-06-12T10:13:38Z</time><name>PT3175</name></trkpt>
<trkpt lat="54.361216" lon="-3.123527"><ele>426</ele><time>2020-06-12T10:13:39Z</time><name>PT3176</name></trkpt>
<trkpt lat="54.361222" lon="-3.123523"><ele>426</ele><time>2020-06-12T10:13:40Z</time><name>PT3177</name></trkpt>
<trkpt lat="54.361227" lon="-3.123522"><ele>426</ele><time>2020-06-12T10:13:41Z</time><name>PT3178</name></trkpt>
<trkpt lat="54.361229" lon="-3.123522"><ele>426</ele><time>2020-06-12T10:13:42Z</time><name>PT3179</name></trkpt>
<trkpt lat="54.361232" lon="-3.123527"><ele>427</ele><time>2020-06-12T10:13:43Z</time><name>PT3180</name></trkpt>
<trkpt lat="54.361236" lon="-3.123534"><ele>427</ele><time>2020-06-12T10:13:44Z</time><name>PT3181</name></trkpt>
<trkpt lat="54.361240" lon="-3.123543"><ele>428</ele><time>2020-06-12T10:13:45Z</time><name>PT3182</name></trkpt>
<trkpt lat="54.361243" lon="-3.123551"><ele>427</ele><time>2020-06-12T10:13:46Z</time><name>PT3183</name></trkpt>
<trkpt lat="54.361247" lon="-3.123560"><ele>427</ele><time>2020-06-12T10:13:47Z</time><name>PT3184</name></trkpt>
<trkpt lat="54.361252" lon="-3.123561"><ele>428</ele><time>2020-06-12T10:13:48Z</time><name>PT3185</name></trkpt>
<trkpt lat="54.361254" lon="-3.123563"><ele>427</ele><time>2020-06-12T10:13:49Z</time><name>PT3186</name></trkpt>
<trkpt lat="54.361257" lon="-3.123564"><ele>427</ele><time>2020-06-12T10:13:50Z</time><name>PT3187</name></trkpt>
<trkpt lat="54.361258" lon="-3.123570"><ele>427</ele><time>2020-06-12T10:13:51Z</time><name>PT3188</name></trkpt>
<trkpt lat="54.361264" lon="-3.123571"><ele>428</ele><time>2020-06-12T10:13:52Z</time><name>PT3189</name></trkpt>
<trkpt lat="54.361269" lon="-3.123572"><ele>428</ele><time>2020-06-12T10:13:53Z</time><name>PT3190</name></trkpt>
<trkpt lat="54.361276" lon="-3.123578"><ele>429</ele><time>2020-06-12T10:13:54Z</time><name>PT3191</name></trkpt>
<trkpt lat="54.361281" lon="-3.123586"><ele>429</ele><time>2020-06-12T10:13:55Z</time><name>PT3192</name></trkpt>
<trkpt lat="54.361288" lon="-3.123596"><ele>429</ele><time>2020-06-12T10:13:56Z</time><name>PT3193</name></trkpt>
<trkpt lat="54.361293" lon="-3.123603"><ele>429</ele><time>2020-06-12T10:13:57Z</time><name>PT3194</name></trkpt>
<trkpt lat="54.361300" lon="-3.123608"><ele>429</ele><time>2020-06-12T10:13:58Z</time><name>PT3195</name></trkpt>
<trkpt lat="54.361306" lon="-3.123612"><ele>430</ele><time>2020-06-12T10:13:59Z</time><name>PT3196</name></trkpt>
<trkpt lat="54.361311" lon="-3.123614"><ele>430</ele><time>2020-06-12T10:14:00Z</time><name>PT3197</name></trkpt>
<trkpt lat="54.361317" lon="-3.123615"><ele>430</ele><time>2020-06-12T10:14:01Z</time><name>PT3198</name></trkpt>
<trkpt lat="54.361323" lon="-3.123614"><ele>430</ele><time>2020-06-12T10:14:02Z</time><name>PT3199</name></trkpt>
<trkpt lat="54.361331" lon="-3.123612"><ele>431</ele><time>2020-06-12T10:14:03Z</time><name>PT3200</name></trkpt>
<trkpt lat="54.361336" lon="-3.123615"><ele>431</ele><time>2020-06-12T10:14:04Z</time><name>PT3201</name></trkpt>
<trkpt lat="54.361339" lon="-3.123619"><ele>431</ele><time>2020-06-12T10:14:05Z</time><name>PT3202</name></trkpt>
<trkpt lat="54.361343" lon="-3.123624"><ele>431</ele><time>2020-06-12T10:14:06Z</time><name>PT3203</name></trkpt>
<trkpt lat="54.361348" lon="-3.123625"><ele>432</ele><time>2020-06-12T10:14:07Z</time><name>PT3204</name></trkpt>
<trkpt lat="54.361354" lon="-3.123627"><ele>432</ele><time>2020-06-12T10:14:08Z</time><name>PT3205</name></trkpt>
<trkpt lat="54.361360" lon="-3.123625"><ele>431</ele><time>2020-06-12T10:14:09Z</time><name>PT3206</name></trkpt>
<trkpt lat="54.361375" lon="-3.123624"><ele>431</ele><time>2020-06-12T10:14:10Z</time><name>PT3207</name></trkpt>
<trkpt lat="54.361384" lon="-3.123626"><ele>432</ele><time>2020-06-12T10:14:11Z</time><name>PT3208</name></trkpt>
<trkpt lat="54.361389" lon="-3.123630"><ele>432</ele><time>2020-06-12T10:14:12Z</time><name>PT3209</name></trkpt>
<trkpt lat="54.361394" lon="-3.123631"><ele>432</ele><time>2020-06-12T10:14:13Z</time><name>PT3210</name></trkpt>
<trkpt lat="54.361399" lon="-3.123637"><ele>432</ele><time>2020-06-12T10:14:14Z</time><name>PT3211</name></trkpt>
<trkpt lat="54.361403" lon="-3.123648"><ele>432</ele><time>2020-06-12T10:14:15Z</time><name>PT3212</name></trkpt>
<trkpt lat="54.361409" lon="-3.123659"><ele>432</ele><time>2020-06-12T10:14:16Z</time><name>PT3213</name></trkpt>
<trkpt lat="54.361414" lon="-3.123669"><ele>432</ele><time>2020-06-12T10:14:17Z</time><name>PT3214</name></trkpt>
<trkpt lat="54.361416" lon="-3.123682"><ele>432</ele><time>2020-06-12T10:14:18Z</time><name>PT3215</name></trkpt>
<trkpt lat="54.361420" lon="-3.123690"><ele>432</ele><time>2020-06-12T10:14:19Z</time><name>PT3216</name></trkpt>
<trkpt lat="54.361425" lon="-3.123701"><ele>432</ele><time>2020-06-12T10:14:20Z</time><name>PT3217</name></trkpt>
<trkpt lat="54.361432" lon="-3.123714"><ele>432</ele><time>2020-06-12T10:14:21Z</time><name>PT3218</name></trkpt>
<trkpt lat="54.361437" lon="-3.123725"><ele>432</ele><time>2020-06-12T10:14:22Z</time><name>PT3219</name></trkpt>
<trkpt lat="54.361442" lon="-3.123727"><ele>432</ele><time>2020-06-12T10:14:23Z</time><name>PT3220</name></trkpt>
<trkpt lat="54.361448" lon="-3.123734"><ele>433</ele><time>2020-06-12T10:14:24Z</time><name>PT3221</name></trkpt>
<trkpt lat="54.361457" lon="-3.123739"><ele>433</ele><time>2020-06-12T10:14:25Z</time><name>PT3222</name></trkpt>
<trkpt lat="54.361466" lon="-3.123741"><ele>433</ele><time>2020-06-12T10:14:26Z</time><name>PT3223</name></trkpt>
<trkpt lat="54.361473" lon="-3.123741"><ele>433</ele><time>2020-06-12T10:14:27Z</time><name>PT3224</name></trkpt>
<trkpt lat="54.361481" lon="-3.123742"><ele>434</ele><time>2020-06-12T10:14:28Z</time><name>PT3225</name></trkpt>
<trkpt lat="54.361489" lon="-3.123742"><ele>433</ele><time>2020-06-12T10:14:29Z</time><name>PT3226</name></trkpt>
<trkpt lat="54.361495" lon="-3.123747"><ele>434</ele><time>2020-06-12T10:14:30Z</time><name>PT3227</name></trkpt>
<trkpt lat="54.361501" lon="-3.123753"><ele>435</ele><time>2020-06-12T10:14:31Z</time><name>PT3228</name></trkpt>
<trkpt lat="54.361502" lon="-3.123760"><ele>435</ele><time>2020-06-12T10:14:33Z</time><name>PT3229</name></trkpt>
<trkpt lat="54.361506" lon="-3.123766"><ele>435</ele><time>2020-06-12T10:14:33Z</time><name>PT3230</name></trkpt>
<trkpt lat="54.361512" lon="-3.123772"><ele>436</ele><time>2020-06-12T10:14:34Z</time><name>PT3231</name></trkpt>
<trkpt lat="54.361517" lon="-3.123779"><ele>436</ele><time>2020-06-12T10:14:35Z</time><name>PT3232</name></trkpt>
<trkpt lat="54.361524" lon="-3.123781"><ele>436</ele><time>2020-06-12T10:14:36Z</time><name>PT3233</name></trkpt>
<trkpt lat="54.361531" lon="-3.123783"><ele>436</ele><time>2020-06-12T10:14:37Z</time><name>PT3234</name></trkpt>
<trkpt lat="54.361539" lon="-3.123784"><ele>436</ele><time>2020-06-12T10:14:38Z</time><name>PT3235</name></trkpt>
<trkpt lat="54.361547" lon="-3.123787"><ele>436</ele><time>2020-06-12T10:14:39Z</time><name>PT3236</name></trkpt>
<trkpt lat="54.361555" lon="-3.123789"><ele>436</ele><time>2020-06-12T10:14:41Z</time><name>PT3237</name></trkpt>
<trkpt lat="54.361561" lon="-3.123794"><ele>436</ele><time>2020-06-12T10:14:41Z</time><name>PT3238</name></trkpt>
<trkpt lat="54.361569" lon="-3.123791"><ele>437</ele><time>2020-06-12T10:14:42Z</time><name>PT3239</name></trkpt>
<trkpt lat="54.361576" lon="-3.123788"><ele>437</ele><time>2020-06-12T10:14:43Z</time><name>PT3240</name></trkpt>
<trkpt lat="54.361583" lon="-3.123785"><ele>437</ele><time>2020-06-12T10:14:44Z</time><name>PT3241</name></trkpt>
<trkpt lat="54.361589" lon="-3.123786"><ele>437</ele><time>2020-06-12T10:14:45Z</time><name>PT3242</name></trkpt>
<trkpt lat="54.361595" lon="-3.123786"><ele>438</ele><time>2020-06-12T10:14:46Z</time><name>PT3243</name></trkpt>
<trkpt lat="54.361602" lon="-3.123787"><ele>437</ele><time>2020-06-12T10:14:47Z</time><name>PT3244</name></trkpt>
<trkpt lat="54.361605" lon="-3.123786"><ele>437</ele><time>2020-06-12T10:14:48Z</time><name>PT3245</name></trkpt>
<trkpt lat="54.361611" lon="-3.123786"><ele>437</ele><time>2020-06-12T10:14:49Z</time><name>PT3246</name></trkpt>
<trkpt lat="54.361616" lon="-3.123788"><ele>437</ele><time>2020-06-12T10:14:51Z</time><name>PT3247</name></trkpt>
<trkpt lat="54.361621" lon="-3.123795"><ele>437</ele><time>2020-06-12T10:14:51Z</time><name>PT3248</name></trkpt>
<trkpt lat="54.361625" lon="-3.123804"><ele>437</ele><time>2020-06-12T10:14:52Z</time><name>PT3249</name></trkpt>
<trkpt lat="54.361630" lon="-3.123811"><ele>438</ele><time>2020-06-12T10:14:53Z</time><name>PT3250</name></trkpt>
<trkpt lat="54.361636" lon="-3.123821"><ele>438</ele><time>2020-06-12T10:14:54Z</time><name>PT3251</name></trkpt>
<trkpt lat="54.361639" lon="-3.123832"><ele>439</ele><time>2020-06-12T10:14:55Z</time><name>PT3252</name></trkpt>
<trkpt lat="54.361640" lon="-3.123843"><ele>439</ele><time>2020-06-12T10:14:56Z</time><name>PT3253</name></trkpt>
<trkpt lat="54.361643" lon="-3.123856"><ele>438</ele><time>2020-06-12T10:14:57Z</time><name>PT3254</name></trkpt>
<trkpt lat="54.361649" lon="-3.123860"><ele>438</ele><time>2020-06-12T10:14:58Z</time><name>PT3255</name></trkpt>
<trkpt lat="54.361660" lon="-3.123864"><ele>438</ele><time>2020-06-12T10:14:59Z</time><name>PT3256</name></trkpt>
<trkpt lat="54.361668" lon="-3.123866"><ele>438</ele><time>2020-06-12T10:15:01Z</time><name>PT3257</name></trkpt>
<trkpt lat="54.361676" lon="-3.123865"><ele>439</ele><time>2020-06-12T10:15:01Z</time><name>PT3258</name></trkpt>
<trkpt lat="54.361684" lon="-3.123867"><ele>438</ele><time>2020-06-12T10:15:02Z</time><name>PT3259</name></trkpt>
<trkpt lat="54.361691" lon="-3.123871"><ele>439</ele><time>2020-06-12T10:15:03Z</time><name>PT3260</name></trkpt>
<trkpt lat="54.361699" lon="-3.123876"><ele>439</ele><time>2020-06-12T10:15:04Z</time><name>PT3261</name></trkpt>
<trkpt lat="54.361707" lon="-3.123879"><ele>439</ele><time>2020-06-12T10:15:05Z</time><name>PT3262</name></trkpt>
<trkpt lat="54.361716" lon="-3.123888"><ele>440</ele><time>2020-06-12T10:15:06Z</time><name>PT3263</name></trkpt>
<trkpt lat="54.361723" lon="-3.123899"><ele>440</ele><time>2020-06-12T10:15:07Z</time><name>PT3264</name></trkpt>
<trkpt lat="54.361730" lon="-3.123912"><ele>440</ele><time>2020-06-12T10:15:08Z</time><name>PT3265</name></trkpt>
<trkpt lat="54.361738" lon="-3.123921"><ele>440</ele><time>2020-06-12T10:15:09Z</time><name>PT3266</name></trkpt>
<trkpt lat="54.361745" lon="-3.123932"><ele>440</ele><time>2020-06-12T10:15:10Z</time><name>PT3267</name></trkpt>
<trkpt lat="54.361753" lon="-3.123940"><ele>440</ele><time>2020-06-12T10:15:11Z</time><name>PT3268</name></trkpt>
<trkpt lat="54.361760" lon="-3.123949"><ele>440</ele><time>2020-06-12T10:15:12Z</time><name>PT3269</name></trkpt>
<trkpt lat="54.361768" lon="-3.123958"><ele>440</ele><time>2020-06-12T10:15:13Z</time><name>PT3270</name></trkpt>
<trkpt lat="54.361777" lon="-3.123967"><ele>440</ele><time>2020-06-12T10:15:14Z</time><name>PT3271</name></trkpt>
<trkpt lat="54.361786" lon="-3.123977"><ele>441</ele><time>2020-06-12T10:15:15Z</time><name>PT3272</name></trkpt>
<trkpt lat="54.361793" lon="-3.123986"><ele>441</ele><time>2020-06-12T10:15:16Z</time><name>PT3273</name></trkpt>
<trkpt lat="54.361804" lon="-3.123988"><ele>441</ele><time>2020-06-12T10:15:17Z</time><name>PT3274</name></trkpt>
<trkpt lat="54.361813" lon="-3.123996"><ele>441</ele><time>2020-06-12T10:15:18Z</time><name>PT3275</name></trkpt>
<trkpt lat="54.361821" lon="-3.124004"><ele>441</ele><time>2020-06-12T10:15:19Z</time><name>PT3276</name></trkpt>
<trkpt lat="54.361828" lon="-3.124013"><ele>442</ele><time>2020-06-12T10:15:20Z</time><name>PT3277</name></trkpt>
<trkpt lat="54.361837" lon="-3.124019"><ele>442</ele><time>2020-06-12T10:15:21Z</time><name>PT3278</name></trkpt>
<trkpt lat="54.361846" lon="-3.124028"><ele>442</ele><time>2020-06-12T10:15:22Z</time><name>PT3279</name></trkpt>
<trkpt lat="54.361850" lon="-3.124042"><ele>442</ele><time>2020-06-12T10:15:23Z</time><name>PT3280</name></trkpt>
<trkpt lat="54.361856" lon="-3.124049"><ele>443</ele><time>2020-06-12T10:15:24Z</time><name>PT3281</name></trkpt>
<trkpt lat="54.361863" lon="-3.124057"><ele>443</ele><time>2020-06-12T10:15:25Z</time><name>PT3282</name></trkpt>
<trkpt lat="54.361869" lon="-3.124066"><ele>442</ele><time>2020-06-12T10:15:26Z</time><name>PT3283</name></trkpt>
<trkpt lat="54.361878" lon="-3.124075"><ele>442</ele><time>2020-06-12T10:15:27Z</time><name>PT3284</name></trkpt>
<trkpt lat="54.361891" lon="-3.124083"><ele>442</ele><time>2020-06-12T10:15:28Z</time><name>PT3285</name></trkpt>
<trkpt lat="54.361900" lon="-3.124090"><ele>442</ele><time>2020-06-12T10:15:29Z</time><name>PT3286</name></trkpt>
<trkpt lat="54.361911" lon="-3.124101"><ele>442</ele><time>2020-06-12T10:15:30Z</time><name>PT3287</name></trkpt>
<trkpt lat="54.361921" lon="-3.124111"><ele>442</ele><time>2020-06-12T10:15:31Z</time><name>PT3288</name></trkpt>
<trkpt lat="54.361930" lon="-3.124120"><ele>441</ele><time>2020-06-12T10:15:32Z</time><name>PT3289</name></trkpt>
<trkpt lat="54.361940" lon="-3.124130"><ele>442</ele><time>2020-06-12T10:15:33Z</time><name>PT3290</name></trkpt>
<trkpt lat="54.361948" lon="-3.124139"><ele>442</ele><time>2020-06-12T10:15:34Z</time><name>PT3291</name></trkpt>
<trkpt lat="54.361955" lon="-3.124147"><ele>442</ele><time>2020-06-12T10:15:35Z</time><name>PT3292</name></trkpt>
<trkpt lat="54.361961" lon="-3.124159"><ele>442</ele><time>2020-06-12T10:15:36Z</time><name>PT3293</name></trkpt>
<trkpt lat="54.361968" lon="-3.124170"><ele>441</ele><time>2020-06-12T10:15:37Z</time><name>PT3294</name></trkpt>
<trkpt lat="54.361977" lon="-3.124181"><ele>441</ele><time>2020-06-12T10:15:38Z</time><name>PT3295</name></trkpt>
<trkpt lat="54.361985" lon="-3.124188"><ele>441</ele><time>2020-06-12T10:15:39Z</time><name>PT3296</name></trkpt>
<trkpt lat="54.361996" lon="-3.124197"><ele>441</ele><time>2020-06-12T10:15:40Z</time><name>PT3297</name></trkpt>
<trkpt lat="54.362006" lon="-3.124203"><ele>442</ele><time>2020-06-12T10:15:41Z</time><name>PT3298</name></trkpt>
<trkpt lat="54.362016" lon="-3.124210"><ele>442</ele><time>2020-06-12T10:15:42Z</time><name>PT3299</name></trkpt>
<trkpt lat="54.362026" lon="-3.124215"><ele>442</ele><time>2020-06-12T10:15:43Z</time><name>PT3300</name></trkpt>
<trkpt lat="54.362035" lon="-3.124218"><ele>442</ele><time>2020-06-12T10:15:44Z</time><name>PT3301</name></trkpt>
<trkpt lat="54.362045" lon="-3.124224"><ele>443</ele><time>2020-06-12T10:15:45Z</time><name>PT3302</name></trkpt>
<trkpt lat="54.362055" lon="-3.124228"><ele>443</ele><time>2020-06-12T10:15:46Z</time><name>PT3303</name></trkpt>
<trkpt lat="54.362064" lon="-3.124233"><ele>443</ele><time>2020-06-12T10:15:47Z</time><name>PT3304</name></trkpt>
<trkpt lat="54.362073" lon="-3.124236"><ele>443</ele><time>2020-06-12T10:15:48Z</time><name>PT3305</name></trkpt>
<trkpt lat="54.362082" lon="-3.124236"><ele>443</ele><time>2020-06-12T10:15:49Z</time><name>PT3306</name></trkpt>
<trkpt lat="54.362092" lon="-3.124236"><ele>444</ele><time>2020-06-12T10:15:50Z</time><name>PT3307</name></trkpt>
<trkpt lat="54.362099" lon="-3.124239"><ele>444</ele><time>2020-06-12T10:15:51Z</time><name>PT3308</name></trkpt>
<trkpt lat="54.362110" lon="-3.124241"><ele>444</ele><time>2020-06-12T10:15:52Z</time><name>PT3309</name></trkpt>
<trkpt lat="54.362118" lon="-3.124237"><ele>445</ele><time>2020-06-12T10:15:53Z</time><name>PT3310</name></trkpt>
<trkpt lat="54.362126" lon="-3.124237"><ele>446</ele><time>2020-06-12T10:15:54Z</time><name>PT3311</name></trkpt>
<trkpt lat="54.362135" lon="-3.124241"><ele>446</ele><time>2020-06-12T10:15:55Z</time><name>PT3312</name></trkpt>
<trkpt lat="54.362146" lon="-3.124251"><ele>445</ele><time>2020-06-12T10:15:56Z</time><name>PT3313</name></trkpt>
<trkpt lat="54.362157" lon="-3.124259"><ele>445</ele><time>2020-06-12T10:15:57Z</time><name>PT3314</name></trkpt>
<trkpt lat="54.362168" lon="-3.124263"><ele>445</ele><time>2020-06-12T10:15:58Z</time><name>PT3315</name></trkpt>
<trkpt lat="54.362178" lon="-3.124272"><ele>445</ele><time>2020-06-12T10:15:59Z</time><name>PT3316</name></trkpt>
<trkpt lat="54.362189" lon="-3.124278"><ele>445</ele><time>2020-06-12T10:16:00Z</time><name>PT3317</name></trkpt>
<trkpt lat="54.362197" lon="-3.124278"><ele>444</ele><time>2020-06-12T10:16:01Z</time><name>PT3318</name></trkpt>
<trkpt lat="54.362210" lon="-3.124279"><ele>445</ele><time>2020-06-12T10:16:02Z</time><name>PT3319</name></trkpt>
<trkpt lat="54.362220" lon="-3.124277"><ele>444</ele><time>2020-06-12T10:16:03Z</time><name>PT3320</name></trkpt>
<trkpt lat="54.362232" lon="-3.124279"><ele>445</ele><time>2020-06-12T10:16:04Z</time><name>PT3321</name></trkpt>
<trkpt lat="54.362245" lon="-3.124285"><ele>445</ele><time>2020-06-12T10:16:05Z</time><name>PT3322</name></trkpt>
<trkpt lat="54.362256" lon="-3.124287"><ele>445</ele><time>2020-06-12T10:16:06Z</time><name>PT3323</name></trkpt>
<trkpt lat="54.362267" lon="-3.124288"><ele>445</ele><time>2020-06-12T10:16:07Z</time><name>PT3324</name></trkpt>
<trkpt lat="54.362277" lon="-3.124287"><ele>445</ele><time>2020-06-12T10:16:08Z</time><name>PT3325</name></trkpt>
<trkpt lat="54.362288" lon="-3.124288"><ele>445</ele><time>2020-06-12T10:16:09Z</time><name>PT3326</name></trkpt>
<trkpt lat="54.362300" lon="-3.124292"><ele>445</ele><time>2020-06-12T10:16:10Z</time><name>PT3327</name></trkpt>
<trkpt lat="54.362310" lon="-3.124292"><ele>445</ele><time>2020-06-12T10:16:11Z</time><name>PT3328</name></trkpt>
<trkpt lat="54.362320" lon="-3.124292"><ele>445</ele><time>2020-06-12T10:16:12Z</time><name>PT3329</name></trkpt>
<trkpt lat="54.362329" lon="-3.124291"><ele>445</ele><time>2020-06-12T10:16:13Z</time><name>PT3330</name></trkpt>
<trkpt lat="54.362342" lon="-3.124293"><ele>446</ele><time>2020-06-12T10:16:14Z</time><name>PT3331</name></trkpt>
<trkpt lat="54.362352" lon="-3.124293"><ele>446</ele><time>2020-06-12T10:16:15Z</time><name>PT3332</name></trkpt>
<trkpt lat="54.362363" lon="-3.124295"><ele>446</ele><time>2020-06-12T10:16:16Z</time><name>PT3333</name></trkpt>
<trkpt lat="54.362375" lon="-3.124300"><ele>446</ele><time>2020-06-12T10:16:17Z</time><name>PT3334</name></trkpt>
<trkpt lat="54.362384" lon="-3.124303"><ele>446</ele><time>2020-06-12T10:16:18Z</time><name>PT3335</name></trkpt>
<trkpt lat="54.362394" lon="-3.124305"><ele>446</ele><time>2020-06-12T10:16:19Z</time><name>PT3336</name></trkpt>
<trkpt lat="54.362403" lon="-3.124309"><ele>446</ele><time>2020-06-12T10:16:20Z</time><name>PT3337</name></trkpt>
<trkpt lat="54.362413" lon="-3.124315"><ele>446</ele><time>2020-06-12T10:16:21Z</time><name>PT3338</name></trkpt>
<trkpt lat="54.362424" lon="-3.124319"><ele>446</ele><time>2020-06-12T10:16:22Z</time><name>PT3339</name></trkpt>
<trkpt lat="54.362433" lon="-3.124324"><ele>446</ele><time>2020-06-12T10:16:23Z</time><name>PT3340</name></trkpt>
<trkpt lat="54.362441" lon="-3.124331"><ele>446</ele><time>2020-06-12T10:16:24Z</time><name>PT3341</name></trkpt>
<trkpt lat="54.362449" lon="-3.124336"><ele>446</ele><time>2020-06-12T10:16:25Z</time><name>PT3342</name></trkpt>
<trkpt lat="54.362461" lon="-3.124344"><ele>445</ele><time>2020-06-12T10:16:26Z</time><name>PT3343</name></trkpt>
<trkpt lat="54.362472" lon="-3.124348"><ele>445</ele><time>2020-06-12T10:16:27Z</time><name>PT3344</name></trkpt>
<trkpt lat="54.362482" lon="-3.124352"><ele>445</ele><time>2020-06-12T10:16:28Z</time><name>PT3345</name></trkpt>
<trkpt lat="54.362491" lon="-3.124358"><ele>445</ele><time>2020-06-12T10:16:29Z</time><name>PT3346</name></trkpt>
<trkpt lat="54.362500" lon="-3.124370"><ele>445</ele><time>2020-06-12T10:16:30Z</time><name>PT3347</name></trkpt>
<trkpt lat="54.362508" lon="-3.124381"><ele>445</ele><time>2020-06-12T10:16:31Z</time><name>PT3348</name></trkpt>
<trkpt lat="54.362518" lon="-3.124386"><ele>445</ele><time>2020-06-12T10:16:32Z</time><name>PT3349</name></trkpt>
<trkpt lat="54.362529" lon="-3.124389"><ele>446</ele><time>2020-06-12T10:16:33Z</time><name>PT3350</name></trkpt>
<trkpt lat="54.362540" lon="-3.124395"><ele>446</ele><time>2020-06-12T10:16:34Z</time><name>PT3351</name></trkpt>
<trkpt lat="54.362552" lon="-3.124402"><ele>445</ele><time>2020-06-12T10:16:35Z</time><name>PT3352</name></trkpt>
<trkpt lat="54.362563" lon="-3.124407"><ele>445</ele><time>2020-06-12T10:16:36Z</time><name>PT3353</name></trkpt>
<trkpt lat="54.362574" lon="-3.124418"><ele>445</ele><time>2020-06-12T10:16:37Z</time><name>PT3354</name></trkpt>
<trkpt lat="54.362584" lon="-3.124426"><ele>445</ele><time>2020-06-12T10:16:38Z</time><name>PT3355</name></trkpt>
<trkpt lat="54.362594" lon="-3.124439"><ele>445</ele><time>2020-06-12T10:16:39Z</time><name>PT3356</name></trkpt>
<trkpt lat="54.362604" lon="-3.124449"><ele>445</ele><time>2020-06-12T10:16:40Z</time><name>PT3357</name></trkpt>
<trkpt lat="54.362614" lon="-3.124457"><ele>446</ele><time>2020-06-12T10:16:41Z</time><name>PT3358</name></trkpt>
<trkpt lat="54.362626" lon="-3.124459"><ele>446</ele><time>2020-06-12T10:16:42Z</time><name>PT3359</name></trkpt>
<trkpt lat="54.362638" lon="-3.124457"><ele>446</ele><time>2020-06-12T10:16:43Z</time><name>PT3360</name></trkpt>
<trkpt lat="54.362649" lon="-3.124462"><ele>446</ele><time>2020-06-12T10:16:44Z</time><name>PT3361</name></trkpt>
<trkpt lat="54.362660" lon="-3.124470"><ele>446</ele><time>2020-06-12T10:16:45Z</time><name>PT3362</name></trkpt>
<trkpt lat="54.362671" lon="-3.124474"><ele>445</ele><time>2020-06-12T10:16:46Z</time><name>PT3363</name></trkpt>
<trkpt lat="54.362681" lon="-3.124473"><ele>445</ele><time>2020-06-12T10:16:47Z</time><name>PT3364</name></trkpt>
<trkpt lat="54.362693" lon="-3.124473"><ele>445</ele><time>2020-06-12T10:16:48Z</time><name>PT3365</name></trkpt>
<trkpt lat="54.362704" lon="-3.124475"><ele>445</ele><time>2020-06-12T10:16:49Z</time><name>PT3366</name></trkpt>
<trkpt lat="54.362716" lon="-3.124478"><ele>444</ele><time>2020-06-12T10:16:50Z</time><name>PT3367</name></trkpt>
<trkpt lat="54.362729" lon="-3.124483"><ele>444</ele><time>2020-06-12T10:16:51Z</time><name>PT3368</name></trkpt>
<trkpt lat="54.362740" lon="-3.124490"><ele>444</ele><time>2020-06-12T10:16:52Z</time><name>PT3369</name></trkpt>
<trkpt lat="54.362751" lon="-3.124499"><ele>444</ele><time>2020-06-12T10:16:53Z</time><name>PT3370</name></trkpt>
<trkpt lat="54.362762" lon="-3.124504"><ele>444</ele><time>2020-06-12T10:16:54Z</time><name>PT3371</name></trkpt>
<trkpt lat="54.362771" lon="-3.124513"><ele>444</ele><time>2020-06-12T10:16:55Z</time><name>PT3372</name></trkpt>
<trkpt lat="54.362779" lon="-3.124520"><ele>444</ele><time>2020-06-12T10:16:56Z</time><name>PT3373</name></trkpt>
<trkpt lat="54.362789" lon="-3.124523"><ele>443</ele><time>2020-06-12T10:16:57Z</time><name>PT3374</name></trkpt>
<trkpt lat="54.362800" lon="-3.124522"><ele>443</ele><time>2020-06-12T10:16:58Z</time><name>PT3375</name></trkpt>
<trkpt lat="54.362811" lon="-3.124521"><ele>443</ele><time>2020-06-12T10:16:59Z</time><name>PT3376</name></trkpt>
<trkpt lat="54.362823" lon="-3.124518"><ele>444</ele><time>2020-06-12T10:17:00Z</time><name>PT3377</name></trkpt>
<trkpt lat="54.362834" lon="-3.124515"><ele>444</ele><time>2020-06-12T10:17:01Z</time><name>PT3378</name></trkpt>
<trkpt lat="54.362843" lon="-3.124514"><ele>444</ele><time>2020-06-12T10:17:02Z</time><name>PT3379</name></trkpt>
<trkpt lat="54.362855" lon="-3.124511"><ele>444</ele><time>2020-06-12T10:17:03Z</time><name>PT3380</name></trkpt>
<trkpt lat="54.362867" lon="-3.124508"><ele>444</ele><time>2020-06-12T10:17:04Z</time><name>PT3381</name></trkpt>
<trkpt lat="54.362879" lon="-3.124508"><ele>443</ele><time>2020-06-12T10:17:05Z</time><name>PT3382</name></trkpt>
<trkpt lat="54.362890" lon="-3.124508"><ele>443</ele><time>2020-06-12T10:17:06Z</time><name>PT3383</name></trkpt>
<trkpt lat="54.362902" lon="-3.124509"><ele>444</ele><time>2020-06-12T10:17:07Z</time><name>PT3384</name></trkpt>
<trkpt lat="54.362916" lon="-3.124514"><ele>444</ele><time>2020-06-12T10:17:08Z</time><name>PT3385</name></trkpt>
<trkpt lat="54.362926" lon="-3.124516"><ele>444</ele><time>2020-06-12T10:17:09Z</time><name>PT3386</name></trkpt>
<trkpt lat="54.362937" lon="-3.124520"><ele>444</ele><time>2020-06-12T10:17:10Z</time><name>PT3387</name></trkpt>
<trkpt lat="54.362948" lon="-3.124528"><ele>444</ele><time>2020-06-12T10:17:11Z</time><name>PT3388</name></trkpt>
<trkpt lat="54.362957" lon="-3.124534"><ele>445</ele><time>2020-06-12T10:17:12Z</time><name>PT3389</name></trkpt>
<trkpt lat="54.362966" lon="-3.124544"><ele>445</ele><time>2020-06-12T10:17:13Z</time><name>PT3390</name></trkpt>
<trkpt lat="54.362974" lon="-3.124551"><ele>445</ele><time>2020-06-12T10:17:14Z</time><name>PT3391</name></trkpt>
<trkpt lat="54.362982" lon="-3.124555"><ele>445</ele><time>2020-06-12T10:17:15Z</time><name>PT3392</name></trkpt>
<trkpt lat="54.362985" lon="-3.124564"><ele>446</ele><time>2020-06-12T10:17:16Z</time><name>PT3393</name></trkpt>
<trkpt lat="54.362991" lon="-3.124568"><ele>446</ele><time>2020-06-12T10:17:17Z</time><name>PT3394</name></trkpt>
<trkpt lat="54.362994" lon="-3.124571"><ele>445</ele><time>2020-06-12T10:17:18Z</time><name>PT3395</name></trkpt>
<trkpt lat="54.362994" lon="-3.124565"><ele>445</ele><time>2020-06-12T10:17:19Z</time><name>PT3396</name></trkpt>
<trkpt lat="54.362994" lon="-3.124562"><ele>445</ele><time>2020-06-12T10:17:20Z</time><name>PT3397</name></trkpt>
<trkpt lat="54.362994" lon="-3.124563"><ele>445</ele><time>2020-06-12T10:17:21Z</time><name>PT3398</name></trkpt>
<trkpt lat="54.362997" lon="-3.124563"><ele>446</ele><time>2020-06-12T10:17:23Z</time><name>PT3399</name></trkpt>
<trkpt lat="54.362999" lon="-3.124564"><ele>446</ele><time>2020-06-12T10:17:23Z</time><name>PT3400</name></trkpt>
<trkpt lat="54.362999" lon="-3.124563"><ele>446</ele><time>2020-06-12T10:17:24Z</time><name>PT3401</name></trkpt>
<trkpt lat="54.363002" lon="-3.124564"><ele>445</ele><time>2020-06-12T10:17:55Z</time><name>PT3402</name></trkpt>
<trkpt lat="54.363012" lon="-3.124568"><ele>446</ele><time>2020-06-12T10:17:56Z</time><name>PT3403</name></trkpt>
<trkpt lat="54.363021" lon="-3.124576"><ele>446</ele><time>2020-06-12T10:17:57Z</time><name>PT3404</name></trkpt>
<trkpt lat="54.363031" lon="-3.124585"><ele>446</ele><time>2020-06-12T10:17:58Z</time><name>PT3405</name></trkpt>
<trkpt lat="54.363043" lon="-3.124596"><ele>445</ele><time>2020-06-12T10:17:59Z</time><name>PT3406</name></trkpt>
<trkpt lat="54.363055" lon="-3.124600"><ele>445</ele><time>2020-06-12T10:18:00Z</time><name>PT3407</name></trkpt>
<trkpt lat="54.363068" lon="-3.124606"><ele>445</ele><time>2020-06-12T10:18:01Z</time><name>PT3408</name></trkpt>
<trkpt lat="54.363079" lon="-3.124619"><ele>445</ele><time>2020-06-12T10:18:02Z</time><name>PT3409</name></trkpt>
<trkpt lat="54.363090" lon="-3.124630"><ele>445</ele><time>2020-06-12T10:18:03Z</time><name>PT3410</name></trkpt>
<trkpt lat="54.363100" lon="-3.124641"><ele>445</ele><time>2020-06-12T10:18:04Z</time><name>PT3411</name></trkpt>
<trkpt lat="54.363110" lon="-3.124657"><ele>446</ele><time>2020-06-12T10:18:05Z</time><name>PT3412</name></trkpt>
<trkpt lat="54.363121" lon="-3.124671"><ele>446</ele><time>2020-06-12T10:18:06Z</time><name>PT3413</name></trkpt>
<trkpt lat="54.363132" lon="-3.124683"><ele>446</ele><time>2020-06-12T10:18:07Z</time><name>PT3414</name></trkpt>
<trkpt lat="54.363146" lon="-3.124690"><ele>446</ele><time>2020-06-12T10:18:08Z</time><name>PT3415</name></trkpt>
<trkpt lat="54.363160" lon="-3.124692"><ele>446</ele><time>2020-06-12T10:18:09Z</time><name>PT3416</name></trkpt>
<trkpt lat="54.363171" lon="-3.124697"><ele>446</ele><time>2020-06-12T10:18:10Z</time><name>PT3417</name></trkpt>
<trkpt lat="54.363184" lon="-3.124701"><ele>445</ele><time>2020-06-12T10:18:11Z</time><name>PT3418</name></trkpt>
<trkpt lat="54.363192" lon="-3.124709"><ele>445</ele><time>2020-06-12T10:18:12Z</time><name>PT3419</name></trkpt>
<trkpt lat="54.363203" lon="-3.124715"><ele>445</ele><time>2020-06-12T10:18:13Z</time><name>PT3420</name></trkpt>
<trkpt lat="54.363211" lon="-3.124723"><ele>444</ele><time>2020-06-12T10:18:14Z</time><name>PT3421</name></trkpt>
<trkpt lat="54.363216" lon="-3.124731"><ele>444</ele><time>2020-06-12T10:18:15Z</time><name>PT3422</name></trkpt>
<trkpt lat="54.363222" lon="-3.124739"><ele>444</ele><time>2020-06-12T10:18:16Z</time><name>PT3423</name></trkpt>
<trkpt lat="54.363231" lon="-3.124749"><ele>444</ele><time>2020-06-12T10:18:17Z</time><name>PT3424</name></trkpt>
<trkpt lat="54.363236" lon="-3.124762"><ele>444</ele><time>2020-06-12T10:18:18Z</time><name>PT3425</name></trkpt>
<trkpt lat="54.363244" lon="-3.124775"><ele>444</ele><time>2020-06-12T10:18:19Z</time><name>PT3426</name></trkpt>
<trkpt lat="54.363251" lon="-3.124787"><ele>444</ele><time>2020-06-12T10:18:20Z</time><name>PT3427</name></trkpt>
<trkpt lat="54.363261" lon="-3.124800"><ele>444</ele><time>2020-06-12T10:18:21Z</time><name>PT3428</name></trkpt>
<trkpt lat="54.363272" lon="-3.124807"><ele>444</ele><time>2020-06-12T10:18:22Z</time><name>PT3429</name></trkpt>
<trkpt lat="54.363283" lon="-3.124816"><ele>445</ele><time>2020-06-12T10:18:23Z</time><name>PT3430</name></trkpt>
<trkpt lat="54.363293" lon="-3.124826"><ele>445</ele><time>2020-06-12T10:18:24Z</time><name>PT3431</name></trkpt>
<trkpt lat="54.363303" lon="-3.124835"><ele>445</ele><time>2020-06-12T10:18:25Z</time><name>PT3432</name></trkpt>
<trkpt lat="54.363313" lon="-3.124845"><ele>445</ele><time>2020-06-12T10:18:26Z</time><name>PT3433</name></trkpt>
<trkpt lat="54.363323" lon="-3.124855"><ele>445</ele><time>2020-06-12T10:18:27Z</time><name>PT3434</name></trkpt>
<trkpt lat="54.363332" lon="-3.124863"><ele>445</ele><time>2020-06-12T10:18:28Z</time><name>PT3435</name></trkpt>
<trkpt lat="54.363344" lon="-3.124874"><ele>446</ele><time>2020-06-12T10:18:29Z</time><name>PT3436</name></trkpt>
<trkpt lat="54.363352" lon="-3.124886"><ele>446</ele><time>2020-06-12T10:18:30Z</time><name>PT3437</name></trkpt>
<trkpt lat="54.363362" lon="-3.124895"><ele>446</ele><time>2020-06-12T10:18:31Z</time><name>PT3438</name></trkpt>
<trkpt lat="54.363373" lon="-3.124903"><ele>446</ele><time>2020-06-12T10:18:32Z</time><name>PT3439</name></trkpt>
<trkpt lat="54.363385" lon="-3.124909"><ele>445</ele><time>2020-06-12T10:18:33Z</time><name>PT3440</name></trkpt>
<trkpt lat="54.363391" lon="-3.124915"><ele>445</ele><time>2020-06-12T10:18:34Z</time><name>PT3441</name></trkpt>
<trkpt lat="54.363401" lon="-3.124923"><ele>445</ele><time>2020-06-12T10:18:35Z</time><name>PT3442</name></trkpt>
<trkpt lat="54.363411" lon="-3.124932"><ele>443</ele><time>2020-06-12T10:18:36Z</time><name>PT3443</name></trkpt>
<trkpt lat="54.363422" lon="-3.124938"><ele>443</ele><time>2020-06-12T10:18:37Z</time><name>PT3444</name></trkpt>
<trkpt lat="54.363433" lon="-3.124941"><ele>443</ele><time>2020-06-12T10:18:38Z</time><name>PT3445</name></trkpt>
<trkpt lat="54.363444" lon="-3.124946"><ele>444</ele><time>2020-06-12T10:18:39Z</time><name>PT3446</name></trkpt>
<trkpt lat="54.363455" lon="-3.124948"><ele>444</ele><time>2020-06-12T10:18:40Z</time><name>PT3447</name></trkpt>
<trkpt lat="54.363467" lon="-3.124952"><ele>445</ele><time>2020-06-12T10:18:41Z</time><name>PT3448</name></trkpt>
<trkpt lat="54.363479" lon="-3.124959"><ele>445</ele><time>2020-06-12T10:18:42Z</time><name>PT3449</name></trkpt>
<trkpt lat="54.363490" lon="-3.124962"><ele>446</ele><time>2020-06-12T10:18:43Z</time><name>PT3450</name></trkpt>
<trkpt lat="54.363503" lon="-3.124965"><ele>445</ele><time>2020-06-12T10:18:44Z</time><name>PT3451</name></trkpt>
<trkpt lat="54.363514" lon="-3.124972"><ele>445</ele><time>2020-06-12T10:18:45Z</time><name>PT3452</name></trkpt>
<trkpt lat="54.363524" lon="-3.124978"><ele>445</ele><time>2020-06-12T10:18:46Z</time><name>PT3453</name></trkpt>
<trkpt lat="54.363535" lon="-3.124988"><ele>444</ele><time>2020-06-12T10:18:47Z</time><name>PT3454</name></trkpt>
<trkpt lat="54.363544" lon="-3.124999"><ele>443</ele><time>2020-06-12T10:18:48Z</time><name>PT3455</name></trkpt>
<trkpt lat="54.363555" lon="-3.125006"><ele>443</ele><time>2020-06-12T10:18:49Z</time><name>PT3456</name></trkpt>
<trkpt lat="54.363566" lon="-3.125013"><ele>443</ele><time>2020-06-12T10:18:50Z</time><name>PT3457</name></trkpt>
<trkpt lat="54.363576" lon="-3.125019"><ele>443</ele><time>2020-06-12T10:18:51Z</time><name>PT3458</name></trkpt>
<trkpt lat="54.363589" lon="-3.125022"><ele>443</ele><time>2020-06-12T10:18:52Z</time><name>PT3459</name></trkpt>
<trkpt lat="54.363601" lon="-3.125027"><ele>443</ele><time>2020-06-12T10:18:53Z</time><name>PT3460</name></trkpt>
<trkpt lat="54.363611" lon="-3.125032"><ele>443</ele><time>2020-06-12T10:18:54Z</time><name>PT3461</name></trkpt>
<trkpt lat="54.363621" lon="-3.125040"><ele>443</ele><time>2020-06-12T10:18:55Z</time><name>PT3462</name></trkpt>
<trkpt lat="54.363633" lon="-3.125047"><ele>443</ele><time>2020-06-12T10:18:56Z</time><name>PT3463</name></trkpt>
<trkpt lat="54.363643" lon="-3.125054"><ele>443</ele><time>2020-06-12T10:18:57Z</time><name>PT3464</name></trkpt>
<trkpt lat="54.363654" lon="-3.125063"><ele>442</ele><time>2020-06-12T10:18:58Z</time><name>PT3465</name></trkpt>
<trkpt lat="54.363665" lon="-3.125071"><ele>442</ele><time>2020-06-12T10:18:59Z</time><name>PT3466</name></trkpt>
<trkpt lat="54.363676" lon="-3.125076"><ele>443</ele><time>2020-06-12T10:19:00Z</time><name>PT3467</name></trkpt>
<trkpt lat="54.363688" lon="-3.125082"><ele>443</ele><time>2020-06-12T10:19:01Z</time><name>PT3468</name></trkpt>
<trkpt lat="54.363699" lon="-3.125088"><ele>443</ele><time>2020-06-12T10:19:02Z</time><name>PT3469</name></trkpt>
<trkpt lat="54.363708" lon="-3.125098"><ele>444</ele><time>2020-06-12T10:19:03Z</time><name>PT3470</name></trkpt>
<trkpt lat="54.363718" lon="-3.125109"><ele>444</ele><time>2020-06-12T10:19:04Z</time><name>PT3471</name></trkpt>
<trkpt lat="54.363726" lon="-3.125120"><ele>444</ele><time>2020-06-12T10:19:05Z</time><name>PT3472</name></trkpt>
<trkpt lat="54.363736" lon="-3.125131"><ele>444</ele><time>2020-06-12T10:19:06Z</time><name>PT3473</name></trkpt>
<trkpt lat="54.363744" lon="-3.125143"><ele>444</ele><time>2020-06-12T10:19:07Z</time><name>PT3474</name></trkpt>
<trkpt lat="54.363752" lon="-3.125154"><ele>444</ele><time>2020-06-12T10:19:08Z</time><name>PT3475</name></trkpt>
<trkpt lat="54.363761" lon="-3.125163"><ele>444</ele><time>2020-06-12T10:19:09Z</time><name>PT3476</name></trkpt>
<trkpt lat="54.363771" lon="-3.125168"><ele>443</ele><time>2020-06-12T10:19:10Z</time><name>PT3477</name></trkpt>
<trkpt lat="54.363785" lon="-3.125174"><ele>443</ele><time>2020-06-12T10:19:11Z</time><name>PT3478</name></trkpt>
<trkpt lat="54.363796" lon="-3.125178"><ele>443</ele><time>2020-06-12T10:19:12Z</time><name>PT3479</name></trkpt>
<trkpt lat="54.363806" lon="-3.125183"><ele>443</ele><time>2020-06-12T10:19:13Z</time><name>PT3480</name></trkpt>
<trkpt lat="54.363816" lon="-3.125193"><ele>443</ele><time>2020-06-12T10:19:14Z</time><name>PT3481</name></trkpt>
<trkpt lat="54.363824" lon="-3.125201"><ele>442</ele><time>2020-06-12T10:19:15Z</time><name>PT3482</name></trkpt>
<trkpt lat="54.363836" lon="-3.125206"><ele>443</ele><time>2020-06-12T10:19:16Z</time><name>PT3483</name></trkpt>
<trkpt lat="54.363846" lon="-3.125214"><ele>444</ele><time>2020-06-12T10:19:17Z</time><name>PT3484</name></trkpt>
<trkpt lat="54.363857" lon="-3.125217"><ele>444</ele><time>2020-06-12T10:19:18Z</time><name>PT3485</name></trkpt>
<trkpt lat="54.363866" lon="-3.125217"><ele>444</ele><time>2020-06-12T10:19:19Z</time><name>PT3486</name></trkpt>
<trkpt lat="54.363876" lon="-3.125215"><ele>444</ele><time>2020-06-12T10:19:20Z</time><name>PT3487</name></trkpt>
<trkpt lat="54.363885" lon="-3.125210"><ele>445</ele><time>2020-06-12T10:19:21Z</time><name>PT3488</name></trkpt>
<trkpt lat="54.363894" lon="-3.125211"><ele>445</ele><time>2020-06-12T10:19:22Z</time><name>PT3489</name></trkpt>
<trkpt lat="54.363905" lon="-3.125214"><ele>445</ele><time>2020-06-12T10:19:23Z</time><name>PT3490</name></trkpt>
<trkpt lat="54.363917" lon="-3.125217"><ele>446</ele><time>2020-06-12T10:19:24Z</time><name>PT3491</name></trkpt>
<trkpt lat="54.363926" lon="-3.125218"><ele>446</ele><time>2020-06-12T10:19:25Z</time><name>PT3492</name></trkpt>
<trkpt lat="54.363938" lon="-3.125220"><ele>446</ele><time>2020-06-12T10:19:26Z</time><name>PT3493</name></trkpt>
<trkpt lat="54.363944" lon="-3.125229"><ele>446</ele><time>2020-06-12T10:19:27Z</time><name>PT3494</name></trkpt>
<trkpt lat="54.363951" lon="-3.125232"><ele>447</ele><time>2020-06-12T10:19:28Z</time><name>PT3495</name></trkpt>
<trkpt lat="54.363959" lon="-3.125235"><ele>447</ele><time>2020-06-12T10:19:29Z</time><name>PT3496</name></trkpt>
<trkpt lat="54.363970" lon="-3.125241"><ele>447</ele><time>2020-06-12T10:19:30Z</time><name>PT3497</name></trkpt>
<trkpt lat="54.363980" lon="-3.125246"><ele>446</ele><time>2020-06-12T10:19:31Z</time><name>PT3498</name></trkpt>
<trkpt lat="54.363991" lon="-3.125252"><ele>446</ele><time>2020-06-12T10:19:32Z</time><name>PT3499</name></trkpt>
<trkpt lat="54.363999" lon="-3.125254"><ele>446</ele><time>2020-06-12T10:19:33Z</time><name>PT3500</name></trkpt>
<trkpt lat="54.364006" lon="-3.125252"><ele>446</ele><time>2020-06-12T10:19:34Z</time><name>PT3501</name></trkpt>
<trkpt lat="54.364013" lon="-3.125254"><ele>446</ele><time>2020-06-12T10:19:35Z</time><name>PT3502</name></trkpt>
<trkpt lat="54.364020" lon="-3.125255"><ele>446</ele><time>2020-06-12T10:19:36Z</time><name>PT3503</name></trkpt>
<trkpt lat="54.364027" lon="-3.125266"><ele>446</ele><time>2020-06-12T10:19:37Z</time><name>PT3504</name></trkpt>
<trkpt lat="54.364035" lon="-3.125273"><ele>446</ele><time>2020-06-12T10:19:38Z</time><name>PT3505</name></trkpt>
<trkpt lat="54.364042" lon="-3.125278"><ele>445</ele><time>2020-06-12T10:19:39Z</time><name>PT3506</name></trkpt>
<trkpt lat="54.364052" lon="-3.125284"><ele>444</ele><time>2020-06-12T10:19:40Z</time><name>PT3507</name></trkpt>
<trkpt lat="54.364062" lon="-3.125287"><ele>445</ele><time>2020-06-12T10:19:41Z</time><name>PT3508</name></trkpt>
<trkpt lat="54.364069" lon="-3.125295"><ele>445</ele><time>2020-06-12T10:19:42Z</time><name>PT3509</name></trkpt>
<trkpt lat="54.364076" lon="-3.125300"><ele>445</ele><time>2020-06-12T10:19:43Z</time><name>PT3510</name></trkpt>
<trkpt lat="54.364085" lon="-3.125307"><ele>445</ele><time>2020-06-12T10:19:44Z</time><name>PT3511</name></trkpt>
<trkpt lat="54.364093" lon="-3.125310"><ele>445</ele><time>2020-06-12T10:19:45Z</time><name>PT3512</name></trkpt>
<trkpt lat="54.364101" lon="-3.125314"><ele>444</ele><time>2020-06-12T10:19:46Z</time><name>PT3513</name></trkpt>
<trkpt lat="54.364109" lon="-3.125317"><ele>444</ele><time>2020-06-12T10:19:47Z</time><name>PT3514</name></trkpt>
<trkpt lat="54.364118" lon="-3.125324"><ele>444</ele><time>2020-06-12T10:19:48Z</time><name>PT3515</name></trkpt>
<trkpt lat="54.364128" lon="-3.125326"><ele>444</ele><time>2020-06-12T10:19:49Z</time><name>PT3516</name></trkpt>
<trkpt lat="54.364137" lon="-3.125328"><ele>444</ele><time>2020-06-12T10:19:50Z</time><name>PT3517</name></trkpt>
<trkpt lat="54.364145" lon="-3.125331"><ele>444</ele><time>2020-06-12T10:19:51Z</time><name>PT3518</name></trkpt>
<trkpt lat="54.364153" lon="-3.125337"><ele>444</ele><time>2020-06-12T10:19:52Z</time><name>PT3519</name></trkpt>
<trkpt lat="54.364163" lon="-3.125340"><ele>444</ele><time>2020-06-12T10:19:53Z</time><name>PT3520</name></trkpt>
<trkpt lat="54.364171" lon="-3.125350"><ele>444</ele><time>2020-06-12T10:19:54Z</time><name>PT3521</name></trkpt>
<trkpt lat="54.364180" lon="-3.125353"><ele>444</ele><time>2020-06-12T10:19:55Z</time><name>PT3522</name></trkpt>
<trkpt lat="54.364188" lon="-3.125360"><ele>444</ele><time>2020-06-12T10:19:56Z</time><name>PT3523</name></trkpt>
<trkpt lat="54.364197" lon="-3.125368"><ele>444</ele><time>2020-06-12T10:19:57Z</time><name>PT3524</name></trkpt>
<trkpt lat="54.364208" lon="-3.125377"><ele>445</ele><time>2020-06-12T10:19:58Z</time><name>PT3525</name></trkpt>
<trkpt lat="54.364219" lon="-3.125384"><ele>445</ele><time>2020-06-12T10:19:59Z</time><name>PT3526</name></trkpt>
<trkpt lat="54.364229" lon="-3.125391"><ele>446</ele><time>2020-06-12T10:20:00Z</time><name>PT3527</name></trkpt>
<trkpt lat="54.364236" lon="-3.125400"><ele>447</ele><time>2020-06-12T10:20:01Z</time><name>PT3528</name></trkpt>
<trkpt lat="54.364245" lon="-3.125409"><ele>447</ele><time>2020-06-12T10:20:02Z</time><name>PT3529</name></trkpt>
<trkpt lat="54.364248" lon="-3.125420"><ele>446</ele><time>2020-06-12T10:20:03Z</time><name>PT3530</name></trkpt>
<trkpt lat="54.364250" lon="-3.125430"><ele>446</ele><time>2020-06-12T10:20:04Z</time><name>PT3531</name></trkpt>
<trkpt lat="54.364257" lon="-3.125443"><ele>446</ele><time>2020-06-12T10:20:05Z</time><name>PT3532</name></trkpt>
<trkpt lat="54.364265" lon="-3.125459"><ele>447</ele><time>2020-06-12T10:20:06Z</time><name>PT3533</name></trkpt>
<trkpt lat="54.364274" lon="-3.125468"><ele>447</ele><time>2020-06-12T10:20:07Z</time><name>PT3534</name></trkpt>
<trkpt lat="54.364283" lon="-3.125475"><ele>448</ele><time>2020-06-12T10:20:08Z</time><name>PT3535</name></trkpt>
<trkpt lat="54.364292" lon="-3.125483"><ele>448</ele><time>2020-06-12T10:20:09Z</time><name>PT3536</name></trkpt>
<trkpt lat="54.364297" lon="-3.125492"><ele>447</ele><time>2020-06-12T10:20:10Z</time><name>PT3537</name></trkpt>
<trkpt lat="54.364302" lon="-3.125499"><ele>447</ele><time>2020-06-12T10:20:11Z</time><name>PT3538</name></trkpt>
<trkpt lat="54.364309" lon="-3.125507"><ele>447</ele><time>2020-06-12T10:20:12Z</time><name>PT3539</name></trkpt>
<trkpt lat="54.364312" lon="-3.125523"><ele>447</ele><time>2020-06-12T10:20:13Z</time><name>PT3540</name></trkpt>
<trkpt lat="54.364321" lon="-3.125535"><ele>447</ele><time>2020-06-12T10:20:14Z</time><name>PT3541</name></trkpt>
<trkpt lat="54.364329" lon="-3.125541"><ele>446</ele><time>2020-06-12T10:20:15Z</time><name>PT3542</name></trkpt>
<trkpt lat="54.364338" lon="-3.125544"><ele>445</ele><time>2020-06-12T10:20:16Z</time><name>PT3543</name></trkpt>
<trkpt lat="54.364346" lon="-3.125547"><ele>445</ele><time>2020-06-12T10:20:17Z</time><name>PT3544</name></trkpt>
<trkpt lat="54.364356" lon="-3.125552"><ele>445</ele><time>2020-06-12T10:20:18Z</time><name>PT3545</name></trkpt>
<trkpt lat="54.364365" lon="-3.125557"><ele>444</ele><time>2020-06-12T10:20:19Z</time><name>PT3546</name></trkpt>
<trkpt lat="54.364373" lon="-3.125560"><ele>444</ele><time>2020-06-12T10:20:20Z</time><name>PT3547</name></trkpt>
<trkpt lat="54.364379" lon="-3.125568"><ele>444</ele><time>2020-06-12T10:20:21Z</time><name>PT3548</name></trkpt>
<trkpt lat="54.364383" lon="-3.125581"><ele>444</ele><time>2020-06-12T10:20:22Z</time><name>PT3549</name></trkpt>
<trkpt lat="54.364389" lon="-3.125594"><ele>444</ele><time>2020-06-12T10:20:23Z</time><name>PT3550</name></trkpt>
<trkpt lat="54.364395" lon="-3.125604"><ele>445</ele><time>2020-06-12T10:20:24Z</time><name>PT3551</name></trkpt>
<trkpt lat="54.364403" lon="-3.125613"><ele>446</ele><time>2020-06-12T10:20:25Z</time><name>PT3552</name></trkpt>
<trkpt lat="54.364412" lon="-3.125616"><ele>445</ele><time>2020-06-12T10:20:26Z</time><name>PT3553</name></trkpt>
<trkpt lat="54.364416" lon="-3.125624"><ele>444</ele><time>2020-06-12T10:20:27Z</time><name>PT3554</name></trkpt>
<trkpt lat="54.364428" lon="-3.125633"><ele>445</ele><time>2020-06-12T10:20:28Z</time><name>PT3555</name></trkpt>
<trkpt lat="54.364435" lon="-3.125641"><ele>444</ele><time>2020-06-12T10:20:29Z</time><name>PT3556</name></trkpt>
<trkpt lat="54.364441" lon="-3.125649"><ele>444</ele><time>2020-06-12T10:20:30Z</time><name>PT3557</name></trkpt>
<trkpt lat="54.364446" lon="-3.125657"><ele>444</ele><time>2020-06-12T10:20:31Z</time><name>PT3558</name></trkpt>
<trkpt lat="54.364454" lon="-3.125672"><ele>445</ele><time>2020-06-12T10:20:32Z</time><name>PT3559</name></trkpt>
<trkpt lat="54.364463" lon="-3.125682"><ele>445</ele><time>2020-06-12T10:20:33Z</time><name>PT3560</name></trkpt>
<trkpt lat="54.364472" lon="-3.125692"><ele>444</ele><time>2020-06-12T10:20:34Z</time><name>PT3561</name></trkpt>
<trkpt lat="54.364481" lon="-3.125700"><ele>444</ele><time>2020-06-12T10:20:35Z</time><name>PT3562</name></trkpt>
<trkpt lat="54.364489" lon="-3.125703"><ele>444</ele><time>2020-06-12T10:20:36Z</time><name>PT3563</name></trkpt>
<trkpt lat="54.364496" lon="-3.125709"><ele>444</ele><time>2020-06-12T10:20:37Z</time><name>PT3564</name></trkpt>
<trkpt lat="54.364504" lon="-3.125715"><ele>444</ele><time>2020-06-12T10:20:38Z</time><name>PT3565</name></trkpt>
<trkpt lat="54.364510" lon="-3.125721"><ele>444</ele><time>2020-06-12T10:20:39Z</time><name>PT3566</name></trkpt>
<trkpt lat="54.364517" lon="-3.125726"><ele>443</ele><time>2020-06-12T10:20:40Z</time><name>PT3567</name></trkpt>
<trkpt lat="54.364527" lon="-3.125729"><ele>444</ele><time>2020-06-12T10:20:41Z</time><name>PT3568</name></trkpt>
<trkpt lat="54.364534" lon="-3.125730"><ele>444</ele><time>2020-06-12T10:20:42Z</time><name>PT3569</name></trkpt>
<trkpt lat="54.364543" lon="-3.125734"><ele>443</ele><time>2020-06-12T10:20:43Z</time><name>PT3570</name></trkpt>
<trkpt lat="54.364551" lon="-3.125738"><ele>444</ele><time>2020-06-12T10:20:44Z</time><name>PT3571</name></trkpt>
<trkpt lat="54.364559" lon="-3.125740"><ele>445</ele><time>2020-06-12T10:20:45Z</time><name>PT3572</name></trkpt>
<trkpt lat="54.364567" lon="-3.125742"><ele>445</ele><time>2020-06-12T10:20:46Z</time><name>PT3573</name></trkpt>
<trkpt lat="54.364572" lon="-3.125758"><ele>446</ele><time>2020-06-12T10:20:47Z</time><name>PT3574</name></trkpt>
<trkpt lat="54.364579" lon="-3.125767"><ele>446</ele><time>2020-06-12T10:20:48Z</time><name>PT3575</name></trkpt>
<trkpt lat="54.364588" lon="-3.125777"><ele>446</ele><time>2020-06-12T10:20:49Z</time><name>PT3576</name></trkpt>
<trkpt lat="54.364599" lon="-3.125784"><ele>447</ele><time>2020-06-12T10:20:50Z</time><name>PT3577</name></trkpt>
<trkpt lat="54.364608" lon="-3.125786"><ele>447</ele><time>2020-06-12T10:20:51Z</time><name>PT3578</name></trkpt>
<trkpt lat="54.364615" lon="-3.125792"><ele>447</ele><time>2020-06-12T10:20:52Z</time><name>PT3579</name></trkpt>
<trkpt lat="54.364622" lon="-3.125796"><ele>447</ele><time>2020-06-12T10:20:53Z</time><name>PT3580</name></trkpt>
<trkpt lat="54.364632" lon="-3.125799"><ele>448</ele><time>2020-06-12T10:20:54Z</time><name>PT3581</name></trkpt>
<trkpt lat="54.364639" lon="-3.125806"><ele>448</ele><time>2020-06-12T10:20:55Z</time><name>PT3582</name></trkpt>
<trkpt lat="54.364646" lon="-3.125814"><ele>448</ele><time>2020-06-12T10:20:56Z</time><name>PT3583</name></trkpt>
<trkpt lat="54.364651" lon="-3.125828"><ele>448</ele><time>2020-06-12T10:20:57Z</time><name>PT3584</name></trkpt>
<trkpt lat="54.364658" lon="-3.125838"><ele>448</ele><time>2020-06-12T10:20:58Z</time><name>PT3585</name></trkpt>
<trkpt lat="54.364666" lon="-3.125844"><ele>448</ele><time>2020-06-12T10:20:59Z</time><name>PT3586</name></trkpt>
<trkpt lat="54.364672" lon="-3.125853"><ele>448</ele><time>2020-06-12T10:21:00Z</time><name>PT3587</name></trkpt>
<trkpt lat="54.364680" lon="-3.125859"><ele>448</ele><time>2020-06-12T10:21:01Z</time><name>PT3588</name></trkpt>
<trkpt lat="54.364688" lon="-3.125869"><ele>448</ele><time>2020-06-12T10:21:02Z</time><name>PT3589</name></trkpt>
<trkpt lat="54.364697" lon="-3.125880"><ele>448</ele><time>2020-06-12T10:21:03Z</time><name>PT3590</name></trkpt>
<trkpt lat="54.364706" lon="-3.125892"><ele>448</ele><time>2020-06-12T10:21:04Z</time><name>PT3591</name></trkpt>
<trkpt lat="54.364711" lon="-3.125903"><ele>448</ele><time>2020-06-12T10:21:05Z</time><name>PT3592</name></trkpt>
<trkpt lat="54.364718" lon="-3.125914"><ele>448</ele><time>2020-06-12T10:21:06Z</time><name>PT3593</name></trkpt>
<trkpt lat="54.364726" lon="-3.125923"><ele>447</ele><time>2020-06-12T10:21:07Z</time><name>PT3594</name></trkpt>
<trkpt lat="54.364734" lon="-3.125931"><ele>448</ele><time>2020-06-12T10:21:08Z</time><name>PT3595</name></trkpt>
<trkpt lat="54.364741" lon="-3.125941"><ele>447</ele><time>2020-06-12T10:21:09Z</time><name>PT3596</name></trkpt>
<trkpt lat="54.364748" lon="-3.125951"><ele>447</ele><time>2020-06-12T10:21:10Z</time><name>PT3597</name></trkpt>
<trkpt lat="54.364755" lon="-3.125957"><ele>447</ele><time>2020-06-12T10:21:11Z</time><name>PT3598</name></trkpt>
<trkpt lat="54.364761" lon="-3.125965"><ele>447</ele><time>2020-06-12T10:21:12Z</time><name>PT3599</name></trkpt>
<trkpt lat="54.364768" lon="-3.125972"><ele>447</ele><time>2020-06-12T10:21:13Z</time><name>PT3600</name></trkpt>
<trkpt lat="54.364775" lon="-3.125980"><ele>447</ele><time>2020-06-12T10:21:14Z</time><name>PT3601</name></trkpt>
<trkpt lat="54.364782" lon="-3.125985"><ele>447</ele><time>2020-06-12T10:21:15Z</time><name>PT3602</name></trkpt>
<trkpt lat="54.364791" lon="-3.125990"><ele>447</ele><time>2020-06-12T10:21:16Z</time><name>PT3603</name></trkpt>
<trkpt lat="54.364798" lon="-3.125997"><ele>447</ele><time>2020-06-12T10:21:17Z</time><name>PT3604</name></trkpt>
<trkpt lat="54.364806" lon="-3.126005"><ele>447</ele><time>2020-06-12T10:21:18Z</time><name>PT3605</name></trkpt>
<trkpt lat="54.364814" lon="-3.126011"><ele>447</ele><time>2020-06-12T10:21:19Z</time><name>PT3606</name></trkpt>
<trkpt lat="54.364822" lon="-3.126018"><ele>447</ele><time>2020-06-12T10:21:20Z</time><name>PT3607</name></trkpt>
<trkpt lat="54.364830" lon="-3.126024"><ele>447</ele><time>2020-06-12T10:21:21Z</time><name>PT3608</name></trkpt>
<trkpt lat="54.364839" lon="-3.126029"><ele>447</ele><time>2020-06-12T10:21:22Z</time><name>PT3609</name></trkpt>
<trkpt lat="54.364848" lon="-3.126036"><ele>447</ele><time>2020-06-12T10:21:23Z</time><name>PT3610</name></trkpt>
<trkpt lat="54.364858" lon="-3.126040"><ele>447</ele><time>2020-06-12T10:21:24Z</time><name>PT3611</name></trkpt>
<trkpt lat="54.364867" lon="-3.126045"><ele>448</ele><time>2020-06-12T10:21:25Z</time><name>PT3612</name></trkpt>
<trkpt lat="54.364877" lon="-3.126050"><ele>448</ele><time>2020-06-12T10:21:26Z</time><name>PT3613</name></trkpt>
<trkpt lat="54.364885" lon="-3.126057"><ele>448</ele><time>2020-06-12T10:21:27Z</time><name>PT3614</name></trkpt>
<trkpt lat="54.364891" lon="-3.126068"><ele>448</ele><time>2020-06-12T10:21:28Z</time><name>PT3615</name></trkpt>
<trkpt lat="54.364900" lon="-3.126075"><ele>448</ele><time>2020-06-12T10:21:29Z</time><name>PT3616</name></trkpt>
<trkpt lat="54.364910" lon="-3.126082"><ele>448</ele><time>2020-06-12T10:21:30Z</time><name>PT3617</name></trkpt>
<trkpt lat="54.364921" lon="-3.126086"><ele>448</ele><time>2020-06-12T10:21:31Z</time><name>PT3618</name></trkpt>
<trkpt lat="54.364931" lon="-3.126089"><ele>448</ele><time>2020-06-12T10:21:32Z</time><name>PT3619</name></trkpt>
<trkpt lat="54.364939" lon="-3.126096"><ele>448</ele><time>2020-06-12T10:21:33Z</time><name>PT3620</name></trkpt>
<trkpt lat="54.364946" lon="-3.126102"><ele>448</ele><time>2020-06-12T10:21:34Z</time><name>PT3621</name></trkpt>
<trkpt lat="54.364955" lon="-3.126105"><ele>448</ele><time>2020-06-12T10:21:35Z</time><name>PT3622</name></trkpt>
<trkpt lat="54.364965" lon="-3.126107"><ele>448</ele><time>2020-06-12T10:21:36Z</time><name>PT3623</name></trkpt>
<trkpt lat="54.364977" lon="-3.126108"><ele>448</ele><time>2020-06-12T10:21:37Z</time><name>PT3624</name></trkpt>
<trkpt lat="54.364988" lon="-3.126110"><ele>449</ele><time>2020-06-12T10:21:38Z</time><name>PT3625</name></trkpt>
<trkpt lat="54.364999" lon="-3.126111"><ele>449</ele><time>2020-06-12T10:21:39Z</time><name>PT3626</name></trkpt>
<trkpt lat="54.365008" lon="-3.126112"><ele>449</ele><time>2020-06-12T10:21:40Z</time><name>PT3627</name></trkpt>
<trkpt lat="54.365019" lon="-3.126111"><ele>449</ele><time>2020-06-12T10:21:41Z</time><name>PT3628</name></trkpt>
<trkpt lat="54.365028" lon="-3.126114"><ele>449</ele><time>2020-06-12T10:21:42Z</time><name>PT3629</name></trkpt>
<trkpt lat="54.365038" lon="-3.126117"><ele>449</ele><time>2020-06-12T10:21:43Z</time><name>PT3630</name></trkpt>
<trkpt lat="54.365050" lon="-3.126114"><ele>449</ele><time>2020-06-12T10:21:44Z</time><name>PT3631</name></trkpt>
<trkpt lat="54.365060" lon="-3.126113"><ele>449</ele><time>2020-06-12T10:21:45Z</time><name>PT3632</name></trkpt>
<trkpt lat="54.365073" lon="-3.126109"><ele>450</ele><time>2020-06-12T10:21:46Z</time><name>PT3633</name></trkpt>
<trkpt lat="54.365082" lon="-3.126110"><ele>450</ele><time>2020-06-12T10:21:47Z</time><name>PT3634</name></trkpt>
<trkpt lat="54.365089" lon="-3.126112"><ele>450</ele><time>2020-06-12T10:21:48Z</time><name>PT3635</name></trkpt>
<trkpt lat="54.365098" lon="-3.126116"><ele>450</ele><time>2020-06-12T10:21:49Z</time><name>PT3636</name></trkpt>
<trkpt lat="54.365105" lon="-3.126127"><ele>450</ele><time>2020-06-12T10:21:50Z</time><name>PT3637</name></trkpt>
<trkpt lat="54.365113" lon="-3.126135"><ele>450</ele><time>2020-06-12T10:21:51Z</time><name>PT3638</name></trkpt>
<trkpt lat="54.365120" lon="-3.126142"><ele>450</ele><time>2020-06-12T10:21:52Z</time><name>PT3639</name></trkpt>
<trkpt lat="54.365130" lon="-3.126145"><ele>451</ele><time>2020-06-12T10:21:53Z</time><name>PT3640</name></trkpt>
<trkpt lat="54.365137" lon="-3.126149"><ele>451</ele><time>2020-06-12T10:21:54Z</time><name>PT3641</name></trkpt>
<trkpt lat="54.365143" lon="-3.126152"><ele>451</ele><time>2020-06-12T10:21:55Z</time><name>PT3642</name></trkpt>
<trkpt lat="54.365150" lon="-3.126151"><ele>451</ele><time>2020-06-12T10:21:56Z</time><name>PT3643</name></trkpt>
<trkpt lat="54.365158" lon="-3.126156"><ele>451</ele><time>2020-06-12T10:21:57Z</time><name>PT3644</name></trkpt>
<trkpt lat="54.365164" lon="-3.126160"><ele>451</ele><time>2020-06-12T10:21:58Z</time><name>PT3645</name></trkpt>
<trkpt lat="54.365172" lon="-3.126168"><ele>451</ele><time>2020-06-12T10:21:59Z</time><name>PT3646</name></trkpt>
<trkpt lat="54.365182" lon="-3.126178"><ele>452</ele><time>2020-06-12T10:22:00Z</time><name>PT3647</name></trkpt>
<trkpt lat="54.365189" lon="-3.126188"><ele>452</ele><time>2020-06-12T10:22:01Z</time><name>PT3648</name></trkpt>
<trkpt lat="54.365196" lon="-3.126194"><ele>452</ele><time>2020-06-12T10:22:02Z</time><name>PT3649</name></trkpt>
<trkpt lat="54.365204" lon="-3.126206"><ele>452</ele><time>2020-06-12T10:22:03Z</time><name>PT3650</name></trkpt>
<trkpt lat="54.365212" lon="-3.126210"><ele>452</ele><time>2020-06-12T10:22:04Z</time><name>PT3651</name></trkpt>
<trkpt lat="54.365218" lon="-3.126214"><ele>452</ele><time>2020-06-12T10:22:05Z</time><name>PT3652</name></trkpt>
<trkpt lat="54.365224" lon="-3.126225"><ele>452</ele><time>2020-06-12T10:22:07Z</time><name>PT3653</name></trkpt>
<trkpt lat="54.365232" lon="-3.126236"><ele>452</ele><time>2020-06-12T10:22:07Z</time><name>PT3654</name></trkpt>
<trkpt lat="54.365242" lon="-3.126244"><ele>452</ele><time>2020-06-12T10:22:09Z</time><name>PT3655</name></trkpt>
<trkpt lat="54.365250" lon="-3.126246"><ele>453</ele><time>2020-06-12T10:22:09Z</time><name>PT3656</name></trkpt>
<trkpt lat="54.365255" lon="-3.126251"><ele>453</ele><time>2020-06-12T10:22:10Z</time><name>PT3657</name></trkpt>
<trkpt lat="54.365260" lon="-3.126257"><ele>453</ele><time>2020-06-12T10:22:11Z</time><name>PT3658</name></trkpt>
<trkpt lat="54.365269" lon="-3.126261"><ele>453</ele><time>2020-06-12T10:22:12Z</time><name>PT3659</name></trkpt>
<trkpt lat="54.365276" lon="-3.126269"><ele>453</ele><time>2020-06-12T10:22:13Z</time><name>PT3660</name></trkpt>
<trkpt lat="54.365283" lon="-3.126277"><ele>454</ele><time>2020-06-12T10:22:14Z</time><name>PT3661</name></trkpt>
<trkpt lat="54.365289" lon="-3.126280"><ele>454</ele><time>2020-06-12T10:22:15Z</time><name>PT3662</name></trkpt>
<trkpt lat="54.365294" lon="-3.126279"><ele>454</ele><time>2020-06-12T10:22:16Z</time><name>PT3663</name></trkpt>
<trkpt lat="54.365300" lon="-3.126278"><ele>454</ele><time>2020-06-12T10:22:17Z</time><name>PT3664</name></trkpt>
<trkpt lat="54.365306" lon="-3.126273"><ele>454</ele><time>2020-06-12T10:22:18Z</time><name>PT3665</name></trkpt>
<trkpt lat="54.365311" lon="-3.126273"><ele>454</ele><time>2020-06-12T10:22:19Z</time><name>PT3666</name></trkpt>
<trkpt lat="54.365318" lon="-3.126274"><ele>454</ele><time>2020-06-12T10:22:20Z</time><name>PT3667</name></trkpt>
<trkpt lat="54.365321" lon="-3.126276"><ele>454</ele><time>2020-06-12T10:22:21Z</time><name>PT3668</name></trkpt>
<trkpt lat="54.365323" lon="-3.126289"><ele>454</ele><time>2020-06-12T10:22:25Z</time><name>PT3669</name></trkpt>
<trkpt lat="54.365329" lon="-3.126294"><ele>454</ele><time>2020-06-12T10:22:26Z</time><name>PT3670</name></trkpt>
<trkpt lat="54.365338" lon="-3.126304"><ele>454</ele><time>2020-06-12T10:22:27Z</time><name>PT3671</name></trkpt>
<trkpt lat="54.365349" lon="-3.126320"><ele>454</ele><time>2020-06-12T10:22:28Z</time><name>PT3672</name></trkpt>
<trkpt lat="54.365363" lon="-3.126329"><ele>454</ele><time>2020-06-12T10:22:29Z</time><name>PT3673</name></trkpt>
<trkpt lat="54.365373" lon="-3.126333"><ele>454</ele><time>2020-06-12T10:22:30Z</time><name>PT3674</name></trkpt>
<trkpt lat="54.365384" lon="-3.126350"><ele>454</ele><time>2020-06-12T10:22:31Z</time><name>PT3675</name></trkpt>
<trkpt lat="54.365393" lon="-3.126356"><ele>454</ele><time>2020-06-12T10:22:32Z</time><name>PT3676</name></trkpt>
<trkpt lat="54.365402" lon="-3.126358"><ele>454</ele><time>2020-06-12T10:22:33Z</time><name>PT3677</name></trkpt>
<trkpt lat="54.365411" lon="-3.126362"><ele>454</ele><time>2020-06-12T10:22:34Z</time><name>PT3678</name></trkpt>
<trkpt lat="54.365421" lon="-3.126368"><ele>454</ele><time>2020-06-12T10:22:35Z</time><name>PT3679</name></trkpt>
<trkpt lat="54.365428" lon="-3.126374"><ele>454</ele><time>2020-06-12T10:22:36Z</time><name>PT3680</name></trkpt>
<trkpt lat="54.365437" lon="-3.126377"><ele>454</ele><time>2020-06-12T10:22:37Z</time><name>PT3681</name></trkpt>
<trkpt lat="54.365445" lon="-3.126382"><ele>454</ele><time>2020-06-12T10:22:38Z</time><name>PT3682</name></trkpt>
<trkpt lat="54.365453" lon="-3.126384"><ele>455</ele><time>2020-06-12T10:22:39Z</time><name>PT3683</name></trkpt>
<trkpt lat="54.365458" lon="-3.126388"><ele>455</ele><time>2020-06-12T10:22:40Z</time><name>PT3684</name></trkpt>
<trkpt lat="54.365461" lon="-3.126390"><ele>455</ele><time>2020-06-12T10:22:41Z</time><name>PT3685</name></trkpt>
<trkpt lat="54.365466" lon="-3.126395"><ele>455</ele><time>2020-06-12T10:22:42Z</time><name>PT3686</name></trkpt>
<trkpt lat="54.365474" lon="-3.126398"><ele>455</ele><time>2020-06-12T10:22:43Z</time><name>PT3687</name></trkpt>
<trkpt lat="54.365479" lon="-3.126404"><ele>455</ele><time>2020-06-12T10:22:44Z</time><name>PT3688</name></trkpt>
<trkpt lat="54.365484" lon="-3.126414"><ele>455</ele><time>2020-06-12T10:22:45Z</time><name>PT3689</name></trkpt>
<trkpt lat="54.365487" lon="-3.126422"><ele>455</ele><time>2020-06-12T10:22:46Z</time><name>PT3690</name></trkpt>
<trkpt lat="54.365493" lon="-3.126426"><ele>455</ele><time>2020-06-12T10:22:51Z</time><name>PT3691</name></trkpt>
<trkpt lat="54.365502" lon="-3.126438"><ele>455</ele><time>2020-06-12T10:22:52Z</time><name>PT3692</name></trkpt>
<trkpt lat="54.365515" lon="-3.126453"><ele>456</ele><time>2020-06-12T10:22:53Z</time><name>PT3693</name></trkpt>
<trkpt lat="54.365529" lon="-3.126466"><ele>456</ele><time>2020-06-12T10:22:54Z</time><name>PT3694</name></trkpt>
<trkpt lat="54.365537" lon="-3.126483"><ele>456</ele><time>2020-06-12T10:22:55Z</time><name>PT3695</name></trkpt>
<trkpt lat="54.365541" lon="-3.126500"><ele>456</ele><time>2020-06-12T10:22:56Z</time><name>PT3696</name></trkpt>
<trkpt lat="54.365552" lon="-3.126516"><ele>457</ele><time>2020-06-12T10:22:57Z</time><name>PT3697</name></trkpt>
<trkpt lat="54.365557" lon="-3.126536"><ele>457</ele><time>2020-06-12T10:22:58Z</time><name>PT3698</name></trkpt>
<trkpt lat="54.365565" lon="-3.126536"><ele>458</ele><time>2020-06-12T10:22:59Z</time><name>PT3699</name></trkpt>
<trkpt lat="54.365570" lon="-3.126548"><ele>457</ele><time>2020-06-12T10:23:00Z</time><name>PT3700</name></trkpt>
<trkpt lat="54.365576" lon="-3.126561"><ele>457</ele><time>2020-06-12T10:23:01Z</time><name>PT3701</name></trkpt>
<trkpt lat="54.365587" lon="-3.126574"><ele>458</ele><time>2020-06-12T10:23:02Z</time><name>PT3702</name></trkpt>
<trkpt lat="54.365603" lon="-3.126589"><ele>459</ele><time>2020-06-12T10:23:03Z</time><name>PT3703</name></trkpt>
<trkpt lat="54.365613" lon="-3.126599"><ele>460</ele><time>2020-06-12T10:23:04Z</time><name>PT3704</name></trkpt>
<trkpt lat="54.365620" lon="-3.126604"><ele>460</ele><time>2020-06-12T10:23:05Z</time><name>PT3705</name></trkpt>
<trkpt lat="54.365623" lon="-3.126611"><ele>460</ele><time>2020-06-12T10:23:06Z</time><name>PT3706</name></trkpt>
<trkpt lat="54.365629" lon="-3.126615"><ele>460</ele><time>2020-06-12T10:23:07Z</time><name>PT3707</name></trkpt>
<trkpt lat="54.365635" lon="-3.126626"><ele>460</ele><time>2020-06-12T10:23:08Z</time><name>PT3708</name></trkpt>
<trkpt lat="54.365643" lon="-3.126632"><ele>459</ele><time>2020-06-12T10:23:09Z</time><name>PT3709</name></trkpt>
<trkpt lat="54.365649" lon="-3.126640"><ele>460</ele><time>2020-06-12T10:23:10Z</time><name>PT3710</name></trkpt>
<trkpt lat="54.365654" lon="-3.126653"><ele>459</ele><time>2020-06-12T10:23:11Z</time><name>PT3711</name></trkpt>
<trkpt lat="54.365658" lon="-3.126666"><ele>460</ele><time>2020-06-12T10:23:12Z</time><name>PT3712</name></trkpt>
<trkpt lat="54.365662" lon="-3.126679"><ele>460</ele><time>2020-06-12T10:23:13Z</time><name>PT3713</name></trkpt>
<trkpt lat="54.365670" lon="-3.126676"><ele>460</ele><time>2020-06-12T10:23:14Z</time><name>PT3714</name></trkpt>
<trkpt lat="54.365674" lon="-3.126689"><ele>460</ele><time>2020-06-12T10:23:15Z</time><name>PT3715</name></trkpt>
<trkpt lat="54.365686" lon="-3.126697"><ele>461</ele><time>2020-06-12T10:23:16Z</time><name>PT3716</name></trkpt>
<trkpt lat="54.365695" lon="-3.126702"><ele>462</ele><time>2020-06-12T10:23:17Z</time><name>PT3717</name></trkpt>
<trkpt lat="54.365699" lon="-3.126707"><ele>462</ele><time>2020-06-12T10:23:18Z</time><name>PT3718</name></trkpt>
<trkpt lat="54.365704" lon="-3.126718"><ele>463</ele><time>2020-06-12T10:23:19Z</time><name>PT3719</name></trkpt>
<trkpt lat="54.365708" lon="-3.126727"><ele>463</ele><time>2020-06-12T10:23:20Z</time><name>PT3720</name></trkpt>
<trkpt lat="54.365711" lon="-3.126734"><ele>463</ele><time>2020-06-12T10:23:21Z</time><name>PT3721</name></trkpt>
<trkpt lat="54.365715" lon="-3.126740"><ele>464</ele><time>2020-06-12T10:23:22Z</time><name>PT3722</name></trkpt>
<trkpt lat="54.365719" lon="-3.126748"><ele>464</ele><time>2020-06-12T10:23:23Z</time><name>PT3723</name></trkpt>
<trkpt lat="54.365723" lon="-3.126756"><ele>464</ele><time>2020-06-12T10:23:24Z</time><name>PT3724</name></trkpt>
<trkpt lat="54.365728" lon="-3.126761"><ele>464</ele><time>2020-06-12T10:23:25Z</time><name>PT3725</name></trkpt>
<trkpt lat="54.365730" lon="-3.126767"><ele>465</ele><time>2020-06-12T10:23:26Z</time><name>PT3726</name></trkpt>
<trkpt lat="54.365741" lon="-3.126776"><ele>464</ele><time>2020-06-12T10:23:27Z</time><name>PT3727</name></trkpt>
<trkpt lat="54.365747" lon="-3.126782"><ele>464</ele><time>2020-06-12T10:23:28Z</time><name>PT3728</name></trkpt>
<trkpt lat="54.365752" lon="-3.126790"><ele>464</ele><time>2020-06-12T10:23:29Z</time><name>PT3729</name></trkpt>
<trkpt lat="54.365756" lon="-3.126800"><ele>464</ele><time>2020-06-12T10:23:30Z</time><name>PT3730</name></trkpt>
<trkpt lat="54.365755" lon="-3.126814"><ele>464</ele><time>2020-06-12T10:23:31Z</time><name>PT3731</name></trkpt>
<trkpt lat="54.365758" lon="-3.126828"><ele>465</ele><time>2020-06-12T10:23:32Z</time><name>PT3732</name></trkpt>
<trkpt lat="54.365762" lon="-3.126837"><ele>465</ele><time>2020-06-12T10:23:33Z</time><name>PT3733</name></trkpt>
<trkpt lat="54.365767" lon="-3.126843"><ele>465</ele><time>2020-06-12T10:23:34Z</time><name>PT3734</name></trkpt>
<trkpt lat="54.365772" lon="-3.126849"><ele>466</ele><time>2020-06-12T10:23:35Z</time><name>PT3735</name></trkpt>
<trkpt lat="54.365776" lon="-3.126850"><ele>467</ele><time>2020-06-12T10:23:36Z</time><name>PT3736</name></trkpt>
<trkpt lat="54.365780" lon="-3.126857"><ele>467</ele><time>2020-06-12T10:23:37Z</time><name>PT3737</name></trkpt>
<trkpt lat="54.365784" lon="-3.126861"><ele>467</ele><time>2020-06-12T10:23:38Z</time><name>PT3738</name></trkpt>
<trkpt lat="54.365788" lon="-3.126875"><ele>466</ele><time>2020-06-12T10:23:39Z</time><name>PT3739</name></trkpt>
<trkpt lat="54.365799" lon="-3.126880"><ele>466</ele><time>2020-06-12T10:23:40Z</time><name>PT3740</name></trkpt>
<trkpt lat="54.365805" lon="-3.126889"><ele>466</ele><time>2020-06-12T10:23:41Z</time><name>PT3741</name></trkpt>
<trkpt lat="54.365815" lon="-3.126901"><ele>467</ele><time>2020-06-12T10:23:42Z</time><name>PT3742</name></trkpt>
<trkpt lat="54.365824" lon="-3.126909"><ele>468</ele><time>2020-06-12T10:23:43Z</time><name>PT3743</name></trkpt>
<trkpt lat="54.365822" lon="-3.126926"><ele>468</ele><time>2020-06-12T10:23:44Z</time><name>PT3744</name></trkpt>
<trkpt lat="54.365820" lon="-3.126940"><ele>468</ele><time>2020-06-12T10:23:45Z</time><name>PT3745</name></trkpt>
<trkpt lat="54.365817" lon="-3.126957"><ele>468</ele><time>2020-06-12T10:23:46Z</time><name>PT3746</name></trkpt>
<trkpt lat="54.365818" lon="-3.126973"><ele>467</ele><time>2020-06-12T10:23:47Z</time><name>PT3747</name></trkpt>
<trkpt lat="54.365817" lon="-3.126985"><ele>467</ele><time>2020-06-12T10:23:48Z</time><name>PT3748</name></trkpt>
<trkpt lat="54.365817" lon="-3.126999"><ele>468</ele><time>2020-06-12T10:23:49Z</time><name>PT3749</name></trkpt>
<trkpt lat="54.365819" lon="-3.127008"><ele>468</ele><time>2020-06-12T10:23:50Z</time><name>PT3750</name></trkpt>
<trkpt lat="54.365821" lon="-3.127017"><ele>468</ele><time>2020-06-12T10:23:51Z</time><name>PT3751</name></trkpt>
<trkpt lat="54.365823" lon="-3.127020"><ele>468</ele><time>2020-06-12T10:23:52Z</time><name>PT3752</name></trkpt>
<trkpt lat="54.365825" lon="-3.127033"><ele>469</ele><time>2020-06-12T10:23:53Z</time><name>PT3753</name></trkpt>
<trkpt lat="54.365828" lon="-3.127044"><ele>469</ele><time>2020-06-12T10:23:54Z</time><name>PT3754</name></trkpt>
<trkpt lat="54.365834" lon="-3.127054"><ele>468</ele><time>2020-06-12T10:23:55Z</time><name>PT3755</name></trkpt>
<trkpt lat="54.365837" lon="-3.127065"><ele>468</ele><time>2020-06-12T10:23:56Z</time><name>PT3756</name></trkpt>
<trkpt lat="54.365841" lon="-3.127076"><ele>468</ele><time>2020-06-12T10:23:57Z</time><name>PT3757</name></trkpt>
<trkpt lat="54.365844" lon="-3.127088"><ele>468</ele><time>2020-06-12T10:23:58Z</time><name>PT3758</name></trkpt>
<trkpt lat="54.365846" lon="-3.127099"><ele>469</ele><time>2020-06-12T10:23:59Z</time><name>PT3759</name></trkpt>
<trkpt lat="54.365846" lon="-3.127112"><ele>470</ele><time>2020-06-12T10:24:00Z</time><name>PT3760</name></trkpt>
<trkpt lat="54.365847" lon="-3.127122"><ele>470</ele><time>2020-06-12T10:24:01Z</time><name>PT3761</name></trkpt>
<trkpt lat="54.365848" lon="-3.127128"><ele>470</ele><time>2020-06-12T10:24:02Z</time><name>PT3762</name></trkpt>
<trkpt lat="54.365851" lon="-3.127134"><ele>471</ele><time>2020-06-12T10:24:03Z</time><name>PT3763</name></trkpt>
<trkpt lat="54.365852" lon="-3.127143"><ele>471</ele><time>2020-06-12T10:24:04Z</time><name>PT3764</name></trkpt>
<trkpt lat="54.365855" lon="-3.127154"><ele>469</ele><time>2020-06-12T10:24:05Z</time><name>PT3765</name></trkpt>
<trkpt lat="54.365856" lon="-3.127165"><ele>470</ele><time>2020-06-12T10:24:06Z</time><name>PT3766</name></trkpt>
<trkpt lat="54.365862" lon="-3.127178"><ele>469</ele><time>2020-06-12T10:24:07Z</time><name>PT3767</name></trkpt>
<trkpt lat="54.365861" lon="-3.127187"><ele>469</ele><time>2020-06-12T10:24:08Z</time><name>PT3768</name></trkpt>
<trkpt lat="54.365860" lon="-3.127199"><ele>469</ele><time>2020-06-12T10:24:09Z</time><name>PT3769</name></trkpt>
<trkpt lat="54.365855" lon="-3.127208"><ele>469</ele><time>2020-06-12T10:24:10Z</time><name>PT3770</name></trkpt>
<trkpt lat="54.365854" lon="-3.127222"><ele>468</ele><time>2020-06-12T10:24:11Z</time><name>PT3771</name></trkpt>
<trkpt lat="54.365853" lon="-3.127237"><ele>469</ele><time>2020-06-12T10:24:12Z</time><name>PT3772</name></trkpt>
<trkpt lat="54.365851" lon="-3.127248"><ele>469</ele><time>2020-06-12T10:24:13Z</time><name>PT3773</name></trkpt>
<trkpt lat="54.365850" lon="-3.127256"><ele>468</ele><time>2020-06-12T10:24:14Z</time><name>PT3774</name></trkpt>
<trkpt lat="54.365847" lon="-3.127269"><ele>468</ele><time>2020-06-12T10:24:15Z</time><name>PT3775</name></trkpt>
<trkpt lat="54.365845" lon="-3.127280"><ele>467</ele><time>2020-06-12T10:24:16Z</time><name>PT3776</name></trkpt>
<trkpt lat="54.365845" lon="-3.127293"><ele>466</ele><time>2020-06-12T10:24:17Z</time><name>PT3777</name></trkpt>
<trkpt lat="54.365845" lon="-3.127306"><ele>466</ele><time>2020-06-12T10:24:18Z</time><name>PT3778</name></trkpt>
<trkpt lat="54.365847" lon="-3.127318"><ele>466</ele><time>2020-06-12T10:24:19Z</time><name>PT3779</name></trkpt>
<trkpt lat="54.365850" lon="-3.127328"><ele>466</ele><time>2020-06-12T10:24:20Z</time><name>PT3780</name></trkpt>
<trkpt lat="54.365846" lon="-3.127353"><ele>467</ele><time>2020-06-12T10:24:21Z</time><name>PT3781</name></trkpt>
<trkpt lat="54.365839" lon="-3.127365"><ele>468</ele><time>2020-06-12T10:24:22Z</time><name>PT3782</name></trkpt>
<trkpt lat="54.365842" lon="-3.127376"><ele>468</ele><time>2020-06-12T10:24:23Z</time><name>PT3783</name></trkpt>
<trkpt lat="54.365841" lon="-3.127385"><ele>468</ele><time>2020-06-12T10:24:24Z</time><name>PT3784</name></trkpt>
<trkpt lat="54.365845" lon="-3.127397"><ele>468</ele><time>2020-06-12T10:24:25Z</time><name>PT3785</name></trkpt>
<trkpt lat="54.365845" lon="-3.127410"><ele>468</ele><time>2020-06-12T10:24:26Z</time><name>PT3786</name></trkpt>
<trkpt lat="54.365846" lon="-3.127424"><ele>467</ele><time>2020-06-12T10:24:27Z</time><name>PT3787</name></trkpt>
<trkpt lat="54.365841" lon="-3.127439"><ele>468</ele><time>2020-06-12T10:24:28Z</time><name>PT3788</name></trkpt>
<trkpt lat="54.365848" lon="-3.127445"><ele>466</ele><time>2020-06-12T10:24:29Z</time><name>PT3789</name></trkpt>
<trkpt lat="54.365849" lon="-3.127454"><ele>466</ele><time>2020-06-12T10:24:30Z</time><name>PT3790</name></trkpt>
<trkpt lat="54.365843" lon="-3.127469"><ele>467</ele><time>2020-06-12T10:24:31Z</time><name>PT3791</name></trkpt>
<trkpt lat="54.365837" lon="-3.127482"><ele>467</ele><time>2020-06-12T10:24:32Z</time><name>PT3792</name></trkpt>
<trkpt lat="54.365833" lon="-3.127491"><ele>467</ele><time>2020-06-12T10:24:33Z</time><name>PT3793</name></trkpt>
<trkpt lat="54.365833" lon="-3.127495"><ele>467</ele><time>2020-06-12T10:24:34Z</time><name>PT3794</name></trkpt>
<trkpt lat="54.365832" lon="-3.127502"><ele>467</ele><time>2020-06-12T10:24:35Z</time><name>PT3795</name></trkpt>
<trkpt lat="54.365830" lon="-3.127513"><ele>467</ele><time>2020-06-12T10:24:36Z</time><name>PT3796</name></trkpt>
<trkpt lat="54.365832" lon="-3.127526"><ele>467</ele><time>2020-06-12T10:24:37Z</time><name>PT3797</name></trkpt>
<trkpt lat="54.365835" lon="-3.127540"><ele>467</ele><time>2020-06-12T10:24:38Z</time><name>PT3798</name></trkpt>
<trkpt lat="54.365838" lon="-3.127556"><ele>467</ele><time>2020-06-12T10:24:39Z</time><name>PT3799</name></trkpt>
<trkpt lat="54.365840" lon="-3.127569"><ele>467</ele><time>2020-06-12T10:24:40Z</time><name>PT3800</name></trkpt>
<trkpt lat="54.365845" lon="-3.127577"><ele>467</ele><time>2020-06-12T10:24:41Z</time><name>PT3801</name></trkpt>
<trkpt lat="54.365851" lon="-3.127584"><ele>467</ele><time>2020-06-12T10:24:42Z</time><name>PT3802</name></trkpt>
<trkpt lat="54.365854" lon="-3.127591"><ele>468</ele><time>2020-06-12T10:24:43Z</time><name>PT3803</name></trkpt>
<trkpt lat="54.365859" lon="-3.127603"><ele>468</ele><time>2020-06-12T10:24:44Z</time><name>PT3804</name></trkpt>
<trkpt lat="54.365861" lon="-3.127612"><ele>468</ele><time>2020-06-12T10:24:45Z</time><name>PT3805</name></trkpt>
<trkpt lat="54.365861" lon="-3.127621"><ele>469</ele><time>2020-06-12T10:24:46Z</time><name>PT3806</name></trkpt>
<trkpt lat="54.365867" lon="-3.127629"><ele>469</ele><time>2020-06-12T10:24:47Z</time><name>PT3807</name></trkpt>
<trkpt lat="54.365870" lon="-3.127633"><ele>469</ele><time>2020-06-12T10:24:48Z</time><name>PT3808</name></trkpt>
<trkpt lat="54.365874" lon="-3.127644"><ele>468</ele><time>2020-06-12T10:24:49Z</time><name>PT3809</name></trkpt>
<trkpt lat="54.365880" lon="-3.127662"><ele>467</ele><time>2020-06-12T10:24:50Z</time><name>PT3810</name></trkpt>
<trkpt lat="54.365882" lon="-3.127678"><ele>468</ele><time>2020-06-12T10:24:51Z</time><name>PT3811</name></trkpt>
<trkpt lat="54.365886" lon="-3.127697"><ele>468</ele><time>2020-06-12T10:24:52Z</time><name>PT3812</name></trkpt>
<trkpt lat="54.365890" lon="-3.127714"><ele>468</ele><time>2020-06-12T10:24:53Z</time><name>PT3813</name></trkpt>
<trkpt lat="54.365892" lon="-3.127725"><ele>468</ele><time>2020-06-12T10:24:54Z</time><name>PT3814</name></trkpt>
<trkpt lat="54.365901" lon="-3.127737"><ele>468</ele><time>2020-06-12T10:24:55Z</time><name>PT3815</name></trkpt>
<trkpt lat="54.365909" lon="-3.127741"><ele>468</ele><time>2020-06-12T10:24:56Z</time><name>PT3816</name></trkpt>
<trkpt lat="54.365914" lon="-3.127746"><ele>468</ele><time>2020-06-12T10:24:57Z</time><name>PT3817</name></trkpt>
<trkpt lat="54.365916" lon="-3.127756"><ele>468</ele><time>2020-06-12T10:24:58Z</time><name>PT3818</name></trkpt>
<trkpt lat="54.365926" lon="-3.127762"><ele>469</ele><time>2020-06-12T10:24:59Z</time><name>PT3819</name></trkpt>
<trkpt lat="54.365932" lon="-3.127764"><ele>469</ele><time>2020-06-12T10:25:00Z</time><name>PT3820</name></trkpt>
<trkpt lat="54.365936" lon="-3.127772"><ele>469</ele><time>2020-06-12T10:25:01Z</time><name>PT3821</name></trkpt>
<trkpt lat="54.365943" lon="-3.127775"><ele>469</ele><time>2020-06-12T10:25:02Z</time><name>PT3822</name></trkpt>
<trkpt lat="54.365948" lon="-3.127779"><ele>470</ele><time>2020-06-12T10:25:03Z</time><name>PT3823</name></trkpt>
<trkpt lat="54.365953" lon="-3.127777"><ele>470</ele><time>2020-06-12T10:25:04Z</time><name>PT3824</name></trkpt>
<trkpt lat="54.365956" lon="-3.127787"><ele>470</ele><time>2020-06-12T10:25:05Z</time><name>PT3825</name></trkpt>
<trkpt lat="54.365960" lon="-3.127794"><ele>470</ele><time>2020-06-12T10:25:06Z</time><name>PT3826</name></trkpt>
<trkpt lat="54.365964" lon="-3.127799"><ele>470</ele><time>2020-06-12T10:25:07Z</time><name>PT3827</name></trkpt>
<trkpt lat="54.365970" lon="-3.127806"><ele>470</ele><time>2020-06-12T10:25:08Z</time><name>PT3828</name></trkpt>
<trkpt lat="54.365974" lon="-3.127816"><ele>470</ele><time>2020-06-12T10:25:09Z</time><name>PT3829</name></trkpt>
<trkpt lat="54.365980" lon="-3.127825"><ele>470</ele><time>2020-06-12T10:25:10Z</time><name>PT3830</name></trkpt>
<trkpt lat="54.365981" lon="-3.127832"><ele>470</ele><time>2020-06-12T10:25:11Z</time><name>PT3831</name></trkpt>
<trkpt lat="54.365984" lon="-3.127836"><ele>471</ele><time>2020-06-12T10:25:12Z</time><name>PT3832</name></trkpt>
<trkpt lat="54.365986" lon="-3.127848"><ele>471</ele><time>2020-06-12T10:25:13Z</time><name>PT3833</name></trkpt>
<trkpt lat="54.365989" lon="-3.127857"><ele>471</ele><time>2020-06-12T10:25:14Z</time><name>PT3834</name></trkpt>
<trkpt lat="54.365999" lon="-3.127863"><ele>472</ele><time>2020-06-12T10:25:15Z</time><name>PT3835</name></trkpt>
<trkpt lat="54.365995" lon="-3.127880"><ele>473</ele><time>2020-06-12T10:25:16Z</time><name>PT3836</name></trkpt>
<trkpt lat="54.365992" lon="-3.127896"><ele>473</ele><time>2020-06-12T10:25:17Z</time><name>PT3837</name></trkpt>
<trkpt lat="54.365992" lon="-3.127906"><ele>473</ele><time>2020-06-12T10:25:18Z</time><name>PT3838</name></trkpt>
<trkpt lat="54.365991" lon="-3.127918"><ele>473</ele><time>2020-06-12T10:25:19Z</time><name>PT3839</name></trkpt>
<trkpt lat="54.365985" lon="-3.127935"><ele>473</ele><time>2020-06-12T10:25:20Z</time><name>PT3840</name></trkpt>
<trkpt lat="54.365982" lon="-3.127952"><ele>473</ele><time>2020-06-12T10:25:21Z</time><name>PT3841</name></trkpt>
<trkpt lat="54.365984" lon="-3.127972"><ele>473</ele><time>2020-06-12T10:25:22Z</time><name>PT3842</name></trkpt>
<trkpt lat="54.365984" lon="-3.127991"><ele>473</ele><time>2020-06-12T10:25:23Z</time><name>PT3843</name></trkpt>
<trkpt lat="54.365985" lon="-3.128012"><ele>474</ele><time>2020-06-12T10:25:24Z</time><name>PT3844</name></trkpt>
<trkpt lat="54.365984" lon="-3.128031"><ele>474</ele><time>2020-06-12T10:25:25Z</time><name>PT3845</name></trkpt>
<trkpt lat="54.365984" lon="-3.128046"><ele>474</ele><time>2020-06-12T10:25:26Z</time><name>PT3846</name></trkpt>
<trkpt lat="54.365984" lon="-3.128057"><ele>474</ele><time>2020-06-12T10:25:27Z</time><name>PT3847</name></trkpt>
<trkpt lat="54.365982" lon="-3.128071"><ele>475</ele><time>2020-06-12T10:25:28Z</time><name>PT3848</name></trkpt>
<trkpt lat="54.365981" lon="-3.128084"><ele>475</ele><time>2020-06-12T10:25:29Z</time><name>PT3849</name></trkpt>
<trkpt lat="54.365980" lon="-3.128101"><ele>476</ele><time>2020-06-12T10:25:30Z</time><name>PT3850</name></trkpt>
<trkpt lat="54.365979" lon="-3.128118"><ele>476</ele><time>2020-06-12T10:25:31Z</time><name>PT3851</name></trkpt>
<trkpt lat="54.365983" lon="-3.128126"><ele>476</ele><time>2020-06-12T10:25:32Z</time><name>PT3852</name></trkpt>
<trkpt lat="54.365986" lon="-3.128137"><ele>477</ele><time>2020-06-12T10:25:33Z</time><name>PT3853</name></trkpt>
<trkpt lat="54.365990" lon="-3.128147"><ele>477</ele><time>2020-06-12T10:25:34Z</time><name>PT3854</name></trkpt>
<trkpt lat="54.365992" lon="-3.128160"><ele>476</ele><time>2020-06-12T10:25:35Z</time><name>PT3855</name></trkpt>
<trkpt lat="54.365991" lon="-3.128172"><ele>477</ele><time>2020-06-12T10:25:36Z</time><name>PT3856</name></trkpt>
<trkpt lat="54.365995" lon="-3.128172"><ele>476</ele><time>2020-06-12T10:25:37Z</time><name>PT3857</name></trkpt>
<trkpt lat="54.365999" lon="-3.128177"><ele>476</ele><time>2020-06-12T10:25:38Z</time><name>PT3858</name></trkpt>
<trkpt lat="54.366002" lon="-3.128190"><ele>476</ele><time>2020-06-12T10:25:39Z</time><name>PT3859</name></trkpt>
<trkpt lat="54.366003" lon="-3.128198"><ele>475</ele><time>2020-06-12T10:25:40Z</time><name>PT3860</name></trkpt>
<trkpt lat="54.366003" lon="-3.128210"><ele>475</ele><time>2020-06-12T10:25:41Z</time><name>PT3861</name></trkpt>
<trkpt lat="54.366004" lon="-3.128227"><ele>475</ele><time>2020-06-12T10:25:42Z</time><name>PT3862</name></trkpt>
<trkpt lat="54.366008" lon="-3.128241"><ele>475</ele><time>2020-06-12T10:25:43Z</time><name>PT3863</name></trkpt>
<trkpt lat="54.366013" lon="-3.128253"><ele>475</ele><time>2020-06-12T10:25:44Z</time><name>PT3864</name></trkpt>
<trkpt lat="54.366012" lon="-3.128269"><ele>475</ele><time>2020-06-12T10:25:45Z</time><name>PT3865</name></trkpt>
<trkpt lat="54.366015" lon="-3.128280"><ele>476</ele><time>2020-06-12T10:25:46Z</time><name>PT3866</name></trkpt>
<trkpt lat="54.366024" lon="-3.128287"><ele>476</ele><time>2020-06-12T10:25:47Z</time><name>PT3867</name></trkpt>
<trkpt lat="54.366028" lon="-3.128295"><ele>476</ele><time>2020-06-12T10:25:48Z</time><name>PT3868</name></trkpt>
<trkpt lat="54.366034" lon="-3.128305"><ele>476</ele><time>2020-06-12T10:25:49Z</time><name>PT3869</name></trkpt>
<trkpt lat="54.366041" lon="-3.128311"><ele>476</ele><time>2020-06-12T10:25:50Z</time><name>PT3870</name></trkpt>
<trkpt lat="54.366047" lon="-3.128317"><ele>476</ele><time>2020-06-12T10:25:51Z</time><name>PT3871</name></trkpt>
<trkpt lat="54.366054" lon="-3.128325"><ele>476</ele><time>2020-06-12T10:25:52Z</time><name>PT3872</name></trkpt>
<trkpt lat="54.366061" lon="-3.128329"><ele>475</ele><time>2020-06-12T10:25:53Z</time><name>PT3873</name></trkpt>
<trkpt lat="54.366064" lon="-3.128337"><ele>475</ele><time>2020-06-12T10:25:54Z</time><name>PT3874</name></trkpt>
<trkpt lat="54.366065" lon="-3.128342"><ele>475</ele><time>2020-06-12T10:25:55Z</time><name>PT3875</name></trkpt>
<trkpt lat="54.366066" lon="-3.128349"><ele>476</ele><time>2020-06-12T10:25:56Z</time><name>PT3876</name></trkpt>
<trkpt lat="54.366074" lon="-3.128354"><ele>476</ele><time>2020-06-12T10:25:57Z</time><name>PT3877</name></trkpt>
<trkpt lat="54.366074" lon="-3.128360"><ele>475</ele><time>2020-06-12T10:25:58Z</time><name>PT3878</name></trkpt>
<trkpt lat="54.366075" lon="-3.128366"><ele>475</ele><time>2020-06-12T10:25:59Z</time><name>PT3879</name></trkpt>
<trkpt lat="54.366068" lon="-3.128378"><ele>475</ele><time>2020-06-12T10:26:00Z</time><name>PT3880</name></trkpt>
<trkpt lat="54.366067" lon="-3.128392"><ele>475</ele><time>2020-06-12T10:26:01Z</time><name>PT3881</name></trkpt>
<trkpt lat="54.366063" lon="-3.128407"><ele>475</ele><time>2020-06-12T10:26:02Z</time><name>PT3882</name></trkpt>
<trkpt lat="54.366060" lon="-3.128421"><ele>475</ele><time>2020-06-12T10:26:03Z</time><name>PT3883</name></trkpt>
<trkpt lat="54.366059" lon="-3.128433"><ele>475</ele><time>2020-06-12T10:26:04Z</time><name>PT3884</name></trkpt>
<trkpt lat="54.366059" lon="-3.128443"><ele>475</ele><time>2020-06-12T10:26:05Z</time><name>PT3885</name></trkpt>
<trkpt lat="54.366060" lon="-3.128457"><ele>475</ele><time>2020-06-12T10:26:06Z</time><name>PT3886</name></trkpt>
<trkpt lat="54.366059" lon="-3.128474"><ele>475</ele><time>2020-06-12T10:26:07Z</time><name>PT3887</name></trkpt>
<trkpt lat="54.366061" lon="-3.128483"><ele>475</ele><time>2020-06-12T10:26:08Z</time><name>PT3888</name></trkpt>
<trkpt lat="54.366060" lon="-3.128498"><ele>476</ele><time>2020-06-12T10:26:09Z</time><name>PT3889</name></trkpt>
<trkpt lat="54.366060" lon="-3.128512"><ele>476</ele><time>2020-06-12T10:26:10Z</time><name>PT3890</name></trkpt>
<trkpt lat="54.366061" lon="-3.128519"><ele>477</ele><time>2020-06-12T10:26:11Z</time><name>PT3891</name></trkpt>
<trkpt lat="54.366055" lon="-3.128537"><ele>478</ele><time>2020-06-12T10:26:12Z</time><name>PT3892</name></trkpt>
<trkpt lat="54.366052" lon="-3.128546"><ele>479</ele><time>2020-06-12T10:26:13Z</time><name>PT3893</name></trkpt>
<trkpt lat="54.366051" lon="-3.128553"><ele>479</ele><time>2020-06-12T10:26:14Z</time><name>PT3894</name></trkpt>
<trkpt lat="54.366053" lon="-3.128559"><ele>480</ele><time>2020-06-12T10:26:15Z</time><name>PT3895</name></trkpt>
<trkpt lat="54.366054" lon="-3.128566"><ele>480</ele><time>2020-06-12T10:26:16Z</time><name>PT3896</name></trkpt>
<trkpt lat="54.366055" lon="-3.128576"><ele>480</ele><time>2020-06-12T10:26:17Z</time><name>PT3897</name></trkpt>
<trkpt lat="54.366057" lon="-3.128587"><ele>481</ele><time>2020-06-12T10:26:18Z</time><name>PT3898</name></trkpt>
<trkpt lat="54.366056" lon="-3.128593"><ele>481</ele><time>2020-06-12T10:26:19Z</time><name>PT3899</name></trkpt>
<trkpt lat="54.366056" lon="-3.128602"><ele>481</ele><time>2020-06-12T10:26:20Z</time><name>PT3900</name></trkpt>
<trkpt lat="54.366052" lon="-3.128614"><ele>481</ele><time>2020-06-12T10:26:21Z</time><name>PT3901</name></trkpt>
<trkpt lat="54.366052" lon="-3.128623"><ele>480</ele><time>2020-06-12T10:26:22Z</time><name>PT3902</name></trkpt>
<trkpt lat="54.366047" lon="-3.128636"><ele>480</ele><time>2020-06-12T10:26:23Z</time><name>PT3903</name></trkpt>
<trkpt lat="54.366044" lon="-3.128658"><ele>481</ele><time>2020-06-12T10:26:24Z</time><name>PT3904</name></trkpt>
<trkpt lat="54.366046" lon="-3.128671"><ele>481</ele><time>2020-06-12T10:26:25Z</time><name>PT3905</name></trkpt>
<trkpt lat="54.366047" lon="-3.128701"><ele>482</ele><time>2020-06-12T10:26:26Z</time><name>PT3906</name></trkpt>
<trkpt lat="54.366050" lon="-3.128712"><ele>483</ele><time>2020-06-12T10:26:27Z</time><name>PT3907</name></trkpt>
<trkpt lat="54.366053" lon="-3.128719"><ele>483</ele><time>2020-06-12T10:26:28Z</time><name>PT3908</name></trkpt>
<trkpt lat="54.366057" lon="-3.128723"><ele>483</ele><time>2020-06-12T10:26:29Z</time><name>PT3909</name></trkpt>
<trkpt lat="54.366057" lon="-3.128728"><ele>483</ele><time>2020-06-12T10:26:30Z</time><name>PT3910</name></trkpt>
<trkpt lat="54.366054" lon="-3.128735"><ele>484</ele><time>2020-06-12T10:26:31Z</time><name>PT3911</name></trkpt>
<trkpt lat="54.366054" lon="-3.128743"><ele>485</ele><time>2020-06-12T10:26:32Z</time><name>PT3912</name></trkpt>
<trkpt lat="54.366055" lon="-3.128756"><ele>485</ele><time>2020-06-12T10:26:33Z</time><name>PT3913</name></trkpt>
<trkpt lat="54.366054" lon="-3.128770"><ele>485</ele><time>2020-06-12T10:26:34Z</time><name>PT3914</name></trkpt>
<trkpt lat="54.366054" lon="-3.128778"><ele>485</ele><time>2020-06-12T10:26:35Z</time><name>PT3915</name></trkpt>
<trkpt lat="54.366057" lon="-3.128786"><ele>486</ele><time>2020-06-12T10:26:36Z</time><name>PT3916</name></trkpt>
<trkpt lat="54.366056" lon="-3.128795"><ele>486</ele><time>2020-06-12T10:26:37Z</time><name>PT3917</name></trkpt>
<trkpt lat="54.366056" lon="-3.128804"><ele>486</ele><time>2020-06-12T10:26:38Z</time><name>PT3918</name></trkpt>
<trkpt lat="54.366062" lon="-3.128817"><ele>486</ele><time>2020-06-12T10:26:39Z</time><name>PT3919</name></trkpt>
<trkpt lat="54.366062" lon="-3.128828"><ele>487</ele><time>2020-06-12T10:26:40Z</time><name>PT3920</name></trkpt>
<trkpt lat="54.366059" lon="-3.128842"><ele>486</ele><time>2020-06-12T10:26:41Z</time><name>PT3921</name></trkpt>
<trkpt lat="54.366067" lon="-3.128853"><ele>486</ele><time>2020-06-12T10:26:42Z</time><name>PT3922</name></trkpt>
<trkpt lat="54.366067" lon="-3.128866"><ele>486</ele><time>2020-06-12T10:26:43Z</time><name>PT3923</name></trkpt>
<trkpt lat="54.366069" lon="-3.128879"><ele>487</ele><time>2020-06-12T10:26:44Z</time><name>PT3924</name></trkpt>
<trkpt lat="54.366073" lon="-3.128889"><ele>487</ele><time>2020-06-12T10:26:45Z</time><name>PT3925</name></trkpt>
<trkpt lat="54.366076" lon="-3.128903"><ele>488</ele><time>2020-06-12T10:26:46Z</time><name>PT3926</name></trkpt>
<trkpt lat="54.366076" lon="-3.128915"><ele>488</ele><time>2020-06-12T10:26:47Z</time><name>PT3927</name></trkpt>
<trkpt lat="54.366076" lon="-3.128928"><ele>488</ele><time>2020-06-12T10:26:48Z</time><name>PT3928</name></trkpt>
<trkpt lat="54.366077" lon="-3.128943"><ele>488</ele><time>2020-06-12T10:26:49Z</time><name>PT3929</name></trkpt>
<trkpt lat="54.366073" lon="-3.128953"><ele>487</ele><time>2020-06-12T10:26:50Z</time><name>PT3930</name></trkpt>
<trkpt lat="54.366074" lon="-3.128961"><ele>486</ele><time>2020-06-12T10:26:51Z</time><name>PT3931</name></trkpt>
<trkpt lat="54.366075" lon="-3.128974"><ele>486</ele><time>2020-06-12T10:26:52Z</time><name>PT3932</name></trkpt>
<trkpt lat="54.366075" lon="-3.128982"><ele>486</ele><time>2020-06-12T10:26:53Z</time><name>PT3933</name></trkpt>
<trkpt lat="54.366066" lon="-3.128995"><ele>486</ele><time>2020-06-12T10:26:54Z</time><name>PT3934</name></trkpt>
<trkpt lat="54.366060" lon="-3.129009"><ele>486</ele><time>2020-06-12T10:26:55Z</time><name>PT3935</name></trkpt>
<trkpt lat="54.366056" lon="-3.129024"><ele>485</ele><time>2020-06-12T10:26:56Z</time><name>PT3936</name></trkpt>
<trkpt lat="54.366060" lon="-3.129037"><ele>485</ele><time>2020-06-12T10:26:57Z</time><name>PT3937</name></trkpt>
<trkpt lat="54.366062" lon="-3.129052"><ele>485</ele><time>2020-06-12T10:26:58Z</time><name>PT3938</name></trkpt>
<trkpt lat="54.366064" lon="-3.129066"><ele>484</ele><time>2020-06-12T10:26:59Z</time><name>PT3939</name></trkpt>
<trkpt lat="54.366062" lon="-3.129079"><ele>485</ele><time>2020-06-12T10:27:00Z</time><name>PT3940</name></trkpt>
<trkpt lat="54.366064" lon="-3.129091"><ele>485</ele><time>2020-06-12T10:27:01Z</time><name>PT3941</name></trkpt>
<trkpt lat="54.366065" lon="-3.129105"><ele>485</ele><time>2020-06-12T10:27:02Z</time><name>PT3942</name></trkpt>
<trkpt lat="54.366067" lon="-3.129118"><ele>485</ele><time>2020-06-12T10:27:03Z</time><name>PT3943</name></trkpt>
<trkpt lat="54.366067" lon="-3.129133"><ele>485</ele><time>2020-06-12T10:27:04Z</time><name>PT3944</name></trkpt>
<trkpt lat="54.366069" lon="-3.129145"><ele>485</ele><time>2020-06-12T10:27:05Z</time><name>PT3945</name></trkpt>
<trkpt lat="54.366068" lon="-3.129161"><ele>486</ele><time>2020-06-12T10:27:06Z</time><name>PT3946</name></trkpt>
<trkpt lat="54.366069" lon="-3.129173"><ele>486</ele><time>2020-06-12T10:27:07Z</time><name>PT3947</name></trkpt>
<trkpt lat="54.366073" lon="-3.129184"><ele>486</ele><time>2020-06-12T10:27:08Z</time><name>PT3948</name></trkpt>
<trkpt lat="54.366077" lon="-3.129193"><ele>487</ele><time>2020-06-12T10:27:09Z</time><name>PT3949</name></trkpt>
<trkpt lat="54.366075" lon="-3.129205"><ele>487</ele><time>2020-06-12T10:27:10Z</time><name>PT3950</name></trkpt>
<trkpt lat="54.366081" lon="-3.129213"><ele>487</ele><time>2020-06-12T10:27:11Z</time><name>PT3951</name></trkpt>
<trkpt lat="54.366083" lon="-3.129224"><ele>487</ele><time>2020-06-12T10:27:12Z</time><name>PT3952</name></trkpt>
<trkpt lat="54.366085" lon="-3.129232"><ele>487</ele><time>2020-06-12T10:27:13Z</time><name>PT3953</name></trkpt>
<trkpt lat="54.366088" lon="-3.129236"><ele>488</ele><time>2020-06-12T10:27:14Z</time><name>PT3954</name></trkpt>
<trkpt lat="54.366093" lon="-3.129244"><ele>488</ele><time>2020-06-12T10:27:15Z</time><name>PT3955</name></trkpt>
<trkpt lat="54.366098" lon="-3.129250"><ele>489</ele><time>2020-06-12T10:27:16Z</time><name>PT3956</name></trkpt>
<trkpt lat="54.366103" lon="-3.129258"><ele>489</ele><time>2020-06-12T10:27:17Z</time><name>PT3957</name></trkpt>
<trkpt lat="54.366110" lon="-3.129267"><ele>489</ele><time>2020-06-12T10:27:18Z</time><name>PT3958</name></trkpt>
<trkpt lat="54.366114" lon="-3.129281"><ele>490</ele><time>2020-06-12T10:27:19Z</time><name>PT3959</name></trkpt>
<trkpt lat="54.366115" lon="-3.129299"><ele>490</ele><time>2020-06-12T10:27:20Z</time><name>PT3960</name></trkpt>
<trkpt lat="54.366120" lon="-3.129306"><ele>490</ele><time>2020-06-12T10:27:21Z</time><name>PT3961</name></trkpt>
<trkpt lat="54.366122" lon="-3.129317"><ele>489</ele><time>2020-06-12T10:27:23Z</time><name>PT3962</name></trkpt>
<trkpt lat="54.366123" lon="-3.129329"><ele>489</ele><time>2020-06-12T10:27:23Z</time><name>PT3963</name></trkpt>
<trkpt lat="54.366124" lon="-3.129340"><ele>489</ele><time>2020-06-12T10:27:25Z</time><name>PT3964</name></trkpt>
<trkpt lat="54.366128" lon="-3.129351"><ele>489</ele><time>2020-06-12T10:27:25Z</time><name>PT3965</name></trkpt>
<trkpt lat="54.366129" lon="-3.129361"><ele>489</ele><time>2020-06-12T10:27:26Z</time><name>PT3966</name></trkpt>
<trkpt lat="54.366131" lon="-3.129366"><ele>489</ele><time>2020-06-12T10:27:27Z</time><name>PT3967</name></trkpt>
<trkpt lat="54.366133" lon="-3.129372"><ele>489</ele><time>2020-06-12T10:27:28Z</time><name>PT3968</name></trkpt>
<trkpt lat="54.366133" lon="-3.129381"><ele>489</ele><time>2020-06-12T10:27:29Z</time><name>PT3969</name></trkpt>
<trkpt lat="54.366137" lon="-3.129385"><ele>488</ele><time>2020-06-12T10:27:30Z</time><name>PT3970</name></trkpt>
<trkpt lat="54.366142" lon="-3.129401"><ele>489</ele><time>2020-06-12T10:27:33Z</time><name>PT3971</name></trkpt>
<trkpt lat="54.366144" lon="-3.129412"><ele>490</ele><time>2020-06-12T10:27:34Z</time><name>PT3972</name></trkpt>
<trkpt lat="54.366145" lon="-3.129423"><ele>490</ele><time>2020-06-12T10:27:35Z</time><name>PT3973</name></trkpt>
<trkpt lat="54.366146" lon="-3.129436"><ele>491</ele><time>2020-06-12T10:27:36Z</time><name>PT3974</name></trkpt>
<trkpt lat="54.366145" lon="-3.129457"><ele>490</ele><time>2020-06-12T10:27:37Z</time><name>PT3975</name></trkpt>
<trkpt lat="54.366146" lon="-3.129464"><ele>490</ele><time>2020-06-12T10:27:38Z</time><name>PT3976</name></trkpt>
<trkpt lat="54.366152" lon="-3.129472"><ele>490</ele><time>2020-06-12T10:27:39Z</time><name>PT3977</name></trkpt>
<trkpt lat="54.366155" lon="-3.129469"><ele>490</ele><time>2020-06-12T10:27:40Z</time><name>PT3978</name></trkpt>
<trkpt lat="54.366158" lon="-3.129468"><ele>490</ele><time>2020-06-12T10:27:41Z</time><name>PT3979</name></trkpt>
<trkpt lat="54.366163" lon="-3.129466"><ele>491</ele><time>2020-06-12T10:27:43Z</time><name>PT3980</name></trkpt>
<trkpt lat="54.366169" lon="-3.129470"><ele>490</ele><time>2020-06-12T10:27:43Z</time><name>PT3981</name></trkpt>
<trkpt lat="54.366174" lon="-3.129471"><ele>491</ele><time>2020-06-12T10:27:44Z</time><name>PT3982</name></trkpt>
<trkpt lat="54.366183" lon="-3.129457"><ele>492</ele><time>2020-06-12T10:27:49Z</time><name>PT3983</name></trkpt>
<trkpt lat="54.366189" lon="-3.129461"><ele>492</ele><time>2020-06-12T10:27:50Z</time><name>PT3984</name></trkpt>
<trkpt lat="54.366191" lon="-3.129457"><ele>492</ele><time>2020-06-12T10:27:51Z</time><name>PT3985</name></trkpt>
<trkpt lat="54.366193" lon="-3.129452"><ele>492</ele><time>2020-06-12T10:27:52Z</time><name>PT3986</name></trkpt>
<trkpt lat="54.366198" lon="-3.129448"><ele>492</ele><time>2020-06-12T10:27:53Z</time><name>PT3987</name></trkpt>
<trkpt lat="54.366199" lon="-3.129437"><ele>493</ele><time>2020-06-12T10:27:54Z</time><name>PT3988</name></trkpt>
<trkpt lat="54.366198" lon="-3.129434"><ele>493</ele><time>2020-06-12T10:27:55Z</time><name>PT3989</name></trkpt>
<trkpt lat="54.366199" lon="-3.129431"><ele>493</ele><time>2020-06-12T10:27:56Z</time><name>PT3990</name></trkpt>
<trkpt lat="54.366198" lon="-3.129426"><ele>494</ele><time>2020-06-12T10:27:57Z</time><name>PT3991</name></trkpt>
<trkpt lat="54.366201" lon="-3.129423"><ele>494</ele><time>2020-06-12T10:27:58Z</time><name>PT3992</name></trkpt>
<trkpt lat="54.366205" lon="-3.129427"><ele>494</ele><time>2020-06-12T10:27:59Z</time><name>PT3993</name></trkpt>
<trkpt lat="54.366207" lon="-3.129424"><ele>494</ele><time>2020-06-12T10:28:00Z</time><name>PT3994</name></trkpt>
<trkpt lat="54.366207" lon="-3.129420"><ele>495</ele><time>2020-06-12T10:28:01Z</time><name>PT3995</name></trkpt>
<trkpt lat="54.366210" lon="-3.129414"><ele>495</ele><time>2020-06-12T10:28:02Z</time><name>PT3996</name></trkpt>
<trkpt lat="54.366213" lon="-3.129408"><ele>496</ele><time>2020-06-12T10:28:03Z</time><name>PT3997</name></trkpt>
<trkpt lat="54.366216" lon="-3.129403"><ele>496</ele><time>2020-06-12T10:28:04Z</time><name>PT3998</name></trkpt>
<trkpt lat="54.366221" lon="-3.129400"><ele>496</ele><time>2020-06-12T10:28:05Z</time><name>PT3999</name></trkpt>
<trkpt lat="54.366226" lon="-3.129397"><ele>496</ele><time>2020-06-12T10:28:06Z</time><name>PT4000</name></trkpt>
<trkpt lat="54.366228" lon="-3.129392"><ele>497</ele><time>2020-06-12T10:28:07Z</time><name>PT4001</name></trkpt>
<trkpt lat="54.366231" lon="-3.129384"><ele>497</ele><time>2020-06-12T10:28:08Z</time><name>PT4002</name></trkpt>
<trkpt lat="54.366238" lon="-3.129389"><ele>497</ele><time>2020-06-12T10:28:09Z</time><name>PT4003</name></trkpt>
<trkpt lat="54.366236" lon="-3.129391"><ele>498</ele><time>2020-06-12T10:28:10Z</time><name>PT4004</name></trkpt>
<trkpt lat="54.366239" lon="-3.129391"><ele>497</ele><time>2020-06-12T10:28:11Z</time><name>PT4005</name></trkpt>
<trkpt lat="54.366244" lon="-3.129394"><ele>497</ele><time>2020-06-12T10:28:12Z</time><name>PT4006</name></trkpt>
<trkpt lat="54.366247" lon="-3.129384"><ele>497</ele><time>2020-06-12T10:28:13Z</time><name>PT4007</name></trkpt>
<trkpt lat="54.366256" lon="-3.129383"><ele>496</ele><time>2020-06-12T10:28:14Z</time><name>PT4008</name></trkpt>
<trkpt lat="54.366261" lon="-3.129377"><ele>497</ele><time>2020-06-12T10:28:15Z</time><name>PT4009</name></trkpt>
<trkpt lat="54.366266" lon="-3.129377"><ele>497</ele><time>2020-06-12T10:28:16Z</time><name>PT4010</name></trkpt>
<trkpt lat="54.366265" lon="-3.129374"><ele>497</ele><time>2020-06-12T10:28:17Z</time><name>PT4011</name></trkpt>
<trkpt lat="54.366270" lon="-3.129390"><ele>497</ele><time>2020-06-12T10:28:18Z</time><name>PT4012</name></trkpt>
<trkpt lat="54.366271" lon="-3.129400"><ele>497</ele><time>2020-06-12T10:28:19Z</time><name>PT4013</name></trkpt>
<trkpt lat="54.366272" lon="-3.129403"><ele>498</ele><time>2020-06-12T10:28:20Z</time><name>PT4014</name></trkpt>
<trkpt lat="54.366272" lon="-3.129405"><ele>498</ele><time>2020-06-12T10:28:21Z</time><name>PT4015</name></trkpt>
<trkpt lat="54.366270" lon="-3.129409"><ele>498</ele><time>2020-06-12T10:28:22Z</time><name>PT4016</name></trkpt>
<trkpt lat="54.366272" lon="-3.129412"><ele>497</ele><time>2020-06-12T10:28:23Z</time><name>PT4017</name></trkpt>
<trkpt lat="54.366274" lon="-3.129421"><ele>497</ele><time>2020-06-12T10:28:24Z</time><name>PT4018</name></trkpt>
<trkpt lat="54.366273" lon="-3.129423"><ele>497</ele><time>2020-06-12T10:28:25Z</time><name>PT4019</name></trkpt>
<trkpt lat="54.366271" lon="-3.129429"><ele>497</ele><time>2020-06-12T10:28:26Z</time><name>PT4020</name></trkpt>
<trkpt lat="54.366271" lon="-3.129437"><ele>497</ele><time>2020-06-12T10:28:27Z</time><name>PT4021</name></trkpt>
<trkpt lat="54.366273" lon="-3.129446"><ele>497</ele><time>2020-06-12T10:28:28Z</time><name>PT4022</name></trkpt>
<trkpt lat="54.366273" lon="-3.129455"><ele>496</ele><time>2020-06-12T10:28:29Z</time><name>PT4023</name></trkpt>
<trkpt lat="54.366279" lon="-3.129462"><ele>496</ele><time>2020-06-12T10:28:30Z</time><name>PT4024</name></trkpt>
<trkpt lat="54.366278" lon="-3.129470"><ele>496</ele><time>2020-06-12T10:28:31Z</time><name>PT4025</name></trkpt>
<trkpt lat="54.366277" lon="-3.129477"><ele>496</ele><time>2020-06-12T10:28:32Z</time><name>PT4026</name></trkpt>
<trkpt lat="54.366276" lon="-3.129483"><ele>497</ele><time>2020-06-12T10:28:33Z</time><name>PT4027</name></trkpt>
<trkpt lat="54.366277" lon="-3.129488"><ele>497</ele><time>2020-06-12T10:28:34Z</time><name>PT4028</name></trkpt>
<trkpt lat="54.366279" lon="-3.129491"><ele>497</ele><time>2020-06-12T10:28:35Z</time><name>PT4029</name></trkpt>
<trkpt lat="54.366281" lon="-3.129497"><ele>498</ele><time>2020-06-12T10:28:36Z</time><name>PT4030</name></trkpt>
<trkpt lat="54.366283" lon="-3.129503"><ele>498</ele><time>2020-06-12T10:28:37Z</time><name>PT4031</name></trkpt>
<trkpt lat="54.366282" lon="-3.129506"><ele>498</ele><time>2020-06-12T10:28:38Z</time><name>PT4032</name></trkpt>
<trkpt lat="54.366285" lon="-3.129510"><ele>498</ele><time>2020-06-12T10:28:39Z</time><name>PT4033</name></trkpt>
<trkpt lat="54.366288" lon="-3.129514"><ele>498</ele><time>2020-06-12T10:28:40Z</time><name>PT4034</name></trkpt>
<trkpt lat="54.366291" lon="-3.129518"><ele>498</ele><time>2020-06-12T10:28:41Z</time><name>PT4035</name></trkpt>
<trkpt lat="54.366294" lon="-3.129528"><ele>499</ele><time>2020-06-12T10:28:45Z</time><name>PT4036</name></trkpt>
<trkpt lat="54.366298" lon="-3.129538"><ele>499</ele><time>2020-06-12T10:28:46Z</time><name>PT4037</name></trkpt>
<trkpt lat="54.366303" lon="-3.129545"><ele>499</ele><time>2020-06-12T10:28:47Z</time><name>PT4038</name></trkpt>
<trkpt lat="54.366306" lon="-3.129561"><ele>500</ele><time>2020-06-12T10:28:48Z</time><name>PT4039</name></trkpt>
<trkpt lat="54.366296" lon="-3.129568"><ele>500</ele><time>2020-06-12T10:28:49Z</time><name>PT4040</name></trkpt>
<trkpt lat="54.366302" lon="-3.129569"><ele>501</ele><time>2020-06-12T10:28:50Z</time><name>PT4041</name></trkpt>
<trkpt lat="54.366301" lon="-3.129570"><ele>500</ele><time>2020-06-12T10:28:51Z</time><name>PT4042</name></trkpt>
<trkpt lat="54.366299" lon="-3.129571"><ele>500</ele><time>2020-06-12T10:28:52Z</time><name>PT4043</name></trkpt>
<trkpt lat="54.366302" lon="-3.129573"><ele>501</ele><time>2020-06-12T10:28:53Z</time><name>PT4044</name></trkpt>
<trkpt lat="54.366306" lon="-3.129576"><ele>501</ele><time>2020-06-12T10:28:54Z</time><name>PT4045</name></trkpt>
<trkpt lat="54.366309" lon="-3.129580"><ele>501</ele><time>2020-06-12T10:28:55Z</time><name>PT4046</name></trkpt>
<trkpt lat="54.366311" lon="-3.129588"><ele>501</ele><time>2020-06-12T10:28:56Z</time><name>PT4047</name></trkpt>
<trkpt lat="54.366313" lon="-3.129595"><ele>501</ele><time>2020-06-12T10:28:57Z</time><name>PT4048</name></trkpt>
<trkpt lat="54.366316" lon="-3.129606"><ele>501</ele><time>2020-06-12T10:28:58Z</time><name>PT4049</name></trkpt>
<trkpt lat="54.366323" lon="-3.129612"><ele>501</ele><time>2020-06-12T10:28:59Z</time><name>PT4050</name></trkpt>
<trkpt lat="54.366329" lon="-3.129614"><ele>501</ele><time>2020-06-12T10:29:00Z</time><name>PT4051</name></trkpt>
<trkpt lat="54.366336" lon="-3.129621"><ele>501</ele><time>2020-06-12T10:29:01Z</time><name>PT4052</name></trkpt>
<trkpt lat="54.366340" lon="-3.129629"><ele>501</ele><time>2020-06-12T10:29:02Z</time><name>PT4053</name></trkpt>
<trkpt lat="54.366347" lon="-3.129639"><ele>500</ele><time>2020-06-12T10:29:03Z</time><name>PT4054</name></trkpt>
<trkpt lat="54.366355" lon="-3.129643"><ele>500</ele><time>2020-06-12T10:29:04Z</time><name>PT4055</name></trkpt>
<trkpt lat="54.366363" lon="-3.129644"><ele>501</ele><time>2020-06-12T10:29:05Z</time><name>PT4056</name></trkpt>
<trkpt lat="54.366371" lon="-3.129642"><ele>501</ele><time>2020-06-12T10:29:06Z</time><name>PT4057</name></trkpt>
<trkpt lat="54.366376" lon="-3.129639"><ele>501</ele><time>2020-06-12T10:29:07Z</time><name>PT4058</name></trkpt>
<trkpt lat="54.366382" lon="-3.129640"><ele>501</ele><time>2020-06-12T10:29:08Z</time><name>PT4059</name></trkpt>
<trkpt lat="54.366389" lon="-3.129651"><ele>500</ele><time>2020-06-12T10:29:09Z</time><name>PT4060</name></trkpt>
<trkpt lat="54.366396" lon="-3.129664"><ele>501</ele><time>2020-06-12T10:29:10Z</time><name>PT4061</name></trkpt>
<trkpt lat="54.366403" lon="-3.129676"><ele>501</ele><time>2020-06-12T10:29:11Z</time><name>PT4062</name></trkpt>
<trkpt lat="54.366408" lon="-3.129690"><ele>501</ele><time>2020-06-12T10:29:12Z</time><name>PT4063</name></trkpt>
<trkpt lat="54.366420" lon="-3.129697"><ele>502</ele><time>2020-06-12T10:29:13Z</time><name>PT4064</name></trkpt>
<trkpt lat="54.366427" lon="-3.129711"><ele>502</ele><time>2020-06-12T10:29:14Z</time><name>PT4065</name></trkpt>
<trkpt lat="54.366433" lon="-3.129723"><ele>502</ele><time>2020-06-12T10:29:15Z</time><name>PT4066</name></trkpt>
<trkpt lat="54.366441" lon="-3.129731"><ele>502</ele><time>2020-06-12T10:29:16Z</time><name>PT4067</name></trkpt>
<trkpt lat="54.366450" lon="-3.129739"><ele>501</ele><time>2020-06-12T10:29:17Z</time><name>PT4068</name></trkpt>
<trkpt lat="54.366458" lon="-3.129750"><ele>501</ele><time>2020-06-12T10:29:18Z</time><name>PT4069</name></trkpt>
<trkpt lat="54.366466" lon="-3.129760"><ele>501</ele><time>2020-06-12T10:29:19Z</time><name>PT4070</name></trkpt>
<trkpt lat="54.366471" lon="-3.129767"><ele>501</ele><time>2020-06-12T10:29:20Z</time><name>PT4071</name></trkpt>
<trkpt lat="54.366479" lon="-3.129781"><ele>501</ele><time>2020-06-12T10:29:21Z</time><name>PT4072</name></trkpt>
<trkpt lat="54.366485" lon="-3.129796"><ele>501</ele><time>2020-06-12T10:29:22Z</time><name>PT4073</name></trkpt>
<trkpt lat="54.366494" lon="-3.129807"><ele>501</ele><time>2020-06-12T10:29:23Z</time><name>PT4074</name></trkpt>
<trkpt lat="54.366500" lon="-3.129816"><ele>501</ele><time>2020-06-12T10:29:24Z</time><name>PT4075</name></trkpt>
<trkpt lat="54.366506" lon="-3.129826"><ele>501</ele><time>2020-06-12T10:29:25Z</time><name>PT4076</name></trkpt>
<trkpt lat="54.366511" lon="-3.129836"><ele>501</ele><time>2020-06-12T10:29:26Z</time><name>PT4077</name></trkpt>
<trkpt lat="54.366518" lon="-3.129843"><ele>501</ele><time>2020-06-12T10:29:27Z</time><name>PT4078</name></trkpt>
<trkpt lat="54.366524" lon="-3.129849"><ele>501</ele><time>2020-06-12T10:29:28Z</time><name>PT4079</name></trkpt>
<trkpt lat="54.366536" lon="-3.129855"><ele>502</ele><time>2020-06-12T10:29:29Z</time><name>PT4080</name></trkpt>
<trkpt lat="54.366541" lon="-3.129859"><ele>503</ele><time>2020-06-12T10:29:30Z</time><name>PT4081</name></trkpt>
<trkpt lat="54.366547" lon="-3.129857"><ele>504</ele><time>2020-06-12T10:29:31Z</time><name>PT4082</name></trkpt>
<trkpt lat="54.366552" lon="-3.129857"><ele>504</ele><time>2020-06-12T10:29:32Z</time><name>PT4083</name></trkpt>
<trkpt lat="54.366557" lon="-3.129858"><ele>504</ele><time>2020-06-12T10:29:33Z</time><name>PT4084</name></trkpt>
<trkpt lat="54.366559" lon="-3.129860"><ele>504</ele><time>2020-06-12T10:29:34Z</time><name>PT4085</name></trkpt>
<trkpt lat="54.366561" lon="-3.129862"><ele>505</ele><time>2020-06-12T10:29:35Z</time><name>PT4086</name></trkpt>
<trkpt lat="54.366560" lon="-3.129863"><ele>504</ele><time>2020-06-12T10:29:36Z</time><name>PT4087</name></trkpt>
<trkpt lat="54.366562" lon="-3.129863"><ele>505</ele><time>2020-06-12T10:29:37Z</time><name>PT4088</name></trkpt>
<trkpt lat="54.366564" lon="-3.129863"><ele>505</ele><time>2020-06-12T10:29:38Z</time><name>PT4089</name></trkpt>
<trkpt lat="54.366568" lon="-3.129862"><ele>505</ele><time>2020-06-12T10:29:39Z</time><name>PT4090</name></trkpt>
<trkpt lat="54.366572" lon="-3.129865"><ele>505</ele><time>2020-06-12T10:29:40Z</time><name>PT4091</name></trkpt>
<trkpt lat="54.366578" lon="-3.129872"><ele>505</ele><time>2020-06-12T10:29:41Z</time><name>PT4092</name></trkpt>
<trkpt lat="54.366590" lon="-3.129884"><ele>505</ele><time>2020-06-12T10:29:42Z</time><name>PT4093</name></trkpt>
<trkpt lat="54.366596" lon="-3.129896"><ele>504</ele><time>2020-06-12T10:29:43Z</time><name>PT4094</name></trkpt>
<trkpt lat="54.366607" lon="-3.129903"><ele>504</ele><time>2020-06-12T10:29:44Z</time><name>PT4095</name></trkpt>
<trkpt lat="54.366616" lon="-3.129906"><ele>504</ele><time>2020-06-12T10:29:45Z</time><name>PT4096</name></trkpt>
<trkpt lat="54.366618" lon="-3.129914"><ele>505</ele><time>2020-06-12T10:29:46Z</time><name>PT4097</name></trkpt>
<trkpt lat="54.366623" lon="-3.129918"><ele>505</ele><time>2020-06-12T10:29:47Z</time><name>PT4098</name></trkpt>
<trkpt lat="54.366629" lon="-3.129917"><ele>504</ele><time>2020-06-12T10:29:48Z</time><name>PT4099</name></trkpt>
<trkpt lat="54.366633" lon="-3.129923"><ele>504</ele><time>2020-06-12T10:29:49Z</time><name>PT4100</name></trkpt>
<trkpt lat="54.366639" lon="-3.129925"><ele>504</ele><time>2020-06-12T10:29:50Z</time><name>PT4101</name></trkpt>
<trkpt lat="54.366647" lon="-3.129925"><ele>504</ele><time>2020-06-12T10:29:51Z</time><name>PT4102</name></trkpt>
<trkpt lat="54.366654" lon="-3.129926"><ele>503</ele><time>2020-06-12T10:29:52Z</time><name>PT4103</name></trkpt>
<trkpt lat="54.366659" lon="-3.129925"><ele>504</ele><time>2020-06-12T10:29:53Z</time><name>PT4104</name></trkpt>
<trkpt lat="54.366663" lon="-3.129927"><ele>504</ele><time>2020-06-12T10:29:54Z</time><name>PT4105</name></trkpt>
<trkpt lat="54.366666" lon="-3.129934"><ele>503</ele><time>2020-06-12T10:29:55Z</time><name>PT4106</name></trkpt>
<trkpt lat="54.366668" lon="-3.129937"><ele>503</ele><time>2020-06-12T10:29:56Z</time><name>PT4107</name></trkpt>
<trkpt lat="54.366676" lon="-3.129943"><ele>503</ele><time>2020-06-12T10:29:57Z</time><name>PT4108</name></trkpt>
<trkpt lat="54.366684" lon="-3.129947"><ele>503</ele><time>2020-06-12T10:29:58Z</time><name>PT4109</name></trkpt>
<trkpt lat="54.366692" lon="-3.129956"><ele>503</ele><time>2020-06-12T10:29:59Z</time><name>PT4110</name></trkpt>
<trkpt lat="54.366699" lon="-3.129961"><ele>503</ele><time>2020-06-12T10:30:00Z</time><name>PT4111</name></trkpt>
<trkpt lat="54.366708" lon="-3.129967"><ele>502</ele><time>2020-06-12T10:30:01Z</time><name>PT4112</name></trkpt>
<trkpt lat="54.366713" lon="-3.129975"><ele>503</ele><time>2020-06-12T10:30:02Z</time><name>PT4113</name></trkpt>
<trkpt lat="54.366718" lon="-3.129990"><ele>503</ele><time>2020-06-12T10:30:03Z</time><name>PT4114</name></trkpt>
<trkpt lat="54.366724" lon="-3.129998"><ele>503</ele><time>2020-06-12T10:30:04Z</time><name>PT4115</name></trkpt>
<trkpt lat="54.366731" lon="-3.130002"><ele>503</ele><time>2020-06-12T10:30:05Z</time><name>PT4116</name></trkpt>
<trkpt lat="54.366737" lon="-3.130003"><ele>504</ele><time>2020-06-12T10:30:06Z</time><name>PT4117</name></trkpt>
<trkpt lat="54.366743" lon="-3.130006"><ele>505</ele><time>2020-06-12T10:30:07Z</time><name>PT4118</name></trkpt>
<trkpt lat="54.366754" lon="-3.130006"><ele>505</ele><time>2020-06-12T10:30:08Z</time><name>PT4119</name></trkpt>
<trkpt lat="54.366771" lon="-3.130004"><ele>506</ele><time>2020-06-12T10:30:09Z</time><name>PT4120</name></trkpt>
<trkpt lat="54.366778" lon="-3.130004"><ele>506</ele><time>2020-06-12T10:30:10Z</time><name>PT4121</name></trkpt>
<trkpt lat="54.366786" lon="-3.130008"><ele>506</ele><time>2020-06-12T10:30:11Z</time><name>PT4122</name></trkpt>
<trkpt lat="54.366792" lon="-3.130011"><ele>506</ele><time>2020-06-12T10:30:12Z</time><name>PT4123</name></trkpt>
<trkpt lat="54.366799" lon="-3.130019"><ele>507</ele><time>2020-06-12T10:30:13Z</time><name>PT4124</name></trkpt>
<trkpt lat="54.366805" lon="-3.130026"><ele>506</ele><time>2020-06-12T10:30:14Z</time><name>PT4125</name></trkpt>
<trkpt lat="54.366814" lon="-3.130028"><ele>507</ele><time>2020-06-12T10:30:15Z</time><name>PT4126</name></trkpt>
<trkpt lat="54.366820" lon="-3.130033"><ele>507</ele><time>2020-06-12T10:30:16Z</time><name>PT4127</name></trkpt>
<trkpt lat="54.366831" lon="-3.130041"><ele>506</ele><time>2020-06-12T10:30:17Z</time><name>PT4128</name></trkpt>
<trkpt lat="54.366838" lon="-3.130038"><ele>506</ele><time>2020-06-12T10:30:18Z</time><name>PT4129</name></trkpt>
<trkpt lat="54.366832" lon="-3.130047"><ele>506</ele><time>2020-06-12T10:30:19Z</time><name>PT4130</name></trkpt>
<trkpt lat="54.366835" lon="-3.130054"><ele>506</ele><time>2020-06-12T10:30:20Z</time><name>PT4131</name></trkpt>
<trkpt lat="54.366843" lon="-3.130063"><ele>505</ele><time>2020-06-12T10:30:21Z</time><name>PT4132</name></trkpt>
<trkpt lat="54.366851" lon="-3.130072"><ele>505</ele><time>2020-06-12T10:30:22Z</time><name>PT4133</name></trkpt>
<trkpt lat="54.366858" lon="-3.130088"><ele>504</ele><time>2020-06-12T10:30:23Z</time><name>PT4134</name></trkpt>
<trkpt lat="54.366865" lon="-3.130098"><ele>504</ele><time>2020-06-12T10:30:24Z</time><name>PT4135</name></trkpt>
<trkpt lat="54.366872" lon="-3.130109"><ele>504</ele><time>2020-06-12T10:30:25Z</time><name>PT4136</name></trkpt>
<trkpt lat="54.366876" lon="-3.130119"><ele>505</ele><time>2020-06-12T10:30:26Z</time><name>PT4137</name></trkpt>
<trkpt lat="54.366882" lon="-3.130117"><ele>505</ele><time>2020-06-12T10:30:27Z</time><name>PT4138</name></trkpt>
<trkpt lat="54.366889" lon="-3.130115"><ele>505</ele><time>2020-06-12T10:30:28Z</time><name>PT4139</name></trkpt>
<trkpt lat="54.366895" lon="-3.130112"><ele>506</ele><time>2020-06-12T10:30:29Z</time><name>PT4140</name></trkpt>
<trkpt lat="54.366906" lon="-3.130111"><ele>505</ele><time>2020-06-12T10:30:30Z</time><name>PT4141</name></trkpt>
<trkpt lat="54.366915" lon="-3.130111"><ele>505</ele><time>2020-06-12T10:30:31Z</time><name>PT4142</name></trkpt>
<trkpt lat="54.366920" lon="-3.130106"><ele>505</ele><time>2020-06-12T10:30:32Z</time><name>PT4143</name></trkpt>
<trkpt lat="54.366928" lon="-3.130102"><ele>505</ele><time>2020-06-12T10:30:33Z</time><name>PT4144</name></trkpt>
<trkpt lat="54.366936" lon="-3.130095"><ele>506</ele><time>2020-06-12T10:30:34Z</time><name>PT4145</name></trkpt>
<trkpt lat="54.366946" lon="-3.130089"><ele>506</ele><time>2020-06-12T10:30:35Z</time><name>PT4146</name></trkpt>
<trkpt lat="54.366955" lon="-3.130088"><ele>506</ele><time>2020-06-12T10:30:36Z</time><name>PT4147</name></trkpt>
<trkpt lat="54.366956" lon="-3.130094"><ele>506</ele><time>2020-06-12T10:30:37Z</time><name>PT4148</name></trkpt>
<trkpt lat="54.366962" lon="-3.130103"><ele>506</ele><time>2020-06-12T10:30:38Z</time><name>PT4149</name></trkpt>
<trkpt lat="54.366974" lon="-3.130107"><ele>505</ele><time>2020-06-12T10:30:39Z</time><name>PT4150</name></trkpt>
<trkpt lat="54.366981" lon="-3.130108"><ele>506</ele><time>2020-06-12T10:30:40Z</time><name>PT4151</name></trkpt>
<trkpt lat="54.366984" lon="-3.130110"><ele>505</ele><time>2020-06-12T10:30:41Z</time><name>PT4152</name></trkpt>
<trkpt lat="54.366988" lon="-3.130116"><ele>505</ele><time>2020-06-12T10:30:42Z</time><name>PT4153</name></trkpt>
<trkpt lat="54.366994" lon="-3.130125"><ele>505</ele><time>2020-06-12T10:30:43Z</time><name>PT4154</name></trkpt>
<trkpt lat="54.367000" lon="-3.130137"><ele>505</ele><time>2020-06-12T10:30:44Z</time><name>PT4155</name></trkpt>
<trkpt lat="54.367007" lon="-3.130146"><ele>506</ele><time>2020-06-12T10:30:45Z</time><name>PT4156</name></trkpt>
<trkpt lat="54.367010" lon="-3.130155"><ele>505</ele><time>2020-06-12T10:30:46Z</time><name>PT4157</name></trkpt>
<trkpt lat="54.367014" lon="-3.130169"><ele>504</ele><time>2020-06-12T10:30:47Z</time><name>PT4158</name></trkpt>
<trkpt lat="54.367020" lon="-3.130182"><ele>504</ele><time>2020-06-12T10:30:48Z</time><name>PT4159</name></trkpt>
<trkpt lat="54.367029" lon="-3.130193"><ele>504</ele><time>2020-06-12T10:30:49Z</time><name>PT4160</name></trkpt>
<trkpt lat="54.367036" lon="-3.130202"><ele>504</ele><time>2020-06-12T10:30:50Z</time><name>PT4161</name></trkpt>
<trkpt lat="54.367048" lon="-3.130209"><ele>504</ele><time>2020-06-12T10:30:51Z</time><name>PT4162</name></trkpt>
<trkpt lat="54.367056" lon="-3.130214"><ele>504</ele><time>2020-06-12T10:30:52Z</time><name>PT4163</name></trkpt>
<trkpt lat="54.367061" lon="-3.130218"><ele>505</ele><time>2020-06-12T10:30:53Z</time><name>PT4164</name></trkpt>
<trkpt lat="54.367065" lon="-3.130231"><ele>505</ele><time>2020-06-12T10:30:54Z</time><name>PT4165</name></trkpt>
<trkpt lat="54.367072" lon="-3.130244"><ele>504</ele><time>2020-06-12T10:30:55Z</time><name>PT4166</name></trkpt>
<trkpt lat="54.367080" lon="-3.130253"><ele>505</ele><time>2020-06-12T10:30:56Z</time><name>PT4167</name></trkpt>
<trkpt lat="54.367091" lon="-3.130252"><ele>504</ele><time>2020-06-12T10:30:57Z</time><name>PT4168</name></trkpt>
<trkpt lat="54.367103" lon="-3.130250"><ele>504</ele><time>2020-06-12T10:30:58Z</time><name>PT4169</name></trkpt>
<trkpt lat="54.367115" lon="-3.130256"><ele>505</ele><time>2020-06-12T10:30:59Z</time><name>PT4170</name></trkpt>
<trkpt lat="54.367130" lon="-3.130266"><ele>504</ele><time>2020-06-12T10:31:00Z</time><name>PT4171</name></trkpt>
<trkpt lat="54.367143" lon="-3.130273"><ele>503</ele><time>2020-06-12T10:31:01Z</time><name>PT4172</name></trkpt>
<trkpt lat="54.367151" lon="-3.130280"><ele>503</ele><time>2020-06-12T10:31:02Z</time><name>PT4173</name></trkpt>
<trkpt lat="54.367156" lon="-3.130295"><ele>502</ele><time>2020-06-12T10:31:03Z</time><name>PT4174</name></trkpt>
<trkpt lat="54.367162" lon="-3.130308"><ele>501</ele><time>2020-06-12T10:31:04Z</time><name>PT4175</name></trkpt>
<trkpt lat="54.367169" lon="-3.130316"><ele>501</ele><time>2020-06-12T10:31:05Z</time><name>PT4176</name></trkpt>
<trkpt lat="54.367175" lon="-3.130322"><ele>501</ele><time>2020-06-12T10:31:06Z</time><name>PT4177</name></trkpt>
<trkpt lat="54.367182" lon="-3.130331"><ele>500</ele><time>2020-06-12T10:31:07Z</time><name>PT4178</name></trkpt>
<trkpt lat="54.367188" lon="-3.130337"><ele>501</ele><time>2020-06-12T10:31:08Z</time><name>PT4179</name></trkpt>
<trkpt lat="54.367197" lon="-3.130342"><ele>501</ele><time>2020-06-12T10:31:09Z</time><name>PT4180</name></trkpt>
<trkpt lat="54.367207" lon="-3.130345"><ele>501</ele><time>2020-06-12T10:31:10Z</time><name>PT4181</name></trkpt>
<trkpt lat="54.367214" lon="-3.130349"><ele>502</ele><time>2020-06-12T10:31:11Z</time><name>PT4182</name></trkpt>
<trkpt lat="54.367225" lon="-3.130352"><ele>501</ele><time>2020-06-12T10:31:12Z</time><name>PT4183</name></trkpt>
<trkpt lat="54.367235" lon="-3.130355"><ele>502</ele><time>2020-06-12T10:31:13Z</time><name>PT4184</name></trkpt>
<trkpt lat="54.367252" lon="-3.130357"><ele>502</ele><time>2020-06-12T10:31:14Z</time><name>PT4185</name></trkpt>
<trkpt lat="54.367263" lon="-3.130365"><ele>502</ele><time>2020-06-12T10:31:15Z</time><name>PT4186</name></trkpt>
<trkpt lat="54.367271" lon="-3.130370"><ele>502</ele><time>2020-06-12T10:31:16Z</time><name>PT4187</name></trkpt>
<trkpt lat="54.367279" lon="-3.130374"><ele>504</ele><time>2020-06-12T10:31:17Z</time><name>PT4188</name></trkpt>
<trkpt lat="54.367289" lon="-3.130378"><ele>503</ele><time>2020-06-12T10:31:18Z</time><name>PT4189</name></trkpt>
<trkpt lat="54.367298" lon="-3.130382"><ele>504</ele><time>2020-06-12T10:31:19Z</time><name>PT4190</name></trkpt>
<trkpt lat="54.367303" lon="-3.130388"><ele>505</ele><time>2020-06-12T10:31:20Z</time><name>PT4191</name></trkpt>
<trkpt lat="54.367312" lon="-3.130388"><ele>506</ele><time>2020-06-12T10:31:21Z</time><name>PT4192</name></trkpt>
<trkpt lat="54.367325" lon="-3.130387"><ele>505</ele><time>2020-06-12T10:31:22Z</time><name>PT4193</name></trkpt>
<trkpt lat="54.367332" lon="-3.130386"><ele>506</ele><time>2020-06-12T10:31:23Z</time><name>PT4194</name></trkpt>
<trkpt lat="54.367339" lon="-3.130385"><ele>506</ele><time>2020-06-12T10:31:24Z</time><name>PT4195</name></trkpt>
<trkpt lat="54.367346" lon="-3.130385"><ele>506</ele><time>2020-06-12T10:31:25Z</time><name>PT4196</name></trkpt>
<trkpt lat="54.367355" lon="-3.130386"><ele>506</ele><time>2020-06-12T10:31:26Z</time><name>PT4197</name></trkpt>
<trkpt lat="54.367367" lon="-3.130387"><ele>505</ele><time>2020-06-12T10:31:27Z</time><name>PT4198</name></trkpt>
<trkpt lat="54.367376" lon="-3.130381"><ele>506</ele><time>2020-06-12T10:31:29Z</time><name>PT4199</name></trkpt>
<trkpt lat="54.367389" lon="-3.130378"><ele>506</ele><time>2020-06-12T10:31:29Z</time><name>PT4200</name></trkpt>
<trkpt lat="54.367399" lon="-3.130375"><ele>506</ele><time>2020-06-12T10:31:30Z</time><name>PT4201</name></trkpt>
<trkpt lat="54.367408" lon="-3.130373"><ele>507</ele><time>2020-06-12T10:31:31Z</time><name>PT4202</name></trkpt>
<trkpt lat="54.367418" lon="-3.130368"><ele>507</ele><time>2020-06-12T10:31:32Z</time><name>PT4203</name></trkpt>
<trkpt lat="54.367427" lon="-3.130366"><ele>507</ele><time>2020-06-12T10:31:33Z</time><name>PT4204</name></trkpt>
<trkpt lat="54.367436" lon="-3.130362"><ele>507</ele><time>2020-06-12T10:31:34Z</time><name>PT4205</name></trkpt>
<trkpt lat="54.367446" lon="-3.130357"><ele>507</ele><time>2020-06-12T10:31:35Z</time><name>PT4206</name></trkpt>
<trkpt lat="54.367456" lon="-3.130352"><ele>507</ele><time>2020-06-12T10:31:36Z</time><name>PT4207</name></trkpt>
<trkpt lat="54.367463" lon="-3.130345"><ele>507</ele><time>2020-06-12T10:31:37Z</time><name>PT4208</name></trkpt>
<trkpt lat="54.367472" lon="-3.130342"><ele>507</ele><time>2020-06-12T10:31:38Z</time><name>PT4209</name></trkpt>
<trkpt lat="54.367479" lon="-3.130332"><ele>507</ele><time>2020-06-12T10:31:39Z</time><name>PT4210</name></trkpt>
<trkpt lat="54.367480" lon="-3.130332"><ele>507</ele><time>2020-06-12T10:31:40Z</time><name>PT4211</name></trkpt>
<trkpt lat="54.367483" lon="-3.130328"><ele>507</ele><time>2020-06-12T10:31:41Z</time><name>PT4212</name></trkpt>
<trkpt lat="54.367488" lon="-3.130330"><ele>507</ele><time>2020-06-12T10:31:42Z</time><name>PT4213</name></trkpt>
<trkpt lat="54.367494" lon="-3.130331"><ele>506</ele><time>2020-06-12T10:31:43Z</time><name>PT4214</name></trkpt>
<trkpt lat="54.367499" lon="-3.130338"><ele>507</ele><time>2020-06-12T10:31:44Z</time><name>PT4215</name></trkpt>
<trkpt lat="54.367505" lon="-3.130344"><ele>507</ele><time>2020-06-12T10:31:45Z</time><name>PT4216</name></trkpt>
<trkpt lat="54.367507" lon="-3.130348"><ele>507</ele><time>2020-06-12T10:31:46Z</time><name>PT4217</name></trkpt>
<trkpt lat="54.367511" lon="-3.130341"><ele>507</ele><time>2020-06-12T10:31:49Z</time><name>PT4218</name></trkpt>
<trkpt lat="54.367520" lon="-3.130347"><ele>507</ele><time>2020-06-12T10:31:50Z</time><name>PT4219</name></trkpt>
<trkpt lat="54.367532" lon="-3.130350"><ele>507</ele><time>2020-06-12T10:31:51Z</time><name>PT4220</name></trkpt>
<trkpt lat="54.367540" lon="-3.130349"><ele>507</ele><time>2020-06-12T10:31:52Z</time><name>PT4221</name></trkpt>
<trkpt lat="54.367547" lon="-3.130352"><ele>507</ele><time>2020-06-12T10:31:53Z</time><name>PT4222</name></trkpt>
<trkpt lat="54.367555" lon="-3.130349"><ele>507</ele><time>2020-06-12T10:31:54Z</time><name>PT4223</name></trkpt>
<trkpt lat="54.367561" lon="-3.130349"><ele>507</ele><time>2020-06-12T10:31:55Z</time><name>PT4224</name></trkpt>
<trkpt lat="54.367566" lon="-3.130351"><ele>507</ele><time>2020-06-12T10:31:56Z</time><name>PT4225</name></trkpt>
<trkpt lat="54.367569" lon="-3.130355"><ele>507</ele><time>2020-06-12T10:31:57Z</time><name>PT4226</name></trkpt>
<trkpt lat="54.367573" lon="-3.130360"><ele>506</ele><time>2020-06-12T10:31:58Z</time><name>PT4227</name></trkpt>
<trkpt lat="54.367575" lon="-3.130363"><ele>505</ele><time>2020-06-12T10:31:59Z</time><name>PT4228</name></trkpt>
<trkpt lat="54.367578" lon="-3.130362"><ele>506</ele><time>2020-06-12T10:32:00Z</time><name>PT4229</name></trkpt>
<trkpt lat="54.367582" lon="-3.130358"><ele>506</ele><time>2020-06-12T10:32:01Z</time><name>PT4230</name></trkpt>
<trkpt lat="54.367591" lon="-3.130379"><ele>506</ele><time>2020-06-12T10:32:03Z</time><name>PT4231</name></trkpt>
<trkpt lat="54.367601" lon="-3.130376"><ele>504</ele><time>2020-06-12T10:32:04Z</time><name>PT4232</name></trkpt>
<trkpt lat="54.367606" lon="-3.130367"><ele>505</ele><time>2020-06-12T10:32:07Z</time><name>PT4233</name></trkpt>
<trkpt lat="54.367613" lon="-3.130374"><ele>505</ele><time>2020-06-12T10:32:08Z</time><name>PT4234</name></trkpt>
<trkpt lat="54.367620" lon="-3.130376"><ele>505</ele><time>2020-06-12T10:32:09Z</time><name>PT4235</name></trkpt>
<trkpt lat="54.367622" lon="-3.130368"><ele>505</ele><time>2020-06-12T10:32:10Z</time><name>PT4236</name></trkpt>
<trkpt lat="54.367628" lon="-3.130365"><ele>505</ele><time>2020-06-12T10:32:11Z</time><name>PT4237</name></trkpt>
<trkpt lat="54.367635" lon="-3.130364"><ele>505</ele><time>2020-06-12T10:32:12Z</time><name>PT4238</name></trkpt>
<trkpt lat="54.367639" lon="-3.130365"><ele>504</ele><time>2020-06-12T10:32:13Z</time><name>PT4239</name></trkpt>
<trkpt lat="54.367648" lon="-3.130360"><ele>505</ele><time>2020-06-12T10:32:14Z</time><name>PT4240</name></trkpt>
<trkpt lat="54.367653" lon="-3.130359"><ele>505</ele><time>2020-06-12T10:32:15Z</time><name>PT4241</name></trkpt>
<trkpt lat="54.367657" lon="-3.130357"><ele>505</ele><time>2020-06-12T10:32:16Z</time><name>PT4242</name></trkpt>
<trkpt lat="54.367658" lon="-3.130349"><ele>505</ele><time>2020-06-12T10:32:17Z</time><name>PT4243</name></trkpt>
<trkpt lat="54.367659" lon="-3.130349"><ele>506</ele><time>2020-06-12T10:32:18Z</time><name>PT4244</name></trkpt>
<trkpt lat="54.367665" lon="-3.130344"><ele>506</ele><time>2020-06-12T10:32:19Z</time><name>PT4245</name></trkpt>
<trkpt lat="54.367670" lon="-3.130340"><ele>507</ele><time>2020-06-12T10:32:20Z</time><name>PT4246</name></trkpt>
<trkpt lat="54.367672" lon="-3.130339"><ele>506</ele><time>2020-06-12T10:32:21Z</time><name>PT4247</name></trkpt>
<trkpt lat="54.367663" lon="-3.130339"><ele>507</ele><time>2020-06-12T10:32:22Z</time><name>PT4248</name></trkpt>
<trkpt lat="54.367662" lon="-3.130339"><ele>507</ele><time>2020-06-12T10:32:23Z</time><name>PT4249</name></trkpt>
<trkpt lat="54.367663" lon="-3.130336"><ele>508</ele><time>2020-06-12T10:32:24Z</time><name>PT4250</name></trkpt>
<trkpt lat="54.367666" lon="-3.130332"><ele>508</ele><time>2020-06-12T10:32:25Z</time><name>PT4251</name></trkpt>
<trkpt lat="54.367672" lon="-3.130334"><ele>508</ele><time>2020-06-12T10:32:26Z</time><name>PT4252</name></trkpt>
<trkpt lat="54.367671" lon="-3.130336"><ele>510</ele><time>2020-06-12T10:32:27Z</time><name>PT4253</name></trkpt>
<trkpt lat="54.367676" lon="-3.130342"><ele>510</ele><time>2020-06-12T10:32:28Z</time><name>PT4254</name></trkpt>
<trkpt lat="54.367680" lon="-3.130352"><ele>510</ele><time>2020-06-12T10:32:29Z</time><name>PT4255</name></trkpt>
<trkpt lat="54.367686" lon="-3.130352"><ele>511</ele><time>2020-06-12T10:32:30Z</time><name>PT4256</name></trkpt>
<trkpt lat="54.367696" lon="-3.130349"><ele>510</ele><time>2020-06-12T10:32:31Z</time><name>PT4257</name></trkpt>
<trkpt lat="54.367705" lon="-3.130345"><ele>511</ele><time>2020-06-12T10:32:32Z</time><name>PT4258</name></trkpt>
<trkpt lat="54.367711" lon="-3.130350"><ele>511</ele><time>2020-06-12T10:32:33Z</time><name>PT4259</name></trkpt>
<trkpt lat="54.367716" lon="-3.130357"><ele>511</ele><time>2020-06-12T10:32:34Z</time><name>PT4260</name></trkpt>
<trkpt lat="54.367722" lon="-3.130365"><ele>511</ele><time>2020-06-12T10:32:35Z</time><name>PT4261</name></trkpt>
<trkpt lat="54.367731" lon="-3.130374"><ele>512</ele><time>2020-06-12T10:32:36Z</time><name>PT4262</name></trkpt>
<trkpt lat="54.367743" lon="-3.130390"><ele>512</ele><time>2020-06-12T10:32:37Z</time><name>PT4263</name></trkpt>
<trkpt lat="54.367751" lon="-3.130397"><ele>512</ele><time>2020-06-12T10:32:38Z</time><name>PT4264</name></trkpt>
<trkpt lat="54.367767" lon="-3.130403"><ele>511</ele><time>2020-06-12T10:32:39Z</time><name>PT4265</name></trkpt>
<trkpt lat="54.367778" lon="-3.130403"><ele>511</ele><time>2020-06-12T10:32:40Z</time><name>PT4266</name></trkpt>
<trkpt lat="54.367785" lon="-3.130407"><ele>510</ele><time>2020-06-12T10:32:41Z</time><name>PT4267</name></trkpt>
<trkpt lat="54.367790" lon="-3.130407"><ele>510</ele><time>2020-06-12T10:32:42Z</time><name>PT4268</name></trkpt>
<trkpt lat="54.367797" lon="-3.130414"><ele>509</ele><time>2020-06-12T10:32:43Z</time><name>PT4269</name></trkpt>
<trkpt lat="54.367803" lon="-3.130418"><ele>508</ele><time>2020-06-12T10:32:44Z</time><name>PT4270</name></trkpt>
<trkpt lat="54.367808" lon="-3.130420"><ele>508</ele><time>2020-06-12T10:32:45Z</time><name>PT4271</name></trkpt>
<trkpt lat="54.367813" lon="-3.130415"><ele>508</ele><time>2020-06-12T10:32:46Z</time><name>PT4272</name></trkpt>
<trkpt lat="54.367817" lon="-3.130412"><ele>508</ele><time>2020-06-12T10:32:47Z</time><name>PT4273</name></trkpt>
<trkpt lat="54.367824" lon="-3.130416"><ele>509</ele><time>2020-06-12T10:32:48Z</time><name>PT4274</name></trkpt>
<trkpt lat="54.367832" lon="-3.130416"><ele>510</ele><time>2020-06-12T10:32:49Z</time><name>PT4275</name></trkpt>
<trkpt lat="54.367837" lon="-3.130409"><ele>510</ele><time>2020-06-12T10:32:50Z</time><name>PT4276</name></trkpt>
<trkpt lat="54.367840" lon="-3.130403"><ele>508</ele><time>2020-06-12T10:32:52Z</time><name>PT4277</name></trkpt>
<trkpt lat="54.367843" lon="-3.130403"><ele>507</ele><time>2020-06-12T10:32:52Z</time><name>PT4278</name></trkpt>
<trkpt lat="54.367849" lon="-3.130411"><ele>505</ele><time>2020-06-12T10:33:05Z</time><name>PT4279</name></trkpt>
<trkpt lat="54.367856" lon="-3.130411"><ele>505</ele><time>2020-06-12T10:33:06Z</time><name>PT4280</name></trkpt>
<trkpt lat="54.367872" lon="-3.130398"><ele>505</ele><time>2020-06-12T10:33:07Z</time><name>PT4281</name></trkpt>
<trkpt lat="54.367873" lon="-3.130379"><ele>504</ele><time>2020-06-12T10:33:08Z</time><name>PT4282</name></trkpt>
<trkpt lat="54.367873" lon="-3.130369"><ele>504</ele><time>2020-06-12T10:33:09Z</time><name>PT4283</name></trkpt>
<trkpt lat="54.367878" lon="-3.130370"><ele>505</ele><time>2020-06-12T10:33:10Z</time><name>PT4284</name></trkpt>
<trkpt lat="54.367888" lon="-3.130372"><ele>505</ele><time>2020-06-12T10:33:11Z</time><name>PT4285</name></trkpt>
<trkpt lat="54.367900" lon="-3.130374"><ele>506</ele><time>2020-06-12T10:33:12Z</time><name>PT4286</name></trkpt>
<trkpt lat="54.367911" lon="-3.130380"><ele>506</ele><time>2020-06-12T10:33:13Z</time><name>PT4287</name></trkpt>
<trkpt lat="54.367910" lon="-3.130378"><ele>507</ele><time>2020-06-12T10:33:14Z</time><name>PT4288</name></trkpt>
<trkpt lat="54.367907" lon="-3.130379"><ele>506</ele><time>2020-06-12T10:33:15Z</time><name>PT4289</name></trkpt>
<trkpt lat="54.367907" lon="-3.130384"><ele>506</ele><time>2020-06-12T10:33:16Z</time><name>PT4290</name></trkpt>
<trkpt lat="54.367911" lon="-3.130394"><ele>506</ele><time>2020-06-12T10:33:32Z</time><name>PT4291</name></trkpt>
<trkpt lat="54.367922" lon="-3.130397"><ele>506</ele><time>2020-06-12T10:33:33Z</time><name>PT4292</name></trkpt>
<trkpt lat="54.367934" lon="-3.130400"><ele>506</ele><time>2020-06-12T10:33:34Z</time><name>PT4293</name></trkpt>
<trkpt lat="54.367941" lon="-3.130398"><ele>506</ele><time>2020-06-12T10:33:35Z</time><name>PT4294</name></trkpt>
<trkpt lat="54.367951" lon="-3.130392"><ele>506</ele><time>2020-06-12T10:33:36Z</time><name>PT4295</name></trkpt>
<trkpt lat="54.367962" lon="-3.130389"><ele>506</ele><time>2020-06-12T10:33:37Z</time><name>PT4296</name></trkpt>
<trkpt lat="54.367973" lon="-3.130387"><ele>507</ele><time>2020-06-12T10:33:38Z</time><name>PT4297</name></trkpt>
<trkpt lat="54.367982" lon="-3.130388"><ele>507</ele><time>2020-06-12T10:33:39Z</time><name>PT4298</name></trkpt>
<trkpt lat="54.367991" lon="-3.130394"><ele>507</ele><time>2020-06-12T10:33:40Z</time><name>PT4299</name></trkpt>
<trkpt lat="54.368003" lon="-3.130396"><ele>507</ele><time>2020-06-12T10:33:41Z</time><name>PT4300</name></trkpt>
<trkpt lat="54.368012" lon="-3.130397"><ele>507</ele><time>2020-06-12T10:33:42Z</time><name>PT4301</name></trkpt>
<trkpt lat="54.368024" lon="-3.130392"><ele>507</ele><time>2020-06-12T10:33:43Z</time><name>PT4302</name></trkpt>
<trkpt lat="54.368034" lon="-3.130384"><ele>507</ele><time>2020-06-12T10:33:44Z</time><name>PT4303</name></trkpt>
<trkpt lat="54.368042" lon="-3.130381"><ele>507</ele><time>2020-06-12T10:33:45Z</time><name>PT4304</name></trkpt>
<trkpt lat="54.368049" lon="-3.130384"><ele>508</ele><time>2020-06-12T10:33:46Z</time><name>PT4305</name></trkpt>
<trkpt lat="54.368059" lon="-3.130388"><ele>508</ele><time>2020-06-12T10:33:47Z</time><name>PT4306</name></trkpt>
<trkpt lat="54.368070" lon="-3.130388"><ele>508</ele><time>2020-06-12T10:33:48Z</time><name>PT4307</name></trkpt>
<trkpt lat="54.368080" lon="-3.130385"><ele>508</ele><time>2020-06-12T10:33:49Z</time><name>PT4308</name></trkpt>
<trkpt lat="54.368089" lon="-3.130390"><ele>508</ele><time>2020-06-12T10:33:50Z</time><name>PT4309</name></trkpt>
<trkpt lat="54.368096" lon="-3.130394"><ele>508</ele><time>2020-06-12T10:33:51Z</time><name>PT4310</name></trkpt>
<trkpt lat="54.368109" lon="-3.130391"><ele>508</ele><time>2020-06-12T10:33:52Z</time><name>PT4311</name></trkpt>
<trkpt lat="54.368120" lon="-3.130390"><ele>508</ele><time>2020-06-12T10:33:53Z</time><name>PT4312</name></trkpt>
<trkpt lat="54.368132" lon="-3.130387"><ele>508</ele><time>2020-06-12T10:33:54Z</time><name>PT4313</name></trkpt>
<trkpt lat="54.368143" lon="-3.130384"><ele>508</ele><time>2020-06-12T10:33:55Z</time><name>PT4314</name></trkpt>
<trkpt lat="54.368154" lon="-3.130377"><ele>509</ele><time>2020-06-12T10:33:56Z</time><name>PT4315</name></trkpt>
<trkpt lat="54.368161" lon="-3.130368"><ele>509</ele><time>2020-06-12T10:33:57Z</time><name>PT4316</name></trkpt>
<trkpt lat="54.368173" lon="-3.130359"><ele>509</ele><time>2020-06-12T10:33:58Z</time><name>PT4317</name></trkpt>
<trkpt lat="54.368185" lon="-3.130357"><ele>508</ele><time>2020-06-12T10:33:59Z</time><name>PT4318</name></trkpt>
<trkpt lat="54.368197" lon="-3.130352"><ele>508</ele><time>2020-06-12T10:34:00Z</time><name>PT4319</name></trkpt>
<trkpt lat="54.368205" lon="-3.130345"><ele>509</ele><time>2020-06-12T10:34:01Z</time><name>PT4320</name></trkpt>
<trkpt lat="54.368212" lon="-3.130340"><ele>509</ele><time>2020-06-12T10:34:02Z</time><name>PT4321</name></trkpt>
<trkpt lat="54.368219" lon="-3.130334"><ele>511</ele><time>2020-06-12T10:34:03Z</time><name>PT4322</name></trkpt>
<trkpt lat="54.368226" lon="-3.130329"><ele>511</ele><time>2020-06-12T10:34:04Z</time><name>PT4323</name></trkpt>
<trkpt lat="54.368235" lon="-3.130323"><ele>511</ele><time>2020-06-12T10:34:05Z</time><name>PT4324</name></trkpt>
<trkpt lat="54.368242" lon="-3.130317"><ele>511</ele><time>2020-06-12T10:34:06Z</time><name>PT4325</name></trkpt>
<trkpt lat="54.368255" lon="-3.130319"><ele>509</ele><time>2020-06-12T10:34:07Z</time><name>PT4326</name></trkpt>
<trkpt lat="54.368261" lon="-3.130318"><ele>509</ele><time>2020-06-12T10:34:08Z</time><name>PT4327</name></trkpt>
<trkpt lat="54.368262" lon="-3.130318"><ele>508</ele><time>2020-06-12T10:34:09Z</time><name>PT4328</name></trkpt>
<trkpt lat="54.368267" lon="-3.130317"><ele>508</ele><time>2020-06-12T10:34:10Z</time><name>PT4329</name></trkpt>
<trkpt lat="54.368268" lon="-3.130311"><ele>508</ele><time>2020-06-12T10:34:11Z</time><name>PT4330</name></trkpt>
<trkpt lat="54.368272" lon="-3.130312"><ele>509</ele><time>2020-06-12T10:34:12Z</time><name>PT4331</name></trkpt>
<trkpt lat="54.368280" lon="-3.130308"><ele>508</ele><time>2020-06-12T10:34:13Z</time><name>PT4332</name></trkpt>
<trkpt lat="54.368287" lon="-3.130310"><ele>508</ele><time>2020-06-12T10:34:14Z</time><name>PT4333</name></trkpt>
<trkpt lat="54.368296" lon="-3.130314"><ele>508</ele><time>2020-06-12T10:34:15Z</time><name>PT4334</name></trkpt>
<trkpt lat="54.368299" lon="-3.130317"><ele>508</ele><time>2020-06-12T10:34:16Z</time><name>PT4335</name></trkpt>
<trkpt lat="54.368302" lon="-3.130319"><ele>508</ele><time>2020-06-12T10:34:17Z</time><name>PT4336</name></trkpt>
<trkpt lat="54.368307" lon="-3.130319"><ele>508</ele><time>2020-06-12T10:34:18Z</time><name>PT4337</name></trkpt>
<trkpt lat="54.368308" lon="-3.130307"><ele>507</ele><time>2020-06-12T10:34:22Z</time><name>PT4338</name></trkpt>
<trkpt lat="54.368309" lon="-3.130304"><ele>506</ele><time>2020-06-12T10:34:23Z</time><name>PT4339</name></trkpt>
<trkpt lat="54.368314" lon="-3.130312"><ele>506</ele><time>2020-06-12T10:34:24Z</time><name>PT4340</name></trkpt>
<trkpt lat="54.368322" lon="-3.130318"><ele>507</ele><time>2020-06-12T10:34:25Z</time><name>PT4341</name></trkpt>
<trkpt lat="54.368331" lon="-3.130321"><ele>507</ele><time>2020-06-12T10:34:26Z</time><name>PT4342</name></trkpt>
<trkpt lat="54.368334" lon="-3.130313"><ele>506</ele><time>2020-06-12T10:34:34Z</time><name>PT4343</name></trkpt>
<trkpt lat="54.368349" lon="-3.130308"><ele>507</ele><time>2020-06-12T10:34:35Z</time><name>PT4344</name></trkpt>
<trkpt lat="54.368356" lon="-3.130304"><ele>507</ele><time>2020-06-12T10:34:36Z</time><name>PT4345</name></trkpt>
<trkpt lat="54.368363" lon="-3.130304"><ele>507</ele><time>2020-06-12T10:34:37Z</time><name>PT4346</name></trkpt>
<trkpt lat="54.368370" lon="-3.130313"><ele>507</ele><time>2020-06-12T10:34:38Z</time><name>PT4347</name></trkpt>
<trkpt lat="54.368378" lon="-3.130319"><ele>507</ele><time>2020-06-12T10:34:39Z</time><name>PT4348</name></trkpt>
<trkpt lat="54.368385" lon="-3.130319"><ele>507</ele><time>2020-06-12T10:34:40Z</time><name>PT4349</name></trkpt>
<trkpt lat="54.368387" lon="-3.130323"><ele>507</ele><time>2020-06-12T10:34:41Z</time><name>PT4350</name></trkpt>
<trkpt lat="54.368391" lon="-3.130328"><ele>507</ele><time>2020-06-12T10:34:42Z</time><name>PT4351</name></trkpt>
<trkpt lat="54.368393" lon="-3.130336"><ele>507</ele><time>2020-06-12T10:34:43Z</time><name>PT4352</name></trkpt>
<trkpt lat="54.368397" lon="-3.130347"><ele>507</ele><time>2020-06-12T10:34:44Z</time><name>PT4353</name></trkpt>
<trkpt lat="54.368404" lon="-3.130349"><ele>506</ele><time>2020-06-12T10:34:45Z</time><name>PT4354</name></trkpt>
<trkpt lat="54.368409" lon="-3.130353"><ele>506</ele><time>2020-06-12T10:34:46Z</time><name>PT4355</name></trkpt>
<trkpt lat="54.368420" lon="-3.130353"><ele>506</ele><time>2020-06-12T10:34:47Z</time><name>PT4356</name></trkpt>
<trkpt lat="54.368433" lon="-3.130360"><ele>506</ele><time>2020-06-12T10:34:48Z</time><name>PT4357</name></trkpt>
<trkpt lat="54.368449" lon="-3.130367"><ele>506</ele><time>2020-06-12T10:34:49Z</time><name>PT4358</name></trkpt>
<trkpt lat="54.368456" lon="-3.130376"><ele>506</ele><time>2020-06-12T10:34:50Z</time><name>PT4359</name></trkpt>
<trkpt lat="54.368467" lon="-3.130382"><ele>506</ele><time>2020-06-12T10:34:51Z</time><name>PT4360</name></trkpt>
<trkpt lat="54.368474" lon="-3.130387"><ele>506</ele><time>2020-06-12T10:34:52Z</time><name>PT4361</name></trkpt>
<trkpt lat="54.368488" lon="-3.130386"><ele>506</ele><time>2020-06-12T10:34:53Z</time><name>PT4362</name></trkpt>
<trkpt lat="54.368504" lon="-3.130382"><ele>506</ele><time>2020-06-12T10:34:54Z</time><name>PT4363</name></trkpt>
<trkpt lat="54.368512" lon="-3.130382"><ele>506</ele><time>2020-06-12T10:34:55Z</time><name>PT4364</name></trkpt>
<trkpt lat="54.368520" lon="-3.130379"><ele>506</ele><time>2020-06-12T10:34:56Z</time><name>PT4365</name></trkpt>
<trkpt lat="54.368530" lon="-3.130375"><ele>506</ele><time>2020-06-12T10:34:57Z</time><name>PT4366</name></trkpt>
<trkpt lat="54.368538" lon="-3.130378"><ele>506</ele><time>2020-06-12T10:34:58Z</time><name>PT4367</name></trkpt>
<trkpt lat="54.368543" lon="-3.130386"><ele>506</ele><time>2020-06-12T10:34:59Z</time><name>PT4368</name></trkpt>
<trkpt lat="54.368552" lon="-3.130396"><ele>505</ele><time>2020-06-12T10:35:00Z</time><name>PT4369</name></trkpt>
<trkpt lat="54.368561" lon="-3.130396"><ele>505</ele><time>2020-06-12T10:35:01Z</time><name>PT4370</name></trkpt>
<trkpt lat="54.368568" lon="-3.130402"><ele>505</ele><time>2020-06-12T10:35:02Z</time><name>PT4371</name></trkpt>
<trkpt lat="54.368577" lon="-3.130402"><ele>506</ele><time>2020-06-12T10:35:03Z</time><name>PT4372</name></trkpt>
<trkpt lat="54.368585" lon="-3.130398"><ele>506</ele><time>2020-06-12T10:35:04Z</time><name>PT4373</name></trkpt>
<trkpt lat="54.368594" lon="-3.130395"><ele>506</ele><time>2020-06-12T10:35:05Z</time><name>PT4374</name></trkpt>
<trkpt lat="54.368601" lon="-3.130391"><ele>506</ele><time>2020-06-12T10:35:06Z</time><name>PT4375</name></trkpt>
<trkpt lat="54.368608" lon="-3.130387"><ele>506</ele><time>2020-06-12T10:35:07Z</time><name>PT4376</name></trkpt>
<trkpt lat="54.368614" lon="-3.130387"><ele>506</ele><time>2020-06-12T10:35:08Z</time><name>PT4377</name></trkpt>
<trkpt lat="54.368621" lon="-3.130387"><ele>505</ele><time>2020-06-12T10:35:09Z</time><name>PT4378</name></trkpt>
<trkpt lat="54.368625" lon="-3.130395"><ele>505</ele><time>2020-06-12T10:35:10Z</time><name>PT4379</name></trkpt>
<trkpt lat="54.368631" lon="-3.130397"><ele>505</ele><time>2020-06-12T10:35:11Z</time><name>PT4380</name></trkpt>
<trkpt lat="54.368639" lon="-3.130403"><ele>505</ele><time>2020-06-12T10:35:12Z</time><name>PT4381</name></trkpt>
<trkpt lat="54.368648" lon="-3.130404"><ele>504</ele><time>2020-06-12T10:35:13Z</time><name>PT4382</name></trkpt>
<trkpt lat="54.368659" lon="-3.130398"><ele>505</ele><time>2020-06-12T10:35:14Z</time><name>PT4383</name></trkpt>
<trkpt lat="54.368670" lon="-3.130390"><ele>505</ele><time>2020-06-12T10:35:15Z</time><name>PT4384</name></trkpt>
<trkpt lat="54.368678" lon="-3.130386"><ele>505</ele><time>2020-06-12T10:35:16Z</time><name>PT4385</name></trkpt>
<trkpt lat="54.368686" lon="-3.130384"><ele>504</ele><time>2020-06-12T10:35:17Z</time><name>PT4386</name></trkpt>
<trkpt lat="54.368690" lon="-3.130386"><ele>504</ele><time>2020-06-12T10:35:18Z</time><name>PT4387</name></trkpt>
<trkpt lat="54.368695" lon="-3.130386"><ele>504</ele><time>2020-06-12T10:35:19Z</time><name>PT4388</name></trkpt>
<trkpt lat="54.368704" lon="-3.130389"><ele>504</ele><time>2020-06-12T10:35:20Z</time><name>PT4389</name></trkpt>
<trkpt lat="54.368715" lon="-3.130391"><ele>504</ele><time>2020-06-12T10:35:21Z</time><name>PT4390</name></trkpt>
<trkpt lat="54.368725" lon="-3.130390"><ele>504</ele><time>2020-06-12T10:35:22Z</time><name>PT4391</name></trkpt>
<trkpt lat="54.368737" lon="-3.130389"><ele>504</ele><time>2020-06-12T10:35:23Z</time><name>PT4392</name></trkpt>
<trkpt lat="54.368747" lon="-3.130388"><ele>504</ele><time>2020-06-12T10:35:24Z</time><name>PT4393</name></trkpt>
<trkpt lat="54.368757" lon="-3.130386"><ele>504</ele><time>2020-06-12T10:35:25Z</time><name>PT4394</name></trkpt>
<trkpt lat="54.368770" lon="-3.130379"><ele>504</ele><time>2020-06-12T10:35:26Z</time><name>PT4395</name></trkpt>
<trkpt lat="54.368775" lon="-3.130377"><ele>504</ele><time>2020-06-12T10:35:27Z</time><name>PT4396</name></trkpt>
<trkpt lat="54.368780" lon="-3.130370"><ele>504</ele><time>2020-06-12T10:35:28Z</time><name>PT4397</name></trkpt>
<trkpt lat="54.368785" lon="-3.130366"><ele>504</ele><time>2020-06-12T10:35:29Z</time><name>PT4398</name></trkpt>
<trkpt lat="54.368784" lon="-3.130355"><ele>506</ele><time>2020-06-12T10:35:30Z</time><name>PT4399</name></trkpt>
<trkpt lat="54.368788" lon="-3.130345"><ele>506</ele><time>2020-06-12T10:35:31Z</time><name>PT4400</name></trkpt>
<trkpt lat="54.368790" lon="-3.130340"><ele>505</ele><time>2020-06-12T10:35:32Z</time><name>PT4401</name></trkpt>
<trkpt lat="54.368792" lon="-3.130332"><ele>505</ele><time>2020-06-12T10:35:33Z</time><name>PT4402</name></trkpt>
<trkpt lat="54.368789" lon="-3.130330"><ele>506</ele><time>2020-06-12T10:35:34Z</time><name>PT4403</name></trkpt>
<trkpt lat="54.368790" lon="-3.130329"><ele>506</ele><time>2020-06-12T10:35:35Z</time><name>PT4404</name></trkpt>
<trkpt lat="54.368793" lon="-3.130326"><ele>507</ele><time>2020-06-12T10:35:36Z</time><name>PT4405</name></trkpt>
<trkpt lat="54.368798" lon="-3.130327"><ele>507</ele><time>2020-06-12T10:35:37Z</time><name>PT4406</name></trkpt>
<trkpt lat="54.368807" lon="-3.130328"><ele>507</ele><time>2020-06-12T10:35:40Z</time><name>PT4407</name></trkpt>
<trkpt lat="54.368814" lon="-3.130334"><ele>507</ele><time>2020-06-12T10:35:41Z</time><name>PT4408</name></trkpt>
<trkpt lat="54.368828" lon="-3.130337"><ele>507</ele><time>2020-06-12T10:35:42Z</time><name>PT4409</name></trkpt>
<trkpt lat="54.368840" lon="-3.130335"><ele>507</ele><time>2020-06-12T10:35:43Z</time><name>PT4410</name></trkpt>
<trkpt lat="54.368851" lon="-3.130339"><ele>507</ele><time>2020-06-12T10:35:44Z</time><name>PT4411</name></trkpt>
<trkpt lat="54.368858" lon="-3.130339"><ele>508</ele><time>2020-06-12T10:35:45Z</time><name>PT4412</name></trkpt>
<trkpt lat="54.368865" lon="-3.130345"><ele>508</ele><time>2020-06-12T10:35:46Z</time><name>PT4413</name></trkpt>
<trkpt lat="54.368869" lon="-3.130352"><ele>507</ele><time>2020-06-12T10:35:47Z</time><name>PT4414</name></trkpt>
<trkpt lat="54.368875" lon="-3.130357"><ele>507</ele><time>2020-06-12T10:35:48Z</time><name>PT4415</name></trkpt>
<trkpt lat="54.368885" lon="-3.130363"><ele>508</ele><time>2020-06-12T10:35:49Z</time><name>PT4416</name></trkpt>
<trkpt lat="54.368891" lon="-3.130362"><ele>508</ele><time>2020-06-12T10:35:50Z</time><name>PT4417</name></trkpt>
<trkpt lat="54.368899" lon="-3.130361"><ele>508</ele><time>2020-06-12T10:35:51Z</time><name>PT4418</name></trkpt>
<trkpt lat="54.368907" lon="-3.130363"><ele>508</ele><time>2020-06-12T10:35:52Z</time><name>PT4419</name></trkpt>
<trkpt lat="54.368915" lon="-3.130361"><ele>508</ele><time>2020-06-12T10:35:53Z</time><name>PT4420</name></trkpt>
<trkpt lat="54.368927" lon="-3.130354"><ele>508</ele><time>2020-06-12T10:35:54Z</time><name>PT4421</name></trkpt>
<trkpt lat="54.368929" lon="-3.130350"><ele>508</ele><time>2020-06-12T10:35:55Z</time><name>PT4422</name></trkpt>
<trkpt lat="54.368935" lon="-3.130349"><ele>508</ele><time>2020-06-12T10:35:56Z</time><name>PT4423</name></trkpt>
<trkpt lat="54.368942" lon="-3.130344"><ele>508</ele><time>2020-06-12T10:35:57Z</time><name>PT4424</name></trkpt>
<trkpt lat="54.368953" lon="-3.130341"><ele>508</ele><time>2020-06-12T10:35:58Z</time><name>PT4425</name></trkpt>
<trkpt lat="54.368962" lon="-3.130338"><ele>508</ele><time>2020-06-12T10:35:59Z</time><name>PT4426</name></trkpt>
<trkpt lat="54.368967" lon="-3.130336"><ele>508</ele><time>2020-06-12T10:36:00Z</time><name>PT4427</name></trkpt>
<trkpt lat="54.368977" lon="-3.130336"><ele>508</ele><time>2020-06-12T10:36:01Z</time><name>PT4428</name></trkpt>
<trkpt lat="54.368984" lon="-3.130343"><ele>508</ele><time>2020-06-12T10:36:02Z</time><name>PT4429</name></trkpt>
<trkpt lat="54.368990" lon="-3.130343"><ele>508</ele><time>2020-06-12T10:36:03Z</time><name>PT4430</name></trkpt>
<trkpt lat="54.368998" lon="-3.130342"><ele>508</ele><time>2020-06-12T10:36:04Z</time><name>PT4431</name></trkpt>
<trkpt lat="54.369004" lon="-3.130339"><ele>508</ele><time>2020-06-12T10:36:05Z</time><name>PT4432</name></trkpt>
<trkpt lat="54.369012" lon="-3.130338"><ele>508</ele><time>2020-06-12T10:36:06Z</time><name>PT4433</name></trkpt>
<trkpt lat="54.369017" lon="-3.130331"><ele>508</ele><time>2020-06-12T10:36:07Z</time><name>PT4434</name></trkpt>
<trkpt lat="54.369022" lon="-3.130322"><ele>508</ele><time>2020-06-12T10:36:08Z</time><name>PT4435</name></trkpt>
<trkpt lat="54.369027" lon="-3.130320"><ele>508</ele><time>2020-06-12T10:36:09Z</time><name>PT4436</name></trkpt>
<trkpt lat="54.369032" lon="-3.130315"><ele>508</ele><time>2020-06-12T10:36:10Z</time><name>PT4437</name></trkpt>
<trkpt lat="54.369036" lon="-3.130307"><ele>508</ele><time>2020-06-12T10:36:12Z</time><name>PT4438</name></trkpt>
<trkpt lat="54.369043" lon="-3.130305"><ele>507</ele><time>2020-06-12T10:36:12Z</time><name>PT4439</name></trkpt>
<trkpt lat="54.369046" lon="-3.130298"><ele>507</ele><time>2020-06-12T10:36:13Z</time><name>PT4440</name></trkpt>
<trkpt lat="54.369051" lon="-3.130294"><ele>508</ele><time>2020-06-12T10:36:14Z</time><name>PT4441</name></trkpt>
<trkpt lat="54.369057" lon="-3.130292"><ele>508</ele><time>2020-06-12T10:36:15Z</time><name>PT4442</name></trkpt>
<trkpt lat="54.369058" lon="-3.130298"><ele>508</ele><time>2020-06-12T10:36:16Z</time><name>PT4443</name></trkpt>
<trkpt lat="54.369065" lon="-3.130300"><ele>508</ele><time>2020-06-12T10:36:17Z</time><name>PT4444</name></trkpt>
<trkpt lat="54.369075" lon="-3.130298"><ele>508</ele><time>2020-06-12T10:36:18Z</time><name>PT4445</name></trkpt>
<trkpt lat="54.369083" lon="-3.130299"><ele>508</ele><time>2020-06-12T10:36:20Z</time><name>PT4446</name></trkpt>
<trkpt lat="54.369090" lon="-3.130305"><ele>508</ele><time>2020-06-12T10:36:20Z</time><name>PT4447</name></trkpt>
<trkpt lat="54.369097" lon="-3.130307"><ele>508</ele><time>2020-06-12T10:36:22Z</time><name>PT4448</name></trkpt>
<trkpt lat="54.369105" lon="-3.130311"><ele>508</ele><time>2020-06-12T10:36:22Z</time><name>PT4449</name></trkpt>
<trkpt lat="54.369111" lon="-3.130311"><ele>508</ele><time>2020-06-12T10:36:23Z</time><name>PT4450</name></trkpt>
<trkpt lat="54.369120" lon="-3.130308"><ele>507</ele><time>2020-06-12T10:36:24Z</time><name>PT4451</name></trkpt>
<trkpt lat="54.369129" lon="-3.130309"><ele>507</ele><time>2020-06-12T10:36:25Z</time><name>PT4452</name></trkpt>
<trkpt lat="54.369140" lon="-3.130312"><ele>508</ele><time>2020-06-12T10:36:26Z</time><name>PT4453</name></trkpt>
<trkpt lat="54.369145" lon="-3.130315"><ele>507</ele><time>2020-06-12T10:36:27Z</time><name>PT4454</name></trkpt>
<trkpt lat="54.369151" lon="-3.130316"><ele>507</ele><time>2020-06-12T10:36:28Z</time><name>PT4455</name></trkpt>
<trkpt lat="54.369154" lon="-3.130315"><ele>507</ele><time>2020-06-12T10:36:29Z</time><name>PT4456</name></trkpt>
<trkpt lat="54.369167" lon="-3.130321"><ele>507</ele><time>2020-06-12T10:36:42Z</time><name>PT4457</name></trkpt>
<trkpt lat="54.369182" lon="-3.130316"><ele>506</ele><time>2020-06-12T10:36:43Z</time><name>PT4458</name></trkpt>
<trkpt lat="54.369194" lon="-3.130317"><ele>506</ele><time>2020-06-12T10:36:44Z</time><name>PT4459</name></trkpt>
<trkpt lat="54.369207" lon="-3.130332"><ele>506</ele><time>2020-06-12T10:36:45Z</time><name>PT4460</name></trkpt>
<trkpt lat="54.369219" lon="-3.130339"><ele>506</ele><time>2020-06-12T10:36:46Z</time><name>PT4461</name></trkpt>
<trkpt lat="54.369223" lon="-3.130330"><ele>506</ele><time>2020-06-12T10:36:47Z</time><name>PT4462</name></trkpt>
<trkpt lat="54.369232" lon="-3.130331"><ele>506</ele><time>2020-06-12T10:36:48Z</time><name>PT4463</name></trkpt>
<trkpt lat="54.369239" lon="-3.130356"><ele>507</ele><time>2020-06-12T10:36:54Z</time><name>PT4464</name></trkpt>
<trkpt lat="54.369246" lon="-3.130356"><ele>507</ele><time>2020-06-12T10:36:55Z</time><name>PT4465</name></trkpt>
<trkpt lat="54.369258" lon="-3.130353"><ele>507</ele><time>2020-06-12T10:36:56Z</time><name>PT4466</name></trkpt>
<trkpt lat="54.369268" lon="-3.130343"><ele>507</ele><time>2020-06-12T10:36:57Z</time><name>PT4467</name></trkpt>
<trkpt lat="54.369281" lon="-3.130337"><ele>506</ele><time>2020-06-12T10:36:58Z</time><name>PT4468</name></trkpt>
<trkpt lat="54.369285" lon="-3.130327"><ele>506</ele><time>2020-06-12T10:36:59Z</time><name>PT4469</name></trkpt>
<trkpt lat="54.369293" lon="-3.130319"><ele>505</ele><time>2020-06-12T10:37:03Z</time><name>PT4470</name></trkpt>
<trkpt lat="54.369304" lon="-3.130310"><ele>505</ele><time>2020-06-12T10:37:04Z</time><name>PT4471</name></trkpt>
<trkpt lat="54.369321" lon="-3.130299"><ele>505</ele><time>2020-06-12T10:37:05Z</time><name>PT4472</name></trkpt>
<trkpt lat="54.369328" lon="-3.130285"><ele>504</ele><time>2020-06-12T10:37:06Z</time><name>PT4473</name></trkpt>
<trkpt lat="54.369333" lon="-3.130283"><ele>504</ele><time>2020-06-12T10:37:07Z</time><name>PT4474</name></trkpt>
<trkpt lat="54.369340" lon="-3.130291"><ele>505</ele><time>2020-06-12T10:37:08Z</time><name>PT4475</name></trkpt>
<trkpt lat="54.369346" lon="-3.130288"><ele>505</ele><time>2020-06-12T10:37:09Z</time><name>PT4476</name></trkpt>
<trkpt lat="54.369353" lon="-3.130294"><ele>505</ele><time>2020-06-12T10:37:14Z</time><name>PT4477</name></trkpt>
<trkpt lat="54.369362" lon="-3.130301"><ele>506</ele><time>2020-06-12T10:37:15Z</time><name>PT4478</name></trkpt>
<trkpt lat="54.369368" lon="-3.130288"><ele>506</ele><time>2020-06-12T10:37:16Z</time><name>PT4479</name></trkpt>
<trkpt lat="54.369379" lon="-3.130282"><ele>506</ele><time>2020-06-12T10:37:17Z</time><name>PT4480</name></trkpt>
<trkpt lat="54.369390" lon="-3.130278"><ele>506</ele><time>2020-06-12T10:37:18Z</time><name>PT4481</name></trkpt>
<trkpt lat="54.369399" lon="-3.130280"><ele>506</ele><time>2020-06-12T10:37:19Z</time><name>PT4482</name></trkpt>
<trkpt lat="54.369408" lon="-3.130271"><ele>506</ele><time>2020-06-12T10:37:20Z</time><name>PT4483</name></trkpt>
<trkpt lat="54.369416" lon="-3.130266"><ele>506</ele><time>2020-06-12T10:37:21Z</time><name>PT4484</name></trkpt>
<trkpt lat="54.369425" lon="-3.130264"><ele>506</ele><time>2020-06-12T10:37:22Z</time><name>PT4485</name></trkpt>
<trkpt lat="54.369432" lon="-3.130259"><ele>507</ele><time>2020-06-12T10:37:23Z</time><name>PT4486</name></trkpt>
<trkpt lat="54.369440" lon="-3.130258"><ele>507</ele><time>2020-06-12T10:37:24Z</time><name>PT4487</name></trkpt>
<trkpt lat="54.369445" lon="-3.130255"><ele>507</ele><time>2020-06-12T10:37:25Z</time><name>PT4488</name></trkpt>
<trkpt lat="54.369454" lon="-3.130253"><ele>507</ele><time>2020-06-12T10:37:26Z</time><name>PT4489</name></trkpt>
<trkpt lat="54.369460" lon="-3.130253"><ele>507</ele><time>2020-06-12T10:37:27Z</time><name>PT4490</name></trkpt>
<trkpt lat="54.369464" lon="-3.130236"><ele>506</ele><time>2020-06-12T10:37:29Z</time><name>PT4491</name></trkpt>
<trkpt lat="54.369470" lon="-3.130238"><ele>506</ele><time>2020-06-12T10:37:30Z</time><name>PT4492</name></trkpt>
<trkpt lat="54.369475" lon="-3.130239"><ele>507</ele><time>2020-06-12T10:37:31Z</time><name>PT4493</name></trkpt>
<trkpt lat="54.369477" lon="-3.130243"><ele>506</ele><time>2020-06-12T10:37:32Z</time><name>PT4494</name></trkpt>
<trkpt lat="54.369481" lon="-3.130243"><ele>506</ele><time>2020-06-12T10:37:33Z</time><name>PT4495</name></trkpt>
<trkpt lat="54.369476" lon="-3.130240"><ele>506</ele><time>2020-06-12T10:37:42Z</time><name>PT4496</name></trkpt>
<trkpt lat="54.369480" lon="-3.130243"><ele>506</ele><time>2020-06-12T10:37:43Z</time><name>PT4497</name></trkpt>
<trkpt lat="54.369488" lon="-3.130241"><ele>506</ele><time>2020-06-12T10:37:44Z</time><name>PT4498</name></trkpt>
<trkpt lat="54.369496" lon="-3.130254"><ele>507</ele><time>2020-06-12T10:37:50Z</time><name>PT4499</name></trkpt>
<trkpt lat="54.369510" lon="-3.130245"><ele>507</ele><time>2020-06-12T10:37:51Z</time><name>PT4500</name></trkpt>
<trkpt lat="54.369521" lon="-3.130243"><ele>507</ele><time>2020-06-12T10:37:52Z</time><name>PT4501</name></trkpt>
<trkpt lat="54.369535" lon="-3.130236"><ele>508</ele><time>2020-06-12T10:37:53Z</time><name>PT4502</name></trkpt>
<trkpt lat="54.369552" lon="-3.130227"><ele>509</ele><time>2020-06-12T10:37:54Z</time><name>PT4503</name></trkpt>
<trkpt lat="54.369563" lon="-3.130225"><ele>510</ele><time>2020-06-12T10:37:55Z</time><name>PT4504</name></trkpt>
<trkpt lat="54.369573" lon="-3.130233"><ele>510</ele><time>2020-06-12T10:37:56Z</time><name>PT4505</name></trkpt>
<trkpt lat="54.369579" lon="-3.130248"><ele>510</ele><time>2020-06-12T10:37:57Z</time><name>PT4506</name></trkpt>
<trkpt lat="54.369591" lon="-3.130257"><ele>510</ele><time>2020-06-12T10:37:58Z</time><name>PT4507</name></trkpt>
<trkpt lat="54.369600" lon="-3.130253"><ele>510</ele><time>2020-06-12T10:37:59Z</time><name>PT4508</name></trkpt>
<trkpt lat="54.369601" lon="-3.130243"><ele>510</ele><time>2020-06-12T10:38:00Z</time><name>PT4509</name></trkpt>
<trkpt lat="54.369608" lon="-3.130233"><ele>510</ele><time>2020-06-12T10:38:01Z</time><name>PT4510</name></trkpt>
<trkpt lat="54.369620" lon="-3.130226"><ele>511</ele><time>2020-06-12T10:38:02Z</time><name>PT4511</name></trkpt>
<trkpt lat="54.369629" lon="-3.130222"><ele>510</ele><time>2020-06-12T10:38:03Z</time><name>PT4512</name></trkpt>
<trkpt lat="54.369637" lon="-3.130220"><ele>511</ele><time>2020-06-12T10:38:04Z</time><name>PT4513</name></trkpt>
<trkpt lat="54.369645" lon="-3.130219"><ele>511</ele><time>2020-06-12T10:38:05Z</time><name>PT4514</name></trkpt>
<trkpt lat="54.369649" lon="-3.130218"><ele>511</ele><time>2020-06-12T10:38:06Z</time><name>PT4515</name></trkpt>
<trkpt lat="54.369656" lon="-3.130218"><ele>511</ele><time>2020-06-12T10:38:09Z</time><name>PT4516</name></trkpt>
<trkpt lat="54.369666" lon="-3.130207"><ele>511</ele><time>2020-06-12T10:38:10Z</time><name>PT4517</name></trkpt>
<trkpt lat="54.369676" lon="-3.130199"><ele>511</ele><time>2020-06-12T10:38:11Z</time><name>PT4518</name></trkpt>
<trkpt lat="54.369685" lon="-3.130194"><ele>511</ele><time>2020-06-12T10:38:12Z</time><name>PT4519</name></trkpt>
<trkpt lat="54.369689" lon="-3.130197"><ele>511</ele><time>2020-06-12T10:38:13Z</time><name>PT4520</name></trkpt>
<trkpt lat="54.369692" lon="-3.130202"><ele>512</ele><time>2020-06-12T10:38:14Z</time><name>PT4521</name></trkpt>
<trkpt lat="54.369698" lon="-3.130208"><ele>512</ele><time>2020-06-12T10:38:15Z</time><name>PT4522</name></trkpt>
<trkpt lat="54.369702" lon="-3.130200"><ele>512</ele><time>2020-06-12T10:38:17Z</time><name>PT4523</name></trkpt>
<trkpt lat="54.369715" lon="-3.130207"><ele>512</ele><time>2020-06-12T10:38:18Z</time><name>PT4524</name></trkpt>
<trkpt lat="54.369727" lon="-3.130219"><ele>513</ele><time>2020-06-12T10:38:19Z</time><name>PT4525</name></trkpt>
<trkpt lat="54.369737" lon="-3.130227"><ele>513</ele><time>2020-06-12T10:38:20Z</time><name>PT4526</name></trkpt>
<trkpt lat="54.369744" lon="-3.130231"><ele>512</ele><time>2020-06-12T10:38:21Z</time><name>PT4527</name></trkpt>
<trkpt lat="54.369752" lon="-3.130237"><ele>512</ele><time>2020-06-12T10:38:22Z</time><name>PT4528</name></trkpt>
<trkpt lat="54.369761" lon="-3.130245"><ele>513</ele><time>2020-06-12T10:38:23Z</time><name>PT4529</name></trkpt>
<trkpt lat="54.369771" lon="-3.130250"><ele>513</ele><time>2020-06-12T10:38:24Z</time><name>PT4530</name></trkpt>
<trkpt lat="54.369781" lon="-3.130261"><ele>513</ele><time>2020-06-12T10:38:25Z</time><name>PT4531</name></trkpt>
<trkpt lat="54.369789" lon="-3.130266"><ele>513</ele><time>2020-06-12T10:38:26Z</time><name>PT4532</name></trkpt>
<trkpt lat="54.369796" lon="-3.130276"><ele>513</ele><time>2020-06-12T10:38:27Z</time><name>PT4533</name></trkpt>
<trkpt lat="54.369805" lon="-3.130288"><ele>512</ele><time>2020-06-12T10:38:28Z</time><name>PT4534</name></trkpt>
<trkpt lat="54.369811" lon="-3.130293"><ele>512</ele><time>2020-06-12T10:38:29Z</time><name>PT4535</name></trkpt>
<trkpt lat="54.369816" lon="-3.130294"><ele>513</ele><time>2020-06-12T10:38:30Z</time><name>PT4536</name></trkpt>
<trkpt lat="54.369826" lon="-3.130299"><ele>513</ele><time>2020-06-12T10:38:31Z</time><name>PT4537</name></trkpt>
<trkpt lat="54.369835" lon="-3.130302"><ele>512</ele><time>2020-06-12T10:38:32Z</time><name>PT4538</name></trkpt>
<trkpt lat="54.369844" lon="-3.130301"><ele>512</ele><time>2020-06-12T10:38:33Z</time><name>PT4539</name></trkpt>
<trkpt lat="54.369851" lon="-3.130304"><ele>513</ele><time>2020-06-12T10:38:34Z</time><name>PT4540</name></trkpt>
<trkpt lat="54.369854" lon="-3.130309"><ele>513</ele><time>2020-06-12T10:38:35Z</time><name>PT4541</name></trkpt>
<trkpt lat="54.369860" lon="-3.130312"><ele>513</ele><time>2020-06-12T10:38:36Z</time><name>PT4542</name></trkpt>
<trkpt lat="54.369865" lon="-3.130315"><ele>513</ele><time>2020-06-12T10:38:37Z</time><name>PT4543</name></trkpt>
<trkpt lat="54.369872" lon="-3.130313"><ele>513</ele><time>2020-06-12T10:38:38Z</time><name>PT4544</name></trkpt>
<trkpt lat="54.369877" lon="-3.130310"><ele>513</ele><time>2020-06-12T10:38:42Z</time><name>PT4545</name></trkpt>
<trkpt lat="54.369890" lon="-3.130314"><ele>513</ele><time>2020-06-12T10:38:43Z</time><name>PT4546</name></trkpt>
<trkpt lat="54.369902" lon="-3.130318"><ele>513</ele><time>2020-06-12T10:38:44Z</time><name>PT4547</name></trkpt>
<trkpt lat="54.369915" lon="-3.130314"><ele>513</ele><time>2020-06-12T10:38:45Z</time><name>PT4548</name></trkpt>
<trkpt lat="54.369927" lon="-3.130304"><ele>513</ele><time>2020-06-12T10:38:46Z</time><name>PT4549</name></trkpt>
<trkpt lat="54.369941" lon="-3.130304"><ele>513</ele><time>2020-06-12T10:38:47Z</time><name>PT4550</name></trkpt>
<trkpt lat="54.369951" lon="-3.130305"><ele>513</ele><time>2020-06-12T10:38:48Z</time><name>PT4551</name></trkpt>
<trkpt lat="54.369961" lon="-3.130306"><ele>513</ele><time>2020-06-12T10:38:49Z</time><name>PT4552</name></trkpt>
<trkpt lat="54.369968" lon="-3.130318"><ele>513</ele><time>2020-06-12T10:38:50Z</time><name>PT4553</name></trkpt>
<trkpt lat="54.369976" lon="-3.130323"><ele>513</ele><time>2020-06-12T10:38:51Z</time><name>PT4554</name></trkpt>
<trkpt lat="54.369992" lon="-3.130321"><ele>513</ele><time>2020-06-12T10:38:52Z</time><name>PT4555</name></trkpt>
<trkpt lat="54.370003" lon="-3.130315"><ele>513</ele><time>2020-06-12T10:38:53Z</time><name>PT4556</name></trkpt>
<trkpt lat="54.370014" lon="-3.130309"><ele>513</ele><time>2020-06-12T10:38:54Z</time><name>PT4557</name></trkpt>
<trkpt lat="54.370024" lon="-3.130308"><ele>513</ele><time>2020-06-12T10:38:55Z</time><name>PT4558</name></trkpt>
<trkpt lat="54.370033" lon="-3.130316"><ele>513</ele><time>2020-06-12T10:38:56Z</time><name>PT4559</name></trkpt>
<trkpt lat="54.370046" lon="-3.130318"><ele>513</ele><time>2020-06-12T10:38:57Z</time><name>PT4560</name></trkpt>
<trkpt lat="54.370055" lon="-3.130328"><ele>513</ele><time>2020-06-12T10:38:58Z</time><name>PT4561</name></trkpt>
<trkpt lat="54.370065" lon="-3.130334"><ele>513</ele><time>2020-06-12T10:38:59Z</time><name>PT4562</name></trkpt>
<trkpt lat="54.370073" lon="-3.130347"><ele>513</ele><time>2020-06-12T10:39:00Z</time><name>PT4563</name></trkpt>
<trkpt lat="54.370082" lon="-3.130355"><ele>513</ele><time>2020-06-12T10:39:01Z</time><name>PT4564</name></trkpt>
<trkpt lat="54.370090" lon="-3.130360"><ele>513</ele><time>2020-06-12T10:39:02Z</time><name>PT4565</name></trkpt>
<trkpt lat="54.370095" lon="-3.130366"><ele>513</ele><time>2020-06-12T10:39:03Z</time><name>PT4566</name></trkpt>
<trkpt lat="54.370100" lon="-3.130365"><ele>513</ele><time>2020-06-12T10:39:04Z</time><name>PT4567</name></trkpt>
<trkpt lat="54.370106" lon="-3.130361"><ele>513</ele><time>2020-06-12T10:39:05Z</time><name>PT4568</name></trkpt>
<trkpt lat="54.370116" lon="-3.130361"><ele>513</ele><time>2020-06-12T10:39:06Z</time><name>PT4569</name></trkpt>
<trkpt lat="54.370124" lon="-3.130366"><ele>513</ele><time>2020-06-12T10:39:07Z</time><name>PT4570</name></trkpt>
<trkpt lat="54.370128" lon="-3.130369"><ele>513</ele><time>2020-06-12T10:39:08Z</time><name>PT4571</name></trkpt>
<trkpt lat="54.370136" lon="-3.130374"><ele>512</ele><time>2020-06-12T10:39:09Z</time><name>PT4572</name></trkpt>
<trkpt lat="54.370147" lon="-3.130383"><ele>512</ele><time>2020-06-12T10:39:10Z</time><name>PT4573</name></trkpt>
<trkpt lat="54.370157" lon="-3.130386"><ele>512</ele><time>2020-06-12T10:39:11Z</time><name>PT4574</name></trkpt>
<trkpt lat="54.370167" lon="-3.130391"><ele>512</ele><time>2020-06-12T10:39:12Z</time><name>PT4575</name></trkpt>
<trkpt lat="54.370173" lon="-3.130395"><ele>512</ele><time>2020-06-12T10:39:13Z</time><name>PT4576</name></trkpt>
<trkpt lat="54.370180" lon="-3.130398"><ele>511</ele><time>2020-06-12T10:39:14Z</time><name>PT4577</name></trkpt>
<trkpt lat="54.370190" lon="-3.130399"><ele>511</ele><time>2020-06-12T10:39:15Z</time><name>PT4578</name></trkpt>
<trkpt lat="54.370196" lon="-3.130399"><ele>510</ele><time>2020-06-12T10:39:16Z</time><name>PT4579</name></trkpt>
<trkpt lat="54.370207" lon="-3.130396"><ele>511</ele><time>2020-06-12T10:39:17Z</time><name>PT4580</name></trkpt>
<trkpt lat="54.370215" lon="-3.130394"><ele>510</ele><time>2020-06-12T10:39:18Z</time><name>PT4581</name></trkpt>
<trkpt lat="54.370221" lon="-3.130392"><ele>510</ele><time>2020-06-12T10:39:19Z</time><name>PT4582</name></trkpt>
<trkpt lat="54.370230" lon="-3.130390"><ele>509</ele><time>2020-06-12T10:39:20Z</time><name>PT4583</name></trkpt>
<trkpt lat="54.370236" lon="-3.130397"><ele>510</ele><time>2020-06-12T10:39:21Z</time><name>PT4584</name></trkpt>
<trkpt lat="54.370249" lon="-3.130407"><ele>509</ele><time>2020-06-12T10:39:22Z</time><name>PT4585</name></trkpt>
<trkpt lat="54.370259" lon="-3.130413"><ele>509</ele><time>2020-06-12T10:39:23Z</time><name>PT4586</name></trkpt>
<trkpt lat="54.370269" lon="-3.130426"><ele>509</ele><time>2020-06-12T10:39:24Z</time><name>PT4587</name></trkpt>
<trkpt lat="54.370276" lon="-3.130436"><ele>509</ele><time>2020-06-12T10:39:25Z</time><name>PT4588</name></trkpt>
<trkpt lat="54.370286" lon="-3.130434"><ele>509</ele><time>2020-06-12T10:39:26Z</time><name>PT4589</name></trkpt>
<trkpt lat="54.370295" lon="-3.130433"><ele>509</ele><time>2020-06-12T10:39:27Z</time><name>PT4590</name></trkpt>
<trkpt lat="54.370302" lon="-3.130433"><ele>509</ele><time>2020-06-12T10:39:28Z</time><name>PT4591</name></trkpt>
<trkpt lat="54.370309" lon="-3.130433"><ele>509</ele><time>2020-06-12T10:39:29Z</time><name>PT4592</name></trkpt>
<trkpt lat="54.370316" lon="-3.130435"><ele>508</ele><time>2020-06-12T10:39:30Z</time><name>PT4593</name></trkpt>
<trkpt lat="54.370319" lon="-3.130434"><ele>508</ele><time>2020-06-12T10:39:31Z</time><name>PT4594</name></trkpt>
<trkpt lat="54.370322" lon="-3.130435"><ele>508</ele><time>2020-06-12T10:39:32Z</time><name>PT4595</name></trkpt>
<trkpt lat="54.370325" lon="-3.130436"><ele>507</ele><time>2020-06-12T10:39:33Z</time><name>PT4596</name></trkpt>
<trkpt lat="54.370327" lon="-3.130445"><ele>507</ele><time>2020-06-12T10:39:39Z</time><name>PT4597</name></trkpt>
<trkpt lat="54.370336" lon="-3.130450"><ele>507</ele><time>2020-06-12T10:39:40Z</time><name>PT4598</name></trkpt>
<trkpt lat="54.370348" lon="-3.130461"><ele>507</ele><time>2020-06-12T10:39:41Z</time><name>PT4599</name></trkpt>
<trkpt lat="54.370358" lon="-3.130476"><ele>507</ele><time>2020-06-12T10:39:42Z</time><name>PT4600</name></trkpt>
<trkpt lat="54.370371" lon="-3.130484"><ele>507</ele><time>2020-06-12T10:39:43Z</time><name>PT4601</name></trkpt>
<trkpt lat="54.370379" lon="-3.130496"><ele>507</ele><time>2020-06-12T10:39:44Z</time><name>PT4602</name></trkpt>
<trkpt lat="54.370392" lon="-3.130496"><ele>507</ele><time>2020-06-12T10:39:45Z</time><name>PT4603</name></trkpt>
<trkpt lat="54.370406" lon="-3.130502"><ele>507</ele><time>2020-06-12T10:39:46Z</time><name>PT4604</name></trkpt>
<trkpt lat="54.370416" lon="-3.130502"><ele>507</ele><time>2020-06-12T10:39:47Z</time><name>PT4605</name></trkpt>
<trkpt lat="54.370426" lon="-3.130507"><ele>507</ele><time>2020-06-12T10:39:48Z</time><name>PT4606</name></trkpt>
<trkpt lat="54.370442" lon="-3.130508"><ele>507</ele><time>2020-06-12T10:39:49Z</time><name>PT4607</name></trkpt>
<trkpt lat="54.370453" lon="-3.130512"><ele>507</ele><time>2020-06-12T10:39:50Z</time><name>PT4608</name></trkpt>
<trkpt lat="54.370464" lon="-3.130509"><ele>506</ele><time>2020-06-12T10:39:51Z</time><name>PT4609</name></trkpt>
<trkpt lat="54.370476" lon="-3.130510"><ele>506</ele><time>2020-06-12T10:39:52Z</time><name>PT4610</name></trkpt>
<trkpt lat="54.370484" lon="-3.130511"><ele>506</ele><time>2020-06-12T10:39:53Z</time><name>PT4611</name></trkpt>
<trkpt lat="54.370494" lon="-3.130507"><ele>506</ele><time>2020-06-12T10:39:54Z</time><name>PT4612</name></trkpt>
<trkpt lat="54.370502" lon="-3.130501"><ele>506</ele><time>2020-06-12T10:39:55Z</time><name>PT4613</name></trkpt>
<trkpt lat="54.370511" lon="-3.130491"><ele>506</ele><time>2020-06-12T10:39:56Z</time><name>PT4614</name></trkpt>
<trkpt lat="54.370520" lon="-3.130478"><ele>505</ele><time>2020-06-12T10:39:57Z</time><name>PT4615</name></trkpt>
<trkpt lat="54.370528" lon="-3.130469"><ele>506</ele><time>2020-06-12T10:39:58Z</time><name>PT4616</name></trkpt>
<trkpt lat="54.370539" lon="-3.130458"><ele>505</ele><time>2020-06-12T10:39:59Z</time><name>PT4617</name></trkpt>
<trkpt lat="54.370545" lon="-3.130452"><ele>506</ele><time>2020-06-12T10:40:00Z</time><name>PT4618</name></trkpt>
<trkpt lat="54.370552" lon="-3.130447"><ele>505</ele><time>2020-06-12T10:40:01Z</time><name>PT4619</name></trkpt>
<trkpt lat="54.370559" lon="-3.130437"><ele>505</ele><time>2020-06-12T10:40:02Z</time><name>PT4620</name></trkpt>
<trkpt lat="54.370562" lon="-3.130425"><ele>505</ele><time>2020-06-12T10:40:03Z</time><name>PT4621</name></trkpt>
<trkpt lat="54.370568" lon="-3.130418"><ele>505</ele><time>2020-06-12T10:40:04Z</time><name>PT4622</name></trkpt>
<trkpt lat="54.370573" lon="-3.130410"><ele>505</ele><time>2020-06-12T10:40:05Z</time><name>PT4623</name></trkpt>
<trkpt lat="54.370577" lon="-3.130407"><ele>505</ele><time>2020-06-12T10:40:06Z</time><name>PT4624</name></trkpt>
<trkpt lat="54.370581" lon="-3.130404"><ele>505</ele><time>2020-06-12T10:40:07Z</time><name>PT4625</name></trkpt>
<trkpt lat="54.370583" lon="-3.130405"><ele>506</ele><time>2020-06-12T10:40:08Z</time><name>PT4626</name></trkpt>
<trkpt lat="54.370587" lon="-3.130404"><ele>506</ele><time>2020-06-12T10:40:09Z</time><name>PT4627</name></trkpt>
<trkpt lat="54.370596" lon="-3.130401"><ele>506</ele><time>2020-06-12T10:40:10Z</time><name>PT4628</name></trkpt>
<trkpt lat="54.370605" lon="-3.130397"><ele>506</ele><time>2020-06-12T10:40:11Z</time><name>PT4629</name></trkpt>
<trkpt lat="54.370614" lon="-3.130398"><ele>506</ele><time>2020-06-12T10:40:12Z</time><name>PT4630</name></trkpt>
<trkpt lat="54.370621" lon="-3.130401"><ele>507</ele><time>2020-06-12T10:40:13Z</time><name>PT4631</name></trkpt>
<trkpt lat="54.370628" lon="-3.130405"><ele>507</ele><time>2020-06-12T10:40:14Z</time><name>PT4632</name></trkpt>
<trkpt lat="54.370635" lon="-3.130415"><ele>507</ele><time>2020-06-12T10:40:15Z</time><name>PT4633</name></trkpt>
<trkpt lat="54.370641" lon="-3.130424"><ele>507</ele><time>2020-06-12T10:40:16Z</time><name>PT4634</name></trkpt>
<trkpt lat="54.370646" lon="-3.130429"><ele>508</ele><time>2020-06-12T10:40:17Z</time><name>PT4635</name></trkpt>
<trkpt lat="54.370655" lon="-3.130435"><ele>507</ele><time>2020-06-12T10:40:18Z</time><name>PT4636</name></trkpt>
<trkpt lat="54.370663" lon="-3.130443"><ele>508</ele><time>2020-06-12T10:40:19Z</time><name>PT4637</name></trkpt>
<trkpt lat="54.370673" lon="-3.130450"><ele>508</ele><time>2020-06-12T10:40:20Z</time><name>PT4638</name></trkpt>
<trkpt lat="54.370682" lon="-3.130459"><ele>507</ele><time>2020-06-12T10:40:21Z</time><name>PT4639</name></trkpt>
<trkpt lat="54.370691" lon="-3.130463"><ele>508</ele><time>2020-06-12T10:40:22Z</time><name>PT4640</name></trkpt>
<trkpt lat="54.370699" lon="-3.130469"><ele>508</ele><time>2020-06-12T10:40:23Z</time><name>PT4641</name></trkpt>
<trkpt lat="54.370705" lon="-3.130478"><ele>508</ele><time>2020-06-12T10:40:24Z</time><name>PT4642</name></trkpt>
<trkpt lat="54.370712" lon="-3.130487"><ele>508</ele><time>2020-06-12T10:40:25Z</time><name>PT4643</name></trkpt>
<trkpt lat="54.370718" lon="-3.130488"><ele>508</ele><time>2020-06-12T10:40:26Z</time><name>PT4644</name></trkpt>
<trkpt lat="54.370727" lon="-3.130486"><ele>508</ele><time>2020-06-12T10:40:27Z</time><name>PT4645</name></trkpt>
<trkpt lat="54.370734" lon="-3.130486"><ele>508</ele><time>2020-06-12T10:40:28Z</time><name>PT4646</name></trkpt>
<trkpt lat="54.370740" lon="-3.130483"><ele>508</ele><time>2020-06-12T10:40:29Z</time><name>PT4647</name></trkpt>
<trkpt lat="54.370748" lon="-3.130484"><ele>507</ele><time>2020-06-12T10:40:30Z</time><name>PT4648</name></trkpt>
<trkpt lat="54.370755" lon="-3.130488"><ele>507</ele><time>2020-06-12T10:40:31Z</time><name>PT4649</name></trkpt>
<trkpt lat="54.370763" lon="-3.130492"><ele>507</ele><time>2020-06-12T10:40:32Z</time><name>PT4650</name></trkpt>
<trkpt lat="54.370773" lon="-3.130495"><ele>507</ele><time>2020-06-12T10:40:33Z</time><name>PT4651</name></trkpt>
<trkpt lat="54.370779" lon="-3.130495"><ele>507</ele><time>2020-06-12T10:40:34Z</time><name>PT4652</name></trkpt>
<trkpt lat="54.370787" lon="-3.130496"><ele>507</ele><time>2020-06-12T10:40:35Z</time><name>PT4653</name></trkpt>
<trkpt lat="54.370793" lon="-3.130492"><ele>507</ele><time>2020-06-12T10:40:36Z</time><name>PT4654</name></trkpt>
<trkpt lat="54.370803" lon="-3.130492"><ele>506</ele><time>2020-06-12T10:40:37Z</time><name>PT4655</name></trkpt>
<trkpt lat="54.370812" lon="-3.130488"><ele>506</ele><time>2020-06-12T10:40:38Z</time><name>PT4656</name></trkpt>
<trkpt lat="54.370820" lon="-3.130487"><ele>506</ele><time>2020-06-12T10:40:39Z</time><name>PT4657</name></trkpt>
<trkpt lat="54.370828" lon="-3.130478"><ele>506</ele><time>2020-06-12T10:40:40Z</time><name>PT4658</name></trkpt>
<trkpt lat="54.370834" lon="-3.130472"><ele>506</ele><time>2020-06-12T10:40:41Z</time><name>PT4659</name></trkpt>
<trkpt lat="54.370837" lon="-3.130475"><ele>506</ele><time>2020-06-12T10:40:42Z</time><name>PT4660</name></trkpt>
<trkpt lat="54.370844" lon="-3.130469"><ele>506</ele><time>2020-06-12T10:40:44Z</time><name>PT4661</name></trkpt>
<trkpt lat="54.370849" lon="-3.130462"><ele>506</ele><time>2020-06-12T10:40:44Z</time><name>PT4662</name></trkpt>
<trkpt lat="54.370856" lon="-3.130456"><ele>506</ele><time>2020-06-12T10:40:45Z</time><name>PT4663</name></trkpt>
<trkpt lat="54.370863" lon="-3.130454"><ele>505</ele><time>2020-06-12T10:40:46Z</time><name>PT4664</name></trkpt>
<trkpt lat="54.370872" lon="-3.130448"><ele>506</ele><time>2020-06-12T10:40:47Z</time><name>PT4665</name></trkpt>
<trkpt lat="54.370878" lon="-3.130444"><ele>506</ele><time>2020-06-12T10:40:48Z</time><name>PT4666</name></trkpt>
<trkpt lat="54.370883" lon="-3.130437"><ele>507</ele><time>2020-06-12T10:40:49Z</time><name>PT4667</name></trkpt>
<trkpt lat="54.370887" lon="-3.130433"><ele>507</ele><time>2020-06-12T10:40:50Z</time><name>PT4668</name></trkpt>
<trkpt lat="54.370893" lon="-3.130429"><ele>508</ele><time>2020-06-12T10:40:51Z</time><name>PT4669</name></trkpt>
<trkpt lat="54.370901" lon="-3.130424"><ele>508</ele><time>2020-06-12T10:40:52Z</time><name>PT4670</name></trkpt>
<trkpt lat="54.370907" lon="-3.130413"><ele>508</ele><time>2020-06-12T10:40:53Z</time><name>PT4671</name></trkpt>
<trkpt lat="54.370911" lon="-3.130403"><ele>509</ele><time>2020-06-12T10:40:54Z</time><name>PT4672</name></trkpt>
<trkpt lat="54.370917" lon="-3.130396"><ele>509</ele><time>2020-06-12T10:40:55Z</time><name>PT4673</name></trkpt>
<trkpt lat="54.370924" lon="-3.130385"><ele>509</ele><time>2020-06-12T10:40:56Z</time><name>PT4674</name></trkpt>
<trkpt lat="54.370932" lon="-3.130379"><ele>510</ele><time>2020-06-12T10:40:57Z</time><name>PT4675</name></trkpt>
<trkpt lat="54.370939" lon="-3.130373"><ele>510</ele><time>2020-06-12T10:40:58Z</time><name>PT4676</name></trkpt>
<trkpt lat="54.370944" lon="-3.130372"><ele>510</ele><time>2020-06-12T10:40:59Z</time><name>PT4677</name></trkpt>
<trkpt lat="54.370951" lon="-3.130367"><ele>510</ele><time>2020-06-12T10:41:00Z</time><name>PT4678</name></trkpt>
<trkpt lat="54.370948" lon="-3.130360"><ele>513</ele><time>2020-06-12T10:41:01Z</time><name>PT4679</name></trkpt>
<trkpt lat="54.370950" lon="-3.130351"><ele>514</ele><time>2020-06-12T10:41:02Z</time><name>PT4680</name></trkpt>
<trkpt lat="54.370953" lon="-3.130345"><ele>515</ele><time>2020-06-12T10:41:03Z</time><name>PT4681</name></trkpt>
<trkpt lat="54.370953" lon="-3.130326"><ele>516</ele><time>2020-06-12T10:41:14Z</time><name>PT4682</name></trkpt>
<trkpt lat="54.370957" lon="-3.130294"><ele>516</ele><time>2020-06-12T10:41:15Z</time><name>PT4683</name></trkpt>
<trkpt lat="54.370964" lon="-3.130274"><ele>516</ele><time>2020-06-12T10:41:16Z</time><name>PT4684</name></trkpt>
<trkpt lat="54.370974" lon="-3.130252"><ele>516</ele><time>2020-06-12T10:41:17Z</time><name>PT4685</name></trkpt>
<trkpt lat="54.370978" lon="-3.130241"><ele>516</ele><time>2020-06-12T10:41:18Z</time><name>PT4686</name></trkpt>
<trkpt lat="54.370985" lon="-3.130236"><ele>517</ele><time>2020-06-12T10:41:19Z</time><name>PT4687</name></trkpt>
<trkpt lat="54.370989" lon="-3.130233"><ele>517</ele><time>2020-06-12T10:41:20Z</time><name>PT4688</name></trkpt>
<trkpt lat="54.370996" lon="-3.130217"><ele>517</ele><time>2020-06-12T10:41:21Z</time><name>PT4689</name></trkpt>
<trkpt lat="54.371013" lon="-3.130199"><ele>518</ele><time>2020-06-12T10:41:22Z</time><name>PT4690</name></trkpt>
<trkpt lat="54.371017" lon="-3.130193"><ele>519</ele><time>2020-06-12T10:41:23Z</time><name>PT4691</name></trkpt>
<trkpt lat="54.371022" lon="-3.130178"><ele>519</ele><time>2020-06-12T10:41:24Z</time><name>PT4692</name></trkpt>
<trkpt lat="54.371032" lon="-3.130173"><ele>519</ele><time>2020-06-12T10:41:25Z</time><name>PT4693</name></trkpt>
<trkpt lat="54.371036" lon="-3.130166"><ele>520</ele><time>2020-06-12T10:41:26Z</time><name>PT4694</name></trkpt>
<trkpt lat="54.371040" lon="-3.130153"><ele>521</ele><time>2020-06-12T10:41:27Z</time><name>PT4695</name></trkpt>
<trkpt lat="54.371047" lon="-3.130143"><ele>521</ele><time>2020-06-12T10:41:28Z</time><name>PT4696</name></trkpt>
<trkpt lat="54.371051" lon="-3.130139"><ele>523</ele><time>2020-06-12T10:41:29Z</time><name>PT4697</name></trkpt>
<trkpt lat="54.371051" lon="-3.130129"><ele>523</ele><time>2020-06-12T10:41:30Z</time><name>PT4698</name></trkpt>
<trkpt lat="54.371054" lon="-3.130114"><ele>523</ele><time>2020-06-12T10:41:31Z</time><name>PT4699</name></trkpt>
<trkpt lat="54.371057" lon="-3.130107"><ele>524</ele><time>2020-06-12T10:41:32Z</time><name>PT4700</name></trkpt>
<trkpt lat="54.371060" lon="-3.130099"><ele>524</ele><time>2020-06-12T10:41:33Z</time><name>PT4701</name></trkpt>
<trkpt lat="54.371064" lon="-3.130092"><ele>524</ele><time>2020-06-12T10:41:34Z</time><name>PT4702</name></trkpt>
<trkpt lat="54.371067" lon="-3.130080"><ele>524</ele><time>2020-06-12T10:41:35Z</time><name>PT4703</name></trkpt>
<trkpt lat="54.371073" lon="-3.130076"><ele>524</ele><time>2020-06-12T10:41:36Z</time><name>PT4704</name></trkpt>
<trkpt lat="54.371082" lon="-3.130084"><ele>524</ele><time>2020-06-12T10:41:37Z</time><name>PT4705</name></trkpt>
<trkpt lat="54.371092" lon="-3.130081"><ele>525</ele><time>2020-06-12T10:41:38Z</time><name>PT4706</name></trkpt>
<trkpt lat="54.371097" lon="-3.130081"><ele>525</ele><time>2020-06-12T10:41:39Z</time><name>PT4707</name></trkpt>
<trkpt lat="54.371105" lon="-3.130097"><ele>526</ele><time>2020-06-12T10:41:40Z</time><name>PT4708</name></trkpt>
<trkpt lat="54.371108" lon="-3.130107"><ele>525</ele><time>2020-06-12T10:41:41Z</time><name>PT4709</name></trkpt>
<trkpt lat="54.371117" lon="-3.130122"><ele>525</ele><time>2020-06-12T10:41:42Z</time><name>PT4710</name></trkpt>
<trkpt lat="54.371123" lon="-3.130123"><ele>527</ele><time>2020-06-12T10:41:43Z</time><name>PT4711</name></trkpt>
<trkpt lat="54.371128" lon="-3.130131"><ele>527</ele><time>2020-06-12T10:41:44Z</time><name>PT4712</name></trkpt>
<trkpt lat="54.371132" lon="-3.130136"><ele>528</ele><time>2020-06-12T10:41:45Z</time><name>PT4713</name></trkpt>
<trkpt lat="54.371139" lon="-3.130137"><ele>528</ele><time>2020-06-12T10:41:46Z</time><name>PT4714</name></trkpt>
<trkpt lat="54.371145" lon="-3.130135"><ele>529</ele><time>2020-06-12T10:41:47Z</time><name>PT4715</name></trkpt>
<trkpt lat="54.371151" lon="-3.130132"><ele>529</ele><time>2020-06-12T10:41:48Z</time><name>PT4716</name></trkpt>
<trkpt lat="54.371157" lon="-3.130126"><ele>529</ele><time>2020-06-12T10:41:49Z</time><name>PT4717</name></trkpt>
<trkpt lat="54.371164" lon="-3.130119"><ele>529</ele><time>2020-06-12T10:41:50Z</time><name>PT4718</name></trkpt>
<trkpt lat="54.371174" lon="-3.130112"><ele>529</ele><time>2020-06-12T10:41:51Z</time><name>PT4719</name></trkpt>
<trkpt lat="54.371181" lon="-3.130107"><ele>530</ele><time>2020-06-12T10:41:52Z</time><name>PT4720</name></trkpt>
<trkpt lat="54.371188" lon="-3.130105"><ele>529</ele><time>2020-06-12T10:41:53Z</time><name>PT4721</name></trkpt>
<trkpt lat="54.371192" lon="-3.130100"><ele>530</ele><time>2020-06-12T10:41:54Z</time><name>PT4722</name></trkpt>
<trkpt lat="54.371198" lon="-3.130096"><ele>529</ele><time>2020-06-12T10:41:55Z</time><name>PT4723</name></trkpt>
<trkpt lat="54.371207" lon="-3.130094"><ele>530</ele><time>2020-06-12T10:41:56Z</time><name>PT4724</name></trkpt>
<trkpt lat="54.371220" lon="-3.130097"><ele>528</ele><time>2020-06-12T10:41:57Z</time><name>PT4725</name></trkpt>
<trkpt lat="54.371232" lon="-3.130096"><ele>528</ele><time>2020-06-12T10:41:58Z</time><name>PT4726</name></trkpt>
<trkpt lat="54.371244" lon="-3.130099"><ele>528</ele><time>2020-06-12T10:41:59Z</time><name>PT4727</name></trkpt>
<trkpt lat="54.371252" lon="-3.130101"><ele>528</ele><time>2020-06-12T10:42:00Z</time><name>PT4728</name></trkpt>
<trkpt lat="54.371260" lon="-3.130106"><ele>528</ele><time>2020-06-12T10:42:01Z</time><name>PT4729</name></trkpt>
<trkpt lat="54.371271" lon="-3.130113"><ele>527</ele><time>2020-06-12T10:42:02Z</time><name>PT4730</name></trkpt>
<trkpt lat="54.371281" lon="-3.130116"><ele>527</ele><time>2020-06-12T10:42:03Z</time><name>PT4731</name></trkpt>
<trkpt lat="54.371292" lon="-3.130117"><ele>528</ele><time>2020-06-12T10:42:04Z</time><name>PT4732</name></trkpt>
<trkpt lat="54.371305" lon="-3.130124"><ele>529</ele><time>2020-06-12T10:42:05Z</time><name>PT4733</name></trkpt>
<trkpt lat="54.371319" lon="-3.130128"><ele>528</ele><time>2020-06-12T10:42:06Z</time><name>PT4734</name></trkpt>
<trkpt lat="54.371331" lon="-3.130121"><ele>530</ele><time>2020-06-12T10:42:07Z</time><name>PT4735</name></trkpt>
<trkpt lat="54.371344" lon="-3.130130"><ele>530</ele><time>2020-06-12T10:42:08Z</time><name>PT4736</name></trkpt>
<trkpt lat="54.371354" lon="-3.130138"><ele>530</ele><time>2020-06-12T10:42:09Z</time><name>PT4737</name></trkpt>
<trkpt lat="54.371369" lon="-3.130136"><ele>531</ele><time>2020-06-12T10:42:10Z</time><name>PT4738</name></trkpt>
<trkpt lat="54.371376" lon="-3.130135"><ele>532</ele><time>2020-06-12T10:42:11Z</time><name>PT4739</name></trkpt>
<trkpt lat="54.371386" lon="-3.130140"><ele>531</ele><time>2020-06-12T10:42:12Z</time><name>PT4740</name></trkpt>
<trkpt lat="54.371390" lon="-3.130144"><ele>530</ele><time>2020-06-12T10:42:13Z</time><name>PT4741</name></trkpt>
<trkpt lat="54.371396" lon="-3.130138"><ele>531</ele><time>2020-06-12T10:42:14Z</time><name>PT4742</name></trkpt>
<trkpt lat="54.371403" lon="-3.130132"><ele>530</ele><time>2020-06-12T10:42:15Z</time><name>PT4743</name></trkpt>
<trkpt lat="54.371409" lon="-3.130134"><ele>529</ele><time>2020-06-12T10:42:16Z</time><name>PT4744</name></trkpt>
<trkpt lat="54.371422" lon="-3.130124"><ele>531</ele><time>2020-06-12T10:42:17Z</time><name>PT4745</name></trkpt>
<trkpt lat="54.371430" lon="-3.130121"><ele>531</ele><time>2020-06-12T10:42:18Z</time><name>PT4746</name></trkpt>
<trkpt lat="54.371439" lon="-3.130126"><ele>530</ele><time>2020-06-12T10:42:19Z</time><name>PT4747</name></trkpt>
<trkpt lat="54.371447" lon="-3.130132"><ele>530</ele><time>2020-06-12T10:42:20Z</time><name>PT4748</name></trkpt>
<trkpt lat="54.371456" lon="-3.130133"><ele>530</ele><time>2020-06-12T10:42:21Z</time><name>PT4749</name></trkpt>
<trkpt lat="54.371465" lon="-3.130138"><ele>529</ele><time>2020-06-12T10:42:22Z</time><name>PT4750</name></trkpt>
<trkpt lat="54.371472" lon="-3.130140"><ele>530</ele><time>2020-06-12T10:42:23Z</time><name>PT4751</name></trkpt>
<trkpt lat="54.371481" lon="-3.130140"><ele>529</ele><time>2020-06-12T10:42:24Z</time><name>PT4752</name></trkpt>
<trkpt lat="54.371491" lon="-3.130142"><ele>530</ele><time>2020-06-12T10:42:25Z</time><name>PT4753</name></trkpt>
<trkpt lat="54.371500" lon="-3.130156"><ele>530</ele><time>2020-06-12T10:42:26Z</time><name>PT4754</name></trkpt>
<trkpt lat="54.371510" lon="-3.130164"><ele>530</ele><time>2020-06-12T10:42:27Z</time><name>PT4755</name></trkpt>
<trkpt lat="54.371517" lon="-3.130173"><ele>530</ele><time>2020-06-12T10:42:28Z</time><name>PT4756</name></trkpt>
<trkpt lat="54.371524" lon="-3.130176"><ele>530</ele><time>2020-06-12T10:42:29Z</time><name>PT4757</name></trkpt>
<trkpt lat="54.371530" lon="-3.130176"><ele>531</ele><time>2020-06-12T10:42:30Z</time><name>PT4758</name></trkpt>
<trkpt lat="54.371535" lon="-3.130181"><ele>530</ele><time>2020-06-12T10:42:31Z</time><name>PT4759</name></trkpt>
<trkpt lat="54.371541" lon="-3.130185"><ele>531</ele><time>2020-06-12T10:42:32Z</time><name>PT4760</name></trkpt>
<trkpt lat="54.371549" lon="-3.130188"><ele>532</ele><time>2020-06-12T10:42:33Z</time><name>PT4761</name></trkpt>
<trkpt lat="54.371558" lon="-3.130191"><ele>531</ele><time>2020-06-12T10:42:34Z</time><name>PT4762</name></trkpt>
<trkpt lat="54.371567" lon="-3.130193"><ele>531</ele><time>2020-06-12T10:42:36Z</time><name>PT4763</name></trkpt>
<trkpt lat="54.371574" lon="-3.130200"><ele>531</ele><time>2020-06-12T10:42:36Z</time><name>PT4764</name></trkpt>
<trkpt lat="54.371584" lon="-3.130200"><ele>531</ele><time>2020-06-12T10:42:37Z</time><name>PT4765</name></trkpt>
<trkpt lat="54.371593" lon="-3.130202"><ele>532</ele><time>2020-06-12T10:42:38Z</time><name>PT4766</name></trkpt>
<trkpt lat="54.371597" lon="-3.130208"><ele>532</ele><time>2020-06-12T10:42:39Z</time><name>PT4767</name></trkpt>
<trkpt lat="54.371604" lon="-3.130204"><ele>533</ele><time>2020-06-12T10:42:40Z</time><name>PT4768</name></trkpt>
<trkpt lat="54.371611" lon="-3.130210"><ele>533</ele><time>2020-06-12T10:42:41Z</time><name>PT4769</name></trkpt>
<trkpt lat="54.371616" lon="-3.130219"><ele>532</ele><time>2020-06-12T10:42:42Z</time><name>PT4770</name></trkpt>
<trkpt lat="54.371622" lon="-3.130229"><ele>531</ele><time>2020-06-12T10:42:43Z</time><name>PT4771</name></trkpt>
<trkpt lat="54.371630" lon="-3.130232"><ele>531</ele><time>2020-06-12T10:42:44Z</time><name>PT4772</name></trkpt>
<trkpt lat="54.371634" lon="-3.130232"><ele>530</ele><time>2020-06-12T10:42:45Z</time><name>PT4773</name></trkpt>
<trkpt lat="54.371643" lon="-3.130225"><ele>532</ele><time>2020-06-12T10:42:46Z</time><name>PT4774</name></trkpt>
<trkpt lat="54.371649" lon="-3.130231"><ele>532</ele><time>2020-06-12T10:42:47Z</time><name>PT4775</name></trkpt>
<trkpt lat="54.371654" lon="-3.130236"><ele>532</ele><time>2020-06-12T10:42:48Z</time><name>PT4776</name></trkpt>
<trkpt lat="54.371659" lon="-3.130236"><ele>531</ele><time>2020-06-12T10:42:49Z</time><name>PT4777</name></trkpt>
<trkpt lat="54.371665" lon="-3.130240"><ele>530</ele><time>2020-06-12T10:42:50Z</time><name>PT4778</name></trkpt>
<trkpt lat="54.371675" lon="-3.130240"><ele>529</ele><time>2020-06-12T10:42:51Z</time><name>PT4779</name></trkpt>
<trkpt lat="54.371680" lon="-3.130240"><ele>529</ele><time>2020-06-12T10:42:52Z</time><name>PT4780</name></trkpt>
<trkpt lat="54.371679" lon="-3.130239"><ele>528</ele><time>2020-06-12T10:42:53Z</time><name>PT4781</name></trkpt>
<trkpt lat="54.371684" lon="-3.130241"><ele>527</ele><time>2020-06-12T10:42:54Z</time><name>PT4782</name></trkpt>
<trkpt lat="54.371690" lon="-3.130239"><ele>529</ele><time>2020-06-12T10:42:55Z</time><name>PT4783</name></trkpt>
<trkpt lat="54.371698" lon="-3.130234"><ele>529</ele><time>2020-06-12T10:42:56Z</time><name>PT4784</name></trkpt>
<trkpt lat="54.371704" lon="-3.130244"><ele>528</ele><time>2020-06-12T10:42:57Z</time><name>PT4785</name></trkpt>
<trkpt lat="54.371709" lon="-3.130235"><ele>531</ele><time>2020-06-12T10:42:58Z</time><name>PT4786</name></trkpt>
<trkpt lat="54.371716" lon="-3.130234"><ele>531</ele><time>2020-06-12T10:42:59Z</time><name>PT4787</name></trkpt>
<trkpt lat="54.371727" lon="-3.130230"><ele>531</ele><time>2020-06-12T10:43:00Z</time><name>PT4788</name></trkpt>
<trkpt lat="54.371733" lon="-3.130226"><ele>530</ele><time>2020-06-12T10:43:01Z</time><name>PT4789</name></trkpt>
<trkpt lat="54.371736" lon="-3.130218"><ele>530</ele><time>2020-06-12T10:43:02Z</time><name>PT4790</name></trkpt>
<trkpt lat="54.371740" lon="-3.130216"><ele>531</ele><time>2020-06-12T10:43:03Z</time><name>PT4791</name></trkpt>
<trkpt lat="54.371749" lon="-3.130209"><ele>531</ele><time>2020-06-12T10:43:04Z</time><name>PT4792</name></trkpt>
<trkpt lat="54.371753" lon="-3.130209"><ele>532</ele><time>2020-06-12T10:43:05Z</time><name>PT4793</name></trkpt>
<trkpt lat="54.371759" lon="-3.130210"><ele>532</ele><time>2020-06-12T10:43:06Z</time><name>PT4794</name></trkpt>
<trkpt lat="54.371762" lon="-3.130202"><ele>533</ele><time>2020-06-12T10:43:07Z</time><name>PT4795</name></trkpt>
<trkpt lat="54.371768" lon="-3.130202"><ele>534</ele><time>2020-06-12T10:43:08Z</time><name>PT4796</name></trkpt>
<trkpt lat="54.371775" lon="-3.130207"><ele>534</ele><time>2020-06-12T10:43:09Z</time><name>PT4797</name></trkpt>
<trkpt lat="54.371781" lon="-3.130211"><ele>534</ele><time>2020-06-12T10:43:10Z</time><name>PT4798</name></trkpt>
<trkpt lat="54.371790" lon="-3.130213"><ele>536</ele><time>2020-06-12T10:43:11Z</time><name>PT4799</name></trkpt>
<trkpt lat="54.371791" lon="-3.130227"><ele>535</ele><time>2020-06-12T10:43:12Z</time><name>PT4800</name></trkpt>
<trkpt lat="54.371802" lon="-3.130236"><ele>535</ele><time>2020-06-12T10:43:13Z</time><name>PT4801</name></trkpt>
<trkpt lat="54.371812" lon="-3.130248"><ele>536</ele><time>2020-06-12T10:43:14Z</time><name>PT4802</name></trkpt>
<trkpt lat="54.371819" lon="-3.130256"><ele>536</ele><time>2020-06-12T10:43:15Z</time><name>PT4803</name></trkpt>
<trkpt lat="54.371826" lon="-3.130258"><ele>537</ele><time>2020-06-12T10:43:16Z</time><name>PT4804</name></trkpt>
<trkpt lat="54.371833" lon="-3.130262"><ele>537</ele><time>2020-06-12T10:43:17Z</time><name>PT4805</name></trkpt>
<trkpt lat="54.371832" lon="-3.130267"><ele>537</ele><time>2020-06-12T10:43:18Z</time><name>PT4806</name></trkpt>
<trkpt lat="54.371836" lon="-3.130273"><ele>538</ele><time>2020-06-12T10:43:19Z</time><name>PT4807</name></trkpt>
<trkpt lat="54.371841" lon="-3.130280"><ele>537</ele><time>2020-06-12T10:43:20Z</time><name>PT4808</name></trkpt>
<trkpt lat="54.371845" lon="-3.130285"><ele>536</ele><time>2020-06-12T10:43:21Z</time><name>PT4809</name></trkpt>
<trkpt lat="54.371852" lon="-3.130285"><ele>536</ele><time>2020-06-12T10:43:22Z</time><name>PT4810</name></trkpt>
<trkpt lat="54.371861" lon="-3.130286"><ele>536</ele><time>2020-06-12T10:43:23Z</time><name>PT4811</name></trkpt>
<trkpt lat="54.371867" lon="-3.130286"><ele>536</ele><time>2020-06-12T10:43:24Z</time><name>PT4812</name></trkpt>
<trkpt lat="54.371872" lon="-3.130285"><ele>536</ele><time>2020-06-12T10:43:25Z</time><name>PT4813</name></trkpt>
<trkpt lat="54.371877" lon="-3.130286"><ele>532</ele><time>2020-06-12T10:43:26Z</time><name>PT4814</name></trkpt>
<trkpt lat="54.371882" lon="-3.130279"><ele>533</ele><time>2020-06-12T10:43:27Z</time><name>PT4815</name></trkpt>
<trkpt lat="54.371886" lon="-3.130279"><ele>533</ele><time>2020-06-12T10:43:28Z</time><name>PT4816</name></trkpt>
<trkpt lat="54.371890" lon="-3.130273"><ele>532</ele><time>2020-06-12T10:43:29Z</time><name>PT4817</name></trkpt>
<trkpt lat="54.371898" lon="-3.130266"><ele>533</ele><time>2020-06-12T10:43:30Z</time><name>PT4818</name></trkpt>
<trkpt lat="54.371909" lon="-3.130256"><ele>533</ele><time>2020-06-12T10:43:31Z</time><name>PT4819</name></trkpt>
<trkpt lat="54.371920" lon="-3.130255"><ele>532</ele><time>2020-06-12T10:43:32Z</time><name>PT4820</name></trkpt>
<trkpt lat="54.371928" lon="-3.130252"><ele>532</ele><time>2020-06-12T10:43:33Z</time><name>PT4821</name></trkpt>
<trkpt lat="54.371932" lon="-3.130250"><ele>533</ele><time>2020-06-12T10:43:34Z</time><name>PT4822</name></trkpt>
<trkpt lat="54.371940" lon="-3.130243"><ele>534</ele><time>2020-06-12T10:43:35Z</time><name>PT4823</name></trkpt>
<trkpt lat="54.371945" lon="-3.130245"><ele>534</ele><time>2020-06-12T10:43:36Z</time><name>PT4824</name></trkpt>
<trkpt lat="54.371953" lon="-3.130244"><ele>535</ele><time>2020-06-12T10:43:37Z</time><name>PT4825</name></trkpt>
<trkpt lat="54.371962" lon="-3.130239"><ele>535</ele><time>2020-06-12T10:43:38Z</time><name>PT4826</name></trkpt>
<trkpt lat="54.371973" lon="-3.130241"><ele>536</ele><time>2020-06-12T10:43:39Z</time><name>PT4827</name></trkpt>
<trkpt lat="54.371979" lon="-3.130240"><ele>535</ele><time>2020-06-12T10:43:40Z</time><name>PT4828</name></trkpt>
<trkpt lat="54.371983" lon="-3.130235"><ele>535</ele><time>2020-06-12T10:43:41Z</time><name>PT4829</name></trkpt>
<trkpt lat="54.371985" lon="-3.130234"><ele>535</ele><time>2020-06-12T10:43:42Z</time><name>PT4830</name></trkpt>
<trkpt lat="54.371993" lon="-3.130231"><ele>534</ele><time>2020-06-12T10:43:43Z</time><name>PT4831</name></trkpt>
<trkpt lat="54.371994" lon="-3.130222"><ele>534</ele><time>2020-06-12T10:43:44Z</time><name>PT4832</name></trkpt>
<trkpt lat="54.371998" lon="-3.130229"><ele>533</ele><time>2020-06-12T10:43:45Z</time><name>PT4833</name></trkpt>
<trkpt lat="54.371996" lon="-3.130241"><ele>531</ele><time>2020-06-12T10:43:46Z</time><name>PT4834</name></trkpt>
<trkpt lat="54.372003" lon="-3.130241"><ele>532</ele><time>2020-06-12T10:43:47Z</time><name>PT4835</name></trkpt>
<trkpt lat="54.372012" lon="-3.130242"><ele>533</ele><time>2020-06-12T10:43:48Z</time><name>PT4836</name></trkpt>
<trkpt lat="54.372020" lon="-3.130236"><ele>534</ele><time>2020-06-12T10:43:49Z</time><name>PT4837</name></trkpt>
<trkpt lat="54.372022" lon="-3.130236"><ele>534</ele><time>2020-06-12T10:43:55Z</time><name>PT4838</name></trkpt>
<trkpt lat="54.372036" lon="-3.130227"><ele>535</ele><time>2020-06-12T10:43:56Z</time><name>PT4839</name></trkpt>
<trkpt lat="54.372052" lon="-3.130197"><ele>536</ele><time>2020-06-12T10:43:57Z</time><name>PT4840</name></trkpt>
<trkpt lat="54.372058" lon="-3.130180"><ele>536</ele><time>2020-06-12T10:43:58Z</time><name>PT4841</name></trkpt>
<trkpt lat="54.372063" lon="-3.130170"><ele>536</ele><time>2020-06-12T10:43:59Z</time><name>PT4842</name></trkpt>
<trkpt lat="54.372067" lon="-3.130166"><ele>537</ele><time>2020-06-12T10:44:00Z</time><name>PT4843</name></trkpt>
<trkpt lat="54.372071" lon="-3.130175"><ele>536</ele><time>2020-06-12T10:44:01Z</time><name>PT4844</name></trkpt>
<trkpt lat="54.372075" lon="-3.130175"><ele>535</ele><time>2020-06-12T10:44:02Z</time><name>PT4845</name></trkpt>
<trkpt lat="54.372083" lon="-3.130171"><ele>535</ele><time>2020-06-12T10:44:03Z</time><name>PT4846</name></trkpt>
<trkpt lat="54.372085" lon="-3.130167"><ele>535</ele><time>2020-06-12T10:44:04Z</time><name>PT4847</name></trkpt>
<trkpt lat="54.372088" lon="-3.130160"><ele>534</ele><time>2020-06-12T10:44:05Z</time><name>PT4848</name></trkpt>
<trkpt lat="54.372092" lon="-3.130148"><ele>534</ele><time>2020-06-12T10:44:06Z</time><name>PT4849</name></trkpt>
<trkpt lat="54.372101" lon="-3.130133"><ele>534</ele><time>2020-06-12T10:44:07Z</time><name>PT4850</name></trkpt>
<trkpt lat="54.372107" lon="-3.130125"><ele>534</ele><time>2020-06-12T10:44:08Z</time><name>PT4851</name></trkpt>
<trkpt lat="54.372110" lon="-3.130111"><ele>535</ele><time>2020-06-12T10:44:09Z</time><name>PT4852</name></trkpt>
<trkpt lat="54.372117" lon="-3.130103"><ele>535</ele><time>2020-06-12T10:44:10Z</time><name>PT4853</name></trkpt>
<trkpt lat="54.372119" lon="-3.130096"><ele>534</ele><time>2020-06-12T10:44:11Z</time><name>PT4854</name></trkpt>
<trkpt lat="54.372129" lon="-3.130092"><ele>534</ele><time>2020-06-12T10:44:12Z</time><name>PT4855</name></trkpt>
<trkpt lat="54.372131" lon="-3.130080"><ele>535</ele><time>2020-06-12T10:44:13Z</time><name>PT4856</name></trkpt>
<trkpt lat="54.372131" lon="-3.130065"><ele>536</ele><time>2020-06-12T10:44:14Z</time><name>PT4857</name></trkpt>
<trkpt lat="54.372137" lon="-3.130058"><ele>536</ele><time>2020-06-12T10:44:15Z</time><name>PT4858</name></trkpt>
<trkpt lat="54.372144" lon="-3.130051"><ele>536</ele><time>2020-06-12T10:44:16Z</time><name>PT4859</name></trkpt>
<trkpt lat="54.372149" lon="-3.130047"><ele>536</ele><time>2020-06-12T10:44:17Z</time><name>PT4860</name></trkpt>
<trkpt lat="54.372164" lon="-3.130029"><ele>539</ele><time>2020-06-12T10:44:18Z</time><name>PT4861</name></trkpt>
<trkpt lat="54.372168" lon="-3.130025"><ele>539</ele><time>2020-06-12T10:44:19Z</time><name>PT4862</name></trkpt>
<trkpt lat="54.372173" lon="-3.130021"><ele>539</ele><time>2020-06-12T10:44:20Z</time><name>PT4863</name></trkpt>
<trkpt lat="54.372178" lon="-3.130016"><ele>539</ele><time>2020-06-12T10:44:21Z</time><name>PT4864</name></trkpt>
<trkpt lat="54.372184" lon="-3.130025"><ele>539</ele><time>2020-06-12T10:44:22Z</time><name>PT4865</name></trkpt>
<trkpt lat="54.372191" lon="-3.130024"><ele>539</ele><time>2020-06-12T10:44:23Z</time><name>PT4866</name></trkpt>
<trkpt lat="54.372196" lon="-3.130025"><ele>539</ele><time>2020-06-12T10:44:24Z</time><name>PT4867</name></trkpt>
<trkpt lat="54.372202" lon="-3.130020"><ele>539</ele><time>2020-06-12T10:44:25Z</time><name>PT4868</name></trkpt>
<trkpt lat="54.372205" lon="-3.130014"><ele>539</ele><time>2020-06-12T10:44:26Z</time><name>PT4869</name></trkpt>
<trkpt lat="54.372203" lon="-3.130012"><ele>541</ele><time>2020-06-12T10:44:27Z</time><name>PT4870</name></trkpt>
<trkpt lat="54.372204" lon="-3.130013"><ele>540</ele><time>2020-06-12T10:44:28Z</time><name>PT4871</name></trkpt>
<trkpt lat="54.372206" lon="-3.130013"><ele>541</ele><time>2020-06-12T10:44:29Z</time><name>PT4872</name></trkpt>
<trkpt lat="54.372210" lon="-3.130013"><ele>541</ele><time>2020-06-12T10:44:30Z</time><name>PT4873</name></trkpt>
<trkpt lat="54.372216" lon="-3.130015"><ele>541</ele><time>2020-06-12T10:44:31Z</time><name>PT4874</name></trkpt>
<trkpt lat="54.372222" lon="-3.130024"><ele>542</ele><time>2020-06-12T10:44:32Z</time><name>PT4875</name></trkpt>
<trkpt lat="54.372227" lon="-3.130024"><ele>542</ele><time>2020-06-12T10:44:33Z</time><name>PT4876</name></trkpt>
<trkpt lat="54.372235" lon="-3.130028"><ele>542</ele><time>2020-06-12T10:44:34Z</time><name>PT4877</name></trkpt>
<trkpt lat="54.372240" lon="-3.130027"><ele>542</ele><time>2020-06-12T10:44:35Z</time><name>PT4878</name></trkpt>
<trkpt lat="54.372246" lon="-3.130027"><ele>542</ele><time>2020-06-12T10:44:36Z</time><name>PT4879</name></trkpt>
<trkpt lat="54.372256" lon="-3.130028"><ele>542</ele><time>2020-06-12T10:44:37Z</time><name>PT4880</name></trkpt>
<trkpt lat="54.372266" lon="-3.130030"><ele>542</ele><time>2020-06-12T10:44:38Z</time><name>PT4881</name></trkpt>
<trkpt lat="54.372272" lon="-3.130028"><ele>542</ele><time>2020-06-12T10:44:39Z</time><name>PT4882</name></trkpt>
<trkpt lat="54.372274" lon="-3.130027"><ele>543</ele><time>2020-06-12T10:44:40Z</time><name>PT4883</name></trkpt>
<trkpt lat="54.372280" lon="-3.130018"><ele>543</ele><time>2020-06-12T10:44:41Z</time><name>PT4884</name></trkpt>
<trkpt lat="54.372288" lon="-3.130001"><ele>544</ele><time>2020-06-12T10:44:42Z</time><name>PT4885</name></trkpt>
<trkpt lat="54.372296" lon="-3.129993"><ele>544</ele><time>2020-06-12T10:44:43Z</time><name>PT4886</name></trkpt>
<trkpt lat="54.372300" lon="-3.129980"><ele>544</ele><time>2020-06-12T10:44:44Z</time><name>PT4887</name></trkpt>
<trkpt lat="54.372303" lon="-3.129976"><ele>545</ele><time>2020-06-12T10:44:45Z</time><name>PT4888</name></trkpt>
<trkpt lat="54.372309" lon="-3.129970"><ele>546</ele><time>2020-06-12T10:44:46Z</time><name>PT4889</name></trkpt>
<trkpt lat="54.372316" lon="-3.129961"><ele>547</ele><time>2020-06-12T10:44:47Z</time><name>PT4890</name></trkpt>
<trkpt lat="54.372319" lon="-3.129956"><ele>547</ele><time>2020-06-12T10:44:48Z</time><name>PT4891</name></trkpt>
<trkpt lat="54.372318" lon="-3.129955"><ele>547</ele><time>2020-06-12T10:44:49Z</time><name>PT4892</name></trkpt>
<trkpt lat="54.372322" lon="-3.129939"><ele>549</ele><time>2020-06-12T10:44:50Z</time><name>PT4893</name></trkpt>
<trkpt lat="54.372328" lon="-3.129932"><ele>548</ele><time>2020-06-12T10:44:51Z</time><name>PT4894</name></trkpt>
<trkpt lat="54.372334" lon="-3.129928"><ele>550</ele><time>2020-06-12T10:44:52Z</time><name>PT4895</name></trkpt>
<trkpt lat="54.372337" lon="-3.129926"><ele>551</ele><time>2020-06-12T10:44:53Z</time><name>PT4896</name></trkpt>
<trkpt lat="54.372343" lon="-3.129922"><ele>551</ele><time>2020-06-12T10:44:54Z</time><name>PT4897</name></trkpt>
<trkpt lat="54.372351" lon="-3.129921"><ele>550</ele><time>2020-06-12T10:44:55Z</time><name>PT4898</name></trkpt>
<trkpt lat="54.372355" lon="-3.129915"><ele>550</ele><time>2020-06-12T10:44:56Z</time><name>PT4899</name></trkpt>
<trkpt lat="54.372361" lon="-3.129903"><ele>551</ele><time>2020-06-12T10:44:57Z</time><name>PT4900</name></trkpt>
<trkpt lat="54.372369" lon="-3.129893"><ele>551</ele><time>2020-06-12T10:44:58Z</time><name>PT4901</name></trkpt>
<trkpt lat="54.372374" lon="-3.129888"><ele>551</ele><time>2020-06-12T10:44:59Z</time><name>PT4902</name></trkpt>
<trkpt lat="54.372374" lon="-3.129874"><ele>554</ele><time>2020-06-12T10:45:00Z</time><name>PT4903</name></trkpt>
<trkpt lat="54.372380" lon="-3.129855"><ele>554</ele><time>2020-06-12T10:45:06Z</time><name>PT4904</name></trkpt>
<trkpt lat="54.372384" lon="-3.129841"><ele>554</ele><time>2020-06-12T10:45:07Z</time><name>PT4905</name></trkpt>
<trkpt lat="54.372389" lon="-3.129834"><ele>554</ele><time>2020-06-12T10:45:08Z</time><name>PT4906</name></trkpt>
<trkpt lat="54.372392" lon="-3.129813"><ele>553</ele><time>2020-06-12T10:45:09Z</time><name>PT4907</name></trkpt>
<trkpt lat="54.372396" lon="-3.129804"><ele>553</ele><time>2020-06-12T10:45:10Z</time><name>PT4908</name></trkpt>
<trkpt lat="54.372396" lon="-3.129803"><ele>553</ele><time>2020-06-12T10:45:11Z</time><name>PT4909</name></trkpt>
<trkpt lat="54.372399" lon="-3.129804"><ele>552</ele><time>2020-06-12T10:45:12Z</time><name>PT4910</name></trkpt>
<trkpt lat="54.372408" lon="-3.129808"><ele>553</ele><time>2020-06-12T10:45:13Z</time><name>PT4911</name></trkpt>
<trkpt lat="54.372413" lon="-3.129804"><ele>553</ele><time>2020-06-12T10:45:14Z</time><name>PT4912</name></trkpt>
<trkpt lat="54.372417" lon="-3.129798"><ele>554</ele><time>2020-06-12T10:45:15Z</time><name>PT4913</name></trkpt>
<trkpt lat="54.372422" lon="-3.129791"><ele>554</ele><time>2020-06-12T10:45:16Z</time><name>PT4914</name></trkpt>
<trkpt lat="54.372431" lon="-3.129785"><ele>554</ele><time>2020-06-12T10:45:17Z</time><name>PT4915</name></trkpt>
<trkpt lat="54.372438" lon="-3.129777"><ele>556</ele><time>2020-06-12T10:45:18Z</time><name>PT4916</name></trkpt>
<trkpt lat="54.372428" lon="-3.129796"><ele>555</ele><time>2020-06-12T10:45:20Z</time><name>PT4917</name></trkpt>
<trkpt lat="54.372427" lon="-3.129782"><ele>555</ele><time>2020-06-12T10:45:21Z</time><name>PT4918</name></trkpt>
<trkpt lat="54.372438" lon="-3.129771"><ele>555</ele><time>2020-06-12T10:45:22Z</time><name>PT4919</name></trkpt>
<trkpt lat="54.372444" lon="-3.129754"><ele>555</ele><time>2020-06-12T10:45:23Z</time><name>PT4920</name></trkpt>
<trkpt lat="54.372452" lon="-3.129736"><ele>555</ele><time>2020-06-12T10:45:24Z</time><name>PT4921</name></trkpt>
<trkpt lat="54.372460" lon="-3.129712"><ele>555</ele><time>2020-06-12T10:45:25Z</time><name>PT4922</name></trkpt>
<trkpt lat="54.372462" lon="-3.129699"><ele>556</ele><time>2020-06-12T10:45:26Z</time><name>PT4923</name></trkpt>
<trkpt lat="54.372460" lon="-3.129690"><ele>555</ele><time>2020-06-12T10:45:27Z</time><name>PT4924</name></trkpt>
<trkpt lat="54.372462" lon="-3.129680"><ele>556</ele><time>2020-06-12T10:45:28Z</time><name>PT4925</name></trkpt>
<trkpt lat="54.372456" lon="-3.129669"><ele>556</ele><time>2020-06-12T10:45:30Z</time><name>PT4926</name></trkpt>
<trkpt lat="54.372461" lon="-3.129661"><ele>557</ele><time>2020-06-12T10:45:31Z</time><name>PT4927</name></trkpt>
<trkpt lat="54.372472" lon="-3.129670"><ele>557</ele><time>2020-06-12T10:45:32Z</time><name>PT4928</name></trkpt>
<trkpt lat="54.372475" lon="-3.129665"><ele>557</ele><time>2020-06-12T10:45:33Z</time><name>PT4929</name></trkpt>
<trkpt lat="54.372475" lon="-3.129657"><ele>557</ele><time>2020-06-12T10:45:34Z</time><name>PT4930</name></trkpt>
<trkpt lat="54.372477" lon="-3.129646"><ele>558</ele><time>2020-06-12T10:45:35Z</time><name>PT4931</name></trkpt>
<trkpt lat="54.372477" lon="-3.129635"><ele>558</ele><time>2020-06-12T10:45:36Z</time><name>PT4932</name></trkpt>
<trkpt lat="54.372470" lon="-3.129625"><ele>559</ele><time>2020-06-12T10:45:37Z</time><name>PT4933</name></trkpt>
<trkpt lat="54.372475" lon="-3.129617"><ele>560</ele><time>2020-06-12T10:45:38Z</time><name>PT4934</name></trkpt>
<trkpt lat="54.372473" lon="-3.129607"><ele>560</ele><time>2020-06-12T10:45:39Z</time><name>PT4935</name></trkpt>
<trkpt lat="54.372474" lon="-3.129605"><ele>560</ele><time>2020-06-12T10:45:40Z</time><name>PT4936</name></trkpt>
<trkpt lat="54.372478" lon="-3.129599"><ele>560</ele><time>2020-06-12T10:45:41Z</time><name>PT4937</name></trkpt>
<trkpt lat="54.372483" lon="-3.129594"><ele>561</ele><time>2020-06-12T10:45:42Z</time><name>PT4938</name></trkpt>
<trkpt lat="54.372492" lon="-3.129581"><ele>561</ele><time>2020-06-12T10:45:43Z</time><name>PT4939</name></trkpt>
<trkpt lat="54.372500" lon="-3.129579"><ele>559</ele><time>2020-06-12T10:45:44Z</time><name>PT4940</name></trkpt>
<trkpt lat="54.372506" lon="-3.129575"><ele>559</ele><time>2020-06-12T10:45:45Z</time><name>PT4941</name></trkpt>
<trkpt lat="54.372510" lon="-3.129570"><ele>560</ele><time>2020-06-12T10:45:46Z</time><name>PT4942</name></trkpt>
<trkpt lat="54.372513" lon="-3.129585"><ele>559</ele><time>2020-06-12T10:45:47Z</time><name>PT4943</name></trkpt>
<trkpt lat="54.372516" lon="-3.129581"><ele>559</ele><time>2020-06-12T10:45:48Z</time><name>PT4944</name></trkpt>
<trkpt lat="54.372516" lon="-3.129566"><ele>560</ele><time>2020-06-12T10:45:49Z</time><name>PT4945</name></trkpt>
<trkpt lat="54.372517" lon="-3.129556"><ele>561</ele><time>2020-06-12T10:45:50Z</time><name>PT4946</name></trkpt>
<trkpt lat="54.372520" lon="-3.129546"><ele>562</ele><time>2020-06-12T10:45:51Z</time><name>PT4947</name></trkpt>
<trkpt lat="54.372525" lon="-3.129538"><ele>562</ele><time>2020-06-12T10:45:52Z</time><name>PT4948</name></trkpt>
<trkpt lat="54.372532" lon="-3.129531"><ele>561</ele><time>2020-06-12T10:45:53Z</time><name>PT4949</name></trkpt>
<trkpt lat="54.372534" lon="-3.129532"><ele>562</ele><time>2020-06-12T10:45:54Z</time><name>PT4950</name></trkpt>
<trkpt lat="54.372540" lon="-3.129531"><ele>563</ele><time>2020-06-12T10:45:55Z</time><name>PT4951</name></trkpt>
<trkpt lat="54.372535" lon="-3.129541"><ele>563</ele><time>2020-06-12T10:45:56Z</time><name>PT4952</name></trkpt>
<trkpt lat="54.372541" lon="-3.129557"><ele>562</ele><time>2020-06-12T10:45:57Z</time><name>PT4953</name></trkpt>
<trkpt lat="54.372549" lon="-3.129584"><ele>561</ele><time>2020-06-12T10:45:58Z</time><name>PT4954</name></trkpt>
<trkpt lat="54.372560" lon="-3.129609"><ele>560</ele><time>2020-06-12T10:45:59Z</time><name>PT4955</name></trkpt>
<trkpt lat="54.372576" lon="-3.129647"><ele>557</ele><time>2020-06-12T10:46:00Z</time><name>PT4956</name></trkpt>
<trkpt lat="54.372582" lon="-3.129650"><ele>558</ele><time>2020-06-12T10:46:01Z</time><name>PT4957</name></trkpt>
<trkpt lat="54.372583" lon="-3.129652"><ele>558</ele><time>2020-06-12T10:46:02Z</time><name>PT4958</name></trkpt>
<trkpt lat="54.372586" lon="-3.129670"><ele>560</ele><time>2020-06-12T10:46:03Z</time><name>PT4959</name></trkpt>
<trkpt lat="54.372590" lon="-3.129683"><ele>560</ele><time>2020-06-12T10:46:04Z</time><name>PT4960</name></trkpt>
<trkpt lat="54.372594" lon="-3.129687"><ele>559</ele><time>2020-06-12T10:46:05Z</time><name>PT4961</name></trkpt>
<trkpt lat="54.372600" lon="-3.129684"><ele>560</ele><time>2020-06-12T10:46:06Z</time><name>PT4962</name></trkpt>
<trkpt lat="54.372615" lon="-3.129685"><ele>559</ele><time>2020-06-12T10:46:07Z</time><name>PT4963</name></trkpt>
<trkpt lat="54.372621" lon="-3.129694"><ele>557</ele><time>2020-06-12T10:46:08Z</time><name>PT4964</name></trkpt>
<trkpt lat="54.372624" lon="-3.129706"><ele>557</ele><time>2020-06-12T10:46:09Z</time><name>PT4965</name></trkpt>
<trkpt lat="54.372626" lon="-3.129710"><ele>558</ele><time>2020-06-12T10:46:10Z</time><name>PT4966</name></trkpt>
<trkpt lat="54.372627" lon="-3.129719"><ele>557</ele><time>2020-06-12T10:46:11Z</time><name>PT4967</name></trkpt>
<trkpt lat="54.372637" lon="-3.129721"><ele>557</ele><time>2020-06-12T10:46:12Z</time><name>PT4968</name></trkpt>
<trkpt lat="54.372643" lon="-3.129722"><ele>557</ele><time>2020-06-12T10:46:13Z</time><name>PT4969</name></trkpt>
<trkpt lat="54.372650" lon="-3.129726"><ele>557</ele><time>2020-06-12T10:46:14Z</time><name>PT4970</name></trkpt>
<trkpt lat="54.372650" lon="-3.129734"><ele>557</ele><time>2020-06-12T10:46:15Z</time><name>PT4971</name></trkpt>
<trkpt lat="54.372656" lon="-3.129742"><ele>557</ele><time>2020-06-12T10:46:16Z</time><name>PT4972</name></trkpt>
<trkpt lat="54.372661" lon="-3.129743"><ele>557</ele><time>2020-06-12T10:46:17Z</time><name>PT4973</name></trkpt>
<trkpt lat="54.372665" lon="-3.129748"><ele>557</ele><time>2020-06-12T10:46:18Z</time><name>PT4974</name></trkpt>
<trkpt lat="54.372672" lon="-3.129752"><ele>558</ele><time>2020-06-12T10:46:19Z</time><name>PT4975</name></trkpt>
<trkpt lat="54.372679" lon="-3.129753"><ele>559</ele><time>2020-06-12T10:46:20Z</time><name>PT4976</name></trkpt>
<trkpt lat="54.372684" lon="-3.129757"><ele>559</ele><time>2020-06-12T10:46:21Z</time><name>PT4977</name></trkpt>
<trkpt lat="54.372686" lon="-3.129761"><ele>560</ele><time>2020-06-12T10:46:22Z</time><name>PT4978</name></trkpt>
<trkpt lat="54.372689" lon="-3.129765"><ele>561</ele><time>2020-06-12T10:46:23Z</time><name>PT4979</name></trkpt>
<trkpt lat="54.372690" lon="-3.129773"><ele>561</ele><time>2020-06-12T10:46:24Z</time><name>PT4980</name></trkpt>
<trkpt lat="54.372691" lon="-3.129801"><ele>561</ele><time>2020-06-12T10:46:27Z</time><name>PT4981</name></trkpt>
<trkpt lat="54.372688" lon="-3.129839"><ele>560</ele><time>2020-06-12T10:46:28Z</time><name>PT4982</name></trkpt>
<trkpt lat="54.372684" lon="-3.129865"><ele>560</ele><time>2020-06-12T10:46:29Z</time><name>PT4983</name></trkpt>
<trkpt lat="54.372669" lon="-3.129882"><ele>559</ele><time>2020-06-12T10:46:30Z</time><name>PT4984</name></trkpt>
<trkpt lat="54.372675" lon="-3.129896"><ele>560</ele><time>2020-06-12T10:46:31Z</time><name>PT4985</name></trkpt>
<trkpt lat="54.372687" lon="-3.129895"><ele>560</ele><time>2020-06-12T10:46:32Z</time><name>PT4986</name></trkpt>
<trkpt lat="54.372699" lon="-3.129897"><ele>560</ele><time>2020-06-12T10:46:33Z</time><name>PT4987</name></trkpt>
<trkpt lat="54.372701" lon="-3.129892"><ele>560</ele><time>2020-06-12T10:46:34Z</time><name>PT4988</name></trkpt>
<trkpt lat="54.372705" lon="-3.129887"><ele>560</ele><time>2020-06-12T10:46:35Z</time><name>PT4989</name></trkpt>
<trkpt lat="54.372711" lon="-3.129879"><ele>560</ele><time>2020-06-12T10:46:36Z</time><name>PT4990</name></trkpt>
<trkpt lat="54.372719" lon="-3.129877"><ele>560</ele><time>2020-06-12T10:46:37Z</time><name>PT4991</name></trkpt>
<trkpt lat="54.372726" lon="-3.129877"><ele>561</ele><time>2020-06-12T10:46:38Z</time><name>PT4992</name></trkpt>
<trkpt lat="54.372732" lon="-3.129880"><ele>562</ele><time>2020-06-12T10:46:39Z</time><name>PT4993</name></trkpt>
<trkpt lat="54.372739" lon="-3.129884"><ele>562</ele><time>2020-06-12T10:46:40Z</time><name>PT4994</name></trkpt>
<trkpt lat="54.372747" lon="-3.129884"><ele>563</ele><time>2020-06-12T10:46:41Z</time><name>PT4995</name></trkpt>
<trkpt lat="54.372752" lon="-3.129887"><ele>563</ele><time>2020-06-12T10:46:42Z</time><name>PT4996</name></trkpt>
<trkpt lat="54.372757" lon="-3.129887"><ele>562</ele><time>2020-06-12T10:46:43Z</time><name>PT4997</name></trkpt>
<trkpt lat="54.372770" lon="-3.129884"><ele>562</ele><time>2020-06-12T10:46:44Z</time><name>PT4998</name></trkpt>
<trkpt lat="54.372785" lon="-3.129879"><ele>563</ele><time>2020-06-12T10:46:45Z</time><name>PT4999</name></trkpt>
<trkpt lat="54.372792" lon="-3.129880"><ele>562</ele><time>2020-06-12T10:46:46Z</time><name>PT5000</name></trkpt>
<trkpt lat="54.372793" lon="-3.129891"><ele>561</ele><time>2020-06-12T10:46:47Z</time><name>PT5001</name></trkpt>
<trkpt lat="54.372801" lon="-3.129886"><ele>563</ele><time>2020-06-12T10:46:48Z</time><name>PT5002</name></trkpt>
<trkpt lat="54.372807" lon="-3.129884"><ele>564</ele><time>2020-06-12T10:46:49Z</time><name>PT5003</name></trkpt>
<trkpt lat="54.372810" lon="-3.129889"><ele>565</ele><time>2020-06-12T10:46:50Z</time><name>PT5004</name></trkpt>
<trkpt lat="54.372808" lon="-3.129894"><ele>567</ele><time>2020-06-12T10:46:51Z</time><name>PT5005</name></trkpt>
<trkpt lat="54.372811" lon="-3.129899"><ele>567</ele><time>2020-06-12T10:46:52Z</time><name>PT5006</name></trkpt>
<trkpt lat="54.372820" lon="-3.129909"><ele>567</ele><time>2020-06-12T10:46:53Z</time><name>PT5007</name></trkpt>
<trkpt lat="54.372827" lon="-3.129911"><ele>567</ele><time>2020-06-12T10:46:54Z</time><name>PT5008</name></trkpt>
<trkpt lat="54.372828" lon="-3.129914"><ele>567</ele><time>2020-06-12T10:46:55Z</time><name>PT5009</name></trkpt>
<trkpt lat="54.372837" lon="-3.129915"><ele>567</ele><time>2020-06-12T10:46:56Z</time><name>PT5010</name></trkpt>
<trkpt lat="54.372837" lon="-3.129910"><ele>568</ele><time>2020-06-12T10:46:57Z</time><name>PT5011</name></trkpt>
<trkpt lat="54.372834" lon="-3.129913"><ele>567</ele><time>2020-06-12T10:46:58Z</time><name>PT5012</name></trkpt>
<trkpt lat="54.372837" lon="-3.129914"><ele>567</ele><time>2020-06-12T10:46:59Z</time><name>PT5013</name></trkpt>
<trkpt lat="54.372841" lon="-3.129914"><ele>566</ele><time>2020-06-12T10:47:00Z</time><name>PT5014</name></trkpt>
<trkpt lat="54.372849" lon="-3.129907"><ele>566</ele><time>2020-06-12T10:47:01Z</time><name>PT5015</name></trkpt>
<trkpt lat="54.372853" lon="-3.129903"><ele>566</ele><time>2020-06-12T10:47:02Z</time><name>PT5016</name></trkpt>
<trkpt lat="54.372857" lon="-3.129905"><ele>566</ele><time>2020-06-12T10:47:03Z</time><name>PT5017</name></trkpt>
<trkpt lat="54.372864" lon="-3.129912"><ele>566</ele><time>2020-06-12T10:47:04Z</time><name>PT5018</name></trkpt>
<trkpt lat="54.372870" lon="-3.129908"><ele>567</ele><time>2020-06-12T10:47:05Z</time><name>PT5019</name></trkpt>
<trkpt lat="54.372878" lon="-3.129909"><ele>568</ele><time>2020-06-12T10:47:06Z</time><name>PT5020</name></trkpt>
<trkpt lat="54.372884" lon="-3.129912"><ele>568</ele><time>2020-06-12T10:47:07Z</time><name>PT5021</name></trkpt>
<trkpt lat="54.372886" lon="-3.129913"><ele>566</ele><time>2020-06-12T10:47:08Z</time><name>PT5022</name></trkpt>
<trkpt lat="54.372891" lon="-3.129912"><ele>564</ele><time>2020-06-12T10:47:09Z</time><name>PT5023</name></trkpt>
<trkpt lat="54.372892" lon="-3.129914"><ele>565</ele><time>2020-06-12T10:47:10Z</time><name>PT5024</name></trkpt>
<trkpt lat="54.372891" lon="-3.129921"><ele>565</ele><time>2020-06-12T10:47:11Z</time><name>PT5025</name></trkpt>
<trkpt lat="54.372894" lon="-3.129915"><ele>565</ele><time>2020-06-12T10:47:12Z</time><name>PT5026</name></trkpt>
<trkpt lat="54.372901" lon="-3.129910"><ele>564</ele><time>2020-06-12T10:47:13Z</time><name>PT5027</name></trkpt>
<trkpt lat="54.372906" lon="-3.129908"><ele>564</ele><time>2020-06-12T10:47:14Z</time><name>PT5028</name></trkpt>
<trkpt lat="54.372922" lon="-3.129920"><ele>563</ele><time>2020-06-12T10:47:15Z</time><name>PT5029</name></trkpt>
<trkpt lat="54.372928" lon="-3.129923"><ele>562</ele><time>2020-06-12T10:47:16Z</time><name>PT5030</name></trkpt>
<trkpt lat="54.372932" lon="-3.129931"><ele>563</ele><time>2020-06-12T10:47:17Z</time><name>PT5031</name></trkpt>
<trkpt lat="54.372922" lon="-3.129938"><ele>565</ele><time>2020-06-12T10:47:18Z</time><name>PT5032</name></trkpt>
<trkpt lat="54.372925" lon="-3.129935"><ele>565</ele><time>2020-06-12T10:47:19Z</time><name>PT5033</name></trkpt>
<trkpt lat="54.372928" lon="-3.129941"><ele>565</ele><time>2020-06-12T10:47:20Z</time><name>PT5034</name></trkpt>
<trkpt lat="54.372931" lon="-3.129942"><ele>567</ele><time>2020-06-12T10:47:21Z</time><name>PT5035</name></trkpt>
<trkpt lat="54.372939" lon="-3.129946"><ele>566</ele><time>2020-06-12T10:47:22Z</time><name>PT5036</name></trkpt>
<trkpt lat="54.372944" lon="-3.129949"><ele>566</ele><time>2020-06-12T10:47:23Z</time><name>PT5037</name></trkpt>
<trkpt lat="54.372947" lon="-3.129952"><ele>566</ele><time>2020-06-12T10:47:24Z</time><name>PT5038</name></trkpt>
<trkpt lat="54.372948" lon="-3.129962"><ele>566</ele><time>2020-06-12T10:47:25Z</time><name>PT5039</name></trkpt>
<trkpt lat="54.372950" lon="-3.129968"><ele>566</ele><time>2020-06-12T10:47:26Z</time><name>PT5040</name></trkpt>
<trkpt lat="54.372952" lon="-3.129979"><ele>567</ele><time>2020-06-12T10:47:27Z</time><name>PT5041</name></trkpt>
<trkpt lat="54.372957" lon="-3.129986"><ele>567</ele><time>2020-06-12T10:47:28Z</time><name>PT5042</name></trkpt>
<trkpt lat="54.372958" lon="-3.129995"><ele>567</ele><time>2020-06-12T10:47:29Z</time><name>PT5043</name></trkpt>
<trkpt lat="54.372959" lon="-3.130003"><ele>568</ele><time>2020-06-12T10:47:30Z</time><name>PT5044</name></trkpt>
<trkpt lat="54.372957" lon="-3.130012"><ele>569</ele><time>2020-06-12T10:47:31Z</time><name>PT5045</name></trkpt>
<trkpt lat="54.372960" lon="-3.130022"><ele>569</ele><time>2020-06-12T10:47:32Z</time><name>PT5046</name></trkpt>
<trkpt lat="54.372967" lon="-3.130030"><ele>570</ele><time>2020-06-12T10:47:34Z</time><name>PT5047</name></trkpt>
<trkpt lat="54.372968" lon="-3.130041"><ele>571</ele><time>2020-06-12T10:47:34Z</time><name>PT5048</name></trkpt>
<trkpt lat="54.372972" lon="-3.130047"><ele>571</ele><time>2020-06-12T10:47:35Z</time><name>PT5049</name></trkpt>
<trkpt lat="54.372968" lon="-3.130070"><ele>570</ele><time>2020-06-12T10:47:36Z</time><name>PT5050</name></trkpt>
<trkpt lat="54.372971" lon="-3.130077"><ele>571</ele><time>2020-06-12T10:47:37Z</time><name>PT5051</name></trkpt>
<trkpt lat="54.372976" lon="-3.130089"><ele>571</ele><time>2020-06-12T10:47:38Z</time><name>PT5052</name></trkpt>
<trkpt lat="54.372977" lon="-3.130093"><ele>571</ele><time>2020-06-12T10:47:39Z</time><name>PT5053</name></trkpt>
<trkpt lat="54.372972" lon="-3.130101"><ele>571</ele><time>2020-06-12T10:47:40Z</time><name>PT5054</name></trkpt>
<trkpt lat="54.372972" lon="-3.130103"><ele>571</ele><time>2020-06-12T10:47:42Z</time><name>PT5055</name></trkpt>
<trkpt lat="54.372969" lon="-3.130114"><ele>570</ele><time>2020-06-12T10:47:42Z</time><name>PT5056</name></trkpt>
<trkpt lat="54.372970" lon="-3.130111"><ele>570</ele><time>2020-06-12T10:47:50Z</time><name>PT5057</name></trkpt>
<trkpt lat="54.372986" lon="-3.130105"><ele>570</ele><time>2020-06-12T10:47:51Z</time><name>PT5058</name></trkpt>
<trkpt lat="54.372990" lon="-3.130098"><ele>570</ele><time>2020-06-12T10:47:52Z</time><name>PT5059</name></trkpt>
<trkpt lat="54.372995" lon="-3.130095"><ele>570</ele><time>2020-06-12T10:47:54Z</time><name>PT5060</name></trkpt>
<trkpt lat="54.372999" lon="-3.130096"><ele>571</ele><time>2020-06-12T10:47:54Z</time><name>PT5061</name></trkpt>
<trkpt lat="54.373004" lon="-3.130097"><ele>571</ele><time>2020-06-12T10:47:55Z</time><name>PT5062</name></trkpt>
<trkpt lat="54.373007" lon="-3.130083"><ele>571</ele><time>2020-06-12T10:47:56Z</time><name>PT5063</name></trkpt>
<trkpt lat="54.373015" lon="-3.130102"><ele>572</ele><time>2020-06-12T10:47:57Z</time><name>PT5064</name></trkpt>
<trkpt lat="54.373021" lon="-3.130095"><ele>573</ele><time>2020-06-12T10:47:58Z</time><name>PT5065</name></trkpt>
<trkpt lat="54.373022" lon="-3.130101"><ele>572</ele><time>2020-06-12T10:47:59Z</time><name>PT5066</name></trkpt>
<trkpt lat="54.373024" lon="-3.130102"><ele>573</ele><time>2020-06-12T10:48:00Z</time><name>PT5067</name></trkpt>
<trkpt lat="54.373029" lon="-3.130107"><ele>572</ele><time>2020-06-12T10:48:01Z</time><name>PT5068</name></trkpt>
<trkpt lat="54.373030" lon="-3.130102"><ele>572</ele><time>2020-06-12T10:48:02Z</time><name>PT5069</name></trkpt>
<trkpt lat="54.373030" lon="-3.130101"><ele>573</ele><time>2020-06-12T10:48:03Z</time><name>PT5070</name></trkpt>
<trkpt lat="54.373029" lon="-3.130099"><ele>573</ele><time>2020-06-12T10:48:04Z</time><name>PT5071</name></trkpt>
<trkpt lat="54.373014" lon="-3.130141"><ele>572</ele><time>2020-06-12T10:48:23Z</time><name>PT5072</name></trkpt>
<trkpt lat="54.373006" lon="-3.130123"><ele>572</ele><time>2020-06-12T10:48:24Z</time><name>PT5073</name></trkpt>
<trkpt lat="54.373003" lon="-3.130125"><ele>572</ele><time>2020-06-12T10:48:25Z</time><name>PT5074</name></trkpt>
<trkpt lat="54.373005" lon="-3.130112"><ele>571</ele><time>2020-06-12T10:48:26Z</time><name>PT5075</name></trkpt>
<trkpt lat="54.373011" lon="-3.130114"><ele>569</ele><time>2020-06-12T10:48:27Z</time><name>PT5076</name></trkpt>
<trkpt lat="54.373013" lon="-3.130113"><ele>570</ele><time>2020-06-12T10:48:28Z</time><name>PT5077</name></trkpt>
<trkpt lat="54.373019" lon="-3.130112"><ele>570</ele><time>2020-06-12T10:48:29Z</time><name>PT5078</name></trkpt>
<trkpt lat="54.373022" lon="-3.130109"><ele>570</ele><time>2020-06-12T10:48:30Z</time><name>PT5079</name></trkpt>
<trkpt lat="54.373025" lon="-3.130098"><ele>570</ele><time>2020-06-12T10:48:31Z</time><name>PT5080</name></trkpt>
<trkpt lat="54.373027" lon="-3.130090"><ele>569</ele><time>2020-06-12T10:48:32Z</time><name>PT5081</name></trkpt>
<trkpt lat="54.373029" lon="-3.130072"><ele>570</ele><time>2020-06-12T10:48:33Z</time><name>PT5082</name></trkpt>
<trkpt lat="54.373028" lon="-3.130062"><ele>570</ele><time>2020-06-12T10:48:34Z</time><name>PT5083</name></trkpt>
<trkpt lat="54.373026" lon="-3.130058"><ele>571</ele><time>2020-06-12T10:48:35Z</time><name>PT5084</name></trkpt>
<trkpt lat="54.373029" lon="-3.130054"><ele>571</ele><time>2020-06-12T10:48:36Z</time><name>PT5085</name></trkpt>
<trkpt lat="54.373028" lon="-3.130055"><ele>571</ele><time>2020-06-12T10:48:38Z</time><name>PT5086</name></trkpt>
<trkpt lat="54.373028" lon="-3.130050"><ele>571</ele><time>2020-06-12T10:48:39Z</time><name>PT5087</name></trkpt>
<trkpt lat="54.373029" lon="-3.130046"><ele>571</ele><time>2020-06-12T10:48:40Z</time><name>PT5088</name></trkpt>
<trkpt lat="54.373031" lon="-3.130046"><ele>571</ele><time>2020-06-12T10:48:41Z</time><name>PT5089</name></trkpt>
<trkpt lat="54.373034" lon="-3.130047"><ele>571</ele><time>2020-06-12T10:48:42Z</time><name>PT5090</name></trkpt>
<trkpt lat="54.373033" lon="-3.130047"><ele>571</ele><time>2020-06-12T10:48:43Z</time><name>PT5091</name></trkpt>
<trkpt lat="54.373069" lon="-3.130084"><ele>574</ele><time>2020-06-12T10:49:55Z</time><name>PT5092</name></trkpt>
<trkpt lat="54.373048" lon="-3.130067"><ele>573</ele><time>2020-06-12T10:49:56Z</time><name>PT5093</name></trkpt>
<trkpt lat="54.373046" lon="-3.130070"><ele>573</ele><time>2020-06-12T10:49:57Z</time><name>PT5094</name></trkpt>
<trkpt lat="54.373057" lon="-3.130070"><ele>573</ele><time>2020-06-12T10:49:58Z</time><name>PT5095</name></trkpt>
<trkpt lat="54.373058" lon="-3.130071"><ele>573</ele><time>2020-06-12T10:49:59Z</time><name>PT5096</name></trkpt>
<trkpt lat="54.373058" lon="-3.130076"><ele>573</ele><time>2020-06-12T10:50:00Z</time><name>PT5097</name></trkpt>
<trkpt lat="54.373060" lon="-3.130080"><ele>573</ele><time>2020-06-12T10:50:01Z</time><name>PT5098</name></trkpt>
<trkpt lat="54.373061" lon="-3.130080"><ele>573</ele><time>2020-06-12T10:50:02Z</time><name>PT5099</name></trkpt>
<trkpt lat="54.373062" lon="-3.130083"><ele>573</ele><time>2020-06-12T10:50:03Z</time><name>PT5100</name></trkpt>
<trkpt lat="54.373050" lon="-3.130095"><ele>575</ele><time>2020-06-12T10:50:04Z</time><name>PT5101</name></trkpt>
<trkpt lat="54.373050" lon="-3.130093"><ele>576</ele><time>2020-06-12T10:50:05Z</time><name>PT5102</name></trkpt>
<trkpt lat="54.373050" lon="-3.130095"><ele>575</ele><time>2020-06-12T10:50:06Z</time><name>PT5103</name></trkpt>
<trkpt lat="54.373049" lon="-3.130098"><ele>575</ele><time>2020-06-12T10:50:07Z</time><name>PT5104</name></trkpt>
<trkpt lat="54.373053" lon="-3.130099"><ele>575</ele><time>2020-06-12T10:50:08Z</time><name>PT5105</name></trkpt>
<trkpt lat="54.373047" lon="-3.130109"><ele>574</ele><time>2020-06-12T10:50:10Z</time><name>PT5106</name></trkpt>
<trkpt lat="54.373039" lon="-3.130104"><ele>574</ele><time>2020-06-12T10:50:11Z</time><name>PT5107</name></trkpt>
<trkpt lat="54.373037" lon="-3.130106"><ele>574</ele><time>2020-06-12T10:50:12Z</time><name>PT5108</name></trkpt>
<trkpt lat="54.373032" lon="-3.130143"><ele>579</ele><time>2020-06-12T10:50:48Z</time><name>PT5109</name></trkpt>
<trkpt lat="54.373035" lon="-3.130152"><ele>580</ele><time>2020-06-12T10:50:49Z</time><name>PT5110</name></trkpt>
<trkpt lat="54.373040" lon="-3.130131"><ele>580</ele><time>2020-06-12T10:50:50Z</time><name>PT5111</name></trkpt>
<trkpt lat="54.373033" lon="-3.130128"><ele>580</ele><time>2020-06-12T10:50:51Z</time><name>PT5112</name></trkpt>
<trkpt lat="54.373030" lon="-3.130131"><ele>579</ele><time>2020-06-12T10:50:52Z</time><name>PT5113</name></trkpt>
<trkpt lat="54.373028" lon="-3.130126"><ele>578</ele><time>2020-06-12T10:50:53Z</time><name>PT5114</name></trkpt>
<trkpt lat="54.373022" lon="-3.130110"><ele>579</ele><time>2020-06-12T10:50:54Z</time><name>PT5115</name></trkpt>
<trkpt lat="54.373018" lon="-3.130096"><ele>579</ele><time>2020-06-12T10:50:55Z</time><name>PT5116</name></trkpt>
<trkpt lat="54.373016" lon="-3.130093"><ele>579</ele><time>2020-06-12T10:50:56Z</time><name>PT5117</name></trkpt>
<trkpt lat="54.373016" lon="-3.130085"><ele>579</ele><time>2020-06-12T10:50:57Z</time><name>PT5118</name></trkpt>
<trkpt lat="54.373014" lon="-3.130078"><ele>579</ele><time>2020-06-12T10:50:58Z</time><name>PT5119</name></trkpt>
<trkpt lat="54.373012" lon="-3.130072"><ele>579</ele><time>2020-06-12T10:50:59Z</time><name>PT5120</name></trkpt>
<trkpt lat="54.373012" lon="-3.130069"><ele>579</ele><time>2020-06-12T10:51:00Z</time><name>PT5121</name></trkpt>
<trkpt lat="54.372993" lon="-3.130073"><ele>579</ele><time>2020-06-12T10:51:16Z</time><name>PT5122</name></trkpt>
<trkpt lat="54.372988" lon="-3.130080"><ele>580</ele><time>2020-06-12T10:51:17Z</time><name>PT5123</name></trkpt>
<trkpt lat="54.372980" lon="-3.130099"><ele>580</ele><time>2020-06-12T10:51:18Z</time><name>PT5124</name></trkpt>
<trkpt lat="54.372987" lon="-3.130091"><ele>580</ele><time>2020-06-12T10:51:19Z</time><name>PT5125</name></trkpt>
<trkpt lat="54.372981" lon="-3.130094"><ele>580</ele><time>2020-06-12T10:51:24Z</time><name>PT5126</name></trkpt>
<trkpt lat="54.372978" lon="-3.130095"><ele>580</ele><time>2020-06-12T10:51:25Z</time><name>PT5127</name></trkpt>
<trkpt lat="54.372979" lon="-3.130090"><ele>580</ele><time>2020-06-12T10:51:26Z</time><name>PT5128</name></trkpt>
<trkpt lat="54.372978" lon="-3.130094"><ele>580</ele><time>2020-06-12T10:51:27Z</time><name>PT5129</name></trkpt>
<trkpt lat="54.372977" lon="-3.130095"><ele>580</ele><time>2020-06-12T10:51:28Z</time><name>PT5130</name></trkpt>
<trkpt lat="54.372974" lon="-3.130095"><ele>580</ele><time>2020-06-12T10:51:29Z</time><name>PT5131</name></trkpt>
<trkpt lat="54.372976" lon="-3.130095"><ele>580</ele><time>2020-06-12T10:51:30Z</time><name>PT5132</name></trkpt>
<trkpt lat="54.372970" lon="-3.130099"><ele>581</ele><time>2020-06-12T10:52:46Z</time><name>PT5133</name></trkpt>
<trkpt lat="54.372971" lon="-3.130103"><ele>581</ele><time>2020-06-12T10:52:47Z</time><name>PT5134</name></trkpt>
<trkpt lat="54.372964" lon="-3.130101"><ele>581</ele><time>2020-06-12T10:52:48Z</time><name>PT5135</name></trkpt>
<trkpt lat="54.372961" lon="-3.130105"><ele>581</ele><time>2020-06-12T10:52:49Z</time><name>PT5136</name></trkpt>
<trkpt lat="54.372957" lon="-3.130116"><ele>582</ele><time>2020-06-12T10:52:50Z</time><name>PT5137</name></trkpt>
<trkpt lat="54.372954" lon="-3.130121"><ele>582</ele><time>2020-06-12T10:52:51Z</time><name>PT5138</name></trkpt>
<trkpt lat="54.372951" lon="-3.130122"><ele>581</ele><time>2020-06-12T10:52:52Z</time><name>PT5139</name></trkpt>
<trkpt lat="54.372951" lon="-3.130131"><ele>581</ele><time>2020-06-12T10:52:53Z</time><name>PT5140</name></trkpt>
<trkpt lat="54.372948" lon="-3.130132"><ele>581</ele><time>2020-06-12T10:52:54Z</time><name>PT5141</name></trkpt>
<trkpt lat="54.372952" lon="-3.130136"><ele>580</ele><time>2020-06-12T10:52:55Z</time><name>PT5142</name></trkpt>
<trkpt lat="54.372957" lon="-3.130142"><ele>579</ele><time>2020-06-12T10:52:56Z</time><name>PT5143</name></trkpt>
<trkpt lat="54.372958" lon="-3.130151"><ele>578</ele><time>2020-06-12T10:52:57Z</time><name>PT5144</name></trkpt>
<trkpt lat="54.372960" lon="-3.130159"><ele>578</ele><time>2020-06-12T10:52:58Z</time><name>PT5145</name></trkpt>
<trkpt lat="54.372958" lon="-3.130169"><ele>577</ele><time>2020-06-12T10:52:59Z</time><name>PT5146</name></trkpt>
<trkpt lat="54.372960" lon="-3.130171"><ele>577</ele><time>2020-06-12T10:53:00Z</time><name>PT5147</name></trkpt>
<trkpt lat="54.372958" lon="-3.130174"><ele>577</ele><time>2020-06-12T10:53:01Z</time><name>PT5148</name></trkpt>
<trkpt lat="54.372957" lon="-3.130194"><ele>579</ele><time>2020-06-12T10:53:02Z</time><name>PT5149</name></trkpt>
<trkpt lat="54.372962" lon="-3.130196"><ele>578</ele><time>2020-06-12T10:53:03Z</time><name>PT5150</name></trkpt>
<trkpt lat="54.372963" lon="-3.130211"><ele>579</ele><time>2020-06-12T10:53:04Z</time><name>PT5151</name></trkpt>
<trkpt lat="54.372965" lon="-3.130203"><ele>581</ele><time>2020-06-12T10:53:05Z</time><name>PT5152</name></trkpt>
<trkpt lat="54.372970" lon="-3.130208"><ele>582</ele><time>2020-06-12T10:53:06Z</time><name>PT5153</name></trkpt>
<trkpt lat="54.372971" lon="-3.130218"><ele>583</ele><time>2020-06-12T10:53:07Z</time><name>PT5154</name></trkpt>
<trkpt lat="54.372978" lon="-3.130226"><ele>583</ele><time>2020-06-12T10:53:08Z</time><name>PT5155</name></trkpt>
<trkpt lat="54.372983" lon="-3.130229"><ele>583</ele><time>2020-06-12T10:53:09Z</time><name>PT5156</name></trkpt>
<trkpt lat="54.372988" lon="-3.130230"><ele>583</ele><time>2020-06-12T10:53:10Z</time><name>PT5157</name></trkpt>
<trkpt lat="54.372997" lon="-3.130228"><ele>583</ele><time>2020-06-12T10:53:11Z</time><name>PT5158</name></trkpt>
<trkpt lat="54.373000" lon="-3.130225"><ele>584</ele><time>2020-06-12T10:53:12Z</time><name>PT5159</name></trkpt>
<trkpt lat="54.373005" lon="-3.130229"><ele>583</ele><time>2020-06-12T10:53:13Z</time><name>PT5160</name></trkpt>
<trkpt lat="54.373009" lon="-3.130227"><ele>582</ele><time>2020-06-12T10:53:14Z</time><name>PT5161</name></trkpt>
<trkpt lat="54.373016" lon="-3.130257"><ele>581</ele><time>2020-06-12T10:53:15Z</time><name>PT5162</name></trkpt>
<trkpt lat="54.373020" lon="-3.130245"><ele>581</ele><time>2020-06-12T10:53:16Z</time><name>PT5163</name></trkpt>
<trkpt lat="54.373026" lon="-3.130238"><ele>581</ele><time>2020-06-12T10:53:17Z</time><name>PT5164</name></trkpt>
<trkpt lat="54.373035" lon="-3.130226"><ele>580</ele><time>2020-06-12T10:53:18Z</time><name>PT5165</name></trkpt>
<trkpt lat="54.373042" lon="-3.130224"><ele>580</ele><time>2020-06-12T10:53:19Z</time><name>PT5166</name></trkpt>
<trkpt lat="54.373047" lon="-3.130215"><ele>580</ele><time>2020-06-12T10:53:22Z</time><name>PT5167</name></trkpt>
<trkpt lat="54.373059" lon="-3.130206"><ele>581</ele><time>2020-06-12T10:53:23Z</time><name>PT5168</name></trkpt>
<trkpt lat="54.373065" lon="-3.130212"><ele>581</ele><time>2020-06-12T10:53:24Z</time><name>PT5169</name></trkpt>
<trkpt lat="54.373060" lon="-3.130192"><ele>580</ele><time>2020-06-12T10:53:25Z</time><name>PT5170</name></trkpt>
<trkpt lat="54.373069" lon="-3.130179"><ele>579</ele><time>2020-06-12T10:53:26Z</time><name>PT5171</name></trkpt>
<trkpt lat="54.373076" lon="-3.130177"><ele>579</ele><time>2020-06-12T10:53:27Z</time><name>PT5172</name></trkpt>
<trkpt lat="54.373085" lon="-3.130179"><ele>579</ele><time>2020-06-12T10:53:28Z</time><name>PT5173</name></trkpt>
<trkpt lat="54.373092" lon="-3.130180"><ele>579</ele><time>2020-06-12T10:53:29Z</time><name>PT5174</name></trkpt>
<trkpt lat="54.373096" lon="-3.130178"><ele>580</ele><time>2020-06-12T10:53:30Z</time><name>PT5175</name></trkpt>
<trkpt lat="54.373104" lon="-3.130175"><ele>581</ele><time>2020-06-12T10:53:31Z</time><name>PT5176</name></trkpt>
<trkpt lat="54.373108" lon="-3.130173"><ele>581</ele><time>2020-06-12T10:53:32Z</time><name>PT5177</name></trkpt>
<trkpt lat="54.373116" lon="-3.130171"><ele>580</ele><time>2020-06-12T10:53:33Z</time><name>PT5178</name></trkpt>
<trkpt lat="54.373120" lon="-3.130168"><ele>581</ele><time>2020-06-12T10:53:34Z</time><name>PT5179</name></trkpt>
<trkpt lat="54.373122" lon="-3.130165"><ele>581</ele><time>2020-06-12T10:53:35Z</time><name>PT5180</name></trkpt>
<trkpt lat="54.373128" lon="-3.130156"><ele>581</ele><time>2020-06-12T10:53:36Z</time><name>PT5181</name></trkpt>
<trkpt lat="54.373134" lon="-3.130157"><ele>581</ele><time>2020-06-12T10:53:37Z</time><name>PT5182</name></trkpt>
<trkpt lat="54.373136" lon="-3.130154"><ele>582</ele><time>2020-06-12T10:53:38Z</time><name>PT5183</name></trkpt>
<trkpt lat="54.373141" lon="-3.130154"><ele>582</ele><time>2020-06-12T10:53:39Z</time><name>PT5184</name></trkpt>
<trkpt lat="54.373146" lon="-3.130154"><ele>582</ele><time>2020-06-12T10:53:40Z</time><name>PT5185</name></trkpt>
<trkpt lat="54.373152" lon="-3.130152"><ele>583</ele><time>2020-06-12T10:53:41Z</time><name>PT5186</name></trkpt>
<trkpt lat="54.373163" lon="-3.130147"><ele>582</ele><time>2020-06-12T10:53:42Z</time><name>PT5187</name></trkpt>
<trkpt lat="54.373169" lon="-3.130139"><ele>583</ele><time>2020-06-12T10:53:43Z</time><name>PT5188</name></trkpt>
<trkpt lat="54.373173" lon="-3.130137"><ele>582</ele><time>2020-06-12T10:53:44Z</time><name>PT5189</name></trkpt>
<trkpt lat="54.373183" lon="-3.130146"><ele>582</ele><time>2020-06-12T10:53:45Z</time><name>PT5190</name></trkpt>
<trkpt lat="54.373184" lon="-3.130150"><ele>583</ele><time>2020-06-12T10:53:46Z</time><name>PT5191</name></trkpt>
<trkpt lat="54.373187" lon="-3.130162"><ele>583</ele><time>2020-06-12T10:53:47Z</time><name>PT5192</name></trkpt>
<trkpt lat="54.373190" lon="-3.130160"><ele>583</ele><time>2020-06-12T10:53:48Z</time><name>PT5193</name></trkpt>
<trkpt lat="54.373194" lon="-3.130163"><ele>584</ele><time>2020-06-12T10:53:49Z</time><name>PT5194</name></trkpt>
<trkpt lat="54.373198" lon="-3.130160"><ele>584</ele><time>2020-06-12T10:53:50Z</time><name>PT5195</name></trkpt>
<trkpt lat="54.373202" lon="-3.130156"><ele>584</ele><time>2020-06-12T10:53:51Z</time><name>PT5196</name></trkpt>
<trkpt lat="54.373205" lon="-3.130152"><ele>584</ele><time>2020-06-12T10:53:52Z</time><name>PT5197</name></trkpt>
<trkpt lat="54.373205" lon="-3.130154"><ele>585</ele><time>2020-06-12T10:53:53Z</time><name>PT5198</name></trkpt>
<trkpt lat="54.373211" lon="-3.130159"><ele>585</ele><time>2020-06-12T10:53:54Z</time><name>PT5199</name></trkpt>
<trkpt lat="54.373218" lon="-3.130163"><ele>585</ele><time>2020-06-12T10:53:55Z</time><name>PT5200</name></trkpt>
<trkpt lat="54.373226" lon="-3.130159"><ele>585</ele><time>2020-06-12T10:53:56Z</time><name>PT5201</name></trkpt>
<trkpt lat="54.373232" lon="-3.130157"><ele>586</ele><time>2020-06-12T10:53:57Z</time><name>PT5202</name></trkpt>
<trkpt lat="54.373235" lon="-3.130157"><ele>587</ele><time>2020-06-12T10:53:58Z</time><name>PT5203</name></trkpt>
<trkpt lat="54.373235" lon="-3.130159"><ele>589</ele><time>2020-06-12T10:53:59Z</time><name>PT5204</name></trkpt>
<trkpt lat="54.373242" lon="-3.130151"><ele>589</ele><time>2020-06-12T10:54:00Z</time><name>PT5205</name></trkpt>
<trkpt lat="54.373248" lon="-3.130151"><ele>590</ele><time>2020-06-12T10:54:01Z</time><name>PT5206</name></trkpt>
<trkpt lat="54.373248" lon="-3.130141"><ele>591</ele><time>2020-06-12T10:54:02Z</time><name>PT5207</name></trkpt>
<trkpt lat="54.373252" lon="-3.130136"><ele>592</ele><time>2020-06-12T10:54:03Z</time><name>PT5208</name></trkpt>
<trkpt lat="54.373256" lon="-3.130131"><ele>592</ele><time>2020-06-12T10:54:04Z</time><name>PT5209</name></trkpt>
<trkpt lat="54.373260" lon="-3.130133"><ele>593</ele><time>2020-06-12T10:54:05Z</time><name>PT5210</name></trkpt>
<trkpt lat="54.373265" lon="-3.130139"><ele>593</ele><time>2020-06-12T10:54:06Z</time><name>PT5211</name></trkpt>
<trkpt lat="54.373272" lon="-3.130142"><ele>592</ele><time>2020-06-12T10:54:07Z</time><name>PT5212</name></trkpt>
<trkpt lat="54.373277" lon="-3.130145"><ele>592</ele><time>2020-06-12T10:54:08Z</time><name>PT5213</name></trkpt>
<trkpt lat="54.373282" lon="-3.130141"><ele>592</ele><time>2020-06-12T10:54:09Z</time><name>PT5214</name></trkpt>
<trkpt lat="54.373286" lon="-3.130147"><ele>592</ele><time>2020-06-12T10:54:10Z</time><name>PT5215</name></trkpt>
<trkpt lat="54.373295" lon="-3.130143"><ele>592</ele><time>2020-06-12T10:54:11Z</time><name>PT5216</name></trkpt>
<trkpt lat="54.373305" lon="-3.130145"><ele>591</ele><time>2020-06-12T10:54:13Z</time><name>PT5217</name></trkpt>
<trkpt lat="54.373311" lon="-3.130148"><ele>591</ele><time>2020-06-12T10:54:13Z</time><name>PT5218</name></trkpt>
<trkpt lat="54.373318" lon="-3.130149"><ele>591</ele><time>2020-06-12T10:54:14Z</time><name>PT5219</name></trkpt>
<trkpt lat="54.373324" lon="-3.130148"><ele>591</ele><time>2020-06-12T10:54:15Z</time><name>PT5220</name></trkpt>
<trkpt lat="54.373329" lon="-3.130147"><ele>591</ele><time>2020-06-12T10:54:16Z</time><name>PT5221</name></trkpt>
<trkpt lat="54.373331" lon="-3.130152"><ele>592</ele><time>2020-06-12T10:54:17Z</time><name>PT5222</name></trkpt>
<trkpt lat="54.373338" lon="-3.130153"><ele>592</ele><time>2020-06-12T10:54:18Z</time><name>PT5223</name></trkpt>
<trkpt lat="54.373344" lon="-3.130159"><ele>592</ele><time>2020-06-12T10:54:19Z</time><name>PT5224</name></trkpt>
<trkpt lat="54.373347" lon="-3.130162"><ele>593</ele><time>2020-06-12T10:54:20Z</time><name>PT5225</name></trkpt>
<trkpt lat="54.373360" lon="-3.130161"><ele>592</ele><time>2020-06-12T10:54:21Z</time><name>PT5226</name></trkpt>
<trkpt lat="54.373366" lon="-3.130158"><ele>593</ele><time>2020-06-12T10:54:22Z</time><name>PT5227</name></trkpt>
<trkpt lat="54.373377" lon="-3.130156"><ele>592</ele><time>2020-06-12T10:54:23Z</time><name>PT5228</name></trkpt>
<trkpt lat="54.373385" lon="-3.130155"><ele>592</ele><time>2020-06-12T10:54:24Z</time><name>PT5229</name></trkpt>
<trkpt lat="54.373390" lon="-3.130156"><ele>593</ele><time>2020-06-12T10:54:25Z</time><name>PT5230</name></trkpt>
<trkpt lat="54.373400" lon="-3.130156"><ele>593</ele><time>2020-06-12T10:54:26Z</time><name>PT5231</name></trkpt>
<trkpt lat="54.373407" lon="-3.130155"><ele>593</ele><time>2020-06-12T10:54:27Z</time><name>PT5232</name></trkpt>
<trkpt lat="54.373413" lon="-3.130161"><ele>592</ele><time>2020-06-12T10:54:28Z</time><name>PT5233</name></trkpt>
<trkpt lat="54.373416" lon="-3.130162"><ele>593</ele><time>2020-06-12T10:54:29Z</time><name>PT5234</name></trkpt>
<trkpt lat="54.373418" lon="-3.130162"><ele>593</ele><time>2020-06-12T10:54:30Z</time><name>PT5235</name></trkpt>
<trkpt lat="54.373417" lon="-3.130169"><ele>593</ele><time>2020-06-12T10:54:31Z</time><name>PT5236</name></trkpt>
<trkpt lat="54.373438" lon="-3.130166"><ele>593</ele><time>2020-06-12T10:54:33Z</time><name>PT5237</name></trkpt>
<trkpt lat="54.373447" lon="-3.130152"><ele>593</ele><time>2020-06-12T10:54:34Z</time><name>PT5238</name></trkpt>
<trkpt lat="54.373456" lon="-3.130164"><ele>593</ele><time>2020-06-12T10:54:35Z</time><name>PT5239</name></trkpt>
<trkpt lat="54.373468" lon="-3.130189"><ele>594</ele><time>2020-06-12T10:54:36Z</time><name>PT5240</name></trkpt>
<trkpt lat="54.373470" lon="-3.130192"><ele>594</ele><time>2020-06-12T10:54:37Z</time><name>PT5241</name></trkpt>
<trkpt lat="54.373475" lon="-3.130191"><ele>593</ele><time>2020-06-12T10:54:38Z</time><name>PT5242</name></trkpt>
<trkpt lat="54.373475" lon="-3.130197"><ele>593</ele><time>2020-06-12T10:54:39Z</time><name>PT5243</name></trkpt>
<trkpt lat="54.373472" lon="-3.130196"><ele>593</ele><time>2020-06-12T10:54:40Z</time><name>PT5244</name></trkpt>
<trkpt lat="54.373480" lon="-3.130199"><ele>593</ele><time>2020-06-12T10:54:41Z</time><name>PT5245</name></trkpt>
<trkpt lat="54.373487" lon="-3.130199"><ele>593</ele><time>2020-06-12T10:54:42Z</time><name>PT5246</name></trkpt>
<trkpt lat="54.373491" lon="-3.130202"><ele>593</ele><time>2020-06-12T10:54:43Z</time><name>PT5247</name></trkpt>
<trkpt lat="54.373493" lon="-3.130203"><ele>594</ele><time>2020-06-12T10:54:44Z</time><name>PT5248</name></trkpt>
<trkpt lat="54.373502" lon="-3.130201"><ele>595</ele><time>2020-06-12T10:54:45Z</time><name>PT5249</name></trkpt>
<trkpt lat="54.373510" lon="-3.130198"><ele>594</ele><time>2020-06-12T10:54:46Z</time><name>PT5250</name></trkpt>
<trkpt lat="54.373517" lon="-3.130202"><ele>594</ele><time>2020-06-12T10:54:47Z</time><name>PT5251</name></trkpt>
<trkpt lat="54.373520" lon="-3.130206"><ele>594</ele><time>2020-06-12T10:54:48Z</time><name>PT5252</name></trkpt>
<trkpt lat="54.373524" lon="-3.130206"><ele>594</ele><time>2020-06-12T10:54:49Z</time><name>PT5253</name></trkpt>
<trkpt lat="54.373532" lon="-3.130202"><ele>594</ele><time>2020-06-12T10:54:50Z</time><name>PT5254</name></trkpt>
<trkpt lat="54.373541" lon="-3.130205"><ele>593</ele><time>2020-06-12T10:54:51Z</time><name>PT5255</name></trkpt>
<trkpt lat="54.373548" lon="-3.130211"><ele>593</ele><time>2020-06-12T10:54:52Z</time><name>PT5256</name></trkpt>
<trkpt lat="54.373553" lon="-3.130209"><ele>594</ele><time>2020-06-12T10:54:53Z</time><name>PT5257</name></trkpt>
<trkpt lat="54.373559" lon="-3.130208"><ele>594</ele><time>2020-06-12T10:54:54Z</time><name>PT5258</name></trkpt>
<trkpt lat="54.373556" lon="-3.130189"><ele>595</ele><time>2020-06-12T10:54:55Z</time><name>PT5259</name></trkpt>
<trkpt lat="54.373563" lon="-3.130187"><ele>595</ele><time>2020-06-12T10:54:56Z</time><name>PT5260</name></trkpt>
<trkpt lat="54.373570" lon="-3.130183"><ele>595</ele><time>2020-06-12T10:54:57Z</time><name>PT5261</name></trkpt>
<trkpt lat="54.373568" lon="-3.130181"><ele>596</ele><time>2020-06-12T10:54:58Z</time><name>PT5262</name></trkpt>
<trkpt lat="54.373568" lon="-3.130178"><ele>597</ele><time>2020-06-12T10:54:59Z</time><name>PT5263</name></trkpt>
<trkpt lat="54.373567" lon="-3.130181"><ele>597</ele><time>2020-06-12T10:55:00Z</time><name>PT5264</name></trkpt>
<trkpt lat="54.373571" lon="-3.130178"><ele>597</ele><time>2020-06-12T10:55:01Z</time><name>PT5265</name></trkpt>
<trkpt lat="54.373577" lon="-3.130175"><ele>597</ele><time>2020-06-12T10:55:02Z</time><name>PT5266</name></trkpt>
<trkpt lat="54.373583" lon="-3.130177"><ele>598</ele><time>2020-06-12T10:55:03Z</time><name>PT5267</name></trkpt>
<trkpt lat="54.373591" lon="-3.130172"><ele>598</ele><time>2020-06-12T10:55:05Z</time><name>PT5268</name></trkpt>
<trkpt lat="54.373597" lon="-3.130167"><ele>598</ele><time>2020-06-12T10:55:06Z</time><name>PT5269</name></trkpt>
<trkpt lat="54.373603" lon="-3.130173"><ele>599</ele><time>2020-06-12T10:55:07Z</time><name>PT5270</name></trkpt>
<trkpt lat="54.373607" lon="-3.130173"><ele>599</ele><time>2020-06-12T10:55:08Z</time><name>PT5271</name></trkpt>
<trkpt lat="54.373603" lon="-3.130175"><ele>600</ele><time>2020-06-12T10:55:09Z</time><name>PT5272</name></trkpt>
<trkpt lat="54.373604" lon="-3.130180"><ele>600</ele><time>2020-06-12T10:55:10Z</time><name>PT5273</name></trkpt>
<trkpt lat="54.373603" lon="-3.130184"><ele>600</ele><time>2020-06-12T10:55:11Z</time><name>PT5274</name></trkpt>
<trkpt lat="54.373609" lon="-3.130191"><ele>600</ele><time>2020-06-12T10:55:12Z</time><name>PT5275</name></trkpt>
<trkpt lat="54.373613" lon="-3.130198"><ele>600</ele><time>2020-06-12T10:55:13Z</time><name>PT5276</name></trkpt>
<trkpt lat="54.373613" lon="-3.130207"><ele>600</ele><time>2020-06-12T10:55:14Z</time><name>PT5277</name></trkpt>
<trkpt lat="54.373613" lon="-3.130213"><ele>600</ele><time>2020-06-12T10:55:15Z</time><name>PT5278</name></trkpt>
<trkpt lat="54.373614" lon="-3.130215"><ele>601</ele><time>2020-06-12T10:55:16Z</time><name>PT5279</name></trkpt>
<trkpt lat="54.373614" lon="-3.130222"><ele>602</ele><time>2020-06-12T10:55:17Z</time><name>PT5280</name></trkpt>
<trkpt lat="54.373613" lon="-3.130218"><ele>603</ele><time>2020-06-12T10:55:18Z</time><name>PT5281</name></trkpt>
<trkpt lat="54.373610" lon="-3.130213"><ele>604</ele><time>2020-06-12T10:55:19Z</time><name>PT5282</name></trkpt>
<trkpt lat="54.373607" lon="-3.130210"><ele>604</ele><time>2020-06-12T10:55:20Z</time><name>PT5283</name></trkpt>
<trkpt lat="54.373614" lon="-3.130208"><ele>605</ele><time>2020-06-12T10:55:21Z</time><name>PT5284</name></trkpt>
<trkpt lat="54.373624" lon="-3.130201"><ele>605</ele><time>2020-06-12T10:55:22Z</time><name>PT5285</name></trkpt>
<trkpt lat="54.373633" lon="-3.130199"><ele>605</ele><time>2020-06-12T10:55:23Z</time><name>PT5286</name></trkpt>
<trkpt lat="54.373641" lon="-3.130207"><ele>604</ele><time>2020-06-12T10:55:24Z</time><name>PT5287</name></trkpt>
<trkpt lat="54.373645" lon="-3.130216"><ele>604</ele><time>2020-06-12T10:55:25Z</time><name>PT5288</name></trkpt>
<trkpt lat="54.373646" lon="-3.130217"><ele>604</ele><time>2020-06-12T10:55:26Z</time><name>PT5289</name></trkpt>
<trkpt lat="54.373651" lon="-3.130219"><ele>605</ele><time>2020-06-12T10:55:27Z</time><name>PT5290</name></trkpt>
<trkpt lat="54.373657" lon="-3.130225"><ele>605</ele><time>2020-06-12T10:55:28Z</time><name>PT5291</name></trkpt>
<trkpt lat="54.373658" lon="-3.130234"><ele>605</ele><time>2020-06-12T10:55:29Z</time><name>PT5292</name></trkpt>
<trkpt lat="54.373661" lon="-3.130248"><ele>605</ele><time>2020-06-12T10:55:30Z</time><name>PT5293</name></trkpt>
<trkpt lat="54.373665" lon="-3.130250"><ele>604</ele><time>2020-06-12T10:55:31Z</time><name>PT5294</name></trkpt>
<trkpt lat="54.373665" lon="-3.130247"><ele>605</ele><time>2020-06-12T10:55:32Z</time><name>PT5295</name></trkpt>
<trkpt lat="54.373668" lon="-3.130252"><ele>606</ele><time>2020-06-12T10:55:33Z</time><name>PT5296</name></trkpt>
<trkpt lat="54.373673" lon="-3.130257"><ele>606</ele><time>2020-06-12T10:55:34Z</time><name>PT5297</name></trkpt>
<trkpt lat="54.373674" lon="-3.130262"><ele>607</ele><time>2020-06-12T10:55:35Z</time><name>PT5298</name></trkpt>
<trkpt lat="54.373676" lon="-3.130269"><ele>607</ele><time>2020-06-12T10:55:36Z</time><name>PT5299</name></trkpt>
<trkpt lat="54.373676" lon="-3.130284"><ele>607</ele><time>2020-06-12T10:55:37Z</time><name>PT5300</name></trkpt>
<trkpt lat="54.373676" lon="-3.130291"><ele>608</ele><time>2020-06-12T10:55:38Z</time><name>PT5301</name></trkpt>
<trkpt lat="54.373685" lon="-3.130295"><ele>608</ele><time>2020-06-12T10:55:39Z</time><name>PT5302</name></trkpt>
<trkpt lat="54.373689" lon="-3.130297"><ele>608</ele><time>2020-06-12T10:55:40Z</time><name>PT5303</name></trkpt>
<trkpt lat="54.373698" lon="-3.130303"><ele>608</ele><time>2020-06-12T10:55:41Z</time><name>PT5304</name></trkpt>
<trkpt lat="54.373704" lon="-3.130307"><ele>609</ele><time>2020-06-12T10:55:42Z</time><name>PT5305</name></trkpt>
<trkpt lat="54.373705" lon="-3.130315"><ele>610</ele><time>2020-06-12T10:55:43Z</time><name>PT5306</name></trkpt>
<trkpt lat="54.373706" lon="-3.130319"><ele>610</ele><time>2020-06-12T10:55:44Z</time><name>PT5307</name></trkpt>
<trkpt lat="54.373709" lon="-3.130323"><ele>610</ele><time>2020-06-12T10:55:45Z</time><name>PT5308</name></trkpt>
<trkpt lat="54.373711" lon="-3.130327"><ele>610</ele><time>2020-06-12T10:55:46Z</time><name>PT5309</name></trkpt>
<trkpt lat="54.373713" lon="-3.130334"><ele>611</ele><time>2020-06-12T10:55:47Z</time><name>PT5310</name></trkpt>
<trkpt lat="54.373716" lon="-3.130342"><ele>612</ele><time>2020-06-12T10:55:48Z</time><name>PT5311</name></trkpt>
<trkpt lat="54.373713" lon="-3.130360"><ele>613</ele><time>2020-06-12T10:55:49Z</time><name>PT5312</name></trkpt>
<trkpt lat="54.373718" lon="-3.130371"><ele>613</ele><time>2020-06-12T10:55:50Z</time><name>PT5313</name></trkpt>
<trkpt lat="54.373722" lon="-3.130375"><ele>614</ele><time>2020-06-12T10:55:51Z</time><name>PT5314</name></trkpt>
<trkpt lat="54.373726" lon="-3.130373"><ele>613</ele><time>2020-06-12T10:55:52Z</time><name>PT5315</name></trkpt>
<trkpt lat="54.373727" lon="-3.130377"><ele>614</ele><time>2020-06-12T10:55:53Z</time><name>PT5316</name></trkpt>
<trkpt lat="54.373735" lon="-3.130388"><ele>616</ele><time>2020-06-12T10:55:54Z</time><name>PT5317</name></trkpt>
<trkpt lat="54.373741" lon="-3.130397"><ele>616</ele><time>2020-06-12T10:55:55Z</time><name>PT5318</name></trkpt>
<trkpt lat="54.373745" lon="-3.130403"><ele>616</ele><time>2020-06-12T10:55:56Z</time><name>PT5319</name></trkpt>
<trkpt lat="54.373748" lon="-3.130405"><ele>616</ele><time>2020-06-12T10:55:57Z</time><name>PT5320</name></trkpt>
<trkpt lat="54.373750" lon="-3.130409"><ele>617</ele><time>2020-06-12T10:55:58Z</time><name>PT5321</name></trkpt>
<trkpt lat="54.373751" lon="-3.130418"><ele>616</ele><time>2020-06-12T10:56:00Z</time><name>PT5322</name></trkpt>
<trkpt lat="54.373757" lon="-3.130429"><ele>616</ele><time>2020-06-12T10:56:01Z</time><name>PT5323</name></trkpt>
<trkpt lat="54.373758" lon="-3.130401"><ele>615</ele><time>2020-06-12T10:56:02Z</time><name>PT5324</name></trkpt>
<trkpt lat="54.373764" lon="-3.130402"><ele>615</ele><time>2020-06-12T10:56:03Z</time><name>PT5325</name></trkpt>
<trkpt lat="54.373769" lon="-3.130405"><ele>615</ele><time>2020-06-12T10:56:04Z</time><name>PT5326</name></trkpt>
<trkpt lat="54.373772" lon="-3.130409"><ele>615</ele><time>2020-06-12T10:56:05Z</time><name>PT5327</name></trkpt>
<trkpt lat="54.373770" lon="-3.130394"><ele>617</ele><time>2020-06-12T10:56:06Z</time><name>PT5328</name></trkpt>
<trkpt lat="54.373761" lon="-3.130407"><ele>617</ele><time>2020-06-12T10:56:07Z</time><name>PT5329</name></trkpt>
<trkpt lat="54.373766" lon="-3.130403"><ele>618</ele><time>2020-06-12T10:56:08Z</time><name>PT5330</name></trkpt>
<trkpt lat="54.373771" lon="-3.130405"><ele>618</ele><time>2020-06-12T10:56:09Z</time><name>PT5331</name></trkpt>
<trkpt lat="54.373780" lon="-3.130412"><ele>619</ele><time>2020-06-12T10:56:10Z</time><name>PT5332</name></trkpt>
<trkpt lat="54.373784" lon="-3.130420"><ele>619</ele><time>2020-06-12T10:56:11Z</time><name>PT5333</name></trkpt>
<trkpt lat="54.373785" lon="-3.130428"><ele>620</ele><time>2020-06-12T10:56:12Z</time><name>PT5334</name></trkpt>
<trkpt lat="54.373790" lon="-3.130421"><ele>621</ele><time>2020-06-12T10:56:13Z</time><name>PT5335</name></trkpt>
<trkpt lat="54.373793" lon="-3.130421"><ele>621</ele><time>2020-06-12T10:56:14Z</time><name>PT5336</name></trkpt>
<trkpt lat="54.373798" lon="-3.130424"><ele>620</ele><time>2020-06-12T10:56:15Z</time><name>PT5337</name></trkpt>
<trkpt lat="54.373798" lon="-3.130426"><ele>620</ele><time>2020-06-12T10:56:16Z</time><name>PT5338</name></trkpt>
<trkpt lat="54.373801" lon="-3.130425"><ele>621</ele><time>2020-06-12T10:56:17Z</time><name>PT5339</name></trkpt>
<trkpt lat="54.373804" lon="-3.130426"><ele>620</ele><time>2020-06-12T10:56:18Z</time><name>PT5340</name></trkpt>
<trkpt lat="54.373814" lon="-3.130425"><ele>622</ele><time>2020-06-12T10:56:39Z</time><name>PT5341</name></trkpt>
<trkpt lat="54.373825" lon="-3.130428"><ele>622</ele><time>2020-06-12T10:56:40Z</time><name>PT5342</name></trkpt>
<trkpt lat="54.373840" lon="-3.130467"><ele>623</ele><time>2020-06-12T10:56:41Z</time><name>PT5343</name></trkpt>
<trkpt lat="54.373846" lon="-3.130465"><ele>623</ele><time>2020-06-12T10:56:42Z</time><name>PT5344</name></trkpt>
<trkpt lat="54.373851" lon="-3.130487"><ele>623</ele><time>2020-06-12T10:56:43Z</time><name>PT5345</name></trkpt>
<trkpt lat="54.373854" lon="-3.130490"><ele>623</ele><time>2020-06-12T10:56:44Z</time><name>PT5346</name></trkpt>
<trkpt lat="54.373863" lon="-3.130495"><ele>624</ele><time>2020-06-12T10:56:45Z</time><name>PT5347</name></trkpt>
<trkpt lat="54.373870" lon="-3.130498"><ele>624</ele><time>2020-06-12T10:56:46Z</time><name>PT5348</name></trkpt>
<trkpt lat="54.373874" lon="-3.130500"><ele>624</ele><time>2020-06-12T10:56:47Z</time><name>PT5349</name></trkpt>
<trkpt lat="54.373877" lon="-3.130521"><ele>624</ele><time>2020-06-12T10:56:48Z</time><name>PT5350</name></trkpt>
<trkpt lat="54.373880" lon="-3.130528"><ele>625</ele><time>2020-06-12T10:56:53Z</time><name>PT5351</name></trkpt>
<trkpt lat="54.373884" lon="-3.130543"><ele>626</ele><time>2020-06-12T10:56:54Z</time><name>PT5352</name></trkpt>
<trkpt lat="54.373890" lon="-3.130545"><ele>626</ele><time>2020-06-12T10:56:55Z</time><name>PT5353</name></trkpt>
<trkpt lat="54.373893" lon="-3.130544"><ele>626</ele><time>2020-06-12T10:56:56Z</time><name>PT5354</name></trkpt>
<trkpt lat="54.373901" lon="-3.130535"><ele>626</ele><time>2020-06-12T10:56:57Z</time><name>PT5355</name></trkpt>
<trkpt lat="54.373898" lon="-3.130536"><ele>627</ele><time>2020-06-12T10:56:58Z</time><name>PT5356</name></trkpt>
<trkpt lat="54.373904" lon="-3.130528"><ele>627</ele><time>2020-06-12T10:56:59Z</time><name>PT5357</name></trkpt>
<trkpt lat="54.373908" lon="-3.130527"><ele>626</ele><time>2020-06-12T10:57:00Z</time><name>PT5358</name></trkpt>
<trkpt lat="54.373912" lon="-3.130528"><ele>627</ele><time>2020-06-12T10:57:01Z</time><name>PT5359</name></trkpt>
<trkpt lat="54.373918" lon="-3.130526"><ele>627</ele><time>2020-06-12T10:57:02Z</time><name>PT5360</name></trkpt>
<trkpt lat="54.373928" lon="-3.130515"><ele>627</ele><time>2020-06-12T10:57:03Z</time><name>PT5361</name></trkpt>
<trkpt lat="54.373935" lon="-3.130513"><ele>627</ele><time>2020-06-12T10:57:04Z</time><name>PT5362</name></trkpt>
<trkpt lat="54.373947" lon="-3.130511"><ele>628</ele><time>2020-06-12T10:57:05Z</time><name>PT5363</name></trkpt>
<trkpt lat="54.373952" lon="-3.130508"><ele>628</ele><time>2020-06-12T10:57:06Z</time><name>PT5364</name></trkpt>
<trkpt lat="54.373956" lon="-3.130494"><ele>631</ele><time>2020-06-12T10:57:07Z</time><name>PT5365</name></trkpt>
<trkpt lat="54.373963" lon="-3.130496"><ele>631</ele><time>2020-06-12T10:57:08Z</time><name>PT5366</name></trkpt>
<trkpt lat="54.373969" lon="-3.130493"><ele>631</ele><time>2020-06-12T10:57:09Z</time><name>PT5367</name></trkpt>
<trkpt lat="54.373970" lon="-3.130497"><ele>630</ele><time>2020-06-12T10:57:10Z</time><name>PT5368</name></trkpt>
<trkpt lat="54.373971" lon="-3.130500"><ele>631</ele><time>2020-06-12T10:57:11Z</time><name>PT5369</name></trkpt>
<trkpt lat="54.373974" lon="-3.130500"><ele>630</ele><time>2020-06-12T10:57:12Z</time><name>PT5370</name></trkpt>
<trkpt lat="54.373976" lon="-3.130504"><ele>631</ele><time>2020-06-12T10:57:13Z</time><name>PT5371</name></trkpt>
<trkpt lat="54.373980" lon="-3.130506"><ele>630</ele><time>2020-06-12T10:57:14Z</time><name>PT5372</name></trkpt>
<trkpt lat="54.373981" lon="-3.130504"><ele>630</ele><time>2020-06-12T10:57:15Z</time><name>PT5373</name></trkpt>
<trkpt lat="54.373985" lon="-3.130504"><ele>630</ele><time>2020-06-12T10:57:16Z</time><name>PT5374</name></trkpt>
<trkpt lat="54.373989" lon="-3.130505"><ele>631</ele><time>2020-06-12T10:57:17Z</time><name>PT5375</name></trkpt>
<trkpt lat="54.373991" lon="-3.130508"><ele>631</ele><time>2020-06-12T10:57:18Z</time><name>PT5376</name></trkpt>
<trkpt lat="54.373996" lon="-3.130508"><ele>632</ele><time>2020-06-12T10:57:19Z</time><name>PT5377</name></trkpt>
<trkpt lat="54.374000" lon="-3.130512"><ele>631</ele><time>2020-06-12T10:57:20Z</time><name>PT5378</name></trkpt>
<trkpt lat="54.374003" lon="-3.130512"><ele>631</ele><time>2020-06-12T10:57:21Z</time><name>PT5379</name></trkpt>
<trkpt lat="54.374005" lon="-3.130514"><ele>631</ele><time>2020-06-12T10:57:22Z</time><name>PT5380</name></trkpt>
<trkpt lat="54.374005" lon="-3.130518"><ele>631</ele><time>2020-06-12T10:57:23Z</time><name>PT5381</name></trkpt>
<trkpt lat="54.374012" lon="-3.130519"><ele>631</ele><time>2020-06-12T10:57:24Z</time><name>PT5382</name></trkpt>
<trkpt lat="54.374018" lon="-3.130515"><ele>631</ele><time>2020-06-12T10:57:25Z</time><name>PT5383</name></trkpt>
<trkpt lat="54.374029" lon="-3.130512"><ele>631</ele><time>2020-06-12T10:57:26Z</time><name>PT5384</name></trkpt>
<trkpt lat="54.374035" lon="-3.130514"><ele>632</ele><time>2020-06-12T10:57:27Z</time><name>PT5385</name></trkpt>
<trkpt lat="54.374039" lon="-3.130515"><ele>632</ele><time>2020-06-12T10:57:28Z</time><name>PT5386</name></trkpt>
<trkpt lat="54.374041" lon="-3.130520"><ele>631</ele><time>2020-06-12T10:57:29Z</time><name>PT5387</name></trkpt>
<trkpt lat="54.374044" lon="-3.130522"><ele>631</ele><time>2020-06-12T10:57:30Z</time><name>PT5388</name></trkpt>
<trkpt lat="54.374042" lon="-3.130527"><ele>631</ele><time>2020-06-12T10:57:31Z</time><name>PT5389</name></trkpt>
<trkpt lat="54.374041" lon="-3.130525"><ele>632</ele><time>2020-06-12T10:57:32Z</time><name>PT5390</name></trkpt>
<trkpt lat="54.374042" lon="-3.130523"><ele>632</ele><time>2020-06-12T10:57:33Z</time><name>PT5391</name></trkpt>
<trkpt lat="54.374044" lon="-3.130524"><ele>633</ele><time>2020-06-12T10:57:34Z</time><name>PT5392</name></trkpt>
<trkpt lat="54.374046" lon="-3.130525"><ele>633</ele><time>2020-06-12T10:57:35Z</time><name>PT5393</name></trkpt>
<trkpt lat="54.374047" lon="-3.130528"><ele>633</ele><time>2020-06-12T10:57:36Z</time><name>PT5394</name></trkpt>
<trkpt lat="54.374050" lon="-3.130532"><ele>633</ele><time>2020-06-12T10:57:37Z</time><name>PT5395</name></trkpt>
<trkpt lat="54.374054" lon="-3.130535"><ele>633</ele><time>2020-06-12T10:57:38Z</time><name>PT5396</name></trkpt>
<trkpt lat="54.374059" lon="-3.130534"><ele>634</ele><time>2020-06-12T10:57:39Z</time><name>PT5397</name></trkpt>
<trkpt lat="54.374058" lon="-3.130537"><ele>634</ele><time>2020-06-12T10:57:40Z</time><name>PT5398</name></trkpt>
<trkpt lat="54.374061" lon="-3.130538"><ele>634</ele><time>2020-06-12T10:57:41Z</time><name>PT5399</name></trkpt>
<trkpt lat="54.374067" lon="-3.130535"><ele>635</ele><time>2020-06-12T10:57:42Z</time><name>PT5400</name></trkpt>
<trkpt lat="54.374068" lon="-3.130536"><ele>635</ele><time>2020-06-12T10:57:43Z</time><name>PT5401</name></trkpt>
<trkpt lat="54.374073" lon="-3.130532"><ele>636</ele><time>2020-06-12T10:57:44Z</time><name>PT5402</name></trkpt>
<trkpt lat="54.374077" lon="-3.130531"><ele>636</ele><time>2020-06-12T10:57:45Z</time><name>PT5403</name></trkpt>
<trkpt lat="54.374081" lon="-3.130524"><ele>636</ele><time>2020-06-12T10:57:46Z</time><name>PT5404</name></trkpt>
<trkpt lat="54.374086" lon="-3.130527"><ele>636</ele><time>2020-06-12T10:57:47Z</time><name>PT5405</name></trkpt>
<trkpt lat="54.374088" lon="-3.130528"><ele>635</ele><time>2020-06-12T10:57:48Z</time><name>PT5406</name></trkpt>
<trkpt lat="54.374092" lon="-3.130532"><ele>636</ele><time>2020-06-12T10:57:49Z</time><name>PT5407</name></trkpt>
<trkpt lat="54.374090" lon="-3.130536"><ele>637</ele><time>2020-06-12T10:57:50Z</time><name>PT5408</name></trkpt>
<trkpt lat="54.374094" lon="-3.130539"><ele>637</ele><time>2020-06-12T10:57:51Z</time><name>PT5409</name></trkpt>
<trkpt lat="54.374094" lon="-3.130539"><ele>637</ele><time>2020-06-12T10:57:52Z</time><name>PT5410</name></trkpt>
<trkpt lat="54.374098" lon="-3.130542"><ele>638</ele><time>2020-06-12T10:57:53Z</time><name>PT5411</name></trkpt>
<trkpt lat="54.374099" lon="-3.130542"><ele>638</ele><time>2020-06-12T10:57:54Z</time><name>PT5412</name></trkpt>
<trkpt lat="54.374100" lon="-3.130541"><ele>638</ele><time>2020-06-12T10:57:55Z</time><name>PT5413</name></trkpt>
<trkpt lat="54.374101" lon="-3.130542"><ele>639</ele><time>2020-06-12T10:57:56Z</time><name>PT5414</name></trkpt>
<trkpt lat="54.374107" lon="-3.130545"><ele>638</ele><time>2020-06-12T10:57:57Z</time><name>PT5415</name></trkpt>
<trkpt lat="54.374109" lon="-3.130544"><ele>638</ele><time>2020-06-12T10:57:58Z</time><name>PT5416</name></trkpt>
<trkpt lat="54.374113" lon="-3.130542"><ele>639</ele><time>2020-06-12T10:57:59Z</time><name>PT5417</name></trkpt>
<trkpt lat="54.374117" lon="-3.130543"><ele>639</ele><time>2020-06-12T10:58:00Z</time><name>PT5418</name></trkpt>
<trkpt lat="54.374121" lon="-3.130544"><ele>639</ele><time>2020-06-12T10:58:01Z</time><name>PT5419</name></trkpt>
<trkpt lat="54.374124" lon="-3.130546"><ele>639</ele><time>2020-06-12T10:58:02Z</time><name>PT5420</name></trkpt>
<trkpt lat="54.374128" lon="-3.130548"><ele>640</ele><time>2020-06-12T10:58:03Z</time><name>PT5421</name></trkpt>
<trkpt lat="54.374132" lon="-3.130549"><ele>640</ele><time>2020-06-12T10:58:04Z</time><name>PT5422</name></trkpt>
<trkpt lat="54.374137" lon="-3.130555"><ele>640</ele><time>2020-06-12T10:58:05Z</time><name>PT5423</name></trkpt>
<trkpt lat="54.374143" lon="-3.130552"><ele>640</ele><time>2020-06-12T10:58:06Z</time><name>PT5424</name></trkpt>
<trkpt lat="54.374146" lon="-3.130553"><ele>641</ele><time>2020-06-12T10:58:07Z</time><name>PT5425</name></trkpt>
<trkpt lat="54.374147" lon="-3.130553"><ele>641</ele><time>2020-06-12T10:58:08Z</time><name>PT5426</name></trkpt>
<trkpt lat="54.374148" lon="-3.130556"><ele>642</ele><time>2020-06-12T10:58:09Z</time><name>PT5427</name></trkpt>
<trkpt lat="54.374152" lon="-3.130558"><ele>642</ele><time>2020-06-12T10:58:10Z</time><name>PT5428</name></trkpt>
<trkpt lat="54.374156" lon="-3.130556"><ele>643</ele><time>2020-06-12T10:58:11Z</time><name>PT5429</name></trkpt>
<trkpt lat="54.374159" lon="-3.130555"><ele>644</ele><time>2020-06-12T10:58:12Z</time><name>PT5430</name></trkpt>
<trkpt lat="54.374165" lon="-3.130558"><ele>643</ele><time>2020-06-12T10:58:13Z</time><name>PT5431</name></trkpt>
<trkpt lat="54.374162" lon="-3.130569"><ele>644</ele><time>2020-06-12T10:58:14Z</time><name>PT5432</name></trkpt>
<trkpt lat="54.374168" lon="-3.130570"><ele>643</ele><time>2020-06-12T10:58:15Z</time><name>PT5433</name></trkpt>
<trkpt lat="54.374174" lon="-3.130570"><ele>644</ele><time>2020-06-12T10:58:16Z</time><name>PT5434</name></trkpt>
<trkpt lat="54.374181" lon="-3.130570"><ele>644</ele><time>2020-06-12T10:58:17Z</time><name>PT5435</name></trkpt>
<trkpt lat="54.374186" lon="-3.130565"><ele>645</ele><time>2020-06-12T10:58:18Z</time><name>PT5436</name></trkpt>
<trkpt lat="54.374189" lon="-3.130569"><ele>645</ele><time>2020-06-12T10:58:19Z</time><name>PT5437</name></trkpt>
<trkpt lat="54.374193" lon="-3.130566"><ele>646</ele><time>2020-06-12T10:58:20Z</time><name>PT5438</name></trkpt>
<trkpt lat="54.374196" lon="-3.130564"><ele>645</ele><time>2020-06-12T10:58:21Z</time><name>PT5439</name></trkpt>
<trkpt lat="54.374200" lon="-3.130570"><ele>644</ele><time>2020-06-12T10:58:22Z</time><name>PT5440</name></trkpt>
<trkpt lat="54.374201" lon="-3.130570"><ele>645</ele><time>2020-06-12T10:58:23Z</time><name>PT5441</name></trkpt>
<trkpt lat="54.374207" lon="-3.130569"><ele>645</ele><time>2020-06-12T10:58:24Z</time><name>PT5442</name></trkpt>
<trkpt lat="54.374209" lon="-3.130572"><ele>645</ele><time>2020-06-12T10:58:25Z</time><name>PT5443</name></trkpt>
<trkpt lat="54.374213" lon="-3.130573"><ele>644</ele><time>2020-06-12T10:58:26Z</time><name>PT5444</name></trkpt>
<trkpt lat="54.374218" lon="-3.130572"><ele>644</ele><time>2020-06-12T10:58:27Z</time><name>PT5445</name></trkpt>
<trkpt lat="54.374220" lon="-3.130574"><ele>644</ele><time>2020-06-12T10:58:28Z</time><name>PT5446</name></trkpt>
<trkpt lat="54.374224" lon="-3.130573"><ele>644</ele><time>2020-06-12T10:58:29Z</time><name>PT5447</name></trkpt>
<trkpt lat="54.374227" lon="-3.130571"><ele>646</ele><time>2020-06-12T10:58:30Z</time><name>PT5448</name></trkpt>
<trkpt lat="54.374231" lon="-3.130569"><ele>646</ele><time>2020-06-12T10:58:31Z</time><name>PT5449</name></trkpt>
<trkpt lat="54.374234" lon="-3.130572"><ele>647</ele><time>2020-06-12T10:58:32Z</time><name>PT5450</name></trkpt>
<trkpt lat="54.374237" lon="-3.130574"><ele>647</ele><time>2020-06-12T10:58:33Z</time><name>PT5451</name></trkpt>
<trkpt lat="54.374240" lon="-3.130573"><ele>648</ele><time>2020-06-12T10:58:34Z</time><name>PT5452</name></trkpt>
<trkpt lat="54.374245" lon="-3.130569"><ele>649</ele><time>2020-06-12T10:58:35Z</time><name>PT5453</name></trkpt>
<trkpt lat="54.374247" lon="-3.130567"><ele>650</ele><time>2020-06-12T10:58:36Z</time><name>PT5454</name></trkpt>
<trkpt lat="54.374253" lon="-3.130568"><ele>650</ele><time>2020-06-12T10:58:37Z</time><name>PT5455</name></trkpt>
<trkpt lat="54.374258" lon="-3.130569"><ele>650</ele><time>2020-06-12T10:58:38Z</time><name>PT5456</name></trkpt>
<trkpt lat="54.374259" lon="-3.130574"><ele>650</ele><time>2020-06-12T10:58:39Z</time><name>PT5457</name></trkpt>
<trkpt lat="54.374260" lon="-3.130577"><ele>650</ele><time>2020-06-12T10:58:40Z</time><name>PT5458</name></trkpt>
<trkpt lat="54.374257" lon="-3.130583"><ele>651</ele><time>2020-06-12T10:58:41Z</time><name>PT5459</name></trkpt>
<trkpt lat="54.374260" lon="-3.130585"><ele>651</ele><time>2020-06-12T10:58:42Z</time><name>PT5460</name></trkpt>
<trkpt lat="54.374263" lon="-3.130584"><ele>651</ele><time>2020-06-12T10:58:43Z</time><name>PT5461</name></trkpt>
<trkpt lat="54.374266" lon="-3.130587"><ele>651</ele><time>2020-06-12T10:58:44Z</time><name>PT5462</name></trkpt>
<trkpt lat="54.374267" lon="-3.130590"><ele>651</ele><time>2020-06-12T10:58:45Z</time><name>PT5463</name></trkpt>
<trkpt lat="54.374270" lon="-3.130593"><ele>651</ele><time>2020-06-12T10:58:46Z</time><name>PT5464</name></trkpt>
<trkpt lat="54.374274" lon="-3.130592"><ele>651</ele><time>2020-06-12T10:58:47Z</time><name>PT5465</name></trkpt>
<trkpt lat="54.374278" lon="-3.130589"><ele>651</ele><time>2020-06-12T10:58:48Z</time><name>PT5466</name></trkpt>
<trkpt lat="54.374279" lon="-3.130583"><ele>651</ele><time>2020-06-12T10:58:49Z</time><name>PT5467</name></trkpt>
<trkpt lat="54.374289" lon="-3.130579"><ele>652</ele><time>2020-06-12T10:58:50Z</time><name>PT5468</name></trkpt>
<trkpt lat="54.374299" lon="-3.130587"><ele>649</ele><time>2020-06-12T10:58:51Z</time><name>PT5469</name></trkpt>
<trkpt lat="54.374302" lon="-3.130588"><ele>649</ele><time>2020-06-12T10:58:52Z</time><name>PT5470</name></trkpt>
<trkpt lat="54.374310" lon="-3.130586"><ele>649</ele><time>2020-06-12T10:58:53Z</time><name>PT5471</name></trkpt>
<trkpt lat="54.374318" lon="-3.130582"><ele>650</ele><time>2020-06-12T10:58:54Z</time><name>PT5472</name></trkpt>
<trkpt lat="54.374324" lon="-3.130581"><ele>650</ele><time>2020-06-12T10:58:55Z</time><name>PT5473</name></trkpt>
<trkpt lat="54.374327" lon="-3.130583"><ele>650</ele><time>2020-06-12T10:58:56Z</time><name>PT5474</name></trkpt>
<trkpt lat="54.374333" lon="-3.130585"><ele>650</ele><time>2020-06-12T10:58:57Z</time><name>PT5475</name></trkpt>
<trkpt lat="54.374338" lon="-3.130587"><ele>650</ele><time>2020-06-12T10:58:58Z</time><name>PT5476</name></trkpt>
<trkpt lat="54.374345" lon="-3.130591"><ele>650</ele><time>2020-06-12T10:58:59Z</time><name>PT5477</name></trkpt>
<trkpt lat="54.374347" lon="-3.130594"><ele>650</ele><time>2020-06-12T10:59:00Z</time><name>PT5478</name></trkpt>
<trkpt lat="54.374351" lon="-3.130598"><ele>650</ele><time>2020-06-12T10:59:01Z</time><name>PT5479</name></trkpt>
<trkpt lat="54.374353" lon="-3.130606"><ele>651</ele><time>2020-06-12T10:59:02Z</time><name>PT5480</name></trkpt>
<trkpt lat="54.374357" lon="-3.130612"><ele>651</ele><time>2020-06-12T10:59:03Z</time><name>PT5481</name></trkpt>
<trkpt lat="54.374360" lon="-3.130616"><ele>652</ele><time>2020-06-12T10:59:04Z</time><name>PT5482</name></trkpt>
<trkpt lat="54.374360" lon="-3.130616"><ele>652</ele><time>2020-06-12T10:59:05Z</time><name>PT5483</name></trkpt>
<trkpt lat="54.374362" lon="-3.130625"><ele>652</ele><time>2020-06-12T10:59:06Z</time><name>PT5484</name></trkpt>
<trkpt lat="54.374367" lon="-3.130629"><ele>652</ele><time>2020-06-12T10:59:07Z</time><name>PT5485</name></trkpt>
<trkpt lat="54.374372" lon="-3.130636"><ele>652</ele><time>2020-06-12T10:59:08Z</time><name>PT5486</name></trkpt>
<trkpt lat="54.374381" lon="-3.130645"><ele>651</ele><time>2020-06-12T10:59:09Z</time><name>PT5487</name></trkpt>
<trkpt lat="54.374384" lon="-3.130649"><ele>652</ele><time>2020-06-12T10:59:10Z</time><name>PT5488</name></trkpt>
<trkpt lat="54.374386" lon="-3.130654"><ele>651</ele><time>2020-06-12T10:59:11Z</time><name>PT5489</name></trkpt>
<trkpt lat="54.374388" lon="-3.130660"><ele>651</ele><time>2020-06-12T10:59:12Z</time><name>PT5490</name></trkpt>
<trkpt lat="54.374389" lon="-3.130670"><ele>651</ele><time>2020-06-12T10:59:13Z</time><name>PT5491</name></trkpt>
<trkpt lat="54.374395" lon="-3.130677"><ele>652</ele><time>2020-06-12T10:59:14Z</time><name>PT5492</name></trkpt>
<trkpt lat="54.374399" lon="-3.130682"><ele>651</ele><time>2020-06-12T10:59:15Z</time><name>PT5493</name></trkpt>
<trkpt lat="54.374404" lon="-3.130689"><ele>652</ele><time>2020-06-12T10:59:16Z</time><name>PT5494</name></trkpt>
<trkpt lat="54.374408" lon="-3.130694"><ele>652</ele><time>2020-06-12T10:59:17Z</time><name>PT5495</name></trkpt>
<trkpt lat="54.374409" lon="-3.130697"><ele>652</ele><time>2020-06-12T10:59:18Z</time><name>PT5496</name></trkpt>
<trkpt lat="54.374408" lon="-3.130702"><ele>652</ele><time>2020-06-12T10:59:19Z</time><name>PT5497</name></trkpt>
<trkpt lat="54.374409" lon="-3.130705"><ele>653</ele><time>2020-06-12T10:59:20Z</time><name>PT5498</name></trkpt>
<trkpt lat="54.374411" lon="-3.130709"><ele>653</ele><time>2020-06-12T10:59:21Z</time><name>PT5499</name></trkpt>
<trkpt lat="54.374410" lon="-3.130713"><ele>653</ele><time>2020-06-12T10:59:22Z</time><name>PT5500</name></trkpt>
<trkpt lat="54.374416" lon="-3.130729"><ele>654</ele><time>2020-06-12T10:59:25Z</time><name>PT5501</name></trkpt>
<trkpt lat="54.374412" lon="-3.130744"><ele>653</ele><time>2020-06-12T10:59:26Z</time><name>PT5502</name></trkpt>
<trkpt lat="54.374414" lon="-3.130739"><ele>654</ele><time>2020-06-12T10:59:27Z</time><name>PT5503</name></trkpt>
<trkpt lat="54.374414" lon="-3.130743"><ele>653</ele><time>2020-06-12T10:59:33Z</time><name>PT5504</name></trkpt>
<trkpt lat="54.374408" lon="-3.130751"><ele>653</ele><time>2020-06-12T10:59:34Z</time><name>PT5505</name></trkpt>
<trkpt lat="54.374408" lon="-3.130757"><ele>653</ele><time>2020-06-12T10:59:35Z</time><name>PT5506</name></trkpt>
<trkpt lat="54.374407" lon="-3.130757"><ele>653</ele><time>2020-06-12T10:59:36Z</time><name>PT5507</name></trkpt>
<trkpt lat="54.374408" lon="-3.130758"><ele>652</ele><time>2020-06-12T10:59:37Z</time><name>PT5508</name></trkpt>
<trkpt lat="54.374410" lon="-3.130759"><ele>653</ele><time>2020-06-12T10:59:39Z</time><name>PT5509</name></trkpt>
<trkpt lat="54.374412" lon="-3.130766"><ele>653</ele><time>2020-06-12T10:59:39Z</time><name>PT5510</name></trkpt>
<trkpt lat="54.374413" lon="-3.130771"><ele>653</ele><time>2020-06-12T10:59:40Z</time><name>PT5511</name></trkpt>
<trkpt lat="54.374416" lon="-3.130771"><ele>653</ele><time>2020-06-12T10:59:41Z</time><name>PT5512</name></trkpt>
<trkpt lat="54.374417" lon="-3.130772"><ele>652</ele><time>2020-06-12T10:59:42Z</time><name>PT5513</name></trkpt>
<trkpt lat="54.374422" lon="-3.130774"><ele>652</ele><time>2020-06-12T10:59:43Z</time><name>PT5514</name></trkpt>
<trkpt lat="54.374429" lon="-3.130780"><ele>652</ele><time>2020-06-12T10:59:45Z</time><name>PT5515</name></trkpt>
<trkpt lat="54.374436" lon="-3.130782"><ele>652</ele><time>2020-06-12T10:59:45Z</time><name>PT5516</name></trkpt>
<trkpt lat="54.374444" lon="-3.130785"><ele>652</ele><time>2020-06-12T10:59:46Z</time><name>PT5517</name></trkpt>
<trkpt lat="54.374452" lon="-3.130789"><ele>652</ele><time>2020-06-12T10:59:47Z</time><name>PT5518</name></trkpt>
<trkpt lat="54.374459" lon="-3.130794"><ele>652</ele><time>2020-06-12T10:59:49Z</time><name>PT5519</name></trkpt>
<trkpt lat="54.374467" lon="-3.130798"><ele>652</ele><time>2020-06-12T10:59:49Z</time><name>PT5520</name></trkpt>
<trkpt lat="54.374475" lon="-3.130799"><ele>652</ele><time>2020-06-12T10:59:50Z</time><name>PT5521</name></trkpt>
<trkpt lat="54.374484" lon="-3.130804"><ele>652</ele><time>2020-06-12T10:59:51Z</time><name>PT5522</name></trkpt>
<trkpt lat="54.374491" lon="-3.130808"><ele>652</ele><time>2020-06-12T10:59:52Z</time><name>PT5523</name></trkpt>
<trkpt lat="54.374498" lon="-3.130807"><ele>652</ele><time>2020-06-12T10:59:53Z</time><name>PT5524</name></trkpt>
<trkpt lat="54.374503" lon="-3.130814"><ele>651</ele><time>2020-06-12T10:59:54Z</time><name>PT5525</name></trkpt>
<trkpt lat="54.374508" lon="-3.130816"><ele>651</ele><time>2020-06-12T10:59:55Z</time><name>PT5526</name></trkpt>
<trkpt lat="54.374515" lon="-3.130815"><ele>651</ele><time>2020-06-12T10:59:56Z</time><name>PT5527</name></trkpt>
<trkpt lat="54.374524" lon="-3.130816"><ele>651</ele><time>2020-06-12T10:59:57Z</time><name>PT5528</name></trkpt>
<trkpt lat="54.374536" lon="-3.130814"><ele>651</ele><time>2020-06-12T10:59:58Z</time><name>PT5529</name></trkpt>
<trkpt lat="54.374544" lon="-3.130817"><ele>651</ele><time>2020-06-12T10:59:59Z</time><name>PT5530</name></trkpt>
<trkpt lat="54.374551" lon="-3.130823"><ele>652</ele><time>2020-06-12T11:00:00Z</time><name>PT5531</name></trkpt>
<trkpt lat="54.374558" lon="-3.130826"><ele>652</ele><time>2020-06-12T11:00:01Z</time><name>PT5532</name></trkpt>
<trkpt lat="54.374565" lon="-3.130828"><ele>652</ele><time>2020-06-12T11:00:02Z</time><name>PT5533</name></trkpt>
<trkpt lat="54.374567" lon="-3.130832"><ele>652</ele><time>2020-06-12T11:00:03Z</time><name>PT5534</name></trkpt>
<trkpt lat="54.374572" lon="-3.130832"><ele>652</ele><time>2020-06-12T11:00:04Z</time><name>PT5535</name></trkpt>
<trkpt lat="54.374580" lon="-3.130836"><ele>653</ele><time>2020-06-12T11:00:05Z</time><name>PT5536</name></trkpt>
<trkpt lat="54.374587" lon="-3.130838"><ele>653</ele><time>2020-06-12T11:00:06Z</time><name>PT5537</name></trkpt>
<trkpt lat="54.374596" lon="-3.130839"><ele>653</ele><time>2020-06-12T11:00:07Z</time><name>PT5538</name></trkpt>
<trkpt lat="54.374601" lon="-3.130839"><ele>653</ele><time>2020-06-12T11:00:08Z</time><name>PT5539</name></trkpt>
<trkpt lat="54.374604" lon="-3.130839"><ele>653</ele><time>2020-06-12T11:00:09Z</time><name>PT5540</name></trkpt>
<trkpt lat="54.374610" lon="-3.130836"><ele>653</ele><time>2020-06-12T11:00:10Z</time><name>PT5541</name></trkpt>
<trkpt lat="54.374614" lon="-3.130825"><ele>654</ele><time>2020-06-12T11:00:11Z</time><name>PT5542</name></trkpt>
<trkpt lat="54.374618" lon="-3.130817"><ele>654</ele><time>2020-06-12T11:00:12Z</time><name>PT5543</name></trkpt>
<trkpt lat="54.374620" lon="-3.130808"><ele>654</ele><time>2020-06-12T11:00:13Z</time><name>PT5544</name></trkpt>
<trkpt lat="54.374625" lon="-3.130800"><ele>654</ele><time>2020-06-12T11:00:14Z</time><name>PT5545</name></trkpt>
<trkpt lat="54.374629" lon="-3.130793"><ele>655</ele><time>2020-06-12T11:00:15Z</time><name>PT5546</name></trkpt>
<trkpt lat="54.374633" lon="-3.130782"><ele>655</ele><time>2020-06-12T11:00:16Z</time><name>PT5547</name></trkpt>
<trkpt lat="54.374635" lon="-3.130774"><ele>655</ele><time>2020-06-12T11:00:17Z</time><name>PT5548</name></trkpt>
<trkpt lat="54.374637" lon="-3.130763"><ele>655</ele><time>2020-06-12T11:00:18Z</time><name>PT5549</name></trkpt>
<trkpt lat="54.374638" lon="-3.130750"><ele>655</ele><time>2020-06-12T11:00:19Z</time><name>PT5550</name></trkpt>
<trkpt lat="54.374640" lon="-3.130738"><ele>656</ele><time>2020-06-12T11:00:20Z</time><name>PT5551</name></trkpt>
<trkpt lat="54.374643" lon="-3.130730"><ele>656</ele><time>2020-06-12T11:00:21Z</time><name>PT5552</name></trkpt>
<trkpt lat="54.374646" lon="-3.130719"><ele>656</ele><time>2020-06-12T11:00:22Z</time><name>PT5553</name></trkpt>
<trkpt lat="54.374649" lon="-3.130707"><ele>656</ele><time>2020-06-12T11:00:23Z</time><name>PT5554</name></trkpt>
<trkpt lat="54.374652" lon="-3.130698"><ele>657</ele><time>2020-06-12T11:00:24Z</time><name>PT5555</name></trkpt>
<trkpt lat="54.374655" lon="-3.130689"><ele>657</ele><time>2020-06-12T11:00:25Z</time><name>PT5556</name></trkpt>
<trkpt lat="54.374659" lon="-3.130684"><ele>658</ele><time>2020-06-12T11:00:26Z</time><name>PT5557</name></trkpt>
<trkpt lat="54.374661" lon="-3.130678"><ele>658</ele><time>2020-06-12T11:00:27Z</time><name>PT5558</name></trkpt>
<trkpt lat="54.374664" lon="-3.130670"><ele>659</ele><time>2020-06-12T11:00:28Z</time><name>PT5559</name></trkpt>
<trkpt lat="54.374667" lon="-3.130659"><ele>659</ele><time>2020-06-12T11:00:29Z</time><name>PT5560</name></trkpt>
<trkpt lat="54.374669" lon="-3.130648"><ele>659</ele><time>2020-06-12T11:00:30Z</time><name>PT5561</name></trkpt>
<trkpt lat="54.374673" lon="-3.130636"><ele>659</ele><time>2020-06-12T11:00:31Z</time><name>PT5562</name></trkpt>
<trkpt lat="54.374676" lon="-3.130628"><ele>659</ele><time>2020-06-12T11:00:32Z</time><name>PT5563</name></trkpt>
<trkpt lat="54.374681" lon="-3.130614"><ele>660</ele><time>2020-06-12T11:00:33Z</time><name>PT5564</name></trkpt>
<trkpt lat="54.374685" lon="-3.130603"><ele>660</ele><time>2020-06-12T11:00:34Z</time><name>PT5565</name></trkpt>
<trkpt lat="54.374689" lon="-3.130592"><ele>660</ele><time>2020-06-12T11:00:35Z</time><name>PT5566</name></trkpt>
<trkpt lat="54.374695" lon="-3.130585"><ele>661</ele><time>2020-06-12T11:00:36Z</time><name>PT5567</name></trkpt>
<trkpt lat="54.374702" lon="-3.130579"><ele>661</ele><time>2020-06-12T11:00:37Z</time><name>PT5568</name></trkpt>
<trkpt lat="54.374706" lon="-3.130573"><ele>661</ele><time>2020-06-12T11:00:38Z</time><name>PT5569</name></trkpt>
<trkpt lat="54.374711" lon="-3.130567"><ele>661</ele><time>2020-06-12T11:00:39Z</time><name>PT5570</name></trkpt>
<trkpt lat="54.374714" lon="-3.130563"><ele>662</ele><time>2020-06-12T11:00:41Z</time><name>PT5571</name></trkpt>
<trkpt lat="54.374718" lon="-3.130554"><ele>662</ele><time>2020-06-12T11:00:41Z</time><name>PT5572</name></trkpt>
<trkpt lat="54.374721" lon="-3.130547"><ele>662</ele><time>2020-06-12T11:00:42Z</time><name>PT5573</name></trkpt>
<trkpt lat="54.374725" lon="-3.130540"><ele>662</ele><time>2020-06-12T11:00:43Z</time><name>PT5574</name></trkpt>
<trkpt lat="54.374730" lon="-3.130533"><ele>662</ele><time>2020-06-12T11:00:44Z</time><name>PT5575</name></trkpt>
<trkpt lat="54.374737" lon="-3.130530"><ele>662</ele><time>2020-06-12T11:00:45Z</time><name>PT5576</name></trkpt>
<trkpt lat="54.374741" lon="-3.130529"><ele>662</ele><time>2020-06-12T11:00:46Z</time><name>PT5577</name></trkpt>
<trkpt lat="54.374745" lon="-3.130530"><ele>662</ele><time>2020-06-12T11:00:47Z</time><name>PT5578</name></trkpt>
<trkpt lat="54.374747" lon="-3.130528"><ele>662</ele><time>2020-06-12T11:00:48Z</time><name>PT5579</name></trkpt>
<trkpt lat="54.374749" lon="-3.130522"><ele>663</ele><time>2020-06-12T11:00:49Z</time><name>PT5580</name></trkpt>
<trkpt lat="54.374751" lon="-3.130515"><ele>663</ele><time>2020-06-12T11:00:51Z</time><name>PT5581</name></trkpt>
<trkpt lat="54.374752" lon="-3.130508"><ele>663</ele><time>2020-06-12T11:00:51Z</time><name>PT5582</name></trkpt>
<trkpt lat="54.374752" lon="-3.130505"><ele>663</ele><time>2020-06-12T11:00:52Z</time><name>PT5583</name></trkpt>
<trkpt lat="54.374756" lon="-3.130500"><ele>663</ele><time>2020-06-12T11:00:53Z</time><name>PT5584</name></trkpt>
<trkpt lat="54.374759" lon="-3.130495"><ele>664</ele><time>2020-06-12T11:00:54Z</time><name>PT5585</name></trkpt>
<trkpt lat="54.374765" lon="-3.130490"><ele>664</ele><time>2020-06-12T11:00:55Z</time><name>PT5586</name></trkpt>
<trkpt lat="54.374770" lon="-3.130487"><ele>664</ele><time>2020-06-12T11:00:56Z</time><name>PT5587</name></trkpt>
<trkpt lat="54.374776" lon="-3.130483"><ele>664</ele><time>2020-06-12T11:00:57Z</time><name>PT5588</name></trkpt>
<trkpt lat="54.374782" lon="-3.130482"><ele>664</ele><time>2020-06-12T11:00:58Z</time><name>PT5589</name></trkpt>
<trkpt lat="54.374786" lon="-3.130476"><ele>664</ele><time>2020-06-12T11:00:59Z</time><name>PT5590</name></trkpt>
<trkpt lat="54.374790" lon="-3.130473"><ele>664</ele><time>2020-06-12T11:01:01Z</time><name>PT5591</name></trkpt>
<trkpt lat="54.374792" lon="-3.130469"><ele>664</ele><time>2020-06-12T11:01:01Z</time><name>PT5592</name></trkpt>
<trkpt lat="54.374797" lon="-3.130463"><ele>664</ele><time>2020-06-12T11:01:02Z</time><name>PT5593</name></trkpt>
<trkpt lat="54.374801" lon="-3.130456"><ele>665</ele><time>2020-06-12T11:01:03Z</time><name>PT5594</name></trkpt>
<trkpt lat="54.374805" lon="-3.130449"><ele>665</ele><time>2020-06-12T11:01:04Z</time><name>PT5595</name></trkpt>
<trkpt lat="54.374811" lon="-3.130444"><ele>665</ele><time>2020-06-12T11:01:05Z</time><name>PT5596</name></trkpt>
<trkpt lat="54.374816" lon="-3.130441"><ele>665</ele><time>2020-06-12T11:01:06Z</time><name>PT5597</name></trkpt>
<trkpt lat="54.374818" lon="-3.130433"><ele>665</ele><time>2020-06-12T11:01:07Z</time><name>PT5598</name></trkpt>
<trkpt lat="54.374820" lon="-3.130425"><ele>665</ele><time>2020-06-12T11:01:08Z</time><name>PT5599</name></trkpt>
<trkpt lat="54.374824" lon="-3.130415"><ele>665</ele><time>2020-06-12T11:01:09Z</time><name>PT5600</name></trkpt>
<trkpt lat="54.374824" lon="-3.130411"><ele>665</ele><time>2020-06-12T11:01:10Z</time><name>PT5601</name></trkpt>
<trkpt lat="54.374827" lon="-3.130404"><ele>665</ele><time>2020-06-12T11:01:11Z</time><name>PT5602</name></trkpt>
<trkpt lat="54.374832" lon="-3.130399"><ele>665</ele><time>2020-06-12T11:01:12Z</time><name>PT5603</name></trkpt>
<trkpt lat="54.374834" lon="-3.130389"><ele>665</ele><time>2020-06-12T11:01:13Z</time><name>PT5604</name></trkpt>
<trkpt lat="54.374839" lon="-3.130377"><ele>666</ele><time>2020-06-12T11:01:14Z</time><name>PT5605</name></trkpt>
<trkpt lat="54.374844" lon="-3.130367"><ele>666</ele><time>2020-06-12T11:01:15Z</time><name>PT5606</name></trkpt>
<trkpt lat="54.374848" lon="-3.130361"><ele>667</ele><time>2020-06-12T11:01:16Z</time><name>PT5607</name></trkpt>
<trkpt lat="54.374848" lon="-3.130354"><ele>667</ele><time>2020-06-12T11:01:17Z</time><name>PT5608</name></trkpt>
<trkpt lat="54.374850" lon="-3.130347"><ele>667</ele><time>2020-06-12T11:01:18Z</time><name>PT5609</name></trkpt>
<trkpt lat="54.374854" lon="-3.130337"><ele>667</ele><time>2020-06-12T11:01:19Z</time><name>PT5610</name></trkpt>
<trkpt lat="54.374849" lon="-3.130326"><ele>668</ele><time>2020-06-12T11:01:20Z</time><name>PT5611</name></trkpt>
<trkpt lat="54.374850" lon="-3.130320"><ele>669</ele><time>2020-06-12T11:01:21Z</time><name>PT5612</name></trkpt>
<trkpt lat="54.374854" lon="-3.130335"><ele>668</ele><time>2020-06-12T11:01:22Z</time><name>PT5613</name></trkpt>
<trkpt lat="54.374859" lon="-3.130339"><ele>667</ele><time>2020-06-12T11:01:23Z</time><name>PT5614</name></trkpt>
<trkpt lat="54.374864" lon="-3.130348"><ele>667</ele><time>2020-06-12T11:01:24Z</time><name>PT5615</name></trkpt>
<trkpt lat="54.374868" lon="-3.130347"><ele>667</ele><time>2020-06-12T11:01:25Z</time><name>PT5616</name></trkpt>
<trkpt lat="54.374873" lon="-3.130339"><ele>668</ele><time>2020-06-12T11:01:26Z</time><name>PT5617</name></trkpt>
<trkpt lat="54.374879" lon="-3.130331"><ele>668</ele><time>2020-06-12T11:01:27Z</time><name>PT5618</name></trkpt>
<trkpt lat="54.374883" lon="-3.130326"><ele>669</ele><time>2020-06-12T11:01:28Z</time><name>PT5619</name></trkpt>
<trkpt lat="54.374888" lon="-3.130317"><ele>669</ele><time>2020-06-12T11:01:29Z</time><name>PT5620</name></trkpt>
<trkpt lat="54.374894" lon="-3.130309"><ele>670</ele><time>2020-06-12T11:01:30Z</time><name>PT5621</name></trkpt>
<trkpt lat="54.374898" lon="-3.130303"><ele>670</ele><time>2020-06-12T11:01:31Z</time><name>PT5622</name></trkpt>
<trkpt lat="54.374902" lon="-3.130294"><ele>670</ele><time>2020-06-12T11:01:32Z</time><name>PT5623</name></trkpt>
<trkpt lat="54.374907" lon="-3.130286"><ele>670</ele><time>2020-06-12T11:01:33Z</time><name>PT5624</name></trkpt>
<trkpt lat="54.374914" lon="-3.130279"><ele>670</ele><time>2020-06-12T11:01:34Z</time><name>PT5625</name></trkpt>
<trkpt lat="54.374922" lon="-3.130274"><ele>670</ele><time>2020-06-12T11:01:35Z</time><name>PT5626</name></trkpt>
<trkpt lat="54.374928" lon="-3.130270"><ele>671</ele><time>2020-06-12T11:01:36Z</time><name>PT5627</name></trkpt>
<trkpt lat="54.374932" lon="-3.130270"><ele>671</ele><time>2020-06-12T11:01:37Z</time><name>PT5628</name></trkpt>
<trkpt lat="54.374938" lon="-3.130268"><ele>671</ele><time>2020-06-12T11:01:38Z</time><name>PT5629</name></trkpt>
<trkpt lat="54.374943" lon="-3.130264"><ele>670</ele><time>2020-06-12T11:01:39Z</time><name>PT5630</name></trkpt>
<trkpt lat="54.374949" lon="-3.130261"><ele>670</ele><time>2020-06-12T11:01:40Z</time><name>PT5631</name></trkpt>
<trkpt lat="54.374954" lon="-3.130257"><ele>671</ele><time>2020-06-12T11:01:41Z</time><name>PT5632</name></trkpt>
<trkpt lat="54.374960" lon="-3.130253"><ele>671</ele><time>2020-06-12T11:01:42Z</time><name>PT5633</name></trkpt>
<trkpt lat="54.374965" lon="-3.130247"><ele>671</ele><time>2020-06-12T11:01:43Z</time><name>PT5634</name></trkpt>
<trkpt lat="54.374970" lon="-3.130238"><ele>672</ele><time>2020-06-12T11:01:44Z</time><name>PT5635</name></trkpt>
<trkpt lat="54.374974" lon="-3.130233"><ele>672</ele><time>2020-06-12T11:01:45Z</time><name>PT5636</name></trkpt>
<trkpt lat="54.374978" lon="-3.130228"><ele>672</ele><time>2020-06-12T11:01:46Z</time><name>PT5637</name></trkpt>
<trkpt lat="54.374984" lon="-3.130221"><ele>672</ele><time>2020-06-12T11:01:47Z</time><name>PT5638</name></trkpt>
<trkpt lat="54.374990" lon="-3.130219"><ele>671</ele><time>2020-06-12T11:01:48Z</time><name>PT5639</name></trkpt>
<trkpt lat="54.374997" lon="-3.130216"><ele>671</ele><time>2020-06-12T11:01:49Z</time><name>PT5640</name></trkpt>
<trkpt lat="54.375005" lon="-3.130209"><ele>671</ele><time>2020-06-12T11:01:50Z</time><name>PT5641</name></trkpt>
<trkpt lat="54.375013" lon="-3.130200"><ele>671</ele><time>2020-06-12T11:01:51Z</time><name>PT5642</name></trkpt>
<trkpt lat="54.375019" lon="-3.130197"><ele>672</ele><time>2020-06-12T11:01:52Z</time><name>PT5643</name></trkpt>
<trkpt lat="54.375025" lon="-3.130189"><ele>672</ele><time>2020-06-12T11:01:53Z</time><name>PT5644</name></trkpt>
<trkpt lat="54.375029" lon="-3.130185"><ele>673</ele><time>2020-06-12T11:01:54Z</time><name>PT5645</name></trkpt>
<trkpt lat="54.375034" lon="-3.130178"><ele>673</ele><time>2020-06-12T11:01:55Z</time><name>PT5646</name></trkpt>
<trkpt lat="54.375041" lon="-3.130167"><ele>673</ele><time>2020-06-12T11:01:56Z</time><name>PT5647</name></trkpt>
<trkpt lat="54.375048" lon="-3.130168"><ele>674</ele><time>2020-06-12T11:01:57Z</time><name>PT5648</name></trkpt>
<trkpt lat="54.375051" lon="-3.130165"><ele>673</ele><time>2020-06-12T11:01:58Z</time><name>PT5649</name></trkpt>
<trkpt lat="54.375057" lon="-3.130159"><ele>674</ele><time>2020-06-12T11:01:59Z</time><name>PT5650</name></trkpt>
<trkpt lat="54.375063" lon="-3.130153"><ele>674</ele><time>2020-06-12T11:02:00Z</time><name>PT5651</name></trkpt>
<trkpt lat="54.375067" lon="-3.130146"><ele>674</ele><time>2020-06-12T11:02:01Z</time><name>PT5652</name></trkpt>
<trkpt lat="54.375071" lon="-3.130140"><ele>675</ele><time>2020-06-12T11:02:02Z</time><name>PT5653</name></trkpt>
<trkpt lat="54.375077" lon="-3.130132"><ele>675</ele><time>2020-06-12T11:02:03Z</time><name>PT5654</name></trkpt>
<trkpt lat="54.375081" lon="-3.130127"><ele>675</ele><time>2020-06-12T11:02:04Z</time><name>PT5655</name></trkpt>
<trkpt lat="54.375087" lon="-3.130124"><ele>675</ele><time>2020-06-12T11:02:05Z</time><name>PT5656</name></trkpt>
<trkpt lat="54.375091" lon="-3.130130"><ele>674</ele><time>2020-06-12T11:02:06Z</time><name>PT5657</name></trkpt>
<trkpt lat="54.375098" lon="-3.130135"><ele>675</ele><time>2020-06-12T11:02:07Z</time><name>PT5658</name></trkpt>
<trkpt lat="54.375101" lon="-3.130144"><ele>674</ele><time>2020-06-12T11:02:08Z</time><name>PT5659</name></trkpt>
<trkpt lat="54.375106" lon="-3.130151"><ele>674</ele><time>2020-06-12T11:02:09Z</time><name>PT5660</name></trkpt>
<trkpt lat="54.375116" lon="-3.130147"><ele>675</ele><time>2020-06-12T11:02:10Z</time><name>PT5661</name></trkpt>
<trkpt lat="54.375125" lon="-3.130143"><ele>675</ele><time>2020-06-12T11:02:11Z</time><name>PT5662</name></trkpt>
<trkpt lat="54.375131" lon="-3.130136"><ele>675</ele><time>2020-06-12T11:02:12Z</time><name>PT5663</name></trkpt>
<trkpt lat="54.375134" lon="-3.130130"><ele>675</ele><time>2020-06-12T11:02:13Z</time><name>PT5664</name></trkpt>
<trkpt lat="54.375139" lon="-3.130127"><ele>675</ele><time>2020-06-12T11:02:14Z</time><name>PT5665</name></trkpt>
<trkpt lat="54.375145" lon="-3.130125"><ele>675</ele><time>2020-06-12T11:02:15Z</time><name>PT5666</name></trkpt>
<trkpt lat="54.375152" lon="-3.130129"><ele>675</ele><time>2020-06-12T11:02:16Z</time><name>PT5667</name></trkpt>
<trkpt lat="54.375160" lon="-3.130133"><ele>675</ele><time>2020-06-12T11:02:17Z</time><name>PT5668</name></trkpt>
<trkpt lat="54.375167" lon="-3.130135"><ele>675</ele><time>2020-06-12T11:02:18Z</time><name>PT5669</name></trkpt>
<trkpt lat="54.375175" lon="-3.130134"><ele>675</ele><time>2020-06-12T11:02:19Z</time><name>PT5670</name></trkpt>
<trkpt lat="54.375181" lon="-3.130129"><ele>674</ele><time>2020-06-12T11:02:20Z</time><name>PT5671</name></trkpt>
<trkpt lat="54.375186" lon="-3.130126"><ele>674</ele><time>2020-06-12T11:02:21Z</time><name>PT5672</name></trkpt>
<trkpt lat="54.375186" lon="-3.130124"><ele>674</ele><time>2020-06-12T11:02:22Z</time><name>PT5673</name></trkpt>
<trkpt lat="54.375187" lon="-3.130125"><ele>674</ele><time>2020-06-12T11:02:23Z</time><name>PT5674</name></trkpt>
<trkpt lat="54.375189" lon="-3.130122"><ele>675</ele><time>2020-06-12T11:02:24Z</time><name>PT5675</name></trkpt>
<trkpt lat="54.375193" lon="-3.130124"><ele>674</ele><time>2020-06-12T11:02:25Z</time><name>PT5676</name></trkpt>
<trkpt lat="54.375194" lon="-3.130121"><ele>675</ele><time>2020-06-12T11:02:26Z</time><name>PT5677</name></trkpt>
<trkpt lat="54.375193" lon="-3.130117"><ele>675</ele><time>2020-06-12T11:02:27Z</time><name>PT5678</name></trkpt>
<trkpt lat="54.375192" lon="-3.130114"><ele>675</ele><time>2020-06-12T11:02:28Z</time><name>PT5679</name></trkpt>
<trkpt lat="54.375194" lon="-3.130113"><ele>675</ele><time>2020-06-12T11:02:29Z</time><name>PT5680</name></trkpt>
<trkpt lat="54.375195" lon="-3.130113"><ele>674</ele><time>2020-06-12T11:02:30Z</time><name>PT5681</name></trkpt>
<trkpt lat="54.375195" lon="-3.130115"><ele>674</ele><time>2020-06-12T11:02:31Z</time><name>PT5682</name></trkpt>
<trkpt lat="54.375196" lon="-3.130115"><ele>675</ele><time>2020-06-12T11:02:32Z</time><name>PT5683</name></trkpt>
<trkpt lat="54.375196" lon="-3.130113"><ele>675</ele><time>2020-06-12T11:02:33Z</time><name>PT5684</name></trkpt>
<trkpt lat="54.375202" lon="-3.130104"><ele>675</ele><time>2020-06-12T11:02:34Z</time><name>PT5685</name></trkpt>
<trkpt lat="54.375208" lon="-3.130096"><ele>675</ele><time>2020-06-12T11:02:35Z</time><name>PT5686</name></trkpt>
<trkpt lat="54.375214" lon="-3.130086"><ele>675</ele><time>2020-06-12T11:02:36Z</time><name>PT5687</name></trkpt>
<trkpt lat="54.375220" lon="-3.130080"><ele>675</ele><time>2020-06-12T11:02:37Z</time><name>PT5688</name></trkpt>
<trkpt lat="54.375222" lon="-3.130078"><ele>676</ele><time>2020-06-12T11:02:38Z</time><name>PT5689</name></trkpt>
<trkpt lat="54.375225" lon="-3.130073"><ele>676</ele><time>2020-06-12T11:02:39Z</time><name>PT5690</name></trkpt>
<trkpt lat="54.375231" lon="-3.130065"><ele>676</ele><time>2020-06-12T11:02:40Z</time><name>PT5691</name></trkpt>
<trkpt lat="54.375235" lon="-3.130059"><ele>676</ele><time>2020-06-12T11:02:41Z</time><name>PT5692</name></trkpt>
<trkpt lat="54.375236" lon="-3.130053"><ele>677</ele><time>2020-06-12T11:02:42Z</time><name>PT5693</name></trkpt>
<trkpt lat="54.375242" lon="-3.130046"><ele>677</ele><time>2020-06-12T11:02:43Z</time><name>PT5694</name></trkpt>
<trkpt lat="54.375247" lon="-3.130040"><ele>678</ele><time>2020-06-12T11:02:44Z</time><name>PT5695</name></trkpt>
<trkpt lat="54.375250" lon="-3.130033"><ele>678</ele><time>2020-06-12T11:02:45Z</time><name>PT5696</name></trkpt>
<trkpt lat="54.375253" lon="-3.130025"><ele>678</ele><time>2020-06-12T11:02:46Z</time><name>PT5697</name></trkpt>
<trkpt lat="54.375258" lon="-3.130020"><ele>678</ele><time>2020-06-12T11:02:47Z</time><name>PT5698</name></trkpt>
<trkpt lat="54.375263" lon="-3.130017"><ele>678</ele><time>2020-06-12T11:02:48Z</time><name>PT5699</name></trkpt>
<trkpt lat="54.375265" lon="-3.130015"><ele>678</ele><time>2020-06-12T11:02:49Z</time><name>PT5700</name></trkpt>
<trkpt lat="54.375268" lon="-3.130007"><ele>678</ele><time>2020-06-12T11:02:50Z</time><name>PT5701</name></trkpt>
<trkpt lat="54.375272" lon="-3.129996"><ele>679</ele><time>2020-06-12T11:02:51Z</time><name>PT5702</name></trkpt>
<trkpt lat="54.375274" lon="-3.129989"><ele>679</ele><time>2020-06-12T11:02:52Z</time><name>PT5703</name></trkpt>
<trkpt lat="54.375279" lon="-3.129979"><ele>679</ele><time>2020-06-12T11:02:53Z</time><name>PT5704</name></trkpt>
<trkpt lat="54.375284" lon="-3.129967"><ele>679</ele><time>2020-06-12T11:02:54Z</time><name>PT5705</name></trkpt>
<trkpt lat="54.375288" lon="-3.129957"><ele>679</ele><time>2020-06-12T11:02:55Z</time><name>PT5706</name></trkpt>
<trkpt lat="54.375296" lon="-3.129935"><ele>679</ele><time>2020-06-12T11:02:56Z</time><name>PT5707</name></trkpt>
<trkpt lat="54.375300" lon="-3.129920"><ele>680</ele><time>2020-06-12T11:02:57Z</time><name>PT5708</name></trkpt>
<trkpt lat="54.375303" lon="-3.129915"><ele>680</ele><time>2020-06-12T11:02:58Z</time><name>PT5709</name></trkpt>
<trkpt lat="54.375306" lon="-3.129910"><ele>680</ele><time>2020-06-12T11:02:59Z</time><name>PT5710</name></trkpt>
<trkpt lat="54.375311" lon="-3.129901"><ele>680</ele><time>2020-06-12T11:03:00Z</time><name>PT5711</name></trkpt>
<trkpt lat="54.375315" lon="-3.129894"><ele>681</ele><time>2020-06-12T11:03:01Z</time><name>PT5712</name></trkpt>
<trkpt lat="54.375316" lon="-3.129884"><ele>681</ele><time>2020-06-12T11:03:02Z</time><name>PT5713</name></trkpt>
<trkpt lat="54.375317" lon="-3.129875"><ele>681</ele><time>2020-06-12T11:03:03Z</time><name>PT5714</name></trkpt>
<trkpt lat="54.375322" lon="-3.129863"><ele>682</ele><time>2020-06-12T11:03:04Z</time><name>PT5715</name></trkpt>
<trkpt lat="54.375326" lon="-3.129853"><ele>682</ele><time>2020-06-12T11:03:05Z</time><name>PT5716</name></trkpt>
<trkpt lat="54.375329" lon="-3.129844"><ele>682</ele><time>2020-06-12T11:03:06Z</time><name>PT5717</name></trkpt>
<trkpt lat="54.375330" lon="-3.129842"><ele>681</ele><time>2020-06-12T11:03:07Z</time><name>PT5718</name></trkpt>
<trkpt lat="54.375335" lon="-3.129835"><ele>682</ele><time>2020-06-12T11:03:08Z</time><name>PT5719</name></trkpt>
<trkpt lat="54.375336" lon="-3.129830"><ele>682</ele><time>2020-06-12T11:03:09Z</time><name>PT5720</name></trkpt>
<trkpt lat="54.375338" lon="-3.129822"><ele>683</ele><time>2020-06-12T11:03:10Z</time><name>PT5721</name></trkpt>
<trkpt lat="54.375340" lon="-3.129822"><ele>683</ele><time>2020-06-12T11:03:11Z</time><name>PT5722</name></trkpt>
<trkpt lat="54.375337" lon="-3.129824"><ele>683</ele><time>2020-06-12T11:03:16Z</time><name>PT5723</name></trkpt>
<trkpt lat="54.375342" lon="-3.129821"><ele>683</ele><time>2020-06-12T11:03:17Z</time><name>PT5724</name></trkpt>
<trkpt lat="54.375344" lon="-3.129810"><ele>684</ele><time>2020-06-12T11:03:18Z</time><name>PT5725</name></trkpt>
<trkpt lat="54.375345" lon="-3.129807"><ele>684</ele><time>2020-06-12T11:03:19Z</time><name>PT5726</name></trkpt>
<trkpt lat="54.375349" lon="-3.129805"><ele>684</ele><time>2020-06-12T11:03:20Z</time><name>PT5727</name></trkpt>
<trkpt lat="54.375354" lon="-3.129800"><ele>684</ele><time>2020-06-12T11:03:21Z</time><name>PT5728</name></trkpt>
<trkpt lat="54.375364" lon="-3.129788"><ele>684</ele><time>2020-06-12T11:03:22Z</time><name>PT5729</name></trkpt>
<trkpt lat="54.375365" lon="-3.129784"><ele>684</ele><time>2020-06-12T11:03:23Z</time><name>PT5730</name></trkpt>
<trkpt lat="54.375368" lon="-3.129781"><ele>684</ele><time>2020-06-12T11:03:24Z</time><name>PT5731</name></trkpt>
<trkpt lat="54.375370" lon="-3.129777"><ele>684</ele><time>2020-06-12T11:03:25Z</time><name>PT5732</name></trkpt>
<trkpt lat="54.375369" lon="-3.129775"><ele>684</ele><time>2020-06-12T11:03:26Z</time><name>PT5733</name></trkpt>
<trkpt lat="54.375367" lon="-3.129766"><ele>684</ele><time>2020-06-12T11:03:27Z</time><name>PT5734</name></trkpt>
<trkpt lat="54.375365" lon="-3.129756"><ele>684</ele><time>2020-06-12T11:03:28Z</time><name>PT5735</name></trkpt>
<trkpt lat="54.375365" lon="-3.129749"><ele>685</ele><time>2020-06-12T11:03:29Z</time><name>PT5736</name></trkpt>
<trkpt lat="54.375368" lon="-3.129740"><ele>685</ele><time>2020-06-12T11:03:30Z</time><name>PT5737</name></trkpt>
<trkpt lat="54.375369" lon="-3.129731"><ele>685</ele><time>2020-06-12T11:03:31Z</time><name>PT5738</name></trkpt>
<trkpt lat="54.375367" lon="-3.129724"><ele>686</ele><time>2020-06-12T11:03:32Z</time><name>PT5739</name></trkpt>
<trkpt lat="54.375367" lon="-3.129717"><ele>686</ele><time>2020-06-12T11:03:33Z</time><name>PT5740</name></trkpt>
<trkpt lat="54.375367" lon="-3.129712"><ele>686</ele><time>2020-06-12T11:03:34Z</time><name>PT5741</name></trkpt>
<trkpt lat="54.375363" lon="-3.129707"><ele>686</ele><time>2020-06-12T11:03:35Z</time><name>PT5742</name></trkpt>
<trkpt lat="54.375363" lon="-3.129699"><ele>686</ele><time>2020-06-12T11:03:36Z</time><name>PT5743</name></trkpt>
<trkpt lat="54.375360" lon="-3.129691"><ele>686</ele><time>2020-06-12T11:03:37Z</time><name>PT5744</name></trkpt>
<trkpt lat="54.375357" lon="-3.129686"><ele>686</ele><time>2020-06-12T11:03:38Z</time><name>PT5745</name></trkpt>
<trkpt lat="54.375357" lon="-3.129679"><ele>686</ele><time>2020-06-12T11:03:39Z</time><name>PT5746</name></trkpt>
<trkpt lat="54.375357" lon="-3.129672"><ele>686</ele><time>2020-06-12T11:03:40Z</time><name>PT5747</name></trkpt>
<trkpt lat="54.375362" lon="-3.129663"><ele>687</ele><time>2020-06-12T11:03:48Z</time><name>PT5748</name></trkpt>
<trkpt lat="54.375359" lon="-3.129649"><ele>687</ele><time>2020-06-12T11:03:49Z</time><name>PT5749</name></trkpt>
<trkpt lat="54.375363" lon="-3.129643"><ele>687</ele><time>2020-06-12T11:03:50Z</time><name>PT5750</name></trkpt>
<trkpt lat="54.375362" lon="-3.129632"><ele>687</ele><time>2020-06-12T11:03:51Z</time><name>PT5751</name></trkpt>
<trkpt lat="54.375362" lon="-3.129621"><ele>688</ele><time>2020-06-12T11:03:57Z</time><name>PT5752</name></trkpt>
<trkpt lat="54.375361" lon="-3.129600"><ele>688</ele><time>2020-06-12T11:03:58Z</time><name>PT5753</name></trkpt>
<trkpt lat="54.375359" lon="-3.129596"><ele>688</ele><time>2020-06-12T11:03:59Z</time><name>PT5754</name></trkpt>
<trkpt lat="54.375355" lon="-3.129592"><ele>688</ele><time>2020-06-12T11:04:00Z</time><name>PT5755</name></trkpt>
<trkpt lat="54.375355" lon="-3.129582"><ele>688</ele><time>2020-06-12T11:04:01Z</time><name>PT5756</name></trkpt>
<trkpt lat="54.375366" lon="-3.129567"><ele>689</ele><time>2020-06-12T11:04:06Z</time><name>PT5757</name></trkpt>
<trkpt lat="54.375354" lon="-3.129554"><ele>689</ele><time>2020-06-12T11:04:07Z</time><name>PT5758</name></trkpt>
<trkpt lat="54.375354" lon="-3.129560"><ele>689</ele><time>2020-06-12T11:04:08Z</time><name>PT5759</name></trkpt>
<trkpt lat="54.375353" lon="-3.129550"><ele>689</ele><time>2020-06-12T11:04:13Z</time><name>PT5760</name></trkpt>
<trkpt lat="54.375356" lon="-3.129545"><ele>689</ele><time>2020-06-12T11:04:14Z</time><name>PT5761</name></trkpt>
<trkpt lat="54.375354" lon="-3.129540"><ele>689</ele><time>2020-06-12T11:04:15Z</time><name>PT5762</name></trkpt>
<trkpt lat="54.375353" lon="-3.129532"><ele>689</ele><time>2020-06-12T11:04:16Z</time><name>PT5763</name></trkpt>
<trkpt lat="54.375353" lon="-3.129519"><ele>690</ele><time>2020-06-12T11:04:17Z</time><name>PT5764</name></trkpt>
<trkpt lat="54.375353" lon="-3.129512"><ele>690</ele><time>2020-06-12T11:04:18Z</time><name>PT5765</name></trkpt>
<trkpt lat="54.375353" lon="-3.129506"><ele>691</ele><time>2020-06-12T11:04:19Z</time><name>PT5766</name></trkpt>
<trkpt lat="54.375352" lon="-3.129499"><ele>691</ele><time>2020-06-12T11:04:20Z</time><name>PT5767</name></trkpt>
<trkpt lat="54.375350" lon="-3.129493"><ele>691</ele><time>2020-06-12T11:04:21Z</time><name>PT5768</name></trkpt>
<trkpt lat="54.375348" lon="-3.129488"><ele>691</ele><time>2020-06-12T11:04:22Z</time><name>PT5769</name></trkpt>
<trkpt lat="54.375344" lon="-3.129477"><ele>692</ele><time>2020-06-12T11:04:23Z</time><name>PT5770</name></trkpt>
<trkpt lat="54.375343" lon="-3.129470"><ele>692</ele><time>2020-06-12T11:04:24Z</time><name>PT5771</name></trkpt>
<trkpt lat="54.375341" lon="-3.129462"><ele>691</ele><time>2020-06-12T11:04:25Z</time><name>PT5772</name></trkpt>
<trkpt lat="54.375335" lon="-3.129451"><ele>692</ele><time>2020-06-12T11:04:26Z</time><name>PT5773</name></trkpt>
<trkpt lat="54.375330" lon="-3.129439"><ele>692</ele><time>2020-06-12T11:04:27Z</time><name>PT5774</name></trkpt>
<trkpt lat="54.375325" lon="-3.129428"><ele>692</ele><time>2020-06-12T11:04:28Z</time><name>PT5775</name></trkpt>
<trkpt lat="54.375324" lon="-3.129423"><ele>692</ele><time>2020-06-12T11:04:29Z</time><name>PT5776</name></trkpt>
<trkpt lat="54.375319" lon="-3.129416"><ele>692</ele><time>2020-06-12T11:04:30Z</time><name>PT5777</name></trkpt>
<trkpt lat="54.375314" lon="-3.129411"><ele>693</ele><time>2020-06-12T11:04:31Z</time><name>PT5778</name></trkpt>
<trkpt lat="54.375309" lon="-3.129400"><ele>693</ele><time>2020-06-12T11:04:32Z</time><name>PT5779</name></trkpt>
<trkpt lat="54.375308" lon="-3.129386"><ele>693</ele><time>2020-06-12T11:04:33Z</time><name>PT5780</name></trkpt>
<trkpt lat="54.375303" lon="-3.129377"><ele>693</ele><time>2020-06-12T11:04:34Z</time><name>PT5781</name></trkpt>
<trkpt lat="54.375299" lon="-3.129368"><ele>693</ele><time>2020-06-12T11:04:35Z</time><name>PT5782</name></trkpt>
<trkpt lat="54.375295" lon="-3.129362"><ele>694</ele><time>2020-06-12T11:04:36Z</time><name>PT5783</name></trkpt>
<trkpt lat="54.375293" lon="-3.129357"><ele>694</ele><time>2020-06-12T11:04:37Z</time><name>PT5784</name></trkpt>
<trkpt lat="54.375292" lon="-3.129351"><ele>693</ele><time>2020-06-12T11:04:38Z</time><name>PT5785</name></trkpt>
<trkpt lat="54.375287" lon="-3.129349"><ele>693</ele><time>2020-06-12T11:04:40Z</time><name>PT5786</name></trkpt>
<trkpt lat="54.375280" lon="-3.129351"><ele>693</ele><time>2020-06-12T11:04:41Z</time><name>PT5787</name></trkpt>
<trkpt lat="54.375267" lon="-3.129350"><ele>693</ele><time>2020-06-12T11:04:42Z</time><name>PT5788</name></trkpt>
<trkpt lat="54.375267" lon="-3.129342"><ele>693</ele><time>2020-06-12T11:04:43Z</time><name>PT5789</name></trkpt>
<trkpt lat="54.375267" lon="-3.129340"><ele>693</ele><time>2020-06-12T11:04:44Z</time><name>PT5790</name></trkpt>
<trkpt lat="54.375264" lon="-3.129339"><ele>693</ele><time>2020-06-12T11:04:45Z</time><name>PT5791</name></trkpt>
<trkpt lat="54.375261" lon="-3.129331"><ele>693</ele><time>2020-06-12T11:04:46Z</time><name>PT5792</name></trkpt>
<trkpt lat="54.375259" lon="-3.129328"><ele>693</ele><time>2020-06-12T11:04:47Z</time><name>PT5793</name></trkpt>
<trkpt lat="54.375256" lon="-3.129322"><ele>693</ele><time>2020-06-12T11:04:48Z</time><name>PT5794</name></trkpt>
<trkpt lat="54.375252" lon="-3.129324"><ele>693</ele><time>2020-06-12T11:04:50Z</time><name>PT5795</name></trkpt>
<trkpt lat="54.375246" lon="-3.129324"><ele>693</ele><time>2020-06-12T11:04:50Z</time><name>PT5796</name></trkpt>
<trkpt lat="54.375238" lon="-3.129317"><ele>693</ele><time>2020-06-12T11:04:51Z</time><name>PT5797</name></trkpt>
<trkpt lat="54.375231" lon="-3.129310"><ele>693</ele><time>2020-06-12T11:04:52Z</time><name>PT5798</name></trkpt>
<trkpt lat="54.375225" lon="-3.129307"><ele>693</ele><time>2020-06-12T11:04:53Z</time><name>PT5799</name></trkpt>
<trkpt lat="54.375218" lon="-3.129299"><ele>693</ele><time>2020-06-12T11:04:54Z</time><name>PT5800</name></trkpt>
<trkpt lat="54.375213" lon="-3.129295"><ele>693</ele><time>2020-06-12T11:04:55Z</time><name>PT5801</name></trkpt>
<trkpt lat="54.375206" lon="-3.129290"><ele>693</ele><time>2020-06-12T11:04:56Z</time><name>PT5802</name></trkpt>
<trkpt lat="54.375199" lon="-3.129287"><ele>692</ele><time>2020-06-12T11:04:57Z</time><name>PT5803</name></trkpt>
<trkpt lat="54.375191" lon="-3.129279"><ele>693</ele><time>2020-06-12T11:04:58Z</time><name>PT5804</name></trkpt>
<trkpt lat="54.375186" lon="-3.129271"><ele>693</ele><time>2020-06-12T11:04:59Z</time><name>PT5805</name></trkpt>
<trkpt lat="54.375183" lon="-3.129264"><ele>693</ele><time>2020-06-12T11:05:00Z</time><name>PT5806</name></trkpt>
<trkpt lat="54.375178" lon="-3.129259"><ele>693</ele><time>2020-06-12T11:05:01Z</time><name>PT5807</name></trkpt>
<trkpt lat="54.375173" lon="-3.129251"><ele>693</ele><time>2020-06-12T11:05:02Z</time><name>PT5808</name></trkpt>
<trkpt lat="54.375166" lon="-3.129246"><ele>693</ele><time>2020-06-12T11:05:03Z</time><name>PT5809</name></trkpt>
<trkpt lat="54.375163" lon="-3.129239"><ele>693</ele><time>2020-06-12T11:05:04Z</time><name>PT5810</name></trkpt>
<trkpt lat="54.375160" lon="-3.129234"><ele>693</ele><time>2020-06-12T11:05:05Z</time><name>PT5811</name></trkpt>
<trkpt lat="54.375155" lon="-3.129226"><ele>693</ele><time>2020-06-12T11:05:06Z</time><name>PT5812</name></trkpt>
<trkpt lat="54.375150" lon="-3.129223"><ele>693</ele><time>2020-06-12T11:05:07Z</time><name>PT5813</name></trkpt>
<trkpt lat="54.375143" lon="-3.129215"><ele>693</ele><time>2020-06-12T11:05:08Z</time><name>PT5814</name></trkpt>
<trkpt lat="54.375136" lon="-3.129206"><ele>693</ele><time>2020-06-12T11:05:09Z</time><name>PT5815</name></trkpt>
<trkpt lat="54.375133" lon="-3.129195"><ele>693</ele><time>2020-06-12T11:05:10Z</time><name>PT5816</name></trkpt>
<trkpt lat="54.375131" lon="-3.129192"><ele>693</ele><time>2020-06-12T11:05:11Z</time><name>PT5817</name></trkpt>
<trkpt lat="54.375129" lon="-3.129193"><ele>693</ele><time>2020-06-12T11:05:12Z</time><name>PT5818</name></trkpt>
<trkpt lat="54.375124" lon="-3.129188"><ele>693</ele><time>2020-06-12T11:05:13Z</time><name>PT5819</name></trkpt>
<trkpt lat="54.375121" lon="-3.129181"><ele>693</ele><time>2020-06-12T11:05:22Z</time><name>PT5820</name></trkpt>
<trkpt lat="54.375113" lon="-3.129179"><ele>694</ele><time>2020-06-12T11:05:23Z</time><name>PT5821</name></trkpt>
<trkpt lat="54.375109" lon="-3.129175"><ele>694</ele><time>2020-06-12T11:05:24Z</time><name>PT5822</name></trkpt>
<trkpt lat="54.375107" lon="-3.129164"><ele>694</ele><time>2020-06-12T11:05:25Z</time><name>PT5823</name></trkpt>
<trkpt lat="54.375104" lon="-3.129155"><ele>694</ele><time>2020-06-12T11:05:26Z</time><name>PT5824</name></trkpt>
<trkpt lat="54.375105" lon="-3.129142"><ele>694</ele><time>2020-06-12T11:05:27Z</time><name>PT5825</name></trkpt>
<trkpt lat="54.375106" lon="-3.129133"><ele>695</ele><time>2020-06-12T11:05:28Z</time><name>PT5826</name></trkpt>
<trkpt lat="54.375100" lon="-3.129128"><ele>695</ele><time>2020-06-12T11:05:30Z</time><name>PT5827</name></trkpt>
<trkpt lat="54.375096" lon="-3.129122"><ele>695</ele><time>2020-06-12T11:05:30Z</time><name>PT5828</name></trkpt>
<trkpt lat="54.375094" lon="-3.129112"><ele>695</ele><time>2020-06-12T11:05:32Z</time><name>PT5829</name></trkpt>
<trkpt lat="54.375092" lon="-3.129096"><ele>696</ele><time>2020-06-12T11:05:32Z</time><name>PT5830</name></trkpt>
<trkpt lat="54.375094" lon="-3.129082"><ele>696</ele><time>2020-06-12T11:05:33Z</time><name>PT5831</name></trkpt>
<trkpt lat="54.375093" lon="-3.129072"><ele>696</ele><time>2020-06-12T11:05:34Z</time><name>PT5832</name></trkpt>
<trkpt lat="54.375093" lon="-3.129065"><ele>695</ele><time>2020-06-12T11:05:35Z</time><name>PT5833</name></trkpt>
<trkpt lat="54.375093" lon="-3.129059"><ele>695</ele><time>2020-06-12T11:05:36Z</time><name>PT5834</name></trkpt>
<trkpt lat="54.375093" lon="-3.129053"><ele>695</ele><time>2020-06-12T11:05:37Z</time><name>PT5835</name></trkpt>
<trkpt lat="54.375089" lon="-3.129045"><ele>696</ele><time>2020-06-12T11:05:38Z</time><name>PT5836</name></trkpt>
<trkpt lat="54.375086" lon="-3.129038"><ele>696</ele><time>2020-06-12T11:05:40Z</time><name>PT5837</name></trkpt>
<trkpt lat="54.375079" lon="-3.129034"><ele>696</ele><time>2020-06-12T11:05:40Z</time><name>PT5838</name></trkpt>
<trkpt lat="54.375076" lon="-3.129030"><ele>696</ele><time>2020-06-12T11:05:41Z</time><name>PT5839</name></trkpt>
<trkpt lat="54.375070" lon="-3.129026"><ele>696</ele><time>2020-06-12T11:05:42Z</time><name>PT5840</name></trkpt>
<trkpt lat="54.375063" lon="-3.129018"><ele>696</ele><time>2020-06-12T11:05:43Z</time><name>PT5841</name></trkpt>
<trkpt lat="54.375057" lon="-3.129010"><ele>696</ele><time>2020-06-12T11:05:44Z</time><name>PT5842</name></trkpt>
<trkpt lat="54.375050" lon="-3.129007"><ele>696</ele><time>2020-06-12T11:05:45Z</time><name>PT5843</name></trkpt>
<trkpt lat="54.375046" lon="-3.128997"><ele>696</ele><time>2020-06-12T11:05:46Z</time><name>PT5844</name></trkpt>
<trkpt lat="54.375044" lon="-3.128983"><ele>696</ele><time>2020-06-12T11:05:47Z</time><name>PT5845</name></trkpt>
<trkpt lat="54.375043" lon="-3.128973"><ele>697</ele><time>2020-06-12T11:05:48Z</time><name>PT5846</name></trkpt>
<trkpt lat="54.375043" lon="-3.128965"><ele>696</ele><time>2020-06-12T11:05:49Z</time><name>PT5847</name></trkpt>
<trkpt lat="54.375039" lon="-3.128961"><ele>696</ele><time>2020-06-12T11:05:50Z</time><name>PT5848</name></trkpt>
<trkpt lat="54.375036" lon="-3.128956"><ele>696</ele><time>2020-06-12T11:05:51Z</time><name>PT5849</name></trkpt>
<trkpt lat="54.375032" lon="-3.128945"><ele>697</ele><time>2020-06-12T11:05:52Z</time><name>PT5850</name></trkpt>
<trkpt lat="54.375030" lon="-3.128938"><ele>697</ele><time>2020-06-12T11:05:53Z</time><name>PT5851</name></trkpt>
<trkpt lat="54.375028" lon="-3.128929"><ele>697</ele><time>2020-06-12T11:05:54Z</time><name>PT5852</name></trkpt>
<trkpt lat="54.375027" lon="-3.128920"><ele>697</ele><time>2020-06-12T11:05:55Z</time><name>PT5853</name></trkpt>
<trkpt lat="54.375025" lon="-3.128912"><ele>698</ele><time>2020-06-12T11:05:56Z</time><name>PT5854</name></trkpt>
<trkpt lat="54.375022" lon="-3.128903"><ele>698</ele><time>2020-06-12T11:05:57Z</time><name>PT5855</name></trkpt>
<trkpt lat="54.375021" lon="-3.128893"><ele>698</ele><time>2020-06-12T11:05:58Z</time><name>PT5856</name></trkpt>
<trkpt lat="54.375020" lon="-3.128886"><ele>698</ele><time>2020-06-12T11:05:59Z</time><name>PT5857</name></trkpt>
<trkpt lat="54.375018" lon="-3.128879"><ele>698</ele><time>2020-06-12T11:06:00Z</time><name>PT5858</name></trkpt>
<trkpt lat="54.375015" lon="-3.128867"><ele>698</ele><time>2020-06-12T11:06:01Z</time><name>PT5859</name></trkpt>
<trkpt lat="54.375016" lon="-3.128861"><ele>698</ele><time>2020-06-12T11:06:02Z</time><name>PT5860</name></trkpt>
<trkpt lat="54.375015" lon="-3.128853"><ele>699</ele><time>2020-06-12T11:06:03Z</time><name>PT5861</name></trkpt>
<trkpt lat="54.375015" lon="-3.128844"><ele>699</ele><time>2020-06-12T11:06:04Z</time><name>PT5862</name></trkpt>
<trkpt lat="54.375019" lon="-3.128833"><ele>699</ele><time>2020-06-12T11:06:19Z</time><name>PT5863</name></trkpt>
<trkpt lat="54.375017" lon="-3.128816"><ele>700</ele><time>2020-06-12T11:06:20Z</time><name>PT5864</name></trkpt>
<trkpt lat="54.375016" lon="-3.128801"><ele>700</ele><time>2020-06-12T11:06:21Z</time><name>PT5865</name></trkpt>
<trkpt lat="54.375016" lon="-3.128789"><ele>701</ele><time>2020-06-12T11:07:12Z</time><name>PT5866</name></trkpt>
<trkpt lat="54.375013" lon="-3.128752"><ele>702</ele><time>2020-06-12T11:07:13Z</time><name>PT5867</name></trkpt>
<trkpt lat="54.375011" lon="-3.128729"><ele>703</ele><time>2020-06-12T11:07:14Z</time><name>PT5868</name></trkpt>
<trkpt lat="54.375009" lon="-3.128706"><ele>704</ele><time>2020-06-12T11:07:15Z</time><name>PT5869</name></trkpt>
<trkpt lat="54.375013" lon="-3.128684"><ele>705</ele><time>2020-06-12T11:07:16Z</time><name>PT5870</name></trkpt>
<trkpt lat="54.375013" lon="-3.128663"><ele>705</ele><time>2020-06-12T11:07:17Z</time><name>PT5871</name></trkpt>
<trkpt lat="54.375018" lon="-3.128643"><ele>705</ele><time>2020-06-12T11:07:18Z</time><name>PT5872</name></trkpt>
<trkpt lat="54.375018" lon="-3.128628"><ele>706</ele><time>2020-06-12T11:07:19Z</time><name>PT5873</name></trkpt>
<trkpt lat="54.375020" lon="-3.128609"><ele>706</ele><time>2020-06-12T11:07:20Z</time><name>PT5874</name></trkpt>
<trkpt lat="54.375018" lon="-3.128595"><ele>706</ele><time>2020-06-12T11:07:21Z</time><name>PT5875</name></trkpt>
<trkpt lat="54.375007" lon="-3.128572"><ele>708</ele><time>2020-06-12T11:07:56Z</time><name>PT5876</name></trkpt>
<trkpt lat="54.374999" lon="-3.128549"><ele>709</ele><time>2020-06-12T11:07:57Z</time><name>PT5877</name></trkpt>
<trkpt lat="54.374997" lon="-3.128523"><ele>710</ele><time>2020-06-12T11:07:58Z</time><name>PT5878</name></trkpt>
<trkpt lat="54.375003" lon="-3.128475"><ele>711</ele><time>2020-06-12T11:07:59Z</time><name>PT5879</name></trkpt>
<trkpt lat="54.375004" lon="-3.128461"><ele>711</ele><time>2020-06-12T11:08:00Z</time><name>PT5880</name></trkpt>
<trkpt lat="54.375004" lon="-3.128435"><ele>712</ele><time>2020-06-12T11:08:01Z</time><name>PT5881</name></trkpt>
<trkpt lat="54.375004" lon="-3.128413"><ele>712</ele><time>2020-06-12T11:08:02Z</time><name>PT5882</name></trkpt>
<trkpt lat="54.374998" lon="-3.128383"><ele>713</ele><time>2020-06-12T11:08:10Z</time><name>PT5883</name></trkpt>
<trkpt lat="54.374993" lon="-3.128344"><ele>713</ele><time>2020-06-12T11:08:11Z</time><name>PT5884</name></trkpt>
<trkpt lat="54.374991" lon="-3.128311"><ele>713</ele><time>2020-06-12T11:08:12Z</time><name>PT5885</name></trkpt>
<trkpt lat="54.374989" lon="-3.128284"><ele>713</ele><time>2020-06-12T11:08:13Z</time><name>PT5886</name></trkpt>
<trkpt lat="54.374990" lon="-3.128258"><ele>713</ele><time>2020-06-12T11:08:14Z</time><name>PT5887</name></trkpt>
<trkpt lat="54.374991" lon="-3.128237"><ele>713</ele><time>2020-06-12T11:08:18Z</time><name>PT5888</name></trkpt>
<trkpt lat="54.374992" lon="-3.128203"><ele>713</ele><time>2020-06-12T11:08:19Z</time><name>PT5889</name></trkpt>
<trkpt lat="54.374993" lon="-3.128174"><ele>714</ele><time>2020-06-12T11:08:20Z</time><name>PT5890</name></trkpt>
<trkpt lat="54.374998" lon="-3.128152"><ele>714</ele><time>2020-06-12T11:08:21Z</time><name>PT5891</name></trkpt>
<trkpt lat="54.375002" lon="-3.128138"><ele>714</ele><time>2020-06-12T11:08:22Z</time><name>PT5892</name></trkpt>
<trkpt lat="54.375003" lon="-3.128106"><ele>714</ele><time>2020-06-12T11:08:23Z</time><name>PT5893</name></trkpt>
<trkpt lat="54.375005" lon="-3.128088"><ele>714</ele><time>2020-06-12T11:08:24Z</time><name>PT5894</name></trkpt>
<trkpt lat="54.375000" lon="-3.128059"><ele>715</ele><time>2020-06-12T11:08:40Z</time><name>PT5895</name></trkpt>
<trkpt lat="54.375002" lon="-3.128026"><ele>716</ele><time>2020-06-12T11:08:41Z</time><name>PT5896</name></trkpt>
<trkpt lat="54.375005" lon="-3.128005"><ele>716</ele><time>2020-06-12T11:08:42Z</time><name>PT5897</name></trkpt>
<trkpt lat="54.375006" lon="-3.127979"><ele>716</ele><time>2020-06-12T11:08:43Z</time><name>PT5898</name></trkpt>
<trkpt lat="54.375007" lon="-3.127959"><ele>716</ele><time>2020-06-12T11:08:44Z</time><name>PT5899</name></trkpt>
<trkpt lat="54.375007" lon="-3.127941"><ele>716</ele><time>2020-06-12T11:08:45Z</time><name>PT5900</name></trkpt>
<trkpt lat="54.375008" lon="-3.127922"><ele>716</ele><time>2020-06-12T11:08:46Z</time><name>PT5901</name></trkpt>
<trkpt lat="54.375007" lon="-3.127903"><ele>716</ele><time>2020-06-12T11:08:47Z</time><name>PT5902</name></trkpt>
<trkpt lat="54.375008" lon="-3.127889"><ele>716</ele><time>2020-06-12T11:08:48Z</time><name>PT5903</name></trkpt>
<trkpt lat="54.375007" lon="-3.127872"><ele>716</ele><time>2020-06-12T11:08:49Z</time><name>PT5904</name></trkpt>
<trkpt lat="54.375007" lon="-3.127856"><ele>716</ele><time>2020-06-12T11:08:50Z</time><name>PT5905</name></trkpt>
<trkpt lat="54.375008" lon="-3.127841"><ele>716</ele><time>2020-06-12T11:08:51Z</time><name>PT5906</name></trkpt>
<trkpt lat="54.375003" lon="-3.127819"><ele>716</ele><time>2020-06-12T11:08:52Z</time><name>PT5907</name></trkpt>
<trkpt lat="54.375006" lon="-3.127808"><ele>716</ele><time>2020-06-12T11:08:53Z</time><name>PT5908</name></trkpt>
<trkpt lat="54.375007" lon="-3.127791"><ele>716</ele><time>2020-06-12T11:08:54Z</time><name>PT5909</name></trkpt>
<trkpt lat="54.375007" lon="-3.127782"><ele>716</ele><time>2020-06-12T11:08:55Z</time><name>PT5910</name></trkpt>
<trkpt lat="54.374993" lon="-3.127738"><ele>717</ele><time>2020-06-12T11:09:10Z</time><name>PT5911</name></trkpt>
<trkpt lat="54.374977" lon="-3.127705"><ele>717</ele><time>2020-06-12T11:09:11Z</time><name>PT5912</name></trkpt>
<trkpt lat="54.374967" lon="-3.127686"><ele>719</ele><time>2020-06-12T11:09:26Z</time><name>PT5913</name></trkpt>
<trkpt lat="54.374953" lon="-3.127669"><ele>720</ele><time>2020-06-12T11:09:27Z</time><name>PT5914</name></trkpt>
<trkpt lat="54.374941" lon="-3.127649"><ele>721</ele><time>2020-06-12T11:09:28Z</time><name>PT5915</name></trkpt>
<trkpt lat="54.374930" lon="-3.127633"><ele>721</ele><time>2020-06-12T11:09:29Z</time><name>PT5916</name></trkpt>
<trkpt lat="54.374923" lon="-3.127616"><ele>722</ele><time>2020-06-12T11:09:30Z</time><name>PT5917</name></trkpt>
<trkpt lat="54.374919" lon="-3.127597"><ele>722</ele><time>2020-06-12T11:09:31Z</time><name>PT5918</name></trkpt>
<trkpt lat="54.374912" lon="-3.127584"><ele>722</ele><time>2020-06-12T11:09:32Z</time><name>PT5919</name></trkpt>
<trkpt lat="54.374906" lon="-3.127565"><ele>723</ele><time>2020-06-12T11:09:33Z</time><name>PT5920</name></trkpt>
<trkpt lat="54.374900" lon="-3.127544"><ele>723</ele><time>2020-06-12T11:09:34Z</time><name>PT5921</name></trkpt>
<trkpt lat="54.374899" lon="-3.127528"><ele>723</ele><time>2020-06-12T11:09:35Z</time><name>PT5922</name></trkpt>
<trkpt lat="54.374897" lon="-3.127509"><ele>724</ele><time>2020-06-12T11:09:36Z</time><name>PT5923</name></trkpt>
<trkpt lat="54.374893" lon="-3.127495"><ele>723</ele><time>2020-06-12T11:09:37Z</time><name>PT5924</name></trkpt>
<trkpt lat="54.374889" lon="-3.127482"><ele>723</ele><time>2020-06-12T11:09:38Z</time><name>PT5925</name></trkpt>
<trkpt lat="54.374887" lon="-3.127469"><ele>724</ele><time>2020-06-12T11:09:39Z</time><name>PT5926</name></trkpt>
<trkpt lat="54.374884" lon="-3.127460"><ele>724</ele><time>2020-06-12T11:09:40Z</time><name>PT5927</name></trkpt>
<trkpt lat="54.374884" lon="-3.127446"><ele>724</ele><time>2020-06-12T11:09:41Z</time><name>PT5928</name></trkpt>
<trkpt lat="54.374884" lon="-3.127432"><ele>725</ele><time>2020-06-12T11:09:42Z</time><name>PT5929</name></trkpt>
<trkpt lat="54.374884" lon="-3.127417"><ele>725</ele><time>2020-06-12T11:09:43Z</time><name>PT5930</name></trkpt>
<trkpt lat="54.374884" lon="-3.127404"><ele>725</ele><time>2020-06-12T11:09:44Z</time><name>PT5931</name></trkpt>
<trkpt lat="54.374884" lon="-3.127388"><ele>725</ele><time>2020-06-12T11:09:45Z</time><name>PT5932</name></trkpt>
<trkpt lat="54.374882" lon="-3.127373"><ele>726</ele><time>2020-06-12T11:09:46Z</time><name>PT5933</name></trkpt>
<trkpt lat="54.374879" lon="-3.127359"><ele>726</ele><time>2020-06-12T11:09:47Z</time><name>PT5934</name></trkpt>
<trkpt lat="54.374876" lon="-3.127348"><ele>726</ele><time>2020-06-12T11:09:48Z</time><name>PT5935</name></trkpt>
<trkpt lat="54.374874" lon="-3.127335"><ele>726</ele><time>2020-06-12T11:09:49Z</time><name>PT5936</name></trkpt>
<trkpt lat="54.374875" lon="-3.127322"><ele>727</ele><time>2020-06-12T11:09:50Z</time><name>PT5937</name></trkpt>
<trkpt lat="54.374876" lon="-3.127310"><ele>727</ele><time>2020-06-12T11:09:51Z</time><name>PT5938</name></trkpt>
<trkpt lat="54.374875" lon="-3.127300"><ele>728</ele><time>2020-06-12T11:09:52Z</time><name>PT5939</name></trkpt>
<trkpt lat="54.374876" lon="-3.127288"><ele>728</ele><time>2020-06-12T11:09:53Z</time><name>PT5940</name></trkpt>
<trkpt lat="54.374876" lon="-3.127275"><ele>728</ele><time>2020-06-12T11:09:54Z</time><name>PT5941</name></trkpt>
<trkpt lat="54.374874" lon="-3.127261"><ele>728</ele><time>2020-06-12T11:09:55Z</time><name>PT5942</name></trkpt>
<trkpt lat="54.374874" lon="-3.127250"><ele>729</ele><time>2020-06-12T11:09:56Z</time><name>PT5943</name></trkpt>
<trkpt lat="54.374872" lon="-3.127237"><ele>729</ele><time>2020-06-12T11:09:57Z</time><name>PT5944</name></trkpt>
<trkpt lat="54.374870" lon="-3.127226"><ele>729</ele><time>2020-06-12T11:09:58Z</time><name>PT5945</name></trkpt>
<trkpt lat="54.374869" lon="-3.127214"><ele>729</ele><time>2020-06-12T11:09:59Z</time><name>PT5946</name></trkpt>
<trkpt lat="54.374867" lon="-3.127202"><ele>730</ele><time>2020-06-12T11:10:00Z</time><name>PT5947</name></trkpt>
<trkpt lat="54.374865" lon="-3.127188"><ele>730</ele><time>2020-06-12T11:10:01Z</time><name>PT5948</name></trkpt>
<trkpt lat="54.374863" lon="-3.127176"><ele>731</ele><time>2020-06-12T11:10:02Z</time><name>PT5949</name></trkpt>
<trkpt lat="54.374859" lon="-3.127164"><ele>731</ele><time>2020-06-12T11:10:03Z</time><name>PT5950</name></trkpt>
<trkpt lat="54.374857" lon="-3.127153"><ele>731</ele><time>2020-06-12T11:10:04Z</time><name>PT5951</name></trkpt>
<trkpt lat="54.374855" lon="-3.127144"><ele>732</ele><time>2020-06-12T11:10:05Z</time><name>PT5952</name></trkpt>
<trkpt lat="54.374855" lon="-3.127136"><ele>732</ele><time>2020-06-12T11:10:06Z</time><name>PT5953</name></trkpt>
<trkpt lat="54.374853" lon="-3.127126"><ele>732</ele><time>2020-06-12T11:10:07Z</time><name>PT5954</name></trkpt>
<trkpt lat="54.374849" lon="-3.127118"><ele>732</ele><time>2020-06-12T11:10:08Z</time><name>PT5955</name></trkpt>
<trkpt lat="54.374848" lon="-3.127111"><ele>732</ele><time>2020-06-12T11:10:09Z</time><name>PT5956</name></trkpt>
<trkpt lat="54.374846" lon="-3.127106"><ele>732</ele><time>2020-06-12T11:10:10Z</time><name>PT5957</name></trkpt>
<trkpt lat="54.374841" lon="-3.127100"><ele>733</ele><time>2020-06-12T11:10:11Z</time><name>PT5958</name></trkpt>
<trkpt lat="54.374837" lon="-3.127096"><ele>733</ele><time>2020-06-12T11:10:12Z</time><name>PT5959</name></trkpt>
<trkpt lat="54.374832" lon="-3.127089"><ele>733</ele><time>2020-06-12T11:10:14Z</time><name>PT5960</name></trkpt>
<trkpt lat="54.374828" lon="-3.127079"><ele>733</ele><time>2020-06-12T11:10:14Z</time><name>PT5961</name></trkpt>
<trkpt lat="54.374825" lon="-3.127068"><ele>733</ele><time>2020-06-12T11:10:15Z</time><name>PT5962</name></trkpt>
<trkpt lat="54.374822" lon="-3.127056"><ele>733</ele><time>2020-06-12T11:10:16Z</time><name>PT5963</name></trkpt>
<trkpt lat="54.374822" lon="-3.127047"><ele>734</ele><time>2020-06-12T11:10:17Z</time><name>PT5964</name></trkpt>
<trkpt lat="54.374820" lon="-3.127038"><ele>734</ele><time>2020-06-12T11:10:18Z</time><name>PT5965</name></trkpt>
<trkpt lat="54.374819" lon="-3.127027"><ele>734</ele><time>2020-06-12T11:10:19Z</time><name>PT5966</name></trkpt>
<trkpt lat="54.374817" lon="-3.127017"><ele>734</ele><time>2020-06-12T11:10:20Z</time><name>PT5967</name></trkpt>
<trkpt lat="54.374816" lon="-3.127006"><ele>735</ele><time>2020-06-12T11:10:21Z</time><name>PT5968</name></trkpt>
<trkpt lat="54.374814" lon="-3.126997"><ele>735</ele><time>2020-06-12T11:10:22Z</time><name>PT5969</name></trkpt>
<trkpt lat="54.374810" lon="-3.126987"><ele>735</ele><time>2020-06-12T11:10:23Z</time><name>PT5970</name></trkpt>
<trkpt lat="54.374806" lon="-3.126980"><ele>735</ele><time>2020-06-12T11:10:24Z</time><name>PT5971</name></trkpt>
<trkpt lat="54.374802" lon="-3.126971"><ele>736</ele><time>2020-06-12T11:10:25Z</time><name>PT5972</name></trkpt>
<trkpt lat="54.374799" lon="-3.126961"><ele>736</ele><time>2020-06-12T11:10:26Z</time><name>PT5973</name></trkpt>
<trkpt lat="54.374796" lon="-3.126950"><ele>736</ele><time>2020-06-12T11:10:27Z</time><name>PT5974</name></trkpt>
<trkpt lat="54.374793" lon="-3.126940"><ele>736</ele><time>2020-06-12T11:10:28Z</time><name>PT5975</name></trkpt>
<trkpt lat="54.374790" lon="-3.126929"><ele>737</ele><time>2020-06-12T11:10:29Z</time><name>PT5976</name></trkpt>
<trkpt lat="54.374787" lon="-3.126920"><ele>737</ele><time>2020-06-12T11:10:30Z</time><name>PT5977</name></trkpt>
<trkpt lat="54.374784" lon="-3.126912"><ele>737</ele><time>2020-06-12T11:10:31Z</time><name>PT5978</name></trkpt>
<trkpt lat="54.374781" lon="-3.126903"><ele>738</ele><time>2020-06-12T11:10:32Z</time><name>PT5979</name></trkpt>
<trkpt lat="54.374779" lon="-3.126892"><ele>738</ele><time>2020-06-12T11:10:33Z</time><name>PT5980</name></trkpt>
<trkpt lat="54.374776" lon="-3.126880"><ele>738</ele><time>2020-06-12T11:10:34Z</time><name>PT5981</name></trkpt>
<trkpt lat="54.374771" lon="-3.126871"><ele>739</ele><time>2020-06-12T11:10:35Z</time><name>PT5982</name></trkpt>
<trkpt lat="54.374766" lon="-3.126862"><ele>739</ele><time>2020-06-12T11:10:36Z</time><name>PT5983</name></trkpt>
<trkpt lat="54.374759" lon="-3.126854"><ele>740</ele><time>2020-06-12T11:10:37Z</time><name>PT5984</name></trkpt>
<trkpt lat="54.374754" lon="-3.126843"><ele>740</ele><time>2020-06-12T11:10:38Z</time><name>PT5985</name></trkpt>
<trkpt lat="54.374751" lon="-3.126833"><ele>740</ele><time>2020-06-12T11:10:39Z</time><name>PT5986</name></trkpt>
<trkpt lat="54.374749" lon="-3.126822"><ele>740</ele><time>2020-06-12T11:10:40Z</time><name>PT5987</name></trkpt>
<trkpt lat="54.374745" lon="-3.126814"><ele>741</ele><time>2020-06-12T11:10:41Z</time><name>PT5988</name></trkpt>
<trkpt lat="54.374741" lon="-3.126806"><ele>741</ele><time>2020-06-12T11:10:42Z</time><name>PT5989</name></trkpt>
<trkpt lat="54.374738" lon="-3.126796"><ele>742</ele><time>2020-06-12T11:10:43Z</time><name>PT5990</name></trkpt>
<trkpt lat="54.374728" lon="-3.126787"><ele>742</ele><time>2020-06-12T11:10:50Z</time><name>PT5991</name></trkpt>
<trkpt lat="54.374720" lon="-3.126772"><ele>743</ele><time>2020-06-12T11:10:51Z</time><name>PT5992</name></trkpt>
<trkpt lat="54.374715" lon="-3.126748"><ele>743</ele><time>2020-06-12T11:10:52Z</time><name>PT5993</name></trkpt>
<trkpt lat="54.374714" lon="-3.126729"><ele>743</ele><time>2020-06-12T11:10:53Z</time><name>PT5994</name></trkpt>
<trkpt lat="54.374710" lon="-3.126716"><ele>743</ele><time>2020-06-12T11:10:54Z</time><name>PT5995</name></trkpt>
<trkpt lat="54.374703" lon="-3.126709"><ele>743</ele><time>2020-06-12T11:10:55Z</time><name>PT5996</name></trkpt>
<trkpt lat="54.374702" lon="-3.126698"><ele>743</ele><time>2020-06-12T11:10:56Z</time><name>PT5997</name></trkpt>
<trkpt lat="54.374698" lon="-3.126687"><ele>743</ele><time>2020-06-12T11:10:57Z</time><name>PT5998</name></trkpt>
<trkpt lat="54.374693" lon="-3.126678"><ele>743</ele><time>2020-06-12T11:10:58Z</time><name>PT5999</name></trkpt>
<trkpt lat="54.374691" lon="-3.126668"><ele>744</ele><time>2020-06-12T11:10:59Z</time><name>PT6000</name></trkpt>
<trkpt lat="54.374690" lon="-3.126656"><ele>744</ele><time>2020-06-12T11:11:00Z</time><name>PT6001</name></trkpt>
<trkpt lat="54.374690" lon="-3.126647"><ele>744</ele><time>2020-06-12T11:11:01Z</time><name>PT6002</name></trkpt>
<trkpt lat="54.374688" lon="-3.126637"><ele>744</ele><time>2020-06-12T11:11:02Z</time><name>PT6003</name></trkpt>
<trkpt lat="54.374684" lon="-3.126624"><ele>744</ele><time>2020-06-12T11:11:03Z</time><name>PT6004</name></trkpt>
<trkpt lat="54.374680" lon="-3.126619"><ele>745</ele><time>2020-06-12T11:11:04Z</time><name>PT6005</name></trkpt>
<trkpt lat="54.374674" lon="-3.126611"><ele>745</ele><time>2020-06-12T11:11:05Z</time><name>PT6006</name></trkpt>
<trkpt lat="54.374668" lon="-3.126604"><ele>745</ele><time>2020-06-12T11:11:06Z</time><name>PT6007</name></trkpt>
<trkpt lat="54.374662" lon="-3.126599"><ele>745</ele><time>2020-06-12T11:11:07Z</time><name>PT6008</name></trkpt>
<trkpt lat="54.374654" lon="-3.126594"><ele>746</ele><time>2020-06-12T11:11:08Z</time><name>PT6009</name></trkpt>
<trkpt lat="54.374644" lon="-3.126584"><ele>745</ele><time>2020-06-12T11:11:09Z</time><name>PT6010</name></trkpt>
<trkpt lat="54.374630" lon="-3.126578"><ele>746</ele><time>2020-06-12T11:11:10Z</time><name>PT6011</name></trkpt>
<trkpt lat="54.374621" lon="-3.126574"><ele>746</ele><time>2020-06-12T11:11:11Z</time><name>PT6012</name></trkpt>
<trkpt lat="54.374610" lon="-3.126568"><ele>746</ele><time>2020-06-12T11:11:12Z</time><name>PT6013</name></trkpt>
<trkpt lat="54.374601" lon="-3.126558"><ele>746</ele><time>2020-06-12T11:11:13Z</time><name>PT6014</name></trkpt>
<trkpt lat="54.374596" lon="-3.126548"><ele>746</ele><time>2020-06-12T11:11:14Z</time><name>PT6015</name></trkpt>
<trkpt lat="54.374593" lon="-3.126539"><ele>747</ele><time>2020-06-12T11:11:15Z</time><name>PT6016</name></trkpt>
<trkpt lat="54.374588" lon="-3.126528"><ele>747</ele><time>2020-06-12T11:11:16Z</time><name>PT6017</name></trkpt>
<trkpt lat="54.374582" lon="-3.126517"><ele>747</ele><time>2020-06-12T11:11:17Z</time><name>PT6018</name></trkpt>
<trkpt lat="54.374579" lon="-3.126508"><ele>747</ele><time>2020-06-12T11:11:18Z</time><name>PT6019</name></trkpt>
<trkpt lat="54.374575" lon="-3.126492"><ele>747</ele><time>2020-06-12T11:11:19Z</time><name>PT6020</name></trkpt>
<trkpt lat="54.374570" lon="-3.126478"><ele>748</ele><time>2020-06-12T11:11:20Z</time><name>PT6021</name></trkpt>
<trkpt lat="54.374562" lon="-3.126466"><ele>748</ele><time>2020-06-12T11:11:21Z</time><name>PT6022</name></trkpt>
<trkpt lat="54.374558" lon="-3.126454"><ele>748</ele><time>2020-06-12T11:11:22Z</time><name>PT6023</name></trkpt>
<trkpt lat="54.374551" lon="-3.126447"><ele>748</ele><time>2020-06-12T11:11:23Z</time><name>PT6024</name></trkpt>
<trkpt lat="54.374544" lon="-3.126440"><ele>748</ele><time>2020-06-12T11:11:24Z</time><name>PT6025</name></trkpt>
<trkpt lat="54.374534" lon="-3.126432"><ele>748</ele><time>2020-06-12T11:11:25Z</time><name>PT6026</name></trkpt>
<trkpt lat="54.374526" lon="-3.126424"><ele>748</ele><time>2020-06-12T11:11:26Z</time><name>PT6027</name></trkpt>
<trkpt lat="54.374518" lon="-3.126416"><ele>748</ele><time>2020-06-12T11:11:27Z</time><name>PT6028</name></trkpt>
<trkpt lat="54.374511" lon="-3.126408"><ele>749</ele><time>2020-06-12T11:11:28Z</time><name>PT6029</name></trkpt>
<trkpt lat="54.374505" lon="-3.126402"><ele>749</ele><time>2020-06-12T11:11:29Z</time><name>PT6030</name></trkpt>
<trkpt lat="54.374497" lon="-3.126397"><ele>749</ele><time>2020-06-12T11:11:30Z</time><name>PT6031</name></trkpt>
<trkpt lat="54.374489" lon="-3.126390"><ele>749</ele><time>2020-06-12T11:11:31Z</time><name>PT6032</name></trkpt>
<trkpt lat="54.374481" lon="-3.126381"><ele>749</ele><time>2020-06-12T11:11:32Z</time><name>PT6033</name></trkpt>
<trkpt lat="54.374474" lon="-3.126375"><ele>749</ele><time>2020-06-12T11:11:33Z</time><name>PT6034</name></trkpt>
<trkpt lat="54.374469" lon="-3.126368"><ele>749</ele><time>2020-06-12T11:11:34Z</time><name>PT6035</name></trkpt>
<trkpt lat="54.374464" lon="-3.126363"><ele>750</ele><time>2020-06-12T11:11:35Z</time><name>PT6036</name></trkpt>
<trkpt lat="54.374457" lon="-3.126352"><ele>750</ele><time>2020-06-12T11:11:36Z</time><name>PT6037</name></trkpt>
<trkpt lat="54.374451" lon="-3.126344"><ele>750</ele><time>2020-06-12T11:11:37Z</time><name>PT6038</name></trkpt>
<trkpt lat="54.374443" lon="-3.126336"><ele>750</ele><time>2020-06-12T11:11:38Z</time><name>PT6039</name></trkpt>
<trkpt lat="54.374436" lon="-3.126329"><ele>750</ele><time>2020-06-12T11:11:39Z</time><name>PT6040</name></trkpt>
<trkpt lat="54.374432" lon="-3.126321"><ele>750</ele><time>2020-06-12T11:11:40Z</time><name>PT6041</name></trkpt>
<trkpt lat="54.374429" lon="-3.126314"><ele>750</ele><time>2020-06-12T11:11:41Z</time><name>PT6042</name></trkpt>
<trkpt lat="54.374425" lon="-3.126304"><ele>750</ele><time>2020-06-12T11:11:42Z</time><name>PT6043</name></trkpt>
<trkpt lat="54.374419" lon="-3.126293"><ele>751</ele><time>2020-06-12T11:11:43Z</time><name>PT6044</name></trkpt>
<trkpt lat="54.374414" lon="-3.126286"><ele>751</ele><time>2020-06-12T11:11:44Z</time><name>PT6045</name></trkpt>
<trkpt lat="54.374409" lon="-3.126279"><ele>751</ele><time>2020-06-12T11:11:45Z</time><name>PT6046</name></trkpt>
<trkpt lat="54.374405" lon="-3.126272"><ele>751</ele><time>2020-06-12T11:11:46Z</time><name>PT6047</name></trkpt>
<trkpt lat="54.374398" lon="-3.126262"><ele>752</ele><time>2020-06-12T11:11:47Z</time><name>PT6048</name></trkpt>
<trkpt lat="54.374394" lon="-3.126253"><ele>752</ele><time>2020-06-12T11:11:48Z</time><name>PT6049</name></trkpt>
<trkpt lat="54.374396" lon="-3.126243"><ele>752</ele><time>2020-06-12T11:11:49Z</time><name>PT6050</name></trkpt>
<trkpt lat="54.374394" lon="-3.126234"><ele>752</ele><time>2020-06-12T11:11:50Z</time><name>PT6051</name></trkpt>
<trkpt lat="54.374390" lon="-3.126225"><ele>752</ele><time>2020-06-12T11:11:51Z</time><name>PT6052</name></trkpt>
<trkpt lat="54.374387" lon="-3.126209"><ele>752</ele><time>2020-06-12T11:11:52Z</time><name>PT6053</name></trkpt>
<trkpt lat="54.374381" lon="-3.126195"><ele>753</ele><time>2020-06-12T11:11:53Z</time><name>PT6054</name></trkpt>
<trkpt lat="54.374375" lon="-3.126184"><ele>753</ele><time>2020-06-12T11:11:54Z</time><name>PT6055</name></trkpt>
<trkpt lat="54.374371" lon="-3.126174"><ele>754</ele><time>2020-06-12T11:11:55Z</time><name>PT6056</name></trkpt>
<trkpt lat="54.374366" lon="-3.126165"><ele>755</ele><time>2020-06-12T11:11:56Z</time><name>PT6057</name></trkpt>
<trkpt lat="54.374359" lon="-3.126158"><ele>755</ele><time>2020-06-12T11:11:57Z</time><name>PT6058</name></trkpt>
<trkpt lat="54.374355" lon="-3.126150"><ele>755</ele><time>2020-06-12T11:11:58Z</time><name>PT6059</name></trkpt>
<trkpt lat="54.374350" lon="-3.126140"><ele>755</ele><time>2020-06-12T11:11:59Z</time><name>PT6060</name></trkpt>
<trkpt lat="54.374343" lon="-3.126134"><ele>755</ele><time>2020-06-12T11:12:00Z</time><name>PT6061</name></trkpt>
<trkpt lat="54.374336" lon="-3.126131"><ele>755</ele><time>2020-06-12T11:12:01Z</time><name>PT6062</name></trkpt>
<trkpt lat="54.374328" lon="-3.126128"><ele>755</ele><time>2020-06-12T11:12:02Z</time><name>PT6063</name></trkpt>
<trkpt lat="54.374319" lon="-3.126124"><ele>755</ele><time>2020-06-12T11:12:03Z</time><name>PT6064</name></trkpt>
<trkpt lat="54.374311" lon="-3.126121"><ele>755</ele><time>2020-06-12T11:12:04Z</time><name>PT6065</name></trkpt>
<trkpt lat="54.374304" lon="-3.126118"><ele>755</ele><time>2020-06-12T11:12:05Z</time><name>PT6066</name></trkpt>
<trkpt lat="54.374296" lon="-3.126112"><ele>755</ele><time>2020-06-12T11:12:06Z</time><name>PT6067</name></trkpt>
<trkpt lat="54.374289" lon="-3.126110"><ele>755</ele><time>2020-06-12T11:12:07Z</time><name>PT6068</name></trkpt>
<trkpt lat="54.374281" lon="-3.126108"><ele>755</ele><time>2020-06-12T11:12:08Z</time><name>PT6069</name></trkpt>
<trkpt lat="54.374275" lon="-3.126099"><ele>755</ele><time>2020-06-12T11:12:09Z</time><name>PT6070</name></trkpt>
<trkpt lat="54.374267" lon="-3.126089"><ele>755</ele><time>2020-06-12T11:12:10Z</time><name>PT6071</name></trkpt>
<trkpt lat="54.374261" lon="-3.126081"><ele>756</ele><time>2020-06-12T11:12:11Z</time><name>PT6072</name></trkpt>
<trkpt lat="54.374254" lon="-3.126070"><ele>756</ele><time>2020-06-12T11:12:12Z</time><name>PT6073</name></trkpt>
<trkpt lat="54.374247" lon="-3.126064"><ele>756</ele><time>2020-06-12T11:12:13Z</time><name>PT6074</name></trkpt>
<trkpt lat="54.374239" lon="-3.126058"><ele>756</ele><time>2020-06-12T11:12:14Z</time><name>PT6075</name></trkpt>
<trkpt lat="54.374233" lon="-3.126052"><ele>757</ele><time>2020-06-12T11:12:15Z</time><name>PT6076</name></trkpt>
<trkpt lat="54.374226" lon="-3.126043"><ele>757</ele><time>2020-06-12T11:12:16Z</time><name>PT6077</name></trkpt>
<trkpt lat="54.374217" lon="-3.126038"><ele>757</ele><time>2020-06-12T11:12:17Z</time><name>PT6078</name></trkpt>
<trkpt lat="54.374210" lon="-3.126026"><ele>757</ele><time>2020-06-12T11:12:18Z</time><name>PT6079</name></trkpt>
<trkpt lat="54.374206" lon="-3.126017"><ele>757</ele><time>2020-06-12T11:12:19Z</time><name>PT6080</name></trkpt>
<trkpt lat="54.374199" lon="-3.126008"><ele>757</ele><time>2020-06-12T11:12:20Z</time><name>PT6081</name></trkpt>
<trkpt lat="54.374195" lon="-3.126003"><ele>757</ele><time>2020-06-12T11:12:21Z</time><name>PT6082</name></trkpt>
<trkpt lat="54.374190" lon="-3.125993"><ele>757</ele><time>2020-06-12T11:12:22Z</time><name>PT6083</name></trkpt>
<trkpt lat="54.374185" lon="-3.125986"><ele>757</ele><time>2020-06-12T11:12:23Z</time><name>PT6084</name></trkpt>
<trkpt lat="54.374180" lon="-3.125978"><ele>757</ele><time>2020-06-12T11:12:24Z</time><name>PT6085</name></trkpt>
<trkpt lat="54.374176" lon="-3.125971"><ele>757</ele><time>2020-06-12T11:12:25Z</time><name>PT6086</name></trkpt>
<trkpt lat="54.374171" lon="-3.125963"><ele>757</ele><time>2020-06-12T11:12:26Z</time><name>PT6087</name></trkpt>
<trkpt lat="54.374164" lon="-3.125953"><ele>757</ele><time>2020-06-12T11:12:27Z</time><name>PT6088</name></trkpt>
<trkpt lat="54.374156" lon="-3.125945"><ele>757</ele><time>2020-06-12T11:12:28Z</time><name>PT6089</name></trkpt>
<trkpt lat="54.374148" lon="-3.125939"><ele>758</ele><time>2020-06-12T11:12:29Z</time><name>PT6090</name></trkpt>
<trkpt lat="54.374142" lon="-3.125932"><ele>758</ele><time>2020-06-12T11:12:30Z</time><name>PT6091</name></trkpt>
<trkpt lat="54.374135" lon="-3.125923"><ele>758</ele><time>2020-06-12T11:12:31Z</time><name>PT6092</name></trkpt>
<trkpt lat="54.374128" lon="-3.125914"><ele>758</ele><time>2020-06-12T11:12:32Z</time><name>PT6093</name></trkpt>
<trkpt lat="54.374121" lon="-3.125909"><ele>758</ele><time>2020-06-12T11:12:33Z</time><name>PT6094</name></trkpt>
<trkpt lat="54.374113" lon="-3.125903"><ele>759</ele><time>2020-06-12T11:12:34Z</time><name>PT6095</name></trkpt>
<trkpt lat="54.374107" lon="-3.125895"><ele>759</ele><time>2020-06-12T11:12:35Z</time><name>PT6096</name></trkpt>
<trkpt lat="54.374100" lon="-3.125886"><ele>759</ele><time>2020-06-12T11:12:36Z</time><name>PT6097</name></trkpt>
<trkpt lat="54.374093" lon="-3.125881"><ele>758</ele><time>2020-06-12T11:12:37Z</time><name>PT6098</name></trkpt>
<trkpt lat="54.374087" lon="-3.125872"><ele>759</ele><time>2020-06-12T11:12:38Z</time><name>PT6099</name></trkpt>
<trkpt lat="54.374079" lon="-3.125860"><ele>759</ele><time>2020-06-12T11:12:39Z</time><name>PT6100</name></trkpt>
<trkpt lat="54.374074" lon="-3.125853"><ele>759</ele><time>2020-06-12T11:12:40Z</time><name>PT6101</name></trkpt>
<trkpt lat="54.374067" lon="-3.125845"><ele>759</ele><time>2020-06-12T11:12:41Z</time><name>PT6102</name></trkpt>
<trkpt lat="54.374059" lon="-3.125837"><ele>759</ele><time>2020-06-12T11:12:42Z</time><name>PT6103</name></trkpt>
<trkpt lat="54.374053" lon="-3.125825"><ele>759</ele><time>2020-06-12T11:12:43Z</time><name>PT6104</name></trkpt>
<trkpt lat="54.374046" lon="-3.125817"><ele>760</ele><time>2020-06-12T11:12:44Z</time><name>PT6105</name></trkpt>
<trkpt lat="54.374039" lon="-3.125810"><ele>760</ele><time>2020-06-12T11:12:45Z</time><name>PT6106</name></trkpt>
<trkpt lat="54.374032" lon="-3.125802"><ele>760</ele><time>2020-06-12T11:12:46Z</time><name>PT6107</name></trkpt>
<trkpt lat="54.374025" lon="-3.125790"><ele>760</ele><time>2020-06-12T11:12:47Z</time><name>PT6108</name></trkpt>
<trkpt lat="54.374021" lon="-3.125783"><ele>760</ele><time>2020-06-12T11:12:48Z</time><name>PT6109</name></trkpt>
<trkpt lat="54.374015" lon="-3.125777"><ele>760</ele><time>2020-06-12T11:12:49Z</time><name>PT6110</name></trkpt>
<trkpt lat="54.374010" lon="-3.125769"><ele>760</ele><time>2020-06-12T11:12:50Z</time><name>PT6111</name></trkpt>
<trkpt lat="54.374005" lon="-3.125759"><ele>760</ele><time>2020-06-12T11:12:51Z</time><name>PT6112</name></trkpt>
<trkpt lat="54.373999" lon="-3.125751"><ele>761</ele><time>2020-06-12T11:12:52Z</time><name>PT6113</name></trkpt>
<trkpt lat="54.373993" lon="-3.125741"><ele>761</ele><time>2020-06-12T11:12:53Z</time><name>PT6114</name></trkpt>
<trkpt lat="54.373987" lon="-3.125730"><ele>761</ele><time>2020-06-12T11:12:54Z</time><name>PT6115</name></trkpt>
<trkpt lat="54.373982" lon="-3.125721"><ele>761</ele><time>2020-06-12T11:12:55Z</time><name>PT6116</name></trkpt>
<trkpt lat="54.373978" lon="-3.125712"><ele>761</ele><time>2020-06-12T11:12:56Z</time><name>PT6117</name></trkpt>
<trkpt lat="54.373972" lon="-3.125701"><ele>761</ele><time>2020-06-12T11:12:57Z</time><name>PT6118</name></trkpt>
<trkpt lat="54.373964" lon="-3.125692"><ele>761</ele><time>2020-06-12T11:12:58Z</time><name>PT6119</name></trkpt>
<trkpt lat="54.373957" lon="-3.125685"><ele>762</ele><time>2020-06-12T11:12:59Z</time><name>PT6120</name></trkpt>
<trkpt lat="54.373949" lon="-3.125674"><ele>762</ele><time>2020-06-12T11:13:00Z</time><name>PT6121</name></trkpt>
<trkpt lat="54.373943" lon="-3.125667"><ele>762</ele><time>2020-06-12T11:13:01Z</time><name>PT6122</name></trkpt>
<trkpt lat="54.373936" lon="-3.125654"><ele>763</ele><time>2020-06-12T11:13:02Z</time><name>PT6123</name></trkpt>
<trkpt lat="54.373935" lon="-3.125640"><ele>763</ele><time>2020-06-12T11:13:03Z</time><name>PT6124</name></trkpt>
<trkpt lat="54.373932" lon="-3.125629"><ele>763</ele><time>2020-06-12T11:13:04Z</time><name>PT6125</name></trkpt>
<trkpt lat="54.373926" lon="-3.125620"><ele>763</ele><time>2020-06-12T11:13:05Z</time><name>PT6126</name></trkpt>
<trkpt lat="54.373923" lon="-3.125612"><ele>763</ele><time>2020-06-12T11:13:06Z</time><name>PT6127</name></trkpt>
<trkpt lat="54.373919" lon="-3.125604"><ele>763</ele><time>2020-06-12T11:13:07Z</time><name>PT6128</name></trkpt>
<trkpt lat="54.373914" lon="-3.125595"><ele>763</ele><time>2020-06-12T11:13:08Z</time><name>PT6129</name></trkpt>
<trkpt lat="54.373909" lon="-3.125588"><ele>763</ele><time>2020-06-12T11:13:09Z</time><name>PT6130</name></trkpt>
<trkpt lat="54.373906" lon="-3.125581"><ele>764</ele><time>2020-06-12T11:13:10Z</time><name>PT6131</name></trkpt>
<trkpt lat="54.373902" lon="-3.125571"><ele>764</ele><time>2020-06-12T11:13:11Z</time><name>PT6132</name></trkpt>
<trkpt lat="54.373896" lon="-3.125563"><ele>764</ele><time>2020-06-12T11:13:12Z</time><name>PT6133</name></trkpt>
<trkpt lat="54.373891" lon="-3.125552"><ele>764</ele><time>2020-06-12T11:13:13Z</time><name>PT6134</name></trkpt>
<trkpt lat="54.373889" lon="-3.125539"><ele>765</ele><time>2020-06-12T11:13:14Z</time><name>PT6135</name></trkpt>
<trkpt lat="54.373883" lon="-3.125529"><ele>765</ele><time>2020-06-12T11:13:15Z</time><name>PT6136</name></trkpt>
<trkpt lat="54.373876" lon="-3.125521"><ele>765</ele><time>2020-06-12T11:13:16Z</time><name>PT6137</name></trkpt>
<trkpt lat="54.373871" lon="-3.125513"><ele>765</ele><time>2020-06-12T11:13:17Z</time><name>PT6138</name></trkpt>
<trkpt lat="54.373862" lon="-3.125503"><ele>765</ele><time>2020-06-12T11:13:18Z</time><name>PT6139</name></trkpt>
<trkpt lat="54.373857" lon="-3.125490"><ele>766</ele><time>2020-06-12T11:13:20Z</time><name>PT6140</name></trkpt>
<trkpt lat="54.373854" lon="-3.125480"><ele>766</ele><time>2020-06-12T11:13:20Z</time><name>PT6141</name></trkpt>
<trkpt lat="54.373847" lon="-3.125473"><ele>766</ele><time>2020-06-12T11:13:21Z</time><name>PT6142</name></trkpt>
<trkpt lat="54.373844" lon="-3.125463"><ele>766</ele><time>2020-06-12T11:13:22Z</time><name>PT6143</name></trkpt>
<trkpt lat="54.373839" lon="-3.125451"><ele>766</ele><time>2020-06-12T11:13:23Z</time><name>PT6144</name></trkpt>
<trkpt lat="54.373836" lon="-3.125438"><ele>766</ele><time>2020-06-12T11:13:24Z</time><name>PT6145</name></trkpt>
<trkpt lat="54.373834" lon="-3.125427"><ele>766</ele><time>2020-06-12T11:13:25Z</time><name>PT6146</name></trkpt>
<trkpt lat="54.373829" lon="-3.125413"><ele>767</ele><time>2020-06-12T11:13:26Z</time><name>PT6147</name></trkpt>
<trkpt lat="54.373820" lon="-3.125402"><ele>766</ele><time>2020-06-12T11:13:27Z</time><name>PT6148</name></trkpt>
<trkpt lat="54.373810" lon="-3.125398"><ele>767</ele><time>2020-06-12T11:13:28Z</time><name>PT6149</name></trkpt>
<trkpt lat="54.373810" lon="-3.125388"><ele>767</ele><time>2020-06-12T11:13:29Z</time><name>PT6150</name></trkpt>
<trkpt lat="54.373802" lon="-3.125373"><ele>767</ele><time>2020-06-12T11:13:30Z</time><name>PT6151</name></trkpt>
<trkpt lat="54.373791" lon="-3.125359"><ele>768</ele><time>2020-06-12T11:13:31Z</time><name>PT6152</name></trkpt>
<trkpt lat="54.373788" lon="-3.125352"><ele>768</ele><time>2020-06-12T11:13:32Z</time><name>PT6153</name></trkpt>
<trkpt lat="54.373784" lon="-3.125343"><ele>768</ele><time>2020-06-12T11:13:33Z</time><name>PT6154</name></trkpt>
<trkpt lat="54.373780" lon="-3.125333"><ele>768</ele><time>2020-06-12T11:13:34Z</time><name>PT6155</name></trkpt>
<trkpt lat="54.373776" lon="-3.125320"><ele>768</ele><time>2020-06-12T11:13:35Z</time><name>PT6156</name></trkpt>
<trkpt lat="54.373775" lon="-3.125303"><ele>768</ele><time>2020-06-12T11:13:36Z</time><name>PT6157</name></trkpt>
<trkpt lat="54.373770" lon="-3.125278"><ele>768</ele><time>2020-06-12T11:13:37Z</time><name>PT6158</name></trkpt>
<trkpt lat="54.373766" lon="-3.125261"><ele>768</ele><time>2020-06-12T11:13:38Z</time><name>PT6159</name></trkpt>
<trkpt lat="54.373762" lon="-3.125247"><ele>768</ele><time>2020-06-12T11:13:39Z</time><name>PT6160</name></trkpt>
<trkpt lat="54.373758" lon="-3.125235"><ele>768</ele><time>2020-06-12T11:13:40Z</time><name>PT6161</name></trkpt>
<trkpt lat="54.373755" lon="-3.125224"><ele>769</ele><time>2020-06-12T11:13:41Z</time><name>PT6162</name></trkpt>
<trkpt lat="54.373747" lon="-3.125213"><ele>769</ele><time>2020-06-12T11:13:42Z</time><name>PT6163</name></trkpt>
<trkpt lat="54.373740" lon="-3.125201"><ele>769</ele><time>2020-06-12T11:13:43Z</time><name>PT6164</name></trkpt>
<trkpt lat="54.373739" lon="-3.125193"><ele>768</ele><time>2020-06-12T11:13:44Z</time><name>PT6165</name></trkpt>
<trkpt lat="54.373737" lon="-3.125182"><ele>769</ele><time>2020-06-12T11:13:45Z</time><name>PT6166</name></trkpt>
<trkpt lat="54.373734" lon="-3.125171"><ele>769</ele><time>2020-06-12T11:13:46Z</time><name>PT6167</name></trkpt>
<trkpt lat="54.373731" lon="-3.125159"><ele>769</ele><time>2020-06-12T11:13:47Z</time><name>PT6168</name></trkpt>
<trkpt lat="54.373726" lon="-3.125153"><ele>768</ele><time>2020-06-12T11:13:48Z</time><name>PT6169</name></trkpt>
<trkpt lat="54.373724" lon="-3.125141"><ele>768</ele><time>2020-06-12T11:13:49Z</time><name>PT6170</name></trkpt>
<trkpt lat="54.373722" lon="-3.125129"><ele>769</ele><time>2020-06-12T11:13:50Z</time><name>PT6171</name></trkpt>
<trkpt lat="54.373721" lon="-3.125118"><ele>769</ele><time>2020-06-12T11:13:51Z</time><name>PT6172</name></trkpt>
<trkpt lat="54.373718" lon="-3.125108"><ele>769</ele><time>2020-06-12T11:13:52Z</time><name>PT6173</name></trkpt>
<trkpt lat="54.373719" lon="-3.125090"><ele>770</ele><time>2020-06-12T11:13:53Z</time><name>PT6174</name></trkpt>
<trkpt lat="54.373718" lon="-3.125075"><ele>770</ele><time>2020-06-12T11:13:54Z</time><name>PT6175</name></trkpt>
<trkpt lat="54.373715" lon="-3.125067"><ele>770</ele><time>2020-06-12T11:13:55Z</time><name>PT6176</name></trkpt>
<trkpt lat="54.373713" lon="-3.125055"><ele>770</ele><time>2020-06-12T11:13:56Z</time><name>PT6177</name></trkpt>
<trkpt lat="54.373709" lon="-3.125046"><ele>770</ele><time>2020-06-12T11:13:57Z</time><name>PT6178</name></trkpt>
<trkpt lat="54.373706" lon="-3.125036"><ele>770</ele><time>2020-06-12T11:13:58Z</time><name>PT6179</name></trkpt>
<trkpt lat="54.373702" lon="-3.125028"><ele>771</ele><time>2020-06-12T11:13:59Z</time><name>PT6180</name></trkpt>
<trkpt lat="54.373698" lon="-3.125019"><ele>771</ele><time>2020-06-12T11:14:00Z</time><name>PT6181</name></trkpt>
<trkpt lat="54.373689" lon="-3.125007"><ele>771</ele><time>2020-06-12T11:14:01Z</time><name>PT6182</name></trkpt>
<trkpt lat="54.373686" lon="-3.124994"><ele>771</ele><time>2020-06-12T11:14:02Z</time><name>PT6183</name></trkpt>
<trkpt lat="54.373682" lon="-3.124983"><ele>771</ele><time>2020-06-12T11:14:03Z</time><name>PT6184</name></trkpt>
<trkpt lat="54.373676" lon="-3.124971"><ele>771</ele><time>2020-06-12T11:14:04Z</time><name>PT6185</name></trkpt>
<trkpt lat="54.373669" lon="-3.124960"><ele>771</ele><time>2020-06-12T11:14:05Z</time><name>PT6186</name></trkpt>
<trkpt lat="54.373663" lon="-3.124950"><ele>771</ele><time>2020-06-12T11:14:06Z</time><name>PT6187</name></trkpt>
<trkpt lat="54.373660" lon="-3.124940"><ele>772</ele><time>2020-06-12T11:14:07Z</time><name>PT6188</name></trkpt>
<trkpt lat="54.373654" lon="-3.124926"><ele>772</ele><time>2020-06-12T11:14:08Z</time><name>PT6189</name></trkpt>
<trkpt lat="54.373650" lon="-3.124914"><ele>772</ele><time>2020-06-12T11:14:09Z</time><name>PT6190</name></trkpt>
<trkpt lat="54.373643" lon="-3.124900"><ele>772</ele><time>2020-06-12T11:14:10Z</time><name>PT6191</name></trkpt>
<trkpt lat="54.373639" lon="-3.124890"><ele>772</ele><time>2020-06-12T11:14:11Z</time><name>PT6192</name></trkpt>
<trkpt lat="54.373635" lon="-3.124878"><ele>772</ele><time>2020-06-12T11:14:12Z</time><name>PT6193</name></trkpt>
<trkpt lat="54.373631" lon="-3.124865"><ele>772</ele><time>2020-06-12T11:14:13Z</time><name>PT6194</name></trkpt>
<trkpt lat="54.373626" lon="-3.124852"><ele>773</ele><time>2020-06-12T11:14:14Z</time><name>PT6195</name></trkpt>
<trkpt lat="54.373621" lon="-3.124839"><ele>773</ele><time>2020-06-12T11:14:15Z</time><name>PT6196</name></trkpt>
<trkpt lat="54.373617" lon="-3.124827"><ele>773</ele><time>2020-06-12T11:14:16Z</time><name>PT6197</name></trkpt>
<trkpt lat="54.373611" lon="-3.124810"><ele>773</ele><time>2020-06-12T11:14:17Z</time><name>PT6198</name></trkpt>
<trkpt lat="54.373610" lon="-3.124798"><ele>773</ele><time>2020-06-12T11:14:18Z</time><name>PT6199</name></trkpt>
<trkpt lat="54.373605" lon="-3.124787"><ele>773</ele><time>2020-06-12T11:14:19Z</time><name>PT6200</name></trkpt>
<trkpt lat="54.373602" lon="-3.124774"><ele>773</ele><time>2020-06-12T11:14:20Z</time><name>PT6201</name></trkpt>
<trkpt lat="54.373597" lon="-3.124768"><ele>773</ele><time>2020-06-12T11:14:21Z</time><name>PT6202</name></trkpt>
<trkpt lat="54.373592" lon="-3.124761"><ele>773</ele><time>2020-06-12T11:14:22Z</time><name>PT6203</name></trkpt>
<trkpt lat="54.373590" lon="-3.124758"><ele>773</ele><time>2020-06-12T11:14:23Z</time><name>PT6204</name></trkpt>
<trkpt lat="54.373588" lon="-3.124753"><ele>772</ele><time>2020-06-12T11:14:24Z</time><name>PT6205</name></trkpt>
<trkpt lat="54.373587" lon="-3.124746"><ele>773</ele><time>2020-06-12T11:14:25Z</time><name>PT6206</name></trkpt>
<trkpt lat="54.373585" lon="-3.124734"><ele>773</ele><time>2020-06-12T11:14:26Z</time><name>PT6207</name></trkpt>
<trkpt lat="54.373580" lon="-3.124721"><ele>773</ele><time>2020-06-12T11:14:27Z</time><name>PT6208</name></trkpt>
<trkpt lat="54.373579" lon="-3.124716"><ele>772</ele><time>2020-06-12T11:14:28Z</time><name>PT6209</name></trkpt>
<trkpt lat="54.373575" lon="-3.124706"><ele>772</ele><time>2020-06-12T11:14:29Z</time><name>PT6210</name></trkpt>
<trkpt lat="54.373569" lon="-3.124696"><ele>773</ele><time>2020-06-12T11:14:30Z</time><name>PT6211</name></trkpt>
<trkpt lat="54.373562" lon="-3.124685"><ele>773</ele><time>2020-06-12T11:14:31Z</time><name>PT6212</name></trkpt>
<trkpt lat="54.373556" lon="-3.124676"><ele>772</ele><time>2020-06-12T11:14:32Z</time><name>PT6213</name></trkpt>
<trkpt lat="54.373551" lon="-3.124664"><ele>773</ele><time>2020-06-12T11:14:33Z</time><name>PT6214</name></trkpt>
<trkpt lat="54.373547" lon="-3.124650"><ele>773</ele><time>2020-06-12T11:14:34Z</time><name>PT6215</name></trkpt>
<trkpt lat="54.373542" lon="-3.124635"><ele>774</ele><time>2020-06-12T11:14:35Z</time><name>PT6216</name></trkpt>
<trkpt lat="54.373538" lon="-3.124625"><ele>773</ele><time>2020-06-12T11:14:36Z</time><name>PT6217</name></trkpt>
<trkpt lat="54.373535" lon="-3.124610"><ele>773</ele><time>2020-06-12T11:14:37Z</time><name>PT6218</name></trkpt>
<trkpt lat="54.373530" lon="-3.124594"><ele>774</ele><time>2020-06-12T11:14:38Z</time><name>PT6219</name></trkpt>
<trkpt lat="54.373526" lon="-3.124581"><ele>774</ele><time>2020-06-12T11:14:39Z</time><name>PT6220</name></trkpt>
<trkpt lat="54.373522" lon="-3.124568"><ele>774</ele><time>2020-06-12T11:14:40Z</time><name>PT6221</name></trkpt>
<trkpt lat="54.373520" lon="-3.124561"><ele>774</ele><time>2020-06-12T11:14:41Z</time><name>PT6222</name></trkpt>
<trkpt lat="54.373517" lon="-3.124551"><ele>774</ele><time>2020-06-12T11:14:42Z</time><name>PT6223</name></trkpt>
<trkpt lat="54.373512" lon="-3.124545"><ele>774</ele><time>2020-06-12T11:14:43Z</time><name>PT6224</name></trkpt>
<trkpt lat="54.373502" lon="-3.124527"><ele>774</ele><time>2020-06-12T11:14:44Z</time><name>PT6225</name></trkpt>
<trkpt lat="54.373493" lon="-3.124512"><ele>774</ele><time>2020-06-12T11:14:45Z</time><name>PT6226</name></trkpt>
<trkpt lat="54.373489" lon="-3.124498"><ele>774</ele><time>2020-06-12T11:14:46Z</time><name>PT6227</name></trkpt>
<trkpt lat="54.373483" lon="-3.124489"><ele>774</ele><time>2020-06-12T11:14:47Z</time><name>PT6228</name></trkpt>
<trkpt lat="54.373482" lon="-3.124482"><ele>774</ele><time>2020-06-12T11:14:48Z</time><name>PT6229</name></trkpt>
<trkpt lat="54.373479" lon="-3.124472"><ele>774</ele><time>2020-06-12T11:14:49Z</time><name>PT6230</name></trkpt>
<trkpt lat="54.373474" lon="-3.124463"><ele>774</ele><time>2020-06-12T11:14:50Z</time><name>PT6231</name></trkpt>
<trkpt lat="54.373467" lon="-3.124449"><ele>774</ele><time>2020-06-12T11:14:51Z</time><name>PT6232</name></trkpt>
<trkpt lat="54.373459" lon="-3.124433"><ele>776</ele><time>2020-06-12T11:14:52Z</time><name>PT6233</name></trkpt>
<trkpt lat="54.373452" lon="-3.124424"><ele>776</ele><time>2020-06-12T11:14:53Z</time><name>PT6234</name></trkpt>
<trkpt lat="54.373445" lon="-3.124416"><ele>776</ele><time>2020-06-12T11:14:54Z</time><name>PT6235</name></trkpt>
<trkpt lat="54.373438" lon="-3.124404"><ele>776</ele><time>2020-06-12T11:14:55Z</time><name>PT6236</name></trkpt>
<trkpt lat="54.373433" lon="-3.124391"><ele>776</ele><time>2020-06-12T11:14:56Z</time><name>PT6237</name></trkpt>
<trkpt lat="54.373432" lon="-3.124380"><ele>775</ele><time>2020-06-12T11:14:57Z</time><name>PT6238</name></trkpt>
<trkpt lat="54.373431" lon="-3.124368"><ele>775</ele><time>2020-06-12T11:14:58Z</time><name>PT6239</name></trkpt>
<trkpt lat="54.373426" lon="-3.124355"><ele>776</ele><time>2020-06-12T11:14:59Z</time><name>PT6240</name></trkpt>
<trkpt lat="54.373423" lon="-3.124347"><ele>776</ele><time>2020-06-12T11:15:00Z</time><name>PT6241</name></trkpt>
<trkpt lat="54.373417" lon="-3.124333"><ele>776</ele><time>2020-06-12T11:15:01Z</time><name>PT6242</name></trkpt>
<trkpt lat="54.373412" lon="-3.124320"><ele>776</ele><time>2020-06-12T11:15:02Z</time><name>PT6243</name></trkpt>
<trkpt lat="54.373406" lon="-3.124306"><ele>776</ele><time>2020-06-12T11:15:03Z</time><name>PT6244</name></trkpt>
<trkpt lat="54.373402" lon="-3.124296"><ele>776</ele><time>2020-06-12T11:15:04Z</time><name>PT6245</name></trkpt>
<trkpt lat="54.373397" lon="-3.124285"><ele>777</ele><time>2020-06-12T11:15:05Z</time><name>PT6246</name></trkpt>
<trkpt lat="54.373396" lon="-3.124276"><ele>777</ele><time>2020-06-12T11:15:06Z</time><name>PT6247</name></trkpt>
<trkpt lat="54.373393" lon="-3.124271"><ele>777</ele><time>2020-06-12T11:15:07Z</time><name>PT6248</name></trkpt>
<trkpt lat="54.373386" lon="-3.124259"><ele>777</ele><time>2020-06-12T11:15:08Z</time><name>PT6249</name></trkpt>
<trkpt lat="54.373382" lon="-3.124251"><ele>777</ele><time>2020-06-12T11:15:09Z</time><name>PT6250</name></trkpt>
<trkpt lat="54.373378" lon="-3.124237"><ele>777</ele><time>2020-06-12T11:15:10Z</time><name>PT6251</name></trkpt>
<trkpt lat="54.373373" lon="-3.124222"><ele>777</ele><time>2020-06-12T11:15:11Z</time><name>PT6252</name></trkpt>
<trkpt lat="54.373367" lon="-3.124208"><ele>778</ele><time>2020-06-12T11:15:12Z</time><name>PT6253</name></trkpt>
<trkpt lat="54.373362" lon="-3.124195"><ele>778</ele><time>2020-06-12T11:15:13Z</time><name>PT6254</name></trkpt>
<trkpt lat="54.373359" lon="-3.124183"><ele>778</ele><time>2020-06-12T11:15:14Z</time><name>PT6255</name></trkpt>
<trkpt lat="54.373357" lon="-3.124171"><ele>778</ele><time>2020-06-12T11:15:15Z</time><name>PT6256</name></trkpt>
<trkpt lat="54.373357" lon="-3.124159"><ele>778</ele><time>2020-06-12T11:15:16Z</time><name>PT6257</name></trkpt>
<trkpt lat="54.373356" lon="-3.124141"><ele>778</ele><time>2020-06-12T11:15:17Z</time><name>PT6258</name></trkpt>
<trkpt lat="54.373350" lon="-3.124119"><ele>778</ele><time>2020-06-12T11:15:18Z</time><name>PT6259</name></trkpt>
<trkpt lat="54.373347" lon="-3.124107"><ele>778</ele><time>2020-06-12T11:15:19Z</time><name>PT6260</name></trkpt>
<trkpt lat="54.373342" lon="-3.124093"><ele>779</ele><time>2020-06-12T11:15:20Z</time><name>PT6261</name></trkpt>
<trkpt lat="54.373338" lon="-3.124078"><ele>779</ele><time>2020-06-12T11:15:21Z</time><name>PT6262</name></trkpt>
<trkpt lat="54.373335" lon="-3.124064"><ele>780</ele><time>2020-06-12T11:15:22Z</time><name>PT6263</name></trkpt>
<trkpt lat="54.373331" lon="-3.124053"><ele>780</ele><time>2020-06-12T11:15:23Z</time><name>PT6264</name></trkpt>
<trkpt lat="54.373327" lon="-3.124037"><ele>781</ele><time>2020-06-12T11:15:24Z</time><name>PT6265</name></trkpt>
<trkpt lat="54.373324" lon="-3.124025"><ele>780</ele><time>2020-06-12T11:15:25Z</time><name>PT6266</name></trkpt>
<trkpt lat="54.373319" lon="-3.124013"><ele>781</ele><time>2020-06-12T11:15:26Z</time><name>PT6267</name></trkpt>
<trkpt lat="54.373316" lon="-3.123999"><ele>781</ele><time>2020-06-12T11:15:27Z</time><name>PT6268</name></trkpt>
<trkpt lat="54.373312" lon="-3.123983"><ele>781</ele><time>2020-06-12T11:15:28Z</time><name>PT6269</name></trkpt>
<trkpt lat="54.373307" lon="-3.123966"><ele>781</ele><time>2020-06-12T11:15:29Z</time><name>PT6270</name></trkpt>
<trkpt lat="54.373301" lon="-3.123952"><ele>781</ele><time>2020-06-12T11:15:30Z</time><name>PT6271</name></trkpt>
<trkpt lat="54.373295" lon="-3.123937"><ele>781</ele><time>2020-06-12T11:15:31Z</time><name>PT6272</name></trkpt>
<trkpt lat="54.373290" lon="-3.123923"><ele>781</ele><time>2020-06-12T11:15:32Z</time><name>PT6273</name></trkpt>
<trkpt lat="54.373286" lon="-3.123910"><ele>781</ele><time>2020-06-12T11:15:33Z</time><name>PT6274</name></trkpt>
<trkpt lat="54.373282" lon="-3.123898"><ele>781</ele><time>2020-06-12T11:15:34Z</time><name>PT6275</name></trkpt>
<trkpt lat="54.373277" lon="-3.123883"><ele>781</ele><time>2020-06-12T11:15:35Z</time><name>PT6276</name></trkpt>
<trkpt lat="54.373271" lon="-3.123869"><ele>782</ele><time>2020-06-12T11:15:36Z</time><name>PT6277</name></trkpt>
<trkpt lat="54.373264" lon="-3.123853"><ele>782</ele><time>2020-06-12T11:15:37Z</time><name>PT6278</name></trkpt>
<trkpt lat="54.373258" lon="-3.123843"><ele>782</ele><time>2020-06-12T11:15:38Z</time><name>PT6279</name></trkpt>
<trkpt lat="54.373252" lon="-3.123833"><ele>782</ele><time>2020-06-12T11:15:39Z</time><name>PT6280</name></trkpt>
<trkpt lat="54.373245" lon="-3.123822"><ele>782</ele><time>2020-06-12T11:15:40Z</time><name>PT6281</name></trkpt>
<trkpt lat="54.373239" lon="-3.123814"><ele>782</ele><time>2020-06-12T11:15:41Z</time><name>PT6282</name></trkpt>
<trkpt lat="54.373235" lon="-3.123802"><ele>782</ele><time>2020-06-12T11:15:42Z</time><name>PT6283</name></trkpt>
<trkpt lat="54.373230" lon="-3.123788"><ele>783</ele><time>2020-06-12T11:15:43Z</time><name>PT6284</name></trkpt>
<trkpt lat="54.373225" lon="-3.123778"><ele>783</ele><time>2020-06-12T11:15:44Z</time><name>PT6285</name></trkpt>
<trkpt lat="54.373218" lon="-3.123769"><ele>783</ele><time>2020-06-12T11:15:45Z</time><name>PT6286</name></trkpt>
<trkpt lat="54.373211" lon="-3.123759"><ele>784</ele><time>2020-06-12T11:15:46Z</time><name>PT6287</name></trkpt>
<trkpt lat="54.373204" lon="-3.123743"><ele>784</ele><time>2020-06-12T11:15:47Z</time><name>PT6288</name></trkpt>
<trkpt lat="54.373198" lon="-3.123728"><ele>784</ele><time>2020-06-12T11:15:48Z</time><name>PT6289</name></trkpt>
<trkpt lat="54.373193" lon="-3.123718"><ele>785</ele><time>2020-06-12T11:15:49Z</time><name>PT6290</name></trkpt>
<trkpt lat="54.373189" lon="-3.123703"><ele>785</ele><time>2020-06-12T11:15:50Z</time><name>PT6291</name></trkpt>
<trkpt lat="54.373185" lon="-3.123690"><ele>785</ele><time>2020-06-12T11:15:51Z</time><name>PT6292</name></trkpt>
<trkpt lat="54.373180" lon="-3.123684"><ele>785</ele><time>2020-06-12T11:15:52Z</time><name>PT6293</name></trkpt>
<trkpt lat="54.373175" lon="-3.123671"><ele>785</ele><time>2020-06-12T11:15:53Z</time><name>PT6294</name></trkpt>
<trkpt lat="54.373169" lon="-3.123656"><ele>785</ele><time>2020-06-12T11:15:54Z</time><name>PT6295</name></trkpt>
<trkpt lat="54.373166" lon="-3.123642"><ele>785</ele><time>2020-06-12T11:15:55Z</time><name>PT6296</name></trkpt>
<trkpt lat="54.373160" lon="-3.123628"><ele>785</ele><time>2020-06-12T11:15:56Z</time><name>PT6297</name></trkpt>
<trkpt lat="54.373155" lon="-3.123616"><ele>785</ele><time>2020-06-12T11:15:57Z</time><name>PT6298</name></trkpt>
<trkpt lat="54.373149" lon="-3.123604"><ele>785</ele><time>2020-06-12T11:15:58Z</time><name>PT6299</name></trkpt>
<trkpt lat="54.373145" lon="-3.123592"><ele>785</ele><time>2020-06-12T11:15:59Z</time><name>PT6300</name></trkpt>
<trkpt lat="54.373140" lon="-3.123581"><ele>785</ele><time>2020-06-12T11:16:00Z</time><name>PT6301</name></trkpt>
<trkpt lat="54.373133" lon="-3.123570"><ele>785</ele><time>2020-06-12T11:16:01Z</time><name>PT6302</name></trkpt>
<trkpt lat="54.373126" lon="-3.123559"><ele>785</ele><time>2020-06-12T11:16:02Z</time><name>PT6303</name></trkpt>
<trkpt lat="54.373119" lon="-3.123550"><ele>785</ele><time>2020-06-12T11:16:03Z</time><name>PT6304</name></trkpt>
<trkpt lat="54.373112" lon="-3.123539"><ele>785</ele><time>2020-06-12T11:16:04Z</time><name>PT6305</name></trkpt>
<trkpt lat="54.373107" lon="-3.123529"><ele>785</ele><time>2020-06-12T11:16:05Z</time><name>PT6306</name></trkpt>
<trkpt lat="54.373101" lon="-3.123519"><ele>785</ele><time>2020-06-12T11:16:06Z</time><name>PT6307</name></trkpt>
<trkpt lat="54.373094" lon="-3.123509"><ele>786</ele><time>2020-06-12T11:16:07Z</time><name>PT6308</name></trkpt>
<trkpt lat="54.373086" lon="-3.123501"><ele>786</ele><time>2020-06-12T11:16:08Z</time><name>PT6309</name></trkpt>
<trkpt lat="54.373077" lon="-3.123493"><ele>786</ele><time>2020-06-12T11:16:09Z</time><name>PT6310</name></trkpt>
<trkpt lat="54.373069" lon="-3.123484"><ele>786</ele><time>2020-06-12T11:16:10Z</time><name>PT6311</name></trkpt>
<trkpt lat="54.373060" lon="-3.123475"><ele>786</ele><time>2020-06-12T11:16:11Z</time><name>PT6312</name></trkpt>
<trkpt lat="54.373054" lon="-3.123468"><ele>787</ele><time>2020-06-12T11:16:12Z</time><name>PT6313</name></trkpt>
<trkpt lat="54.373047" lon="-3.123461"><ele>787</ele><time>2020-06-12T11:16:13Z</time><name>PT6314</name></trkpt>
<trkpt lat="54.373042" lon="-3.123453"><ele>787</ele><time>2020-06-12T11:16:14Z</time><name>PT6315</name></trkpt>
<trkpt lat="54.373039" lon="-3.123443"><ele>787</ele><time>2020-06-12T11:16:15Z</time><name>PT6316</name></trkpt>
<trkpt lat="54.373036" lon="-3.123434"><ele>787</ele><time>2020-06-12T11:16:16Z</time><name>PT6317</name></trkpt>
<trkpt lat="54.373030" lon="-3.123423"><ele>787</ele><time>2020-06-12T11:16:17Z</time><name>PT6318</name></trkpt>
<trkpt lat="54.373022" lon="-3.123412"><ele>788</ele><time>2020-06-12T11:16:18Z</time><name>PT6319</name></trkpt>
<trkpt lat="54.373019" lon="-3.123407"><ele>788</ele><time>2020-06-12T11:16:19Z</time><name>PT6320</name></trkpt>
<trkpt lat="54.373010" lon="-3.123395"><ele>788</ele><time>2020-06-12T11:16:20Z</time><name>PT6321</name></trkpt>
<trkpt lat="54.373000" lon="-3.123384"><ele>788</ele><time>2020-06-12T11:16:21Z</time><name>PT6322</name></trkpt>
<trkpt lat="54.372993" lon="-3.123377"><ele>788</ele><time>2020-06-12T11:16:22Z</time><name>PT6323</name></trkpt>
<trkpt lat="54.372985" lon="-3.123372"><ele>788</ele><time>2020-06-12T11:16:23Z</time><name>PT6324</name></trkpt>
<trkpt lat="54.372976" lon="-3.123367"><ele>789</ele><time>2020-06-12T11:16:24Z</time><name>PT6325</name></trkpt>
<trkpt lat="54.372966" lon="-3.123366"><ele>789</ele><time>2020-06-12T11:16:25Z</time><name>PT6326</name></trkpt>
<trkpt lat="54.372957" lon="-3.123365"><ele>789</ele><time>2020-06-12T11:16:26Z</time><name>PT6327</name></trkpt>
<trkpt lat="54.372948" lon="-3.123360"><ele>789</ele><time>2020-06-12T11:16:27Z</time><name>PT6328</name></trkpt>
<trkpt lat="54.372938" lon="-3.123353"><ele>789</ele><time>2020-06-12T11:16:28Z</time><name>PT6329</name></trkpt>
<trkpt lat="54.372930" lon="-3.123346"><ele>789</ele><time>2020-06-12T11:16:29Z</time><name>PT6330</name></trkpt>
<trkpt lat="54.372921" lon="-3.123340"><ele>788</ele><time>2020-06-12T11:16:30Z</time><name>PT6331</name></trkpt>
<trkpt lat="54.372914" lon="-3.123334"><ele>789</ele><time>2020-06-12T11:16:31Z</time><name>PT6332</name></trkpt>
<trkpt lat="54.372907" lon="-3.123329"><ele>789</ele><time>2020-06-12T11:16:32Z</time><name>PT6333</name></trkpt>
<trkpt lat="54.372900" lon="-3.123329"><ele>789</ele><time>2020-06-12T11:16:33Z</time><name>PT6334</name></trkpt>
<trkpt lat="54.372893" lon="-3.123330"><ele>789</ele><time>2020-06-12T11:16:34Z</time><name>PT6335</name></trkpt>
<trkpt lat="54.372884" lon="-3.123329"><ele>789</ele><time>2020-06-12T11:16:35Z</time><name>PT6336</name></trkpt>
<trkpt lat="54.372873" lon="-3.123328"><ele>789</ele><time>2020-06-12T11:16:36Z</time><name>PT6337</name></trkpt>
<trkpt lat="54.372864" lon="-3.123322"><ele>789</ele><time>2020-06-12T11:16:37Z</time><name>PT6338</name></trkpt>
<trkpt lat="54.372855" lon="-3.123318"><ele>789</ele><time>2020-06-12T11:16:38Z</time><name>PT6339</name></trkpt>
<trkpt lat="54.372844" lon="-3.123316"><ele>789</ele><time>2020-06-12T11:16:39Z</time><name>PT6340</name></trkpt>
<trkpt lat="54.372835" lon="-3.123311"><ele>790</ele><time>2020-06-12T11:16:40Z</time><name>PT6341</name></trkpt>
<trkpt lat="54.372825" lon="-3.123309"><ele>790</ele><time>2020-06-12T11:16:41Z</time><name>PT6342</name></trkpt>
<trkpt lat="54.372814" lon="-3.123309"><ele>790</ele><time>2020-06-12T11:16:42Z</time><name>PT6343</name></trkpt>
<trkpt lat="54.372806" lon="-3.123309"><ele>790</ele><time>2020-06-12T11:16:43Z</time><name>PT6344</name></trkpt>
<trkpt lat="54.372795" lon="-3.123307"><ele>790</ele><time>2020-06-12T11:16:44Z</time><name>PT6345</name></trkpt>
<trkpt lat="54.372787" lon="-3.123306"><ele>791</ele><time>2020-06-12T11:16:45Z</time><name>PT6346</name></trkpt>
<trkpt lat="54.372779" lon="-3.123308"><ele>791</ele><time>2020-06-12T11:16:46Z</time><name>PT6347</name></trkpt>
<trkpt lat="54.372770" lon="-3.123308"><ele>790</ele><time>2020-06-12T11:16:47Z</time><name>PT6348</name></trkpt>
<trkpt lat="54.372758" lon="-3.123304"><ele>791</ele><time>2020-06-12T11:16:48Z</time><name>PT6349</name></trkpt>
<trkpt lat="54.372746" lon="-3.123302"><ele>791</ele><time>2020-06-12T11:16:49Z</time><name>PT6350</name></trkpt>
<trkpt lat="54.372737" lon="-3.123301"><ele>791</ele><time>2020-06-12T11:16:50Z</time><name>PT6351</name></trkpt>
<trkpt lat="54.372726" lon="-3.123303"><ele>791</ele><time>2020-06-12T11:16:51Z</time><name>PT6352</name></trkpt>
<trkpt lat="54.372717" lon="-3.123300"><ele>790</ele><time>2020-06-12T11:16:52Z</time><name>PT6353</name></trkpt>
<trkpt lat="54.372707" lon="-3.123301"><ele>790</ele><time>2020-06-12T11:16:53Z</time><name>PT6354</name></trkpt>
<trkpt lat="54.372701" lon="-3.123302"><ele>790</ele><time>2020-06-12T11:16:54Z</time><name>PT6355</name></trkpt>
<trkpt lat="54.372693" lon="-3.123299"><ele>790</ele><time>2020-06-12T11:16:55Z</time><name>PT6356</name></trkpt>
<trkpt lat="54.372685" lon="-3.123298"><ele>790</ele><time>2020-06-12T11:16:56Z</time><name>PT6357</name></trkpt>
<trkpt lat="54.372674" lon="-3.123294"><ele>790</ele><time>2020-06-12T11:16:57Z</time><name>PT6358</name></trkpt>
<trkpt lat="54.372665" lon="-3.123291"><ele>790</ele><time>2020-06-12T11:16:58Z</time><name>PT6359</name></trkpt>
<trkpt lat="54.372658" lon="-3.123288"><ele>790</ele><time>2020-06-12T11:16:59Z</time><name>PT6360</name></trkpt>
<trkpt lat="54.372650" lon="-3.123287"><ele>790</ele><time>2020-06-12T11:17:00Z</time><name>PT6361</name></trkpt>
<trkpt lat="54.372642" lon="-3.123285"><ele>790</ele><time>2020-06-12T11:17:01Z</time><name>PT6362</name></trkpt>
<trkpt lat="54.372631" lon="-3.123280"><ele>789</ele><time>2020-06-12T11:17:02Z</time><name>PT6363</name></trkpt>
<trkpt lat="54.372623" lon="-3.123281"><ele>790</ele><time>2020-06-12T11:17:03Z</time><name>PT6364</name></trkpt>
<trkpt lat="54.372616" lon="-3.123286"><ele>790</ele><time>2020-06-12T11:17:04Z</time><name>PT6365</name></trkpt>
<trkpt lat="54.372607" lon="-3.123291"><ele>790</ele><time>2020-06-12T11:17:05Z</time><name>PT6366</name></trkpt>
<trkpt lat="54.372596" lon="-3.123295"><ele>790</ele><time>2020-06-12T11:17:06Z</time><name>PT6367</name></trkpt>
<trkpt lat="54.372589" lon="-3.123294"><ele>790</ele><time>2020-06-12T11:17:07Z</time><name>PT6368</name></trkpt>
<trkpt lat="54.372580" lon="-3.123293"><ele>790</ele><time>2020-06-12T11:17:08Z</time><name>PT6369</name></trkpt>
<trkpt lat="54.372571" lon="-3.123294"><ele>791</ele><time>2020-06-12T11:17:09Z</time><name>PT6370</name></trkpt>
<trkpt lat="54.372561" lon="-3.123292"><ele>791</ele><time>2020-06-12T11:17:10Z</time><name>PT6371</name></trkpt>
<trkpt lat="54.372550" lon="-3.123295"><ele>790</ele><time>2020-06-12T11:17:11Z</time><name>PT6372</name></trkpt>
<trkpt lat="54.372540" lon="-3.123299"><ele>790</ele><time>2020-06-12T11:17:12Z</time><name>PT6373</name></trkpt>
<trkpt lat="54.372531" lon="-3.123302"><ele>790</ele><time>2020-06-12T11:17:13Z</time><name>PT6374</name></trkpt>
<trkpt lat="54.372523" lon="-3.123304"><ele>790</ele><time>2020-06-12T11:17:14Z</time><name>PT6375</name></trkpt>
<trkpt lat="54.372516" lon="-3.123307"><ele>790</ele><time>2020-06-12T11:17:15Z</time><name>PT6376</name></trkpt>
<trkpt lat="54.372507" lon="-3.123311"><ele>791</ele><time>2020-06-12T11:17:16Z</time><name>PT6377</name></trkpt>
<trkpt lat="54.372499" lon="-3.123315"><ele>791</ele><time>2020-06-12T11:17:17Z</time><name>PT6378</name></trkpt>
<trkpt lat="54.372490" lon="-3.123318"><ele>791</ele><time>2020-06-12T11:17:18Z</time><name>PT6379</name></trkpt>
<trkpt lat="54.372481" lon="-3.123318"><ele>791</ele><time>2020-06-12T11:17:19Z</time><name>PT6380</name></trkpt>
<trkpt lat="54.372470" lon="-3.123317"><ele>790</ele><time>2020-06-12T11:17:20Z</time><name>PT6381</name></trkpt>
<trkpt lat="54.372459" lon="-3.123316"><ele>791</ele><time>2020-06-12T11:17:21Z</time><name>PT6382</name></trkpt>
<trkpt lat="54.372450" lon="-3.123319"><ele>791</ele><time>2020-06-12T11:17:22Z</time><name>PT6383</name></trkpt>
<trkpt lat="54.372441" lon="-3.123318"><ele>791</ele><time>2020-06-12T11:17:24Z</time><name>PT6384</name></trkpt>
<trkpt lat="54.372430" lon="-3.123320"><ele>791</ele><time>2020-06-12T11:17:24Z</time><name>PT6385</name></trkpt>
<trkpt lat="54.372418" lon="-3.123321"><ele>791</ele><time>2020-06-12T11:17:26Z</time><name>PT6386</name></trkpt>
<trkpt lat="54.372410" lon="-3.123324"><ele>790</ele><time>2020-06-12T11:17:26Z</time><name>PT6387</name></trkpt>
<trkpt lat="54.372399" lon="-3.123322"><ele>790</ele><time>2020-06-12T11:17:27Z</time><name>PT6388</name></trkpt>
<trkpt lat="54.372387" lon="-3.123316"><ele>790</ele><time>2020-06-12T11:17:28Z</time><name>PT6389</name></trkpt>
<trkpt lat="54.372377" lon="-3.123312"><ele>790</ele><time>2020-06-12T11:17:29Z</time><name>PT6390</name></trkpt>
<trkpt lat="54.372367" lon="-3.123310"><ele>790</ele><time>2020-06-12T11:17:30Z</time><name>PT6391</name></trkpt>
<trkpt lat="54.372355" lon="-3.123309"><ele>790</ele><time>2020-06-12T11:17:31Z</time><name>PT6392</name></trkpt>
<trkpt lat="54.372346" lon="-3.123310"><ele>791</ele><time>2020-06-12T11:17:32Z</time><name>PT6393</name></trkpt>
<trkpt lat="54.372337" lon="-3.123309"><ele>791</ele><time>2020-06-12T11:17:34Z</time><name>PT6394</name></trkpt>
<trkpt lat="54.372333" lon="-3.123306"><ele>791</ele><time>2020-06-12T11:17:34Z</time><name>PT6395</name></trkpt>
<trkpt lat="54.372327" lon="-3.123309"><ele>791</ele><time>2020-06-12T11:17:35Z</time><name>PT6396</name></trkpt>
<trkpt lat="54.372320" lon="-3.123307"><ele>792</ele><time>2020-06-12T11:17:36Z</time><name>PT6397</name></trkpt>
<trkpt lat="54.372311" lon="-3.123307"><ele>792</ele><time>2020-06-12T11:17:37Z</time><name>PT6398</name></trkpt>
<trkpt lat="54.372302" lon="-3.123309"><ele>792</ele><time>2020-06-12T11:17:38Z</time><name>PT6399</name></trkpt>
<trkpt lat="54.372293" lon="-3.123307"><ele>792</ele><time>2020-06-12T11:17:39Z</time><name>PT6400</name></trkpt>
<trkpt lat="54.372282" lon="-3.123305"><ele>792</ele><time>2020-06-12T11:17:40Z</time><name>PT6401</name></trkpt>
<trkpt lat="54.372272" lon="-3.123303"><ele>792</ele><time>2020-06-12T11:17:41Z</time><name>PT6402</name></trkpt>
<trkpt lat="54.372260" lon="-3.123302"><ele>792</ele><time>2020-06-12T11:17:42Z</time><name>PT6403</name></trkpt>
<trkpt lat="54.372248" lon="-3.123302"><ele>791</ele><time>2020-06-12T11:17:43Z</time><name>PT6404</name></trkpt>
<trkpt lat="54.372238" lon="-3.123303"><ele>791</ele><time>2020-06-12T11:17:44Z</time><name>PT6405</name></trkpt>
<trkpt lat="54.372225" lon="-3.123302"><ele>791</ele><time>2020-06-12T11:17:45Z</time><name>PT6406</name></trkpt>
<trkpt lat="54.372212" lon="-3.123306"><ele>791</ele><time>2020-06-12T11:17:46Z</time><name>PT6407</name></trkpt>
<trkpt lat="54.372198" lon="-3.123307"><ele>791</ele><time>2020-06-12T11:17:47Z</time><name>PT6408</name></trkpt>
<trkpt lat="54.372187" lon="-3.123308"><ele>791</ele><time>2020-06-12T11:17:48Z</time><name>PT6409</name></trkpt>
<trkpt lat="54.372178" lon="-3.123312"><ele>792</ele><time>2020-06-12T11:17:49Z</time><name>PT6410</name></trkpt>
<trkpt lat="54.372170" lon="-3.123320"><ele>791</ele><time>2020-06-12T11:17:50Z</time><name>PT6411</name></trkpt>
<trkpt lat="54.372161" lon="-3.123324"><ele>791</ele><time>2020-06-12T11:17:51Z</time><name>PT6412</name></trkpt>
<trkpt lat="54.372152" lon="-3.123320"><ele>791</ele><time>2020-06-12T11:17:52Z</time><name>PT6413</name></trkpt>
<trkpt lat="54.372143" lon="-3.123318"><ele>791</ele><time>2020-06-12T11:17:53Z</time><name>PT6414</name></trkpt>
<trkpt lat="54.372136" lon="-3.123316"><ele>791</ele><time>2020-06-12T11:17:54Z</time><name>PT6415</name></trkpt>
<trkpt lat="54.372128" lon="-3.123313"><ele>790</ele><time>2020-06-12T11:17:55Z</time><name>PT6416</name></trkpt>
<trkpt lat="54.372117" lon="-3.123306"><ele>791</ele><time>2020-06-12T11:17:56Z</time><name>PT6417</name></trkpt>
<trkpt lat="54.372109" lon="-3.123303"><ele>790</ele><time>2020-06-12T11:17:57Z</time><name>PT6418</name></trkpt>
<trkpt lat="54.372101" lon="-3.123300"><ele>790</ele><time>2020-06-12T11:17:58Z</time><name>PT6419</name></trkpt>
<trkpt lat="54.372092" lon="-3.123299"><ele>790</ele><time>2020-06-12T11:17:59Z</time><name>PT6420</name></trkpt>
<trkpt lat="54.372082" lon="-3.123295"><ele>790</ele><time>2020-06-12T11:18:00Z</time><name>PT6421</name></trkpt>
<trkpt lat="54.372073" lon="-3.123288"><ele>790</ele><time>2020-06-12T11:18:01Z</time><name>PT6422</name></trkpt>
<trkpt lat="54.372065" lon="-3.123284"><ele>789</ele><time>2020-06-12T11:18:02Z</time><name>PT6423</name></trkpt>
<trkpt lat="54.372056" lon="-3.123283"><ele>789</ele><time>2020-06-12T11:18:03Z</time><name>PT6424</name></trkpt>
<trkpt lat="54.372046" lon="-3.123279"><ele>789</ele><time>2020-06-12T11:18:04Z</time><name>PT6425</name></trkpt>
<trkpt lat="54.372037" lon="-3.123275"><ele>789</ele><time>2020-06-12T11:18:05Z</time><name>PT6426</name></trkpt>
<trkpt lat="54.372028" lon="-3.123277"><ele>789</ele><time>2020-06-12T11:18:06Z</time><name>PT6427</name></trkpt>
<trkpt lat="54.372019" lon="-3.123277"><ele>789</ele><time>2020-06-12T11:18:07Z</time><name>PT6428</name></trkpt>
<trkpt lat="54.372012" lon="-3.123280"><ele>789</ele><time>2020-06-12T11:18:08Z</time><name>PT6429</name></trkpt>
<trkpt lat="54.372002" lon="-3.123279"><ele>788</ele><time>2020-06-12T11:18:09Z</time><name>PT6430</name></trkpt>
<trkpt lat="54.371997" lon="-3.123271"><ele>788</ele><time>2020-06-12T11:18:10Z</time><name>PT6431</name></trkpt>
<trkpt lat="54.371991" lon="-3.123264"><ele>788</ele><time>2020-06-12T11:18:11Z</time><name>PT6432</name></trkpt>
<trkpt lat="54.371983" lon="-3.123255"><ele>788</ele><time>2020-06-12T11:18:12Z</time><name>PT6433</name></trkpt>
<trkpt lat="54.371973" lon="-3.123250"><ele>788</ele><time>2020-06-12T11:18:13Z</time><name>PT6434</name></trkpt>
<trkpt lat="54.371963" lon="-3.123247"><ele>787</ele><time>2020-06-12T11:18:14Z</time><name>PT6435</name></trkpt>
<trkpt lat="54.371953" lon="-3.123241"><ele>787</ele><time>2020-06-12T11:18:15Z</time><name>PT6436</name></trkpt>
<trkpt lat="54.371943" lon="-3.123234"><ele>787</ele><time>2020-06-12T11:18:16Z</time><name>PT6437</name></trkpt>
<trkpt lat="54.371936" lon="-3.123225"><ele>787</ele><time>2020-06-12T11:18:17Z</time><name>PT6438</name></trkpt>
<trkpt lat="54.371929" lon="-3.123221"><ele>787</ele><time>2020-06-12T11:18:18Z</time><name>PT6439</name></trkpt>
<trkpt lat="54.371921" lon="-3.123217"><ele>787</ele><time>2020-06-12T11:18:19Z</time><name>PT6440</name></trkpt>
<trkpt lat="54.371912" lon="-3.123214"><ele>787</ele><time>2020-06-12T11:18:20Z</time><name>PT6441</name></trkpt>
<trkpt lat="54.371900" lon="-3.123209"><ele>787</ele><time>2020-06-12T11:18:21Z</time><name>PT6442</name></trkpt>
<trkpt lat="54.371894" lon="-3.123206"><ele>787</ele><time>2020-06-12T11:18:22Z</time><name>PT6443</name></trkpt>
<trkpt lat="54.371885" lon="-3.123203"><ele>787</ele><time>2020-06-12T11:18:23Z</time><name>PT6444</name></trkpt>
<trkpt lat="54.371878" lon="-3.123205"><ele>787</ele><time>2020-06-12T11:18:24Z</time><name>PT6445</name></trkpt>
<trkpt lat="54.371871" lon="-3.123207"><ele>787</ele><time>2020-06-12T11:18:25Z</time><name>PT6446</name></trkpt>
<trkpt lat="54.371864" lon="-3.123203"><ele>787</ele><time>2020-06-12T11:18:26Z</time><name>PT6447</name></trkpt>
<trkpt lat="54.371856" lon="-3.123198"><ele>787</ele><time>2020-06-12T11:18:27Z</time><name>PT6448</name></trkpt>
<trkpt lat="54.371846" lon="-3.123192"><ele>787</ele><time>2020-06-12T11:18:28Z</time><name>PT6449</name></trkpt>
<trkpt lat="54.371834" lon="-3.123181"><ele>788</ele><time>2020-06-12T11:18:29Z</time><name>PT6450</name></trkpt>
<trkpt lat="54.371824" lon="-3.123172"><ele>788</ele><time>2020-06-12T11:18:30Z</time><name>PT6451</name></trkpt>
<trkpt lat="54.371814" lon="-3.123164"><ele>788</ele><time>2020-06-12T11:18:31Z</time><name>PT6452</name></trkpt>
<trkpt lat="54.371808" lon="-3.123160"><ele>788</ele><time>2020-06-12T11:18:32Z</time><name>PT6453</name></trkpt>
<trkpt lat="54.371803" lon="-3.123156"><ele>787</ele><time>2020-06-12T11:18:33Z</time><name>PT6454</name></trkpt>
<trkpt lat="54.371798" lon="-3.123150"><ele>787</ele><time>2020-06-12T11:18:34Z</time><name>PT6455</name></trkpt>
<trkpt lat="54.371792" lon="-3.123146"><ele>787</ele><time>2020-06-12T11:18:35Z</time><name>PT6456</name></trkpt>
<trkpt lat="54.371783" lon="-3.123140"><ele>788</ele><time>2020-06-12T11:18:36Z</time><name>PT6457</name></trkpt>
<trkpt lat="54.371776" lon="-3.123136"><ele>788</ele><time>2020-06-12T11:18:37Z</time><name>PT6458</name></trkpt>
<trkpt lat="54.371774" lon="-3.123135"><ele>788</ele><time>2020-06-12T11:18:38Z</time><name>PT6459</name></trkpt>
<trkpt lat="54.371772" lon="-3.123131"><ele>788</ele><time>2020-06-12T11:18:39Z</time><name>PT6460</name></trkpt>
<trkpt lat="54.371771" lon="-3.123131"><ele>788</ele><time>2020-06-12T11:18:40Z</time><name>PT6461</name></trkpt>
<trkpt lat="54.371771" lon="-3.123131"><ele>788</ele><time>2020-06-12T11:18:41Z</time><name>PT6462</name></trkpt>
<trkpt lat="54.371771" lon="-3.123129"><ele>788</ele><time>2020-06-12T11:18:42Z</time><name>PT6463</name></trkpt>
<trkpt lat="54.371765" lon="-3.123126"><ele>788</ele><time>2020-06-12T11:18:46Z</time><name>PT6464</name></trkpt>
<trkpt lat="54.371756" lon="-3.123118"><ele>788</ele><time>2020-06-12T11:18:47Z</time><name>PT6465</name></trkpt>
<trkpt lat="54.371751" lon="-3.123108"><ele>788</ele><time>2020-06-12T11:18:48Z</time><name>PT6466</name></trkpt>
<trkpt lat="54.371745" lon="-3.123101"><ele>787</ele><time>2020-06-12T11:18:49Z</time><name>PT6467</name></trkpt>
<trkpt lat="54.371733" lon="-3.123098"><ele>787</ele><time>2020-06-12T11:18:50Z</time><name>PT6468</name></trkpt>
<trkpt lat="54.371720" lon="-3.123090"><ele>787</ele><time>2020-06-12T11:18:51Z</time><name>PT6469</name></trkpt>
<trkpt lat="54.371713" lon="-3.123087"><ele>787</ele><time>2020-06-12T11:18:52Z</time><name>PT6470</name></trkpt>
<trkpt lat="54.371704" lon="-3.123081"><ele>787</ele><time>2020-06-12T11:18:53Z</time><name>PT6471</name></trkpt>
<trkpt lat="54.371696" lon="-3.123077"><ele>787</ele><time>2020-06-12T11:18:54Z</time><name>PT6472</name></trkpt>
<trkpt lat="54.371690" lon="-3.123073"><ele>787</ele><time>2020-06-12T11:18:55Z</time><name>PT6473</name></trkpt>
<trkpt lat="54.371680" lon="-3.123067"><ele>787</ele><time>2020-06-12T11:18:56Z</time><name>PT6474</name></trkpt>
<trkpt lat="54.371671" lon="-3.123064"><ele>787</ele><time>2020-06-12T11:18:57Z</time><name>PT6475</name></trkpt>
<trkpt lat="54.371663" lon="-3.123056"><ele>787</ele><time>2020-06-12T11:18:58Z</time><name>PT6476</name></trkpt>
<trkpt lat="54.371660" lon="-3.123050"><ele>787</ele><time>2020-06-12T11:18:59Z</time><name>PT6477</name></trkpt>
<trkpt lat="54.371659" lon="-3.123049"><ele>788</ele><time>2020-06-12T11:19:00Z</time><name>PT6478</name></trkpt>
<trkpt lat="54.371658" lon="-3.123049"><ele>788</ele><time>2020-06-12T11:19:01Z</time><name>PT6479</name></trkpt>
<trkpt lat="54.371657" lon="-3.123047"><ele>788</ele><time>2020-06-12T11:19:02Z</time><name>PT6480</name></trkpt>
<trkpt lat="54.371654" lon="-3.123045"><ele>788</ele><time>2020-06-12T11:19:03Z</time><name>PT6481</name></trkpt>
<trkpt lat="54.371649" lon="-3.123041"><ele>788</ele><time>2020-06-12T11:19:04Z</time><name>PT6482</name></trkpt>
<trkpt lat="54.371642" lon="-3.123036"><ele>788</ele><time>2020-06-12T11:19:05Z</time><name>PT6483</name></trkpt>
<trkpt lat="54.371638" lon="-3.123033"><ele>788</ele><time>2020-06-12T11:19:06Z</time><name>PT6484</name></trkpt>
<trkpt lat="54.371637" lon="-3.123033"><ele>788</ele><time>2020-06-12T11:19:07Z</time><name>PT6485</name></trkpt>
<trkpt lat="54.371631" lon="-3.123026"><ele>789</ele><time>2020-06-12T11:19:08Z</time><name>PT6486</name></trkpt>
<trkpt lat="54.371628" lon="-3.123026"><ele>789</ele><time>2020-06-12T11:19:09Z</time><name>PT6487</name></trkpt>
<trkpt lat="54.371625" lon="-3.123024"><ele>789</ele><time>2020-06-12T11:19:10Z</time><name>PT6488</name></trkpt>
<trkpt lat="54.371620" lon="-3.123021"><ele>789</ele><time>2020-06-12T11:19:11Z</time><name>PT6489</name></trkpt>
<trkpt lat="54.371613" lon="-3.123016"><ele>789</ele><time>2020-06-12T11:19:12Z</time><name>PT6490</name></trkpt>
<trkpt lat="54.371605" lon="-3.123010"><ele>789</ele><time>2020-06-12T11:19:13Z</time><name>PT6491</name></trkpt>
<trkpt lat="54.371597" lon="-3.123004"><ele>789</ele><time>2020-06-12T11:19:14Z</time><name>PT6492</name></trkpt>
<trkpt lat="54.371588" lon="-3.123002"><ele>789</ele><time>2020-06-12T11:19:15Z</time><name>PT6493</name></trkpt>
<trkpt lat="54.371581" lon="-3.122997"><ele>790</ele><time>2020-06-12T11:19:16Z</time><name>PT6494</name></trkpt>
<trkpt lat="54.371573" lon="-3.122989"><ele>790</ele><time>2020-06-12T11:19:17Z</time><name>PT6495</name></trkpt>
<trkpt lat="54.371567" lon="-3.122983"><ele>791</ele><time>2020-06-12T11:19:18Z</time><name>PT6496</name></trkpt>
<trkpt lat="54.371570" lon="-3.122985"><ele>790</ele><time>2020-06-12T11:19:19Z</time><name>PT6497</name></trkpt>
<trkpt lat="54.371571" lon="-3.122990"><ele>790</ele><time>2020-06-12T11:19:20Z</time><name>PT6498</name></trkpt>
<trkpt lat="54.371574" lon="-3.122995"><ele>790</ele><time>2020-06-12T11:19:21Z</time><name>PT6499</name></trkpt>
<trkpt lat="54.371567" lon="-3.122990"><ele>790</ele><time>2020-06-12T11:19:29Z</time><name>PT6500</name></trkpt>
<trkpt lat="54.371559" lon="-3.122982"><ele>791</ele><time>2020-06-12T11:19:30Z</time><name>PT6501</name></trkpt>
<trkpt lat="54.371551" lon="-3.122974"><ele>791</ele><time>2020-06-12T11:19:31Z</time><name>PT6502</name></trkpt>
<trkpt lat="54.371543" lon="-3.122968"><ele>791</ele><time>2020-06-12T11:19:32Z</time><name>PT6503</name></trkpt>
<trkpt lat="54.371534" lon="-3.122963"><ele>791</ele><time>2020-06-12T11:19:33Z</time><name>PT6504</name></trkpt>
<trkpt lat="54.371525" lon="-3.122960"><ele>791</ele><time>2020-06-12T11:19:34Z</time><name>PT6505</name></trkpt>
<trkpt lat="54.371519" lon="-3.122954"><ele>791</ele><time>2020-06-12T11:19:35Z</time><name>PT6506</name></trkpt>
<trkpt lat="54.371512" lon="-3.122946"><ele>791</ele><time>2020-06-12T11:19:36Z</time><name>PT6507</name></trkpt>
<trkpt lat="54.371506" lon="-3.122941"><ele>791</ele><time>2020-06-12T11:19:37Z</time><name>PT6508</name></trkpt>
<trkpt lat="54.371500" lon="-3.122940"><ele>792</ele><time>2020-06-12T11:19:38Z</time><name>PT6509</name></trkpt>
<trkpt lat="54.371492" lon="-3.122938"><ele>792</ele><time>2020-06-12T11:19:39Z</time><name>PT6510</name></trkpt>
<trkpt lat="54.371484" lon="-3.122932"><ele>792</ele><time>2020-06-12T11:19:40Z</time><name>PT6511</name></trkpt>
<trkpt lat="54.371478" lon="-3.122926"><ele>793</ele><time>2020-06-12T11:19:41Z</time><name>PT6512</name></trkpt>
<trkpt lat="54.371472" lon="-3.122922"><ele>793</ele><time>2020-06-12T11:19:42Z</time><name>PT6513</name></trkpt>
<trkpt lat="54.371468" lon="-3.122915"><ele>793</ele><time>2020-06-12T11:19:43Z</time><name>PT6514</name></trkpt>
<trkpt lat="54.371465" lon="-3.122909"><ele>793</ele><time>2020-06-12T11:19:44Z</time><name>PT6515</name></trkpt>
<trkpt lat="54.371462" lon="-3.122903"><ele>793</ele><time>2020-06-12T11:19:45Z</time><name>PT6516</name></trkpt>
<trkpt lat="54.371459" lon="-3.122901"><ele>793</ele><time>2020-06-12T11:19:46Z</time><name>PT6517</name></trkpt>
<trkpt lat="54.371454" lon="-3.122899"><ele>793</ele><time>2020-06-12T11:19:47Z</time><name>PT6518</name></trkpt>
<trkpt lat="54.371451" lon="-3.122895"><ele>793</ele><time>2020-06-12T11:19:48Z</time><name>PT6519</name></trkpt>
<trkpt lat="54.371447" lon="-3.122892"><ele>793</ele><time>2020-06-12T11:19:49Z</time><name>PT6520</name></trkpt>
<trkpt lat="54.371445" lon="-3.122889"><ele>793</ele><time>2020-06-12T11:19:50Z</time><name>PT6521</name></trkpt>
<trkpt lat="54.371435" lon="-3.122881"><ele>794</ele><time>2020-06-12T11:20:02Z</time><name>PT6522</name></trkpt>
<trkpt lat="54.371431" lon="-3.122870"><ele>794</ele><time>2020-06-12T11:20:03Z</time><name>PT6523</name></trkpt>
<trkpt lat="54.371428" lon="-3.122856"><ele>795</ele><time>2020-06-12T11:20:04Z</time><name>PT6524</name></trkpt>
<trkpt lat="54.371420" lon="-3.122854"><ele>795</ele><time>2020-06-12T11:20:05Z</time><name>PT6525</name></trkpt>
<trkpt lat="54.371413" lon="-3.122850"><ele>795</ele><time>2020-06-12T11:20:06Z</time><name>PT6526</name></trkpt>
<trkpt lat="54.371409" lon="-3.122845"><ele>795</ele><time>2020-06-12T11:20:07Z</time><name>PT6527</name></trkpt>
<trkpt lat="54.371406" lon="-3.122840"><ele>795</ele><time>2020-06-12T11:20:08Z</time><name>PT6528</name></trkpt>
<trkpt lat="54.371399" lon="-3.122836"><ele>795</ele><time>2020-06-12T11:20:09Z</time><name>PT6529</name></trkpt>
<trkpt lat="54.371389" lon="-3.122830"><ele>795</ele><time>2020-06-12T11:20:10Z</time><name>PT6530</name></trkpt>
<trkpt lat="54.371379" lon="-3.122829"><ele>796</ele><time>2020-06-12T11:20:11Z</time><name>PT6531</name></trkpt>
<trkpt lat="54.371373" lon="-3.122819"><ele>796</ele><time>2020-06-12T11:20:12Z</time><name>PT6532</name></trkpt>
<trkpt lat="54.371369" lon="-3.122814"><ele>796</ele><time>2020-06-12T11:20:13Z</time><name>PT6533</name></trkpt>
<trkpt lat="54.371368" lon="-3.122806"><ele>796</ele><time>2020-06-12T11:20:14Z</time><name>PT6534</name></trkpt>
<trkpt lat="54.371363" lon="-3.122801"><ele>796</ele><time>2020-06-12T11:20:15Z</time><name>PT6535</name></trkpt>
<trkpt lat="54.371360" lon="-3.122794"><ele>796</ele><time>2020-06-12T11:20:16Z</time><name>PT6536</name></trkpt>
<trkpt lat="54.371357" lon="-3.122788"><ele>796</ele><time>2020-06-12T11:20:17Z</time><name>PT6537</name></trkpt>
<trkpt lat="54.371354" lon="-3.122779"><ele>796</ele><time>2020-06-12T11:20:18Z</time><name>PT6538</name></trkpt>
<trkpt lat="54.371347" lon="-3.122772"><ele>796</ele><time>2020-06-12T11:20:19Z</time><name>PT6539</name></trkpt>
<trkpt lat="54.371339" lon="-3.122761"><ele>797</ele><time>2020-06-12T11:20:20Z</time><name>PT6540</name></trkpt>
<trkpt lat="54.371334" lon="-3.122754"><ele>797</ele><time>2020-06-12T11:20:21Z</time><name>PT6541</name></trkpt>
<trkpt lat="54.371333" lon="-3.122750"><ele>797</ele><time>2020-06-12T11:20:22Z</time><name>PT6542</name></trkpt>
<trkpt lat="54.371329" lon="-3.122747"><ele>797</ele><time>2020-06-12T11:20:23Z</time><name>PT6543</name></trkpt>
<trkpt lat="54.371326" lon="-3.122745"><ele>797</ele><time>2020-06-12T11:20:24Z</time><name>PT6544</name></trkpt>
<trkpt lat="54.371324" lon="-3.122743"><ele>797</ele><time>2020-06-12T11:20:25Z</time><name>PT6545</name></trkpt>
<trkpt lat="54.371327" lon="-3.122741"><ele>797</ele><time>2020-06-12T11:20:27Z</time><name>PT6546</name></trkpt>
<trkpt lat="54.371316" lon="-3.122728"><ele>797</ele><time>2020-06-12T11:20:28Z</time><name>PT6547</name></trkpt>
<trkpt lat="54.371308" lon="-3.122714"><ele>797</ele><time>2020-06-12T11:20:29Z</time><name>PT6548</name></trkpt>
<trkpt lat="54.371303" lon="-3.122701"><ele>797</ele><time>2020-06-12T11:20:30Z</time><name>PT6549</name></trkpt>
<trkpt lat="54.371297" lon="-3.122692"><ele>797</ele><time>2020-06-12T11:20:31Z</time><name>PT6550</name></trkpt>
<trkpt lat="54.371294" lon="-3.122682"><ele>797</ele><time>2020-06-12T11:20:32Z</time><name>PT6551</name></trkpt>
<trkpt lat="54.371290" lon="-3.122669"><ele>797</ele><time>2020-06-12T11:20:33Z</time><name>PT6552</name></trkpt>
<trkpt lat="54.371286" lon="-3.122656"><ele>797</ele><time>2020-06-12T11:20:34Z</time><name>PT6553</name></trkpt>
<trkpt lat="54.371282" lon="-3.122645"><ele>798</ele><time>2020-06-12T11:20:35Z</time><name>PT6554</name></trkpt>
<trkpt lat="54.371274" lon="-3.122629"><ele>798</ele><time>2020-06-12T11:20:36Z</time><name>PT6555</name></trkpt>
<trkpt lat="54.371269" lon="-3.122621"><ele>798</ele><time>2020-06-12T11:20:37Z</time><name>PT6556</name></trkpt>
<trkpt lat="54.371261" lon="-3.122611"><ele>798</ele><time>2020-06-12T11:20:38Z</time><name>PT6557</name></trkpt>
<trkpt lat="54.371254" lon="-3.122602"><ele>798</ele><time>2020-06-12T11:20:39Z</time><name>PT6558</name></trkpt>
<trkpt lat="54.371249" lon="-3.122591"><ele>798</ele><time>2020-06-12T11:20:40Z</time><name>PT6559</name></trkpt>
<trkpt lat="54.371242" lon="-3.122578"><ele>798</ele><time>2020-06-12T11:20:41Z</time><name>PT6560</name></trkpt>
<trkpt lat="54.371235" lon="-3.122566"><ele>798</ele><time>2020-06-12T11:20:42Z</time><name>PT6561</name></trkpt>
<trkpt lat="54.371228" lon="-3.122551"><ele>798</ele><time>2020-06-12T11:20:43Z</time><name>PT6562</name></trkpt>
<trkpt lat="54.371224" lon="-3.122542"><ele>798</ele><time>2020-06-12T11:20:44Z</time><name>PT6563</name></trkpt>
<trkpt lat="54.371222" lon="-3.122537"><ele>798</ele><time>2020-06-12T11:20:45Z</time><name>PT6564</name></trkpt>
<trkpt lat="54.371220" lon="-3.122535"><ele>798</ele><time>2020-06-12T11:20:46Z</time><name>PT6565</name></trkpt>
<trkpt lat="54.371217" lon="-3.122532"><ele>799</ele><time>2020-06-12T11:20:47Z</time><name>PT6566</name></trkpt>
<trkpt lat="54.371212" lon="-3.122530"><ele>799</ele><time>2020-06-12T11:20:48Z</time><name>PT6567</name></trkpt>
<trkpt lat="54.371204" lon="-3.122522"><ele>799</ele><time>2020-06-12T11:20:49Z</time><name>PT6568</name></trkpt>
<trkpt lat="54.371196" lon="-3.122512"><ele>799</ele><time>2020-06-12T11:20:50Z</time><name>PT6569</name></trkpt>
<trkpt lat="54.371188" lon="-3.122502"><ele>799</ele><time>2020-06-12T11:20:51Z</time><name>PT6570</name></trkpt>
<trkpt lat="54.371181" lon="-3.122489"><ele>799</ele><time>2020-06-12T11:20:52Z</time><name>PT6571</name></trkpt>
<trkpt lat="54.371173" lon="-3.122480"><ele>799</ele><time>2020-06-12T11:20:53Z</time><name>PT6572</name></trkpt>
<trkpt lat="54.371164" lon="-3.122466"><ele>799</ele><time>2020-06-12T11:20:54Z</time><name>PT6573</name></trkpt>
<trkpt lat="54.371156" lon="-3.122457"><ele>799</ele><time>2020-06-12T11:20:55Z</time><name>PT6574</name></trkpt>
<trkpt lat="54.371147" lon="-3.122450"><ele>799</ele><time>2020-06-12T11:20:56Z</time><name>PT6575</name></trkpt>
<trkpt lat="54.371138" lon="-3.122442"><ele>799</ele><time>2020-06-12T11:20:57Z</time><name>PT6576</name></trkpt>
<trkpt lat="54.371130" lon="-3.122434"><ele>799</ele><time>2020-06-12T11:20:58Z</time><name>PT6577</name></trkpt>
<trkpt lat="54.371121" lon="-3.122425"><ele>799</ele><time>2020-06-12T11:20:59Z</time><name>PT6578</name></trkpt>
<trkpt lat="54.371110" lon="-3.122416"><ele>799</ele><time>2020-06-12T11:21:00Z</time><name>PT6579</name></trkpt>
<trkpt lat="54.371101" lon="-3.122407"><ele>799</ele><time>2020-06-12T11:21:01Z</time><name>PT6580</name></trkpt>
<trkpt lat="54.371091" lon="-3.122395"><ele>799</ele><time>2020-06-12T11:21:02Z</time><name>PT6581</name></trkpt>
<trkpt lat="54.371082" lon="-3.122387"><ele>799</ele><time>2020-06-12T11:21:03Z</time><name>PT6582</name></trkpt>
<trkpt lat="54.371072" lon="-3.122378"><ele>799</ele><time>2020-06-12T11:21:04Z</time><name>PT6583</name></trkpt>
<trkpt lat="54.371064" lon="-3.122369"><ele>800</ele><time>2020-06-12T11:21:05Z</time><name>PT6584</name></trkpt>
<trkpt lat="54.371056" lon="-3.122364"><ele>800</ele><time>2020-06-12T11:21:06Z</time><name>PT6585</name></trkpt>
<trkpt lat="54.371048" lon="-3.122358"><ele>800</ele><time>2020-06-12T11:21:07Z</time><name>PT6586</name></trkpt>
<trkpt lat="54.371039" lon="-3.122345"><ele>800</ele><time>2020-06-12T11:21:08Z</time><name>PT6587</name></trkpt>
<trkpt lat="54.371032" lon="-3.122332"><ele>800</ele><time>2020-06-12T11:21:09Z</time><name>PT6588</name></trkpt>
<trkpt lat="54.371024" lon="-3.122319"><ele>801</ele><time>2020-06-12T11:21:10Z</time><name>PT6589</name></trkpt>
<trkpt lat="54.371016" lon="-3.122306"><ele>801</ele><time>2020-06-12T11:21:11Z</time><name>PT6590</name></trkpt>
<trkpt lat="54.371009" lon="-3.122295"><ele>801</ele><time>2020-06-12T11:21:12Z</time><name>PT6591</name></trkpt>
<trkpt lat="54.371000" lon="-3.122285"><ele>801</ele><time>2020-06-12T11:21:13Z</time><name>PT6592</name></trkpt>
<trkpt lat="54.370993" lon="-3.122277"><ele>801</ele><time>2020-06-12T11:21:14Z</time><name>PT6593</name></trkpt>
<trkpt lat="54.370986" lon="-3.122267"><ele>801</ele><time>2020-06-12T11:21:15Z</time><name>PT6594</name></trkpt>
<trkpt lat="54.370978" lon="-3.122258"><ele>801</ele><time>2020-06-12T11:21:16Z</time><name>PT6595</name></trkpt>
<trkpt lat="54.370971" lon="-3.122248"><ele>801</ele><time>2020-06-12T11:21:17Z</time><name>PT6596</name></trkpt>
<trkpt lat="54.370963" lon="-3.122235"><ele>801</ele><time>2020-06-12T11:21:18Z</time><name>PT6597</name></trkpt>
<trkpt lat="54.370955" lon="-3.122220"><ele>801</ele><time>2020-06-12T11:21:19Z</time><name>PT6598</name></trkpt>
<trkpt lat="54.370949" lon="-3.122207"><ele>801</ele><time>2020-06-12T11:21:20Z</time><name>PT6599</name></trkpt>
<trkpt lat="54.370942" lon="-3.122186"><ele>801</ele><time>2020-06-12T11:21:21Z</time><name>PT6600</name></trkpt>
<trkpt lat="54.370934" lon="-3.122172"><ele>801</ele><time>2020-06-12T11:21:22Z</time><name>PT6601</name></trkpt>
<trkpt lat="54.370927" lon="-3.122160"><ele>801</ele><time>2020-06-12T11:21:23Z</time><name>PT6602</name></trkpt>
<trkpt lat="54.370921" lon="-3.122145"><ele>800</ele><time>2020-06-12T11:21:24Z</time><name>PT6603</name></trkpt>
<trkpt lat="54.370915" lon="-3.122127"><ele>801</ele><time>2020-06-12T11:21:25Z</time><name>PT6604</name></trkpt>
<trkpt lat="54.370911" lon="-3.122110"><ele>801</ele><time>2020-06-12T11:21:26Z</time><name>PT6605</name></trkpt>
<trkpt lat="54.370907" lon="-3.122096"><ele>801</ele><time>2020-06-12T11:21:27Z</time><name>PT6606</name></trkpt>
<trkpt lat="54.370903" lon="-3.122082"><ele>801</ele><time>2020-06-12T11:21:28Z</time><name>PT6607</name></trkpt>
<trkpt lat="54.370898" lon="-3.122069"><ele>802</ele><time>2020-06-12T11:21:29Z</time><name>PT6608</name></trkpt>
<trkpt lat="54.370892" lon="-3.122055"><ele>802</ele><time>2020-06-12T11:21:30Z</time><name>PT6609</name></trkpt>
<trkpt lat="54.370888" lon="-3.122047"><ele>802</ele><time>2020-06-12T11:21:31Z</time><name>PT6610</name></trkpt>
<trkpt lat="54.370884" lon="-3.122036"><ele>803</ele><time>2020-06-12T11:21:32Z</time><name>PT6611</name></trkpt>
<trkpt lat="54.370878" lon="-3.122028"><ele>803</ele><time>2020-06-12T11:21:33Z</time><name>PT6612</name></trkpt>
<trkpt lat="54.370871" lon="-3.122019"><ele>803</ele><time>2020-06-12T11:21:34Z</time><name>PT6613</name></trkpt>
<trkpt lat="54.370866" lon="-3.122008"><ele>803</ele><time>2020-06-12T11:21:35Z</time><name>PT6614</name></trkpt>
<trkpt lat="54.370860" lon="-3.121999"><ele>803</ele><time>2020-06-12T11:21:36Z</time><name>PT6615</name></trkpt>
<trkpt lat="54.370853" lon="-3.121990"><ele>803</ele><time>2020-06-12T11:21:37Z</time><name>PT6616</name></trkpt>
<trkpt lat="54.370846" lon="-3.121981"><ele>803</ele><time>2020-06-12T11:21:38Z</time><name>PT6617</name></trkpt>
<trkpt lat="54.370838" lon="-3.121968"><ele>803</ele><time>2020-06-12T11:21:39Z</time><name>PT6618</name></trkpt>
<trkpt lat="54.370831" lon="-3.121958"><ele>803</ele><time>2020-06-12T11:21:40Z</time><name>PT6619</name></trkpt>
<trkpt lat="54.370822" lon="-3.121950"><ele>803</ele><time>2020-06-12T11:21:41Z</time><name>PT6620</name></trkpt>
<trkpt lat="54.370816" lon="-3.121937"><ele>803</ele><time>2020-06-12T11:21:42Z</time><name>PT6621</name></trkpt>
<trkpt lat="54.370810" lon="-3.121921"><ele>804</ele><time>2020-06-12T11:21:43Z</time><name>PT6622</name></trkpt>
<trkpt lat="54.370805" lon="-3.121904"><ele>804</ele><time>2020-06-12T11:21:44Z</time><name>PT6623</name></trkpt>
<trkpt lat="54.370801" lon="-3.121889"><ele>804</ele><time>2020-06-12T11:21:45Z</time><name>PT6624</name></trkpt>
<trkpt lat="54.370797" lon="-3.121870"><ele>805</ele><time>2020-06-12T11:21:46Z</time><name>PT6625</name></trkpt>
<trkpt lat="54.370794" lon="-3.121856"><ele>805</ele><time>2020-06-12T11:21:47Z</time><name>PT6626</name></trkpt>
<trkpt lat="54.370792" lon="-3.121843"><ele>804</ele><time>2020-06-12T11:21:48Z</time><name>PT6627</name></trkpt>
<trkpt lat="54.370789" lon="-3.121824"><ele>804</ele><time>2020-06-12T11:21:49Z</time><name>PT6628</name></trkpt>
<trkpt lat="54.370786" lon="-3.121809"><ele>805</ele><time>2020-06-12T11:21:50Z</time><name>PT6629</name></trkpt>
<trkpt lat="54.370784" lon="-3.121793"><ele>805</ele><time>2020-06-12T11:21:51Z</time><name>PT6630</name></trkpt>
<trkpt lat="54.370785" lon="-3.121774"><ele>805</ele><time>2020-06-12T11:21:52Z</time><name>PT6631</name></trkpt>
<trkpt lat="54.370784" lon="-3.121763"><ele>805</ele><time>2020-06-12T11:21:53Z</time><name>PT6632</name></trkpt>
<trkpt lat="54.370783" lon="-3.121753"><ele>805</ele><time>2020-06-12T11:21:54Z</time><name>PT6633</name></trkpt>
<trkpt lat="54.370781" lon="-3.121739"><ele>805</ele><time>2020-06-12T11:21:55Z</time><name>PT6634</name></trkpt>
<trkpt lat="54.370781" lon="-3.121726"><ele>805</ele><time>2020-06-12T11:21:56Z</time><name>PT6635</name></trkpt>
<trkpt lat="54.370780" lon="-3.121716"><ele>805</ele><time>2020-06-12T11:21:57Z</time><name>PT6636</name></trkpt>
<trkpt lat="54.370777" lon="-3.121712"><ele>805</ele><time>2020-06-12T11:21:58Z</time><name>PT6637</name></trkpt>
<trkpt lat="54.370773" lon="-3.121705"><ele>805</ele><time>2020-06-12T11:21:59Z</time><name>PT6638</name></trkpt>
<trkpt lat="54.370769" lon="-3.121693"><ele>805</ele><time>2020-06-12T11:22:00Z</time><name>PT6639</name></trkpt>
<trkpt lat="54.370766" lon="-3.121678"><ele>805</ele><time>2020-06-12T11:22:01Z</time><name>PT6640</name></trkpt>
<trkpt lat="54.370764" lon="-3.121669"><ele>805</ele><time>2020-06-12T11:22:02Z</time><name>PT6641</name></trkpt>
<trkpt lat="54.370763" lon="-3.121660"><ele>805</ele><time>2020-06-12T11:22:03Z</time><name>PT6642</name></trkpt>
<trkpt lat="54.370763" lon="-3.121643"><ele>805</ele><time>2020-06-12T11:22:04Z</time><name>PT6643</name></trkpt>
<trkpt lat="54.370762" lon="-3.121628"><ele>806</ele><time>2020-06-12T11:22:05Z</time><name>PT6644</name></trkpt>
<trkpt lat="54.370761" lon="-3.121616"><ele>806</ele><time>2020-06-12T11:22:06Z</time><name>PT6645</name></trkpt>
<trkpt lat="54.370759" lon="-3.121608"><ele>806</ele><time>2020-06-12T11:22:07Z</time><name>PT6646</name></trkpt>
<trkpt lat="54.370759" lon="-3.121597"><ele>806</ele><time>2020-06-12T11:22:08Z</time><name>PT6647</name></trkpt>
<trkpt lat="54.370758" lon="-3.121590"><ele>806</ele><time>2020-06-12T11:22:09Z</time><name>PT6648</name></trkpt>
<trkpt lat="54.370757" lon="-3.121587"><ele>806</ele><time>2020-06-12T11:22:10Z</time><name>PT6649</name></trkpt>
<trkpt lat="54.370757" lon="-3.121583"><ele>806</ele><time>2020-06-12T11:22:12Z</time><name>PT6650</name></trkpt>
<trkpt lat="54.370758" lon="-3.121579"><ele>806</ele><time>2020-06-12T11:22:13Z</time><name>PT6651</name></trkpt>
<trkpt lat="54.370759" lon="-3.121576"><ele>806</ele><time>2020-06-12T11:22:14Z</time><name>PT6652</name></trkpt>
<trkpt lat="54.370758" lon="-3.121569"><ele>805</ele><time>2020-06-12T11:22:41Z</time><name>PT6653</name></trkpt>
<trkpt lat="54.370758" lon="-3.121570"><ele>805</ele><time>2020-06-12T11:22:42Z</time><name>PT6654</name></trkpt>
<trkpt lat="54.370751" lon="-3.121563"><ele>805</ele><time>2020-06-12T11:23:55Z</time><name>PT6655</name></trkpt>
<trkpt lat="54.370747" lon="-3.121558"><ele>805</ele><time>2020-06-12T11:23:56Z</time><name>PT6656</name></trkpt>
<trkpt lat="54.370744" lon="-3.121557"><ele>805</ele><time>2020-06-12T11:23:57Z</time><name>PT6657</name></trkpt>
<trkpt lat="54.370730" lon="-3.121550"><ele>806</ele><time>2020-06-12T11:24:34Z</time><name>PT6658</name></trkpt>
<trkpt lat="54.370724" lon="-3.121546"><ele>806</ele><time>2020-06-12T11:24:35Z</time><name>PT6659</name></trkpt>
<trkpt lat="54.370721" lon="-3.121544"><ele>806</ele><time>2020-06-12T11:24:36Z</time><name>PT6660</name></trkpt>
<trkpt lat="54.370715" lon="-3.121544"><ele>806</ele><time>2020-06-12T11:24:37Z</time><name>PT6661</name></trkpt>
<trkpt lat="54.370706" lon="-3.121536"><ele>805</ele><time>2020-06-12T11:24:38Z</time><name>PT6662</name></trkpt>
<trkpt lat="54.370700" lon="-3.121536"><ele>805</ele><time>2020-06-12T11:24:39Z</time><name>PT6663</name></trkpt>
<trkpt lat="54.370693" lon="-3.121529"><ele>805</ele><time>2020-06-12T11:24:40Z</time><name>PT6664</name></trkpt>
<trkpt lat="54.370690" lon="-3.121527"><ele>805</ele><time>2020-06-12T11:24:41Z</time><name>PT6665</name></trkpt>
<trkpt lat="54.370690" lon="-3.121520"><ele>805</ele><time>2020-06-12T11:24:42Z</time><name>PT6666</name></trkpt>
<trkpt lat="54.370686" lon="-3.121513"><ele>805</ele><time>2020-06-12T11:24:43Z</time><name>PT6667</name></trkpt>
<trkpt lat="54.370683" lon="-3.121507"><ele>806</ele><time>2020-06-12T11:24:44Z</time><name>PT6668</name></trkpt>
<trkpt lat="54.370679" lon="-3.121507"><ele>805</ele><time>2020-06-12T11:24:45Z</time><name>PT6669</name></trkpt>
<trkpt lat="54.370680" lon="-3.121503"><ele>806</ele><time>2020-06-12T11:24:46Z</time><name>PT6670</name></trkpt>
<trkpt lat="54.370677" lon="-3.121505"><ele>806</ele><time>2020-06-12T11:24:47Z</time><name>PT6671</name></trkpt>
<trkpt lat="54.370673" lon="-3.121504"><ele>806</ele><time>2020-06-12T11:24:48Z</time><name>PT6672</name></trkpt>
<trkpt lat="54.370670" lon="-3.121503"><ele>806</ele><time>2020-06-12T11:24:49Z</time><name>PT6673</name></trkpt>
<trkpt lat="54.370669" lon="-3.121503"><ele>806</ele><time>2020-06-12T11:24:50Z</time><name>PT6674</name></trkpt>
<trkpt lat="54.370667" lon="-3.121503"><ele>806</ele><time>2020-06-12T11:24:51Z</time><name>PT6675</name></trkpt>
<trkpt lat="54.370666" lon="-3.121494"><ele>806</ele><time>2020-06-12T11:25:24Z</time><name>PT6676</name></trkpt>
<trkpt lat="54.370665" lon="-3.121485"><ele>806</ele><time>2020-06-12T11:25:25Z</time><name>PT6677</name></trkpt>
<trkpt lat="54.370664" lon="-3.121482"><ele>806</ele><time>2020-06-12T11:25:26Z</time><name>PT6678</name></trkpt>
<trkpt lat="54.370664" lon="-3.121482"><ele>806</ele><time>2020-06-12T11:25:31Z</time><name>PT6679</name></trkpt>
<trkpt lat="54.370663" lon="-3.121482"><ele>806</ele><time>2020-06-12T11:25:32Z</time><name>PT6680</name></trkpt>
<trkpt lat="54.370664" lon="-3.121481"><ele>806</ele><time>2020-06-12T11:25:33Z</time><name>PT6681</name></trkpt>
<trkpt lat="54.370663" lon="-3.121480"><ele>806</ele><time>2020-06-12T11:25:34Z</time><name>PT6682</name></trkpt>
<trkpt lat="54.370656" lon="-3.121483"><ele>807</ele><time>2020-06-12T11:25:59Z</time><name>PT6683</name></trkpt>
<trkpt lat="54.370648" lon="-3.121480"><ele>806</ele><time>2020-06-12T11:26:00Z</time><name>PT6684</name></trkpt>
<trkpt lat="54.370648" lon="-3.121484"><ele>806</ele><time>2020-06-12T11:26:01Z</time><name>PT6685</name></trkpt>
<trkpt lat="54.370645" lon="-3.121482"><ele>806</ele><time>2020-06-12T11:26:11Z</time><name>PT6686</name></trkpt>
<trkpt lat="54.370644" lon="-3.121483"><ele>806</ele><time>2020-06-12T11:26:12Z</time><name>PT6687</name></trkpt>
<trkpt lat="54.370645" lon="-3.121480"><ele>806</ele><time>2020-06-12T11:26:13Z</time><name>PT6688</name></trkpt>
<trkpt lat="54.370644" lon="-3.121481"><ele>806</ele><time>2020-06-12T11:26:14Z</time><name>PT6689</name></trkpt>
<trkpt lat="54.370647" lon="-3.121478"><ele>806</ele><time>2020-06-12T11:26:15Z</time><name>PT6690</name></trkpt>
<trkpt lat="54.370651" lon="-3.121482"><ele>806</ele><time>2020-06-12T11:26:16Z</time><name>PT6691</name></trkpt>
<trkpt lat="54.370649" lon="-3.121478"><ele>808</ele><time>2020-06-12T11:26:55Z</time><name>PT6692</name></trkpt>
<trkpt lat="54.370643" lon="-3.121471"><ele>807</ele><time>2020-06-12T11:26:56Z</time><name>PT6693</name></trkpt>
<trkpt lat="54.370644" lon="-3.121467"><ele>807</ele><time>2020-06-12T11:26:57Z</time><name>PT6694</name></trkpt>
<trkpt lat="54.370646" lon="-3.121468"><ele>807</ele><time>2020-06-12T11:26:58Z</time><name>PT6695</name></trkpt>
<trkpt lat="54.370646" lon="-3.121465"><ele>807</ele><time>2020-06-12T11:27:16Z</time><name>PT6696</name></trkpt>
<trkpt lat="54.370647" lon="-3.121465"><ele>807</ele><time>2020-06-12T11:27:17Z</time><name>PT6697</name></trkpt>
<trkpt lat="54.370646" lon="-3.121469"><ele>807</ele><time>2020-06-12T11:27:18Z</time><name>PT6698</name></trkpt>
<trkpt lat="54.370647" lon="-3.121467"><ele>807</ele><time>2020-06-12T11:27:19Z</time><name>PT6699</name></trkpt>
<trkpt lat="54.370647" lon="-3.121467"><ele>807</ele><time>2020-06-12T11:27:20Z</time><name>PT6700</name></trkpt>
<trkpt lat="54.370647" lon="-3.121468"><ele>807</ele><time>2020-06-12T11:27:21Z</time><name>PT6701</name></trkpt>
<trkpt lat="54.370647" lon="-3.121469"><ele>807</ele><time>2020-06-12T11:27:22Z</time><name>PT6702</name></trkpt>
<trkpt lat="54.370644" lon="-3.121471"><ele>807</ele><time>2020-06-12T11:27:23Z</time><name>PT6703</name></trkpt>
<trkpt lat="54.370644" lon="-3.121471"><ele>807</ele><time>2020-06-12T11:27:24Z</time><name>PT6704</name></trkpt>
<trkpt lat="54.370644" lon="-3.121473"><ele>807</ele><time>2020-06-12T11:27:25Z</time><name>PT6705</name></trkpt>
<trkpt lat="54.370644" lon="-3.121473"><ele>807</ele><time>2020-06-12T11:27:26Z</time><name>PT6706</name></trkpt>
<trkpt lat="54.370646" lon="-3.121472"><ele>807</ele><time>2020-06-12T11:27:27Z</time><name>PT6707</name></trkpt>
<trkpt lat="54.370639" lon="-3.121466"><ele>807</ele><time>2020-06-12T11:27:50Z</time><name>PT6708</name></trkpt>
<trkpt lat="54.370639" lon="-3.121475"><ele>807</ele><time>2020-06-12T11:27:51Z</time><name>PT6709</name></trkpt>
<trkpt lat="54.370640" lon="-3.121474"><ele>808</ele><time>2020-06-12T11:27:52Z</time><name>PT6710</name></trkpt>
<trkpt lat="54.370650" lon="-3.121477"><ele>808</ele><time>2020-06-12T11:27:53Z</time><name>PT6711</name></trkpt>
<trkpt lat="54.370649" lon="-3.121473"><ele>808</ele><time>2020-06-12T11:27:54Z</time><name>PT6712</name></trkpt>
<trkpt lat="54.370648" lon="-3.121470"><ele>808</ele><time>2020-06-12T11:27:55Z</time><name>PT6713</name></trkpt>
<trkpt lat="54.370646" lon="-3.121475"><ele>808</ele><time>2020-06-12T11:27:56Z</time><name>PT6714</name></trkpt>
<trkpt lat="54.370647" lon="-3.121476"><ele>808</ele><time>2020-06-12T11:27:57Z</time><name>PT6715</name></trkpt>
<trkpt lat="54.370645" lon="-3.121476"><ele>808</ele><time>2020-06-12T11:27:58Z</time><name>PT6716</name></trkpt>
<trkpt lat="54.370649" lon="-3.121477"><ele>808</ele><time>2020-06-12T11:27:59Z</time><name>PT6717</name></trkpt>
<trkpt lat="54.370650" lon="-3.121481"><ele>808</ele><time>2020-06-12T11:28:00Z</time><name>PT6718</name></trkpt>
<trkpt lat="54.370653" lon="-3.121479"><ele>808</ele><time>2020-06-12T11:28:01Z</time><name>PT6719</name></trkpt>
<trkpt lat="54.370652" lon="-3.121479"><ele>808</ele><time>2020-06-12T11:28:02Z</time><name>PT6720</name></trkpt>
<trkpt lat="54.370651" lon="-3.121475"><ele>808</ele><time>2020-06-12T11:28:03Z</time><name>PT6721</name></trkpt>
<trkpt lat="54.370651" lon="-3.121469"><ele>808</ele><time>2020-06-12T11:28:04Z</time><name>PT6722</name></trkpt>
<trkpt lat="54.370650" lon="-3.121465"><ele>808</ele><time>2020-06-12T11:28:05Z</time><name>PT6723</name></trkpt>
<trkpt lat="54.370652" lon="-3.121460"><ele>808</ele><time>2020-06-12T11:28:06Z</time><name>PT6724</name></trkpt>
<trkpt lat="54.370655" lon="-3.121456"><ele>808</ele><time>2020-06-12T11:28:07Z</time><name>PT6725</name></trkpt>
<trkpt lat="54.370656" lon="-3.121450"><ele>808</ele><time>2020-06-12T11:28:08Z</time><name>PT6726</name></trkpt>
<trkpt lat="54.370655" lon="-3.121446"><ele>808</ele><time>2020-06-12T11:28:09Z</time><name>PT6727</name></trkpt>
<trkpt lat="54.370656" lon="-3.121443"><ele>808</ele><time>2020-06-12T11:28:10Z</time><name>PT6728</name></trkpt>
<trkpt lat="54.370656" lon="-3.121443"><ele>808</ele><time>2020-06-12T11:28:11Z</time><name>PT6729</name></trkpt>
<trkpt lat="54.370655" lon="-3.121441"><ele>808</ele><time>2020-06-12T11:28:12Z</time><name>PT6730</name></trkpt>
<trkpt lat="54.370654" lon="-3.121441"><ele>808</ele><time>2020-06-12T11:28:13Z</time><name>PT6731</name></trkpt>
<trkpt lat="54.370654" lon="-3.121441"><ele>808</ele><time>2020-06-12T11:28:14Z</time><name>PT6732</name></trkpt>
<trkpt lat="54.370653" lon="-3.121441"><ele>808</ele><time>2020-06-12T11:28:22Z</time><name>PT6733</name></trkpt>
<trkpt lat="54.370654" lon="-3.121440"><ele>808</ele><time>2020-06-12T11:28:23Z</time><name>PT6734</name></trkpt>
<trkpt lat="54.370662" lon="-3.121447"><ele>808</ele><time>2020-06-12T11:28:41Z</time><name>PT6735</name></trkpt>
<trkpt lat="54.370663" lon="-3.121450"><ele>808</ele><time>2020-06-12T11:28:42Z</time><name>PT6736</name></trkpt>
<trkpt lat="54.370653" lon="-3.121449"><ele>807</ele><time>2020-06-12T11:28:43Z</time><name>PT6737</name></trkpt>
<trkpt lat="54.370651" lon="-3.121451"><ele>808</ele><time>2020-06-12T11:30:06Z</time><name>PT6738</name></trkpt>
<trkpt lat="54.370644" lon="-3.121454"><ele>808</ele><time>2020-06-12T11:30:07Z</time><name>PT6739</name></trkpt>
<trkpt lat="54.370636" lon="-3.121456"><ele>808</ele><time>2020-06-12T11:30:08Z</time><name>PT6740</name></trkpt>
<trkpt lat="54.370623" lon="-3.121464"><ele>808</ele><time>2020-06-12T11:30:09Z</time><name>PT6741</name></trkpt>
<trkpt lat="54.370620" lon="-3.121464"><ele>808</ele><time>2020-06-12T11:30:10Z</time><name>PT6742</name></trkpt>
<trkpt lat="54.370617" lon="-3.121468"><ele>808</ele><time>2020-06-12T11:30:11Z</time><name>PT6743</name></trkpt>
<trkpt lat="54.370615" lon="-3.121468"><ele>808</ele><time>2020-06-12T11:30:15Z</time><name>PT6744</name></trkpt>
<trkpt lat="54.370618" lon="-3.121468"><ele>806</ele><time>2020-06-12T11:30:16Z</time><name>PT6745</name></trkpt>
<trkpt lat="54.370612" lon="-3.121464"><ele>806</ele><time>2020-06-12T11:30:17Z</time><name>PT6746</name></trkpt>
<trkpt lat="54.370606" lon="-3.121463"><ele>806</ele><time>2020-06-12T11:30:18Z</time><name>PT6747</name></trkpt>
<trkpt lat="54.370604" lon="-3.121464"><ele>805</ele><time>2020-06-12T11:30:19Z</time><name>PT6748</name></trkpt>
<trkpt lat="54.370603" lon="-3.121467"><ele>805</ele><time>2020-06-12T11:30:20Z</time><name>PT6749</name></trkpt>
<trkpt lat="54.370603" lon="-3.121465"><ele>805</ele><time>2020-06-12T11:30:21Z</time><name>PT6750</name></trkpt>
<trkpt lat="54.370597" lon="-3.121461"><ele>805</ele><time>2020-06-12T11:30:22Z</time><name>PT6751</name></trkpt>
<trkpt lat="54.370596" lon="-3.121458"><ele>805</ele><time>2020-06-12T11:30:23Z</time><name>PT6752</name></trkpt>
<trkpt lat="54.370592" lon="-3.121459"><ele>805</ele><time>2020-06-12T11:30:24Z</time><name>PT6753</name></trkpt>
<trkpt lat="54.370591" lon="-3.121459"><ele>805</ele><time>2020-06-12T11:30:25Z</time><name>PT6754</name></trkpt>
<trkpt lat="54.370588" lon="-3.121463"><ele>805</ele><time>2020-06-12T11:30:26Z</time><name>PT6755</name></trkpt>
<trkpt lat="54.370586" lon="-3.121455"><ele>805</ele><time>2020-06-12T11:30:32Z</time><name>PT6756</name></trkpt>
<trkpt lat="54.370576" lon="-3.121445"><ele>805</ele><time>2020-06-12T11:30:33Z</time><name>PT6757</name></trkpt>
<trkpt lat="54.370564" lon="-3.121438"><ele>805</ele><time>2020-06-12T11:30:34Z</time><name>PT6758</name></trkpt>
<trkpt lat="54.370557" lon="-3.121433"><ele>805</ele><time>2020-06-12T11:30:35Z</time><name>PT6759</name></trkpt>
<trkpt lat="54.370552" lon="-3.121440"><ele>804</ele><time>2020-06-12T11:30:36Z</time><name>PT6760</name></trkpt>
<trkpt lat="54.370546" lon="-3.121435"><ele>804</ele><time>2020-06-12T11:30:37Z</time><name>PT6761</name></trkpt>
<trkpt lat="54.370543" lon="-3.121418"><ele>804</ele><time>2020-06-12T11:30:38Z</time><name>PT6762</name></trkpt>
<trkpt lat="54.370541" lon="-3.121408"><ele>804</ele><time>2020-06-12T11:30:39Z</time><name>PT6763</name></trkpt>
<trkpt lat="54.370534" lon="-3.121398"><ele>804</ele><time>2020-06-12T11:30:40Z</time><name>PT6764</name></trkpt>
<trkpt lat="54.370528" lon="-3.121384"><ele>803</ele><time>2020-06-12T11:30:41Z</time><name>PT6765</name></trkpt>
<trkpt lat="54.370525" lon="-3.121373"><ele>803</ele><time>2020-06-12T11:30:42Z</time><name>PT6766</name></trkpt>
<trkpt lat="54.370522" lon="-3.121365"><ele>803</ele><time>2020-06-12T11:30:43Z</time><name>PT6767</name></trkpt>
<trkpt lat="54.370517" lon="-3.121362"><ele>803</ele><time>2020-06-12T11:30:44Z</time><name>PT6768</name></trkpt>
<trkpt lat="54.370507" lon="-3.121356"><ele>803</ele><time>2020-06-12T11:30:45Z</time><name>PT6769</name></trkpt>
<trkpt lat="54.370498" lon="-3.121345"><ele>803</ele><time>2020-06-12T11:30:46Z</time><name>PT6770</name></trkpt>
<trkpt lat="54.370493" lon="-3.121335"><ele>803</ele><time>2020-06-12T11:30:47Z</time><name>PT6771</name></trkpt>
<trkpt lat="54.370489" lon="-3.121324"><ele>802</ele><time>2020-06-12T11:30:48Z</time><name>PT6772</name></trkpt>
<trkpt lat="54.370484" lon="-3.121314"><ele>802</ele><time>2020-06-12T11:30:49Z</time><name>PT6773</name></trkpt>
<trkpt lat="54.370478" lon="-3.121301"><ele>802</ele><time>2020-06-12T11:30:50Z</time><name>PT6774</name></trkpt>
<trkpt lat="54.370473" lon="-3.121291"><ele>802</ele><time>2020-06-12T11:30:51Z</time><name>PT6775</name></trkpt>
<trkpt lat="54.370470" lon="-3.121280"><ele>802</ele><time>2020-06-12T11:30:52Z</time><name>PT6776</name></trkpt>
<trkpt lat="54.370467" lon="-3.121265"><ele>801</ele><time>2020-06-12T11:30:53Z</time><name>PT6777</name></trkpt>
<trkpt lat="54.370465" lon="-3.121253"><ele>801</ele><time>2020-06-12T11:30:54Z</time><name>PT6778</name></trkpt>
<trkpt lat="54.370462" lon="-3.121240"><ele>801</ele><time>2020-06-12T11:30:55Z</time><name>PT6779</name></trkpt>
<trkpt lat="54.370457" lon="-3.121236"><ele>800</ele><time>2020-06-12T11:30:56Z</time><name>PT6780</name></trkpt>
<trkpt lat="54.370452" lon="-3.121223"><ele>800</ele><time>2020-06-12T11:30:57Z</time><name>PT6781</name></trkpt>
<trkpt lat="54.370445" lon="-3.121209"><ele>800</ele><time>2020-06-12T11:30:58Z</time><name>PT6782</name></trkpt>
<trkpt lat="54.370439" lon="-3.121194"><ele>800</ele><time>2020-06-12T11:30:59Z</time><name>PT6783</name></trkpt>
<trkpt lat="54.370435" lon="-3.121179"><ele>800</ele><time>2020-06-12T11:31:00Z</time><name>PT6784</name></trkpt>
<trkpt lat="54.370432" lon="-3.121161"><ele>800</ele><time>2020-06-12T11:31:01Z</time><name>PT6785</name></trkpt>
<trkpt lat="54.370431" lon="-3.121142"><ele>800</ele><time>2020-06-12T11:31:02Z</time><name>PT6786</name></trkpt>
<trkpt lat="54.370427" lon="-3.121122"><ele>800</ele><time>2020-06-12T11:31:03Z</time><name>PT6787</name></trkpt>
<trkpt lat="54.370423" lon="-3.121108"><ele>799</ele><time>2020-06-12T11:31:04Z</time><name>PT6788</name></trkpt>
<trkpt lat="54.370420" lon="-3.121089"><ele>800</ele><time>2020-06-12T11:31:05Z</time><name>PT6789</name></trkpt>
<trkpt lat="54.370418" lon="-3.121070"><ele>800</ele><time>2020-06-12T11:31:06Z</time><name>PT6790</name></trkpt>
<trkpt lat="54.370415" lon="-3.121057"><ele>799</ele><time>2020-06-12T11:31:07Z</time><name>PT6791</name></trkpt>
<trkpt lat="54.370412" lon="-3.121039"><ele>800</ele><time>2020-06-12T11:31:08Z</time><name>PT6792</name></trkpt>
<trkpt lat="54.370407" lon="-3.121025"><ele>800</ele><time>2020-06-12T11:31:09Z</time><name>PT6793</name></trkpt>
<trkpt lat="54.370404" lon="-3.121010"><ele>800</ele><time>2020-06-12T11:31:10Z</time><name>PT6794</name></trkpt>
<trkpt lat="54.370399" lon="-3.120998"><ele>800</ele><time>2020-06-12T11:31:11Z</time><name>PT6795</name></trkpt>
<trkpt lat="54.370395" lon="-3.120982"><ele>800</ele><time>2020-06-12T11:31:12Z</time><name>PT6796</name></trkpt>
<trkpt lat="54.370392" lon="-3.120974"><ele>800</ele><time>2020-06-12T11:31:13Z</time><name>PT6797</name></trkpt>
<trkpt lat="54.370387" lon="-3.120966"><ele>800</ele><time>2020-06-12T11:31:14Z</time><name>PT6798</name></trkpt>
<trkpt lat="54.370380" lon="-3.120953"><ele>800</ele><time>2020-06-12T11:31:15Z</time><name>PT6799</name></trkpt>
<trkpt lat="54.370376" lon="-3.120941"><ele>800</ele><time>2020-06-12T11:31:16Z</time><name>PT6800</name></trkpt>
<trkpt lat="54.370372" lon="-3.120929"><ele>800</ele><time>2020-06-12T11:31:17Z</time><name>PT6801</name></trkpt>
<trkpt lat="54.370375" lon="-3.120919"><ele>800</ele><time>2020-06-12T11:31:18Z</time><name>PT6802</name></trkpt>
<trkpt lat="54.370374" lon="-3.120906"><ele>799</ele><time>2020-06-12T11:31:19Z</time><name>PT6803</name></trkpt>
<trkpt lat="54.370373" lon="-3.120897"><ele>800</ele><time>2020-06-12T11:31:20Z</time><name>PT6804</name></trkpt>
<trkpt lat="54.370373" lon="-3.120887"><ele>799</ele><time>2020-06-12T11:31:21Z</time><name>PT6805</name></trkpt>
<trkpt lat="54.370372" lon="-3.120873"><ele>799</ele><time>2020-06-12T11:31:22Z</time><name>PT6806</name></trkpt>
<trkpt lat="54.370371" lon="-3.120855"><ele>799</ele><time>2020-06-12T11:31:23Z</time><name>PT6807</name></trkpt>
<trkpt lat="54.370370" lon="-3.120839"><ele>798</ele><time>2020-06-12T11:31:24Z</time><name>PT6808</name></trkpt>
<trkpt lat="54.370366" lon="-3.120825"><ele>798</ele><time>2020-06-12T11:31:25Z</time><name>PT6809</name></trkpt>
<trkpt lat="54.370361" lon="-3.120810"><ele>798</ele><time>2020-06-12T11:31:26Z</time><name>PT6810</name></trkpt>
<trkpt lat="54.370360" lon="-3.120798"><ele>798</ele><time>2020-06-12T11:31:27Z</time><name>PT6811</name></trkpt>
<trkpt lat="54.370361" lon="-3.120786"><ele>798</ele><time>2020-06-12T11:31:28Z</time><name>PT6812</name></trkpt>
<trkpt lat="54.370363" lon="-3.120775"><ele>798</ele><time>2020-06-12T11:31:29Z</time><name>PT6813</name></trkpt>
<trkpt lat="54.370362" lon="-3.120765"><ele>798</ele><time>2020-06-12T11:31:30Z</time><name>PT6814</name></trkpt>
<trkpt lat="54.370366" lon="-3.120753"><ele>798</ele><time>2020-06-12T11:31:31Z</time><name>PT6815</name></trkpt>
<trkpt lat="54.370370" lon="-3.120742"><ele>797</ele><time>2020-06-12T11:31:32Z</time><name>PT6816</name></trkpt>
<trkpt lat="54.370372" lon="-3.120729"><ele>797</ele><time>2020-06-12T11:31:33Z</time><name>PT6817</name></trkpt>
<trkpt lat="54.370371" lon="-3.120717"><ele>797</ele><time>2020-06-12T11:31:34Z</time><name>PT6818</name></trkpt>
<trkpt lat="54.370370" lon="-3.120702"><ele>797</ele><time>2020-06-12T11:31:35Z</time><name>PT6819</name></trkpt>
<trkpt lat="54.370369" lon="-3.120685"><ele>797</ele><time>2020-06-12T11:31:36Z</time><name>PT6820</name></trkpt>
<trkpt lat="54.370368" lon="-3.120669"><ele>797</ele><time>2020-06-12T11:31:37Z</time><name>PT6821</name></trkpt>
<trkpt lat="54.370366" lon="-3.120660"><ele>796</ele><time>2020-06-12T11:31:38Z</time><name>PT6822</name></trkpt>
<trkpt lat="54.370363" lon="-3.120654"><ele>797</ele><time>2020-06-12T11:31:39Z</time><name>PT6823</name></trkpt>
<trkpt lat="54.370361" lon="-3.120663"><ele>796</ele><time>2020-06-12T11:31:40Z</time><name>PT6824</name></trkpt>
<trkpt lat="54.370361" lon="-3.120663"><ele>796</ele><time>2020-06-12T11:31:41Z</time><name>PT6825</name></trkpt>
<trkpt lat="54.370360" lon="-3.120666"><ele>796</ele><time>2020-06-12T11:31:49Z</time><name>PT6826</name></trkpt>
<trkpt lat="54.370357" lon="-3.120652"><ele>796</ele><time>2020-06-12T11:31:50Z</time><name>PT6827</name></trkpt>
<trkpt lat="54.370356" lon="-3.120635"><ele>795</ele><time>2020-06-12T11:31:51Z</time><name>PT6828</name></trkpt>
<trkpt lat="54.370353" lon="-3.120618"><ele>795</ele><time>2020-06-12T11:31:52Z</time><name>PT6829</name></trkpt>
<trkpt lat="54.370347" lon="-3.120609"><ele>795</ele><time>2020-06-12T11:31:53Z</time><name>PT6830</name></trkpt>
<trkpt lat="54.370342" lon="-3.120598"><ele>796</ele><time>2020-06-12T11:31:54Z</time><name>PT6831</name></trkpt>
<trkpt lat="54.370339" lon="-3.120594"><ele>796</ele><time>2020-06-12T11:31:55Z</time><name>PT6832</name></trkpt>
<trkpt lat="54.370334" lon="-3.120592"><ele>796</ele><time>2020-06-12T11:31:56Z</time><name>PT6833</name></trkpt>
<trkpt lat="54.370333" lon="-3.120576"><ele>796</ele><time>2020-06-12T11:31:57Z</time><name>PT6834</name></trkpt>
<trkpt lat="54.370328" lon="-3.120564"><ele>796</ele><time>2020-06-12T11:31:58Z</time><name>PT6835</name></trkpt>
<trkpt lat="54.370321" lon="-3.120552"><ele>796</ele><time>2020-06-12T11:31:59Z</time><name>PT6836</name></trkpt>
<trkpt lat="54.370317" lon="-3.120538"><ele>795</ele><time>2020-06-12T11:32:00Z</time><name>PT6837</name></trkpt>
<trkpt lat="54.370313" lon="-3.120527"><ele>795</ele><time>2020-06-12T11:32:01Z</time><name>PT6838</name></trkpt>
<trkpt lat="54.370309" lon="-3.120511"><ele>796</ele><time>2020-06-12T11:32:02Z</time><name>PT6839</name></trkpt>
<trkpt lat="54.370303" lon="-3.120503"><ele>796</ele><time>2020-06-12T11:32:03Z</time><name>PT6840</name></trkpt>
<trkpt lat="54.370297" lon="-3.120491"><ele>796</ele><time>2020-06-12T11:32:04Z</time><name>PT6841</name></trkpt>
<trkpt lat="54.370291" lon="-3.120483"><ele>796</ele><time>2020-06-12T11:32:05Z</time><name>PT6842</name></trkpt>
<trkpt lat="54.370288" lon="-3.120473"><ele>795</ele><time>2020-06-12T11:32:06Z</time><name>PT6843</name></trkpt>
<trkpt lat="54.370285" lon="-3.120466"><ele>795</ele><time>2020-06-12T11:32:07Z</time><name>PT6844</name></trkpt>
<trkpt lat="54.370282" lon="-3.120459"><ele>795</ele><time>2020-06-12T11:32:08Z</time><name>PT6845</name></trkpt>
<trkpt lat="54.370280" lon="-3.120457"><ele>795</ele><time>2020-06-12T11:32:09Z</time><name>PT6846</name></trkpt>
<trkpt lat="54.370276" lon="-3.120450"><ele>795</ele><time>2020-06-12T11:32:10Z</time><name>PT6847</name></trkpt>
<trkpt lat="54.370270" lon="-3.120445"><ele>795</ele><time>2020-06-12T11:32:11Z</time><name>PT6848</name></trkpt>
<trkpt lat="54.370265" lon="-3.120439"><ele>795</ele><time>2020-06-12T11:32:12Z</time><name>PT6849</name></trkpt>
<trkpt lat="54.370263" lon="-3.120435"><ele>795</ele><time>2020-06-12T11:32:13Z</time><name>PT6850</name></trkpt>
<trkpt lat="54.370261" lon="-3.120432"><ele>795</ele><time>2020-06-12T11:32:14Z</time><name>PT6851</name></trkpt>
<trkpt lat="54.370256" lon="-3.120422"><ele>795</ele><time>2020-06-12T11:32:15Z</time><name>PT6852</name></trkpt>
<trkpt lat="54.370250" lon="-3.120421"><ele>795</ele><time>2020-06-12T11:32:16Z</time><name>PT6853</name></trkpt>
<trkpt lat="54.370245" lon="-3.120412"><ele>794</ele><time>2020-06-12T11:32:17Z</time><name>PT6854</name></trkpt>
<trkpt lat="54.370239" lon="-3.120403"><ele>794</ele><time>2020-06-12T11:32:18Z</time><name>PT6855</name></trkpt>
<trkpt lat="54.370233" lon="-3.120399"><ele>793</ele><time>2020-06-12T11:32:19Z</time><name>PT6856</name></trkpt>
<trkpt lat="54.370227" lon="-3.120394"><ele>793</ele><time>2020-06-12T11:32:20Z</time><name>PT6857</name></trkpt>
<trkpt lat="54.370222" lon="-3.120387"><ele>793</ele><time>2020-06-12T11:32:21Z</time><name>PT6858</name></trkpt>
<trkpt lat="54.370218" lon="-3.120383"><ele>793</ele><time>2020-06-12T11:32:22Z</time><name>PT6859</name></trkpt>
<trkpt lat="54.370213" lon="-3.120377"><ele>793</ele><time>2020-06-12T11:32:23Z</time><name>PT6860</name></trkpt>
<trkpt lat="54.370209" lon="-3.120374"><ele>793</ele><time>2020-06-12T11:32:24Z</time><name>PT6861</name></trkpt>
<trkpt lat="54.370206" lon="-3.120380"><ele>792</ele><time>2020-06-12T11:32:25Z</time><name>PT6862</name></trkpt>
<trkpt lat="54.370200" lon="-3.120381"><ele>792</ele><time>2020-06-12T11:32:26Z</time><name>PT6863</name></trkpt>
<trkpt lat="54.370193" lon="-3.120381"><ele>791</ele><time>2020-06-12T11:32:27Z</time><name>PT6864</name></trkpt>
<trkpt lat="54.370186" lon="-3.120378"><ele>791</ele><time>2020-06-12T11:32:28Z</time><name>PT6865</name></trkpt>
<trkpt lat="54.370181" lon="-3.120370"><ele>791</ele><time>2020-06-12T11:32:29Z</time><name>PT6866</name></trkpt>
<trkpt lat="54.370176" lon="-3.120368"><ele>791</ele><time>2020-06-12T11:32:30Z</time><name>PT6867</name></trkpt>
<trkpt lat="54.370174" lon="-3.120366"><ele>791</ele><time>2020-06-12T11:32:31Z</time><name>PT6868</name></trkpt>
<trkpt lat="54.370171" lon="-3.120364"><ele>790</ele><time>2020-06-12T11:32:32Z</time><name>PT6869</name></trkpt>
<trkpt lat="54.370165" lon="-3.120358"><ele>790</ele><time>2020-06-12T11:32:33Z</time><name>PT6870</name></trkpt>
<trkpt lat="54.370158" lon="-3.120355"><ele>790</ele><time>2020-06-12T11:32:34Z</time><name>PT6871</name></trkpt>
<trkpt lat="54.370154" lon="-3.120351"><ele>790</ele><time>2020-06-12T11:32:35Z</time><name>PT6872</name></trkpt>
<trkpt lat="54.370152" lon="-3.120352"><ele>790</ele><time>2020-06-12T11:32:36Z</time><name>PT6873</name></trkpt>
<trkpt lat="54.370148" lon="-3.120351"><ele>789</ele><time>2020-06-12T11:32:37Z</time><name>PT6874</name></trkpt>
<trkpt lat="54.370144" lon="-3.120348"><ele>789</ele><time>2020-06-12T11:32:38Z</time><name>PT6875</name></trkpt>
<trkpt lat="54.370138" lon="-3.120348"><ele>789</ele><time>2020-06-12T11:32:39Z</time><name>PT6876</name></trkpt>
<trkpt lat="54.370130" lon="-3.120348"><ele>788</ele><time>2020-06-12T11:32:40Z</time><name>PT6877</name></trkpt>
<trkpt lat="54.370126" lon="-3.120342"><ele>788</ele><time>2020-06-12T11:32:41Z</time><name>PT6878</name></trkpt>
<trkpt lat="54.370124" lon="-3.120329"><ele>788</ele><time>2020-06-12T11:32:42Z</time><name>PT6879</name></trkpt>
<trkpt lat="54.370124" lon="-3.120316"><ele>788</ele><time>2020-06-12T11:32:43Z</time><name>PT6880</name></trkpt>
<trkpt lat="54.370124" lon="-3.120303"><ele>788</ele><time>2020-06-12T11:32:44Z</time><name>PT6881</name></trkpt>
<trkpt lat="54.370122" lon="-3.120293"><ele>787</ele><time>2020-06-12T11:32:45Z</time><name>PT6882</name></trkpt>
<trkpt lat="54.370119" lon="-3.120287"><ele>787</ele><time>2020-06-12T11:32:46Z</time><name>PT6883</name></trkpt>
<trkpt lat="54.370116" lon="-3.120277"><ele>787</ele><time>2020-06-12T11:32:47Z</time><name>PT6884</name></trkpt>
<trkpt lat="54.370113" lon="-3.120266"><ele>787</ele><time>2020-06-12T11:32:48Z</time><name>PT6885</name></trkpt>
<trkpt lat="54.370108" lon="-3.120254"><ele>787</ele><time>2020-06-12T11:32:49Z</time><name>PT6886</name></trkpt>
<trkpt lat="54.370102" lon="-3.120241"><ele>787</ele><time>2020-06-12T11:32:50Z</time><name>PT6887</name></trkpt>
<trkpt lat="54.370098" lon="-3.120230"><ele>787</ele><time>2020-06-12T11:32:51Z</time><name>PT6888</name></trkpt>
<trkpt lat="54.370096" lon="-3.120215"><ele>787</ele><time>2020-06-12T11:32:52Z</time><name>PT6889</name></trkpt>
<trkpt lat="54.370093" lon="-3.120198"><ele>786</ele><time>2020-06-12T11:32:53Z</time><name>PT6890</name></trkpt>
<trkpt lat="54.370092" lon="-3.120181"><ele>786</ele><time>2020-06-12T11:32:54Z</time><name>PT6891</name></trkpt>
<trkpt lat="54.370095" lon="-3.120166"><ele>786</ele><time>2020-06-12T11:32:55Z</time><name>PT6892</name></trkpt>
<trkpt lat="54.370093" lon="-3.120155"><ele>786</ele><time>2020-06-12T11:32:56Z</time><name>PT6893</name></trkpt>
<trkpt lat="54.370094" lon="-3.120142"><ele>786</ele><time>2020-06-12T11:32:57Z</time><name>PT6894</name></trkpt>
<trkpt lat="54.370095" lon="-3.120128"><ele>786</ele><time>2020-06-12T11:32:58Z</time><name>PT6895</name></trkpt>
<trkpt lat="54.370095" lon="-3.120113"><ele>786</ele><time>2020-06-12T11:32:59Z</time><name>PT6896</name></trkpt>
<trkpt lat="54.370098" lon="-3.120104"><ele>785</ele><time>2020-06-12T11:33:00Z</time><name>PT6897</name></trkpt>
<trkpt lat="54.370100" lon="-3.120093"><ele>785</ele><time>2020-06-12T11:33:01Z</time><name>PT6898</name></trkpt>
<trkpt lat="54.370106" lon="-3.120085"><ele>785</ele><time>2020-06-12T11:33:02Z</time><name>PT6899</name></trkpt>
<trkpt lat="54.370113" lon="-3.120074"><ele>784</ele><time>2020-06-12T11:33:03Z</time><name>PT6900</name></trkpt>
<trkpt lat="54.370120" lon="-3.120064"><ele>784</ele><time>2020-06-12T11:33:04Z</time><name>PT6901</name></trkpt>
<trkpt lat="54.370126" lon="-3.120051"><ele>784</ele><time>2020-06-12T11:33:05Z</time><name>PT6902</name></trkpt>
<trkpt lat="54.370129" lon="-3.120042"><ele>784</ele><time>2020-06-12T11:33:06Z</time><name>PT6903</name></trkpt>
<trkpt lat="54.370131" lon="-3.120035"><ele>784</ele><time>2020-06-12T11:33:07Z</time><name>PT6904</name></trkpt>
<trkpt lat="54.370142" lon="-3.120036"><ele>784</ele><time>2020-06-12T11:33:08Z</time><name>PT6905</name></trkpt>
<trkpt lat="54.370145" lon="-3.120031"><ele>784</ele><time>2020-06-12T11:33:09Z</time><name>PT6906</name></trkpt>
<trkpt lat="54.370148" lon="-3.120023"><ele>783</ele><time>2020-06-12T11:33:10Z</time><name>PT6907</name></trkpt>
<trkpt lat="54.370150" lon="-3.120016"><ele>783</ele><time>2020-06-12T11:33:11Z</time><name>PT6908</name></trkpt>
<trkpt lat="54.370151" lon="-3.120007"><ele>783</ele><time>2020-06-12T11:33:12Z</time><name>PT6909</name></trkpt>
<trkpt lat="54.370154" lon="-3.119999"><ele>784</ele><time>2020-06-12T11:33:13Z</time><name>PT6910</name></trkpt>
<trkpt lat="54.370157" lon="-3.119998"><ele>784</ele><time>2020-06-12T11:33:14Z</time><name>PT6911</name></trkpt>
<trkpt lat="54.370159" lon="-3.119998"><ele>784</ele><time>2020-06-12T11:33:15Z</time><name>PT6912</name></trkpt>
<trkpt lat="54.370154" lon="-3.120003"><ele>784</ele><time>2020-06-12T11:33:17Z</time><name>PT6913</name></trkpt>
<trkpt lat="54.370162" lon="-3.119998"><ele>783</ele><time>2020-06-12T11:33:18Z</time><name>PT6914</name></trkpt>
<trkpt lat="54.370171" lon="-3.119994"><ele>783</ele><time>2020-06-12T11:33:19Z</time><name>PT6915</name></trkpt>
<trkpt lat="54.370179" lon="-3.119994"><ele>783</ele><time>2020-06-12T11:33:20Z</time><name>PT6916</name></trkpt>
<trkpt lat="54.370183" lon="-3.119990"><ele>782</ele><time>2020-06-12T11:33:21Z</time><name>PT6917</name></trkpt>
<trkpt lat="54.370188" lon="-3.119982"><ele>782</ele><time>2020-06-12T11:33:22Z</time><name>PT6918</name></trkpt>
<trkpt lat="54.370195" lon="-3.119976"><ele>782</ele><time>2020-06-12T11:33:23Z</time><name>PT6919</name></trkpt>
<trkpt lat="54.370201" lon="-3.119977"><ele>782</ele><time>2020-06-12T11:33:24Z</time><name>PT6920</name></trkpt>
<trkpt lat="54.370207" lon="-3.119971"><ele>781</ele><time>2020-06-12T11:33:25Z</time><name>PT6921</name></trkpt>
<trkpt lat="54.370212" lon="-3.119962"><ele>781</ele><time>2020-06-12T11:33:26Z</time><name>PT6922</name></trkpt>
<trkpt lat="54.370218" lon="-3.119953"><ele>781</ele><time>2020-06-12T11:33:27Z</time><name>PT6923</name></trkpt>
<trkpt lat="54.370222" lon="-3.119944"><ele>781</ele><time>2020-06-12T11:33:28Z</time><name>PT6924</name></trkpt>
<trkpt lat="54.370226" lon="-3.119937"><ele>781</ele><time>2020-06-12T11:33:29Z</time><name>PT6925</name></trkpt>
<trkpt lat="54.370230" lon="-3.119931"><ele>781</ele><time>2020-06-12T11:33:30Z</time><name>PT6926</name></trkpt>
<trkpt lat="54.370237" lon="-3.119934"><ele>781</ele><time>2020-06-12T11:33:31Z</time><name>PT6927</name></trkpt>
<trkpt lat="54.370244" lon="-3.119943"><ele>781</ele><time>2020-06-12T11:33:32Z</time><name>PT6928</name></trkpt>
<trkpt lat="54.370249" lon="-3.119948"><ele>781</ele><time>2020-06-12T11:33:33Z</time><name>PT6929</name></trkpt>
<trkpt lat="54.370253" lon="-3.119956"><ele>781</ele><time>2020-06-12T11:33:34Z</time><name>PT6930</name></trkpt>
<trkpt lat="54.370255" lon="-3.119960"><ele>781</ele><time>2020-06-12T11:33:35Z</time><name>PT6931</name></trkpt>
<trkpt lat="54.370258" lon="-3.119971"><ele>780</ele><time>2020-06-12T11:33:36Z</time><name>PT6932</name></trkpt>
<trkpt lat="54.370262" lon="-3.119973"><ele>780</ele><time>2020-06-12T11:33:37Z</time><name>PT6933</name></trkpt>
<trkpt lat="54.370265" lon="-3.119968"><ele>780</ele><time>2020-06-12T11:33:38Z</time><name>PT6934</name></trkpt>
<trkpt lat="54.370268" lon="-3.119962"><ele>780</ele><time>2020-06-12T11:33:39Z</time><name>PT6935</name></trkpt>
<trkpt lat="54.370267" lon="-3.119960"><ele>780</ele><time>2020-06-12T11:33:41Z</time><name>PT6936</name></trkpt>
<trkpt lat="54.370268" lon="-3.119957"><ele>780</ele><time>2020-06-12T11:33:42Z</time><name>PT6937</name></trkpt>
<trkpt lat="54.370272" lon="-3.119953"><ele>780</ele><time>2020-06-12T11:33:43Z</time><name>PT6938</name></trkpt>
<trkpt lat="54.370278" lon="-3.119943"><ele>780</ele><time>2020-06-12T11:33:44Z</time><name>PT6939</name></trkpt>
<trkpt lat="54.370278" lon="-3.119931"><ele>780</ele><time>2020-06-12T11:33:45Z</time><name>PT6940</name></trkpt>
<trkpt lat="54.370279" lon="-3.119929"><ele>780</ele><time>2020-06-12T11:33:46Z</time><name>PT6941</name></trkpt>
<trkpt lat="54.370284" lon="-3.119929"><ele>779</ele><time>2020-06-12T11:33:47Z</time><name>PT6942</name></trkpt>
<trkpt lat="54.370287" lon="-3.119930"><ele>780</ele><time>2020-06-12T11:33:48Z</time><name>PT6943</name></trkpt>
<trkpt lat="54.370289" lon="-3.119925"><ele>779</ele><time>2020-06-12T11:33:49Z</time><name>PT6944</name></trkpt>
<trkpt lat="54.370293" lon="-3.119921"><ele>779</ele><time>2020-06-12T11:33:50Z</time><name>PT6945</name></trkpt>
<trkpt lat="54.370297" lon="-3.119920"><ele>779</ele><time>2020-06-12T11:33:51Z</time><name>PT6946</name></trkpt>
<trkpt lat="54.370299" lon="-3.119916"><ele>779</ele><time>2020-06-12T11:33:52Z</time><name>PT6947</name></trkpt>
<trkpt lat="54.370302" lon="-3.119914"><ele>779</ele><time>2020-06-12T11:33:58Z</time><name>PT6948</name></trkpt>
<trkpt lat="54.370308" lon="-3.119918"><ele>779</ele><time>2020-06-12T11:33:59Z</time><name>PT6949</name></trkpt>
<trkpt lat="54.370313" lon="-3.119927"><ele>779</ele><time>2020-06-12T11:34:00Z</time><name>PT6950</name></trkpt>
<trkpt lat="54.370315" lon="-3.119929"><ele>778</ele><time>2020-06-12T11:34:01Z</time><name>PT6951</name></trkpt>
<trkpt lat="54.370318" lon="-3.119930"><ele>778</ele><time>2020-06-12T11:34:02Z</time><name>PT6952</name></trkpt>
<trkpt lat="54.370321" lon="-3.119928"><ele>778</ele><time>2020-06-12T11:34:03Z</time><name>PT6953</name></trkpt>
<trkpt lat="54.370325" lon="-3.119926"><ele>778</ele><time>2020-06-12T11:34:04Z</time><name>PT6954</name></trkpt>
<trkpt lat="54.370328" lon="-3.119922"><ele>778</ele><time>2020-06-12T11:34:05Z</time><name>PT6955</name></trkpt>
<trkpt lat="54.370331" lon="-3.119921"><ele>778</ele><time>2020-06-12T11:34:06Z</time><name>PT6956</name></trkpt>
<trkpt lat="54.370332" lon="-3.119919"><ele>777</ele><time>2020-06-12T11:34:07Z</time><name>PT6957</name></trkpt>
<trkpt lat="54.370334" lon="-3.119916"><ele>777</ele><time>2020-06-12T11:34:08Z</time><name>PT6958</name></trkpt>
<trkpt lat="54.370336" lon="-3.119911"><ele>777</ele><time>2020-06-12T11:34:09Z</time><name>PT6959</name></trkpt>
<trkpt lat="54.370340" lon="-3.119904"><ele>777</ele><time>2020-06-12T11:34:10Z</time><name>PT6960</name></trkpt>
<trkpt lat="54.370344" lon="-3.119896"><ele>777</ele><time>2020-06-12T11:34:11Z</time><name>PT6961</name></trkpt>
<trkpt lat="54.370344" lon="-3.119894"><ele>777</ele><time>2020-06-12T11:34:12Z</time><name>PT6962</name></trkpt>
<trkpt lat="54.370346" lon="-3.119893"><ele>776</ele><time>2020-06-12T11:34:13Z</time><name>PT6963</name></trkpt>
<trkpt lat="54.370349" lon="-3.119898"><ele>776</ele><time>2020-06-12T11:34:14Z</time><name>PT6964</name></trkpt>
<trkpt lat="54.370352" lon="-3.119899"><ele>777</ele><time>2020-06-12T11:34:15Z</time><name>PT6965</name></trkpt>
<trkpt lat="54.370353" lon="-3.119903"><ele>776</ele><time>2020-06-12T11:34:16Z</time><name>PT6966</name></trkpt>
<trkpt lat="54.370355" lon="-3.119900"><ele>776</ele><time>2020-06-12T11:34:17Z</time><name>PT6967</name></trkpt>
<trkpt lat="54.370355" lon="-3.119897"><ele>776</ele><time>2020-06-12T11:34:18Z</time><name>PT6968</name></trkpt>
<trkpt lat="54.370358" lon="-3.119895"><ele>776</ele><time>2020-06-12T11:34:19Z</time><name>PT6969</name></trkpt>
<trkpt lat="54.370362" lon="-3.119894"><ele>776</ele><time>2020-06-12T11:34:20Z</time><name>PT6970</name></trkpt>
<trkpt lat="54.370364" lon="-3.119892"><ele>776</ele><time>2020-06-12T11:34:21Z</time><name>PT6971</name></trkpt>
<trkpt lat="54.370364" lon="-3.119892"><ele>776</ele><time>2020-06-12T11:34:22Z</time><name>PT6972</name></trkpt>
<trkpt lat="54.370363" lon="-3.119892"><ele>776</ele><time>2020-06-12T11:34:23Z</time><name>PT6973</name></trkpt>
<trkpt lat="54.370371" lon="-3.119887"><ele>776</ele><time>2020-06-12T11:34:31Z</time><name>PT6974</name></trkpt>
<trkpt lat="54.370379" lon="-3.119887"><ele>776</ele><time>2020-06-12T11:34:32Z</time><name>PT6975</name></trkpt>
<trkpt lat="54.370388" lon="-3.119880"><ele>776</ele><time>2020-06-12T11:34:33Z</time><name>PT6976</name></trkpt>
<trkpt lat="54.370391" lon="-3.119883"><ele>775</ele><time>2020-06-12T11:34:35Z</time><name>PT6977</name></trkpt>
<trkpt lat="54.370393" lon="-3.119867"><ele>774</ele><time>2020-06-12T11:34:36Z</time><name>PT6978</name></trkpt>
<trkpt lat="54.370397" lon="-3.119858"><ele>774</ele><time>2020-06-12T11:34:37Z</time><name>PT6979</name></trkpt>
<trkpt lat="54.370392" lon="-3.119858"><ele>774</ele><time>2020-06-12T11:34:38Z</time><name>PT6980</name></trkpt>
<trkpt lat="54.370398" lon="-3.119861"><ele>774</ele><time>2020-06-12T11:34:42Z</time><name>PT6981</name></trkpt>
<trkpt lat="54.370405" lon="-3.119859"><ele>775</ele><time>2020-06-12T11:34:43Z</time><name>PT6982</name></trkpt>
<trkpt lat="54.370404" lon="-3.119858"><ele>775</ele><time>2020-06-12T11:34:44Z</time><name>PT6983</name></trkpt>
<trkpt lat="54.370408" lon="-3.119856"><ele>775</ele><time>2020-06-12T11:34:45Z</time><name>PT6984</name></trkpt>
<trkpt lat="54.370408" lon="-3.119846"><ele>775</ele><time>2020-06-12T11:34:50Z</time><name>PT6985</name></trkpt>
<trkpt lat="54.370412" lon="-3.119848"><ele>775</ele><time>2020-06-12T11:34:51Z</time><name>PT6986</name></trkpt>
<trkpt lat="54.370417" lon="-3.119843"><ele>774</ele><time>2020-06-12T11:34:52Z</time><name>PT6987</name></trkpt>
<trkpt lat="54.370423" lon="-3.119838"><ele>774</ele><time>2020-06-12T11:34:53Z</time><name>PT6988</name></trkpt>
<trkpt lat="54.370427" lon="-3.119835"><ele>774</ele><time>2020-06-12T11:34:54Z</time><name>PT6989</name></trkpt>
<trkpt lat="54.370429" lon="-3.119835"><ele>773</ele><time>2020-06-12T11:34:59Z</time><name>PT6990</name></trkpt>
<trkpt lat="54.370431" lon="-3.119828"><ele>773</ele><time>2020-06-12T11:35:00Z</time><name>PT6991</name></trkpt>
<trkpt lat="54.370434" lon="-3.119816"><ele>772</ele><time>2020-06-12T11:35:03Z</time><name>PT6992</name></trkpt>
<trkpt lat="54.370438" lon="-3.119810"><ele>772</ele><time>2020-06-12T11:35:04Z</time><name>PT6993</name></trkpt>
<trkpt lat="54.370441" lon="-3.119797"><ele>772</ele><time>2020-06-12T11:35:05Z</time><name>PT6994</name></trkpt>
<trkpt lat="54.370446" lon="-3.119785"><ele>772</ele><time>2020-06-12T11:35:06Z</time><name>PT6995</name></trkpt>
<trkpt lat="54.370443" lon="-3.119783"><ele>772</ele><time>2020-06-12T11:35:08Z</time><name>PT6996</name></trkpt>
<trkpt lat="54.370446" lon="-3.119779"><ele>772</ele><time>2020-06-12T11:35:09Z</time><name>PT6997</name></trkpt>
<trkpt lat="54.370453" lon="-3.119778"><ele>772</ele><time>2020-06-12T11:35:10Z</time><name>PT6998</name></trkpt>
<trkpt lat="54.370455" lon="-3.119777"><ele>771</ele><time>2020-06-12T11:35:11Z</time><name>PT6999</name></trkpt>
<trkpt lat="54.370458" lon="-3.119785"><ele>771</ele><time>2020-06-12T11:35:12Z</time><name>PT7000</name></trkpt>
<trkpt lat="54.370459" lon="-3.119786"><ele>771</ele><time>2020-06-12T11:35:13Z</time><name>PT7001</name></trkpt>
<trkpt lat="54.370460" lon="-3.119787"><ele>771</ele><time>2020-06-12T11:35:14Z</time><name>PT7002</name></trkpt>
<trkpt lat="54.370461" lon="-3.119787"><ele>771</ele><time>2020-06-12T11:35:15Z</time><name>PT7003</name></trkpt>
<trkpt lat="54.370462" lon="-3.119782"><ele>771</ele><time>2020-06-12T11:35:16Z</time><name>PT7004</name></trkpt>
<trkpt lat="54.370467" lon="-3.119791"><ele>771</ele><time>2020-06-12T11:35:17Z</time><name>PT7005</name></trkpt>
<trkpt lat="54.370469" lon="-3.119791"><ele>771</ele><time>2020-06-12T11:35:18Z</time><name>PT7006</name></trkpt>
<trkpt lat="54.370471" lon="-3.119792"><ele>771</ele><time>2020-06-12T11:35:19Z</time><name>PT7007</name></trkpt>
<trkpt lat="54.370472" lon="-3.119791"><ele>771</ele><time>2020-06-12T11:35:20Z</time><name>PT7008</name></trkpt>
<trkpt lat="54.370473" lon="-3.119791"><ele>771</ele><time>2020-06-12T11:35:21Z</time><name>PT7009</name></trkpt>
<trkpt lat="54.370484" lon="-3.119790"><ele>770</ele><time>2020-06-12T11:36:00Z</time><name>PT7010</name></trkpt>
<trkpt lat="54.370487" lon="-3.119785"><ele>770</ele><time>2020-06-12T11:36:01Z</time><name>PT7011</name></trkpt>
<trkpt lat="54.370490" lon="-3.119775"><ele>769</ele><time>2020-06-12T11:36:12Z</time><name>PT7012</name></trkpt>
<trkpt lat="54.370490" lon="-3.119770"><ele>769</ele><time>2020-06-12T11:36:13Z</time><name>PT7013</name></trkpt>
<trkpt lat="54.370491" lon="-3.119762"><ele>769</ele><time>2020-06-12T11:36:14Z</time><name>PT7014</name></trkpt>
<trkpt lat="54.370489" lon="-3.119757"><ele>769</ele><time>2020-06-12T11:36:15Z</time><name>PT7015</name></trkpt>
<trkpt lat="54.370491" lon="-3.119746"><ele>768</ele><time>2020-06-12T11:36:23Z</time><name>PT7016</name></trkpt>
<trkpt lat="54.370502" lon="-3.119708"><ele>767</ele><time>2020-06-12T11:36:23Z</time><name>PT7017</name></trkpt>
<trkpt lat="54.370502" lon="-3.119690"><ele>766</ele><time>2020-06-12T11:36:24Z</time><name>PT7018</name></trkpt>
<trkpt lat="54.370506" lon="-3.119675"><ele>766</ele><time>2020-06-12T11:36:25Z</time><name>PT7019</name></trkpt>
<trkpt lat="54.370509" lon="-3.119662"><ele>765</ele><time>2020-06-12T11:36:26Z</time><name>PT7020</name></trkpt>
<trkpt lat="54.370512" lon="-3.119654"><ele>765</ele><time>2020-06-12T11:36:27Z</time><name>PT7021</name></trkpt>
<trkpt lat="54.370518" lon="-3.119635"><ele>765</ele><time>2020-06-12T11:36:28Z</time><name>PT7022</name></trkpt>
<trkpt lat="54.370518" lon="-3.119623"><ele>764</ele><time>2020-06-12T11:36:29Z</time><name>PT7023</name></trkpt>
<trkpt lat="54.370517" lon="-3.119608"><ele>764</ele><time>2020-06-12T11:36:30Z</time><name>PT7024</name></trkpt>
<trkpt lat="54.370516" lon="-3.119596"><ele>764</ele><time>2020-06-12T11:36:31Z</time><name>PT7025</name></trkpt>
<trkpt lat="54.370514" lon="-3.119576"><ele>764</ele><time>2020-06-12T11:36:32Z</time><name>PT7026</name></trkpt>
<trkpt lat="54.370509" lon="-3.119563"><ele>764</ele><time>2020-06-12T11:36:33Z</time><name>PT7027</name></trkpt>
<trkpt lat="54.370505" lon="-3.119553"><ele>764</ele><time>2020-06-12T11:36:34Z</time><name>PT7028</name></trkpt>
<trkpt lat="54.370502" lon="-3.119539"><ele>763</ele><time>2020-06-12T11:36:35Z</time><name>PT7029</name></trkpt>
<trkpt lat="54.370500" lon="-3.119524"><ele>763</ele><time>2020-06-12T11:36:36Z</time><name>PT7030</name></trkpt>
<trkpt lat="54.370501" lon="-3.119512"><ele>763</ele><time>2020-06-12T11:36:37Z</time><name>PT7031</name></trkpt>
<trkpt lat="54.370501" lon="-3.119509"><ele>762</ele><time>2020-06-12T11:36:38Z</time><name>PT7032</name></trkpt>
<trkpt lat="54.370505" lon="-3.119508"><ele>762</ele><time>2020-06-12T11:36:39Z</time><name>PT7033</name></trkpt>
<trkpt lat="54.370507" lon="-3.119507"><ele>762</ele><time>2020-06-12T11:36:40Z</time><name>PT7034</name></trkpt>
<trkpt lat="54.370511" lon="-3.119513"><ele>762</ele><time>2020-06-12T11:36:46Z</time><name>PT7035</name></trkpt>
<trkpt lat="54.370517" lon="-3.119520"><ele>761</ele><time>2020-06-12T11:36:47Z</time><name>PT7036</name></trkpt>
<trkpt lat="54.370521" lon="-3.119530"><ele>761</ele><time>2020-06-12T11:36:48Z</time><name>PT7037</name></trkpt>
<trkpt lat="54.370524" lon="-3.119534"><ele>760</ele><time>2020-06-12T11:36:49Z</time><name>PT7038</name></trkpt>
<trkpt lat="54.370532" lon="-3.119537"><ele>760</ele><time>2020-06-12T11:36:50Z</time><name>PT7039</name></trkpt>
<trkpt lat="54.370538" lon="-3.119534"><ele>760</ele><time>2020-06-12T11:36:51Z</time><name>PT7040</name></trkpt>
<trkpt lat="54.370541" lon="-3.119531"><ele>760</ele><time>2020-06-12T11:36:52Z</time><name>PT7041</name></trkpt>
<trkpt lat="54.370545" lon="-3.119526"><ele>759</ele><time>2020-06-12T11:36:53Z</time><name>PT7042</name></trkpt>
<trkpt lat="54.370547" lon="-3.119520"><ele>759</ele><time>2020-06-12T11:37:04Z</time><name>PT7043</name></trkpt>
<trkpt lat="54.370547" lon="-3.119505"><ele>758</ele><time>2020-06-12T11:37:05Z</time><name>PT7044</name></trkpt>
<trkpt lat="54.370545" lon="-3.119493"><ele>758</ele><time>2020-06-12T11:37:06Z</time><name>PT7045</name></trkpt>
<trkpt lat="54.370544" lon="-3.119480"><ele>757</ele><time>2020-06-12T11:37:07Z</time><name>PT7046</name></trkpt>
<trkpt lat="54.370542" lon="-3.119474"><ele>757</ele><time>2020-06-12T11:37:08Z</time><name>PT7047</name></trkpt>
<trkpt lat="54.370540" lon="-3.119471"><ele>757</ele><time>2020-06-12T11:37:09Z</time><name>PT7048</name></trkpt>
<trkpt lat="54.370540" lon="-3.119470"><ele>757</ele><time>2020-06-12T11:37:10Z</time><name>PT7049</name></trkpt>
<trkpt lat="54.370550" lon="-3.119450"><ele>756</ele><time>2020-06-12T11:37:11Z</time><name>PT7050</name></trkpt>
<trkpt lat="54.370546" lon="-3.119436"><ele>755</ele><time>2020-06-12T11:37:12Z</time><name>PT7051</name></trkpt>
<trkpt lat="54.370546" lon="-3.119431"><ele>755</ele><time>2020-06-12T11:37:13Z</time><name>PT7052</name></trkpt>
<trkpt lat="54.370552" lon="-3.119440"><ele>755</ele><time>2020-06-12T11:37:14Z</time><name>PT7053</name></trkpt>
<trkpt lat="54.370560" lon="-3.119438"><ele>755</ele><time>2020-06-12T11:37:15Z</time><name>PT7054</name></trkpt>
<trkpt lat="54.370566" lon="-3.119438"><ele>755</ele><time>2020-06-12T11:37:16Z</time><name>PT7055</name></trkpt>
<trkpt lat="54.370569" lon="-3.119435"><ele>755</ele><time>2020-06-12T11:37:17Z</time><name>PT7056</name></trkpt>
<trkpt lat="54.370570" lon="-3.119437"><ele>754</ele><time>2020-06-12T11:37:18Z</time><name>PT7057</name></trkpt>
<trkpt lat="54.370575" lon="-3.119444"><ele>754</ele><time>2020-06-12T11:37:19Z</time><name>PT7058</name></trkpt>
<trkpt lat="54.370575" lon="-3.119446"><ele>754</ele><time>2020-06-12T11:37:20Z</time><name>PT7059</name></trkpt>
<trkpt lat="54.370576" lon="-3.119445"><ele>754</ele><time>2020-06-12T11:37:21Z</time><name>PT7060</name></trkpt>
<trkpt lat="54.370579" lon="-3.119446"><ele>754</ele><time>2020-06-12T11:37:22Z</time><name>PT7061</name></trkpt>
<trkpt lat="54.370582" lon="-3.119445"><ele>754</ele><time>2020-06-12T11:37:23Z</time><name>PT7062</name></trkpt>
<trkpt lat="54.370584" lon="-3.119447"><ele>754</ele><time>2020-06-12T11:37:24Z</time><name>PT7063</name></trkpt>
<trkpt lat="54.370584" lon="-3.119448"><ele>754</ele><time>2020-06-12T11:37:25Z</time><name>PT7064</name></trkpt>
<trkpt lat="54.370585" lon="-3.119448"><ele>754</ele><time>2020-06-12T11:37:26Z</time><name>PT7065</name></trkpt>
<trkpt lat="54.370588" lon="-3.119447"><ele>754</ele><time>2020-06-12T11:37:27Z</time><name>PT7066</name></trkpt>
<trkpt lat="54.370590" lon="-3.119445"><ele>754</ele><time>2020-06-12T11:37:28Z</time><name>PT7067</name></trkpt>
<trkpt lat="54.370592" lon="-3.119441"><ele>753</ele><time>2020-06-12T11:37:29Z</time><name>PT7068</name></trkpt>
<trkpt lat="54.370595" lon="-3.119437"><ele>753</ele><time>2020-06-12T11:37:30Z</time><name>PT7069</name></trkpt>
<trkpt lat="54.370598" lon="-3.119438"><ele>753</ele><time>2020-06-12T11:37:31Z</time><name>PT7070</name></trkpt>
<trkpt lat="54.370602" lon="-3.119440"><ele>753</ele><time>2020-06-12T11:37:32Z</time><name>PT7071</name></trkpt>
<trkpt lat="54.370605" lon="-3.119443"><ele>753</ele><time>2020-06-12T11:37:33Z</time><name>PT7072</name></trkpt>
<trkpt lat="54.370610" lon="-3.119447"><ele>753</ele><time>2020-06-12T11:37:34Z</time><name>PT7073</name></trkpt>
<trkpt lat="54.370614" lon="-3.119449"><ele>753</ele><time>2020-06-12T11:37:35Z</time><name>PT7074</name></trkpt>
<trkpt lat="54.370616" lon="-3.119449"><ele>753</ele><time>2020-06-12T11:37:36Z</time><name>PT7075</name></trkpt>
<trkpt lat="54.370620" lon="-3.119452"><ele>753</ele><time>2020-06-12T11:37:37Z</time><name>PT7076</name></trkpt>
<trkpt lat="54.370623" lon="-3.119455"><ele>753</ele><time>2020-06-12T11:37:38Z</time><name>PT7077</name></trkpt>
<trkpt lat="54.370625" lon="-3.119453"><ele>753</ele><time>2020-06-12T11:37:39Z</time><name>PT7078</name></trkpt>
<trkpt lat="54.370627" lon="-3.119450"><ele>753</ele><time>2020-06-12T11:37:40Z</time><name>PT7079</name></trkpt>
<trkpt lat="54.370630" lon="-3.119445"><ele>752</ele><time>2020-06-12T11:37:41Z</time><name>PT7080</name></trkpt>
<trkpt lat="54.370633" lon="-3.119442"><ele>752</ele><time>2020-06-12T11:37:42Z</time><name>PT7081</name></trkpt>
<trkpt lat="54.370635" lon="-3.119438"><ele>752</ele><time>2020-06-12T11:37:43Z</time><name>PT7082</name></trkpt>
<trkpt lat="54.370640" lon="-3.119439"><ele>752</ele><time>2020-06-12T11:37:44Z</time><name>PT7083</name></trkpt>
<trkpt lat="54.370643" lon="-3.119438"><ele>752</ele><time>2020-06-12T11:37:45Z</time><name>PT7084</name></trkpt>
<trkpt lat="54.370646" lon="-3.119434"><ele>752</ele><time>2020-06-12T11:37:46Z</time><name>PT7085</name></trkpt>
<trkpt lat="54.370644" lon="-3.119429"><ele>752</ele><time>2020-06-12T11:37:47Z</time><name>PT7086</name></trkpt>
<trkpt lat="54.370646" lon="-3.119422"><ele>751</ele><time>2020-06-12T11:37:48Z</time><name>PT7087</name></trkpt>
<trkpt lat="54.370648" lon="-3.119416"><ele>751</ele><time>2020-06-12T11:37:49Z</time><name>PT7088</name></trkpt>
<trkpt lat="54.370650" lon="-3.119408"><ele>751</ele><time>2020-06-12T11:37:50Z</time><name>PT7089</name></trkpt>
<trkpt lat="54.370654" lon="-3.119400"><ele>751</ele><time>2020-06-12T11:37:51Z</time><name>PT7090</name></trkpt>
<trkpt lat="54.370655" lon="-3.119396"><ele>751</ele><time>2020-06-12T11:37:52Z</time><name>PT7091</name></trkpt>
<trkpt lat="54.370657" lon="-3.119392"><ele>751</ele><time>2020-06-12T11:37:53Z</time><name>PT7092</name></trkpt>
<trkpt lat="54.370658" lon="-3.119384"><ele>751</ele><time>2020-06-12T11:37:54Z</time><name>PT7093</name></trkpt>
<trkpt lat="54.370658" lon="-3.119388"><ele>751</ele><time>2020-06-12T11:37:55Z</time><name>PT7094</name></trkpt>
<trkpt lat="54.370659" lon="-3.119386"><ele>750</ele><time>2020-06-12T11:37:56Z</time><name>PT7095</name></trkpt>
<trkpt lat="54.370663" lon="-3.119383"><ele>750</ele><time>2020-06-12T11:37:57Z</time><name>PT7096</name></trkpt>
<trkpt lat="54.370668" lon="-3.119376"><ele>750</ele><time>2020-06-12T11:37:58Z</time><name>PT7097</name></trkpt>
<trkpt lat="54.370671" lon="-3.119372"><ele>750</ele><time>2020-06-12T11:37:59Z</time><name>PT7098</name></trkpt>
<trkpt lat="54.370672" lon="-3.119379"><ele>750</ele><time>2020-06-12T11:38:00Z</time><name>PT7099</name></trkpt>
<trkpt lat="54.370672" lon="-3.119374"><ele>750</ele><time>2020-06-12T11:38:01Z</time><name>PT7100</name></trkpt>
<trkpt lat="54.370673" lon="-3.119372"><ele>750</ele><time>2020-06-12T11:38:02Z</time><name>PT7101</name></trkpt>
<trkpt lat="54.370675" lon="-3.119368"><ele>750</ele><time>2020-06-12T11:38:03Z</time><name>PT7102</name></trkpt>
<trkpt lat="54.370674" lon="-3.119366"><ele>750</ele><time>2020-06-12T11:38:09Z</time><name>PT7103</name></trkpt>
<trkpt lat="54.370672" lon="-3.119355"><ele>749</ele><time>2020-06-12T11:38:10Z</time><name>PT7104</name></trkpt>
<trkpt lat="54.370672" lon="-3.119346"><ele>749</ele><time>2020-06-12T11:38:11Z</time><name>PT7105</name></trkpt>
<trkpt lat="54.370678" lon="-3.119337"><ele>749</ele><time>2020-06-12T11:38:12Z</time><name>PT7106</name></trkpt>
<trkpt lat="54.370679" lon="-3.119325"><ele>749</ele><time>2020-06-12T11:38:13Z</time><name>PT7107</name></trkpt>
<trkpt lat="54.370681" lon="-3.119312"><ele>748</ele><time>2020-06-12T11:38:14Z</time><name>PT7108</name></trkpt>
<trkpt lat="54.370680" lon="-3.119302"><ele>748</ele><time>2020-06-12T11:38:15Z</time><name>PT7109</name></trkpt>
<trkpt lat="54.370676" lon="-3.119295"><ele>748</ele><time>2020-06-12T11:38:16Z</time><name>PT7110</name></trkpt>
<trkpt lat="54.370673" lon="-3.119290"><ele>748</ele><time>2020-06-12T11:38:17Z</time><name>PT7111</name></trkpt>
<trkpt lat="54.370668" lon="-3.119284"><ele>747</ele><time>2020-06-12T11:38:18Z</time><name>PT7112</name></trkpt>
<trkpt lat="54.370664" lon="-3.119272"><ele>747</ele><time>2020-06-12T11:38:19Z</time><name>PT7113</name></trkpt>
<trkpt lat="54.370663" lon="-3.119260"><ele>747</ele><time>2020-06-12T11:38:20Z</time><name>PT7114</name></trkpt>
<trkpt lat="54.370660" lon="-3.119247"><ele>747</ele><time>2020-06-12T11:38:22Z</time><name>PT7115</name></trkpt>
<trkpt lat="54.370657" lon="-3.119238"><ele>746</ele><time>2020-06-12T11:38:22Z</time><name>PT7116</name></trkpt>
<trkpt lat="54.370657" lon="-3.119226"><ele>746</ele><time>2020-06-12T11:38:23Z</time><name>PT7117</name></trkpt>
<trkpt lat="54.370654" lon="-3.119215"><ele>745</ele><time>2020-06-12T11:38:24Z</time><name>PT7118</name></trkpt>
<trkpt lat="54.370655" lon="-3.119204"><ele>745</ele><time>2020-06-12T11:38:25Z</time><name>PT7119</name></trkpt>
<trkpt lat="54.370656" lon="-3.119195"><ele>744</ele><time>2020-06-12T11:38:26Z</time><name>PT7120</name></trkpt>
<trkpt lat="54.370656" lon="-3.119185"><ele>744</ele><time>2020-06-12T11:38:27Z</time><name>PT7121</name></trkpt>
<trkpt lat="54.370655" lon="-3.119172"><ele>744</ele><time>2020-06-12T11:38:28Z</time><name>PT7122</name></trkpt>
<trkpt lat="54.370656" lon="-3.119160"><ele>743</ele><time>2020-06-12T11:38:29Z</time><name>PT7123</name></trkpt>
<trkpt lat="54.370656" lon="-3.119152"><ele>743</ele><time>2020-06-12T11:38:30Z</time><name>PT7124</name></trkpt>
<trkpt lat="54.370654" lon="-3.119146"><ele>743</ele><time>2020-06-12T11:38:31Z</time><name>PT7125</name></trkpt>
<trkpt lat="54.370653" lon="-3.119140"><ele>743</ele><time>2020-06-12T11:38:32Z</time><name>PT7126</name></trkpt>
<trkpt lat="54.370652" lon="-3.119149"><ele>743</ele><time>2020-06-12T11:38:38Z</time><name>PT7127</name></trkpt>
<trkpt lat="54.370651" lon="-3.119146"><ele>744</ele><time>2020-06-12T11:38:39Z</time><name>PT7128</name></trkpt>
<trkpt lat="54.370654" lon="-3.119138"><ele>743</ele><time>2020-06-12T11:38:40Z</time><name>PT7129</name></trkpt>
<trkpt lat="54.370656" lon="-3.119136"><ele>743</ele><time>2020-06-12T11:38:41Z</time><name>PT7130</name></trkpt>
<trkpt lat="54.370662" lon="-3.119125"><ele>743</ele><time>2020-06-12T11:38:42Z</time><name>PT7131</name></trkpt>
<trkpt lat="54.370669" lon="-3.119116"><ele>743</ele><time>2020-06-12T11:38:43Z</time><name>PT7132</name></trkpt>
<trkpt lat="54.370672" lon="-3.119108"><ele>743</ele><time>2020-06-12T11:38:44Z</time><name>PT7133</name></trkpt>
<trkpt lat="54.370674" lon="-3.119098"><ele>742</ele><time>2020-06-12T11:38:45Z</time><name>PT7134</name></trkpt>
<trkpt lat="54.370678" lon="-3.119098"><ele>742</ele><time>2020-06-12T11:38:46Z</time><name>PT7135</name></trkpt>
<trkpt lat="54.370679" lon="-3.119096"><ele>742</ele><time>2020-06-12T11:38:47Z</time><name>PT7136</name></trkpt>
<trkpt lat="54.370681" lon="-3.119094"><ele>741</ele><time>2020-06-12T11:38:48Z</time><name>PT7137</name></trkpt>
<trkpt lat="54.370685" lon="-3.119094"><ele>741</ele><time>2020-06-12T11:38:49Z</time><name>PT7138</name></trkpt>
<trkpt lat="54.370687" lon="-3.119093"><ele>741</ele><time>2020-06-12T11:38:50Z</time><name>PT7139</name></trkpt>
<trkpt lat="54.370690" lon="-3.119090"><ele>741</ele><time>2020-06-12T11:38:51Z</time><name>PT7140</name></trkpt>
<trkpt lat="54.370693" lon="-3.119088"><ele>740</ele><time>2020-06-12T11:38:52Z</time><name>PT7141</name></trkpt>
<trkpt lat="54.370697" lon="-3.119081"><ele>740</ele><time>2020-06-12T11:38:53Z</time><name>PT7142</name></trkpt>
<trkpt lat="54.370700" lon="-3.119076"><ele>740</ele><time>2020-06-12T11:38:54Z</time><name>PT7143</name></trkpt>
<trkpt lat="54.370704" lon="-3.119075"><ele>740</ele><time>2020-06-12T11:38:55Z</time><name>PT7144</name></trkpt>
<trkpt lat="54.370706" lon="-3.119070"><ele>739</ele><time>2020-06-12T11:38:56Z</time><name>PT7145</name></trkpt>
<trkpt lat="54.370711" lon="-3.119065"><ele>739</ele><time>2020-06-12T11:38:57Z</time><name>PT7146</name></trkpt>
<trkpt lat="54.370710" lon="-3.119050"><ele>739</ele><time>2020-06-12T11:38:59Z</time><name>PT7147</name></trkpt>
<trkpt lat="54.370716" lon="-3.119050"><ele>739</ele><time>2020-06-12T11:38:59Z</time><name>PT7148</name></trkpt>
<trkpt lat="54.370721" lon="-3.119052"><ele>739</ele><time>2020-06-12T11:39:00Z</time><name>PT7149</name></trkpt>
<trkpt lat="54.370725" lon="-3.119051"><ele>739</ele><time>2020-06-12T11:39:01Z</time><name>PT7150</name></trkpt>
<trkpt lat="54.370732" lon="-3.119043"><ele>738</ele><time>2020-06-12T11:39:02Z</time><name>PT7151</name></trkpt>
<trkpt lat="54.370734" lon="-3.119032"><ele>738</ele><time>2020-06-12T11:39:03Z</time><name>PT7152</name></trkpt>
<trkpt lat="54.370737" lon="-3.119022"><ele>738</ele><time>2020-06-12T11:39:04Z</time><name>PT7153</name></trkpt>
<trkpt lat="54.370737" lon="-3.119006"><ele>738</ele><time>2020-06-12T11:39:05Z</time><name>PT7154</name></trkpt>
<trkpt lat="54.370737" lon="-3.118996"><ele>738</ele><time>2020-06-12T11:39:06Z</time><name>PT7155</name></trkpt>
<trkpt lat="54.370738" lon="-3.118987"><ele>738</ele><time>2020-06-12T11:39:07Z</time><name>PT7156</name></trkpt>
<trkpt lat="54.370740" lon="-3.118976"><ele>737</ele><time>2020-06-12T11:39:08Z</time><name>PT7157</name></trkpt>
<trkpt lat="54.370740" lon="-3.118964"><ele>737</ele><time>2020-06-12T11:39:09Z</time><name>PT7158</name></trkpt>
<trkpt lat="54.370742" lon="-3.118955"><ele>736</ele><time>2020-06-12T11:39:10Z</time><name>PT7159</name></trkpt>
<trkpt lat="54.370744" lon="-3.118944"><ele>736</ele><time>2020-06-12T11:39:12Z</time><name>PT7160</name></trkpt>
<trkpt lat="54.370749" lon="-3.118927"><ele>736</ele><time>2020-06-12T11:39:12Z</time><name>PT7161</name></trkpt>
<trkpt lat="54.370750" lon="-3.118913"><ele>736</ele><time>2020-06-12T11:39:13Z</time><name>PT7162</name></trkpt>
<trkpt lat="54.370750" lon="-3.118903"><ele>735</ele><time>2020-06-12T11:39:14Z</time><name>PT7163</name></trkpt>
<trkpt lat="54.370749" lon="-3.118894"><ele>735</ele><time>2020-06-12T11:39:15Z</time><name>PT7164</name></trkpt>
<trkpt lat="54.370747" lon="-3.118887"><ele>736</ele><time>2020-06-12T11:39:16Z</time><name>PT7165</name></trkpt>
<trkpt lat="54.370742" lon="-3.118882"><ele>736</ele><time>2020-06-12T11:39:17Z</time><name>PT7166</name></trkpt>
<trkpt lat="54.370737" lon="-3.118875"><ele>735</ele><time>2020-06-12T11:39:18Z</time><name>PT7167</name></trkpt>
<trkpt lat="54.370735" lon="-3.118868"><ele>735</ele><time>2020-06-12T11:39:19Z</time><name>PT7168</name></trkpt>
<trkpt lat="54.370732" lon="-3.118864"><ele>735</ele><time>2020-06-12T11:39:20Z</time><name>PT7169</name></trkpt>
<trkpt lat="54.370731" lon="-3.118855"><ele>735</ele><time>2020-06-12T11:39:21Z</time><name>PT7170</name></trkpt>
<trkpt lat="54.370734" lon="-3.118845"><ele>735</ele><time>2020-06-12T11:39:22Z</time><name>PT7171</name></trkpt>
<trkpt lat="54.370737" lon="-3.118835"><ele>734</ele><time>2020-06-12T11:39:23Z</time><name>PT7172</name></trkpt>
<trkpt lat="54.370744" lon="-3.118830"><ele>734</ele><time>2020-06-12T11:39:24Z</time><name>PT7173</name></trkpt>
<trkpt lat="54.370749" lon="-3.118837"><ele>734</ele><time>2020-06-12T11:39:25Z</time><name>PT7174</name></trkpt>
<trkpt lat="54.370752" lon="-3.118846"><ele>733</ele><time>2020-06-12T11:39:26Z</time><name>PT7175</name></trkpt>
<trkpt lat="54.370755" lon="-3.118853"><ele>732</ele><time>2020-06-12T11:39:27Z</time><name>PT7176</name></trkpt>
<trkpt lat="54.370758" lon="-3.118857"><ele>733</ele><time>2020-06-12T11:39:28Z</time><name>PT7177</name></trkpt>
<trkpt lat="54.370763" lon="-3.118860"><ele>733</ele><time>2020-06-12T11:39:29Z</time><name>PT7178</name></trkpt>
<trkpt lat="54.370767" lon="-3.118861"><ele>732</ele><time>2020-06-12T11:39:30Z</time><name>PT7179</name></trkpt>
<trkpt lat="54.370771" lon="-3.118859"><ele>732</ele><time>2020-06-12T11:39:31Z</time><name>PT7180</name></trkpt>
<trkpt lat="54.370774" lon="-3.118860"><ele>732</ele><time>2020-06-12T11:39:32Z</time><name>PT7181</name></trkpt>
<trkpt lat="54.370773" lon="-3.118861"><ele>733</ele><time>2020-06-12T11:39:36Z</time><name>PT7182</name></trkpt>
<trkpt lat="54.370776" lon="-3.118856"><ele>733</ele><time>2020-06-12T11:39:37Z</time><name>PT7183</name></trkpt>
<trkpt lat="54.370781" lon="-3.118852"><ele>732</ele><time>2020-06-12T11:39:38Z</time><name>PT7184</name></trkpt>
<trkpt lat="54.370784" lon="-3.118850"><ele>732</ele><time>2020-06-12T11:39:39Z</time><name>PT7185</name></trkpt>
<trkpt lat="54.370786" lon="-3.118846"><ele>732</ele><time>2020-06-12T11:39:40Z</time><name>PT7186</name></trkpt>
<trkpt lat="54.370786" lon="-3.118840"><ele>731</ele><time>2020-06-12T11:39:41Z</time><name>PT7187</name></trkpt>
<trkpt lat="54.370793" lon="-3.118837"><ele>731</ele><time>2020-06-12T11:39:44Z</time><name>PT7188</name></trkpt>
<trkpt lat="54.370800" lon="-3.118820"><ele>731</ele><time>2020-06-12T11:39:45Z</time><name>PT7189</name></trkpt>
<trkpt lat="54.370806" lon="-3.118814"><ele>731</ele><time>2020-06-12T11:39:46Z</time><name>PT7190</name></trkpt>
<trkpt lat="54.370814" lon="-3.118818"><ele>731</ele><time>2020-06-12T11:39:47Z</time><name>PT7191</name></trkpt>
<trkpt lat="54.370821" lon="-3.118823"><ele>731</ele><time>2020-06-12T11:39:48Z</time><name>PT7192</name></trkpt>
<trkpt lat="54.370829" lon="-3.118820"><ele>731</ele><time>2020-06-12T11:39:49Z</time><name>PT7193</name></trkpt>
<trkpt lat="54.370834" lon="-3.118816"><ele>730</ele><time>2020-06-12T11:39:50Z</time><name>PT7194</name></trkpt>
<trkpt lat="54.370830" lon="-3.118810"><ele>730</ele><time>2020-06-12T11:39:51Z</time><name>PT7195</name></trkpt>
<trkpt lat="54.370832" lon="-3.118800"><ele>730</ele><time>2020-06-12T11:39:52Z</time><name>PT7196</name></trkpt>
<trkpt lat="54.370831" lon="-3.118792"><ele>730</ele><time>2020-06-12T11:39:53Z</time><name>PT7197</name></trkpt>
<trkpt lat="54.370831" lon="-3.118788"><ele>729</ele><time>2020-06-12T11:39:54Z</time><name>PT7198</name></trkpt>
<trkpt lat="54.370830" lon="-3.118786"><ele>729</ele><time>2020-06-12T11:39:55Z</time><name>PT7199</name></trkpt>
<trkpt lat="54.370831" lon="-3.118785"><ele>729</ele><time>2020-06-12T11:39:56Z</time><name>PT7200</name></trkpt>
<trkpt lat="54.370832" lon="-3.118789"><ele>728</ele><time>2020-06-12T11:40:10Z</time><name>PT7201</name></trkpt>
<trkpt lat="54.370834" lon="-3.118783"><ele>728</ele><time>2020-06-12T11:40:11Z</time><name>PT7202</name></trkpt>
<trkpt lat="54.370834" lon="-3.118770"><ele>728</ele><time>2020-06-12T11:40:12Z</time><name>PT7203</name></trkpt>
<trkpt lat="54.370835" lon="-3.118760"><ele>728</ele><time>2020-06-12T11:40:13Z</time><name>PT7204</name></trkpt>
<trkpt lat="54.370833" lon="-3.118755"><ele>728</ele><time>2020-06-12T11:40:14Z</time><name>PT7205</name></trkpt>
<trkpt lat="54.370833" lon="-3.118744"><ele>727</ele><time>2020-06-12T11:40:15Z</time><name>PT7206</name></trkpt>
<trkpt lat="54.370835" lon="-3.118733"><ele>727</ele><time>2020-06-12T11:40:16Z</time><name>PT7207</name></trkpt>
<trkpt lat="54.370835" lon="-3.118723"><ele>727</ele><time>2020-06-12T11:40:17Z</time><name>PT7208</name></trkpt>
<trkpt lat="54.370832" lon="-3.118715"><ele>727</ele><time>2020-06-12T11:40:18Z</time><name>PT7209</name></trkpt>
<trkpt lat="54.370830" lon="-3.118707"><ele>726</ele><time>2020-06-12T11:40:19Z</time><name>PT7210</name></trkpt>
<trkpt lat="54.370829" lon="-3.118697"><ele>726</ele><time>2020-06-12T11:40:20Z</time><name>PT7211</name></trkpt>
<trkpt lat="54.370827" lon="-3.118688"><ele>726</ele><time>2020-06-12T11:40:21Z</time><name>PT7212</name></trkpt>
<trkpt lat="54.370824" lon="-3.118678"><ele>726</ele><time>2020-06-12T11:40:22Z</time><name>PT7213</name></trkpt>
<trkpt lat="54.370822" lon="-3.118665"><ele>726</ele><time>2020-06-12T11:40:23Z</time><name>PT7214</name></trkpt>
<trkpt lat="54.370820" lon="-3.118658"><ele>726</ele><time>2020-06-12T11:40:24Z</time><name>PT7215</name></trkpt>
<trkpt lat="54.370816" lon="-3.118649"><ele>725</ele><time>2020-06-12T11:40:25Z</time><name>PT7216</name></trkpt>
<trkpt lat="54.370813" lon="-3.118636"><ele>726</ele><time>2020-06-12T11:40:26Z</time><name>PT7217</name></trkpt>
<trkpt lat="54.370811" lon="-3.118623"><ele>726</ele><time>2020-06-12T11:40:27Z</time><name>PT7218</name></trkpt>
<trkpt lat="54.370809" lon="-3.118609"><ele>725</ele><time>2020-06-12T11:40:28Z</time><name>PT7219</name></trkpt>
<trkpt lat="54.370809" lon="-3.118599"><ele>725</ele><time>2020-06-12T11:40:29Z</time><name>PT7220</name></trkpt>
<trkpt lat="54.370807" lon="-3.118588"><ele>725</ele><time>2020-06-12T11:40:30Z</time><name>PT7221</name></trkpt>
<trkpt lat="54.370807" lon="-3.118578"><ele>725</ele><time>2020-06-12T11:40:31Z</time><name>PT7222</name></trkpt>
<trkpt lat="54.370805" lon="-3.118568"><ele>725</ele><time>2020-06-12T11:40:32Z</time><name>PT7223</name></trkpt>
<trkpt lat="54.370800" lon="-3.118558"><ele>725</ele><time>2020-06-12T11:40:33Z</time><name>PT7224</name></trkpt>
<trkpt lat="54.370797" lon="-3.118553"><ele>725</ele><time>2020-06-12T11:40:34Z</time><name>PT7225</name></trkpt>
<trkpt lat="54.370793" lon="-3.118552"><ele>725</ele><time>2020-06-12T11:40:35Z</time><name>PT7226</name></trkpt>
<trkpt lat="54.370789" lon="-3.118549"><ele>724</ele><time>2020-06-12T11:40:36Z</time><name>PT7227</name></trkpt>
<trkpt lat="54.370783" lon="-3.118546"><ele>724</ele><time>2020-06-12T11:40:37Z</time><name>PT7228</name></trkpt>
<trkpt lat="54.370779" lon="-3.118543"><ele>724</ele><time>2020-06-12T11:40:38Z</time><name>PT7229</name></trkpt>
<trkpt lat="54.370773" lon="-3.118540"><ele>724</ele><time>2020-06-12T11:40:39Z</time><name>PT7230</name></trkpt>
<trkpt lat="54.370770" lon="-3.118537"><ele>723</ele><time>2020-06-12T11:40:40Z</time><name>PT7231</name></trkpt>
<trkpt lat="54.370768" lon="-3.118535"><ele>723</ele><time>2020-06-12T11:40:41Z</time><name>PT7232</name></trkpt>
<trkpt lat="54.370768" lon="-3.118524"><ele>723</ele><time>2020-06-12T11:40:42Z</time><name>PT7233</name></trkpt>
<trkpt lat="54.370771" lon="-3.118518"><ele>724</ele><time>2020-06-12T11:40:43Z</time><name>PT7234</name></trkpt>
<trkpt lat="54.370774" lon="-3.118514"><ele>723</ele><time>2020-06-12T11:40:44Z</time><name>PT7235</name></trkpt>
<trkpt lat="54.370776" lon="-3.118507"><ele>723</ele><time>2020-06-12T11:40:45Z</time><name>PT7236</name></trkpt>
<trkpt lat="54.370775" lon="-3.118496"><ele>723</ele><time>2020-06-12T11:40:46Z</time><name>PT7237</name></trkpt>
<trkpt lat="54.370777" lon="-3.118492"><ele>723</ele><time>2020-06-12T11:40:47Z</time><name>PT7238</name></trkpt>
<trkpt lat="54.370780" lon="-3.118489"><ele>722</ele><time>2020-06-12T11:40:48Z</time><name>PT7239</name></trkpt>
<trkpt lat="54.370784" lon="-3.118481"><ele>722</ele><time>2020-06-12T11:40:49Z</time><name>PT7240</name></trkpt>
<trkpt lat="54.370784" lon="-3.118476"><ele>721</ele><time>2020-06-12T11:40:50Z</time><name>PT7241</name></trkpt>
<trkpt lat="54.370782" lon="-3.118471"><ele>721</ele><time>2020-06-12T11:40:51Z</time><name>PT7242</name></trkpt>
<trkpt lat="54.370784" lon="-3.118457"><ele>721</ele><time>2020-06-12T11:40:52Z</time><name>PT7243</name></trkpt>
<trkpt lat="54.370786" lon="-3.118445"><ele>721</ele><time>2020-06-12T11:40:53Z</time><name>PT7244</name></trkpt>
<trkpt lat="54.370788" lon="-3.118433"><ele>721</ele><time>2020-06-12T11:40:54Z</time><name>PT7245</name></trkpt>
<trkpt lat="54.370787" lon="-3.118423"><ele>721</ele><time>2020-06-12T11:40:55Z</time><name>PT7246</name></trkpt>
<trkpt lat="54.370782" lon="-3.118418"><ele>721</ele><time>2020-06-12T11:40:56Z</time><name>PT7247</name></trkpt>
<trkpt lat="54.370777" lon="-3.118413"><ele>720</ele><time>2020-06-12T11:40:57Z</time><name>PT7248</name></trkpt>
<trkpt lat="54.370770" lon="-3.118410"><ele>720</ele><time>2020-06-12T11:40:58Z</time><name>PT7249</name></trkpt>
<trkpt lat="54.370762" lon="-3.118407"><ele>719</ele><time>2020-06-12T11:40:59Z</time><name>PT7250</name></trkpt>
<trkpt lat="54.370756" lon="-3.118403"><ele>719</ele><time>2020-06-12T11:41:00Z</time><name>PT7251</name></trkpt>
<trkpt lat="54.370751" lon="-3.118401"><ele>719</ele><time>2020-06-12T11:41:01Z</time><name>PT7252</name></trkpt>
<trkpt lat="54.370747" lon="-3.118402"><ele>719</ele><time>2020-06-12T11:41:02Z</time><name>PT7253</name></trkpt>
<trkpt lat="54.370743" lon="-3.118402"><ele>719</ele><time>2020-06-12T11:41:03Z</time><name>PT7254</name></trkpt>
<trkpt lat="54.370738" lon="-3.118405"><ele>719</ele><time>2020-06-12T11:41:04Z</time><name>PT7255</name></trkpt>
<trkpt lat="54.370741" lon="-3.118399"><ele>718</ele><time>2020-06-12T11:41:06Z</time><name>PT7256</name></trkpt>
<trkpt lat="54.370740" lon="-3.118385"><ele>718</ele><time>2020-06-12T11:41:07Z</time><name>PT7257</name></trkpt>
<trkpt lat="54.370734" lon="-3.118383"><ele>718</ele><time>2020-06-12T11:41:08Z</time><name>PT7258</name></trkpt>
<trkpt lat="54.370728" lon="-3.118376"><ele>718</ele><time>2020-06-12T11:41:09Z</time><name>PT7259</name></trkpt>
<trkpt lat="54.370725" lon="-3.118364"><ele>718</ele><time>2020-06-12T11:41:10Z</time><name>PT7260</name></trkpt>
<trkpt lat="54.370720" lon="-3.118360"><ele>718</ele><time>2020-06-12T11:41:11Z</time><name>PT7261</name></trkpt>
<trkpt lat="54.370721" lon="-3.118356"><ele>718</ele><time>2020-06-12T11:41:12Z</time><name>PT7262</name></trkpt>
<trkpt lat="54.370722" lon="-3.118354"><ele>718</ele><time>2020-06-12T11:41:13Z</time><name>PT7263</name></trkpt>
<trkpt lat="54.370721" lon="-3.118350"><ele>718</ele><time>2020-06-12T11:41:14Z</time><name>PT7264</name></trkpt>
<trkpt lat="54.370719" lon="-3.118340"><ele>717</ele><time>2020-06-12T11:41:15Z</time><name>PT7265</name></trkpt>
<trkpt lat="54.370717" lon="-3.118337"><ele>717</ele><time>2020-06-12T11:41:16Z</time><name>PT7266</name></trkpt>
<trkpt lat="54.370719" lon="-3.118332"><ele>717</ele><time>2020-06-12T11:41:17Z</time><name>PT7267</name></trkpt>
<trkpt lat="54.370721" lon="-3.118325"><ele>717</ele><time>2020-06-12T11:41:18Z</time><name>PT7268</name></trkpt>
<trkpt lat="54.370722" lon="-3.118315"><ele>716</ele><time>2020-06-12T11:41:19Z</time><name>PT7269</name></trkpt>
<trkpt lat="54.370722" lon="-3.118306"><ele>716</ele><time>2020-06-12T11:41:20Z</time><name>PT7270</name></trkpt>
<trkpt lat="54.370721" lon="-3.118297"><ele>716</ele><time>2020-06-12T11:41:21Z</time><name>PT7271</name></trkpt>
<trkpt lat="54.370720" lon="-3.118284"><ele>716</ele><time>2020-06-12T11:41:22Z</time><name>PT7272</name></trkpt>
<trkpt lat="54.370726" lon="-3.118280"><ele>716</ele><time>2020-06-12T11:41:23Z</time><name>PT7273</name></trkpt>
<trkpt lat="54.370731" lon="-3.118275"><ele>716</ele><time>2020-06-12T11:41:24Z</time><name>PT7274</name></trkpt>
<trkpt lat="54.370738" lon="-3.118277"><ele>716</ele><time>2020-06-12T11:41:25Z</time><name>PT7275</name></trkpt>
<trkpt lat="54.370741" lon="-3.118276"><ele>716</ele><time>2020-06-12T11:41:26Z</time><name>PT7276</name></trkpt>
<trkpt lat="54.370742" lon="-3.118271"><ele>715</ele><time>2020-06-12T11:41:27Z</time><name>PT7277</name></trkpt>
<trkpt lat="54.370745" lon="-3.118261"><ele>715</ele><time>2020-06-12T11:41:28Z</time><name>PT7278</name></trkpt>
<trkpt lat="54.370749" lon="-3.118252"><ele>715</ele><time>2020-06-12T11:41:29Z</time><name>PT7279</name></trkpt>
<trkpt lat="54.370751" lon="-3.118240"><ele>715</ele><time>2020-06-12T11:41:30Z</time><name>PT7280</name></trkpt>
<trkpt lat="54.370754" lon="-3.118231"><ele>715</ele><time>2020-06-12T11:41:31Z</time><name>PT7281</name></trkpt>
<trkpt lat="54.370757" lon="-3.118220"><ele>715</ele><time>2020-06-12T11:41:32Z</time><name>PT7282</name></trkpt>
<trkpt lat="54.370760" lon="-3.118210"><ele>714</ele><time>2020-06-12T11:41:33Z</time><name>PT7283</name></trkpt>
<trkpt lat="54.370763" lon="-3.118198"><ele>714</ele><time>2020-06-12T11:41:34Z</time><name>PT7284</name></trkpt>
<trkpt lat="54.370767" lon="-3.118191"><ele>714</ele><time>2020-06-12T11:41:35Z</time><name>PT7285</name></trkpt>
<trkpt lat="54.370773" lon="-3.118183"><ele>714</ele><time>2020-06-12T11:41:36Z</time><name>PT7286</name></trkpt>
<trkpt lat="54.370779" lon="-3.118176"><ele>713</ele><time>2020-06-12T11:41:37Z</time><name>PT7287</name></trkpt>
<trkpt lat="54.370783" lon="-3.118164"><ele>713</ele><time>2020-06-12T11:41:38Z</time><name>PT7288</name></trkpt>
<trkpt lat="54.370787" lon="-3.118151"><ele>713</ele><time>2020-06-12T11:41:39Z</time><name>PT7289</name></trkpt>
<trkpt lat="54.370792" lon="-3.118144"><ele>713</ele><time>2020-06-12T11:41:40Z</time><name>PT7290</name></trkpt>
<trkpt lat="54.370795" lon="-3.118134"><ele>713</ele><time>2020-06-12T11:41:41Z</time><name>PT7291</name></trkpt>
<trkpt lat="54.370798" lon="-3.118123"><ele>713</ele><time>2020-06-12T11:41:42Z</time><name>PT7292</name></trkpt>
<trkpt lat="54.370805" lon="-3.118115"><ele>712</ele><time>2020-06-12T11:41:43Z</time><name>PT7293</name></trkpt>
<trkpt lat="54.370812" lon="-3.118103"><ele>712</ele><time>2020-06-12T11:41:44Z</time><name>PT7294</name></trkpt>
<trkpt lat="54.370818" lon="-3.118088"><ele>713</ele><time>2020-06-12T11:41:45Z</time><name>PT7295</name></trkpt>
<trkpt lat="54.370827" lon="-3.118087"><ele>713</ele><time>2020-06-12T11:41:46Z</time><name>PT7296</name></trkpt>
<trkpt lat="54.370838" lon="-3.118086"><ele>713</ele><time>2020-06-12T11:41:47Z</time><name>PT7297</name></trkpt>
<trkpt lat="54.370846" lon="-3.118093"><ele>712</ele><time>2020-06-12T11:41:48Z</time><name>PT7298</name></trkpt>
<trkpt lat="54.370851" lon="-3.118102"><ele>712</ele><time>2020-06-12T11:41:49Z</time><name>PT7299</name></trkpt>
<trkpt lat="54.370855" lon="-3.118113"><ele>712</ele><time>2020-06-12T11:41:50Z</time><name>PT7300</name></trkpt>
<trkpt lat="54.370857" lon="-3.118119"><ele>711</ele><time>2020-06-12T11:41:51Z</time><name>PT7301</name></trkpt>
<trkpt lat="54.370862" lon="-3.118127"><ele>710</ele><time>2020-06-12T11:41:52Z</time><name>PT7302</name></trkpt>
<trkpt lat="54.370868" lon="-3.118128"><ele>710</ele><time>2020-06-12T11:41:53Z</time><name>PT7303</name></trkpt>
<trkpt lat="54.370872" lon="-3.118124"><ele>710</ele><time>2020-06-12T11:41:54Z</time><name>PT7304</name></trkpt>
<trkpt lat="54.370872" lon="-3.118124"><ele>710</ele><time>2020-06-12T11:41:55Z</time><name>PT7305</name></trkpt>
<trkpt lat="54.370872" lon="-3.118123"><ele>710</ele><time>2020-06-12T11:41:56Z</time><name>PT7306</name></trkpt>
<trkpt lat="54.370872" lon="-3.118122"><ele>710</ele><time>2020-06-12T11:41:57Z</time><name>PT7307</name></trkpt>
<trkpt lat="54.370880" lon="-3.118132"><ele>710</ele><time>2020-06-12T11:42:05Z</time><name>PT7308</name></trkpt>
<trkpt lat="54.370883" lon="-3.118131"><ele>710</ele><time>2020-06-12T11:42:06Z</time><name>PT7309</name></trkpt>
<trkpt lat="54.370890" lon="-3.118137"><ele>710</ele><time>2020-06-12T11:42:07Z</time><name>PT7310</name></trkpt>
<trkpt lat="54.370893" lon="-3.118142"><ele>710</ele><time>2020-06-12T11:42:08Z</time><name>PT7311</name></trkpt>
<trkpt lat="54.370895" lon="-3.118146"><ele>710</ele><time>2020-06-12T11:42:14Z</time><name>PT7312</name></trkpt>
<trkpt lat="54.370899" lon="-3.118144"><ele>709</ele><time>2020-06-12T11:42:15Z</time><name>PT7313</name></trkpt>
<trkpt lat="54.370905" lon="-3.118137"><ele>708</ele><time>2020-06-12T11:42:16Z</time><name>PT7314</name></trkpt>
<trkpt lat="54.370911" lon="-3.118125"><ele>708</ele><time>2020-06-12T11:42:17Z</time><name>PT7315</name></trkpt>
<trkpt lat="54.370916" lon="-3.118117"><ele>708</ele><time>2020-06-12T11:42:18Z</time><name>PT7316</name></trkpt>
<trkpt lat="54.370922" lon="-3.118113"><ele>708</ele><time>2020-06-12T11:42:19Z</time><name>PT7317</name></trkpt>
<trkpt lat="54.370923" lon="-3.118113"><ele>708</ele><time>2020-06-12T11:42:20Z</time><name>PT7318</name></trkpt>
<trkpt lat="54.370924" lon="-3.118119"><ele>708</ele><time>2020-06-12T11:42:21Z</time><name>PT7319</name></trkpt>
<trkpt lat="54.370928" lon="-3.118129"><ele>707</ele><time>2020-06-12T11:42:22Z</time><name>PT7320</name></trkpt>
<trkpt lat="54.370933" lon="-3.118128"><ele>707</ele><time>2020-06-12T11:42:23Z</time><name>PT7321</name></trkpt>
<trkpt lat="54.370938" lon="-3.118122"><ele>707</ele><time>2020-06-12T11:42:24Z</time><name>PT7322</name></trkpt>
<trkpt lat="54.370943" lon="-3.118122"><ele>707</ele><time>2020-06-12T11:42:25Z</time><name>PT7323</name></trkpt>
<trkpt lat="54.370948" lon="-3.118131"><ele>707</ele><time>2020-06-12T11:42:26Z</time><name>PT7324</name></trkpt>
<trkpt lat="54.370951" lon="-3.118133"><ele>707</ele><time>2020-06-12T11:42:27Z</time><name>PT7325</name></trkpt>
<trkpt lat="54.370955" lon="-3.118134"><ele>707</ele><time>2020-06-12T11:42:28Z</time><name>PT7326</name></trkpt>
<trkpt lat="54.370959" lon="-3.118135"><ele>707</ele><time>2020-06-12T11:42:29Z</time><name>PT7327</name></trkpt>
<trkpt lat="54.370963" lon="-3.118133"><ele>707</ele><time>2020-06-12T11:42:30Z</time><name>PT7328</name></trkpt>
<trkpt lat="54.370966" lon="-3.118135"><ele>706</ele><time>2020-06-12T11:42:31Z</time><name>PT7329</name></trkpt>
<trkpt lat="54.370972" lon="-3.118139"><ele>707</ele><time>2020-06-12T11:42:32Z</time><name>PT7330</name></trkpt>
<trkpt lat="54.370977" lon="-3.118138"><ele>707</ele><time>2020-06-12T11:42:33Z</time><name>PT7331</name></trkpt>
<trkpt lat="54.370983" lon="-3.118140"><ele>707</ele><time>2020-06-12T11:42:34Z</time><name>PT7332</name></trkpt>
<trkpt lat="54.370990" lon="-3.118137"><ele>707</ele><time>2020-06-12T11:42:36Z</time><name>PT7333</name></trkpt>
<trkpt lat="54.370991" lon="-3.118133"><ele>706</ele><time>2020-06-12T11:42:36Z</time><name>PT7334</name></trkpt>
<trkpt lat="54.370995" lon="-3.118128"><ele>706</ele><time>2020-06-12T11:42:37Z</time><name>PT7335</name></trkpt>
<trkpt lat="54.371002" lon="-3.118124"><ele>706</ele><time>2020-06-12T11:42:38Z</time><name>PT7336</name></trkpt>
<trkpt lat="54.371006" lon="-3.118121"><ele>706</ele><time>2020-06-12T11:42:39Z</time><name>PT7337</name></trkpt>
<trkpt lat="54.371013" lon="-3.118124"><ele>707</ele><time>2020-06-12T11:42:40Z</time><name>PT7338</name></trkpt>
<trkpt lat="54.371024" lon="-3.118117"><ele>707</ele><time>2020-06-12T11:42:41Z</time><name>PT7339</name></trkpt>
<trkpt lat="54.371029" lon="-3.118106"><ele>706</ele><time>2020-06-12T11:42:42Z</time><name>PT7340</name></trkpt>
<trkpt lat="54.371033" lon="-3.118098"><ele>706</ele><time>2020-06-12T11:42:43Z</time><name>PT7341</name></trkpt>
<trkpt lat="54.371036" lon="-3.118089"><ele>706</ele><time>2020-06-12T11:42:44Z</time><name>PT7342</name></trkpt>
<trkpt lat="54.371038" lon="-3.118080"><ele>706</ele><time>2020-06-12T11:42:45Z</time><name>PT7343</name></trkpt>
<trkpt lat="54.371041" lon="-3.118071"><ele>705</ele><time>2020-06-12T11:42:46Z</time><name>PT7344</name></trkpt>
<trkpt lat="54.371046" lon="-3.118066"><ele>706</ele><time>2020-06-12T11:42:48Z</time><name>PT7345</name></trkpt>
<trkpt lat="54.371053" lon="-3.118067"><ele>706</ele><time>2020-06-12T11:42:48Z</time><name>PT7346</name></trkpt>
<trkpt lat="54.371057" lon="-3.118072"><ele>705</ele><time>2020-06-12T11:42:49Z</time><name>PT7347</name></trkpt>
<trkpt lat="54.371063" lon="-3.118075"><ele>705</ele><time>2020-06-12T11:42:50Z</time><name>PT7348</name></trkpt>
<trkpt lat="54.371067" lon="-3.118075"><ele>705</ele><time>2020-06-12T11:42:51Z</time><name>PT7349</name></trkpt>
<trkpt lat="54.371070" lon="-3.118071"><ele>704</ele><time>2020-06-12T11:42:52Z</time><name>PT7350</name></trkpt>
<trkpt lat="54.371075" lon="-3.118070"><ele>704</ele><time>2020-06-12T11:42:53Z</time><name>PT7351</name></trkpt>
<trkpt lat="54.371080" lon="-3.118068"><ele>704</ele><time>2020-06-12T11:42:54Z</time><name>PT7352</name></trkpt>
<trkpt lat="54.371080" lon="-3.118060"><ele>703</ele><time>2020-06-12T11:42:55Z</time><name>PT7353</name></trkpt>
<trkpt lat="54.371080" lon="-3.118049"><ele>703</ele><time>2020-06-12T11:42:56Z</time><name>PT7354</name></trkpt>
<trkpt lat="54.371081" lon="-3.118039"><ele>703</ele><time>2020-06-12T11:42:57Z</time><name>PT7355</name></trkpt>
<trkpt lat="54.371084" lon="-3.118031"><ele>703</ele><time>2020-06-12T11:42:58Z</time><name>PT7356</name></trkpt>
<trkpt lat="54.371086" lon="-3.118025"><ele>702</ele><time>2020-06-12T11:42:59Z</time><name>PT7357</name></trkpt>
<trkpt lat="54.371088" lon="-3.118018"><ele>702</ele><time>2020-06-12T11:43:00Z</time><name>PT7358</name></trkpt>
<trkpt lat="54.371090" lon="-3.118013"><ele>702</ele><time>2020-06-12T11:43:01Z</time><name>PT7359</name></trkpt>
<trkpt lat="54.371093" lon="-3.118006"><ele>702</ele><time>2020-06-12T11:43:02Z</time><name>PT7360</name></trkpt>
<trkpt lat="54.371101" lon="-3.117999"><ele>702</ele><time>2020-06-12T11:43:08Z</time><name>PT7361</name></trkpt>
<trkpt lat="54.371103" lon="-3.118000"><ele>702</ele><time>2020-06-12T11:43:09Z</time><name>PT7362</name></trkpt>
<trkpt lat="54.371112" lon="-3.117985"><ele>703</ele><time>2020-06-12T11:43:29Z</time><name>PT7363</name></trkpt>
<trkpt lat="54.371125" lon="-3.117975"><ele>702</ele><time>2020-06-12T11:43:30Z</time><name>PT7364</name></trkpt>
<trkpt lat="54.371139" lon="-3.117962"><ele>701</ele><time>2020-06-12T11:43:31Z</time><name>PT7365</name></trkpt>
<trkpt lat="54.371146" lon="-3.117956"><ele>701</ele><time>2020-06-12T11:43:32Z</time><name>PT7366</name></trkpt>
<trkpt lat="54.371154" lon="-3.117945"><ele>700</ele><time>2020-06-12T11:43:33Z</time><name>PT7367</name></trkpt>
<trkpt lat="54.371160" lon="-3.117933"><ele>699</ele><time>2020-06-12T11:43:34Z</time><name>PT7368</name></trkpt>
<trkpt lat="54.371163" lon="-3.117921"><ele>698</ele><time>2020-06-12T11:43:35Z</time><name>PT7369</name></trkpt>
<trkpt lat="54.371165" lon="-3.117909"><ele>698</ele><time>2020-06-12T11:43:36Z</time><name>PT7370</name></trkpt>
<trkpt lat="54.371170" lon="-3.117898"><ele>698</ele><time>2020-06-12T11:43:37Z</time><name>PT7371</name></trkpt>
<trkpt lat="54.371173" lon="-3.117890"><ele>697</ele><time>2020-06-12T11:43:38Z</time><name>PT7372</name></trkpt>
<trkpt lat="54.371177" lon="-3.117880"><ele>697</ele><time>2020-06-12T11:43:39Z</time><name>PT7373</name></trkpt>
<trkpt lat="54.371180" lon="-3.117871"><ele>697</ele><time>2020-06-12T11:43:40Z</time><name>PT7374</name></trkpt>
<trkpt lat="54.371181" lon="-3.117863"><ele>696</ele><time>2020-06-12T11:43:41Z</time><name>PT7375</name></trkpt>
<trkpt lat="54.371182" lon="-3.117855"><ele>696</ele><time>2020-06-12T11:43:42Z</time><name>PT7376</name></trkpt>
<trkpt lat="54.371185" lon="-3.117846"><ele>696</ele><time>2020-06-12T11:43:43Z</time><name>PT7377</name></trkpt>
<trkpt lat="54.371186" lon="-3.117841"><ele>695</ele><time>2020-06-12T11:43:44Z</time><name>PT7378</name></trkpt>
<trkpt lat="54.371188" lon="-3.117830"><ele>695</ele><time>2020-06-12T11:43:45Z</time><name>PT7379</name></trkpt>
<trkpt lat="54.371190" lon="-3.117822"><ele>694</ele><time>2020-06-12T11:43:46Z</time><name>PT7380</name></trkpt>
<trkpt lat="54.371195" lon="-3.117819"><ele>694</ele><time>2020-06-12T11:43:47Z</time><name>PT7381</name></trkpt>
<trkpt lat="54.371195" lon="-3.117827"><ele>695</ele><time>2020-06-12T11:43:48Z</time><name>PT7382</name></trkpt>
<trkpt lat="54.371198" lon="-3.117829"><ele>695</ele><time>2020-06-12T11:43:49Z</time><name>PT7383</name></trkpt>
<trkpt lat="54.371195" lon="-3.117834"><ele>695</ele><time>2020-06-12T11:43:50Z</time><name>PT7384</name></trkpt>
<trkpt lat="54.371199" lon="-3.117835"><ele>695</ele><time>2020-06-12T11:43:56Z</time><name>PT7385</name></trkpt>
<trkpt lat="54.371197" lon="-3.117835"><ele>694</ele><time>2020-06-12T11:43:57Z</time><name>PT7386</name></trkpt>
<trkpt lat="54.371204" lon="-3.117835"><ele>694</ele><time>2020-06-12T11:43:58Z</time><name>PT7387</name></trkpt>
<trkpt lat="54.371209" lon="-3.117842"><ele>695</ele><time>2020-06-12T11:43:59Z</time><name>PT7388</name></trkpt>
<trkpt lat="54.371212" lon="-3.117845"><ele>695</ele><time>2020-06-12T11:44:00Z</time><name>PT7389</name></trkpt>
<trkpt lat="54.371213" lon="-3.117846"><ele>695</ele><time>2020-06-12T11:44:01Z</time><name>PT7390</name></trkpt>
<trkpt lat="54.371214" lon="-3.117848"><ele>695</ele><time>2020-06-12T11:44:02Z</time><name>PT7391</name></trkpt>
<trkpt lat="54.371214" lon="-3.117846"><ele>694</ele><time>2020-06-12T11:44:03Z</time><name>PT7392</name></trkpt>
<trkpt lat="54.371217" lon="-3.117846"><ele>694</ele><time>2020-06-12T11:44:04Z</time><name>PT7393</name></trkpt>
<trkpt lat="54.371219" lon="-3.117845"><ele>694</ele><time>2020-06-12T11:44:05Z</time><name>PT7394</name></trkpt>
<trkpt lat="54.371225" lon="-3.117842"><ele>693</ele><time>2020-06-12T11:44:06Z</time><name>PT7395</name></trkpt>
<trkpt lat="54.371227" lon="-3.117840"><ele>693</ele><time>2020-06-12T11:44:07Z</time><name>PT7396</name></trkpt>
<trkpt lat="54.371227" lon="-3.117838"><ele>693</ele><time>2020-06-12T11:44:08Z</time><name>PT7397</name></trkpt>
<trkpt lat="54.371227" lon="-3.117838"><ele>693</ele><time>2020-06-12T11:44:09Z</time><name>PT7398</name></trkpt>
<trkpt lat="54.371225" lon="-3.117837"><ele>694</ele><time>2020-06-12T11:44:18Z</time><name>PT7399</name></trkpt>
<trkpt lat="54.371231" lon="-3.117830"><ele>693</ele><time>2020-06-12T11:44:19Z</time><name>PT7400</name></trkpt>
<trkpt lat="54.371232" lon="-3.117826"><ele>693</ele><time>2020-06-12T11:44:20Z</time><name>PT7401</name></trkpt>
<trkpt lat="54.371241" lon="-3.117824"><ele>693</ele><time>2020-06-12T11:44:28Z</time><name>PT7402</name></trkpt>
<trkpt lat="54.371243" lon="-3.117822"><ele>693</ele><time>2020-06-12T11:44:29Z</time><name>PT7403</name></trkpt>
<trkpt lat="54.371247" lon="-3.117824"><ele>693</ele><time>2020-06-12T11:44:30Z</time><name>PT7404</name></trkpt>
<trkpt lat="54.371253" lon="-3.117825"><ele>693</ele><time>2020-06-12T11:44:31Z</time><name>PT7405</name></trkpt>
<trkpt lat="54.371259" lon="-3.117828"><ele>693</ele><time>2020-06-12T11:44:32Z</time><name>PT7406</name></trkpt>
<trkpt lat="54.371264" lon="-3.117843"><ele>693</ele><time>2020-06-12T11:44:33Z</time><name>PT7407</name></trkpt>
<trkpt lat="54.371267" lon="-3.117850"><ele>693</ele><time>2020-06-12T11:44:34Z</time><name>PT7408</name></trkpt>
<trkpt lat="54.371269" lon="-3.117863"><ele>693</ele><time>2020-06-12T11:44:35Z</time><name>PT7409</name></trkpt>
<trkpt lat="54.371272" lon="-3.117869"><ele>693</ele><time>2020-06-12T11:44:36Z</time><name>PT7410</name></trkpt>
<trkpt lat="54.371276" lon="-3.117877"><ele>693</ele><time>2020-06-12T11:44:37Z</time><name>PT7411</name></trkpt>
<trkpt lat="54.371281" lon="-3.117876"><ele>693</ele><time>2020-06-12T11:44:38Z</time><name>PT7412</name></trkpt>
<trkpt lat="54.371286" lon="-3.117878"><ele>693</ele><time>2020-06-12T11:44:39Z</time><name>PT7413</name></trkpt>
<trkpt lat="54.371289" lon="-3.117883"><ele>693</ele><time>2020-06-12T11:44:40Z</time><name>PT7414</name></trkpt>
<trkpt lat="54.371291" lon="-3.117882"><ele>692</ele><time>2020-06-12T11:44:41Z</time><name>PT7415</name></trkpt>
<trkpt lat="54.371292" lon="-3.117881"><ele>692</ele><time>2020-06-12T11:44:42Z</time><name>PT7416</name></trkpt>
<trkpt lat="54.371294" lon="-3.117876"><ele>692</ele><time>2020-06-12T11:44:43Z</time><name>PT7417</name></trkpt>
<trkpt lat="54.371295" lon="-3.117876"><ele>691</ele><time>2020-06-12T11:44:44Z</time><name>PT7418</name></trkpt>
<trkpt lat="54.371301" lon="-3.117874"><ele>691</ele><time>2020-06-12T11:44:45Z</time><name>PT7419</name></trkpt>
<trkpt lat="54.371308" lon="-3.117879"><ele>691</ele><time>2020-06-12T11:44:46Z</time><name>PT7420</name></trkpt>
<trkpt lat="54.371313" lon="-3.117883"><ele>691</ele><time>2020-06-12T11:44:47Z</time><name>PT7421</name></trkpt>
<trkpt lat="54.371316" lon="-3.117884"><ele>691</ele><time>2020-06-12T11:44:48Z</time><name>PT7422</name></trkpt>
<trkpt lat="54.371318" lon="-3.117884"><ele>690</ele><time>2020-06-12T11:44:49Z</time><name>PT7423</name></trkpt>
<trkpt lat="54.371321" lon="-3.117884"><ele>690</ele><time>2020-06-12T11:44:50Z</time><name>PT7424</name></trkpt>
<trkpt lat="54.371323" lon="-3.117881"><ele>690</ele><time>2020-06-12T11:44:51Z</time><name>PT7425</name></trkpt>
<trkpt lat="54.371325" lon="-3.117881"><ele>689</ele><time>2020-06-12T11:44:52Z</time><name>PT7426</name></trkpt>
<trkpt lat="54.371325" lon="-3.117884"><ele>689</ele><time>2020-06-12T11:44:53Z</time><name>PT7427</name></trkpt>
<trkpt lat="54.371328" lon="-3.117886"><ele>689</ele><time>2020-06-12T11:44:54Z</time><name>PT7428</name></trkpt>
<trkpt lat="54.371331" lon="-3.117887"><ele>688</ele><time>2020-06-12T11:44:55Z</time><name>PT7429</name></trkpt>
<trkpt lat="54.371334" lon="-3.117891"><ele>688</ele><time>2020-06-12T11:44:56Z</time><name>PT7430</name></trkpt>
<trkpt lat="54.371335" lon="-3.117895"><ele>687</ele><time>2020-06-12T11:44:57Z</time><name>PT7431</name></trkpt>
<trkpt lat="54.371337" lon="-3.117900"><ele>687</ele><time>2020-06-12T11:44:58Z</time><name>PT7432</name></trkpt>
<trkpt lat="54.371342" lon="-3.117902"><ele>687</ele><time>2020-06-12T11:44:59Z</time><name>PT7433</name></trkpt>
<trkpt lat="54.371345" lon="-3.117904"><ele>686</ele><time>2020-06-12T11:45:00Z</time><name>PT7434</name></trkpt>
<trkpt lat="54.371351" lon="-3.117908"><ele>687</ele><time>2020-06-12T11:45:01Z</time><name>PT7435</name></trkpt>
<trkpt lat="54.371353" lon="-3.117917"><ele>687</ele><time>2020-06-12T11:45:02Z</time><name>PT7436</name></trkpt>
<trkpt lat="54.371356" lon="-3.117927"><ele>687</ele><time>2020-06-12T11:45:03Z</time><name>PT7437</name></trkpt>
<trkpt lat="54.371360" lon="-3.117933"><ele>687</ele><time>2020-06-12T11:45:04Z</time><name>PT7438</name></trkpt>
<trkpt lat="54.371364" lon="-3.117942"><ele>687</ele><time>2020-06-12T11:45:05Z</time><name>PT7439</name></trkpt>
<trkpt lat="54.371363" lon="-3.117950"><ele>687</ele><time>2020-06-12T11:45:06Z</time><name>PT7440</name></trkpt>
<trkpt lat="54.371368" lon="-3.117963"><ele>688</ele><time>2020-06-12T11:45:07Z</time><name>PT7441</name></trkpt>
<trkpt lat="54.371370" lon="-3.117969"><ele>687</ele><time>2020-06-12T11:45:08Z</time><name>PT7442</name></trkpt>
<trkpt lat="54.371373" lon="-3.117978"><ele>687</ele><time>2020-06-12T11:45:09Z</time><name>PT7443</name></trkpt>
<trkpt lat="54.371378" lon="-3.117988"><ele>688</ele><time>2020-06-12T11:45:10Z</time><name>PT7444</name></trkpt>
<trkpt lat="54.371385" lon="-3.117997"><ele>689</ele><time>2020-06-12T11:45:11Z</time><name>PT7445</name></trkpt>
<trkpt lat="54.371389" lon="-3.118009"><ele>689</ele><time>2020-06-12T11:45:12Z</time><name>PT7446</name></trkpt>
<trkpt lat="54.371395" lon="-3.118022"><ele>689</ele><time>2020-06-12T11:45:13Z</time><name>PT7447</name></trkpt>
<trkpt lat="54.371397" lon="-3.118030"><ele>689</ele><time>2020-06-12T11:45:14Z</time><name>PT7448</name></trkpt>
<trkpt lat="54.371400" lon="-3.118033"><ele>688</ele><time>2020-06-12T11:45:15Z</time><name>PT7449</name></trkpt>
<trkpt lat="54.371404" lon="-3.118039"><ele>688</ele><time>2020-06-12T11:45:16Z</time><name>PT7450</name></trkpt>
<trkpt lat="54.371409" lon="-3.118046"><ele>688</ele><time>2020-06-12T11:45:17Z</time><name>PT7451</name></trkpt>
<trkpt lat="54.371414" lon="-3.118048"><ele>688</ele><time>2020-06-12T11:45:18Z</time><name>PT7452</name></trkpt>
<trkpt lat="54.371419" lon="-3.118046"><ele>688</ele><time>2020-06-12T11:45:19Z</time><name>PT7453</name></trkpt>
<trkpt lat="54.371420" lon="-3.118041"><ele>687</ele><time>2020-06-12T11:45:20Z</time><name>PT7454</name></trkpt>
<trkpt lat="54.371424" lon="-3.118034"><ele>687</ele><time>2020-06-12T11:45:21Z</time><name>PT7455</name></trkpt>
<trkpt lat="54.371428" lon="-3.118029"><ele>686</ele><time>2020-06-12T11:45:22Z</time><name>PT7456</name></trkpt>
<trkpt lat="54.371434" lon="-3.118026"><ele>686</ele><time>2020-06-12T11:45:23Z</time><name>PT7457</name></trkpt>
<trkpt lat="54.371437" lon="-3.118024"><ele>685</ele><time>2020-06-12T11:45:24Z</time><name>PT7458</name></trkpt>
<trkpt lat="54.371442" lon="-3.118019"><ele>685</ele><time>2020-06-12T11:45:25Z</time><name>PT7459</name></trkpt>
<trkpt lat="54.371443" lon="-3.118015"><ele>685</ele><time>2020-06-12T11:45:26Z</time><name>PT7460</name></trkpt>
<trkpt lat="54.371443" lon="-3.118011"><ele>684</ele><time>2020-06-12T11:45:27Z</time><name>PT7461</name></trkpt>
<trkpt lat="54.371450" lon="-3.118012"><ele>684</ele><time>2020-06-12T11:45:28Z</time><name>PT7462</name></trkpt>
<trkpt lat="54.371455" lon="-3.118011"><ele>684</ele><time>2020-06-12T11:45:29Z</time><name>PT7463</name></trkpt>
<trkpt lat="54.371460" lon="-3.118007"><ele>684</ele><time>2020-06-12T11:45:30Z</time><name>PT7464</name></trkpt>
<trkpt lat="54.371462" lon="-3.118001"><ele>684</ele><time>2020-06-12T11:45:31Z</time><name>PT7465</name></trkpt>
<trkpt lat="54.371463" lon="-3.117994"><ele>683</ele><time>2020-06-12T11:45:32Z</time><name>PT7466</name></trkpt>
<trkpt lat="54.371463" lon="-3.117981"><ele>683</ele><time>2020-06-12T11:45:34Z</time><name>PT7467</name></trkpt>
<trkpt lat="54.371473" lon="-3.117999"><ele>683</ele><time>2020-06-12T11:45:35Z</time><name>PT7468</name></trkpt>
<trkpt lat="54.371476" lon="-3.117997"><ele>683</ele><time>2020-06-12T11:45:36Z</time><name>PT7469</name></trkpt>
<trkpt lat="54.371483" lon="-3.117992"><ele>683</ele><time>2020-06-12T11:45:37Z</time><name>PT7470</name></trkpt>
<trkpt lat="54.371491" lon="-3.117977"><ele>683</ele><time>2020-06-12T11:45:38Z</time><name>PT7471</name></trkpt>
<trkpt lat="54.371496" lon="-3.117969"><ele>683</ele><time>2020-06-12T11:45:39Z</time><name>PT7472</name></trkpt>
<trkpt lat="54.371501" lon="-3.117965"><ele>683</ele><time>2020-06-12T11:45:40Z</time><name>PT7473</name></trkpt>
<trkpt lat="54.371507" lon="-3.117963"><ele>682</ele><time>2020-06-12T11:45:41Z</time><name>PT7474</name></trkpt>
<trkpt lat="54.371517" lon="-3.117959"><ele>682</ele><time>2020-06-12T11:45:42Z</time><name>PT7475</name></trkpt>
<trkpt lat="54.371522" lon="-3.117956"><ele>682</ele><time>2020-06-12T11:45:43Z</time><name>PT7476</name></trkpt>
<trkpt lat="54.371528" lon="-3.117951"><ele>682</ele><time>2020-06-12T11:45:44Z</time><name>PT7477</name></trkpt>
<trkpt lat="54.371535" lon="-3.117947"><ele>682</ele><time>2020-06-12T11:45:45Z</time><name>PT7478</name></trkpt>
<trkpt lat="54.371544" lon="-3.117941"><ele>681</ele><time>2020-06-12T11:45:46Z</time><name>PT7479</name></trkpt>
<trkpt lat="54.371552" lon="-3.117930"><ele>681</ele><time>2020-06-12T11:45:47Z</time><name>PT7480</name></trkpt>
<trkpt lat="54.371560" lon="-3.117921"><ele>682</ele><time>2020-06-12T11:45:48Z</time><name>PT7481</name></trkpt>
<trkpt lat="54.371567" lon="-3.117919"><ele>682</ele><time>2020-06-12T11:45:49Z</time><name>PT7482</name></trkpt>
<trkpt lat="54.371573" lon="-3.117919"><ele>681</ele><time>2020-06-12T11:45:50Z</time><name>PT7483</name></trkpt>
<trkpt lat="54.371575" lon="-3.117927"><ele>681</ele><time>2020-06-12T11:45:51Z</time><name>PT7484</name></trkpt>
<trkpt lat="54.371578" lon="-3.117937"><ele>680</ele><time>2020-06-12T11:45:52Z</time><name>PT7485</name></trkpt>
<trkpt lat="54.371579" lon="-3.117949"><ele>680</ele><time>2020-06-12T11:45:53Z</time><name>PT7486</name></trkpt>
<trkpt lat="54.371584" lon="-3.117962"><ele>681</ele><time>2020-06-12T11:45:54Z</time><name>PT7487</name></trkpt>
<trkpt lat="54.371580" lon="-3.117972"><ele>680</ele><time>2020-06-12T11:45:55Z</time><name>PT7488</name></trkpt>
<trkpt lat="54.371579" lon="-3.117986"><ele>679</ele><time>2020-06-12T11:45:56Z</time><name>PT7489</name></trkpt>
<trkpt lat="54.371579" lon="-3.117997"><ele>679</ele><time>2020-06-12T11:45:57Z</time><name>PT7490</name></trkpt>
<trkpt lat="54.371579" lon="-3.118006"><ele>678</ele><time>2020-06-12T11:45:58Z</time><name>PT7491</name></trkpt>
<trkpt lat="54.371579" lon="-3.118015"><ele>678</ele><time>2020-06-12T11:45:59Z</time><name>PT7492</name></trkpt>
<trkpt lat="54.371578" lon="-3.118025"><ele>677</ele><time>2020-06-12T11:46:00Z</time><name>PT7493</name></trkpt>
<trkpt lat="54.371579" lon="-3.118034"><ele>677</ele><time>2020-06-12T11:46:01Z</time><name>PT7494</name></trkpt>
<trkpt lat="54.371578" lon="-3.118039"><ele>676</ele><time>2020-06-12T11:46:02Z</time><name>PT7495</name></trkpt>
<trkpt lat="54.371576" lon="-3.118046"><ele>676</ele><time>2020-06-12T11:46:03Z</time><name>PT7496</name></trkpt>
<trkpt lat="54.371574" lon="-3.118051"><ele>675</ele><time>2020-06-12T11:46:04Z</time><name>PT7497</name></trkpt>
<trkpt lat="54.371574" lon="-3.118056"><ele>675</ele><time>2020-06-12T11:46:05Z</time><name>PT7498</name></trkpt>
<trkpt lat="54.371575" lon="-3.118062"><ele>675</ele><time>2020-06-12T11:46:06Z</time><name>PT7499</name></trkpt>
<trkpt lat="54.371573" lon="-3.118068"><ele>675</ele><time>2020-06-12T11:46:07Z</time><name>PT7500</name></trkpt>
<trkpt lat="54.371572" lon="-3.118074"><ele>675</ele><time>2020-06-12T11:46:08Z</time><name>PT7501</name></trkpt>
<trkpt lat="54.371573" lon="-3.118081"><ele>674</ele><time>2020-06-12T11:46:09Z</time><name>PT7502</name></trkpt>
<trkpt lat="54.371574" lon="-3.118091"><ele>674</ele><time>2020-06-12T11:46:10Z</time><name>PT7503</name></trkpt>
<trkpt lat="54.371575" lon="-3.118103"><ele>674</ele><time>2020-06-12T11:46:11Z</time><name>PT7504</name></trkpt>
<trkpt lat="54.371577" lon="-3.118111"><ele>674</ele><time>2020-06-12T11:46:12Z</time><name>PT7505</name></trkpt>
<trkpt lat="54.371582" lon="-3.118122"><ele>675</ele><time>2020-06-12T11:46:13Z</time><name>PT7506</name></trkpt>
<trkpt lat="54.371587" lon="-3.118130"><ele>675</ele><time>2020-06-12T11:46:14Z</time><name>PT7507</name></trkpt>
<trkpt lat="54.371594" lon="-3.118144"><ele>675</ele><time>2020-06-12T11:46:17Z</time><name>PT7508</name></trkpt>
<trkpt lat="54.371597" lon="-3.118155"><ele>675</ele><time>2020-06-12T11:46:18Z</time><name>PT7509</name></trkpt>
<trkpt lat="54.371598" lon="-3.118171"><ele>675</ele><time>2020-06-12T11:46:19Z</time><name>PT7510</name></trkpt>
<trkpt lat="54.371600" lon="-3.118183"><ele>675</ele><time>2020-06-12T11:46:20Z</time><name>PT7511</name></trkpt>
<trkpt lat="54.371602" lon="-3.118196"><ele>674</ele><time>2020-06-12T11:46:21Z</time><name>PT7512</name></trkpt>
<trkpt lat="54.371599" lon="-3.118210"><ele>674</ele><time>2020-06-12T11:46:22Z</time><name>PT7513</name></trkpt>
<trkpt lat="54.371599" lon="-3.118223"><ele>674</ele><time>2020-06-12T11:46:23Z</time><name>PT7514</name></trkpt>
<trkpt lat="54.371600" lon="-3.118233"><ele>674</ele><time>2020-06-12T11:46:24Z</time><name>PT7515</name></trkpt>
<trkpt lat="54.371599" lon="-3.118240"><ele>674</ele><time>2020-06-12T11:46:25Z</time><name>PT7516</name></trkpt>
<trkpt lat="54.371597" lon="-3.118255"><ele>674</ele><time>2020-06-12T11:46:26Z</time><name>PT7517</name></trkpt>
<trkpt lat="54.371601" lon="-3.118263"><ele>674</ele><time>2020-06-12T11:46:27Z</time><name>PT7518</name></trkpt>
<trkpt lat="54.371606" lon="-3.118271"><ele>675</ele><time>2020-06-12T11:46:28Z</time><name>PT7519</name></trkpt>
<trkpt lat="54.371610" lon="-3.118275"><ele>675</ele><time>2020-06-12T11:46:29Z</time><name>PT7520</name></trkpt>
<trkpt lat="54.371609" lon="-3.118276"><ele>674</ele><time>2020-06-12T11:46:32Z</time><name>PT7521</name></trkpt>
<trkpt lat="54.371616" lon="-3.118297"><ele>674</ele><time>2020-06-12T11:46:33Z</time><name>PT7522</name></trkpt>
<trkpt lat="54.371618" lon="-3.118303"><ele>675</ele><time>2020-06-12T11:46:40Z</time><name>PT7523</name></trkpt>
<trkpt lat="54.371621" lon="-3.118321"><ele>675</ele><time>2020-06-12T11:46:41Z</time><name>PT7524</name></trkpt>
<trkpt lat="54.371622" lon="-3.118323"><ele>675</ele><time>2020-06-12T11:46:42Z</time><name>PT7525</name></trkpt>
<trkpt lat="54.371625" lon="-3.118332"><ele>676</ele><time>2020-06-12T11:46:43Z</time><name>PT7526</name></trkpt>
<trkpt lat="54.371625" lon="-3.118332"><ele>676</ele><time>2020-06-12T11:46:44Z</time><name>PT7527</name></trkpt>
<trkpt lat="54.371624" lon="-3.118345"><ele>676</ele><time>2020-06-12T11:46:45Z</time><name>PT7528</name></trkpt>
<trkpt lat="54.371627" lon="-3.118359"><ele>677</ele><time>2020-06-12T11:46:46Z</time><name>PT7529</name></trkpt>
<trkpt lat="54.371629" lon="-3.118364"><ele>676</ele><time>2020-06-12T11:46:47Z</time><name>PT7530</name></trkpt>
<trkpt lat="54.371634" lon="-3.118377"><ele>677</ele><time>2020-06-12T11:46:48Z</time><name>PT7531</name></trkpt>
<trkpt lat="54.371634" lon="-3.118374"><ele>677</ele><time>2020-06-12T11:46:49Z</time><name>PT7532</name></trkpt>
<trkpt lat="54.371637" lon="-3.118375"><ele>676</ele><time>2020-06-12T11:46:50Z</time><name>PT7533</name></trkpt>
<trkpt lat="54.371636" lon="-3.118374"><ele>676</ele><time>2020-06-12T11:46:51Z</time><name>PT7534</name></trkpt>
<trkpt lat="54.371635" lon="-3.118381"><ele>675</ele><time>2020-06-12T11:46:52Z</time><name>PT7535</name></trkpt>
<trkpt lat="54.371635" lon="-3.118380"><ele>675</ele><time>2020-06-12T11:46:53Z</time><name>PT7536</name></trkpt>
<trkpt lat="54.371636" lon="-3.118369"><ele>673</ele><time>2020-06-12T11:46:54Z</time><name>PT7537</name></trkpt>
<trkpt lat="54.371636" lon="-3.118364"><ele>673</ele><time>2020-06-12T11:46:55Z</time><name>PT7538</name></trkpt>
<trkpt lat="54.371631" lon="-3.118343"><ele>673</ele><time>2020-06-12T11:46:57Z</time><name>PT7539</name></trkpt>
<trkpt lat="54.371632" lon="-3.118340"><ele>672</ele><time>2020-06-12T11:46:58Z</time><name>PT7540</name></trkpt>
<trkpt lat="54.371637" lon="-3.118333"><ele>672</ele><time>2020-06-12T11:46:59Z</time><name>PT7541</name></trkpt>
<trkpt lat="54.371640" lon="-3.118332"><ele>672</ele><time>2020-06-12T11:47:00Z</time><name>PT7542</name></trkpt>
<trkpt lat="54.371646" lon="-3.118334"><ele>671</ele><time>2020-06-12T11:47:01Z</time><name>PT7543</name></trkpt>
<trkpt lat="54.371650" lon="-3.118328"><ele>672</ele><time>2020-06-12T11:47:02Z</time><name>PT7544</name></trkpt>
<trkpt lat="54.371656" lon="-3.118322"><ele>671</ele><time>2020-06-12T11:47:03Z</time><name>PT7545</name></trkpt>
<trkpt lat="54.371661" lon="-3.118321"><ele>671</ele><time>2020-06-12T11:47:04Z</time><name>PT7546</name></trkpt>
<trkpt lat="54.371666" lon="-3.118320"><ele>671</ele><time>2020-06-12T11:47:05Z</time><name>PT7547</name></trkpt>
<trkpt lat="54.371670" lon="-3.118321"><ele>670</ele><time>2020-06-12T11:47:06Z</time><name>PT7548</name></trkpt>
<trkpt lat="54.371673" lon="-3.118318"><ele>670</ele><time>2020-06-12T11:47:07Z</time><name>PT7549</name></trkpt>
<trkpt lat="54.371678" lon="-3.118318"><ele>670</ele><time>2020-06-12T11:47:08Z</time><name>PT7550</name></trkpt>
<trkpt lat="54.371680" lon="-3.118317"><ele>669</ele><time>2020-06-12T11:47:09Z</time><name>PT7551</name></trkpt>
<trkpt lat="54.371683" lon="-3.118311"><ele>669</ele><time>2020-06-12T11:47:10Z</time><name>PT7552</name></trkpt>
<trkpt lat="54.371685" lon="-3.118307"><ele>669</ele><time>2020-06-12T11:47:11Z</time><name>PT7553</name></trkpt>
<trkpt lat="54.371685" lon="-3.118301"><ele>668</ele><time>2020-06-12T11:47:12Z</time><name>PT7554</name></trkpt>
<trkpt lat="54.371689" lon="-3.118294"><ele>668</ele><time>2020-06-12T11:47:13Z</time><name>PT7555</name></trkpt>
<trkpt lat="54.371691" lon="-3.118291"><ele>668</ele><time>2020-06-12T11:47:14Z</time><name>PT7556</name></trkpt>
<trkpt lat="54.371693" lon="-3.118285"><ele>667</ele><time>2020-06-12T11:47:15Z</time><name>PT7557</name></trkpt>
<trkpt lat="54.371695" lon="-3.118279"><ele>667</ele><time>2020-06-12T11:47:16Z</time><name>PT7558</name></trkpt>
<trkpt lat="54.371698" lon="-3.118275"><ele>667</ele><time>2020-06-12T11:47:18Z</time><name>PT7559</name></trkpt>
<trkpt lat="54.371705" lon="-3.118263"><ele>667</ele><time>2020-06-12T11:47:19Z</time><name>PT7560</name></trkpt>
<trkpt lat="54.371713" lon="-3.118255"><ele>666</ele><time>2020-06-12T11:47:20Z</time><name>PT7561</name></trkpt>
<trkpt lat="54.371718" lon="-3.118250"><ele>665</ele><time>2020-06-12T11:47:21Z</time><name>PT7562</name></trkpt>
<trkpt lat="54.371721" lon="-3.118248"><ele>665</ele><time>2020-06-12T11:47:22Z</time><name>PT7563</name></trkpt>
<trkpt lat="54.371723" lon="-3.118254"><ele>665</ele><time>2020-06-12T11:47:23Z</time><name>PT7564</name></trkpt>
<trkpt lat="54.371724" lon="-3.118250"><ele>665</ele><time>2020-06-12T11:47:24Z</time><name>PT7565</name></trkpt>
<trkpt lat="54.371722" lon="-3.118245"><ele>665</ele><time>2020-06-12T11:47:25Z</time><name>PT7566</name></trkpt>
<trkpt lat="54.371724" lon="-3.118243"><ele>665</ele><time>2020-06-12T11:47:26Z</time><name>PT7567</name></trkpt>
<trkpt lat="54.371727" lon="-3.118240"><ele>665</ele><time>2020-06-12T11:47:27Z</time><name>PT7568</name></trkpt>
<trkpt lat="54.371730" lon="-3.118235"><ele>664</ele><time>2020-06-12T11:47:28Z</time><name>PT7569</name></trkpt>
<trkpt lat="54.371732" lon="-3.118230"><ele>664</ele><time>2020-06-12T11:47:29Z</time><name>PT7570</name></trkpt>
<trkpt lat="54.371735" lon="-3.118225"><ele>664</ele><time>2020-06-12T11:47:30Z</time><name>PT7571</name></trkpt>
<trkpt lat="54.371738" lon="-3.118222"><ele>664</ele><time>2020-06-12T11:47:31Z</time><name>PT7572</name></trkpt>
<trkpt lat="54.371740" lon="-3.118219"><ele>664</ele><time>2020-06-12T11:47:32Z</time><name>PT7573</name></trkpt>
<trkpt lat="54.371741" lon="-3.118214"><ele>663</ele><time>2020-06-12T11:47:33Z</time><name>PT7574</name></trkpt>
<trkpt lat="54.371743" lon="-3.118213"><ele>663</ele><time>2020-06-12T11:47:34Z</time><name>PT7575</name></trkpt>
<trkpt lat="54.371747" lon="-3.118213"><ele>663</ele><time>2020-06-12T11:47:35Z</time><name>PT7576</name></trkpt>
<trkpt lat="54.371749" lon="-3.118211"><ele>662</ele><time>2020-06-12T11:47:36Z</time><name>PT7577</name></trkpt>
<trkpt lat="54.371754" lon="-3.118212"><ele>663</ele><time>2020-06-12T11:47:37Z</time><name>PT7578</name></trkpt>
<trkpt lat="54.371757" lon="-3.118211"><ele>663</ele><time>2020-06-12T11:47:38Z</time><name>PT7579</name></trkpt>
<trkpt lat="54.371757" lon="-3.118208"><ele>662</ele><time>2020-06-12T11:47:39Z</time><name>PT7580</name></trkpt>
<trkpt lat="54.371762" lon="-3.118211"><ele>663</ele><time>2020-06-12T11:47:40Z</time><name>PT7581</name></trkpt>
<trkpt lat="54.371767" lon="-3.118212"><ele>663</ele><time>2020-06-12T11:47:41Z</time><name>PT7582</name></trkpt>
<trkpt lat="54.371769" lon="-3.118209"><ele>663</ele><time>2020-06-12T11:47:42Z</time><name>PT7583</name></trkpt>
<trkpt lat="54.371772" lon="-3.118205"><ele>663</ele><time>2020-06-12T11:47:43Z</time><name>PT7584</name></trkpt>
<trkpt lat="54.371774" lon="-3.118200"><ele>662</ele><time>2020-06-12T11:47:44Z</time><name>PT7585</name></trkpt>
<trkpt lat="54.371779" lon="-3.118199"><ele>663</ele><time>2020-06-12T11:47:45Z</time><name>PT7586</name></trkpt>
<trkpt lat="54.371781" lon="-3.118196"><ele>662</ele><time>2020-06-12T11:47:46Z</time><name>PT7587</name></trkpt>
<trkpt lat="54.371783" lon="-3.118194"><ele>661</ele><time>2020-06-12T11:47:47Z</time><name>PT7588</name></trkpt>
<trkpt lat="54.371785" lon="-3.118193"><ele>661</ele><time>2020-06-12T11:47:48Z</time><name>PT7589</name></trkpt>
<trkpt lat="54.371785" lon="-3.118192"><ele>661</ele><time>2020-06-12T11:47:49Z</time><name>PT7590</name></trkpt>
<trkpt lat="54.371789" lon="-3.118189"><ele>660</ele><time>2020-06-12T11:47:50Z</time><name>PT7591</name></trkpt>
<trkpt lat="54.371790" lon="-3.118188"><ele>660</ele><time>2020-06-12T11:47:51Z</time><name>PT7592</name></trkpt>
<trkpt lat="54.371793" lon="-3.118182"><ele>659</ele><time>2020-06-12T11:47:52Z</time><name>PT7593</name></trkpt>
<trkpt lat="54.371793" lon="-3.118171"><ele>659</ele><time>2020-06-12T11:47:53Z</time><name>PT7594</name></trkpt>
<trkpt lat="54.371803" lon="-3.118177"><ele>660</ele><time>2020-06-12T11:47:54Z</time><name>PT7595</name></trkpt>
<trkpt lat="54.371807" lon="-3.118181"><ele>660</ele><time>2020-06-12T11:47:55Z</time><name>PT7596</name></trkpt>
<trkpt lat="54.371811" lon="-3.118184"><ele>660</ele><time>2020-06-12T11:47:56Z</time><name>PT7597</name></trkpt>
<trkpt lat="54.371815" lon="-3.118184"><ele>660</ele><time>2020-06-12T11:47:57Z</time><name>PT7598</name></trkpt>
<trkpt lat="54.371821" lon="-3.118184"><ele>660</ele><time>2020-06-12T11:47:58Z</time><name>PT7599</name></trkpt>
<trkpt lat="54.371827" lon="-3.118179"><ele>659</ele><time>2020-06-12T11:47:59Z</time><name>PT7600</name></trkpt>
<trkpt lat="54.371833" lon="-3.118171"><ele>659</ele><time>2020-06-12T11:48:00Z</time><name>PT7601</name></trkpt>
<trkpt lat="54.371839" lon="-3.118163"><ele>659</ele><time>2020-06-12T11:48:01Z</time><name>PT7602</name></trkpt>
<trkpt lat="54.371841" lon="-3.118157"><ele>659</ele><time>2020-06-12T11:48:02Z</time><name>PT7603</name></trkpt>
<trkpt lat="54.371850" lon="-3.118147"><ele>659</ele><time>2020-06-12T11:48:03Z</time><name>PT7604</name></trkpt>
<trkpt lat="54.371853" lon="-3.118139"><ele>659</ele><time>2020-06-12T11:48:04Z</time><name>PT7605</name></trkpt>
<trkpt lat="54.371855" lon="-3.118132"><ele>659</ele><time>2020-06-12T11:48:05Z</time><name>PT7606</name></trkpt>
<trkpt lat="54.371859" lon="-3.118123"><ele>658</ele><time>2020-06-12T11:48:06Z</time><name>PT7607</name></trkpt>
<trkpt lat="54.371865" lon="-3.118120"><ele>658</ele><time>2020-06-12T11:48:07Z</time><name>PT7608</name></trkpt>
<trkpt lat="54.371872" lon="-3.118120"><ele>659</ele><time>2020-06-12T11:48:08Z</time><name>PT7609</name></trkpt>
<trkpt lat="54.371875" lon="-3.118118"><ele>658</ele><time>2020-06-12T11:48:09Z</time><name>PT7610</name></trkpt>
<trkpt lat="54.371880" lon="-3.118111"><ele>658</ele><time>2020-06-12T11:48:10Z</time><name>PT7611</name></trkpt>
<trkpt lat="54.371887" lon="-3.118106"><ele>658</ele><time>2020-06-12T11:48:11Z</time><name>PT7612</name></trkpt>
<trkpt lat="54.371894" lon="-3.118100"><ele>658</ele><time>2020-06-12T11:48:12Z</time><name>PT7613</name></trkpt>
<trkpt lat="54.371901" lon="-3.118096"><ele>658</ele><time>2020-06-12T11:48:13Z</time><name>PT7614</name></trkpt>
<trkpt lat="54.371908" lon="-3.118089"><ele>658</ele><time>2020-06-12T11:48:14Z</time><name>PT7615</name></trkpt>
<trkpt lat="54.371916" lon="-3.118080"><ele>657</ele><time>2020-06-12T11:48:15Z</time><name>PT7616</name></trkpt>
<trkpt lat="54.371921" lon="-3.118069"><ele>657</ele><time>2020-06-12T11:48:16Z</time><name>PT7617</name></trkpt>
<trkpt lat="54.371927" lon="-3.118053"><ele>658</ele><time>2020-06-12T11:48:17Z</time><name>PT7618</name></trkpt>
<trkpt lat="54.371930" lon="-3.118041"><ele>657</ele><time>2020-06-12T11:48:18Z</time><name>PT7619</name></trkpt>
<trkpt lat="54.371937" lon="-3.118033"><ele>657</ele><time>2020-06-12T11:48:19Z</time><name>PT7620</name></trkpt>
<trkpt lat="54.371943" lon="-3.118029"><ele>657</ele><time>2020-06-12T11:48:20Z</time><name>PT7621</name></trkpt>
<trkpt lat="54.371950" lon="-3.118021"><ele>657</ele><time>2020-06-12T11:48:21Z</time><name>PT7622</name></trkpt>
<trkpt lat="54.371958" lon="-3.118020"><ele>658</ele><time>2020-06-12T11:48:22Z</time><name>PT7623</name></trkpt>
<trkpt lat="54.371964" lon="-3.118021"><ele>657</ele><time>2020-06-12T11:48:23Z</time><name>PT7624</name></trkpt>
<trkpt lat="54.371970" lon="-3.118021"><ele>657</ele><time>2020-06-12T11:48:24Z</time><name>PT7625</name></trkpt>
<trkpt lat="54.371977" lon="-3.118027"><ele>657</ele><time>2020-06-12T11:48:25Z</time><name>PT7626</name></trkpt>
<trkpt lat="54.371980" lon="-3.118025"><ele>657</ele><time>2020-06-12T11:48:26Z</time><name>PT7627</name></trkpt>
<trkpt lat="54.371983" lon="-3.118021"><ele>656</ele><time>2020-06-12T11:48:27Z</time><name>PT7628</name></trkpt>
<trkpt lat="54.371986" lon="-3.118009"><ele>656</ele><time>2020-06-12T11:48:28Z</time><name>PT7629</name></trkpt>
<trkpt lat="54.371988" lon="-3.118001"><ele>656</ele><time>2020-06-12T11:48:29Z</time><name>PT7630</name></trkpt>
<trkpt lat="54.371991" lon="-3.117993"><ele>656</ele><time>2020-06-12T11:48:30Z</time><name>PT7631</name></trkpt>
<trkpt lat="54.371992" lon="-3.117988"><ele>655</ele><time>2020-06-12T11:48:31Z</time><name>PT7632</name></trkpt>
<trkpt lat="54.371993" lon="-3.117982"><ele>655</ele><time>2020-06-12T11:48:32Z</time><name>PT7633</name></trkpt>
<trkpt lat="54.371995" lon="-3.117972"><ele>655</ele><time>2020-06-12T11:48:33Z</time><name>PT7634</name></trkpt>
<trkpt lat="54.371998" lon="-3.117961"><ele>655</ele><time>2020-06-12T11:48:34Z</time><name>PT7635</name></trkpt>
<trkpt lat="54.371998" lon="-3.117954"><ele>655</ele><time>2020-06-12T11:48:35Z</time><name>PT7636</name></trkpt>
<trkpt lat="54.371998" lon="-3.117941"><ele>655</ele><time>2020-06-12T11:48:36Z</time><name>PT7637</name></trkpt>
<trkpt lat="54.371999" lon="-3.117936"><ele>654</ele><time>2020-06-12T11:48:37Z</time><name>PT7638</name></trkpt>
<trkpt lat="54.372002" lon="-3.117931"><ele>654</ele><time>2020-06-12T11:48:38Z</time><name>PT7639</name></trkpt>
<trkpt lat="54.372007" lon="-3.117924"><ele>653</ele><time>2020-06-12T11:48:39Z</time><name>PT7640</name></trkpt>
<trkpt lat="54.372013" lon="-3.117926"><ele>653</ele><time>2020-06-12T11:48:40Z</time><name>PT7641</name></trkpt>
<trkpt lat="54.372016" lon="-3.117930"><ele>653</ele><time>2020-06-12T11:48:41Z</time><name>PT7642</name></trkpt>
<trkpt lat="54.372016" lon="-3.117932"><ele>652</ele><time>2020-06-12T11:48:42Z</time><name>PT7643</name></trkpt>
<trkpt lat="54.372016" lon="-3.117929"><ele>652</ele><time>2020-06-12T11:48:43Z</time><name>PT7644</name></trkpt>
<trkpt lat="54.372016" lon="-3.117921"><ele>652</ele><time>2020-06-12T11:48:44Z</time><name>PT7645</name></trkpt>
<trkpt lat="54.372017" lon="-3.117912"><ele>652</ele><time>2020-06-12T11:48:45Z</time><name>PT7646</name></trkpt>
<trkpt lat="54.372018" lon="-3.117904"><ele>652</ele><time>2020-06-12T11:48:46Z</time><name>PT7647</name></trkpt>
<trkpt lat="54.372023" lon="-3.117900"><ele>651</ele><time>2020-06-12T11:48:47Z</time><name>PT7648</name></trkpt>
<trkpt lat="54.372025" lon="-3.117895"><ele>651</ele><time>2020-06-12T11:48:48Z</time><name>PT7649</name></trkpt>
<trkpt lat="54.372029" lon="-3.117891"><ele>651</ele><time>2020-06-12T11:48:49Z</time><name>PT7650</name></trkpt>
<trkpt lat="54.372032" lon="-3.117888"><ele>650</ele><time>2020-06-12T11:48:50Z</time><name>PT7651</name></trkpt>
<trkpt lat="54.372035" lon="-3.117882"><ele>651</ele><time>2020-06-12T11:48:51Z</time><name>PT7652</name></trkpt>
<trkpt lat="54.372036" lon="-3.117879"><ele>650</ele><time>2020-06-12T11:48:52Z</time><name>PT7653</name></trkpt>
<trkpt lat="54.372038" lon="-3.117877"><ele>650</ele><time>2020-06-12T11:48:53Z</time><name>PT7654</name></trkpt>
<trkpt lat="54.372039" lon="-3.117876"><ele>650</ele><time>2020-06-12T11:48:54Z</time><name>PT7655</name></trkpt>
<trkpt lat="54.372040" lon="-3.117878"><ele>650</ele><time>2020-06-12T11:48:55Z</time><name>PT7656</name></trkpt>
<trkpt lat="54.372039" lon="-3.117874"><ele>649</ele><time>2020-06-12T11:48:56Z</time><name>PT7657</name></trkpt>
<trkpt lat="54.372039" lon="-3.117875"><ele>650</ele><time>2020-06-12T11:48:57Z</time><name>PT7658</name></trkpt>
<trkpt lat="54.372037" lon="-3.117874"><ele>649</ele><time>2020-06-12T11:48:58Z</time><name>PT7659</name></trkpt>
<trkpt lat="54.372036" lon="-3.117870"><ele>649</ele><time>2020-06-12T11:48:59Z</time><name>PT7660</name></trkpt>
<trkpt lat="54.372036" lon="-3.117865"><ele>649</ele><time>2020-06-12T11:49:00Z</time><name>PT7661</name></trkpt>
<trkpt lat="54.372036" lon="-3.117861"><ele>648</ele><time>2020-06-12T11:49:01Z</time><name>PT7662</name></trkpt>
<trkpt lat="54.372037" lon="-3.117858"><ele>648</ele><time>2020-06-12T11:49:02Z</time><name>PT7663</name></trkpt>
<trkpt lat="54.372037" lon="-3.117847"><ele>648</ele><time>2020-06-12T11:49:03Z</time><name>PT7664</name></trkpt>
<trkpt lat="54.372038" lon="-3.117840"><ele>648</ele><time>2020-06-12T11:49:04Z</time><name>PT7665</name></trkpt>
<trkpt lat="54.372039" lon="-3.117839"><ele>647</ele><time>2020-06-12T11:49:05Z</time><name>PT7666</name></trkpt>
<trkpt lat="54.372042" lon="-3.117835"><ele>646</ele><time>2020-06-12T11:49:06Z</time><name>PT7667</name></trkpt>
<trkpt lat="54.372046" lon="-3.117828"><ele>646</ele><time>2020-06-12T11:49:07Z</time><name>PT7668</name></trkpt>
<trkpt lat="54.372048" lon="-3.117821"><ele>646</ele><time>2020-06-12T11:49:08Z</time><name>PT7669</name></trkpt>
<trkpt lat="54.372048" lon="-3.117812"><ele>645</ele><time>2020-06-12T11:49:09Z</time><name>PT7670</name></trkpt>
<trkpt lat="54.372053" lon="-3.117809"><ele>646</ele><time>2020-06-12T11:49:10Z</time><name>PT7671</name></trkpt>
<trkpt lat="54.372056" lon="-3.117804"><ele>646</ele><time>2020-06-12T11:49:11Z</time><name>PT7672</name></trkpt>
<trkpt lat="54.372059" lon="-3.117806"><ele>646</ele><time>2020-06-12T11:49:12Z</time><name>PT7673</name></trkpt>
<trkpt lat="54.372065" lon="-3.117806"><ele>646</ele><time>2020-06-12T11:49:13Z</time><name>PT7674</name></trkpt>
<trkpt lat="54.372068" lon="-3.117802"><ele>645</ele><time>2020-06-12T11:49:14Z</time><name>PT7675</name></trkpt>
<trkpt lat="54.372070" lon="-3.117793"><ele>645</ele><time>2020-06-12T11:49:15Z</time><name>PT7676</name></trkpt>
<trkpt lat="54.372076" lon="-3.117791"><ele>645</ele><time>2020-06-12T11:49:16Z</time><name>PT7677</name></trkpt>
<trkpt lat="54.372081" lon="-3.117786"><ele>645</ele><time>2020-06-12T11:49:17Z</time><name>PT7678</name></trkpt>
<trkpt lat="54.372085" lon="-3.117783"><ele>644</ele><time>2020-06-12T11:49:18Z</time><name>PT7679</name></trkpt>
<trkpt lat="54.372090" lon="-3.117780"><ele>644</ele><time>2020-06-12T11:49:19Z</time><name>PT7680</name></trkpt>
<trkpt lat="54.372094" lon="-3.117773"><ele>644</ele><time>2020-06-12T11:49:20Z</time><name>PT7681</name></trkpt>
<trkpt lat="54.372098" lon="-3.117766"><ele>643</ele><time>2020-06-12T11:49:21Z</time><name>PT7682</name></trkpt>
<trkpt lat="54.372106" lon="-3.117763"><ele>644</ele><time>2020-06-12T11:49:22Z</time><name>PT7683</name></trkpt>
<trkpt lat="54.372113" lon="-3.117758"><ele>644</ele><time>2020-06-12T11:49:23Z</time><name>PT7684</name></trkpt>
<trkpt lat="54.372119" lon="-3.117760"><ele>644</ele><time>2020-06-12T11:49:24Z</time><name>PT7685</name></trkpt>
<trkpt lat="54.372125" lon="-3.117761"><ele>644</ele><time>2020-06-12T11:49:25Z</time><name>PT7686</name></trkpt>
<trkpt lat="54.372133" lon="-3.117755"><ele>644</ele><time>2020-06-12T11:49:26Z</time><name>PT7687</name></trkpt>
<trkpt lat="54.372136" lon="-3.117746"><ele>644</ele><time>2020-06-12T11:49:27Z</time><name>PT7688</name></trkpt>
<trkpt lat="54.372141" lon="-3.117734"><ele>643</ele><time>2020-06-12T11:49:28Z</time><name>PT7689</name></trkpt>
<trkpt lat="54.372147" lon="-3.117725"><ele>644</ele><time>2020-06-12T11:49:29Z</time><name>PT7690</name></trkpt>
<trkpt lat="54.372150" lon="-3.117714"><ele>644</ele><time>2020-06-12T11:49:30Z</time><name>PT7691</name></trkpt>
<trkpt lat="54.372150" lon="-3.117705"><ele>643</ele><time>2020-06-12T11:49:31Z</time><name>PT7692</name></trkpt>
<trkpt lat="54.372153" lon="-3.117696"><ele>643</ele><time>2020-06-12T11:49:32Z</time><name>PT7693</name></trkpt>
<trkpt lat="54.372158" lon="-3.117687"><ele>643</ele><time>2020-06-12T11:49:33Z</time><name>PT7694</name></trkpt>
<trkpt lat="54.372164" lon="-3.117681"><ele>643</ele><time>2020-06-12T11:49:34Z</time><name>PT7695</name></trkpt>
<trkpt lat="54.372169" lon="-3.117673"><ele>642</ele><time>2020-06-12T11:49:35Z</time><name>PT7696</name></trkpt>
<trkpt lat="54.372174" lon="-3.117659"><ele>643</ele><time>2020-06-12T11:49:36Z</time><name>PT7697</name></trkpt>
<trkpt lat="54.372176" lon="-3.117650"><ele>643</ele><time>2020-06-12T11:49:37Z</time><name>PT7698</name></trkpt>
<trkpt lat="54.372186" lon="-3.117659"><ele>644</ele><time>2020-06-12T11:49:38Z</time><name>PT7699</name></trkpt>
<trkpt lat="54.372193" lon="-3.117663"><ele>644</ele><time>2020-06-12T11:49:39Z</time><name>PT7700</name></trkpt>
<trkpt lat="54.372199" lon="-3.117665"><ele>644</ele><time>2020-06-12T11:49:40Z</time><name>PT7701</name></trkpt>
<trkpt lat="54.372204" lon="-3.117665"><ele>645</ele><time>2020-06-12T11:49:41Z</time><name>PT7702</name></trkpt>
<trkpt lat="54.372209" lon="-3.117666"><ele>645</ele><time>2020-06-12T11:49:42Z</time><name>PT7703</name></trkpt>
<trkpt lat="54.372210" lon="-3.117664"><ele>644</ele><time>2020-06-12T11:49:43Z</time><name>PT7704</name></trkpt>
<trkpt lat="54.372215" lon="-3.117661"><ele>644</ele><time>2020-06-12T11:49:44Z</time><name>PT7705</name></trkpt>
<trkpt lat="54.372219" lon="-3.117660"><ele>644</ele><time>2020-06-12T11:49:45Z</time><name>PT7706</name></trkpt>
<trkpt lat="54.372221" lon="-3.117658"><ele>644</ele><time>2020-06-12T11:49:46Z</time><name>PT7707</name></trkpt>
<trkpt lat="54.372229" lon="-3.117656"><ele>645</ele><time>2020-06-12T11:49:47Z</time><name>PT7708</name></trkpt>
<trkpt lat="54.372230" lon="-3.117649"><ele>644</ele><time>2020-06-12T11:49:48Z</time><name>PT7709</name></trkpt>
<trkpt lat="54.372234" lon="-3.117644"><ele>644</ele><time>2020-06-12T11:49:49Z</time><name>PT7710</name></trkpt>
<trkpt lat="54.372236" lon="-3.117641"><ele>644</ele><time>2020-06-12T11:49:50Z</time><name>PT7711</name></trkpt>
<trkpt lat="54.372237" lon="-3.117633"><ele>642</ele><time>2020-06-12T11:49:51Z</time><name>PT7712</name></trkpt>
<trkpt lat="54.372245" lon="-3.117630"><ele>643</ele><time>2020-06-12T11:49:52Z</time><name>PT7713</name></trkpt>
<trkpt lat="54.372247" lon="-3.117628"><ele>642</ele><time>2020-06-12T11:49:53Z</time><name>PT7714</name></trkpt>
<trkpt lat="54.372252" lon="-3.117618"><ele>642</ele><time>2020-06-12T11:49:54Z</time><name>PT7715</name></trkpt>
<trkpt lat="54.372258" lon="-3.117612"><ele>643</ele><time>2020-06-12T11:49:55Z</time><name>PT7716</name></trkpt>
<trkpt lat="54.372261" lon="-3.117610"><ele>643</ele><time>2020-06-12T11:49:56Z</time><name>PT7717</name></trkpt>
<trkpt lat="54.372264" lon="-3.117607"><ele>642</ele><time>2020-06-12T11:49:57Z</time><name>PT7718</name></trkpt>
<trkpt lat="54.372269" lon="-3.117605"><ele>642</ele><time>2020-06-12T11:49:58Z</time><name>PT7719</name></trkpt>
<trkpt lat="54.372276" lon="-3.117600"><ele>642</ele><time>2020-06-12T11:49:59Z</time><name>PT7720</name></trkpt>
<trkpt lat="54.372283" lon="-3.117593"><ele>642</ele><time>2020-06-12T11:50:00Z</time><name>PT7721</name></trkpt>
<trkpt lat="54.372288" lon="-3.117583"><ele>642</ele><time>2020-06-12T11:50:01Z</time><name>PT7722</name></trkpt>
<trkpt lat="54.372291" lon="-3.117574"><ele>642</ele><time>2020-06-12T11:50:02Z</time><name>PT7723</name></trkpt>
<trkpt lat="54.372294" lon="-3.117569"><ele>642</ele><time>2020-06-12T11:50:03Z</time><name>PT7724</name></trkpt>
<trkpt lat="54.372296" lon="-3.117564"><ele>642</ele><time>2020-06-12T11:50:04Z</time><name>PT7725</name></trkpt>
<trkpt lat="54.372304" lon="-3.117548"><ele>642</ele><time>2020-06-12T11:50:09Z</time><name>PT7726</name></trkpt>
<trkpt lat="54.372312" lon="-3.117548"><ele>640</ele><time>2020-06-12T11:50:10Z</time><name>PT7727</name></trkpt>
<trkpt lat="54.372319" lon="-3.117531"><ele>640</ele><time>2020-06-12T11:50:11Z</time><name>PT7728</name></trkpt>
<trkpt lat="54.372323" lon="-3.117525"><ele>640</ele><time>2020-06-12T11:50:12Z</time><name>PT7729</name></trkpt>
<trkpt lat="54.372329" lon="-3.117521"><ele>640</ele><time>2020-06-12T11:50:13Z</time><name>PT7730</name></trkpt>
<trkpt lat="54.372334" lon="-3.117514"><ele>640</ele><time>2020-06-12T11:50:14Z</time><name>PT7731</name></trkpt>
<trkpt lat="54.372339" lon="-3.117508"><ele>640</ele><time>2020-06-12T11:50:15Z</time><name>PT7732</name></trkpt>
<trkpt lat="54.372340" lon="-3.117504"><ele>640</ele><time>2020-06-12T11:50:16Z</time><name>PT7733</name></trkpt>
<trkpt lat="54.372340" lon="-3.117500"><ele>640</ele><time>2020-06-12T11:50:17Z</time><name>PT7734</name></trkpt>
<trkpt lat="54.372341" lon="-3.117497"><ele>639</ele><time>2020-06-12T11:50:18Z</time><name>PT7735</name></trkpt>
<trkpt lat="54.372342" lon="-3.117492"><ele>639</ele><time>2020-06-12T11:50:19Z</time><name>PT7736</name></trkpt>
<trkpt lat="54.372343" lon="-3.117487"><ele>639</ele><time>2020-06-12T11:50:20Z</time><name>PT7737</name></trkpt>
<trkpt lat="54.372347" lon="-3.117486"><ele>639</ele><time>2020-06-12T11:50:21Z</time><name>PT7738</name></trkpt>
<trkpt lat="54.372351" lon="-3.117488"><ele>639</ele><time>2020-06-12T11:50:22Z</time><name>PT7739</name></trkpt>
<trkpt lat="54.372352" lon="-3.117483"><ele>639</ele><time>2020-06-12T11:50:23Z</time><name>PT7740</name></trkpt>
<trkpt lat="54.372354" lon="-3.117479"><ele>639</ele><time>2020-06-12T11:50:24Z</time><name>PT7741</name></trkpt>
<trkpt lat="54.372357" lon="-3.117472"><ele>638</ele><time>2020-06-12T11:50:25Z</time><name>PT7742</name></trkpt>
<trkpt lat="54.372362" lon="-3.117468"><ele>638</ele><time>2020-06-12T11:50:26Z</time><name>PT7743</name></trkpt>
<trkpt lat="54.372362" lon="-3.117466"><ele>637</ele><time>2020-06-12T11:50:27Z</time><name>PT7744</name></trkpt>
<trkpt lat="54.372362" lon="-3.117469"><ele>637</ele><time>2020-06-12T11:50:28Z</time><name>PT7745</name></trkpt>
<trkpt lat="54.372363" lon="-3.117465"><ele>637</ele><time>2020-06-12T11:50:29Z</time><name>PT7746</name></trkpt>
<trkpt lat="54.372366" lon="-3.117460"><ele>637</ele><time>2020-06-12T11:50:30Z</time><name>PT7747</name></trkpt>
<trkpt lat="54.372370" lon="-3.117454"><ele>636</ele><time>2020-06-12T11:50:31Z</time><name>PT7748</name></trkpt>
<trkpt lat="54.372374" lon="-3.117446"><ele>636</ele><time>2020-06-12T11:50:32Z</time><name>PT7749</name></trkpt>
<trkpt lat="54.372376" lon="-3.117436"><ele>636</ele><time>2020-06-12T11:50:33Z</time><name>PT7750</name></trkpt>
<trkpt lat="54.372380" lon="-3.117424"><ele>636</ele><time>2020-06-12T11:50:34Z</time><name>PT7751</name></trkpt>
<trkpt lat="54.372383" lon="-3.117419"><ele>636</ele><time>2020-06-12T11:50:35Z</time><name>PT7752</name></trkpt>
<trkpt lat="54.372386" lon="-3.117419"><ele>636</ele><time>2020-06-12T11:50:36Z</time><name>PT7753</name></trkpt>
<trkpt lat="54.372390" lon="-3.117426"><ele>636</ele><time>2020-06-12T11:50:37Z</time><name>PT7754</name></trkpt>
<trkpt lat="54.372393" lon="-3.117426"><ele>636</ele><time>2020-06-12T11:50:41Z</time><name>PT7755</name></trkpt>
<trkpt lat="54.372394" lon="-3.117432"><ele>636</ele><time>2020-06-12T11:50:42Z</time><name>PT7756</name></trkpt>
<trkpt lat="54.372393" lon="-3.117444"><ele>636</ele><time>2020-06-12T11:50:43Z</time><name>PT7757</name></trkpt>
<trkpt lat="54.372392" lon="-3.117446"><ele>636</ele><time>2020-06-12T11:50:44Z</time><name>PT7758</name></trkpt>
<trkpt lat="54.372393" lon="-3.117451"><ele>635</ele><time>2020-06-12T11:50:45Z</time><name>PT7759</name></trkpt>
<trkpt lat="54.372399" lon="-3.117438"><ele>635</ele><time>2020-06-12T11:50:46Z</time><name>PT7760</name></trkpt>
<trkpt lat="54.372407" lon="-3.117448"><ele>636</ele><time>2020-06-12T11:50:47Z</time><name>PT7761</name></trkpt>
<trkpt lat="54.372406" lon="-3.117453"><ele>635</ele><time>2020-06-12T11:50:48Z</time><name>PT7762</name></trkpt>
<trkpt lat="54.372407" lon="-3.117442"><ele>635</ele><time>2020-06-12T11:50:49Z</time><name>PT7763</name></trkpt>
<trkpt lat="54.372411" lon="-3.117429"><ele>635</ele><time>2020-06-12T11:50:50Z</time><name>PT7764</name></trkpt>
<trkpt lat="54.372418" lon="-3.117420"><ele>635</ele><time>2020-06-12T11:50:51Z</time><name>PT7765</name></trkpt>
<trkpt lat="54.372426" lon="-3.117419"><ele>635</ele><time>2020-06-12T11:50:52Z</time><name>PT7766</name></trkpt>
<trkpt lat="54.372434" lon="-3.117421"><ele>634</ele><time>2020-06-12T11:50:53Z</time><name>PT7767</name></trkpt>
<trkpt lat="54.372441" lon="-3.117422"><ele>633</ele><time>2020-06-12T11:50:54Z</time><name>PT7768</name></trkpt>
<trkpt lat="54.372448" lon="-3.117423"><ele>633</ele><time>2020-06-12T11:50:55Z</time><name>PT7769</name></trkpt>
<trkpt lat="54.372457" lon="-3.117416"><ele>633</ele><time>2020-06-12T11:50:56Z</time><name>PT7770</name></trkpt>
<trkpt lat="54.372464" lon="-3.117408"><ele>633</ele><time>2020-06-12T11:50:57Z</time><name>PT7771</name></trkpt>
<trkpt lat="54.372473" lon="-3.117399"><ele>633</ele><time>2020-06-12T11:50:58Z</time><name>PT7772</name></trkpt>
<trkpt lat="54.372481" lon="-3.117391"><ele>632</ele><time>2020-06-12T11:50:59Z</time><name>PT7773</name></trkpt>
<trkpt lat="54.372489" lon="-3.117385"><ele>632</ele><time>2020-06-12T11:51:00Z</time><name>PT7774</name></trkpt>
<trkpt lat="54.372494" lon="-3.117379"><ele>632</ele><time>2020-06-12T11:51:01Z</time><name>PT7775</name></trkpt>
<trkpt lat="54.372501" lon="-3.117369"><ele>632</ele><time>2020-06-12T11:51:02Z</time><name>PT7776</name></trkpt>
<trkpt lat="54.372508" lon="-3.117356"><ele>631</ele><time>2020-06-12T11:51:03Z</time><name>PT7777</name></trkpt>
<trkpt lat="54.372517" lon="-3.117346"><ele>631</ele><time>2020-06-12T11:51:04Z</time><name>PT7778</name></trkpt>
<trkpt lat="54.372524" lon="-3.117336"><ele>631</ele><time>2020-06-12T11:51:05Z</time><name>PT7779</name></trkpt>
<trkpt lat="54.372528" lon="-3.117326"><ele>630</ele><time>2020-06-12T11:51:06Z</time><name>PT7780</name></trkpt>
<trkpt lat="54.372532" lon="-3.117316"><ele>630</ele><time>2020-06-12T11:51:07Z</time><name>PT7781</name></trkpt>
<trkpt lat="54.372540" lon="-3.117307"><ele>629</ele><time>2020-06-12T11:51:08Z</time><name>PT7782</name></trkpt>
<trkpt lat="54.372549" lon="-3.117303"><ele>629</ele><time>2020-06-12T11:51:09Z</time><name>PT7783</name></trkpt>
<trkpt lat="54.372556" lon="-3.117305"><ele>629</ele><time>2020-06-12T11:51:10Z</time><name>PT7784</name></trkpt>
<trkpt lat="54.372566" lon="-3.117314"><ele>630</ele><time>2020-06-12T11:51:11Z</time><name>PT7785</name></trkpt>
<trkpt lat="54.372575" lon="-3.117316"><ele>630</ele><time>2020-06-12T11:51:12Z</time><name>PT7786</name></trkpt>
<trkpt lat="54.372584" lon="-3.117318"><ele>630</ele><time>2020-06-12T11:51:13Z</time><name>PT7787</name></trkpt>
<trkpt lat="54.372591" lon="-3.117322"><ele>629</ele><time>2020-06-12T11:51:14Z</time><name>PT7788</name></trkpt>
<trkpt lat="54.372597" lon="-3.117328"><ele>629</ele><time>2020-06-12T11:51:15Z</time><name>PT7789</name></trkpt>
<trkpt lat="54.372601" lon="-3.117333"><ele>629</ele><time>2020-06-12T11:51:16Z</time><name>PT7790</name></trkpt>
<trkpt lat="54.372605" lon="-3.117340"><ele>629</ele><time>2020-06-12T11:51:17Z</time><name>PT7791</name></trkpt>
<trkpt lat="54.372607" lon="-3.117345"><ele>628</ele><time>2020-06-12T11:51:18Z</time><name>PT7792</name></trkpt>
<trkpt lat="54.372609" lon="-3.117344"><ele>627</ele><time>2020-06-12T11:51:19Z</time><name>PT7793</name></trkpt>
<trkpt lat="54.372612" lon="-3.117345"><ele>627</ele><time>2020-06-12T11:51:20Z</time><name>PT7794</name></trkpt>
<trkpt lat="54.372618" lon="-3.117342"><ele>626</ele><time>2020-06-12T11:51:21Z</time><name>PT7795</name></trkpt>
<trkpt lat="54.372622" lon="-3.117342"><ele>626</ele><time>2020-06-12T11:51:22Z</time><name>PT7796</name></trkpt>
<trkpt lat="54.372624" lon="-3.117353"><ele>625</ele><time>2020-06-12T11:51:23Z</time><name>PT7797</name></trkpt>
<trkpt lat="54.372626" lon="-3.117364"><ele>625</ele><time>2020-06-12T11:51:24Z</time><name>PT7798</name></trkpt>
<trkpt lat="54.372628" lon="-3.117373"><ele>625</ele><time>2020-06-12T11:51:25Z</time><name>PT7799</name></trkpt>
<trkpt lat="54.372633" lon="-3.117385"><ele>625</ele><time>2020-06-12T11:51:26Z</time><name>PT7800</name></trkpt>
<trkpt lat="54.372640" lon="-3.117395"><ele>625</ele><time>2020-06-12T11:51:27Z</time><name>PT7801</name></trkpt>
<trkpt lat="54.372645" lon="-3.117403"><ele>625</ele><time>2020-06-12T11:51:28Z</time><name>PT7802</name></trkpt>
<trkpt lat="54.372649" lon="-3.117414"><ele>625</ele><time>2020-06-12T11:51:29Z</time><name>PT7803</name></trkpt>
<trkpt lat="54.372647" lon="-3.117425"><ele>625</ele><time>2020-06-12T11:51:30Z</time><name>PT7804</name></trkpt>
<trkpt lat="54.372646" lon="-3.117438"><ele>624</ele><time>2020-06-12T11:51:31Z</time><name>PT7805</name></trkpt>
<trkpt lat="54.372643" lon="-3.117445"><ele>624</ele><time>2020-06-12T11:51:32Z</time><name>PT7806</name></trkpt>
<trkpt lat="54.372640" lon="-3.117457"><ele>624</ele><time>2020-06-12T11:51:33Z</time><name>PT7807</name></trkpt>
<trkpt lat="54.372637" lon="-3.117469"><ele>623</ele><time>2020-06-12T11:51:34Z</time><name>PT7808</name></trkpt>
<trkpt lat="54.372635" lon="-3.117477"><ele>623</ele><time>2020-06-12T11:51:35Z</time><name>PT7809</name></trkpt>
<trkpt lat="54.372634" lon="-3.117487"><ele>623</ele><time>2020-06-12T11:51:36Z</time><name>PT7810</name></trkpt>
<trkpt lat="54.372634" lon="-3.117496"><ele>622</ele><time>2020-06-12T11:51:37Z</time><name>PT7811</name></trkpt>
<trkpt lat="54.372634" lon="-3.117507"><ele>621</ele><time>2020-06-12T11:51:38Z</time><name>PT7812</name></trkpt>
<trkpt lat="54.372635" lon="-3.117519"><ele>621</ele><time>2020-06-12T11:51:39Z</time><name>PT7813</name></trkpt>
<trkpt lat="54.372632" lon="-3.117536"><ele>620</ele><time>2020-06-12T11:51:40Z</time><name>PT7814</name></trkpt>
<trkpt lat="54.372628" lon="-3.117554"><ele>620</ele><time>2020-06-12T11:51:41Z</time><name>PT7815</name></trkpt>
<trkpt lat="54.372626" lon="-3.117567"><ele>620</ele><time>2020-06-12T11:51:42Z</time><name>PT7816</name></trkpt>
<trkpt lat="54.372628" lon="-3.117577"><ele>621</ele><time>2020-06-12T11:51:43Z</time><name>PT7817</name></trkpt>
<trkpt lat="54.372623" lon="-3.117588"><ele>620</ele><time>2020-06-12T11:51:44Z</time><name>PT7818</name></trkpt>
<trkpt lat="54.372619" lon="-3.117598"><ele>620</ele><time>2020-06-12T11:51:45Z</time><name>PT7819</name></trkpt>
<trkpt lat="54.372614" lon="-3.117606"><ele>619</ele><time>2020-06-12T11:51:46Z</time><name>PT7820</name></trkpt>
<trkpt lat="54.372609" lon="-3.117615"><ele>619</ele><time>2020-06-12T11:51:47Z</time><name>PT7821</name></trkpt>
<trkpt lat="54.372604" lon="-3.117628"><ele>618</ele><time>2020-06-12T11:51:48Z</time><name>PT7822</name></trkpt>
<trkpt lat="54.372600" lon="-3.117639"><ele>618</ele><time>2020-06-12T11:51:49Z</time><name>PT7823</name></trkpt>
<trkpt lat="54.372595" lon="-3.117650"><ele>617</ele><time>2020-06-12T11:51:50Z</time><name>PT7824</name></trkpt>
<trkpt lat="54.372591" lon="-3.117660"><ele>617</ele><time>2020-06-12T11:51:51Z</time><name>PT7825</name></trkpt>
<trkpt lat="54.372589" lon="-3.117670"><ele>617</ele><time>2020-06-12T11:51:52Z</time><name>PT7826</name></trkpt>
<trkpt lat="54.372585" lon="-3.117679"><ele>617</ele><time>2020-06-12T11:51:53Z</time><name>PT7827</name></trkpt>
<trkpt lat="54.372583" lon="-3.117694"><ele>616</ele><time>2020-06-12T11:51:54Z</time><name>PT7828</name></trkpt>
<trkpt lat="54.372581" lon="-3.117710"><ele>616</ele><time>2020-06-12T11:51:55Z</time><name>PT7829</name></trkpt>
<trkpt lat="54.372578" lon="-3.117728"><ele>615</ele><time>2020-06-12T11:51:56Z</time><name>PT7830</name></trkpt>
<trkpt lat="54.372577" lon="-3.117741"><ele>615</ele><time>2020-06-12T11:51:57Z</time><name>PT7831</name></trkpt>
<trkpt lat="54.372576" lon="-3.117752"><ele>615</ele><time>2020-06-12T11:51:58Z</time><name>PT7832</name></trkpt>
<trkpt lat="54.372575" lon="-3.117760"><ele>615</ele><time>2020-06-12T11:51:59Z</time><name>PT7833</name></trkpt>
<trkpt lat="54.372574" lon="-3.117773"><ele>615</ele><time>2020-06-12T11:52:00Z</time><name>PT7834</name></trkpt>
<trkpt lat="54.372577" lon="-3.117784"><ele>615</ele><time>2020-06-12T11:52:01Z</time><name>PT7835</name></trkpt>
<trkpt lat="54.372578" lon="-3.117794"><ele>615</ele><time>2020-06-12T11:52:02Z</time><name>PT7836</name></trkpt>
<trkpt lat="54.372575" lon="-3.117800"><ele>614</ele><time>2020-06-12T11:52:03Z</time><name>PT7837</name></trkpt>
<trkpt lat="54.372574" lon="-3.117803"><ele>613</ele><time>2020-06-12T11:52:04Z</time><name>PT7838</name></trkpt>
<trkpt lat="54.372573" lon="-3.117814"><ele>612</ele><time>2020-06-12T11:52:05Z</time><name>PT7839</name></trkpt>
<trkpt lat="54.372575" lon="-3.117818"><ele>612</ele><time>2020-06-12T11:52:06Z</time><name>PT7840</name></trkpt>
<trkpt lat="54.372572" lon="-3.117828"><ele>612</ele><time>2020-06-12T11:52:07Z</time><name>PT7841</name></trkpt>
<trkpt lat="54.372570" lon="-3.117841"><ele>612</ele><time>2020-06-12T11:52:08Z</time><name>PT7842</name></trkpt>
<trkpt lat="54.372569" lon="-3.117856"><ele>611</ele><time>2020-06-12T11:52:09Z</time><name>PT7843</name></trkpt>
<trkpt lat="54.372573" lon="-3.117868"><ele>610</ele><time>2020-06-12T11:52:10Z</time><name>PT7844</name></trkpt>
<trkpt lat="54.372573" lon="-3.117883"><ele>610</ele><time>2020-06-12T11:52:11Z</time><name>PT7845</name></trkpt>
<trkpt lat="54.372572" lon="-3.117902"><ele>610</ele><time>2020-06-12T11:52:12Z</time><name>PT7846</name></trkpt>
<trkpt lat="54.372573" lon="-3.117922"><ele>610</ele><time>2020-06-12T11:52:13Z</time><name>PT7847</name></trkpt>
<trkpt lat="54.372571" lon="-3.117935"><ele>610</ele><time>2020-06-12T11:52:14Z</time><name>PT7848</name></trkpt>
<trkpt lat="54.372570" lon="-3.117952"><ele>610</ele><time>2020-06-12T11:52:15Z</time><name>PT7849</name></trkpt>
<trkpt lat="54.372568" lon="-3.117967"><ele>610</ele><time>2020-06-12T11:52:16Z</time><name>PT7850</name></trkpt>
<trkpt lat="54.372568" lon="-3.117982"><ele>610</ele><time>2020-06-12T11:52:17Z</time><name>PT7851</name></trkpt>
<trkpt lat="54.372563" lon="-3.117991"><ele>609</ele><time>2020-06-12T11:52:18Z</time><name>PT7852</name></trkpt>
<trkpt lat="54.372565" lon="-3.117997"><ele>610</ele><time>2020-06-12T11:52:19Z</time><name>PT7853</name></trkpt>
<trkpt lat="54.372561" lon="-3.118007"><ele>610</ele><time>2020-06-12T11:52:20Z</time><name>PT7854</name></trkpt>
<trkpt lat="54.372559" lon="-3.118017"><ele>609</ele><time>2020-06-12T11:52:21Z</time><name>PT7855</name></trkpt>
<trkpt lat="54.372555" lon="-3.118031"><ele>609</ele><time>2020-06-12T11:52:22Z</time><name>PT7856</name></trkpt>
<trkpt lat="54.372551" lon="-3.118045"><ele>609</ele><time>2020-06-12T11:52:23Z</time><name>PT7857</name></trkpt>
<trkpt lat="54.372544" lon="-3.118061"><ele>608</ele><time>2020-06-12T11:52:24Z</time><name>PT7858</name></trkpt>
<trkpt lat="54.372541" lon="-3.118075"><ele>608</ele><time>2020-06-12T11:52:25Z</time><name>PT7859</name></trkpt>
<trkpt lat="54.372535" lon="-3.118095"><ele>608</ele><time>2020-06-12T11:52:26Z</time><name>PT7860</name></trkpt>
<trkpt lat="54.372533" lon="-3.118114"><ele>608</ele><time>2020-06-12T11:52:27Z</time><name>PT7861</name></trkpt>
<trkpt lat="54.372530" lon="-3.118136"><ele>607</ele><time>2020-06-12T11:52:28Z</time><name>PT7862</name></trkpt>
<trkpt lat="54.372529" lon="-3.118159"><ele>607</ele><time>2020-06-12T11:52:29Z</time><name>PT7863</name></trkpt>
<trkpt lat="54.372531" lon="-3.118169"><ele>608</ele><time>2020-06-12T11:52:30Z</time><name>PT7864</name></trkpt>
<trkpt lat="54.372531" lon="-3.118185"><ele>608</ele><time>2020-06-12T11:52:31Z</time><name>PT7865</name></trkpt>
<trkpt lat="54.372528" lon="-3.118198"><ele>607</ele><time>2020-06-12T11:52:32Z</time><name>PT7866</name></trkpt>
<trkpt lat="54.372526" lon="-3.118211"><ele>607</ele><time>2020-06-12T11:52:33Z</time><name>PT7867</name></trkpt>
<trkpt lat="54.372527" lon="-3.118228"><ele>607</ele><time>2020-06-12T11:52:34Z</time><name>PT7868</name></trkpt>
<trkpt lat="54.372526" lon="-3.118244"><ele>606</ele><time>2020-06-12T11:52:35Z</time><name>PT7869</name></trkpt>
<trkpt lat="54.372528" lon="-3.118256"><ele>607</ele><time>2020-06-12T11:52:36Z</time><name>PT7870</name></trkpt>
<trkpt lat="54.372526" lon="-3.118272"><ele>604</ele><time>2020-06-12T11:52:37Z</time><name>PT7871</name></trkpt>
<trkpt lat="54.372524" lon="-3.118285"><ele>604</ele><time>2020-06-12T11:52:38Z</time><name>PT7872</name></trkpt>
<trkpt lat="54.372527" lon="-3.118293"><ele>604</ele><time>2020-06-12T11:52:39Z</time><name>PT7873</name></trkpt>
<trkpt lat="54.372532" lon="-3.118300"><ele>604</ele><time>2020-06-12T11:52:40Z</time><name>PT7874</name></trkpt>
<trkpt lat="54.372532" lon="-3.118310"><ele>604</ele><time>2020-06-12T11:52:41Z</time><name>PT7875</name></trkpt>
<trkpt lat="54.372539" lon="-3.118324"><ele>604</ele><time>2020-06-12T11:52:42Z</time><name>PT7876</name></trkpt>
<trkpt lat="54.372548" lon="-3.118342"><ele>605</ele><time>2020-06-12T11:52:43Z</time><name>PT7877</name></trkpt>
<trkpt lat="54.372552" lon="-3.118357"><ele>605</ele><time>2020-06-12T11:52:44Z</time><name>PT7878</name></trkpt>
<trkpt lat="54.372552" lon="-3.118373"><ele>604</ele><time>2020-06-12T11:52:45Z</time><name>PT7879</name></trkpt>
<trkpt lat="54.372554" lon="-3.118391"><ele>603</ele><time>2020-06-12T11:52:46Z</time><name>PT7880</name></trkpt>
<trkpt lat="54.372559" lon="-3.118409"><ele>603</ele><time>2020-06-12T11:52:47Z</time><name>PT7881</name></trkpt>
<trkpt lat="54.372563" lon="-3.118420"><ele>603</ele><time>2020-06-12T11:52:48Z</time><name>PT7882</name></trkpt>
<trkpt lat="54.372569" lon="-3.118434"><ele>604</ele><time>2020-06-12T11:52:49Z</time><name>PT7883</name></trkpt>
<trkpt lat="54.372573" lon="-3.118444"><ele>604</ele><time>2020-06-12T11:52:50Z</time><name>PT7884</name></trkpt>
<trkpt lat="54.372576" lon="-3.118454"><ele>604</ele><time>2020-06-12T11:52:51Z</time><name>PT7885</name></trkpt>
<trkpt lat="54.372579" lon="-3.118460"><ele>604</ele><time>2020-06-12T11:52:52Z</time><name>PT7886</name></trkpt>
<trkpt lat="54.372581" lon="-3.118463"><ele>604</ele><time>2020-06-12T11:52:53Z</time><name>PT7887</name></trkpt>
<trkpt lat="54.372585" lon="-3.118466"><ele>604</ele><time>2020-06-12T11:52:54Z</time><name>PT7888</name></trkpt>
<trkpt lat="54.372587" lon="-3.118462"><ele>604</ele><time>2020-06-12T11:52:55Z</time><name>PT7889</name></trkpt>
<trkpt lat="54.372593" lon="-3.118465"><ele>605</ele><time>2020-06-12T11:52:56Z</time><name>PT7890</name></trkpt>
<trkpt lat="54.372596" lon="-3.118465"><ele>605</ele><time>2020-06-12T11:52:57Z</time><name>PT7891</name></trkpt>
<trkpt lat="54.372597" lon="-3.118468"><ele>605</ele><time>2020-06-12T11:53:03Z</time><name>PT7892</name></trkpt>
<trkpt lat="54.372601" lon="-3.118472"><ele>605</ele><time>2020-06-12T11:53:04Z</time><name>PT7893</name></trkpt>
<trkpt lat="54.372604" lon="-3.118469"><ele>605</ele><time>2020-06-12T11:53:05Z</time><name>PT7894</name></trkpt>
<trkpt lat="54.372606" lon="-3.118470"><ele>604</ele><time>2020-06-12T11:53:06Z</time><name>PT7895</name></trkpt>
<trkpt lat="54.372607" lon="-3.118471"><ele>604</ele><time>2020-06-12T11:53:07Z</time><name>PT7896</name></trkpt>
<trkpt lat="54.372610" lon="-3.118472"><ele>604</ele><time>2020-06-12T11:53:08Z</time><name>PT7897</name></trkpt>
<trkpt lat="54.372611" lon="-3.118472"><ele>604</ele><time>2020-06-12T11:53:09Z</time><name>PT7898</name></trkpt>
<trkpt lat="54.372613" lon="-3.118470"><ele>605</ele><time>2020-06-12T11:53:11Z</time><name>PT7899</name></trkpt>
<trkpt lat="54.372619" lon="-3.118465"><ele>604</ele><time>2020-06-12T11:53:12Z</time><name>PT7900</name></trkpt>
<trkpt lat="54.372623" lon="-3.118461"><ele>604</ele><time>2020-06-12T11:53:13Z</time><name>PT7901</name></trkpt>
<trkpt lat="54.372626" lon="-3.118455"><ele>604</ele><time>2020-06-12T11:53:14Z</time><name>PT7902</name></trkpt>
<trkpt lat="54.372627" lon="-3.118450"><ele>604</ele><time>2020-06-12T11:53:15Z</time><name>PT7903</name></trkpt>
<trkpt lat="54.372632" lon="-3.118448"><ele>604</ele><time>2020-06-12T11:53:22Z</time><name>PT7904</name></trkpt>
<trkpt lat="54.372639" lon="-3.118444"><ele>604</ele><time>2020-06-12T11:53:23Z</time><name>PT7905</name></trkpt>
<trkpt lat="54.372648" lon="-3.118438"><ele>604</ele><time>2020-06-12T11:53:24Z</time><name>PT7906</name></trkpt>
<trkpt lat="54.372650" lon="-3.118435"><ele>603</ele><time>2020-06-12T11:53:25Z</time><name>PT7907</name></trkpt>
<trkpt lat="54.372656" lon="-3.118433"><ele>603</ele><time>2020-06-12T11:53:26Z</time><name>PT7908</name></trkpt>
<trkpt lat="54.372662" lon="-3.118430"><ele>603</ele><time>2020-06-12T11:53:27Z</time><name>PT7909</name></trkpt>
<trkpt lat="54.372665" lon="-3.118424"><ele>603</ele><time>2020-06-12T11:53:28Z</time><name>PT7910</name></trkpt>
<trkpt lat="54.372671" lon="-3.118417"><ele>602</ele><time>2020-06-12T11:53:29Z</time><name>PT7911</name></trkpt>
<trkpt lat="54.372677" lon="-3.118413"><ele>602</ele><time>2020-06-12T11:53:30Z</time><name>PT7912</name></trkpt>
<trkpt lat="54.372679" lon="-3.118410"><ele>602</ele><time>2020-06-12T11:53:31Z</time><name>PT7913</name></trkpt>
<trkpt lat="54.372683" lon="-3.118405"><ele>601</ele><time>2020-06-12T11:53:32Z</time><name>PT7914</name></trkpt>
<trkpt lat="54.372686" lon="-3.118395"><ele>601</ele><time>2020-06-12T11:53:33Z</time><name>PT7915</name></trkpt>
<trkpt lat="54.372691" lon="-3.118384"><ele>601</ele><time>2020-06-12T11:53:34Z</time><name>PT7916</name></trkpt>
<trkpt lat="54.372696" lon="-3.118377"><ele>601</ele><time>2020-06-12T11:53:35Z</time><name>PT7917</name></trkpt>
<trkpt lat="54.372700" lon="-3.118370"><ele>600</ele><time>2020-06-12T11:53:36Z</time><name>PT7918</name></trkpt>
<trkpt lat="54.372705" lon="-3.118359"><ele>601</ele><time>2020-06-12T11:53:37Z</time><name>PT7919</name></trkpt>
<trkpt lat="54.372708" lon="-3.118353"><ele>600</ele><time>2020-06-12T11:53:38Z</time><name>PT7920</name></trkpt>
<trkpt lat="54.372712" lon="-3.118350"><ele>600</ele><time>2020-06-12T11:53:39Z</time><name>PT7921</name></trkpt>
<trkpt lat="54.372714" lon="-3.118348"><ele>600</ele><time>2020-06-12T11:53:40Z</time><name>PT7922</name></trkpt>
<trkpt lat="54.372713" lon="-3.118345"><ele>600</ele><time>2020-06-12T11:53:41Z</time><name>PT7923</name></trkpt>
<trkpt lat="54.372714" lon="-3.118341"><ele>600</ele><time>2020-06-12T11:53:42Z</time><name>PT7924</name></trkpt>
<trkpt lat="54.372716" lon="-3.118334"><ele>600</ele><time>2020-06-12T11:53:43Z</time><name>PT7925</name></trkpt>
<trkpt lat="54.372720" lon="-3.118327"><ele>600</ele><time>2020-06-12T11:53:44Z</time><name>PT7926</name></trkpt>
<trkpt lat="54.372725" lon="-3.118323"><ele>600</ele><time>2020-06-12T11:53:45Z</time><name>PT7927</name></trkpt>
<trkpt lat="54.372729" lon="-3.118321"><ele>600</ele><time>2020-06-12T11:53:46Z</time><name>PT7928</name></trkpt>
<trkpt lat="54.372731" lon="-3.118323"><ele>600</ele><time>2020-06-12T11:53:47Z</time><name>PT7929</name></trkpt>
<trkpt lat="54.372733" lon="-3.118323"><ele>600</ele><time>2020-06-12T11:53:48Z</time><name>PT7930</name></trkpt>
<trkpt lat="54.372734" lon="-3.118322"><ele>600</ele><time>2020-06-12T11:53:55Z</time><name>PT7931</name></trkpt>
<trkpt lat="54.372736" lon="-3.118321"><ele>600</ele><time>2020-06-12T11:53:56Z</time><name>PT7932</name></trkpt>
<trkpt lat="54.372739" lon="-3.118318"><ele>600</ele><time>2020-06-12T11:53:59Z</time><name>PT7933</name></trkpt>
<trkpt lat="54.372744" lon="-3.118315"><ele>599</ele><time>2020-06-12T11:54:00Z</time><name>PT7934</name></trkpt>
<trkpt lat="54.372749" lon="-3.118313"><ele>599</ele><time>2020-06-12T11:54:02Z</time><name>PT7935</name></trkpt>
<trkpt lat="54.372756" lon="-3.118309"><ele>599</ele><time>2020-06-12T11:54:03Z</time><name>PT7936</name></trkpt>
<trkpt lat="54.372766" lon="-3.118309"><ele>599</ele><time>2020-06-12T11:54:04Z</time><name>PT7937</name></trkpt>
<trkpt lat="54.372778" lon="-3.118305"><ele>598</ele><time>2020-06-12T11:54:05Z</time><name>PT7938</name></trkpt>
<trkpt lat="54.372790" lon="-3.118302"><ele>598</ele><time>2020-06-12T11:54:06Z</time><name>PT7939</name></trkpt>
<trkpt lat="54.372800" lon="-3.118300"><ele>598</ele><time>2020-06-12T11:54:07Z</time><name>PT7940</name></trkpt>
<trkpt lat="54.372809" lon="-3.118301"><ele>598</ele><time>2020-06-12T11:54:08Z</time><name>PT7941</name></trkpt>
<trkpt lat="54.372816" lon="-3.118295"><ele>597</ele><time>2020-06-12T11:54:09Z</time><name>PT7942</name></trkpt>
<trkpt lat="54.372824" lon="-3.118285"><ele>597</ele><time>2020-06-12T11:54:10Z</time><name>PT7943</name></trkpt>
<trkpt lat="54.372829" lon="-3.118272"><ele>597</ele><time>2020-06-12T11:54:11Z</time><name>PT7944</name></trkpt>
<trkpt lat="54.372832" lon="-3.118259"><ele>598</ele><time>2020-06-12T11:54:12Z</time><name>PT7945</name></trkpt>
<trkpt lat="54.372834" lon="-3.118248"><ele>597</ele><time>2020-06-12T11:54:13Z</time><name>PT7946</name></trkpt>
<trkpt lat="54.372838" lon="-3.118237"><ele>597</ele><time>2020-06-12T11:54:14Z</time><name>PT7947</name></trkpt>
<trkpt lat="54.372842" lon="-3.118226"><ele>597</ele><time>2020-06-12T11:54:15Z</time><name>PT7948</name></trkpt>
<trkpt lat="54.372848" lon="-3.118217"><ele>597</ele><time>2020-06-12T11:54:16Z</time><name>PT7949</name></trkpt>
<trkpt lat="54.372855" lon="-3.118210"><ele>597</ele><time>2020-06-12T11:54:17Z</time><name>PT7950</name></trkpt>
<trkpt lat="54.372863" lon="-3.118206"><ele>597</ele><time>2020-06-12T11:54:18Z</time><name>PT7951</name></trkpt>
<trkpt lat="54.372869" lon="-3.118197"><ele>597</ele><time>2020-06-12T11:54:19Z</time><name>PT7952</name></trkpt>
<trkpt lat="54.372875" lon="-3.118187"><ele>597</ele><time>2020-06-12T11:54:20Z</time><name>PT7953</name></trkpt>
<trkpt lat="54.372882" lon="-3.118173"><ele>597</ele><time>2020-06-12T11:54:21Z</time><name>PT7954</name></trkpt>
<trkpt lat="54.372885" lon="-3.118163"><ele>597</ele><time>2020-06-12T11:54:22Z</time><name>PT7955</name></trkpt>
<trkpt lat="54.372889" lon="-3.118154"><ele>597</ele><time>2020-06-12T11:54:23Z</time><name>PT7956</name></trkpt>
<trkpt lat="54.372892" lon="-3.118141"><ele>597</ele><time>2020-06-12T11:54:24Z</time><name>PT7957</name></trkpt>
<trkpt lat="54.372894" lon="-3.118124"><ele>597</ele><time>2020-06-12T11:54:25Z</time><name>PT7958</name></trkpt>
<trkpt lat="54.372899" lon="-3.118111"><ele>597</ele><time>2020-06-12T11:54:26Z</time><name>PT7959</name></trkpt>
<trkpt lat="54.372901" lon="-3.118096"><ele>597</ele><time>2020-06-12T11:54:27Z</time><name>PT7960</name></trkpt>
<trkpt lat="54.372904" lon="-3.118083"><ele>597</ele><time>2020-06-12T11:54:28Z</time><name>PT7961</name></trkpt>
<trkpt lat="54.372910" lon="-3.118073"><ele>596</ele><time>2020-06-12T11:54:29Z</time><name>PT7962</name></trkpt>
<trkpt lat="54.372915" lon="-3.118069"><ele>597</ele><time>2020-06-12T11:54:30Z</time><name>PT7963</name></trkpt>
<trkpt lat="54.372919" lon="-3.118063"><ele>596</ele><time>2020-06-12T11:54:31Z</time><name>PT7964</name></trkpt>
<trkpt lat="54.372922" lon="-3.118053"><ele>596</ele><time>2020-06-12T11:54:32Z</time><name>PT7965</name></trkpt>
<trkpt lat="54.372927" lon="-3.118047"><ele>596</ele><time>2020-06-12T11:54:33Z</time><name>PT7966</name></trkpt>
<trkpt lat="54.372930" lon="-3.118041"><ele>596</ele><time>2020-06-12T11:54:34Z</time><name>PT7967</name></trkpt>
<trkpt lat="54.372935" lon="-3.118038"><ele>596</ele><time>2020-06-12T11:54:35Z</time><name>PT7968</name></trkpt>
<trkpt lat="54.372941" lon="-3.118035"><ele>596</ele><time>2020-06-12T11:54:36Z</time><name>PT7969</name></trkpt>
<trkpt lat="54.372946" lon="-3.118030"><ele>596</ele><time>2020-06-12T11:54:37Z</time><name>PT7970</name></trkpt>
<trkpt lat="54.372951" lon="-3.118021"><ele>595</ele><time>2020-06-12T11:54:38Z</time><name>PT7971</name></trkpt>
<trkpt lat="54.372957" lon="-3.118015"><ele>595</ele><time>2020-06-12T11:54:39Z</time><name>PT7972</name></trkpt>
<trkpt lat="54.372961" lon="-3.118013"><ele>595</ele><time>2020-06-12T11:54:40Z</time><name>PT7973</name></trkpt>
<trkpt lat="54.372963" lon="-3.118007"><ele>595</ele><time>2020-06-12T11:54:41Z</time><name>PT7974</name></trkpt>
<trkpt lat="54.372965" lon="-3.118003"><ele>595</ele><time>2020-06-12T11:54:42Z</time><name>PT7975</name></trkpt>
<trkpt lat="54.372970" lon="-3.117995"><ele>594</ele><time>2020-06-12T11:54:43Z</time><name>PT7976</name></trkpt>
<trkpt lat="54.372975" lon="-3.117986"><ele>595</ele><time>2020-06-12T11:54:44Z</time><name>PT7977</name></trkpt>
<trkpt lat="54.372981" lon="-3.117980"><ele>595</ele><time>2020-06-12T11:54:45Z</time><name>PT7978</name></trkpt>
<trkpt lat="54.372988" lon="-3.117978"><ele>595</ele><time>2020-06-12T11:54:46Z</time><name>PT7979</name></trkpt>
<trkpt lat="54.372993" lon="-3.117974"><ele>595</ele><time>2020-06-12T11:54:47Z</time><name>PT7980</name></trkpt>
<trkpt lat="54.373000" lon="-3.117964"><ele>595</ele><time>2020-06-12T11:54:48Z</time><name>PT7981</name></trkpt>
<trkpt lat="54.373006" lon="-3.117952"><ele>595</ele><time>2020-06-12T11:54:49Z</time><name>PT7982</name></trkpt>
<trkpt lat="54.373014" lon="-3.117943"><ele>595</ele><time>2020-06-12T11:54:50Z</time><name>PT7983</name></trkpt>
<trkpt lat="54.373020" lon="-3.117935"><ele>594</ele><time>2020-06-12T11:54:51Z</time><name>PT7984</name></trkpt>
<trkpt lat="54.373026" lon="-3.117920"><ele>594</ele><time>2020-06-12T11:54:52Z</time><name>PT7985</name></trkpt>
<trkpt lat="54.373033" lon="-3.117912"><ele>594</ele><time>2020-06-12T11:54:53Z</time><name>PT7986</name></trkpt>
<trkpt lat="54.373041" lon="-3.117909"><ele>594</ele><time>2020-06-12T11:54:54Z</time><name>PT7987</name></trkpt>
<trkpt lat="54.373049" lon="-3.117909"><ele>594</ele><time>2020-06-12T11:54:55Z</time><name>PT7988</name></trkpt>
<trkpt lat="54.373058" lon="-3.117909"><ele>593</ele><time>2020-06-12T11:54:56Z</time><name>PT7989</name></trkpt>
<trkpt lat="54.373066" lon="-3.117901"><ele>593</ele><time>2020-06-12T11:54:57Z</time><name>PT7990</name></trkpt>
<trkpt lat="54.373071" lon="-3.117889"><ele>593</ele><time>2020-06-12T11:54:58Z</time><name>PT7991</name></trkpt>
<trkpt lat="54.373078" lon="-3.117874"><ele>593</ele><time>2020-06-12T11:54:59Z</time><name>PT7992</name></trkpt>
<trkpt lat="54.373085" lon="-3.117863"><ele>593</ele><time>2020-06-12T11:55:00Z</time><name>PT7993</name></trkpt>
<trkpt lat="54.373094" lon="-3.117854"><ele>592</ele><time>2020-06-12T11:55:01Z</time><name>PT7994</name></trkpt>
<trkpt lat="54.373105" lon="-3.117840"><ele>592</ele><time>2020-06-12T11:55:02Z</time><name>PT7995</name></trkpt>
<trkpt lat="54.373113" lon="-3.117828"><ele>592</ele><time>2020-06-12T11:55:03Z</time><name>PT7996</name></trkpt>
<trkpt lat="54.373121" lon="-3.117817"><ele>592</ele><time>2020-06-12T11:55:04Z</time><name>PT7997</name></trkpt>
<trkpt lat="54.373128" lon="-3.117806"><ele>592</ele><time>2020-06-12T11:55:05Z</time><name>PT7998</name></trkpt>
<trkpt lat="54.373138" lon="-3.117794"><ele>591</ele><time>2020-06-12T11:55:06Z</time><name>PT7999</name></trkpt>
<trkpt lat="54.373150" lon="-3.117782"><ele>591</ele><time>2020-06-12T11:55:07Z</time><name>PT8000</name></trkpt>
<trkpt lat="54.373160" lon="-3.117774"><ele>591</ele><time>2020-06-12T11:55:08Z</time><name>PT8001</name></trkpt>
<trkpt lat="54.373172" lon="-3.117772"><ele>591</ele><time>2020-06-12T11:55:09Z</time><name>PT8002</name></trkpt>
<trkpt lat="54.373183" lon="-3.117767"><ele>591</ele><time>2020-06-12T11:55:10Z</time><name>PT8003</name></trkpt>
<trkpt lat="54.373194" lon="-3.117758"><ele>591</ele><time>2020-06-12T11:55:11Z</time><name>PT8004</name></trkpt>
<trkpt lat="54.373202" lon="-3.117746"><ele>591</ele><time>2020-06-12T11:55:12Z</time><name>PT8005</name></trkpt>
<trkpt lat="54.373210" lon="-3.117733"><ele>591</ele><time>2020-06-12T11:55:13Z</time><name>PT8006</name></trkpt>
<trkpt lat="54.373217" lon="-3.117717"><ele>591</ele><time>2020-06-12T11:55:14Z</time><name>PT8007</name></trkpt>
<trkpt lat="54.373223" lon="-3.117708"><ele>591</ele><time>2020-06-12T11:55:15Z</time><name>PT8008</name></trkpt>
<trkpt lat="54.373231" lon="-3.117697"><ele>591</ele><time>2020-06-12T11:55:16Z</time><name>PT8009</name></trkpt>
<trkpt lat="54.373240" lon="-3.117689"><ele>590</ele><time>2020-06-12T11:55:17Z</time><name>PT8010</name></trkpt>
<trkpt lat="54.373248" lon="-3.117682"><ele>590</ele><time>2020-06-12T11:55:18Z</time><name>PT8011</name></trkpt>
<trkpt lat="54.373258" lon="-3.117676"><ele>590</ele><time>2020-06-12T11:55:19Z</time><name>PT8012</name></trkpt>
<trkpt lat="54.373267" lon="-3.117671"><ele>590</ele><time>2020-06-12T11:55:20Z</time><name>PT8013</name></trkpt>
<trkpt lat="54.373275" lon="-3.117663"><ele>589</ele><time>2020-06-12T11:55:21Z</time><name>PT8014</name></trkpt>
<trkpt lat="54.373281" lon="-3.117654"><ele>589</ele><time>2020-06-12T11:55:22Z</time><name>PT8015</name></trkpt>
<trkpt lat="54.373288" lon="-3.117646"><ele>589</ele><time>2020-06-12T11:55:23Z</time><name>PT8016</name></trkpt>
<trkpt lat="54.373298" lon="-3.117640"><ele>588</ele><time>2020-06-12T11:55:24Z</time><name>PT8017</name></trkpt>
<trkpt lat="54.373308" lon="-3.117642"><ele>588</ele><time>2020-06-12T11:55:25Z</time><name>PT8018</name></trkpt>
<trkpt lat="54.373316" lon="-3.117640"><ele>588</ele><time>2020-06-12T11:55:26Z</time><name>PT8019</name></trkpt>
<trkpt lat="54.373324" lon="-3.117636"><ele>588</ele><time>2020-06-12T11:55:27Z</time><name>PT8020</name></trkpt>
<trkpt lat="54.373332" lon="-3.117624"><ele>588</ele><time>2020-06-12T11:55:28Z</time><name>PT8021</name></trkpt>
<trkpt lat="54.373338" lon="-3.117612"><ele>587</ele><time>2020-06-12T11:55:29Z</time><name>PT8022</name></trkpt>
<trkpt lat="54.373344" lon="-3.117598"><ele>587</ele><time>2020-06-12T11:55:30Z</time><name>PT8023</name></trkpt>
<trkpt lat="54.373349" lon="-3.117585"><ele>587</ele><time>2020-06-12T11:55:31Z</time><name>PT8024</name></trkpt>
<trkpt lat="54.373356" lon="-3.117575"><ele>587</ele><time>2020-06-12T11:55:32Z</time><name>PT8025</name></trkpt>
<trkpt lat="54.373363" lon="-3.117568"><ele>587</ele><time>2020-06-12T11:55:33Z</time><name>PT8026</name></trkpt>
<trkpt lat="54.373371" lon="-3.117563"><ele>587</ele><time>2020-06-12T11:55:34Z</time><name>PT8027</name></trkpt>
<trkpt lat="54.373379" lon="-3.117558"><ele>587</ele><time>2020-06-12T11:55:35Z</time><name>PT8028</name></trkpt>
<trkpt lat="54.373385" lon="-3.117548"><ele>586</ele><time>2020-06-12T11:55:36Z</time><name>PT8029</name></trkpt>
<trkpt lat="54.373386" lon="-3.117540"><ele>586</ele><time>2020-06-12T11:55:37Z</time><name>PT8030</name></trkpt>
<trkpt lat="54.373386" lon="-3.117532"><ele>586</ele><time>2020-06-12T11:55:38Z</time><name>PT8031</name></trkpt>
<trkpt lat="54.373385" lon="-3.117521"><ele>586</ele><time>2020-06-12T11:55:39Z</time><name>PT8032</name></trkpt>
<trkpt lat="54.373387" lon="-3.117524"><ele>586</ele><time>2020-06-12T11:55:41Z</time><name>PT8033</name></trkpt>
<trkpt lat="54.373399" lon="-3.117522"><ele>586</ele><time>2020-06-12T11:55:42Z</time><name>PT8034</name></trkpt>
<trkpt lat="54.373407" lon="-3.117523"><ele>586</ele><time>2020-06-12T11:55:43Z</time><name>PT8035</name></trkpt>
<trkpt lat="54.373415" lon="-3.117517"><ele>586</ele><time>2020-06-12T11:55:44Z</time><name>PT8036</name></trkpt>
<trkpt lat="54.373424" lon="-3.117508"><ele>585</ele><time>2020-06-12T11:55:45Z</time><name>PT8037</name></trkpt>
<trkpt lat="54.373432" lon="-3.117497"><ele>585</ele><time>2020-06-12T11:55:46Z</time><name>PT8038</name></trkpt>
<trkpt lat="54.373437" lon="-3.117486"><ele>585</ele><time>2020-06-12T11:55:47Z</time><name>PT8039</name></trkpt>
<trkpt lat="54.373439" lon="-3.117476"><ele>585</ele><time>2020-06-12T11:55:48Z</time><name>PT8040</name></trkpt>
<trkpt lat="54.373441" lon="-3.117474"><ele>585</ele><time>2020-06-12T11:55:49Z</time><name>PT8041</name></trkpt>
<trkpt lat="54.373441" lon="-3.117471"><ele>585</ele><time>2020-06-12T11:55:50Z</time><name>PT8042</name></trkpt>
<trkpt lat="54.373443" lon="-3.117470"><ele>585</ele><time>2020-06-12T11:55:51Z</time><name>PT8043</name></trkpt>
<trkpt lat="54.373446" lon="-3.117465"><ele>584</ele><time>2020-06-12T11:55:53Z</time><name>PT8044</name></trkpt>
<trkpt lat="54.373452" lon="-3.117455"><ele>584</ele><time>2020-06-12T11:55:54Z</time><name>PT8045</name></trkpt>
<trkpt lat="54.373455" lon="-3.117446"><ele>584</ele><time>2020-06-12T11:55:55Z</time><name>PT8046</name></trkpt>
<trkpt lat="54.373459" lon="-3.117435"><ele>584</ele><time>2020-06-12T11:55:56Z</time><name>PT8047</name></trkpt>
<trkpt lat="54.373467" lon="-3.117422"><ele>584</ele><time>2020-06-12T11:55:57Z</time><name>PT8048</name></trkpt>
<trkpt lat="54.373473" lon="-3.117413"><ele>583</ele><time>2020-06-12T11:55:58Z</time><name>PT8049</name></trkpt>
<trkpt lat="54.373481" lon="-3.117405"><ele>583</ele><time>2020-06-12T11:55:59Z</time><name>PT8050</name></trkpt>
<trkpt lat="54.373486" lon="-3.117398"><ele>583</ele><time>2020-06-12T11:56:00Z</time><name>PT8051</name></trkpt>
<trkpt lat="54.373490" lon="-3.117394"><ele>583</ele><time>2020-06-12T11:56:01Z</time><name>PT8052</name></trkpt>
<trkpt lat="54.373493" lon="-3.117390"><ele>583</ele><time>2020-06-12T11:56:02Z</time><name>PT8053</name></trkpt>
<trkpt lat="54.373499" lon="-3.117385"><ele>583</ele><time>2020-06-12T11:56:10Z</time><name>PT8054</name></trkpt>
<trkpt lat="54.373505" lon="-3.117376"><ele>583</ele><time>2020-06-12T11:56:11Z</time><name>PT8055</name></trkpt>
<trkpt lat="54.373512" lon="-3.117366"><ele>582</ele><time>2020-06-12T11:56:12Z</time><name>PT8056</name></trkpt>
<trkpt lat="54.373521" lon="-3.117354"><ele>582</ele><time>2020-06-12T11:56:13Z</time><name>PT8057</name></trkpt>
<trkpt lat="54.373525" lon="-3.117342"><ele>582</ele><time>2020-06-12T11:56:14Z</time><name>PT8058</name></trkpt>
<trkpt lat="54.373531" lon="-3.117326"><ele>582</ele><time>2020-06-12T11:56:15Z</time><name>PT8059</name></trkpt>
<trkpt lat="54.373538" lon="-3.117315"><ele>582</ele><time>2020-06-12T11:56:16Z</time><name>PT8060</name></trkpt>
<trkpt lat="54.373544" lon="-3.117305"><ele>582</ele><time>2020-06-12T11:56:17Z</time><name>PT8061</name></trkpt>
<trkpt lat="54.373551" lon="-3.117295"><ele>581</ele><time>2020-06-12T11:56:18Z</time><name>PT8062</name></trkpt>
<trkpt lat="54.373558" lon="-3.117290"><ele>581</ele><time>2020-06-12T11:56:19Z</time><name>PT8063</name></trkpt>
<trkpt lat="54.373570" lon="-3.117289"><ele>581</ele><time>2020-06-12T11:56:20Z</time><name>PT8064</name></trkpt>
<trkpt lat="54.373579" lon="-3.117284"><ele>581</ele><time>2020-06-12T11:56:21Z</time><name>PT8065</name></trkpt>
<trkpt lat="54.373586" lon="-3.117277"><ele>580</ele><time>2020-06-12T11:56:22Z</time><name>PT8066</name></trkpt>
<trkpt lat="54.373595" lon="-3.117268"><ele>580</ele><time>2020-06-12T11:56:23Z</time><name>PT8067</name></trkpt>
<trkpt lat="54.373602" lon="-3.117257"><ele>580</ele><time>2020-06-12T11:56:24Z</time><name>PT8068</name></trkpt>
<trkpt lat="54.373610" lon="-3.117244"><ele>580</ele><time>2020-06-12T11:56:25Z</time><name>PT8069</name></trkpt>
<trkpt lat="54.373618" lon="-3.117229"><ele>580</ele><time>2020-06-12T11:56:26Z</time><name>PT8070</name></trkpt>
<trkpt lat="54.373628" lon="-3.117220"><ele>579</ele><time>2020-06-12T11:56:27Z</time><name>PT8071</name></trkpt>
<trkpt lat="54.373637" lon="-3.117214"><ele>579</ele><time>2020-06-12T11:56:28Z</time><name>PT8072</name></trkpt>
<trkpt lat="54.373648" lon="-3.117210"><ele>579</ele><time>2020-06-12T11:56:29Z</time><name>PT8073</name></trkpt>
<trkpt lat="54.373658" lon="-3.117205"><ele>579</ele><time>2020-06-12T11:56:30Z</time><name>PT8074</name></trkpt>
<trkpt lat="54.373666" lon="-3.117201"><ele>579</ele><time>2020-06-12T11:56:31Z</time><name>PT8075</name></trkpt>
<trkpt lat="54.373676" lon="-3.117197"><ele>578</ele><time>2020-06-12T11:56:32Z</time><name>PT8076</name></trkpt>
<trkpt lat="54.373684" lon="-3.117186"><ele>578</ele><time>2020-06-12T11:56:33Z</time><name>PT8077</name></trkpt>
<trkpt lat="54.373694" lon="-3.117176"><ele>578</ele><time>2020-06-12T11:56:34Z</time><name>PT8078</name></trkpt>
<trkpt lat="54.373704" lon="-3.117170"><ele>578</ele><time>2020-06-12T11:56:35Z</time><name>PT8079</name></trkpt>
<trkpt lat="54.373715" lon="-3.117168"><ele>578</ele><time>2020-06-12T11:56:36Z</time><name>PT8080</name></trkpt>
<trkpt lat="54.373721" lon="-3.117166"><ele>577</ele><time>2020-06-12T11:56:37Z</time><name>PT8081</name></trkpt>
<trkpt lat="54.373730" lon="-3.117154"><ele>578</ele><time>2020-06-12T11:56:38Z</time><name>PT8082</name></trkpt>
<trkpt lat="54.373739" lon="-3.117147"><ele>577</ele><time>2020-06-12T11:56:39Z</time><name>PT8083</name></trkpt>
<trkpt lat="54.373749" lon="-3.117139"><ele>578</ele><time>2020-06-12T11:56:40Z</time><name>PT8084</name></trkpt>
<trkpt lat="54.373758" lon="-3.117130"><ele>577</ele><time>2020-06-12T11:56:41Z</time><name>PT8085</name></trkpt>
<trkpt lat="54.373768" lon="-3.117127"><ele>577</ele><time>2020-06-12T11:56:42Z</time><name>PT8086</name></trkpt>
<trkpt lat="54.373774" lon="-3.117128"><ele>576</ele><time>2020-06-12T11:56:43Z</time><name>PT8087</name></trkpt>
<trkpt lat="54.373783" lon="-3.117125"><ele>576</ele><time>2020-06-12T11:56:44Z</time><name>PT8088</name></trkpt>
<trkpt lat="54.373792" lon="-3.117122"><ele>576</ele><time>2020-06-12T11:56:45Z</time><name>PT8089</name></trkpt>
<trkpt lat="54.373801" lon="-3.117124"><ele>576</ele><time>2020-06-12T11:56:46Z</time><name>PT8090</name></trkpt>
<trkpt lat="54.373809" lon="-3.117125"><ele>576</ele><time>2020-06-12T11:56:47Z</time><name>PT8091</name></trkpt>
<trkpt lat="54.373816" lon="-3.117128"><ele>575</ele><time>2020-06-12T11:56:48Z</time><name>PT8092</name></trkpt>
<trkpt lat="54.373825" lon="-3.117127"><ele>575</ele><time>2020-06-12T11:56:49Z</time><name>PT8093</name></trkpt>
<trkpt lat="54.373833" lon="-3.117126"><ele>575</ele><time>2020-06-12T11:56:50Z</time><name>PT8094</name></trkpt>
<trkpt lat="54.373841" lon="-3.117124"><ele>575</ele><time>2020-06-12T11:56:51Z</time><name>PT8095</name></trkpt>
<trkpt lat="54.373847" lon="-3.117125"><ele>575</ele><time>2020-06-12T11:56:52Z</time><name>PT8096</name></trkpt>
<trkpt lat="54.373856" lon="-3.117128"><ele>575</ele><time>2020-06-12T11:56:53Z</time><name>PT8097</name></trkpt>
<trkpt lat="54.373864" lon="-3.117131"><ele>574</ele><time>2020-06-12T11:56:54Z</time><name>PT8098</name></trkpt>
<trkpt lat="54.373873" lon="-3.117127"><ele>573</ele><time>2020-06-12T11:56:55Z</time><name>PT8099</name></trkpt>
<trkpt lat="54.373884" lon="-3.117119"><ele>573</ele><time>2020-06-12T11:56:56Z</time><name>PT8100</name></trkpt>
<trkpt lat="54.373892" lon="-3.117108"><ele>573</ele><time>2020-06-12T11:56:57Z</time><name>PT8101</name></trkpt>
<trkpt lat="54.373898" lon="-3.117094"><ele>573</ele><time>2020-06-12T11:56:58Z</time><name>PT8102</name></trkpt>
<trkpt lat="54.373903" lon="-3.117076"><ele>573</ele><time>2020-06-12T11:56:59Z</time><name>PT8103</name></trkpt>
<trkpt lat="54.373905" lon="-3.117062"><ele>572</ele><time>2020-06-12T11:57:00Z</time><name>PT8104</name></trkpt>
<trkpt lat="54.373904" lon="-3.117051"><ele>572</ele><time>2020-06-12T11:57:01Z</time><name>PT8105</name></trkpt>
<trkpt lat="54.373904" lon="-3.117036"><ele>571</ele><time>2020-06-12T11:57:02Z</time><name>PT8106</name></trkpt>
<trkpt lat="54.373909" lon="-3.117026"><ele>571</ele><time>2020-06-12T11:57:03Z</time><name>PT8107</name></trkpt>
<trkpt lat="54.373917" lon="-3.117014"><ele>571</ele><time>2020-06-12T11:57:04Z</time><name>PT8108</name></trkpt>
<trkpt lat="54.373921" lon="-3.116999"><ele>570</ele><time>2020-06-12T11:57:05Z</time><name>PT8109</name></trkpt>
<trkpt lat="54.373925" lon="-3.116984"><ele>570</ele><time>2020-06-12T11:57:06Z</time><name>PT8110</name></trkpt>
<trkpt lat="54.373931" lon="-3.116976"><ele>570</ele><time>2020-06-12T11:57:07Z</time><name>PT8111</name></trkpt>
<trkpt lat="54.373937" lon="-3.116963"><ele>570</ele><time>2020-06-12T11:57:08Z</time><name>PT8112</name></trkpt>
<trkpt lat="54.373940" lon="-3.116954"><ele>570</ele><time>2020-06-12T11:57:09Z</time><name>PT8113</name></trkpt>
<trkpt lat="54.373944" lon="-3.116946"><ele>570</ele><time>2020-06-12T11:57:10Z</time><name>PT8114</name></trkpt>
<trkpt lat="54.373947" lon="-3.116934"><ele>570</ele><time>2020-06-12T11:57:11Z</time><name>PT8115</name></trkpt>
<trkpt lat="54.373948" lon="-3.116916"><ele>570</ele><time>2020-06-12T11:57:12Z</time><name>PT8116</name></trkpt>
<trkpt lat="54.373951" lon="-3.116900"><ele>569</ele><time>2020-06-12T11:57:13Z</time><name>PT8117</name></trkpt>
<trkpt lat="54.373957" lon="-3.116886"><ele>569</ele><time>2020-06-12T11:57:14Z</time><name>PT8118</name></trkpt>
<trkpt lat="54.373964" lon="-3.116872"><ele>570</ele><time>2020-06-12T11:57:15Z</time><name>PT8119</name></trkpt>
<trkpt lat="54.373969" lon="-3.116863"><ele>570</ele><time>2020-06-12T11:57:16Z</time><name>PT8120</name></trkpt>
<trkpt lat="54.373972" lon="-3.116854"><ele>569</ele><time>2020-06-12T11:57:17Z</time><name>PT8121</name></trkpt>
<trkpt lat="54.373976" lon="-3.116847"><ele>569</ele><time>2020-06-12T11:57:18Z</time><name>PT8122</name></trkpt>
<trkpt lat="54.373980" lon="-3.116838"><ele>569</ele><time>2020-06-12T11:57:19Z</time><name>PT8123</name></trkpt>
<trkpt lat="54.373984" lon="-3.116828"><ele>569</ele><time>2020-06-12T11:57:20Z</time><name>PT8124</name></trkpt>
<trkpt lat="54.373989" lon="-3.116816"><ele>569</ele><time>2020-06-12T11:57:21Z</time><name>PT8125</name></trkpt>
<trkpt lat="54.373995" lon="-3.116808"><ele>569</ele><time>2020-06-12T11:57:22Z</time><name>PT8126</name></trkpt>
<trkpt lat="54.374000" lon="-3.116802"><ele>569</ele><time>2020-06-12T11:57:23Z</time><name>PT8127</name></trkpt>
<trkpt lat="54.374005" lon="-3.116790"><ele>569</ele><time>2020-06-12T11:57:24Z</time><name>PT8128</name></trkpt>
<trkpt lat="54.374007" lon="-3.116780"><ele>569</ele><time>2020-06-12T11:57:25Z</time><name>PT8129</name></trkpt>
<trkpt lat="54.374011" lon="-3.116771"><ele>569</ele><time>2020-06-12T11:57:26Z</time><name>PT8130</name></trkpt>
<trkpt lat="54.374015" lon="-3.116764"><ele>568</ele><time>2020-06-12T11:57:27Z</time><name>PT8131</name></trkpt>
<trkpt lat="54.374018" lon="-3.116758"><ele>568</ele><time>2020-06-12T11:57:28Z</time><name>PT8132</name></trkpt>
<trkpt lat="54.374023" lon="-3.116750"><ele>568</ele><time>2020-06-12T11:57:29Z</time><name>PT8133</name></trkpt>
<trkpt lat="54.374026" lon="-3.116743"><ele>568</ele><time>2020-06-12T11:57:30Z</time><name>PT8134</name></trkpt>
<trkpt lat="54.374030" lon="-3.116732"><ele>568</ele><time>2020-06-12T11:57:31Z</time><name>PT8135</name></trkpt>
<trkpt lat="54.374035" lon="-3.116723"><ele>568</ele><time>2020-06-12T11:57:32Z</time><name>PT8136</name></trkpt>
<trkpt lat="54.374042" lon="-3.116719"><ele>568</ele><time>2020-06-12T11:57:33Z</time><name>PT8137</name></trkpt>
<trkpt lat="54.374050" lon="-3.116714"><ele>568</ele><time>2020-06-12T11:57:34Z</time><name>PT8138</name></trkpt>
<trkpt lat="54.374053" lon="-3.116707"><ele>568</ele><time>2020-06-12T11:57:35Z</time><name>PT8139</name></trkpt>
<trkpt lat="54.374057" lon="-3.116693"><ele>567</ele><time>2020-06-12T11:57:36Z</time><name>PT8140</name></trkpt>
<trkpt lat="54.374062" lon="-3.116686"><ele>567</ele><time>2020-06-12T11:57:37Z</time><name>PT8141</name></trkpt>
<trkpt lat="54.374068" lon="-3.116677"><ele>567</ele><time>2020-06-12T11:57:38Z</time><name>PT8142</name></trkpt>
<trkpt lat="54.374075" lon="-3.116664"><ele>567</ele><time>2020-06-12T11:57:39Z</time><name>PT8143</name></trkpt>
<trkpt lat="54.374081" lon="-3.116650"><ele>567</ele><time>2020-06-12T11:57:40Z</time><name>PT8144</name></trkpt>
<trkpt lat="54.374089" lon="-3.116634"><ele>567</ele><time>2020-06-12T11:57:41Z</time><name>PT8145</name></trkpt>
<trkpt lat="54.374096" lon="-3.116619"><ele>567</ele><time>2020-06-12T11:57:42Z</time><name>PT8146</name></trkpt>
<trkpt lat="54.374103" lon="-3.116607"><ele>567</ele><time>2020-06-12T11:57:43Z</time><name>PT8147</name></trkpt>
<trkpt lat="54.374111" lon="-3.116599"><ele>567</ele><time>2020-06-12T11:57:44Z</time><name>PT8148</name></trkpt>
<trkpt lat="54.374119" lon="-3.116594"><ele>567</ele><time>2020-06-12T11:57:45Z</time><name>PT8149</name></trkpt>
<trkpt lat="54.374126" lon="-3.116586"><ele>566</ele><time>2020-06-12T11:57:46Z</time><name>PT8150</name></trkpt>
<trkpt lat="54.374133" lon="-3.116577"><ele>567</ele><time>2020-06-12T11:57:47Z</time><name>PT8151</name></trkpt>
<trkpt lat="54.374140" lon="-3.116566"><ele>566</ele><time>2020-06-12T11:57:48Z</time><name>PT8152</name></trkpt>
<trkpt lat="54.374145" lon="-3.116556"><ele>566</ele><time>2020-06-12T11:57:49Z</time><name>PT8153</name></trkpt>
<trkpt lat="54.374149" lon="-3.116549"><ele>566</ele><time>2020-06-12T11:57:50Z</time><name>PT8154</name></trkpt>
<trkpt lat="54.374152" lon="-3.116541"><ele>565</ele><time>2020-06-12T11:57:51Z</time><name>PT8155</name></trkpt>
<trkpt lat="54.374155" lon="-3.116534"><ele>565</ele><time>2020-06-12T11:57:52Z</time><name>PT8156</name></trkpt>
<trkpt lat="54.374161" lon="-3.116529"><ele>565</ele><time>2020-06-12T11:57:53Z</time><name>PT8157</name></trkpt>
<trkpt lat="54.374166" lon="-3.116527"><ele>565</ele><time>2020-06-12T11:57:54Z</time><name>PT8158</name></trkpt>
<trkpt lat="54.374170" lon="-3.116521"><ele>565</ele><time>2020-06-12T11:57:55Z</time><name>PT8159</name></trkpt>
<trkpt lat="54.374173" lon="-3.116516"><ele>565</ele><time>2020-06-12T11:57:56Z</time><name>PT8160</name></trkpt>
<trkpt lat="54.374177" lon="-3.116510"><ele>564</ele><time>2020-06-12T11:57:57Z</time><name>PT8161</name></trkpt>
<trkpt lat="54.374181" lon="-3.116502"><ele>564</ele><time>2020-06-12T11:57:58Z</time><name>PT8162</name></trkpt>
<trkpt lat="54.374186" lon="-3.116493"><ele>564</ele><time>2020-06-12T11:57:59Z</time><name>PT8163</name></trkpt>
<trkpt lat="54.374190" lon="-3.116482"><ele>564</ele><time>2020-06-12T11:58:00Z</time><name>PT8164</name></trkpt>
<trkpt lat="54.374195" lon="-3.116472"><ele>564</ele><time>2020-06-12T11:58:01Z</time><name>PT8165</name></trkpt>
<trkpt lat="54.374204" lon="-3.116461"><ele>564</ele><time>2020-06-12T11:58:02Z</time><name>PT8166</name></trkpt>
<trkpt lat="54.374212" lon="-3.116453"><ele>564</ele><time>2020-06-12T11:58:03Z</time><name>PT8167</name></trkpt>
<trkpt lat="54.374220" lon="-3.116442"><ele>564</ele><time>2020-06-12T11:58:04Z</time><name>PT8168</name></trkpt>
<trkpt lat="54.374227" lon="-3.116429"><ele>564</ele><time>2020-06-12T11:58:05Z</time><name>PT8169</name></trkpt>
<trkpt lat="54.374232" lon="-3.116415"><ele>563</ele><time>2020-06-12T11:58:06Z</time><name>PT8170</name></trkpt>
<trkpt lat="54.374237" lon="-3.116403"><ele>563</ele><time>2020-06-12T11:58:07Z</time><name>PT8171</name></trkpt>
<trkpt lat="54.374241" lon="-3.116393"><ele>562</ele><time>2020-06-12T11:58:08Z</time><name>PT8172</name></trkpt>
<trkpt lat="54.374245" lon="-3.116379"><ele>563</ele><time>2020-06-12T11:58:09Z</time><name>PT8173</name></trkpt>
<trkpt lat="54.374250" lon="-3.116373"><ele>562</ele><time>2020-06-12T11:58:10Z</time><name>PT8174</name></trkpt>
<trkpt lat="54.374257" lon="-3.116366"><ele>562</ele><time>2020-06-12T11:58:11Z</time><name>PT8175</name></trkpt>
<trkpt lat="54.374265" lon="-3.116365"><ele>562</ele><time>2020-06-12T11:58:12Z</time><name>PT8176</name></trkpt>
<trkpt lat="54.374268" lon="-3.116364"><ele>562</ele><time>2020-06-12T11:58:13Z</time><name>PT8177</name></trkpt>
<trkpt lat="54.374267" lon="-3.116356"><ele>561</ele><time>2020-06-12T11:58:14Z</time><name>PT8178</name></trkpt>
<trkpt lat="54.374268" lon="-3.116342"><ele>561</ele><time>2020-06-12T11:58:15Z</time><name>PT8179</name></trkpt>
<trkpt lat="54.374272" lon="-3.116326"><ele>560</ele><time>2020-06-12T11:58:16Z</time><name>PT8180</name></trkpt>
<trkpt lat="54.374275" lon="-3.116316"><ele>559</ele><time>2020-06-12T11:58:17Z</time><name>PT8181</name></trkpt>
<trkpt lat="54.374278" lon="-3.116302"><ele>559</ele><time>2020-06-12T11:58:18Z</time><name>PT8182</name></trkpt>
<trkpt lat="54.374279" lon="-3.116294"><ele>559</ele><time>2020-06-12T11:58:19Z</time><name>PT8183</name></trkpt>
<trkpt lat="54.374282" lon="-3.116281"><ele>558</ele><time>2020-06-12T11:58:20Z</time><name>PT8184</name></trkpt>
<trkpt lat="54.374284" lon="-3.116277"><ele>558</ele><time>2020-06-12T11:58:21Z</time><name>PT8185</name></trkpt>
<trkpt lat="54.374284" lon="-3.116277"><ele>558</ele><time>2020-06-12T11:58:22Z</time><name>PT8186</name></trkpt>
<trkpt lat="54.374286" lon="-3.116272"><ele>558</ele><time>2020-06-12T11:58:23Z</time><name>PT8187</name></trkpt>
<trkpt lat="54.374285" lon="-3.116265"><ele>557</ele><time>2020-06-12T11:58:24Z</time><name>PT8188</name></trkpt>
<trkpt lat="54.374284" lon="-3.116264"><ele>557</ele><time>2020-06-12T11:58:25Z</time><name>PT8189</name></trkpt>
<trkpt lat="54.374283" lon="-3.116263"><ele>557</ele><time>2020-06-12T11:58:26Z</time><name>PT8190</name></trkpt>
<trkpt lat="54.374283" lon="-3.116264"><ele>557</ele><time>2020-06-12T11:58:30Z</time><name>PT8191</name></trkpt>
<trkpt lat="54.374283" lon="-3.116264"><ele>556</ele><time>2020-06-12T11:58:31Z</time><name>PT8192</name></trkpt>
<trkpt lat="54.374282" lon="-3.116263"><ele>556</ele><time>2020-06-12T11:58:32Z</time><name>PT8193</name></trkpt>
<trkpt lat="54.374282" lon="-3.116260"><ele>556</ele><time>2020-06-12T11:58:39Z</time><name>PT8194</name></trkpt>
<trkpt lat="54.374282" lon="-3.116256"><ele>556</ele><time>2020-06-12T11:58:40Z</time><name>PT8195</name></trkpt>
<trkpt lat="54.374283" lon="-3.116253"><ele>556</ele><time>2020-06-12T11:58:41Z</time><name>PT8196</name></trkpt>
<trkpt lat="54.374284" lon="-3.116252"><ele>556</ele><time>2020-06-12T11:58:42Z</time><name>PT8197</name></trkpt>
<trkpt lat="54.374284" lon="-3.116257"><ele>556</ele><time>2020-06-12T11:59:09Z</time><name>PT8198</name></trkpt>
<trkpt lat="54.374286" lon="-3.116259"><ele>556</ele><time>2020-06-12T11:59:10Z</time><name>PT8199</name></trkpt>
<trkpt lat="54.374290" lon="-3.116261"><ele>556</ele><time>2020-06-12T11:59:11Z</time><name>PT8200</name></trkpt>
<trkpt lat="54.374294" lon="-3.116264"><ele>556</ele><time>2020-06-12T11:59:12Z</time><name>PT8201</name></trkpt>
<trkpt lat="54.374299" lon="-3.116268"><ele>556</ele><time>2020-06-12T11:59:13Z</time><name>PT8202</name></trkpt>
<trkpt lat="54.374302" lon="-3.116267"><ele>556</ele><time>2020-06-12T11:59:14Z</time><name>PT8203</name></trkpt>
<trkpt lat="54.374307" lon="-3.116280"><ele>555</ele><time>2020-06-12T11:59:15Z</time><name>PT8204</name></trkpt>
<trkpt lat="54.374310" lon="-3.116296"><ele>555</ele><time>2020-06-12T11:59:16Z</time><name>PT8205</name></trkpt>
<trkpt lat="54.374313" lon="-3.116309"><ele>555</ele><time>2020-06-12T11:59:17Z</time><name>PT8206</name></trkpt>
<trkpt lat="54.374319" lon="-3.116324"><ele>555</ele><time>2020-06-12T11:59:18Z</time><name>PT8207</name></trkpt>
<trkpt lat="54.374324" lon="-3.116338"><ele>555</ele><time>2020-06-12T11:59:19Z</time><name>PT8208</name></trkpt>
<trkpt lat="54.374327" lon="-3.116357"><ele>555</ele><time>2020-06-12T11:59:20Z</time><name>PT8209</name></trkpt>
<trkpt lat="54.374328" lon="-3.116372"><ele>555</ele><time>2020-06-12T11:59:21Z</time><name>PT8210</name></trkpt>
<trkpt lat="54.374331" lon="-3.116388"><ele>555</ele><time>2020-06-12T11:59:22Z</time><name>PT8211</name></trkpt>
<trkpt lat="54.374336" lon="-3.116404"><ele>555</ele><time>2020-06-12T11:59:23Z</time><name>PT8212</name></trkpt>
<trkpt lat="54.374340" lon="-3.116420"><ele>555</ele><time>2020-06-12T11:59:24Z</time><name>PT8213</name></trkpt>
<trkpt lat="54.374344" lon="-3.116433"><ele>555</ele><time>2020-06-12T11:59:25Z</time><name>PT8214</name></trkpt>
<trkpt lat="54.374349" lon="-3.116446"><ele>554</ele><time>2020-06-12T11:59:26Z</time><name>PT8215</name></trkpt>
<trkpt lat="54.374354" lon="-3.116459"><ele>554</ele><time>2020-06-12T11:59:27Z</time><name>PT8216</name></trkpt>
<trkpt lat="54.374360" lon="-3.116472"><ele>554</ele><time>2020-06-12T11:59:28Z</time><name>PT8217</name></trkpt>
<trkpt lat="54.374367" lon="-3.116489"><ele>554</ele><time>2020-06-12T11:59:29Z</time><name>PT8218</name></trkpt>
<trkpt lat="54.374374" lon="-3.116506"><ele>554</ele><time>2020-06-12T11:59:30Z</time><name>PT8219</name></trkpt>
<trkpt lat="54.374379" lon="-3.116523"><ele>554</ele><time>2020-06-12T11:59:31Z</time><name>PT8220</name></trkpt>
<trkpt lat="54.374381" lon="-3.116540"><ele>554</ele><time>2020-06-12T11:59:32Z</time><name>PT8221</name></trkpt>
<trkpt lat="54.374384" lon="-3.116552"><ele>554</ele><time>2020-06-12T11:59:33Z</time><name>PT8222</name></trkpt>
<trkpt lat="54.374390" lon="-3.116563"><ele>554</ele><time>2020-06-12T11:59:34Z</time><name>PT8223</name></trkpt>
<trkpt lat="54.374395" lon="-3.116576"><ele>554</ele><time>2020-06-12T11:59:35Z</time><name>PT8224</name></trkpt>
<trkpt lat="54.374398" lon="-3.116588"><ele>553</ele><time>2020-06-12T11:59:36Z</time><name>PT8225</name></trkpt>
<trkpt lat="54.374399" lon="-3.116604"><ele>553</ele><time>2020-06-12T11:59:37Z</time><name>PT8226</name></trkpt>
<trkpt lat="54.374398" lon="-3.116620"><ele>553</ele><time>2020-06-12T11:59:38Z</time><name>PT8227</name></trkpt>
<trkpt lat="54.374397" lon="-3.116632"><ele>553</ele><time>2020-06-12T11:59:39Z</time><name>PT8228</name></trkpt>
<trkpt lat="54.374402" lon="-3.116641"><ele>553</ele><time>2020-06-12T11:59:40Z</time><name>PT8229</name></trkpt>
<trkpt lat="54.374402" lon="-3.116653"><ele>553</ele><time>2020-06-12T11:59:41Z</time><name>PT8230</name></trkpt>
<trkpt lat="54.374402" lon="-3.116660"><ele>553</ele><time>2020-06-12T11:59:42Z</time><name>PT8231</name></trkpt>
<trkpt lat="54.374402" lon="-3.116671"><ele>552</ele><time>2020-06-12T11:59:43Z</time><name>PT8232</name></trkpt>
<trkpt lat="54.374404" lon="-3.116680"><ele>552</ele><time>2020-06-12T11:59:44Z</time><name>PT8233</name></trkpt>
<trkpt lat="54.374405" lon="-3.116684"><ele>552</ele><time>2020-06-12T11:59:45Z</time><name>PT8234</name></trkpt>
<trkpt lat="54.374407" lon="-3.116686"><ele>552</ele><time>2020-06-12T11:59:46Z</time><name>PT8235</name></trkpt>
<trkpt lat="54.374410" lon="-3.116689"><ele>552</ele><time>2020-06-12T11:59:47Z</time><name>PT8236</name></trkpt>
<trkpt lat="54.374414" lon="-3.116693"><ele>552</ele><time>2020-06-12T11:59:48Z</time><name>PT8237</name></trkpt>
<trkpt lat="54.374417" lon="-3.116696"><ele>552</ele><time>2020-06-12T11:59:51Z</time><name>PT8238</name></trkpt>
<trkpt lat="54.374418" lon="-3.116698"><ele>552</ele><time>2020-06-12T11:59:52Z</time><name>PT8239</name></trkpt>
<trkpt lat="54.374420" lon="-3.116703"><ele>552</ele><time>2020-06-12T11:59:53Z</time><name>PT8240</name></trkpt>
<trkpt lat="54.374424" lon="-3.116707"><ele>552</ele><time>2020-06-12T11:59:54Z</time><name>PT8241</name></trkpt>
<trkpt lat="54.374423" lon="-3.116710"><ele>552</ele><time>2020-06-12T11:59:55Z</time><name>PT8242</name></trkpt>
<trkpt lat="54.374423" lon="-3.116719"><ele>552</ele><time>2020-06-12T11:59:56Z</time><name>PT8243</name></trkpt>
<trkpt lat="54.374421" lon="-3.116732"><ele>552</ele><time>2020-06-12T11:59:57Z</time><name>PT8244</name></trkpt>
<trkpt lat="54.374416" lon="-3.116745"><ele>552</ele><time>2020-06-12T11:59:58Z</time><name>PT8245</name></trkpt>
<trkpt lat="54.374414" lon="-3.116752"><ele>552</ele><time>2020-06-12T11:59:59Z</time><name>PT8246</name></trkpt>
<trkpt lat="54.374410" lon="-3.116755"><ele>552</ele><time>2020-06-12T12:00:00Z</time><name>PT8247</name></trkpt>
<trkpt lat="54.374408" lon="-3.116759"><ele>552</ele><time>2020-06-12T12:00:01Z</time><name>PT8248</name></trkpt>
<trkpt lat="54.374401" lon="-3.116754"><ele>552</ele><time>2020-06-12T12:00:06Z</time><name>PT8249</name></trkpt>
<trkpt lat="54.374390" lon="-3.116755"><ele>552</ele><time>2020-06-12T12:00:07Z</time><name>PT8250</name></trkpt>
<trkpt lat="54.374387" lon="-3.116754"><ele>551</ele><time>2020-06-12T12:00:08Z</time><name>PT8251</name></trkpt>
<trkpt lat="54.374383" lon="-3.116750"><ele>551</ele><time>2020-06-12T12:00:09Z</time><name>PT8252</name></trkpt>
<trkpt lat="54.374380" lon="-3.116744"><ele>551</ele><time>2020-06-12T12:00:10Z</time><name>PT8253</name></trkpt>
<trkpt lat="54.374380" lon="-3.116740"><ele>551</ele><time>2020-06-12T12:00:11Z</time><name>PT8254</name></trkpt>
<trkpt lat="54.374382" lon="-3.116735"><ele>551</ele><time>2020-06-12T12:00:12Z</time><name>PT8255</name></trkpt>
<trkpt lat="54.374380" lon="-3.116730"><ele>551</ele><time>2020-06-12T12:00:14Z</time><name>PT8256</name></trkpt>
<trkpt lat="54.374376" lon="-3.116728"><ele>551</ele><time>2020-06-12T12:00:15Z</time><name>PT8257</name></trkpt>
<trkpt lat="54.374369" lon="-3.116719"><ele>551</ele><time>2020-06-12T12:00:16Z</time><name>PT8258</name></trkpt>
<trkpt lat="54.374364" lon="-3.116714"><ele>551</ele><time>2020-06-12T12:00:17Z</time><name>PT8259</name></trkpt>
<trkpt lat="54.374357" lon="-3.116712"><ele>551</ele><time>2020-06-12T12:00:18Z</time><name>PT8260</name></trkpt>
<trkpt lat="54.374351" lon="-3.116709"><ele>551</ele><time>2020-06-12T12:00:19Z</time><name>PT8261</name></trkpt>
<trkpt lat="54.374347" lon="-3.116703"><ele>551</ele><time>2020-06-12T12:00:20Z</time><name>PT8262</name></trkpt>
<trkpt lat="54.374349" lon="-3.116707"><ele>551</ele><time>2020-06-12T12:00:21Z</time><name>PT8263</name></trkpt>
<trkpt lat="54.374350" lon="-3.116708"><ele>551</ele><time>2020-06-12T12:00:22Z</time><name>PT8264</name></trkpt>
<trkpt lat="54.374352" lon="-3.116714"><ele>552</ele><time>2020-06-12T12:00:23Z</time><name>PT8265</name></trkpt>
<trkpt lat="54.374346" lon="-3.116691"><ele>551</ele><time>2020-06-12T12:09:27Z</time><name>PT8266</name></trkpt>
<trkpt lat="54.374347" lon="-3.116687"><ele>552</ele><time>2020-06-12T12:09:28Z</time><name>PT8267</name></trkpt>
<trkpt lat="54.374347" lon="-3.116682"><ele>552</ele><time>2020-06-12T12:09:29Z</time><name>PT8268</name></trkpt>
<trkpt lat="54.374347" lon="-3.116696"><ele>552</ele><time>2020-06-12T12:11:56Z</time><name>PT8269</name></trkpt>
<trkpt lat="54.374345" lon="-3.116702"><ele>552</ele><time>2020-06-12T12:11:57Z</time><name>PT8270</name></trkpt>
<trkpt lat="54.374344" lon="-3.116708"><ele>553</ele><time>2020-06-12T12:11:58Z</time><name>PT8271</name></trkpt>
<trkpt lat="54.374346" lon="-3.116698"><ele>553</ele><time>2020-06-12T12:13:50Z</time><name>PT8272</name></trkpt>
<trkpt lat="54.374338" lon="-3.116710"><ele>554</ele><time>2020-06-12T12:13:51Z</time><name>PT8273</name></trkpt>
<trkpt lat="54.374348" lon="-3.116721"><ele>555</ele><time>2020-06-12T12:13:54Z</time><name>PT8274</name></trkpt>
<trkpt lat="54.374352" lon="-3.116736"><ele>555</ele><time>2020-06-12T12:13:55Z</time><name>PT8275</name></trkpt>
<trkpt lat="54.374347" lon="-3.116740"><ele>555</ele><time>2020-06-12T12:14:08Z</time><name>PT8276</name></trkpt>
<trkpt lat="54.374346" lon="-3.116731"><ele>555</ele><time>2020-06-12T12:14:09Z</time><name>PT8277</name></trkpt>
<trkpt lat="54.374342" lon="-3.116721"><ele>555</ele><time>2020-06-12T12:14:10Z</time><name>PT8278</name></trkpt>
<trkpt lat="54.374338" lon="-3.116703"><ele>556</ele><time>2020-06-12T12:14:11Z</time><name>PT8279</name></trkpt>
<trkpt lat="54.374336" lon="-3.116689"><ele>555</ele><time>2020-06-12T12:14:12Z</time><name>PT8280</name></trkpt>
<trkpt lat="54.374333" lon="-3.116681"><ele>555</ele><time>2020-06-12T12:14:13Z</time><name>PT8281</name></trkpt>
<trkpt lat="54.374329" lon="-3.116676"><ele>555</ele><time>2020-06-12T12:14:14Z</time><name>PT8282</name></trkpt>
<trkpt lat="54.374327" lon="-3.116671"><ele>554</ele><time>2020-06-12T12:14:15Z</time><name>PT8283</name></trkpt>
<trkpt lat="54.374324" lon="-3.116666"><ele>554</ele><time>2020-06-12T12:14:17Z</time><name>PT8284</name></trkpt>
<trkpt lat="54.374323" lon="-3.116660"><ele>554</ele><time>2020-06-12T12:14:18Z</time><name>PT8285</name></trkpt>
<trkpt lat="54.374320" lon="-3.116660"><ele>554</ele><time>2020-06-12T12:14:19Z</time><name>PT8286</name></trkpt>
<trkpt lat="54.374317" lon="-3.116664"><ele>554</ele><time>2020-06-12T12:14:20Z</time><name>PT8287</name></trkpt>
<trkpt lat="54.374312" lon="-3.116650"><ele>553</ele><time>2020-06-12T12:14:21Z</time><name>PT8288</name></trkpt>
<trkpt lat="54.374310" lon="-3.116629"><ele>553</ele><time>2020-06-12T12:14:22Z</time><name>PT8289</name></trkpt>
<trkpt lat="54.374307" lon="-3.116618"><ele>553</ele><time>2020-06-12T12:14:23Z</time><name>PT8290</name></trkpt>
<trkpt lat="54.374306" lon="-3.116607"><ele>553</ele><time>2020-06-12T12:14:24Z</time><name>PT8291</name></trkpt>
<trkpt lat="54.374309" lon="-3.116596"><ele>552</ele><time>2020-06-12T12:14:25Z</time><name>PT8292</name></trkpt>
<trkpt lat="54.374307" lon="-3.116590"><ele>552</ele><time>2020-06-12T12:14:26Z</time><name>PT8293</name></trkpt>
<trkpt lat="54.374304" lon="-3.116583"><ele>551</ele><time>2020-06-12T12:14:27Z</time><name>PT8294</name></trkpt>
<trkpt lat="54.374305" lon="-3.116580"><ele>551</ele><time>2020-06-12T12:14:28Z</time><name>PT8295</name></trkpt>
<trkpt lat="54.374310" lon="-3.116577"><ele>551</ele><time>2020-06-12T12:14:29Z</time><name>PT8296</name></trkpt>
<trkpt lat="54.374313" lon="-3.116572"><ele>551</ele><time>2020-06-12T12:14:30Z</time><name>PT8297</name></trkpt>
<trkpt lat="54.374322" lon="-3.116573"><ele>550</ele><time>2020-06-12T12:14:31Z</time><name>PT8298</name></trkpt>
<trkpt lat="54.374326" lon="-3.116572"><ele>550</ele><time>2020-06-12T12:14:32Z</time><name>PT8299</name></trkpt>
<trkpt lat="54.374329" lon="-3.116567"><ele>550</ele><time>2020-06-12T12:14:33Z</time><name>PT8300</name></trkpt>
<trkpt lat="54.374335" lon="-3.116561"><ele>550</ele><time>2020-06-12T12:14:34Z</time><name>PT8301</name></trkpt>
<trkpt lat="54.374340" lon="-3.116555"><ele>550</ele><time>2020-06-12T12:14:35Z</time><name>PT8302</name></trkpt>
<trkpt lat="54.374345" lon="-3.116554"><ele>549</ele><time>2020-06-12T12:14:36Z</time><name>PT8303</name></trkpt>
<trkpt lat="54.374347" lon="-3.116550"><ele>549</ele><time>2020-06-12T12:14:37Z</time><name>PT8304</name></trkpt>
<trkpt lat="54.374350" lon="-3.116545"><ele>549</ele><time>2020-06-12T12:14:38Z</time><name>PT8305</name></trkpt>
<trkpt lat="54.374349" lon="-3.116545"><ele>549</ele><time>2020-06-12T12:14:41Z</time><name>PT8306</name></trkpt>
<trkpt lat="54.374350" lon="-3.116540"><ele>549</ele><time>2020-06-12T12:14:42Z</time><name>PT8307</name></trkpt>
<trkpt lat="54.374351" lon="-3.116531"><ele>549</ele><time>2020-06-12T12:14:43Z</time><name>PT8308</name></trkpt>
<trkpt lat="54.374350" lon="-3.116522"><ele>548</ele><time>2020-06-12T12:14:44Z</time><name>PT8309</name></trkpt>
<trkpt lat="54.374348" lon="-3.116510"><ele>548</ele><time>2020-06-12T12:14:45Z</time><name>PT8310</name></trkpt>
<trkpt lat="54.374348" lon="-3.116493"><ele>549</ele><time>2020-06-12T12:14:46Z</time><name>PT8311</name></trkpt>
<trkpt lat="54.374349" lon="-3.116483"><ele>549</ele><time>2020-06-12T12:14:47Z</time><name>PT8312</name></trkpt>
<trkpt lat="54.374347" lon="-3.116467"><ele>549</ele><time>2020-06-12T12:14:48Z</time><name>PT8313</name></trkpt>
<trkpt lat="54.374344" lon="-3.116461"><ele>549</ele><time>2020-06-12T12:14:49Z</time><name>PT8314</name></trkpt>
<trkpt lat="54.374339" lon="-3.116451"><ele>549</ele><time>2020-06-12T12:14:50Z</time><name>PT8315</name></trkpt>
<trkpt lat="54.374335" lon="-3.116435"><ele>549</ele><time>2020-06-12T12:14:51Z</time><name>PT8316</name></trkpt>
<trkpt lat="54.374328" lon="-3.116422"><ele>549</ele><time>2020-06-12T12:14:52Z</time><name>PT8317</name></trkpt>
<trkpt lat="54.374323" lon="-3.116408"><ele>549</ele><time>2020-06-12T12:14:53Z</time><name>PT8318</name></trkpt>
<trkpt lat="54.374318" lon="-3.116395"><ele>549</ele><time>2020-06-12T12:14:54Z</time><name>PT8319</name></trkpt>
<trkpt lat="54.374315" lon="-3.116380"><ele>548</ele><time>2020-06-12T12:14:55Z</time><name>PT8320</name></trkpt>
<trkpt lat="54.374315" lon="-3.116362"><ele>548</ele><time>2020-06-12T12:14:56Z</time><name>PT8321</name></trkpt>
<trkpt lat="54.374314" lon="-3.116346"><ele>548</ele><time>2020-06-12T12:14:57Z</time><name>PT8322</name></trkpt>
<trkpt lat="54.374313" lon="-3.116332"><ele>548</ele><time>2020-06-12T12:14:58Z</time><name>PT8323</name></trkpt>
<trkpt lat="54.374314" lon="-3.116328"><ele>548</ele><time>2020-06-12T12:14:59Z</time><name>PT8324</name></trkpt>
<trkpt lat="54.374311" lon="-3.116317"><ele>548</ele><time>2020-06-12T12:15:00Z</time><name>PT8325</name></trkpt>
<trkpt lat="54.374308" lon="-3.116302"><ele>548</ele><time>2020-06-12T12:15:01Z</time><name>PT8326</name></trkpt>
<trkpt lat="54.374303" lon="-3.116289"><ele>548</ele><time>2020-06-12T12:15:02Z</time><name>PT8327</name></trkpt>
<trkpt lat="54.374291" lon="-3.116272"><ele>548</ele><time>2020-06-12T12:15:03Z</time><name>PT8328</name></trkpt>
<trkpt lat="54.374285" lon="-3.116259"><ele>548</ele><time>2020-06-12T12:15:04Z</time><name>PT8329</name></trkpt>
<trkpt lat="54.374283" lon="-3.116249"><ele>548</ele><time>2020-06-12T12:15:05Z</time><name>PT8330</name></trkpt>
<trkpt lat="54.374281" lon="-3.116239"><ele>548</ele><time>2020-06-12T12:15:06Z</time><name>PT8331</name></trkpt>
<trkpt lat="54.374279" lon="-3.116232"><ele>549</ele><time>2020-06-12T12:15:07Z</time><name>PT8332</name></trkpt>
<trkpt lat="54.374275" lon="-3.116227"><ele>549</ele><time>2020-06-12T12:15:08Z</time><name>PT8333</name></trkpt>
<trkpt lat="54.374272" lon="-3.116223"><ele>549</ele><time>2020-06-12T12:15:09Z</time><name>PT8334</name></trkpt>
<trkpt lat="54.374271" lon="-3.116218"><ele>549</ele><time>2020-06-12T12:15:10Z</time><name>PT8335</name></trkpt>
<trkpt lat="54.374269" lon="-3.116211"><ele>549</ele><time>2020-06-12T12:15:11Z</time><name>PT8336</name></trkpt>
<trkpt lat="54.374269" lon="-3.116211"><ele>549</ele><time>2020-06-12T12:15:12Z</time><name>PT8337</name></trkpt>
<trkpt lat="54.374269" lon="-3.116206"><ele>549</ele><time>2020-06-12T12:15:13Z</time><name>PT8338</name></trkpt>
<trkpt lat="54.374268" lon="-3.116203"><ele>550</ele><time>2020-06-12T12:15:14Z</time><name>PT8339</name></trkpt>
<trkpt lat="54.374265" lon="-3.116199"><ele>549</ele><time>2020-06-12T12:15:18Z</time><name>PT8340</name></trkpt>
<trkpt lat="54.374258" lon="-3.116201"><ele>549</ele><time>2020-06-12T12:15:19Z</time><name>PT8341</name></trkpt>
<trkpt lat="54.374258" lon="-3.116195"><ele>549</ele><time>2020-06-12T12:15:20Z</time><name>PT8342</name></trkpt>
<trkpt lat="54.374258" lon="-3.116198"><ele>549</ele><time>2020-06-12T12:15:21Z</time><name>PT8343</name></trkpt>
<trkpt lat="54.374261" lon="-3.116190"><ele>549</ele><time>2020-06-12T12:15:22Z</time><name>PT8344</name></trkpt>
<trkpt lat="54.374260" lon="-3.116191"><ele>549</ele><time>2020-06-12T12:15:26Z</time><name>PT8345</name></trkpt>
<trkpt lat="54.374263" lon="-3.116171"><ele>550</ele><time>2020-06-12T12:15:27Z</time><name>PT8346</name></trkpt>
<trkpt lat="54.374261" lon="-3.116164"><ele>550</ele><time>2020-06-12T12:15:28Z</time><name>PT8347</name></trkpt>
<trkpt lat="54.374256" lon="-3.116148"><ele>550</ele><time>2020-06-12T12:15:29Z</time><name>PT8348</name></trkpt>
<trkpt lat="54.374253" lon="-3.116140"><ele>550</ele><time>2020-06-12T12:15:30Z</time><name>PT8349</name></trkpt>
<trkpt lat="54.374253" lon="-3.116132"><ele>549</ele><time>2020-06-12T12:15:31Z</time><name>PT8350</name></trkpt>
<trkpt lat="54.374247" lon="-3.116119"><ele>549</ele><time>2020-06-12T12:15:32Z</time><name>PT8351</name></trkpt>
<trkpt lat="54.374241" lon="-3.116105"><ele>549</ele><time>2020-06-12T12:15:33Z</time><name>PT8352</name></trkpt>
<trkpt lat="54.374233" lon="-3.116089"><ele>548</ele><time>2020-06-12T12:15:34Z</time><name>PT8353</name></trkpt>
<trkpt lat="54.374225" lon="-3.116078"><ele>548</ele><time>2020-06-12T12:15:35Z</time><name>PT8354</name></trkpt>
<trkpt lat="54.374218" lon="-3.116064"><ele>548</ele><time>2020-06-12T12:15:36Z</time><name>PT8355</name></trkpt>
<trkpt lat="54.374214" lon="-3.116052"><ele>547</ele><time>2020-06-12T12:15:37Z</time><name>PT8356</name></trkpt>
<trkpt lat="54.374211" lon="-3.116038"><ele>547</ele><time>2020-06-12T12:15:38Z</time><name>PT8357</name></trkpt>
<trkpt lat="54.374206" lon="-3.116024"><ele>547</ele><time>2020-06-12T12:15:39Z</time><name>PT8358</name></trkpt>
<trkpt lat="54.374200" lon="-3.116006"><ele>547</ele><time>2020-06-12T12:15:40Z</time><name>PT8359</name></trkpt>
<trkpt lat="54.374188" lon="-3.115983"><ele>546</ele><time>2020-06-12T12:15:41Z</time><name>PT8360</name></trkpt>
<trkpt lat="54.374182" lon="-3.115964"><ele>546</ele><time>2020-06-12T12:15:42Z</time><name>PT8361</name></trkpt>
<trkpt lat="54.374175" lon="-3.115946"><ele>546</ele><time>2020-06-12T12:15:43Z</time><name>PT8362</name></trkpt>
<trkpt lat="54.374172" lon="-3.115932"><ele>546</ele><time>2020-06-12T12:15:44Z</time><name>PT8363</name></trkpt>
<trkpt lat="54.374170" lon="-3.115919"><ele>546</ele><time>2020-06-12T12:15:45Z</time><name>PT8364</name></trkpt>
<trkpt lat="54.374166" lon="-3.115899"><ele>546</ele><time>2020-06-12T12:15:46Z</time><name>PT8365</name></trkpt>
<trkpt lat="54.374162" lon="-3.115876"><ele>546</ele><time>2020-06-12T12:15:47Z</time><name>PT8366</name></trkpt>
<trkpt lat="54.374153" lon="-3.115859"><ele>545</ele><time>2020-06-12T12:15:48Z</time><name>PT8367</name></trkpt>
<trkpt lat="54.374148" lon="-3.115840"><ele>545</ele><time>2020-06-12T12:15:49Z</time><name>PT8368</name></trkpt>
<trkpt lat="54.374147" lon="-3.115820"><ele>545</ele><time>2020-06-12T12:15:50Z</time><name>PT8369</name></trkpt>
<trkpt lat="54.374149" lon="-3.115803"><ele>545</ele><time>2020-06-12T12:15:51Z</time><name>PT8370</name></trkpt>
<trkpt lat="54.374146" lon="-3.115787"><ele>546</ele><time>2020-06-12T12:15:52Z</time><name>PT8371</name></trkpt>
<trkpt lat="54.374144" lon="-3.115785"><ele>545</ele><time>2020-06-12T12:15:53Z</time><name>PT8372</name></trkpt>
<trkpt lat="54.374140" lon="-3.115767"><ele>545</ele><time>2020-06-12T12:15:54Z</time><name>PT8373</name></trkpt>
<trkpt lat="54.374132" lon="-3.115752"><ele>544</ele><time>2020-06-12T12:15:55Z</time><name>PT8374</name></trkpt>
<trkpt lat="54.374129" lon="-3.115736"><ele>544</ele><time>2020-06-12T12:15:56Z</time><name>PT8375</name></trkpt>
<trkpt lat="54.374124" lon="-3.115720"><ele>544</ele><time>2020-06-12T12:15:57Z</time><name>PT8376</name></trkpt>
<trkpt lat="54.374122" lon="-3.115706"><ele>544</ele><time>2020-06-12T12:15:58Z</time><name>PT8377</name></trkpt>
<trkpt lat="54.374119" lon="-3.115695"><ele>544</ele><time>2020-06-12T12:15:59Z</time><name>PT8378</name></trkpt>
<trkpt lat="54.374113" lon="-3.115683"><ele>545</ele><time>2020-06-12T12:16:00Z</time><name>PT8379</name></trkpt>
<trkpt lat="54.374107" lon="-3.115672"><ele>544</ele><time>2020-06-12T12:16:01Z</time><name>PT8380</name></trkpt>
<trkpt lat="54.374102" lon="-3.115664"><ele>544</ele><time>2020-06-12T12:16:02Z</time><name>PT8381</name></trkpt>
<trkpt lat="54.374099" lon="-3.115652"><ele>544</ele><time>2020-06-12T12:16:03Z</time><name>PT8382</name></trkpt>
<trkpt lat="54.374093" lon="-3.115636"><ele>543</ele><time>2020-06-12T12:16:04Z</time><name>PT8383</name></trkpt>
<trkpt lat="54.374089" lon="-3.115627"><ele>543</ele><time>2020-06-12T12:16:05Z</time><name>PT8384</name></trkpt>
<trkpt lat="54.374081" lon="-3.115614"><ele>543</ele><time>2020-06-12T12:16:06Z</time><name>PT8385</name></trkpt>
<trkpt lat="54.374075" lon="-3.115601"><ele>543</ele><time>2020-06-12T12:16:07Z</time><name>PT8386</name></trkpt>
<trkpt lat="54.374068" lon="-3.115583"><ele>542</ele><time>2020-06-12T12:16:08Z</time><name>PT8387</name></trkpt>
<trkpt lat="54.374061" lon="-3.115560"><ele>543</ele><time>2020-06-12T12:16:09Z</time><name>PT8388</name></trkpt>
<trkpt lat="54.374056" lon="-3.115549"><ele>543</ele><time>2020-06-12T12:16:10Z</time><name>PT8389</name></trkpt>
<trkpt lat="54.374055" lon="-3.115542"><ele>542</ele><time>2020-06-12T12:16:11Z</time><name>PT8390</name></trkpt>
<trkpt lat="54.374055" lon="-3.115536"><ele>542</ele><time>2020-06-12T12:16:12Z</time><name>PT8391</name></trkpt>
<trkpt lat="54.374052" lon="-3.115523"><ele>542</ele><time>2020-06-12T12:16:13Z</time><name>PT8392</name></trkpt>
<trkpt lat="54.374050" lon="-3.115510"><ele>542</ele><time>2020-06-12T12:16:14Z</time><name>PT8393</name></trkpt>
<trkpt lat="54.374048" lon="-3.115501"><ele>542</ele><time>2020-06-12T12:16:15Z</time><name>PT8394</name></trkpt>
<trkpt lat="54.374046" lon="-3.115492"><ele>542</ele><time>2020-06-12T12:16:16Z</time><name>PT8395</name></trkpt>
<trkpt lat="54.374046" lon="-3.115487"><ele>542</ele><time>2020-06-12T12:16:17Z</time><name>PT8396</name></trkpt>
<trkpt lat="54.374048" lon="-3.115476"><ele>542</ele><time>2020-06-12T12:16:18Z</time><name>PT8397</name></trkpt>
<trkpt lat="54.374050" lon="-3.115460"><ele>541</ele><time>2020-06-12T12:16:19Z</time><name>PT8398</name></trkpt>
<trkpt lat="54.374049" lon="-3.115451"><ele>541</ele><time>2020-06-12T12:16:20Z</time><name>PT8399</name></trkpt>
<trkpt lat="54.374049" lon="-3.115442"><ele>541</ele><time>2020-06-12T12:16:21Z</time><name>PT8400</name></trkpt>
<trkpt lat="54.374046" lon="-3.115429"><ele>542</ele><time>2020-06-12T12:16:22Z</time><name>PT8401</name></trkpt>
<trkpt lat="54.374045" lon="-3.115424"><ele>542</ele><time>2020-06-12T12:16:23Z</time><name>PT8402</name></trkpt>
<trkpt lat="54.374045" lon="-3.115419"><ele>542</ele><time>2020-06-12T12:16:24Z</time><name>PT8403</name></trkpt>
<trkpt lat="54.374043" lon="-3.115408"><ele>542</ele><time>2020-06-12T12:16:25Z</time><name>PT8404</name></trkpt>
<trkpt lat="54.374039" lon="-3.115401"><ele>541</ele><time>2020-06-12T12:16:26Z</time><name>PT8405</name></trkpt>
<trkpt lat="54.374037" lon="-3.115385"><ele>542</ele><time>2020-06-12T12:16:27Z</time><name>PT8406</name></trkpt>
<trkpt lat="54.374034" lon="-3.115377"><ele>542</ele><time>2020-06-12T12:16:28Z</time><name>PT8407</name></trkpt>
<trkpt lat="54.374031" lon="-3.115368"><ele>541</ele><time>2020-06-12T12:16:29Z</time><name>PT8408</name></trkpt>
<trkpt lat="54.374026" lon="-3.115363"><ele>541</ele><time>2020-06-12T12:16:30Z</time><name>PT8409</name></trkpt>
<trkpt lat="54.374021" lon="-3.115356"><ele>541</ele><time>2020-06-12T12:16:31Z</time><name>PT8410</name></trkpt>
<trkpt lat="54.374015" lon="-3.115349"><ele>540</ele><time>2020-06-12T12:16:32Z</time><name>PT8411</name></trkpt>
<trkpt lat="54.374011" lon="-3.115341"><ele>541</ele><time>2020-06-12T12:16:33Z</time><name>PT8412</name></trkpt>
<trkpt lat="54.374004" lon="-3.115340"><ele>541</ele><time>2020-06-12T12:16:34Z</time><name>PT8413</name></trkpt>
<trkpt lat="54.374004" lon="-3.115332"><ele>541</ele><time>2020-06-12T12:16:35Z</time><name>PT8414</name></trkpt>
<trkpt lat="54.374000" lon="-3.115323"><ele>541</ele><time>2020-06-12T12:16:36Z</time><name>PT8415</name></trkpt>
<trkpt lat="54.373993" lon="-3.115307"><ele>541</ele><time>2020-06-12T12:16:37Z</time><name>PT8416</name></trkpt>
<trkpt lat="54.373988" lon="-3.115295"><ele>540</ele><time>2020-06-12T12:16:38Z</time><name>PT8417</name></trkpt>
<trkpt lat="54.373989" lon="-3.115276"><ele>540</ele><time>2020-06-12T12:16:39Z</time><name>PT8418</name></trkpt>
<trkpt lat="54.373988" lon="-3.115267"><ele>539</ele><time>2020-06-12T12:16:40Z</time><name>PT8419</name></trkpt>
<trkpt lat="54.373983" lon="-3.115256"><ele>539</ele><time>2020-06-12T12:16:41Z</time><name>PT8420</name></trkpt>
<trkpt lat="54.373977" lon="-3.115255"><ele>538</ele><time>2020-06-12T12:16:42Z</time><name>PT8421</name></trkpt>
<trkpt lat="54.373970" lon="-3.115242"><ele>538</ele><time>2020-06-12T12:16:43Z</time><name>PT8422</name></trkpt>
<trkpt lat="54.373964" lon="-3.115225"><ele>538</ele><time>2020-06-12T12:16:44Z</time><name>PT8423</name></trkpt>
<trkpt lat="54.373960" lon="-3.115216"><ele>538</ele><time>2020-06-12T12:16:45Z</time><name>PT8424</name></trkpt>
<trkpt lat="54.373958" lon="-3.115209"><ele>537</ele><time>2020-06-12T12:16:46Z</time><name>PT8425</name></trkpt>
<trkpt lat="54.373957" lon="-3.115201"><ele>536</ele><time>2020-06-12T12:16:47Z</time><name>PT8426</name></trkpt>
<trkpt lat="54.373954" lon="-3.115187"><ele>537</ele><time>2020-06-12T12:16:48Z</time><name>PT8427</name></trkpt>
<trkpt lat="54.373950" lon="-3.115179"><ele>536</ele><time>2020-06-12T12:16:49Z</time><name>PT8428</name></trkpt>
<trkpt lat="54.373946" lon="-3.115166"><ele>536</ele><time>2020-06-12T12:16:50Z</time><name>PT8429</name></trkpt>
<trkpt lat="54.373944" lon="-3.115162"><ele>536</ele><time>2020-06-12T12:16:51Z</time><name>PT8430</name></trkpt>
<trkpt lat="54.373941" lon="-3.115155"><ele>535</ele><time>2020-06-12T12:16:52Z</time><name>PT8431</name></trkpt>
<trkpt lat="54.373936" lon="-3.115147"><ele>535</ele><time>2020-06-12T12:16:53Z</time><name>PT8432</name></trkpt>
<trkpt lat="54.373927" lon="-3.115137"><ele>535</ele><time>2020-06-12T12:16:54Z</time><name>PT8433</name></trkpt>
<trkpt lat="54.373923" lon="-3.115124"><ele>535</ele><time>2020-06-12T12:16:55Z</time><name>PT8434</name></trkpt>
<trkpt lat="54.373918" lon="-3.115113"><ele>535</ele><time>2020-06-12T12:16:56Z</time><name>PT8435</name></trkpt>
<trkpt lat="54.373913" lon="-3.115107"><ele>535</ele><time>2020-06-12T12:16:57Z</time><name>PT8436</name></trkpt>
<trkpt lat="54.373904" lon="-3.115101"><ele>535</ele><time>2020-06-12T12:16:58Z</time><name>PT8437</name></trkpt>
<trkpt lat="54.373899" lon="-3.115090"><ele>535</ele><time>2020-06-12T12:16:59Z</time><name>PT8438</name></trkpt>
<trkpt lat="54.373894" lon="-3.115075"><ele>535</ele><time>2020-06-12T12:17:00Z</time><name>PT8439</name></trkpt>
<trkpt lat="54.373889" lon="-3.115064"><ele>534</ele><time>2020-06-12T12:17:01Z</time><name>PT8440</name></trkpt>
<trkpt lat="54.373886" lon="-3.115052"><ele>534</ele><time>2020-06-12T12:17:02Z</time><name>PT8441</name></trkpt>
<trkpt lat="54.373883" lon="-3.115035"><ele>534</ele><time>2020-06-12T12:17:03Z</time><name>PT8442</name></trkpt>
<trkpt lat="54.373881" lon="-3.115022"><ele>534</ele><time>2020-06-12T12:17:04Z</time><name>PT8443</name></trkpt>
<trkpt lat="54.373880" lon="-3.115006"><ele>534</ele><time>2020-06-12T12:17:05Z</time><name>PT8444</name></trkpt>
<trkpt lat="54.373878" lon="-3.114990"><ele>534</ele><time>2020-06-12T12:17:06Z</time><name>PT8445</name></trkpt>
<trkpt lat="54.373876" lon="-3.114977"><ele>533</ele><time>2020-06-12T12:17:07Z</time><name>PT8446</name></trkpt>
<trkpt lat="54.373873" lon="-3.114961"><ele>534</ele><time>2020-06-12T12:17:08Z</time><name>PT8447</name></trkpt>
<trkpt lat="54.373873" lon="-3.114942"><ele>535</ele><time>2020-06-12T12:17:09Z</time><name>PT8448</name></trkpt>
<trkpt lat="54.373871" lon="-3.114929"><ele>535</ele><time>2020-06-12T12:17:10Z</time><name>PT8449</name></trkpt>
<trkpt lat="54.373871" lon="-3.114919"><ele>535</ele><time>2020-06-12T12:17:11Z</time><name>PT8450</name></trkpt>
<trkpt lat="54.373867" lon="-3.114906"><ele>535</ele><time>2020-06-12T12:17:12Z</time><name>PT8451</name></trkpt>
<trkpt lat="54.373870" lon="-3.114892"><ele>535</ele><time>2020-06-12T12:17:13Z</time><name>PT8452</name></trkpt>
<trkpt lat="54.373869" lon="-3.114878"><ele>535</ele><time>2020-06-12T12:17:14Z</time><name>PT8453</name></trkpt>
<trkpt lat="54.373870" lon="-3.114867"><ele>535</ele><time>2020-06-12T12:17:15Z</time><name>PT8454</name></trkpt>
<trkpt lat="54.373869" lon="-3.114857"><ele>534</ele><time>2020-06-12T12:17:16Z</time><name>PT8455</name></trkpt>
<trkpt lat="54.373866" lon="-3.114842"><ele>534</ele><time>2020-06-12T12:17:17Z</time><name>PT8456</name></trkpt>
<trkpt lat="54.373865" lon="-3.114830"><ele>534</ele><time>2020-06-12T12:17:18Z</time><name>PT8457</name></trkpt>
<trkpt lat="54.373862" lon="-3.114823"><ele>535</ele><time>2020-06-12T12:17:21Z</time><name>PT8458</name></trkpt>
<trkpt lat="54.373858" lon="-3.114816"><ele>534</ele><time>2020-06-12T12:17:22Z</time><name>PT8459</name></trkpt>
<trkpt lat="54.373854" lon="-3.114812"><ele>534</ele><time>2020-06-12T12:17:23Z</time><name>PT8460</name></trkpt>
<trkpt lat="54.373850" lon="-3.114801"><ele>534</ele><time>2020-06-12T12:17:24Z</time><name>PT8461</name></trkpt>
<trkpt lat="54.373851" lon="-3.114788"><ele>534</ele><time>2020-06-12T12:17:25Z</time><name>PT8462</name></trkpt>
<trkpt lat="54.373851" lon="-3.114786"><ele>533</ele><time>2020-06-12T12:17:26Z</time><name>PT8463</name></trkpt>
<trkpt lat="54.373843" lon="-3.114768"><ele>533</ele><time>2020-06-12T12:17:27Z</time><name>PT8464</name></trkpt>
<trkpt lat="54.373839" lon="-3.114761"><ele>533</ele><time>2020-06-12T12:17:28Z</time><name>PT8465</name></trkpt>
<trkpt lat="54.373837" lon="-3.114757"><ele>533</ele><time>2020-06-12T12:17:29Z</time><name>PT8466</name></trkpt>
<trkpt lat="54.373831" lon="-3.114756"><ele>533</ele><time>2020-06-12T12:17:31Z</time><name>PT8467</name></trkpt>
<trkpt lat="54.373824" lon="-3.114745"><ele>533</ele><time>2020-06-12T12:17:32Z</time><name>PT8468</name></trkpt>
<trkpt lat="54.373818" lon="-3.114739"><ele>532</ele><time>2020-06-12T12:17:33Z</time><name>PT8469</name></trkpt>
<trkpt lat="54.373815" lon="-3.114728"><ele>532</ele><time>2020-06-12T12:17:34Z</time><name>PT8470</name></trkpt>
<trkpt lat="54.373813" lon="-3.114724"><ele>532</ele><time>2020-06-12T12:17:35Z</time><name>PT8471</name></trkpt>
<trkpt lat="54.373811" lon="-3.114718"><ele>531</ele><time>2020-06-12T12:17:36Z</time><name>PT8472</name></trkpt>
<trkpt lat="54.373810" lon="-3.114707"><ele>531</ele><time>2020-06-12T12:17:37Z</time><name>PT8473</name></trkpt>
<trkpt lat="54.373809" lon="-3.114695"><ele>531</ele><time>2020-06-12T12:17:38Z</time><name>PT8474</name></trkpt>
<trkpt lat="54.373808" lon="-3.114683"><ele>530</ele><time>2020-06-12T12:17:39Z</time><name>PT8475</name></trkpt>
<trkpt lat="54.373807" lon="-3.114674"><ele>530</ele><time>2020-06-12T12:17:40Z</time><name>PT8476</name></trkpt>
<trkpt lat="54.373804" lon="-3.114667"><ele>530</ele><time>2020-06-12T12:17:41Z</time><name>PT8477</name></trkpt>
<trkpt lat="54.373802" lon="-3.114662"><ele>530</ele><time>2020-06-12T12:17:42Z</time><name>PT8478</name></trkpt>
<trkpt lat="54.373798" lon="-3.114653"><ele>529</ele><time>2020-06-12T12:17:43Z</time><name>PT8479</name></trkpt>
<trkpt lat="54.373791" lon="-3.114645"><ele>529</ele><time>2020-06-12T12:17:44Z</time><name>PT8480</name></trkpt>
<trkpt lat="54.373786" lon="-3.114637"><ele>529</ele><time>2020-06-12T12:17:45Z</time><name>PT8481</name></trkpt>
<trkpt lat="54.373781" lon="-3.114627"><ele>529</ele><time>2020-06-12T12:17:46Z</time><name>PT8482</name></trkpt>
<trkpt lat="54.373776" lon="-3.114618"><ele>529</ele><time>2020-06-12T12:17:47Z</time><name>PT8483</name></trkpt>
<trkpt lat="54.373772" lon="-3.114608"><ele>529</ele><time>2020-06-12T12:17:48Z</time><name>PT8484</name></trkpt>
<trkpt lat="54.373767" lon="-3.114599"><ele>528</ele><time>2020-06-12T12:17:49Z</time><name>PT8485</name></trkpt>
<trkpt lat="54.373762" lon="-3.114587"><ele>528</ele><time>2020-06-12T12:17:50Z</time><name>PT8486</name></trkpt>
<trkpt lat="54.373758" lon="-3.114578"><ele>528</ele><time>2020-06-12T12:17:51Z</time><name>PT8487</name></trkpt>
<trkpt lat="54.373755" lon="-3.114572"><ele>528</ele><time>2020-06-12T12:17:52Z</time><name>PT8488</name></trkpt>
<trkpt lat="54.373751" lon="-3.114569"><ele>527</ele><time>2020-06-12T12:17:53Z</time><name>PT8489</name></trkpt>
<trkpt lat="54.373745" lon="-3.114560"><ele>527</ele><time>2020-06-12T12:17:54Z</time><name>PT8490</name></trkpt>
<trkpt lat="54.373740" lon="-3.114555"><ele>526</ele><time>2020-06-12T12:17:55Z</time><name>PT8491</name></trkpt>
<trkpt lat="54.373739" lon="-3.114557"><ele>526</ele><time>2020-06-12T12:17:56Z</time><name>PT8492</name></trkpt>
<trkpt lat="54.373738" lon="-3.114561"><ele>527</ele><time>2020-06-12T12:18:04Z</time><name>PT8493</name></trkpt>
<trkpt lat="54.373730" lon="-3.114553"><ele>527</ele><time>2020-06-12T12:18:05Z</time><name>PT8494</name></trkpt>
<trkpt lat="54.373723" lon="-3.114539"><ele>526</ele><time>2020-06-12T12:18:06Z</time><name>PT8495</name></trkpt>
<trkpt lat="54.373714" lon="-3.114527"><ele>526</ele><time>2020-06-12T12:18:07Z</time><name>PT8496</name></trkpt>
<trkpt lat="54.373704" lon="-3.114517"><ele>526</ele><time>2020-06-12T12:18:08Z</time><name>PT8497</name></trkpt>
<trkpt lat="54.373694" lon="-3.114510"><ele>525</ele><time>2020-06-12T12:18:09Z</time><name>PT8498</name></trkpt>
<trkpt lat="54.373687" lon="-3.114499"><ele>525</ele><time>2020-06-12T12:18:10Z</time><name>PT8499</name></trkpt>
<trkpt lat="54.373682" lon="-3.114490"><ele>524</ele><time>2020-06-12T12:18:11Z</time><name>PT8500</name></trkpt>
<trkpt lat="54.373674" lon="-3.114478"><ele>524</ele><time>2020-06-12T12:18:12Z</time><name>PT8501</name></trkpt>
<trkpt lat="54.373667" lon="-3.114464"><ele>524</ele><time>2020-06-12T12:18:13Z</time><name>PT8502</name></trkpt>
<trkpt lat="54.373657" lon="-3.114450"><ele>524</ele><time>2020-06-12T12:18:14Z</time><name>PT8503</name></trkpt>
<trkpt lat="54.373650" lon="-3.114434"><ele>524</ele><time>2020-06-12T12:18:15Z</time><name>PT8504</name></trkpt>
<trkpt lat="54.373645" lon="-3.114425"><ele>524</ele><time>2020-06-12T12:18:16Z</time><name>PT8505</name></trkpt>
<trkpt lat="54.373643" lon="-3.114417"><ele>524</ele><time>2020-06-12T12:18:17Z</time><name>PT8506</name></trkpt>
<trkpt lat="54.373643" lon="-3.114411"><ele>524</ele><time>2020-06-12T12:18:18Z</time><name>PT8507</name></trkpt>
<trkpt lat="54.373642" lon="-3.114410"><ele>525</ele><time>2020-06-12T12:18:19Z</time><name>PT8508</name></trkpt>
<trkpt lat="54.373642" lon="-3.114410"><ele>525</ele><time>2020-06-12T12:18:20Z</time><name>PT8509</name></trkpt>
<trkpt lat="54.373641" lon="-3.114410"><ele>525</ele><time>2020-06-12T12:18:21Z</time><name>PT8510</name></trkpt>
<trkpt lat="54.373638" lon="-3.114407"><ele>525</ele><time>2020-06-12T12:18:29Z</time><name>PT8511</name></trkpt>
<trkpt lat="54.373632" lon="-3.114392"><ele>525</ele><time>2020-06-12T12:18:30Z</time><name>PT8512</name></trkpt>
<trkpt lat="54.373625" lon="-3.114379"><ele>525</ele><time>2020-06-12T12:18:31Z</time><name>PT8513</name></trkpt>
<trkpt lat="54.373617" lon="-3.114355"><ele>524</ele><time>2020-06-12T12:18:32Z</time><name>PT8514</name></trkpt>
<trkpt lat="54.373608" lon="-3.114341"><ele>524</ele><time>2020-06-12T12:18:33Z</time><name>PT8515</name></trkpt>
<trkpt lat="54.373604" lon="-3.114329"><ele>524</ele><time>2020-06-12T12:18:34Z</time><name>PT8516</name></trkpt>
<trkpt lat="54.373604" lon="-3.114319"><ele>524</ele><time>2020-06-12T12:18:35Z</time><name>PT8517</name></trkpt>
<trkpt lat="54.373602" lon="-3.114317"><ele>524</ele><time>2020-06-12T12:18:36Z</time><name>PT8518</name></trkpt>
<trkpt lat="54.373597" lon="-3.114310"><ele>524</ele><time>2020-06-12T12:18:37Z</time><name>PT8519</name></trkpt>
<trkpt lat="54.373594" lon="-3.114306"><ele>524</ele><time>2020-06-12T12:18:38Z</time><name>PT8520</name></trkpt>
<trkpt lat="54.373590" lon="-3.114300"><ele>524</ele><time>2020-06-12T12:18:39Z</time><name>PT8521</name></trkpt>
<trkpt lat="54.373588" lon="-3.114293"><ele>524</ele><time>2020-06-12T12:18:40Z</time><name>PT8522</name></trkpt>
<trkpt lat="54.373580" lon="-3.114282"><ele>524</ele><time>2020-06-12T12:18:41Z</time><name>PT8523</name></trkpt>
<trkpt lat="54.373569" lon="-3.114269"><ele>524</ele><time>2020-06-12T12:18:42Z</time><name>PT8524</name></trkpt>
<trkpt lat="54.373560" lon="-3.114257"><ele>523</ele><time>2020-06-12T12:18:43Z</time><name>PT8525</name></trkpt>
<trkpt lat="54.373548" lon="-3.114241"><ele>523</ele><time>2020-06-12T12:18:44Z</time><name>PT8526</name></trkpt>
<trkpt lat="54.373538" lon="-3.114228"><ele>523</ele><time>2020-06-12T12:18:45Z</time><name>PT8527</name></trkpt>
<trkpt lat="54.373532" lon="-3.114212"><ele>523</ele><time>2020-06-12T12:18:46Z</time><name>PT8528</name></trkpt>
<trkpt lat="54.373527" lon="-3.114210"><ele>523</ele><time>2020-06-12T12:18:47Z</time><name>PT8529</name></trkpt>
<trkpt lat="54.373520" lon="-3.114203"><ele>523</ele><time>2020-06-12T12:18:48Z</time><name>PT8530</name></trkpt>
<trkpt lat="54.373511" lon="-3.114196"><ele>523</ele><time>2020-06-12T12:18:49Z</time><name>PT8531</name></trkpt>
<trkpt lat="54.373501" lon="-3.114188"><ele>523</ele><time>2020-06-12T12:18:50Z</time><name>PT8532</name></trkpt>
<trkpt lat="54.373489" lon="-3.114182"><ele>524</ele><time>2020-06-12T12:18:51Z</time><name>PT8533</name></trkpt>
<trkpt lat="54.373476" lon="-3.114170"><ele>525</ele><time>2020-06-12T12:18:52Z</time><name>PT8534</name></trkpt>
<trkpt lat="54.373466" lon="-3.114161"><ele>524</ele><time>2020-06-12T12:18:53Z</time><name>PT8535</name></trkpt>
<trkpt lat="54.373458" lon="-3.114145"><ele>524</ele><time>2020-06-12T12:18:54Z</time><name>PT8536</name></trkpt>
<trkpt lat="54.373451" lon="-3.114124"><ele>525</ele><time>2020-06-12T12:18:55Z</time><name>PT8537</name></trkpt>
<trkpt lat="54.373440" lon="-3.114111"><ele>524</ele><time>2020-06-12T12:18:56Z</time><name>PT8538</name></trkpt>
<trkpt lat="54.373432" lon="-3.114095"><ele>524</ele><time>2020-06-12T12:18:57Z</time><name>PT8539</name></trkpt>
<trkpt lat="54.373427" lon="-3.114082"><ele>524</ele><time>2020-06-12T12:18:58Z</time><name>PT8540</name></trkpt>
<trkpt lat="54.373421" lon="-3.114070"><ele>525</ele><time>2020-06-12T12:18:59Z</time><name>PT8541</name></trkpt>
<trkpt lat="54.373418" lon="-3.114058"><ele>524</ele><time>2020-06-12T12:19:00Z</time><name>PT8542</name></trkpt>
<trkpt lat="54.373418" lon="-3.114054"><ele>524</ele><time>2020-06-12T12:19:01Z</time><name>PT8543</name></trkpt>
<trkpt lat="54.373417" lon="-3.114046"><ele>524</ele><time>2020-06-12T12:19:02Z</time><name>PT8544</name></trkpt>
<trkpt lat="54.373411" lon="-3.114035"><ele>524</ele><time>2020-06-12T12:19:03Z</time><name>PT8545</name></trkpt>
<trkpt lat="54.373404" lon="-3.114021"><ele>524</ele><time>2020-06-12T12:19:04Z</time><name>PT8546</name></trkpt>
<trkpt lat="54.373398" lon="-3.114008"><ele>523</ele><time>2020-06-12T12:19:05Z</time><name>PT8547</name></trkpt>
<trkpt lat="54.373393" lon="-3.113997"><ele>523</ele><time>2020-06-12T12:19:06Z</time><name>PT8548</name></trkpt>
<trkpt lat="54.373388" lon="-3.113989"><ele>523</ele><time>2020-06-12T12:19:07Z</time><name>PT8549</name></trkpt>
<trkpt lat="54.373382" lon="-3.113980"><ele>523</ele><time>2020-06-12T12:19:08Z</time><name>PT8550</name></trkpt>
<trkpt lat="54.373376" lon="-3.113974"><ele>523</ele><time>2020-06-12T12:19:09Z</time><name>PT8551</name></trkpt>
<trkpt lat="54.373369" lon="-3.113971"><ele>523</ele><time>2020-06-12T12:19:10Z</time><name>PT8552</name></trkpt>
<trkpt lat="54.373364" lon="-3.113962"><ele>522</ele><time>2020-06-12T12:19:11Z</time><name>PT8553</name></trkpt>
<trkpt lat="54.373358" lon="-3.113952"><ele>522</ele><time>2020-06-12T12:19:12Z</time><name>PT8554</name></trkpt>
<trkpt lat="54.373356" lon="-3.113946"><ele>522</ele><time>2020-06-12T12:19:13Z</time><name>PT8555</name></trkpt>
<trkpt lat="54.373350" lon="-3.113940"><ele>521</ele><time>2020-06-12T12:19:14Z</time><name>PT8556</name></trkpt>
<trkpt lat="54.373343" lon="-3.113932"><ele>521</ele><time>2020-06-12T12:19:15Z</time><name>PT8557</name></trkpt>
<trkpt lat="54.373337" lon="-3.113916"><ele>521</ele><time>2020-06-12T12:19:16Z</time><name>PT8558</name></trkpt>
<trkpt lat="54.373332" lon="-3.113913"><ele>520</ele><time>2020-06-12T12:19:17Z</time><name>PT8559</name></trkpt>
<trkpt lat="54.373326" lon="-3.113903"><ele>521</ele><time>2020-06-12T12:19:18Z</time><name>PT8560</name></trkpt>
<trkpt lat="54.373320" lon="-3.113889"><ele>521</ele><time>2020-06-12T12:19:19Z</time><name>PT8561</name></trkpt>
<trkpt lat="54.373316" lon="-3.113877"><ele>522</ele><time>2020-06-12T12:19:20Z</time><name>PT8562</name></trkpt>
<trkpt lat="54.373314" lon="-3.113871"><ele>521</ele><time>2020-06-12T12:19:21Z</time><name>PT8563</name></trkpt>
<trkpt lat="54.373310" lon="-3.113858"><ele>522</ele><time>2020-06-12T12:19:22Z</time><name>PT8564</name></trkpt>
<trkpt lat="54.373308" lon="-3.113854"><ele>521</ele><time>2020-06-12T12:19:23Z</time><name>PT8565</name></trkpt>
<trkpt lat="54.373305" lon="-3.113846"><ele>520</ele><time>2020-06-12T12:19:24Z</time><name>PT8566</name></trkpt>
<trkpt lat="54.373303" lon="-3.113840"><ele>520</ele><time>2020-06-12T12:19:25Z</time><name>PT8567</name></trkpt>
<trkpt lat="54.373301" lon="-3.113833"><ele>519</ele><time>2020-06-12T12:19:26Z</time><name>PT8568</name></trkpt>
<trkpt lat="54.373299" lon="-3.113830"><ele>519</ele><time>2020-06-12T12:19:27Z</time><name>PT8569</name></trkpt>
<trkpt lat="54.373294" lon="-3.113829"><ele>519</ele><time>2020-06-12T12:19:28Z</time><name>PT8570</name></trkpt>
<trkpt lat="54.373289" lon="-3.113828"><ele>519</ele><time>2020-06-12T12:19:29Z</time><name>PT8571</name></trkpt>
<trkpt lat="54.373285" lon="-3.113827"><ele>519</ele><time>2020-06-12T12:19:30Z</time><name>PT8572</name></trkpt>
<trkpt lat="54.373281" lon="-3.113823"><ele>518</ele><time>2020-06-12T12:19:31Z</time><name>PT8573</name></trkpt>
<trkpt lat="54.373279" lon="-3.113819"><ele>518</ele><time>2020-06-12T12:19:32Z</time><name>PT8574</name></trkpt>
<trkpt lat="54.373276" lon="-3.113815"><ele>518</ele><time>2020-06-12T12:19:33Z</time><name>PT8575</name></trkpt>
<trkpt lat="54.373275" lon="-3.113812"><ele>517</ele><time>2020-06-12T12:19:34Z</time><name>PT8576</name></trkpt>
<trkpt lat="54.373270" lon="-3.113806"><ele>517</ele><time>2020-06-12T12:19:36Z</time><name>PT8577</name></trkpt>
<trkpt lat="54.373267" lon="-3.113799"><ele>517</ele><time>2020-06-12T12:19:36Z</time><name>PT8578</name></trkpt>
<trkpt lat="54.373265" lon="-3.113792"><ele>517</ele><time>2020-06-12T12:19:37Z</time><name>PT8579</name></trkpt>
<trkpt lat="54.373261" lon="-3.113789"><ele>517</ele><time>2020-06-12T12:19:38Z</time><name>PT8580</name></trkpt>
<trkpt lat="54.373259" lon="-3.113782"><ele>516</ele><time>2020-06-12T12:19:39Z</time><name>PT8581</name></trkpt>
<trkpt lat="54.373255" lon="-3.113769"><ele>517</ele><time>2020-06-12T12:19:40Z</time><name>PT8582</name></trkpt>
<trkpt lat="54.373252" lon="-3.113763"><ele>517</ele><time>2020-06-12T12:19:41Z</time><name>PT8583</name></trkpt>
<trkpt lat="54.373249" lon="-3.113761"><ele>517</ele><time>2020-06-12T12:19:42Z</time><name>PT8584</name></trkpt>
<trkpt lat="54.373246" lon="-3.113765"><ele>517</ele><time>2020-06-12T12:19:43Z</time><name>PT8585</name></trkpt>
<trkpt lat="54.373241" lon="-3.113764"><ele>517</ele><time>2020-06-12T12:19:44Z</time><name>PT8586</name></trkpt>
<trkpt lat="54.373237" lon="-3.113764"><ele>517</ele><time>2020-06-12T12:19:45Z</time><name>PT8587</name></trkpt>
<trkpt lat="54.373233" lon="-3.113767"><ele>517</ele><time>2020-06-12T12:19:46Z</time><name>PT8588</name></trkpt>
<trkpt lat="54.373227" lon="-3.113764"><ele>517</ele><time>2020-06-12T12:19:47Z</time><name>PT8589</name></trkpt>
<trkpt lat="54.373222" lon="-3.113760"><ele>516</ele><time>2020-06-12T12:19:48Z</time><name>PT8590</name></trkpt>
<trkpt lat="54.373223" lon="-3.113748"><ele>516</ele><time>2020-06-12T12:19:49Z</time><name>PT8591</name></trkpt>
<trkpt lat="54.373224" lon="-3.113741"><ele>517</ele><time>2020-06-12T12:19:50Z</time><name>PT8592</name></trkpt>
<trkpt lat="54.373228" lon="-3.113731"><ele>516</ele><time>2020-06-12T12:19:51Z</time><name>PT8593</name></trkpt>
<trkpt lat="54.373229" lon="-3.113721"><ele>516</ele><time>2020-06-12T12:19:52Z</time><name>PT8594</name></trkpt>
<trkpt lat="54.373224" lon="-3.113707"><ele>516</ele><time>2020-06-12T12:19:53Z</time><name>PT8595</name></trkpt>
<trkpt lat="54.373219" lon="-3.113697"><ele>516</ele><time>2020-06-12T12:19:54Z</time><name>PT8596</name></trkpt>
<trkpt lat="54.373213" lon="-3.113693"><ele>515</ele><time>2020-06-12T12:19:55Z</time><name>PT8597</name></trkpt>
<trkpt lat="54.373211" lon="-3.113680"><ele>516</ele><time>2020-06-12T12:19:56Z</time><name>PT8598</name></trkpt>
<trkpt lat="54.373208" lon="-3.113678"><ele>515</ele><time>2020-06-12T12:19:57Z</time><name>PT8599</name></trkpt>
<trkpt lat="54.373208" lon="-3.113672"><ele>516</ele><time>2020-06-12T12:19:58Z</time><name>PT8600</name></trkpt>
<trkpt lat="54.373207" lon="-3.113664"><ele>515</ele><time>2020-06-12T12:19:59Z</time><name>PT8601</name></trkpt>
<trkpt lat="54.373206" lon="-3.113656"><ele>515</ele><time>2020-06-12T12:20:00Z</time><name>PT8602</name></trkpt>
<trkpt lat="54.373201" lon="-3.113637"><ele>515</ele><time>2020-06-12T12:20:01Z</time><name>PT8603</name></trkpt>
<trkpt lat="54.373196" lon="-3.113618"><ele>514</ele><time>2020-06-12T12:20:02Z</time><name>PT8604</name></trkpt>
<trkpt lat="54.373190" lon="-3.113601"><ele>514</ele><time>2020-06-12T12:20:03Z</time><name>PT8605</name></trkpt>
<trkpt lat="54.373183" lon="-3.113583"><ele>515</ele><time>2020-06-12T12:20:04Z</time><name>PT8606</name></trkpt>
<trkpt lat="54.373175" lon="-3.113566"><ele>515</ele><time>2020-06-12T12:20:05Z</time><name>PT8607</name></trkpt>
<trkpt lat="54.373170" lon="-3.113542"><ele>515</ele><time>2020-06-12T12:20:06Z</time><name>PT8608</name></trkpt>
<trkpt lat="54.373166" lon="-3.113527"><ele>515</ele><time>2020-06-12T12:20:07Z</time><name>PT8609</name></trkpt>
<trkpt lat="54.373164" lon="-3.113512"><ele>515</ele><time>2020-06-12T12:20:08Z</time><name>PT8610</name></trkpt>
<trkpt lat="54.373161" lon="-3.113489"><ele>515</ele><time>2020-06-12T12:20:09Z</time><name>PT8611</name></trkpt>
<trkpt lat="54.373159" lon="-3.113473"><ele>515</ele><time>2020-06-12T12:20:10Z</time><name>PT8612</name></trkpt>
<trkpt lat="54.373158" lon="-3.113457"><ele>515</ele><time>2020-06-12T12:20:11Z</time><name>PT8613</name></trkpt>
<trkpt lat="54.373157" lon="-3.113443"><ele>514</ele><time>2020-06-12T12:20:12Z</time><name>PT8614</name></trkpt>
<trkpt lat="54.373159" lon="-3.113425"><ele>514</ele><time>2020-06-12T12:20:13Z</time><name>PT8615</name></trkpt>
<trkpt lat="54.373158" lon="-3.113413"><ele>514</ele><time>2020-06-12T12:20:14Z</time><name>PT8616</name></trkpt>
<trkpt lat="54.373158" lon="-3.113400"><ele>514</ele><time>2020-06-12T12:20:15Z</time><name>PT8617</name></trkpt>
<trkpt lat="54.373159" lon="-3.113390"><ele>514</ele><time>2020-06-12T12:20:16Z</time><name>PT8618</name></trkpt>
<trkpt lat="54.373161" lon="-3.113378"><ele>514</ele><time>2020-06-12T12:20:17Z</time><name>PT8619</name></trkpt>
<trkpt lat="54.373164" lon="-3.113372"><ele>514</ele><time>2020-06-12T12:20:18Z</time><name>PT8620</name></trkpt>
<trkpt lat="54.373167" lon="-3.113362"><ele>513</ele><time>2020-06-12T12:20:19Z</time><name>PT8621</name></trkpt>
<trkpt lat="54.373168" lon="-3.113354"><ele>513</ele><time>2020-06-12T12:20:20Z</time><name>PT8622</name></trkpt>
<trkpt lat="54.373171" lon="-3.113337"><ele>513</ele><time>2020-06-12T12:20:21Z</time><name>PT8623</name></trkpt>
<trkpt lat="54.373177" lon="-3.113325"><ele>513</ele><time>2020-06-12T12:20:22Z</time><name>PT8624</name></trkpt>
<trkpt lat="54.373182" lon="-3.113296"><ele>513</ele><time>2020-06-12T12:20:23Z</time><name>PT8625</name></trkpt>
<trkpt lat="54.373187" lon="-3.113281"><ele>514</ele><time>2020-06-12T12:20:24Z</time><name>PT8626</name></trkpt>
<trkpt lat="54.373193" lon="-3.113270"><ele>513</ele><time>2020-06-12T12:20:25Z</time><name>PT8627</name></trkpt>
<trkpt lat="54.373201" lon="-3.113251"><ele>514</ele><time>2020-06-12T12:20:26Z</time><name>PT8628</name></trkpt>
<trkpt lat="54.373206" lon="-3.113240"><ele>513</ele><time>2020-06-12T12:20:27Z</time><name>PT8629</name></trkpt>
<trkpt lat="54.373209" lon="-3.113225"><ele>513</ele><time>2020-06-12T12:20:28Z</time><name>PT8630</name></trkpt>
<trkpt lat="54.373211" lon="-3.113212"><ele>513</ele><time>2020-06-12T12:20:29Z</time><name>PT8631</name></trkpt>
<trkpt lat="54.373211" lon="-3.113198"><ele>512</ele><time>2020-06-12T12:20:30Z</time><name>PT8632</name></trkpt>
<trkpt lat="54.373215" lon="-3.113189"><ele>512</ele><time>2020-06-12T12:20:31Z</time><name>PT8633</name></trkpt>
<trkpt lat="54.373220" lon="-3.113177"><ele>512</ele><time>2020-06-12T12:20:32Z</time><name>PT8634</name></trkpt>
<trkpt lat="54.373221" lon="-3.113166"><ele>512</ele><time>2020-06-12T12:20:33Z</time><name>PT8635</name></trkpt>
<trkpt lat="54.373224" lon="-3.113159"><ele>511</ele><time>2020-06-12T12:20:34Z</time><name>PT8636</name></trkpt>
<trkpt lat="54.373228" lon="-3.113150"><ele>511</ele><time>2020-06-12T12:20:35Z</time><name>PT8637</name></trkpt>
<trkpt lat="54.373229" lon="-3.113147"><ele>511</ele><time>2020-06-12T12:20:36Z</time><name>PT8638</name></trkpt>
<trkpt lat="54.373231" lon="-3.113145"><ele>511</ele><time>2020-06-12T12:20:37Z</time><name>PT8639</name></trkpt>
<trkpt lat="54.373231" lon="-3.113145"><ele>511</ele><time>2020-06-12T12:20:43Z</time><name>PT8640</name></trkpt>
<trkpt lat="54.373235" lon="-3.113150"><ele>511</ele><time>2020-06-12T12:20:44Z</time><name>PT8641</name></trkpt>
<trkpt lat="54.373240" lon="-3.113142"><ele>510</ele><time>2020-06-12T12:20:45Z</time><name>PT8642</name></trkpt>
<trkpt lat="54.373244" lon="-3.113136"><ele>509</ele><time>2020-06-12T12:20:46Z</time><name>PT8643</name></trkpt>
<trkpt lat="54.373243" lon="-3.113131"><ele>509</ele><time>2020-06-12T12:20:47Z</time><name>PT8644</name></trkpt>
<trkpt lat="54.373244" lon="-3.113128"><ele>509</ele><time>2020-06-12T12:20:48Z</time><name>PT8645</name></trkpt>
<trkpt lat="54.373246" lon="-3.113116"><ele>509</ele><time>2020-06-12T12:20:49Z</time><name>PT8646</name></trkpt>
<trkpt lat="54.373252" lon="-3.113104"><ele>509</ele><time>2020-06-12T12:20:50Z</time><name>PT8647</name></trkpt>
<trkpt lat="54.373262" lon="-3.113090"><ele>509</ele><time>2020-06-12T12:20:51Z</time><name>PT8648</name></trkpt>
<trkpt lat="54.373266" lon="-3.113079"><ele>509</ele><time>2020-06-12T12:20:52Z</time><name>PT8649</name></trkpt>
<trkpt lat="54.373268" lon="-3.113074"><ele>509</ele><time>2020-06-12T12:20:53Z</time><name>PT8650</name></trkpt>
<trkpt lat="54.373269" lon="-3.113067"><ele>509</ele><time>2020-06-12T12:20:54Z</time><name>PT8651</name></trkpt>
<trkpt lat="54.373269" lon="-3.113058"><ele>509</ele><time>2020-06-12T12:20:55Z</time><name>PT8652</name></trkpt>
<trkpt lat="54.373272" lon="-3.113045"><ele>509</ele><time>2020-06-12T12:20:56Z</time><name>PT8653</name></trkpt>
<trkpt lat="54.373271" lon="-3.113040"><ele>508</ele><time>2020-06-12T12:20:57Z</time><name>PT8654</name></trkpt>
<trkpt lat="54.373270" lon="-3.113034"><ele>508</ele><time>2020-06-12T12:20:58Z</time><name>PT8655</name></trkpt>
<trkpt lat="54.373270" lon="-3.113019"><ele>508</ele><time>2020-06-12T12:20:59Z</time><name>PT8656</name></trkpt>
<trkpt lat="54.373273" lon="-3.113010"><ele>508</ele><time>2020-06-12T12:21:00Z</time><name>PT8657</name></trkpt>
<trkpt lat="54.373272" lon="-3.113001"><ele>508</ele><time>2020-06-12T12:21:01Z</time><name>PT8658</name></trkpt>
<trkpt lat="54.373272" lon="-3.112993"><ele>508</ele><time>2020-06-12T12:21:02Z</time><name>PT8659</name></trkpt>
<trkpt lat="54.373275" lon="-3.112984"><ele>507</ele><time>2020-06-12T12:21:03Z</time><name>PT8660</name></trkpt>
<trkpt lat="54.373278" lon="-3.112971"><ele>507</ele><time>2020-06-12T12:21:04Z</time><name>PT8661</name></trkpt>
<trkpt lat="54.373278" lon="-3.112957"><ele>507</ele><time>2020-06-12T12:21:05Z</time><name>PT8662</name></trkpt>
<trkpt lat="54.373280" lon="-3.112950"><ele>507</ele><time>2020-06-12T12:21:06Z</time><name>PT8663</name></trkpt>
<trkpt lat="54.373285" lon="-3.112944"><ele>507</ele><time>2020-06-12T12:21:07Z</time><name>PT8664</name></trkpt>
<trkpt lat="54.373288" lon="-3.112939"><ele>507</ele><time>2020-06-12T12:21:08Z</time><name>PT8665</name></trkpt>
<trkpt lat="54.373291" lon="-3.112924"><ele>507</ele><time>2020-06-12T12:21:09Z</time><name>PT8666</name></trkpt>
<trkpt lat="54.373293" lon="-3.112911"><ele>506</ele><time>2020-06-12T12:21:10Z</time><name>PT8667</name></trkpt>
<trkpt lat="54.373298" lon="-3.112893"><ele>506</ele><time>2020-06-12T12:21:11Z</time><name>PT8668</name></trkpt>
<trkpt lat="54.373300" lon="-3.112883"><ele>505</ele><time>2020-06-12T12:21:13Z</time><name>PT8669</name></trkpt>
<trkpt lat="54.373303" lon="-3.112864"><ele>505</ele><time>2020-06-12T12:21:13Z</time><name>PT8670</name></trkpt>
<trkpt lat="54.373307" lon="-3.112849"><ele>505</ele><time>2020-06-12T12:21:14Z</time><name>PT8671</name></trkpt>
<trkpt lat="54.373312" lon="-3.112838"><ele>505</ele><time>2020-06-12T12:21:15Z</time><name>PT8672</name></trkpt>
<trkpt lat="54.373312" lon="-3.112840"><ele>505</ele><time>2020-06-12T12:21:16Z</time><name>PT8673</name></trkpt>
<trkpt lat="54.373316" lon="-3.112833"><ele>504</ele><time>2020-06-12T12:21:17Z</time><name>PT8674</name></trkpt>
<trkpt lat="54.373318" lon="-3.112822"><ele>504</ele><time>2020-06-12T12:21:18Z</time><name>PT8675</name></trkpt>
<trkpt lat="54.373317" lon="-3.112801"><ele>504</ele><time>2020-06-12T12:21:19Z</time><name>PT8676</name></trkpt>
<trkpt lat="54.373322" lon="-3.112790"><ele>504</ele><time>2020-06-12T12:21:20Z</time><name>PT8677</name></trkpt>
<trkpt lat="54.373323" lon="-3.112770"><ele>503</ele><time>2020-06-12T12:21:21Z</time><name>PT8678</name></trkpt>
<trkpt lat="54.373325" lon="-3.112757"><ele>503</ele><time>2020-06-12T12:21:22Z</time><name>PT8679</name></trkpt>
<trkpt lat="54.373329" lon="-3.112743"><ele>503</ele><time>2020-06-12T12:21:23Z</time><name>PT8680</name></trkpt>
<trkpt lat="54.373334" lon="-3.112726"><ele>503</ele><time>2020-06-12T12:21:24Z</time><name>PT8681</name></trkpt>
<trkpt lat="54.373340" lon="-3.112707"><ele>503</ele><time>2020-06-12T12:21:25Z</time><name>PT8682</name></trkpt>
<trkpt lat="54.373347" lon="-3.112690"><ele>503</ele><time>2020-06-12T12:21:26Z</time><name>PT8683</name></trkpt>
<trkpt lat="54.373353" lon="-3.112676"><ele>503</ele><time>2020-06-12T12:21:27Z</time><name>PT8684</name></trkpt>
<trkpt lat="54.373358" lon="-3.112653"><ele>503</ele><time>2020-06-12T12:21:28Z</time><name>PT8685</name></trkpt>
<trkpt lat="54.373363" lon="-3.112639"><ele>503</ele><time>2020-06-12T12:21:29Z</time><name>PT8686</name></trkpt>
<trkpt lat="54.373367" lon="-3.112625"><ele>503</ele><time>2020-06-12T12:21:30Z</time><name>PT8687</name></trkpt>
<trkpt lat="54.373371" lon="-3.112609"><ele>503</ele><time>2020-06-12T12:21:31Z</time><name>PT8688</name></trkpt>
<trkpt lat="54.373373" lon="-3.112598"><ele>503</ele><time>2020-06-12T12:21:32Z</time><name>PT8689</name></trkpt>
<trkpt lat="54.373374" lon="-3.112584"><ele>503</ele><time>2020-06-12T12:21:33Z</time><name>PT8690</name></trkpt>
<trkpt lat="54.373371" lon="-3.112570"><ele>503</ele><time>2020-06-12T12:21:34Z</time><name>PT8691</name></trkpt>
<trkpt lat="54.373368" lon="-3.112549"><ele>503</ele><time>2020-06-12T12:21:35Z</time><name>PT8692</name></trkpt>
<trkpt lat="54.373368" lon="-3.112536"><ele>503</ele><time>2020-06-12T12:21:36Z</time><name>PT8693</name></trkpt>
<trkpt lat="54.373370" lon="-3.112530"><ele>503</ele><time>2020-06-12T12:21:37Z</time><name>PT8694</name></trkpt>
<trkpt lat="54.373370" lon="-3.112523"><ele>502</ele><time>2020-06-12T12:21:38Z</time><name>PT8695</name></trkpt>
<trkpt lat="54.373371" lon="-3.112515"><ele>502</ele><time>2020-06-12T12:21:39Z</time><name>PT8696</name></trkpt>
<trkpt lat="54.373371" lon="-3.112509"><ele>502</ele><time>2020-06-12T12:21:40Z</time><name>PT8697</name></trkpt>
<trkpt lat="54.373374" lon="-3.112502"><ele>502</ele><time>2020-06-12T12:21:41Z</time><name>PT8698</name></trkpt>
<trkpt lat="54.373375" lon="-3.112491"><ele>502</ele><time>2020-06-12T12:21:42Z</time><name>PT8699</name></trkpt>
<trkpt lat="54.373376" lon="-3.112485"><ele>502</ele><time>2020-06-12T12:21:43Z</time><name>PT8700</name></trkpt>
<trkpt lat="54.373380" lon="-3.112481"><ele>501</ele><time>2020-06-12T12:21:44Z</time><name>PT8701</name></trkpt>
<trkpt lat="54.373384" lon="-3.112471"><ele>502</ele><time>2020-06-12T12:21:45Z</time><name>PT8702</name></trkpt>
<trkpt lat="54.373384" lon="-3.112471"><ele>502</ele><time>2020-06-12T12:21:46Z</time><name>PT8703</name></trkpt>
<trkpt lat="54.373383" lon="-3.112463"><ele>503</ele><time>2020-06-12T12:21:47Z</time><name>PT8704</name></trkpt>
<trkpt lat="54.373395" lon="-3.112453"><ele>502</ele><time>2020-06-12T12:21:55Z</time><name>PT8705</name></trkpt>
<trkpt lat="54.373396" lon="-3.112423"><ele>502</ele><time>2020-06-12T12:21:56Z</time><name>PT8706</name></trkpt>
<trkpt lat="54.373398" lon="-3.112399"><ele>501</ele><time>2020-06-12T12:21:57Z</time><name>PT8707</name></trkpt>
<trkpt lat="54.373398" lon="-3.112389"><ele>501</ele><time>2020-06-12T12:21:58Z</time><name>PT8708</name></trkpt>
<trkpt lat="54.373399" lon="-3.112372"><ele>500</ele><time>2020-06-12T12:21:59Z</time><name>PT8709</name></trkpt>
<trkpt lat="54.373400" lon="-3.112357"><ele>500</ele><time>2020-06-12T12:22:00Z</time><name>PT8710</name></trkpt>
<trkpt lat="54.373398" lon="-3.112337"><ele>499</ele><time>2020-06-12T12:22:01Z</time><name>PT8711</name></trkpt>
<trkpt lat="54.373398" lon="-3.112319"><ele>499</ele><time>2020-06-12T12:22:02Z</time><name>PT8712</name></trkpt>
<trkpt lat="54.373397" lon="-3.112301"><ele>499</ele><time>2020-06-12T12:22:03Z</time><name>PT8713</name></trkpt>
<trkpt lat="54.373397" lon="-3.112288"><ele>499</ele><time>2020-06-12T12:22:04Z</time><name>PT8714</name></trkpt>
<trkpt lat="54.373396" lon="-3.112279"><ele>499</ele><time>2020-06-12T12:22:05Z</time><name>PT8715</name></trkpt>
<trkpt lat="54.373394" lon="-3.112274"><ele>498</ele><time>2020-06-12T12:22:06Z</time><name>PT8716</name></trkpt>
<trkpt lat="54.373391" lon="-3.112267"><ele>498</ele><time>2020-06-12T12:22:07Z</time><name>PT8717</name></trkpt>
<trkpt lat="54.373389" lon="-3.112265"><ele>498</ele><time>2020-06-12T12:22:08Z</time><name>PT8718</name></trkpt>
<trkpt lat="54.373389" lon="-3.112263"><ele>498</ele><time>2020-06-12T12:22:09Z</time><name>PT8719</name></trkpt>
<trkpt lat="54.373389" lon="-3.112262"><ele>498</ele><time>2020-06-12T12:22:10Z</time><name>PT8720</name></trkpt>
<trkpt lat="54.373385" lon="-3.112259"><ele>498</ele><time>2020-06-12T12:22:21Z</time><name>PT8721</name></trkpt>
<trkpt lat="54.373382" lon="-3.112259"><ele>498</ele><time>2020-06-12T12:22:22Z</time><name>PT8722</name></trkpt>
<trkpt lat="54.373384" lon="-3.112252"><ele>498</ele><time>2020-06-12T12:22:23Z</time><name>PT8723</name></trkpt>
<trkpt lat="54.373387" lon="-3.112252"><ele>498</ele><time>2020-06-12T12:22:24Z</time><name>PT8724</name></trkpt>
<trkpt lat="54.373385" lon="-3.112253"><ele>498</ele><time>2020-06-12T12:22:25Z</time><name>PT8725</name></trkpt>
<trkpt lat="54.373377" lon="-3.112250"><ele>497</ele><time>2020-06-12T12:22:26Z</time><name>PT8726</name></trkpt>
<trkpt lat="54.373370" lon="-3.112245"><ele>497</ele><time>2020-06-12T12:22:27Z</time><name>PT8727</name></trkpt>
<trkpt lat="54.373362" lon="-3.112242"><ele>497</ele><time>2020-06-12T12:22:28Z</time><name>PT8728</name></trkpt>
<trkpt lat="54.373356" lon="-3.112238"><ele>497</ele><time>2020-06-12T12:22:29Z</time><name>PT8729</name></trkpt>
<trkpt lat="54.373351" lon="-3.112233"><ele>497</ele><time>2020-06-12T12:22:30Z</time><name>PT8730</name></trkpt>
<trkpt lat="54.373343" lon="-3.112222"><ele>497</ele><time>2020-06-12T12:22:31Z</time><name>PT8731</name></trkpt>
<trkpt lat="54.373335" lon="-3.112217"><ele>497</ele><time>2020-06-12T12:22:32Z</time><name>PT8732</name></trkpt>
<trkpt lat="54.373333" lon="-3.112210"><ele>497</ele><time>2020-06-12T12:22:33Z</time><name>PT8733</name></trkpt>
<trkpt lat="54.373326" lon="-3.112206"><ele>496</ele><time>2020-06-12T12:22:34Z</time><name>PT8734</name></trkpt>
<trkpt lat="54.373323" lon="-3.112199"><ele>496</ele><time>2020-06-12T12:22:35Z</time><name>PT8735</name></trkpt>
<trkpt lat="54.373318" lon="-3.112195"><ele>496</ele><time>2020-06-12T12:22:36Z</time><name>PT8736</name></trkpt>
<trkpt lat="54.373314" lon="-3.112193"><ele>496</ele><time>2020-06-12T12:22:37Z</time><name>PT8737</name></trkpt>
<trkpt lat="54.373310" lon="-3.112190"><ele>496</ele><time>2020-06-12T12:22:40Z</time><name>PT8738</name></trkpt>
<trkpt lat="54.373305" lon="-3.112185"><ele>496</ele><time>2020-06-12T12:22:41Z</time><name>PT8739</name></trkpt>
<trkpt lat="54.373301" lon="-3.112175"><ele>496</ele><time>2020-06-12T12:22:42Z</time><name>PT8740</name></trkpt>
<trkpt lat="54.373299" lon="-3.112171"><ele>496</ele><time>2020-06-12T12:22:43Z</time><name>PT8741</name></trkpt>
<trkpt lat="54.373294" lon="-3.112168"><ele>496</ele><time>2020-06-12T12:22:44Z</time><name>PT8742</name></trkpt>
<trkpt lat="54.373287" lon="-3.112159"><ele>495</ele><time>2020-06-12T12:22:45Z</time><name>PT8743</name></trkpt>
<trkpt lat="54.373282" lon="-3.112152"><ele>495</ele><time>2020-06-12T12:22:46Z</time><name>PT8744</name></trkpt>
<trkpt lat="54.373278" lon="-3.112145"><ele>495</ele><time>2020-06-12T12:22:47Z</time><name>PT8745</name></trkpt>
<trkpt lat="54.373270" lon="-3.112135"><ele>494</ele><time>2020-06-12T12:22:48Z</time><name>PT8746</name></trkpt>
<trkpt lat="54.373267" lon="-3.112131"><ele>494</ele><time>2020-06-12T12:22:49Z</time><name>PT8747</name></trkpt>
<trkpt lat="54.373262" lon="-3.112123"><ele>494</ele><time>2020-06-12T12:22:50Z</time><name>PT8748</name></trkpt>
<trkpt lat="54.373257" lon="-3.112118"><ele>494</ele><time>2020-06-12T12:22:51Z</time><name>PT8749</name></trkpt>
<trkpt lat="54.373250" lon="-3.112112"><ele>493</ele><time>2020-06-12T12:22:52Z</time><name>PT8750</name></trkpt>
<trkpt lat="54.373245" lon="-3.112112"><ele>493</ele><time>2020-06-12T12:22:53Z</time><name>PT8751</name></trkpt>
<trkpt lat="54.373240" lon="-3.112111"><ele>493</ele><time>2020-06-12T12:22:54Z</time><name>PT8752</name></trkpt>
<trkpt lat="54.373236" lon="-3.112112"><ele>493</ele><time>2020-06-12T12:22:55Z</time><name>PT8753</name></trkpt>
<trkpt lat="54.373231" lon="-3.112111"><ele>493</ele><time>2020-06-12T12:22:56Z</time><name>PT8754</name></trkpt>
<trkpt lat="54.373225" lon="-3.112109"><ele>493</ele><time>2020-06-12T12:22:57Z</time><name>PT8755</name></trkpt>
<trkpt lat="54.373219" lon="-3.112107"><ele>493</ele><time>2020-06-12T12:22:58Z</time><name>PT8756</name></trkpt>
<trkpt lat="54.373215" lon="-3.112103"><ele>493</ele><time>2020-06-12T12:22:59Z</time><name>PT8757</name></trkpt>
<trkpt lat="54.373212" lon="-3.112101"><ele>493</ele><time>2020-06-12T12:23:00Z</time><name>PT8758</name></trkpt>
<trkpt lat="54.373211" lon="-3.112099"><ele>493</ele><time>2020-06-12T12:23:01Z</time><name>PT8759</name></trkpt>
<trkpt lat="54.373210" lon="-3.112097"><ele>493</ele><time>2020-06-12T12:23:14Z</time><name>PT8760</name></trkpt>
<trkpt lat="54.373206" lon="-3.112092"><ele>492</ele><time>2020-06-12T12:23:15Z</time><name>PT8761</name></trkpt>
<trkpt lat="54.373203" lon="-3.112091"><ele>492</ele><time>2020-06-12T12:23:16Z</time><name>PT8762</name></trkpt>
<trkpt lat="54.373200" lon="-3.112089"><ele>492</ele><time>2020-06-12T12:23:17Z</time><name>PT8763</name></trkpt>
<trkpt lat="54.373194" lon="-3.112086"><ele>492</ele><time>2020-06-12T12:23:18Z</time><name>PT8764</name></trkpt>
<trkpt lat="54.373192" lon="-3.112077"><ele>492</ele><time>2020-06-12T12:23:19Z</time><name>PT8765</name></trkpt>
<trkpt lat="54.373186" lon="-3.112073"><ele>491</ele><time>2020-06-12T12:23:20Z</time><name>PT8766</name></trkpt>
<trkpt lat="54.373181" lon="-3.112064"><ele>491</ele><time>2020-06-12T12:23:21Z</time><name>PT8767</name></trkpt>
<trkpt lat="54.373177" lon="-3.112059"><ele>491</ele><time>2020-06-12T12:23:22Z</time><name>PT8768</name></trkpt>
<trkpt lat="54.373175" lon="-3.112062"><ele>491</ele><time>2020-06-12T12:23:25Z</time><name>PT8769</name></trkpt>
<trkpt lat="54.373164" lon="-3.112063"><ele>491</ele><time>2020-06-12T12:23:26Z</time><name>PT8770</name></trkpt>
<trkpt lat="54.373154" lon="-3.112065"><ele>490</ele><time>2020-06-12T12:23:27Z</time><name>PT8771</name></trkpt>
<trkpt lat="54.373151" lon="-3.112053"><ele>490</ele><time>2020-06-12T12:23:28Z</time><name>PT8772</name></trkpt>
<trkpt lat="54.373147" lon="-3.112045"><ele>490</ele><time>2020-06-12T12:23:29Z</time><name>PT8773</name></trkpt>
<trkpt lat="54.373141" lon="-3.112039"><ele>489</ele><time>2020-06-12T12:23:30Z</time><name>PT8774</name></trkpt>
<trkpt lat="54.373137" lon="-3.112036"><ele>489</ele><time>2020-06-12T12:23:31Z</time><name>PT8775</name></trkpt>
<trkpt lat="54.373134" lon="-3.112034"><ele>489</ele><time>2020-06-12T12:23:32Z</time><name>PT8776</name></trkpt>
<trkpt lat="54.373129" lon="-3.112031"><ele>489</ele><time>2020-06-12T12:23:33Z</time><name>PT8777</name></trkpt>
<trkpt lat="54.373123" lon="-3.112029"><ele>489</ele><time>2020-06-12T12:23:34Z</time><name>PT8778</name></trkpt>
<trkpt lat="54.373115" lon="-3.112022"><ele>488</ele><time>2020-06-12T12:23:35Z</time><name>PT8779</name></trkpt>
<trkpt lat="54.373109" lon="-3.112018"><ele>488</ele><time>2020-06-12T12:23:36Z</time><name>PT8780</name></trkpt>
<trkpt lat="54.373106" lon="-3.112016"><ele>488</ele><time>2020-06-12T12:23:37Z</time><name>PT8781</name></trkpt>
<trkpt lat="54.373098" lon="-3.112014"><ele>488</ele><time>2020-06-12T12:23:38Z</time><name>PT8782</name></trkpt>
<trkpt lat="54.373092" lon="-3.112012"><ele>488</ele><time>2020-06-12T12:23:39Z</time><name>PT8783</name></trkpt>
<trkpt lat="54.373084" lon="-3.112000"><ele>487</ele><time>2020-06-12T12:23:40Z</time><name>PT8784</name></trkpt>
<trkpt lat="54.373079" lon="-3.111993"><ele>487</ele><time>2020-06-12T12:23:41Z</time><name>PT8785</name></trkpt>
<trkpt lat="54.373072" lon="-3.111985"><ele>487</ele><time>2020-06-12T12:23:42Z</time><name>PT8786</name></trkpt>
<trkpt lat="54.373070" lon="-3.111981"><ele>487</ele><time>2020-06-12T12:23:43Z</time><name>PT8787</name></trkpt>
<trkpt lat="54.373063" lon="-3.111964"><ele>487</ele><time>2020-06-12T12:23:44Z</time><name>PT8788</name></trkpt>
<trkpt lat="54.373058" lon="-3.111962"><ele>486</ele><time>2020-06-12T12:23:45Z</time><name>PT8789</name></trkpt>
<trkpt lat="54.373056" lon="-3.111961"><ele>486</ele><time>2020-06-12T12:23:46Z</time><name>PT8790</name></trkpt>
<trkpt lat="54.373053" lon="-3.111947"><ele>486</ele><time>2020-06-12T12:23:47Z</time><name>PT8791</name></trkpt>
<trkpt lat="54.373052" lon="-3.111939"><ele>486</ele><time>2020-06-12T12:23:48Z</time><name>PT8792</name></trkpt>
<trkpt lat="54.373052" lon="-3.111932"><ele>485</ele><time>2020-06-12T12:23:49Z</time><name>PT8793</name></trkpt>
<trkpt lat="54.373058" lon="-3.111916"><ele>485</ele><time>2020-06-12T12:23:50Z</time><name>PT8794</name></trkpt>
<trkpt lat="54.373061" lon="-3.111910"><ele>485</ele><time>2020-06-12T12:23:51Z</time><name>PT8795</name></trkpt>
<trkpt lat="54.373066" lon="-3.111919"><ele>486</ele><time>2020-06-12T12:23:52Z</time><name>PT8796</name></trkpt>
<trkpt lat="54.373065" lon="-3.111910"><ele>486</ele><time>2020-06-12T12:23:53Z</time><name>PT8797</name></trkpt>
<trkpt lat="54.373069" lon="-3.111903"><ele>485</ele><time>2020-06-12T12:23:54Z</time><name>PT8798</name></trkpt>
<trkpt lat="54.373075" lon="-3.111905"><ele>485</ele><time>2020-06-12T12:23:55Z</time><name>PT8799</name></trkpt>
<trkpt lat="54.373081" lon="-3.111908"><ele>485</ele><time>2020-06-12T12:23:56Z</time><name>PT8800</name></trkpt>
<trkpt lat="54.373086" lon="-3.111907"><ele>485</ele><time>2020-06-12T12:23:57Z</time><name>PT8801</name></trkpt>
<trkpt lat="54.373094" lon="-3.111900"><ele>485</ele><time>2020-06-12T12:23:58Z</time><name>PT8802</name></trkpt>
<trkpt lat="54.373100" lon="-3.111896"><ele>485</ele><time>2020-06-12T12:23:59Z</time><name>PT8803</name></trkpt>
<trkpt lat="54.373102" lon="-3.111892"><ele>485</ele><time>2020-06-12T12:24:00Z</time><name>PT8804</name></trkpt>
<trkpt lat="54.373106" lon="-3.111888"><ele>485</ele><time>2020-06-12T12:24:01Z</time><name>PT8805</name></trkpt>
<trkpt lat="54.373109" lon="-3.111887"><ele>484</ele><time>2020-06-12T12:24:02Z</time><name>PT8806</name></trkpt>
<trkpt lat="54.373110" lon="-3.111880"><ele>484</ele><time>2020-06-12T12:24:03Z</time><name>PT8807</name></trkpt>
<trkpt lat="54.373110" lon="-3.111869"><ele>484</ele><time>2020-06-12T12:24:04Z</time><name>PT8808</name></trkpt>
<trkpt lat="54.373111" lon="-3.111860"><ele>483</ele><time>2020-06-12T12:24:05Z</time><name>PT8809</name></trkpt>
<trkpt lat="54.373111" lon="-3.111849"><ele>483</ele><time>2020-06-12T12:24:06Z</time><name>PT8810</name></trkpt>
<trkpt lat="54.373114" lon="-3.111836"><ele>483</ele><time>2020-06-12T12:24:07Z</time><name>PT8811</name></trkpt>
<trkpt lat="54.373119" lon="-3.111839"><ele>483</ele><time>2020-06-12T12:24:08Z</time><name>PT8812</name></trkpt>
<trkpt lat="54.373121" lon="-3.111836"><ele>483</ele><time>2020-06-12T12:24:09Z</time><name>PT8813</name></trkpt>
<trkpt lat="54.373124" lon="-3.111831"><ele>483</ele><time>2020-06-12T12:24:10Z</time><name>PT8814</name></trkpt>
<trkpt lat="54.373128" lon="-3.111830"><ele>482</ele><time>2020-06-12T12:24:11Z</time><name>PT8815</name></trkpt>
<trkpt lat="54.373134" lon="-3.111828"><ele>482</ele><time>2020-06-12T12:24:12Z</time><name>PT8816</name></trkpt>
<trkpt lat="54.373135" lon="-3.111819"><ele>482</ele><time>2020-06-12T12:24:13Z</time><name>PT8817</name></trkpt>
<trkpt lat="54.373137" lon="-3.111810"><ele>482</ele><time>2020-06-12T12:24:14Z</time><name>PT8818</name></trkpt>
<trkpt lat="54.373139" lon="-3.111799"><ele>482</ele><time>2020-06-12T12:24:15Z</time><name>PT8819</name></trkpt>
<trkpt lat="54.373142" lon="-3.111791"><ele>482</ele><time>2020-06-12T12:24:16Z</time><name>PT8820</name></trkpt>
<trkpt lat="54.373145" lon="-3.111782"><ele>481</ele><time>2020-06-12T12:24:17Z</time><name>PT8821</name></trkpt>
<trkpt lat="54.373151" lon="-3.111776"><ele>481</ele><time>2020-06-12T12:24:18Z</time><name>PT8822</name></trkpt>
<trkpt lat="54.373156" lon="-3.111771"><ele>481</ele><time>2020-06-12T12:24:19Z</time><name>PT8823</name></trkpt>
<trkpt lat="54.373158" lon="-3.111767"><ele>480</ele><time>2020-06-12T12:24:20Z</time><name>PT8824</name></trkpt>
<trkpt lat="54.373158" lon="-3.111764"><ele>480</ele><time>2020-06-12T12:24:21Z</time><name>PT8825</name></trkpt>
<trkpt lat="54.373155" lon="-3.111757"><ele>480</ele><time>2020-06-12T12:24:22Z</time><name>PT8826</name></trkpt>
<trkpt lat="54.373154" lon="-3.111746"><ele>479</ele><time>2020-06-12T12:24:23Z</time><name>PT8827</name></trkpt>
<trkpt lat="54.373156" lon="-3.111737"><ele>479</ele><time>2020-06-12T12:24:24Z</time><name>PT8828</name></trkpt>
<trkpt lat="54.373158" lon="-3.111727"><ele>479</ele><time>2020-06-12T12:24:25Z</time><name>PT8829</name></trkpt>
<trkpt lat="54.373159" lon="-3.111718"><ele>479</ele><time>2020-06-12T12:24:26Z</time><name>PT8830</name></trkpt>
<trkpt lat="54.373161" lon="-3.111704"><ele>479</ele><time>2020-06-12T12:24:27Z</time><name>PT8831</name></trkpt>
<trkpt lat="54.373164" lon="-3.111698"><ele>478</ele><time>2020-06-12T12:24:28Z</time><name>PT8832</name></trkpt>
<trkpt lat="54.373166" lon="-3.111683"><ele>478</ele><time>2020-06-12T12:24:29Z</time><name>PT8833</name></trkpt>
<trkpt lat="54.373168" lon="-3.111675"><ele>478</ele><time>2020-06-12T12:24:30Z</time><name>PT8834</name></trkpt>
<trkpt lat="54.373170" lon="-3.111667"><ele>478</ele><time>2020-06-12T12:24:31Z</time><name>PT8835</name></trkpt>
<trkpt lat="54.373170" lon="-3.111658"><ele>478</ele><time>2020-06-12T12:24:32Z</time><name>PT8836</name></trkpt>
<trkpt lat="54.373173" lon="-3.111650"><ele>477</ele><time>2020-06-12T12:24:41Z</time><name>PT8837</name></trkpt>
<trkpt lat="54.373174" lon="-3.111632"><ele>477</ele><time>2020-06-12T12:24:42Z</time><name>PT8838</name></trkpt>
<trkpt lat="54.373174" lon="-3.111616"><ele>476</ele><time>2020-06-12T12:24:43Z</time><name>PT8839</name></trkpt>
<trkpt lat="54.373172" lon="-3.111602"><ele>476</ele><time>2020-06-12T12:24:44Z</time><name>PT8840</name></trkpt>
<trkpt lat="54.373168" lon="-3.111590"><ele>475</ele><time>2020-06-12T12:24:45Z</time><name>PT8841</name></trkpt>
<trkpt lat="54.373166" lon="-3.111581"><ele>474</ele><time>2020-06-12T12:24:46Z</time><name>PT8842</name></trkpt>
<trkpt lat="54.373161" lon="-3.111573"><ele>474</ele><time>2020-06-12T12:24:47Z</time><name>PT8843</name></trkpt>
<trkpt lat="54.373161" lon="-3.111561"><ele>473</ele><time>2020-06-12T12:24:48Z</time><name>PT8844</name></trkpt>
<trkpt lat="54.373158" lon="-3.111549"><ele>473</ele><time>2020-06-12T12:24:49Z</time><name>PT8845</name></trkpt>
<trkpt lat="54.373158" lon="-3.111539"><ele>473</ele><time>2020-06-12T12:24:50Z</time><name>PT8846</name></trkpt>
<trkpt lat="54.373156" lon="-3.111533"><ele>472</ele><time>2020-06-12T12:24:51Z</time><name>PT8847</name></trkpt>
<trkpt lat="54.373154" lon="-3.111526"><ele>472</ele><time>2020-06-12T12:24:52Z</time><name>PT8848</name></trkpt>
<trkpt lat="54.373137" lon="-3.111494"><ele>472</ele><time>2020-06-12T12:25:14Z</time><name>PT8849</name></trkpt>
<trkpt lat="54.373115" lon="-3.111457"><ele>470</ele><time>2020-06-12T12:25:15Z</time><name>PT8850</name></trkpt>
<trkpt lat="54.373107" lon="-3.111447"><ele>469</ele><time>2020-06-12T12:25:16Z</time><name>PT8851</name></trkpt>
<trkpt lat="54.373099" lon="-3.111425"><ele>467</ele><time>2020-06-12T12:25:17Z</time><name>PT8852</name></trkpt>
<trkpt lat="54.373091" lon="-3.111414"><ele>467</ele><time>2020-06-12T12:25:18Z</time><name>PT8853</name></trkpt>
<trkpt lat="54.373082" lon="-3.111401"><ele>466</ele><time>2020-06-12T12:25:19Z</time><name>PT8854</name></trkpt>
<trkpt lat="54.373079" lon="-3.111389"><ele>466</ele><time>2020-06-12T12:25:20Z</time><name>PT8855</name></trkpt>
<trkpt lat="54.373076" lon="-3.111378"><ele>465</ele><time>2020-06-12T12:25:21Z</time><name>PT8856</name></trkpt>
<trkpt lat="54.373070" lon="-3.111369"><ele>465</ele><time>2020-06-12T12:25:22Z</time><name>PT8857</name></trkpt>
<trkpt lat="54.373062" lon="-3.111356"><ele>465</ele><time>2020-06-12T12:25:23Z</time><name>PT8858</name></trkpt>
<trkpt lat="54.373056" lon="-3.111349"><ele>465</ele><time>2020-06-12T12:25:24Z</time><name>PT8859</name></trkpt>
<trkpt lat="54.373051" lon="-3.111339"><ele>464</ele><time>2020-06-12T12:25:25Z</time><name>PT8860</name></trkpt>
<trkpt lat="54.373046" lon="-3.111328"><ele>463</ele><time>2020-06-12T12:25:26Z</time><name>PT8861</name></trkpt>
<trkpt lat="54.373044" lon="-3.111324"><ele>463</ele><time>2020-06-12T12:25:27Z</time><name>PT8862</name></trkpt>
<trkpt lat="54.373039" lon="-3.111317"><ele>462</ele><time>2020-06-12T12:25:28Z</time><name>PT8863</name></trkpt>
<trkpt lat="54.373037" lon="-3.111309"><ele>462</ele><time>2020-06-12T12:25:29Z</time><name>PT8864</name></trkpt>
<trkpt lat="54.373043" lon="-3.111292"><ele>462</ele><time>2020-06-12T12:25:30Z</time><name>PT8865</name></trkpt>
<trkpt lat="54.373044" lon="-3.111295"><ele>461</ele><time>2020-06-12T12:25:31Z</time><name>PT8866</name></trkpt>
<trkpt lat="54.373045" lon="-3.111288"><ele>461</ele><time>2020-06-12T12:25:32Z</time><name>PT8867</name></trkpt>
<trkpt lat="54.373045" lon="-3.111275"><ele>461</ele><time>2020-06-12T12:25:33Z</time><name>PT8868</name></trkpt>
<trkpt lat="54.373044" lon="-3.111263"><ele>461</ele><time>2020-06-12T12:25:34Z</time><name>PT8869</name></trkpt>
<trkpt lat="54.373043" lon="-3.111249"><ele>461</ele><time>2020-06-12T12:25:35Z</time><name>PT8870</name></trkpt>
<trkpt lat="54.373041" lon="-3.111237"><ele>461</ele><time>2020-06-12T12:25:36Z</time><name>PT8871</name></trkpt>
<trkpt lat="54.373038" lon="-3.111223"><ele>461</ele><time>2020-06-12T12:25:37Z</time><name>PT8872</name></trkpt>
<trkpt lat="54.373036" lon="-3.111214"><ele>461</ele><time>2020-06-12T12:25:38Z</time><name>PT8873</name></trkpt>
<trkpt lat="54.373033" lon="-3.111206"><ele>461</ele><time>2020-06-12T12:25:39Z</time><name>PT8874</name></trkpt>
<trkpt lat="54.373037" lon="-3.111190"><ele>461</ele><time>2020-06-12T12:25:42Z</time><name>PT8875</name></trkpt>
<trkpt lat="54.373038" lon="-3.111172"><ele>460</ele><time>2020-06-12T12:25:43Z</time><name>PT8876</name></trkpt>
<trkpt lat="54.373037" lon="-3.111161"><ele>460</ele><time>2020-06-12T12:25:44Z</time><name>PT8877</name></trkpt>
<trkpt lat="54.373036" lon="-3.111152"><ele>460</ele><time>2020-06-12T12:25:45Z</time><name>PT8878</name></trkpt>
<trkpt lat="54.373035" lon="-3.111140"><ele>459</ele><time>2020-06-12T12:25:46Z</time><name>PT8879</name></trkpt>
<trkpt lat="54.373034" lon="-3.111135"><ele>459</ele><time>2020-06-12T12:25:47Z</time><name>PT8880</name></trkpt>
<trkpt lat="54.373033" lon="-3.111125"><ele>459</ele><time>2020-06-12T12:25:48Z</time><name>PT8881</name></trkpt>
<trkpt lat="54.373031" lon="-3.111113"><ele>459</ele><time>2020-06-12T12:25:49Z</time><name>PT8882</name></trkpt>
<trkpt lat="54.373029" lon="-3.111106"><ele>459</ele><time>2020-06-12T12:25:50Z</time><name>PT8883</name></trkpt>
<trkpt lat="54.373027" lon="-3.111100"><ele>458</ele><time>2020-06-12T12:25:51Z</time><name>PT8884</name></trkpt>
<trkpt lat="54.373023" lon="-3.111091"><ele>458</ele><time>2020-06-12T12:25:52Z</time><name>PT8885</name></trkpt>
<trkpt lat="54.373019" lon="-3.111086"><ele>458</ele><time>2020-06-12T12:25:53Z</time><name>PT8886</name></trkpt>
<trkpt lat="54.373017" lon="-3.111080"><ele>458</ele><time>2020-06-12T12:25:54Z</time><name>PT8887</name></trkpt>
<trkpt lat="54.373016" lon="-3.111070"><ele>457</ele><time>2020-06-12T12:25:55Z</time><name>PT8888</name></trkpt>
<trkpt lat="54.373011" lon="-3.111057"><ele>457</ele><time>2020-06-12T12:25:56Z</time><name>PT8889</name></trkpt>
<trkpt lat="54.373006" lon="-3.111045"><ele>457</ele><time>2020-06-12T12:25:57Z</time><name>PT8890</name></trkpt>
<trkpt lat="54.373000" lon="-3.111037"><ele>457</ele><time>2020-06-12T12:25:58Z</time><name>PT8891</name></trkpt>
<trkpt lat="54.372992" lon="-3.111029"><ele>456</ele><time>2020-06-12T12:25:59Z</time><name>PT8892</name></trkpt>
<trkpt lat="54.372986" lon="-3.111017"><ele>457</ele><time>2020-06-12T12:26:00Z</time><name>PT8893</name></trkpt>
<trkpt lat="54.372986" lon="-3.111009"><ele>456</ele><time>2020-06-12T12:26:01Z</time><name>PT8894</name></trkpt>
<trkpt lat="54.372987" lon="-3.111000"><ele>456</ele><time>2020-06-12T12:26:02Z</time><name>PT8895</name></trkpt>
<trkpt lat="54.372987" lon="-3.110988"><ele>456</ele><time>2020-06-12T12:26:03Z</time><name>PT8896</name></trkpt>
<trkpt lat="54.372986" lon="-3.110981"><ele>455</ele><time>2020-06-12T12:26:04Z</time><name>PT8897</name></trkpt>
<trkpt lat="54.372984" lon="-3.110971"><ele>455</ele><time>2020-06-12T12:26:05Z</time><name>PT8898</name></trkpt>
<trkpt lat="54.372982" lon="-3.110967"><ele>455</ele><time>2020-06-12T12:26:06Z</time><name>PT8899</name></trkpt>
<trkpt lat="54.372979" lon="-3.110956"><ele>454</ele><time>2020-06-12T12:26:07Z</time><name>PT8900</name></trkpt>
<trkpt lat="54.372976" lon="-3.110956"><ele>454</ele><time>2020-06-12T12:26:08Z</time><name>PT8901</name></trkpt>
<trkpt lat="54.372976" lon="-3.110949"><ele>454</ele><time>2020-06-12T12:26:09Z</time><name>PT8902</name></trkpt>
<trkpt lat="54.372972" lon="-3.110944"><ele>454</ele><time>2020-06-12T12:26:10Z</time><name>PT8903</name></trkpt>
<trkpt lat="54.372969" lon="-3.110939"><ele>454</ele><time>2020-06-12T12:26:11Z</time><name>PT8904</name></trkpt>
<trkpt lat="54.372966" lon="-3.110934"><ele>454</ele><time>2020-06-12T12:26:12Z</time><name>PT8905</name></trkpt>
<trkpt lat="54.372965" lon="-3.110931"><ele>454</ele><time>2020-06-12T12:26:13Z</time><name>PT8906</name></trkpt>
<trkpt lat="54.372964" lon="-3.110928"><ele>454</ele><time>2020-06-12T12:26:14Z</time><name>PT8907</name></trkpt>
<trkpt lat="54.372962" lon="-3.110931"><ele>453</ele><time>2020-06-12T12:26:15Z</time><name>PT8908</name></trkpt>
<trkpt lat="54.372963" lon="-3.110921"><ele>453</ele><time>2020-06-12T12:26:16Z</time><name>PT8909</name></trkpt>
<trkpt lat="54.372964" lon="-3.110908"><ele>453</ele><time>2020-06-12T12:26:17Z</time><name>PT8910</name></trkpt>
<trkpt lat="54.372962" lon="-3.110897"><ele>453</ele><time>2020-06-12T12:26:18Z</time><name>PT8911</name></trkpt>
<trkpt lat="54.372961" lon="-3.110890"><ele>453</ele><time>2020-06-12T12:26:19Z</time><name>PT8912</name></trkpt>
<trkpt lat="54.372959" lon="-3.110883"><ele>453</ele><time>2020-06-12T12:26:20Z</time><name>PT8913</name></trkpt>
<trkpt lat="54.372951" lon="-3.110869"><ele>453</ele><time>2020-06-12T12:26:22Z</time><name>PT8914</name></trkpt>
<trkpt lat="54.372953" lon="-3.110859"><ele>452</ele><time>2020-06-12T12:26:23Z</time><name>PT8915</name></trkpt>
<trkpt lat="54.372956" lon="-3.110848"><ele>452</ele><time>2020-06-12T12:26:24Z</time><name>PT8916</name></trkpt>
<trkpt lat="54.372955" lon="-3.110831"><ele>452</ele><time>2020-06-12T12:26:25Z</time><name>PT8917</name></trkpt>
<trkpt lat="54.372949" lon="-3.110809"><ele>452</ele><time>2020-06-12T12:26:26Z</time><name>PT8918</name></trkpt>
<trkpt lat="54.372951" lon="-3.110805"><ele>451</ele><time>2020-06-12T12:26:27Z</time><name>PT8919</name></trkpt>
<trkpt lat="54.372950" lon="-3.110794"><ele>450</ele><time>2020-06-12T12:26:28Z</time><name>PT8920</name></trkpt>
<trkpt lat="54.372947" lon="-3.110789"><ele>449</ele><time>2020-06-12T12:26:29Z</time><name>PT8921</name></trkpt>
<trkpt lat="54.372942" lon="-3.110785"><ele>449</ele><time>2020-06-12T12:26:30Z</time><name>PT8922</name></trkpt>
<trkpt lat="54.372940" lon="-3.110779"><ele>448</ele><time>2020-06-12T12:26:31Z</time><name>PT8923</name></trkpt>
<trkpt lat="54.372937" lon="-3.110769"><ele>448</ele><time>2020-06-12T12:26:32Z</time><name>PT8924</name></trkpt>
<trkpt lat="54.372936" lon="-3.110756"><ele>448</ele><time>2020-06-12T12:26:33Z</time><name>PT8925</name></trkpt>
<trkpt lat="54.372937" lon="-3.110743"><ele>448</ele><time>2020-06-12T12:26:34Z</time><name>PT8926</name></trkpt>
<trkpt lat="54.372937" lon="-3.110741"><ele>448</ele><time>2020-06-12T12:26:36Z</time><name>PT8927</name></trkpt>
<trkpt lat="54.372935" lon="-3.110727"><ele>448</ele><time>2020-06-12T12:26:37Z</time><name>PT8928</name></trkpt>
<trkpt lat="54.372938" lon="-3.110711"><ele>448</ele><time>2020-06-12T12:26:38Z</time><name>PT8929</name></trkpt>
<trkpt lat="54.372942" lon="-3.110697"><ele>447</ele><time>2020-06-12T12:26:39Z</time><name>PT8930</name></trkpt>
<trkpt lat="54.372942" lon="-3.110686"><ele>447</ele><time>2020-06-12T12:26:40Z</time><name>PT8931</name></trkpt>
<trkpt lat="54.372949" lon="-3.110677"><ele>447</ele><time>2020-06-12T12:26:41Z</time><name>PT8932</name></trkpt>
<trkpt lat="54.372949" lon="-3.110664"><ele>447</ele><time>2020-06-12T12:26:42Z</time><name>PT8933</name></trkpt>
<trkpt lat="54.372950" lon="-3.110652"><ele>447</ele><time>2020-06-12T12:26:43Z</time><name>PT8934</name></trkpt>
<trkpt lat="54.372951" lon="-3.110641"><ele>447</ele><time>2020-06-12T12:26:44Z</time><name>PT8935</name></trkpt>
<trkpt lat="54.372952" lon="-3.110629"><ele>447</ele><time>2020-06-12T12:26:45Z</time><name>PT8936</name></trkpt>
<trkpt lat="54.372950" lon="-3.110608"><ele>447</ele><time>2020-06-12T12:26:46Z</time><name>PT8937</name></trkpt>
<trkpt lat="54.372952" lon="-3.110591"><ele>447</ele><time>2020-06-12T12:26:47Z</time><name>PT8938</name></trkpt>
<trkpt lat="54.372946" lon="-3.110568"><ele>446</ele><time>2020-06-12T12:26:48Z</time><name>PT8939</name></trkpt>
<trkpt lat="54.372945" lon="-3.110550"><ele>446</ele><time>2020-06-12T12:26:49Z</time><name>PT8940</name></trkpt>
<trkpt lat="54.372947" lon="-3.110533"><ele>446</ele><time>2020-06-12T12:26:50Z</time><name>PT8941</name></trkpt>
<trkpt lat="54.372948" lon="-3.110525"><ele>446</ele><time>2020-06-12T12:26:51Z</time><name>PT8942</name></trkpt>
<trkpt lat="54.372948" lon="-3.110511"><ele>445</ele><time>2020-06-12T12:26:52Z</time><name>PT8943</name></trkpt>
<trkpt lat="54.372952" lon="-3.110503"><ele>445</ele><time>2020-06-12T12:26:53Z</time><name>PT8944</name></trkpt>
<trkpt lat="54.372954" lon="-3.110494"><ele>445</ele><time>2020-06-12T12:26:54Z</time><name>PT8945</name></trkpt>
<trkpt lat="54.372954" lon="-3.110483"><ele>445</ele><time>2020-06-12T12:26:55Z</time><name>PT8946</name></trkpt>
<trkpt lat="54.372955" lon="-3.110470"><ele>445</ele><time>2020-06-12T12:26:56Z</time><name>PT8947</name></trkpt>
<trkpt lat="54.372956" lon="-3.110456"><ele>445</ele><time>2020-06-12T12:26:57Z</time><name>PT8948</name></trkpt>
<trkpt lat="54.372955" lon="-3.110448"><ele>445</ele><time>2020-06-12T12:26:58Z</time><name>PT8949</name></trkpt>
<trkpt lat="54.372953" lon="-3.110441"><ele>445</ele><time>2020-06-12T12:26:59Z</time><name>PT8950</name></trkpt>
<trkpt lat="54.372950" lon="-3.110438"><ele>445</ele><time>2020-06-12T12:27:00Z</time><name>PT8951</name></trkpt>
<trkpt lat="54.372947" lon="-3.110427"><ele>444</ele><time>2020-06-12T12:27:01Z</time><name>PT8952</name></trkpt>
<trkpt lat="54.372945" lon="-3.110419"><ele>444</ele><time>2020-06-12T12:27:02Z</time><name>PT8953</name></trkpt>
<trkpt lat="54.372947" lon="-3.110418"><ele>444</ele><time>2020-06-12T12:27:03Z</time><name>PT8954</name></trkpt>
<trkpt lat="54.372946" lon="-3.110412"><ele>443</ele><time>2020-06-12T12:27:04Z</time><name>PT8955</name></trkpt>
<trkpt lat="54.372938" lon="-3.110393"><ele>443</ele><time>2020-06-12T12:27:05Z</time><name>PT8956</name></trkpt>
<trkpt lat="54.372930" lon="-3.110375"><ele>443</ele><time>2020-06-12T12:27:06Z</time><name>PT8957</name></trkpt>
<trkpt lat="54.372926" lon="-3.110360"><ele>443</ele><time>2020-06-12T12:27:07Z</time><name>PT8958</name></trkpt>
<trkpt lat="54.372927" lon="-3.110345"><ele>443</ele><time>2020-06-12T12:27:08Z</time><name>PT8959</name></trkpt>
<trkpt lat="54.372926" lon="-3.110333"><ele>442</ele><time>2020-06-12T12:27:09Z</time><name>PT8960</name></trkpt>
<trkpt lat="54.372923" lon="-3.110322"><ele>442</ele><time>2020-06-12T12:27:10Z</time><name>PT8961</name></trkpt>
<trkpt lat="54.372923" lon="-3.110312"><ele>441</ele><time>2020-06-12T12:27:11Z</time><name>PT8962</name></trkpt>
<trkpt lat="54.372925" lon="-3.110295"><ele>442</ele><time>2020-06-12T12:27:12Z</time><name>PT8963</name></trkpt>
<trkpt lat="54.372926" lon="-3.110293"><ele>441</ele><time>2020-06-12T12:27:13Z</time><name>PT8964</name></trkpt>
<trkpt lat="54.372926" lon="-3.110279"><ele>441</ele><time>2020-06-12T12:27:14Z</time><name>PT8965</name></trkpt>
<trkpt lat="54.372923" lon="-3.110266"><ele>441</ele><time>2020-06-12T12:27:15Z</time><name>PT8966</name></trkpt>
<trkpt lat="54.372924" lon="-3.110250"><ele>442</ele><time>2020-06-12T12:27:16Z</time><name>PT8967</name></trkpt>
<trkpt lat="54.372924" lon="-3.110229"><ele>442</ele><time>2020-06-12T12:27:17Z</time><name>PT8968</name></trkpt>
<trkpt lat="54.372925" lon="-3.110213"><ele>442</ele><time>2020-06-12T12:27:18Z</time><name>PT8969</name></trkpt>
<trkpt lat="54.372928" lon="-3.110195"><ele>442</ele><time>2020-06-12T12:27:19Z</time><name>PT8970</name></trkpt>
<trkpt lat="54.372932" lon="-3.110179"><ele>442</ele><time>2020-06-12T12:27:20Z</time><name>PT8971</name></trkpt>
<trkpt lat="54.372933" lon="-3.110168"><ele>442</ele><time>2020-06-12T12:27:21Z</time><name>PT8972</name></trkpt>
<trkpt lat="54.372930" lon="-3.110160"><ele>442</ele><time>2020-06-12T12:27:22Z</time><name>PT8973</name></trkpt>
<trkpt lat="54.372928" lon="-3.110154"><ele>442</ele><time>2020-06-12T12:27:23Z</time><name>PT8974</name></trkpt>
<trkpt lat="54.372926" lon="-3.110148"><ele>442</ele><time>2020-06-12T12:27:24Z</time><name>PT8975</name></trkpt>
<trkpt lat="54.372927" lon="-3.110143"><ele>442</ele><time>2020-06-12T12:27:25Z</time><name>PT8976</name></trkpt>
<trkpt lat="54.372926" lon="-3.110132"><ele>442</ele><time>2020-06-12T12:27:26Z</time><name>PT8977</name></trkpt>
<trkpt lat="54.372925" lon="-3.110128"><ele>442</ele><time>2020-06-12T12:27:27Z</time><name>PT8978</name></trkpt>
<trkpt lat="54.372923" lon="-3.110120"><ele>442</ele><time>2020-06-12T12:27:28Z</time><name>PT8979</name></trkpt>
<trkpt lat="54.372922" lon="-3.110116"><ele>442</ele><time>2020-06-12T12:27:29Z</time><name>PT8980</name></trkpt>
<trkpt lat="54.372919" lon="-3.110111"><ele>441</ele><time>2020-06-12T12:27:30Z</time><name>PT8981</name></trkpt>
<trkpt lat="54.372915" lon="-3.110104"><ele>441</ele><time>2020-06-12T12:27:31Z</time><name>PT8982</name></trkpt>
<trkpt lat="54.372914" lon="-3.110098"><ele>441</ele><time>2020-06-12T12:27:32Z</time><name>PT8983</name></trkpt>
<trkpt lat="54.372914" lon="-3.110095"><ele>441</ele><time>2020-06-12T12:27:33Z</time><name>PT8984</name></trkpt>
<trkpt lat="54.372912" lon="-3.110088"><ele>441</ele><time>2020-06-12T12:27:34Z</time><name>PT8985</name></trkpt>
<trkpt lat="54.372913" lon="-3.110079"><ele>440</ele><time>2020-06-12T12:27:35Z</time><name>PT8986</name></trkpt>
<trkpt lat="54.372911" lon="-3.110069"><ele>441</ele><time>2020-06-12T12:27:36Z</time><name>PT8987</name></trkpt>
<trkpt lat="54.372908" lon="-3.110059"><ele>441</ele><time>2020-06-12T12:27:37Z</time><name>PT8988</name></trkpt>
<trkpt lat="54.372907" lon="-3.110051"><ele>441</ele><time>2020-06-12T12:27:38Z</time><name>PT8989</name></trkpt>
<trkpt lat="54.372905" lon="-3.110020"><ele>441</ele><time>2020-06-12T12:27:46Z</time><name>PT8990</name></trkpt>
<trkpt lat="54.372906" lon="-3.110000"><ele>442</ele><time>2020-06-12T12:27:47Z</time><name>PT8991</name></trkpt>
<trkpt lat="54.372912" lon="-3.109981"><ele>441</ele><time>2020-06-12T12:27:48Z</time><name>PT8992</name></trkpt>
<trkpt lat="54.372913" lon="-3.109963"><ele>441</ele><time>2020-06-12T12:27:49Z</time><name>PT8993</name></trkpt>
<trkpt lat="54.372919" lon="-3.109950"><ele>441</ele><time>2020-06-12T12:27:50Z</time><name>PT8994</name></trkpt>
<trkpt lat="54.372921" lon="-3.109937"><ele>441</ele><time>2020-06-12T12:27:51Z</time><name>PT8995</name></trkpt>
<trkpt lat="54.372927" lon="-3.109926"><ele>441</ele><time>2020-06-12T12:27:52Z</time><name>PT8996</name></trkpt>
<trkpt lat="54.372932" lon="-3.109915"><ele>441</ele><time>2020-06-12T12:27:53Z</time><name>PT8997</name></trkpt>
<trkpt lat="54.372933" lon="-3.109910"><ele>441</ele><time>2020-06-12T12:27:54Z</time><name>PT8998</name></trkpt>
<trkpt lat="54.372936" lon="-3.109907"><ele>440</ele><time>2020-06-12T12:27:55Z</time><name>PT8999</name></trkpt>
<trkpt lat="54.372935" lon="-3.109902"><ele>440</ele><time>2020-06-12T12:27:56Z</time><name>PT9000</name></trkpt>
<trkpt lat="54.372937" lon="-3.109894"><ele>440</ele><time>2020-06-12T12:28:00Z</time><name>PT9001</name></trkpt>
<trkpt lat="54.372942" lon="-3.109882"><ele>440</ele><time>2020-06-12T12:28:01Z</time><name>PT9002</name></trkpt>
<trkpt lat="54.372948" lon="-3.109872"><ele>440</ele><time>2020-06-12T12:28:02Z</time><name>PT9003</name></trkpt>
<trkpt lat="54.372956" lon="-3.109866"><ele>439</ele><time>2020-06-12T12:28:03Z</time><name>PT9004</name></trkpt>
<trkpt lat="54.372959" lon="-3.109858"><ele>439</ele><time>2020-06-12T12:28:04Z</time><name>PT9005</name></trkpt>
<trkpt lat="54.372963" lon="-3.109853"><ele>439</ele><time>2020-06-12T12:28:05Z</time><name>PT9006</name></trkpt>
<trkpt lat="54.372971" lon="-3.109845"><ele>439</ele><time>2020-06-12T12:28:06Z</time><name>PT9007</name></trkpt>
<trkpt lat="54.372978" lon="-3.109842"><ele>439</ele><time>2020-06-12T12:28:07Z</time><name>PT9008</name></trkpt>
<trkpt lat="54.372984" lon="-3.109841"><ele>438</ele><time>2020-06-12T12:28:08Z</time><name>PT9009</name></trkpt>
<trkpt lat="54.372989" lon="-3.109836"><ele>438</ele><time>2020-06-12T12:28:09Z</time><name>PT9010</name></trkpt>
<trkpt lat="54.372996" lon="-3.109835"><ele>438</ele><time>2020-06-12T12:28:10Z</time><name>PT9011</name></trkpt>
<trkpt lat="54.373002" lon="-3.109832"><ele>437</ele><time>2020-06-12T12:28:11Z</time><name>PT9012</name></trkpt>
<trkpt lat="54.373012" lon="-3.109835"><ele>437</ele><time>2020-06-12T12:28:12Z</time><name>PT9013</name></trkpt>
<trkpt lat="54.373020" lon="-3.109832"><ele>437</ele><time>2020-06-12T12:28:13Z</time><name>PT9014</name></trkpt>
<trkpt lat="54.373027" lon="-3.109827"><ele>436</ele><time>2020-06-12T12:28:14Z</time><name>PT9015</name></trkpt>
<trkpt lat="54.373035" lon="-3.109821"><ele>437</ele><time>2020-06-12T12:28:15Z</time><name>PT9016</name></trkpt>
<trkpt lat="54.373041" lon="-3.109818"><ele>436</ele><time>2020-06-12T12:28:16Z</time><name>PT9017</name></trkpt>
<trkpt lat="54.373046" lon="-3.109813"><ele>436</ele><time>2020-06-12T12:28:17Z</time><name>PT9018</name></trkpt>
<trkpt lat="54.373047" lon="-3.109811"><ele>436</ele><time>2020-06-12T12:28:18Z</time><name>PT9019</name></trkpt>
<trkpt lat="54.373051" lon="-3.109815"><ele>435</ele><time>2020-06-12T12:28:19Z</time><name>PT9020</name></trkpt>
<trkpt lat="54.373057" lon="-3.109817"><ele>435</ele><time>2020-06-12T12:28:20Z</time><name>PT9021</name></trkpt>
<trkpt lat="54.373062" lon="-3.109817"><ele>435</ele><time>2020-06-12T12:28:21Z</time><name>PT9022</name></trkpt>
<trkpt lat="54.373064" lon="-3.109814"><ele>434</ele><time>2020-06-12T12:28:22Z</time><name>PT9023</name></trkpt>
<trkpt lat="54.373068" lon="-3.109813"><ele>434</ele><time>2020-06-12T12:28:23Z</time><name>PT9024</name></trkpt>
<trkpt lat="54.373072" lon="-3.109809"><ele>434</ele><time>2020-06-12T12:28:24Z</time><name>PT9025</name></trkpt>
<trkpt lat="54.373076" lon="-3.109809"><ele>433</ele><time>2020-06-12T12:28:25Z</time><name>PT9026</name></trkpt>
<trkpt lat="54.373080" lon="-3.109808"><ele>433</ele><time>2020-06-12T12:28:26Z</time><name>PT9027</name></trkpt>
<trkpt lat="54.373088" lon="-3.109814"><ele>434</ele><time>2020-06-12T12:28:27Z</time><name>PT9028</name></trkpt>
<trkpt lat="54.373094" lon="-3.109814"><ele>434</ele><time>2020-06-12T12:28:28Z</time><name>PT9029</name></trkpt>
<trkpt lat="54.373105" lon="-3.109808"><ele>434</ele><time>2020-06-12T12:28:29Z</time><name>PT9030</name></trkpt>
<trkpt lat="54.373108" lon="-3.109802"><ele>434</ele><time>2020-06-12T12:28:30Z</time><name>PT9031</name></trkpt>
<trkpt lat="54.373112" lon="-3.109795"><ele>434</ele><time>2020-06-12T12:28:31Z</time><name>PT9032</name></trkpt>
<trkpt lat="54.373117" lon="-3.109786"><ele>434</ele><time>2020-06-12T12:28:32Z</time><name>PT9033</name></trkpt>
<trkpt lat="54.373122" lon="-3.109779"><ele>434</ele><time>2020-06-12T12:28:33Z</time><name>PT9034</name></trkpt>
<trkpt lat="54.373128" lon="-3.109780"><ele>434</ele><time>2020-06-12T12:28:34Z</time><name>PT9035</name></trkpt>
<trkpt lat="54.373134" lon="-3.109784"><ele>434</ele><time>2020-06-12T12:28:35Z</time><name>PT9036</name></trkpt>
<trkpt lat="54.373139" lon="-3.109785"><ele>433</ele><time>2020-06-12T12:28:36Z</time><name>PT9037</name></trkpt>
<trkpt lat="54.373142" lon="-3.109786"><ele>433</ele><time>2020-06-12T12:28:37Z</time><name>PT9038</name></trkpt>
<trkpt lat="54.373148" lon="-3.109780"><ele>433</ele><time>2020-06-12T12:28:38Z</time><name>PT9039</name></trkpt>
<trkpt lat="54.373150" lon="-3.109772"><ele>433</ele><time>2020-06-12T12:28:39Z</time><name>PT9040</name></trkpt>
<trkpt lat="54.373151" lon="-3.109771"><ele>433</ele><time>2020-06-12T12:28:40Z</time><name>PT9041</name></trkpt>
<trkpt lat="54.373153" lon="-3.109766"><ele>433</ele><time>2020-06-12T12:28:41Z</time><name>PT9042</name></trkpt>
<trkpt lat="54.373153" lon="-3.109765"><ele>433</ele><time>2020-06-12T12:28:42Z</time><name>PT9043</name></trkpt>
<trkpt lat="54.373153" lon="-3.109763"><ele>433</ele><time>2020-06-12T12:28:43Z</time><name>PT9044</name></trkpt>
<trkpt lat="54.373157" lon="-3.109759"><ele>433</ele><time>2020-06-12T12:28:44Z</time><name>PT9045</name></trkpt>
<trkpt lat="54.373161" lon="-3.109753"><ele>433</ele><time>2020-06-12T12:28:45Z</time><name>PT9046</name></trkpt>
<trkpt lat="54.373164" lon="-3.109741"><ele>433</ele><time>2020-06-12T12:28:46Z</time><name>PT9047</name></trkpt>
<trkpt lat="54.373166" lon="-3.109734"><ele>433</ele><time>2020-06-12T12:28:47Z</time><name>PT9048</name></trkpt>
<trkpt lat="54.373169" lon="-3.109723"><ele>433</ele><time>2020-06-12T12:28:48Z</time><name>PT9049</name></trkpt>
<trkpt lat="54.373174" lon="-3.109717"><ele>433</ele><time>2020-06-12T12:28:49Z</time><name>PT9050</name></trkpt>
<trkpt lat="54.373180" lon="-3.109718"><ele>433</ele><time>2020-06-12T12:28:50Z</time><name>PT9051</name></trkpt>
<trkpt lat="54.373184" lon="-3.109711"><ele>433</ele><time>2020-06-12T12:28:51Z</time><name>PT9052</name></trkpt>
<trkpt lat="54.373185" lon="-3.109706"><ele>433</ele><time>2020-06-12T12:28:52Z</time><name>PT9053</name></trkpt>
<trkpt lat="54.373187" lon="-3.109709"><ele>433</ele><time>2020-06-12T12:28:53Z</time><name>PT9054</name></trkpt>
<trkpt lat="54.373187" lon="-3.109714"><ele>432</ele><time>2020-06-12T12:28:57Z</time><name>PT9055</name></trkpt>
<trkpt lat="54.373190" lon="-3.109705"><ele>432</ele><time>2020-06-12T12:28:58Z</time><name>PT9056</name></trkpt>
<trkpt lat="54.373195" lon="-3.109696"><ele>433</ele><time>2020-06-12T12:29:00Z</time><name>PT9057</name></trkpt>
<trkpt lat="54.373200" lon="-3.109703"><ele>432</ele><time>2020-06-12T12:29:01Z</time><name>PT9058</name></trkpt>
<trkpt lat="54.373201" lon="-3.109682"><ele>433</ele><time>2020-06-12T12:29:02Z</time><name>PT9059</name></trkpt>
<trkpt lat="54.373203" lon="-3.109671"><ele>432</ele><time>2020-06-12T12:29:03Z</time><name>PT9060</name></trkpt>
<trkpt lat="54.373216" lon="-3.109651"><ele>432</ele><time>2020-06-12T12:29:11Z</time><name>PT9061</name></trkpt>
<trkpt lat="54.373222" lon="-3.109643"><ele>432</ele><time>2020-06-12T12:29:12Z</time><name>PT9062</name></trkpt>
<trkpt lat="54.373229" lon="-3.109635"><ele>431</ele><time>2020-06-12T12:29:13Z</time><name>PT9063</name></trkpt>
<trkpt lat="54.373237" lon="-3.109628"><ele>430</ele><time>2020-06-12T12:29:14Z</time><name>PT9064</name></trkpt>
<trkpt lat="54.373244" lon="-3.109619"><ele>429</ele><time>2020-06-12T12:29:15Z</time><name>PT9065</name></trkpt>
<trkpt lat="54.373249" lon="-3.109611"><ele>428</ele><time>2020-06-12T12:29:16Z</time><name>PT9066</name></trkpt>
<trkpt lat="54.373252" lon="-3.109603"><ele>428</ele><time>2020-06-12T12:29:17Z</time><name>PT9067</name></trkpt>
<trkpt lat="54.373255" lon="-3.109592"><ele>427</ele><time>2020-06-12T12:29:18Z</time><name>PT9068</name></trkpt>
<trkpt lat="54.373258" lon="-3.109584"><ele>427</ele><time>2020-06-12T12:29:19Z</time><name>PT9069</name></trkpt>
<trkpt lat="54.373261" lon="-3.109574"><ele>426</ele><time>2020-06-12T12:29:20Z</time><name>PT9070</name></trkpt>
<trkpt lat="54.373265" lon="-3.109564"><ele>426</ele><time>2020-06-12T12:29:21Z</time><name>PT9071</name></trkpt>
<trkpt lat="54.373268" lon="-3.109553"><ele>425</ele><time>2020-06-12T12:29:22Z</time><name>PT9072</name></trkpt>
<trkpt lat="54.373272" lon="-3.109540"><ele>425</ele><time>2020-06-12T12:29:23Z</time><name>PT9073</name></trkpt>
<trkpt lat="54.373276" lon="-3.109527"><ele>424</ele><time>2020-06-12T12:29:24Z</time><name>PT9074</name></trkpt>
<trkpt lat="54.373280" lon="-3.109515"><ele>424</ele><time>2020-06-12T12:29:25Z</time><name>PT9075</name></trkpt>
<trkpt lat="54.373286" lon="-3.109509"><ele>423</ele><time>2020-06-12T12:29:26Z</time><name>PT9076</name></trkpt>
<trkpt lat="54.373290" lon="-3.109491"><ele>423</ele><time>2020-06-12T12:29:27Z</time><name>PT9077</name></trkpt>
<trkpt lat="54.373297" lon="-3.109472"><ele>423</ele><time>2020-06-12T12:29:28Z</time><name>PT9078</name></trkpt>
<trkpt lat="54.373297" lon="-3.109461"><ele>423</ele><time>2020-06-12T12:29:29Z</time><name>PT9079</name></trkpt>
<trkpt lat="54.373295" lon="-3.109455"><ele>422</ele><time>2020-06-12T12:29:30Z</time><name>PT9080</name></trkpt>
<trkpt lat="54.373291" lon="-3.109449"><ele>423</ele><time>2020-06-12T12:29:31Z</time><name>PT9081</name></trkpt>
<trkpt lat="54.373285" lon="-3.109453"><ele>422</ele><time>2020-06-12T12:29:32Z</time><name>PT9082</name></trkpt>
<trkpt lat="54.373282" lon="-3.109451"><ele>422</ele><time>2020-06-12T12:29:33Z</time><name>PT9083</name></trkpt>
<trkpt lat="54.373279" lon="-3.109447"><ele>421</ele><time>2020-06-12T12:29:34Z</time><name>PT9084</name></trkpt>
<trkpt lat="54.373279" lon="-3.109439"><ele>421</ele><time>2020-06-12T12:29:35Z</time><name>PT9085</name></trkpt>
<trkpt lat="54.373279" lon="-3.109428"><ele>421</ele><time>2020-06-12T12:29:36Z</time><name>PT9086</name></trkpt>
<trkpt lat="54.373279" lon="-3.109419"><ele>421</ele><time>2020-06-12T12:29:37Z</time><name>PT9087</name></trkpt>
<trkpt lat="54.373278" lon="-3.109391"><ele>421</ele><time>2020-06-12T12:29:40Z</time><name>PT9088</name></trkpt>
<trkpt lat="54.373276" lon="-3.109381"><ele>420</ele><time>2020-06-12T12:29:41Z</time><name>PT9089</name></trkpt>
<trkpt lat="54.373274" lon="-3.109370"><ele>420</ele><time>2020-06-12T12:29:42Z</time><name>PT9090</name></trkpt>
<trkpt lat="54.373272" lon="-3.109358"><ele>419</ele><time>2020-06-12T12:29:43Z</time><name>PT9091</name></trkpt>
<trkpt lat="54.373270" lon="-3.109354"><ele>419</ele><time>2020-06-12T12:29:44Z</time><name>PT9092</name></trkpt>
<trkpt lat="54.373265" lon="-3.109354"><ele>418</ele><time>2020-06-12T12:29:45Z</time><name>PT9093</name></trkpt>
<trkpt lat="54.373263" lon="-3.109350"><ele>418</ele><time>2020-06-12T12:29:46Z</time><name>PT9094</name></trkpt>
<trkpt lat="54.373257" lon="-3.109337"><ele>418</ele><time>2020-06-12T12:29:47Z</time><name>PT9095</name></trkpt>
<trkpt lat="54.373254" lon="-3.109303"><ele>419</ele><time>2020-06-12T12:29:48Z</time><name>PT9096</name></trkpt>
<trkpt lat="54.373258" lon="-3.109291"><ele>419</ele><time>2020-06-12T12:29:49Z</time><name>PT9097</name></trkpt>
<trkpt lat="54.373258" lon="-3.109284"><ele>418</ele><time>2020-06-12T12:29:50Z</time><name>PT9098</name></trkpt>
<trkpt lat="54.373257" lon="-3.109269"><ele>418</ele><time>2020-06-12T12:29:51Z</time><name>PT9099</name></trkpt>
<trkpt lat="54.373257" lon="-3.109256"><ele>418</ele><time>2020-06-12T12:29:52Z</time><name>PT9100</name></trkpt>
<trkpt lat="54.373256" lon="-3.109238"><ele>417</ele><time>2020-06-12T12:29:53Z</time><name>PT9101</name></trkpt>
<trkpt lat="54.373258" lon="-3.109230"><ele>417</ele><time>2020-06-12T12:29:54Z</time><name>PT9102</name></trkpt>
<trkpt lat="54.373257" lon="-3.109219"><ele>417</ele><time>2020-06-12T12:29:55Z</time><name>PT9103</name></trkpt>
<trkpt lat="54.373259" lon="-3.109213"><ele>417</ele><time>2020-06-12T12:29:56Z</time><name>PT9104</name></trkpt>
<trkpt lat="54.373265" lon="-3.109196"><ele>416</ele><time>2020-06-12T12:30:21Z</time><name>PT9105</name></trkpt>
<trkpt lat="54.373268" lon="-3.109188"><ele>415</ele><time>2020-06-12T12:30:22Z</time><name>PT9106</name></trkpt>
<trkpt lat="54.373270" lon="-3.109182"><ele>415</ele><time>2020-06-12T12:30:23Z</time><name>PT9107</name></trkpt>
<trkpt lat="54.373269" lon="-3.109167"><ele>415</ele><time>2020-06-12T12:30:24Z</time><name>PT9108</name></trkpt>
<trkpt lat="54.373270" lon="-3.109156"><ele>415</ele><time>2020-06-12T12:30:25Z</time><name>PT9109</name></trkpt>
<trkpt lat="54.373282" lon="-3.109136"><ele>415</ele><time>2020-06-12T12:30:26Z</time><name>PT9110</name></trkpt>
<trkpt lat="54.373287" lon="-3.109133"><ele>415</ele><time>2020-06-12T12:30:27Z</time><name>PT9111</name></trkpt>
<trkpt lat="54.373287" lon="-3.109129"><ele>416</ele><time>2020-06-12T12:30:28Z</time><name>PT9112</name></trkpt>
<trkpt lat="54.373287" lon="-3.109128"><ele>416</ele><time>2020-06-12T12:30:29Z</time><name>PT9113</name></trkpt>
<trkpt lat="54.373287" lon="-3.109129"><ele>416</ele><time>2020-06-12T12:30:32Z</time><name>PT9114</name></trkpt>
<trkpt lat="54.373284" lon="-3.109118"><ele>416</ele><time>2020-06-12T12:30:33Z</time><name>PT9115</name></trkpt>
<trkpt lat="54.373286" lon="-3.109111"><ele>416</ele><time>2020-06-12T12:30:34Z</time><name>PT9116</name></trkpt>
<trkpt lat="54.373288" lon="-3.109105"><ele>415</ele><time>2020-06-12T12:30:35Z</time><name>PT9117</name></trkpt>
<trkpt lat="54.373287" lon="-3.109096"><ele>415</ele><time>2020-06-12T12:30:36Z</time><name>PT9118</name></trkpt>
<trkpt lat="54.373293" lon="-3.109089"><ele>415</ele><time>2020-06-12T12:30:37Z</time><name>PT9119</name></trkpt>
<trkpt lat="54.373295" lon="-3.109079"><ele>414</ele><time>2020-06-12T12:30:38Z</time><name>PT9120</name></trkpt>
<trkpt lat="54.373295" lon="-3.109069"><ele>414</ele><time>2020-06-12T12:30:39Z</time><name>PT9121</name></trkpt>
<trkpt lat="54.373296" lon="-3.109062"><ele>414</ele><time>2020-06-12T12:30:40Z</time><name>PT9122</name></trkpt>
<trkpt lat="54.373296" lon="-3.109054"><ele>414</ele><time>2020-06-12T12:30:41Z</time><name>PT9123</name></trkpt>
<trkpt lat="54.373298" lon="-3.109041"><ele>414</ele><time>2020-06-12T12:30:42Z</time><name>PT9124</name></trkpt>
<trkpt lat="54.373300" lon="-3.109034"><ele>413</ele><time>2020-06-12T12:30:43Z</time><name>PT9125</name></trkpt>
<trkpt lat="54.373300" lon="-3.109028"><ele>413</ele><time>2020-06-12T12:30:44Z</time><name>PT9126</name></trkpt>
<trkpt lat="54.373305" lon="-3.109004"><ele>413</ele><time>2020-06-12T12:30:51Z</time><name>PT9127</name></trkpt>
<trkpt lat="54.373308" lon="-3.108988"><ele>413</ele><time>2020-06-12T12:30:52Z</time><name>PT9128</name></trkpt>
<trkpt lat="54.373314" lon="-3.108965"><ele>412</ele><time>2020-06-12T12:30:53Z</time><name>PT9129</name></trkpt>
<trkpt lat="54.373315" lon="-3.108946"><ele>412</ele><time>2020-06-12T12:30:54Z</time><name>PT9130</name></trkpt>
<trkpt lat="54.373315" lon="-3.108933"><ele>412</ele><time>2020-06-12T12:30:55Z</time><name>PT9131</name></trkpt>
<trkpt lat="54.373312" lon="-3.108919"><ele>411</ele><time>2020-06-12T12:30:56Z</time><name>PT9132</name></trkpt>
<trkpt lat="54.373313" lon="-3.108907"><ele>410</ele><time>2020-06-12T12:30:57Z</time><name>PT9133</name></trkpt>
<trkpt lat="54.373313" lon="-3.108897"><ele>410</ele><time>2020-06-12T12:30:58Z</time><name>PT9134</name></trkpt>
<trkpt lat="54.373315" lon="-3.108885"><ele>410</ele><time>2020-06-12T12:30:59Z</time><name>PT9135</name></trkpt>
<trkpt lat="54.373317" lon="-3.108875"><ele>410</ele><time>2020-06-12T12:31:00Z</time><name>PT9136</name></trkpt>
<trkpt lat="54.373319" lon="-3.108859"><ele>411</ele><time>2020-06-12T12:31:01Z</time><name>PT9137</name></trkpt>
<trkpt lat="54.373321" lon="-3.108846"><ele>411</ele><time>2020-06-12T12:31:02Z</time><name>PT9138</name></trkpt>
<trkpt lat="54.373321" lon="-3.108830"><ele>410</ele><time>2020-06-12T12:31:03Z</time><name>PT9139</name></trkpt>
<trkpt lat="54.373321" lon="-3.108814"><ele>411</ele><time>2020-06-12T12:31:04Z</time><name>PT9140</name></trkpt>
<trkpt lat="54.373319" lon="-3.108801"><ele>410</ele><time>2020-06-12T12:31:05Z</time><name>PT9141</name></trkpt>
<trkpt lat="54.373318" lon="-3.108789"><ele>410</ele><time>2020-06-12T12:31:06Z</time><name>PT9142</name></trkpt>
<trkpt lat="54.373316" lon="-3.108775"><ele>410</ele><time>2020-06-12T12:31:07Z</time><name>PT9143</name></trkpt>
<trkpt lat="54.373316" lon="-3.108765"><ele>410</ele><time>2020-06-12T12:31:08Z</time><name>PT9144</name></trkpt>
<trkpt lat="54.373316" lon="-3.108750"><ele>410</ele><time>2020-06-12T12:31:09Z</time><name>PT9145</name></trkpt>
<trkpt lat="54.373315" lon="-3.108737"><ele>410</ele><time>2020-06-12T12:31:10Z</time><name>PT9146</name></trkpt>
<trkpt lat="54.373314" lon="-3.108729"><ele>410</ele><time>2020-06-12T12:31:11Z</time><name>PT9147</name></trkpt>
<trkpt lat="54.373312" lon="-3.108718"><ele>410</ele><time>2020-06-12T12:31:12Z</time><name>PT9148</name></trkpt>
<trkpt lat="54.373310" lon="-3.108708"><ele>410</ele><time>2020-06-12T12:31:13Z</time><name>PT9149</name></trkpt>
<trkpt lat="54.373311" lon="-3.108699"><ele>410</ele><time>2020-06-12T12:31:14Z</time><name>PT9150</name></trkpt>
<trkpt lat="54.373313" lon="-3.108686"><ele>410</ele><time>2020-06-12T12:31:15Z</time><name>PT9151</name></trkpt>
<trkpt lat="54.373313" lon="-3.108678"><ele>409</ele><time>2020-06-12T12:31:16Z</time><name>PT9152</name></trkpt>
<trkpt lat="54.373316" lon="-3.108667"><ele>409</ele><time>2020-06-12T12:31:17Z</time><name>PT9153</name></trkpt>
<trkpt lat="54.373318" lon="-3.108654"><ele>409</ele><time>2020-06-12T12:31:18Z</time><name>PT9154</name></trkpt>
<trkpt lat="54.373321" lon="-3.108644"><ele>408</ele><time>2020-06-12T12:31:19Z</time><name>PT9155</name></trkpt>
<trkpt lat="54.373323" lon="-3.108634"><ele>408</ele><time>2020-06-12T12:31:20Z</time><name>PT9156</name></trkpt>
<trkpt lat="54.373324" lon="-3.108622"><ele>408</ele><time>2020-06-12T12:31:21Z</time><name>PT9157</name></trkpt>
<trkpt lat="54.373325" lon="-3.108612"><ele>408</ele><time>2020-06-12T12:31:22Z</time><name>PT9158</name></trkpt>
<trkpt lat="54.373325" lon="-3.108601"><ele>408</ele><time>2020-06-12T12:31:23Z</time><name>PT9159</name></trkpt>
<trkpt lat="54.373323" lon="-3.108597"><ele>407</ele><time>2020-06-12T12:31:24Z</time><name>PT9160</name></trkpt>
<trkpt lat="54.373322" lon="-3.108589"><ele>407</ele><time>2020-06-12T12:31:25Z</time><name>PT9161</name></trkpt>
<trkpt lat="54.373324" lon="-3.108579"><ele>407</ele><time>2020-06-12T12:31:26Z</time><name>PT9162</name></trkpt>
<trkpt lat="54.373329" lon="-3.108569"><ele>407</ele><time>2020-06-12T12:31:27Z</time><name>PT9163</name></trkpt>
<trkpt lat="54.373332" lon="-3.108554"><ele>407</ele><time>2020-06-12T12:31:28Z</time><name>PT9164</name></trkpt>
<trkpt lat="54.373333" lon="-3.108542"><ele>406</ele><time>2020-06-12T12:31:29Z</time><name>PT9165</name></trkpt>
<trkpt lat="54.373333" lon="-3.108528"><ele>406</ele><time>2020-06-12T12:31:30Z</time><name>PT9166</name></trkpt>
<trkpt lat="54.373332" lon="-3.108519"><ele>406</ele><time>2020-06-12T12:31:31Z</time><name>PT9167</name></trkpt>
<trkpt lat="54.373328" lon="-3.108510"><ele>406</ele><time>2020-06-12T12:31:32Z</time><name>PT9168</name></trkpt>
<trkpt lat="54.373324" lon="-3.108503"><ele>405</ele><time>2020-06-12T12:31:33Z</time><name>PT9169</name></trkpt>
<trkpt lat="54.373318" lon="-3.108499"><ele>405</ele><time>2020-06-12T12:31:34Z</time><name>PT9170</name></trkpt>
<trkpt lat="54.373311" lon="-3.108490"><ele>405</ele><time>2020-06-12T12:31:35Z</time><name>PT9171</name></trkpt>
<trkpt lat="54.373307" lon="-3.108479"><ele>405</ele><time>2020-06-12T12:31:36Z</time><name>PT9172</name></trkpt>
<trkpt lat="54.373306" lon="-3.108466"><ele>405</ele><time>2020-06-12T12:31:37Z</time><name>PT9173</name></trkpt>
<trkpt lat="54.373308" lon="-3.108452"><ele>404</ele><time>2020-06-12T12:31:38Z</time><name>PT9174</name></trkpt>
<trkpt lat="54.373309" lon="-3.108441"><ele>404</ele><time>2020-06-12T12:31:39Z</time><name>PT9175</name></trkpt>
<trkpt lat="54.373308" lon="-3.108432"><ele>404</ele><time>2020-06-12T12:31:40Z</time><name>PT9176</name></trkpt>
<trkpt lat="54.373306" lon="-3.108423"><ele>404</ele><time>2020-06-12T12:31:41Z</time><name>PT9177</name></trkpt>
<trkpt lat="54.373304" lon="-3.108413"><ele>404</ele><time>2020-06-12T12:31:42Z</time><name>PT9178</name></trkpt>
<trkpt lat="54.373301" lon="-3.108395"><ele>404</ele><time>2020-06-12T12:31:43Z</time><name>PT9179</name></trkpt>
<trkpt lat="54.373300" lon="-3.108381"><ele>403</ele><time>2020-06-12T12:31:44Z</time><name>PT9180</name></trkpt>
<trkpt lat="54.373299" lon="-3.108370"><ele>403</ele><time>2020-06-12T12:31:45Z</time><name>PT9181</name></trkpt>
<trkpt lat="54.373300" lon="-3.108358"><ele>403</ele><time>2020-06-12T12:31:46Z</time><name>PT9182</name></trkpt>
<trkpt lat="54.373301" lon="-3.108346"><ele>403</ele><time>2020-06-12T12:31:47Z</time><name>PT9183</name></trkpt>
<trkpt lat="54.373304" lon="-3.108337"><ele>403</ele><time>2020-06-12T12:31:48Z</time><name>PT9184</name></trkpt>
<trkpt lat="54.373303" lon="-3.108328"><ele>402</ele><time>2020-06-12T12:31:49Z</time><name>PT9185</name></trkpt>
<trkpt lat="54.373301" lon="-3.108319"><ele>402</ele><time>2020-06-12T12:31:50Z</time><name>PT9186</name></trkpt>
<trkpt lat="54.373299" lon="-3.108306"><ele>402</ele><time>2020-06-12T12:31:51Z</time><name>PT9187</name></trkpt>
<trkpt lat="54.373297" lon="-3.108290"><ele>402</ele><time>2020-06-12T12:31:52Z</time><name>PT9188</name></trkpt>
<trkpt lat="54.373296" lon="-3.108275"><ele>402</ele><time>2020-06-12T12:31:53Z</time><name>PT9189</name></trkpt>
<trkpt lat="54.373296" lon="-3.108259"><ele>401</ele><time>2020-06-12T12:31:54Z</time><name>PT9190</name></trkpt>
<trkpt lat="54.373296" lon="-3.108244"><ele>401</ele><time>2020-06-12T12:31:55Z</time><name>PT9191</name></trkpt>
<trkpt lat="54.373295" lon="-3.108228"><ele>401</ele><time>2020-06-12T12:31:56Z</time><name>PT9192</name></trkpt>
<trkpt lat="54.373293" lon="-3.108212"><ele>401</ele><time>2020-06-12T12:31:57Z</time><name>PT9193</name></trkpt>
<trkpt lat="54.373293" lon="-3.108196"><ele>401</ele><time>2020-06-12T12:31:58Z</time><name>PT9194</name></trkpt>
<trkpt lat="54.373293" lon="-3.108178"><ele>401</ele><time>2020-06-12T12:31:59Z</time><name>PT9195</name></trkpt>
<trkpt lat="54.373294" lon="-3.108163"><ele>401</ele><time>2020-06-12T12:32:00Z</time><name>PT9196</name></trkpt>
<trkpt lat="54.373296" lon="-3.108146"><ele>400</ele><time>2020-06-12T12:32:01Z</time><name>PT9197</name></trkpt>
<trkpt lat="54.373295" lon="-3.108128"><ele>400</ele><time>2020-06-12T12:32:02Z</time><name>PT9198</name></trkpt>
<trkpt lat="54.373294" lon="-3.108113"><ele>400</ele><time>2020-06-12T12:32:03Z</time><name>PT9199</name></trkpt>
<trkpt lat="54.373291" lon="-3.108104"><ele>399</ele><time>2020-06-12T12:32:04Z</time><name>PT9200</name></trkpt>
<trkpt lat="54.373289" lon="-3.108089"><ele>399</ele><time>2020-06-12T12:32:05Z</time><name>PT9201</name></trkpt>
<trkpt lat="54.373288" lon="-3.108071"><ele>399</ele><time>2020-06-12T12:32:06Z</time><name>PT9202</name></trkpt>
<trkpt lat="54.373288" lon="-3.108055"><ele>399</ele><time>2020-06-12T12:32:07Z</time><name>PT9203</name></trkpt>
<trkpt lat="54.373291" lon="-3.108041"><ele>398</ele><time>2020-06-12T12:32:08Z</time><name>PT9204</name></trkpt>
<trkpt lat="54.373294" lon="-3.108026"><ele>398</ele><time>2020-06-12T12:32:09Z</time><name>PT9205</name></trkpt>
<trkpt lat="54.373295" lon="-3.108013"><ele>398</ele><time>2020-06-12T12:32:10Z</time><name>PT9206</name></trkpt>
<trkpt lat="54.373296" lon="-3.107999"><ele>398</ele><time>2020-06-12T12:32:11Z</time><name>PT9207</name></trkpt>
<trkpt lat="54.373297" lon="-3.107981"><ele>398</ele><time>2020-06-12T12:32:12Z</time><name>PT9208</name></trkpt>
<trkpt lat="54.373297" lon="-3.107968"><ele>398</ele><time>2020-06-12T12:32:13Z</time><name>PT9209</name></trkpt>
<trkpt lat="54.373297" lon="-3.107961"><ele>398</ele><time>2020-06-12T12:32:14Z</time><name>PT9210</name></trkpt>
<trkpt lat="54.373297" lon="-3.107954"><ele>397</ele><time>2020-06-12T12:32:15Z</time><name>PT9211</name></trkpt>
<trkpt lat="54.373293" lon="-3.107936"><ele>398</ele><time>2020-06-12T12:32:24Z</time><name>PT9212</name></trkpt>
<trkpt lat="54.373292" lon="-3.107923"><ele>397</ele><time>2020-06-12T12:32:25Z</time><name>PT9213</name></trkpt>
<trkpt lat="54.373292" lon="-3.107914"><ele>397</ele><time>2020-06-12T12:32:26Z</time><name>PT9214</name></trkpt>
<trkpt lat="54.373291" lon="-3.107905"><ele>397</ele><time>2020-06-12T12:32:27Z</time><name>PT9215</name></trkpt>
<trkpt lat="54.373290" lon="-3.107894"><ele>397</ele><time>2020-06-12T12:32:28Z</time><name>PT9216</name></trkpt>
<trkpt lat="54.373290" lon="-3.107883"><ele>397</ele><time>2020-06-12T12:32:29Z</time><name>PT9217</name></trkpt>
<trkpt lat="54.373290" lon="-3.107871"><ele>397</ele><time>2020-06-12T12:32:30Z</time><name>PT9218</name></trkpt>
<trkpt lat="54.373291" lon="-3.107857"><ele>396</ele><time>2020-06-12T12:32:31Z</time><name>PT9219</name></trkpt>
<trkpt lat="54.373291" lon="-3.107843"><ele>396</ele><time>2020-06-12T12:32:32Z</time><name>PT9220</name></trkpt>
<trkpt lat="54.373293" lon="-3.107827"><ele>395</ele><time>2020-06-12T12:32:33Z</time><name>PT9221</name></trkpt>
<trkpt lat="54.373294" lon="-3.107812"><ele>395</ele><time>2020-06-12T12:32:34Z</time><name>PT9222</name></trkpt>
<trkpt lat="54.373292" lon="-3.107802"><ele>395</ele><time>2020-06-12T12:32:35Z</time><name>PT9223</name></trkpt>
<trkpt lat="54.373291" lon="-3.107790"><ele>395</ele><time>2020-06-12T12:32:36Z</time><name>PT9224</name></trkpt>
<trkpt lat="54.373290" lon="-3.107781"><ele>395</ele><time>2020-06-12T12:32:37Z</time><name>PT9225</name></trkpt>
<trkpt lat="54.373291" lon="-3.107773"><ele>395</ele><time>2020-06-12T12:32:38Z</time><name>PT9226</name></trkpt>
<trkpt lat="54.373290" lon="-3.107766"><ele>395</ele><time>2020-06-12T12:32:39Z</time><name>PT9227</name></trkpt>
<trkpt lat="54.373290" lon="-3.107759"><ele>394</ele><time>2020-06-12T12:32:40Z</time><name>PT9228</name></trkpt>
<trkpt lat="54.373291" lon="-3.107754"><ele>394</ele><time>2020-06-12T12:32:41Z</time><name>PT9229</name></trkpt>
<trkpt lat="54.373292" lon="-3.107747"><ele>394</ele><time>2020-06-12T12:32:42Z</time><name>PT9230</name></trkpt>
<trkpt lat="54.373292" lon="-3.107743"><ele>394</ele><time>2020-06-12T12:32:44Z</time><name>PT9231</name></trkpt>
<trkpt lat="54.373293" lon="-3.107726"><ele>394</ele><time>2020-06-12T12:32:45Z</time><name>PT9232</name></trkpt>
<trkpt lat="54.373292" lon="-3.107712"><ele>394</ele><time>2020-06-12T12:32:46Z</time><name>PT9233</name></trkpt>
<trkpt lat="54.373291" lon="-3.107700"><ele>393</ele><time>2020-06-12T12:32:47Z</time><name>PT9234</name></trkpt>
<trkpt lat="54.373293" lon="-3.107685"><ele>393</ele><time>2020-06-12T12:32:48Z</time><name>PT9235</name></trkpt>
<trkpt lat="54.373296" lon="-3.107675"><ele>393</ele><time>2020-06-12T12:32:49Z</time><name>PT9236</name></trkpt>
<trkpt lat="54.373298" lon="-3.107661"><ele>393</ele><time>2020-06-12T12:32:50Z</time><name>PT9237</name></trkpt>
<trkpt lat="54.373301" lon="-3.107651"><ele>392</ele><time>2020-06-12T12:32:51Z</time><name>PT9238</name></trkpt>
<trkpt lat="54.373306" lon="-3.107642"><ele>392</ele><time>2020-06-12T12:32:52Z</time><name>PT9239</name></trkpt>
<trkpt lat="54.373309" lon="-3.107629"><ele>392</ele><time>2020-06-12T12:32:53Z</time><name>PT9240</name></trkpt>
<trkpt lat="54.373312" lon="-3.107615"><ele>392</ele><time>2020-06-12T12:32:54Z</time><name>PT9241</name></trkpt>
<trkpt lat="54.373315" lon="-3.107600"><ele>391</ele><time>2020-06-12T12:32:55Z</time><name>PT9242</name></trkpt>
<trkpt lat="54.373319" lon="-3.107590"><ele>391</ele><time>2020-06-12T12:32:56Z</time><name>PT9243</name></trkpt>
<trkpt lat="54.373324" lon="-3.107575"><ele>391</ele><time>2020-06-12T12:32:57Z</time><name>PT9244</name></trkpt>
<trkpt lat="54.373322" lon="-3.107569"><ele>391</ele><time>2020-06-12T12:32:58Z</time><name>PT9245</name></trkpt>
<trkpt lat="54.373317" lon="-3.107563"><ele>392</ele><time>2020-06-12T12:32:59Z</time><name>PT9246</name></trkpt>
<trkpt lat="54.373311" lon="-3.107552"><ele>392</ele><time>2020-06-12T12:33:00Z</time><name>PT9247</name></trkpt>
<trkpt lat="54.373303" lon="-3.107545"><ele>391</ele><time>2020-06-12T12:33:01Z</time><name>PT9248</name></trkpt>
<trkpt lat="54.373299" lon="-3.107537"><ele>391</ele><time>2020-06-12T12:33:02Z</time><name>PT9249</name></trkpt>
<trkpt lat="54.373291" lon="-3.107532"><ele>391</ele><time>2020-06-12T12:33:03Z</time><name>PT9250</name></trkpt>
<trkpt lat="54.373283" lon="-3.107527"><ele>391</ele><time>2020-06-12T12:33:04Z</time><name>PT9251</name></trkpt>
<trkpt lat="54.373279" lon="-3.107520"><ele>391</ele><time>2020-06-12T12:33:05Z</time><name>PT9252</name></trkpt>
<trkpt lat="54.373274" lon="-3.107504"><ele>391</ele><time>2020-06-12T12:33:06Z</time><name>PT9253</name></trkpt>
<trkpt lat="54.373269" lon="-3.107489"><ele>391</ele><time>2020-06-12T12:33:07Z</time><name>PT9254</name></trkpt>
<trkpt lat="54.373263" lon="-3.107478"><ele>391</ele><time>2020-06-12T12:33:08Z</time><name>PT9255</name></trkpt>
<trkpt lat="54.373258" lon="-3.107466"><ele>390</ele><time>2020-06-12T12:33:09Z</time><name>PT9256</name></trkpt>
<trkpt lat="54.373252" lon="-3.107455"><ele>390</ele><time>2020-06-12T12:33:10Z</time><name>PT9257</name></trkpt>
<trkpt lat="54.373246" lon="-3.107446"><ele>390</ele><time>2020-06-12T12:33:11Z</time><name>PT9258</name></trkpt>
<trkpt lat="54.373241" lon="-3.107438"><ele>390</ele><time>2020-06-12T12:33:12Z</time><name>PT9259</name></trkpt>
<trkpt lat="54.373237" lon="-3.107432"><ele>390</ele><time>2020-06-12T12:33:13Z</time><name>PT9260</name></trkpt>
<trkpt lat="54.373230" lon="-3.107427"><ele>390</ele><time>2020-06-12T12:33:14Z</time><name>PT9261</name></trkpt>
<trkpt lat="54.373227" lon="-3.107423"><ele>390</ele><time>2020-06-12T12:33:15Z</time><name>PT9262</name></trkpt>
<trkpt lat="54.373223" lon="-3.107418"><ele>390</ele><time>2020-06-12T12:33:16Z</time><name>PT9263</name></trkpt>
<trkpt lat="54.373220" lon="-3.107415"><ele>389</ele><time>2020-06-12T12:33:17Z</time><name>PT9264</name></trkpt>
<trkpt lat="54.373218" lon="-3.107414"><ele>389</ele><time>2020-06-12T12:33:18Z</time><name>PT9265</name></trkpt>
<trkpt lat="54.373214" lon="-3.107413"><ele>389</ele><time>2020-06-12T12:33:19Z</time><name>PT9266</name></trkpt>
<trkpt lat="54.373208" lon="-3.107409"><ele>389</ele><time>2020-06-12T12:33:20Z</time><name>PT9267</name></trkpt>
<trkpt lat="54.373203" lon="-3.107407"><ele>388</ele><time>2020-06-12T12:33:21Z</time><name>PT9268</name></trkpt>
<trkpt lat="54.373197" lon="-3.107401"><ele>388</ele><time>2020-06-12T12:33:22Z</time><name>PT9269</name></trkpt>
<trkpt lat="54.373194" lon="-3.107395"><ele>388</ele><time>2020-06-12T12:33:23Z</time><name>PT9270</name></trkpt>
<trkpt lat="54.373189" lon="-3.107391"><ele>388</ele><time>2020-06-12T12:33:24Z</time><name>PT9271</name></trkpt>
<trkpt lat="54.373185" lon="-3.107377"><ele>388</ele><time>2020-06-12T12:33:25Z</time><name>PT9272</name></trkpt>
<trkpt lat="54.373183" lon="-3.107366"><ele>388</ele><time>2020-06-12T12:33:26Z</time><name>PT9273</name></trkpt>
<trkpt lat="54.373180" lon="-3.107356"><ele>388</ele><time>2020-06-12T12:33:27Z</time><name>PT9274</name></trkpt>
<trkpt lat="54.373175" lon="-3.107348"><ele>388</ele><time>2020-06-12T12:33:28Z</time><name>PT9275</name></trkpt>
<trkpt lat="54.373169" lon="-3.107343"><ele>388</ele><time>2020-06-12T12:33:29Z</time><name>PT9276</name></trkpt>
<trkpt lat="54.373163" lon="-3.107338"><ele>387</ele><time>2020-06-12T12:33:30Z</time><name>PT9277</name></trkpt>
<trkpt lat="54.373165" lon="-3.107321"><ele>387</ele><time>2020-06-12T12:33:31Z</time><name>PT9278</name></trkpt>
<trkpt lat="54.373166" lon="-3.107302"><ele>387</ele><time>2020-06-12T12:33:32Z</time><name>PT9279</name></trkpt>
<trkpt lat="54.373160" lon="-3.107287"><ele>387</ele><time>2020-06-12T12:33:33Z</time><name>PT9280</name></trkpt>
<trkpt lat="54.373157" lon="-3.107276"><ele>387</ele><time>2020-06-12T12:33:34Z</time><name>PT9281</name></trkpt>
<trkpt lat="54.373160" lon="-3.107261"><ele>387</ele><time>2020-06-12T12:33:35Z</time><name>PT9282</name></trkpt>
<trkpt lat="54.373165" lon="-3.107247"><ele>386</ele><time>2020-06-12T12:33:36Z</time><name>PT9283</name></trkpt>
<trkpt lat="54.373169" lon="-3.107236"><ele>385</ele><time>2020-06-12T12:33:37Z</time><name>PT9284</name></trkpt>
<trkpt lat="54.373172" lon="-3.107218"><ele>385</ele><time>2020-06-12T12:33:38Z</time><name>PT9285</name></trkpt>
<trkpt lat="54.373176" lon="-3.107201"><ele>385</ele><time>2020-06-12T12:33:39Z</time><name>PT9286</name></trkpt>
<trkpt lat="54.373180" lon="-3.107183"><ele>385</ele><time>2020-06-12T12:33:40Z</time><name>PT9287</name></trkpt>
<trkpt lat="54.373183" lon="-3.107162"><ele>385</ele><time>2020-06-12T12:33:41Z</time><name>PT9288</name></trkpt>
<trkpt lat="54.373187" lon="-3.107144"><ele>385</ele><time>2020-06-12T12:33:42Z</time><name>PT9289</name></trkpt>
<trkpt lat="54.373191" lon="-3.107126"><ele>385</ele><time>2020-06-12T12:33:43Z</time><name>PT9290</name></trkpt>
<trkpt lat="54.373197" lon="-3.107108"><ele>386</ele><time>2020-06-12T12:33:44Z</time><name>PT9291</name></trkpt>
<trkpt lat="54.373202" lon="-3.107092"><ele>386</ele><time>2020-06-12T12:33:45Z</time><name>PT9292</name></trkpt>
<trkpt lat="54.373209" lon="-3.107081"><ele>386</ele><time>2020-06-12T12:33:46Z</time><name>PT9293</name></trkpt>
<trkpt lat="54.373216" lon="-3.107073"><ele>385</ele><time>2020-06-12T12:33:47Z</time><name>PT9294</name></trkpt>
<trkpt lat="54.373221" lon="-3.107065"><ele>385</ele><time>2020-06-12T12:33:48Z</time><name>PT9295</name></trkpt>
<trkpt lat="54.373223" lon="-3.107056"><ele>385</ele><time>2020-06-12T12:33:49Z</time><name>PT9296</name></trkpt>
<trkpt lat="54.373225" lon="-3.107044"><ele>385</ele><time>2020-06-12T12:33:50Z</time><name>PT9297</name></trkpt>
<trkpt lat="54.373230" lon="-3.107031"><ele>385</ele><time>2020-06-12T12:33:51Z</time><name>PT9298</name></trkpt>
<trkpt lat="54.373234" lon="-3.107018"><ele>384</ele><time>2020-06-12T12:33:52Z</time><name>PT9299</name></trkpt>
<trkpt lat="54.373238" lon="-3.107007"><ele>384</ele><time>2020-06-12T12:33:53Z</time><name>PT9300</name></trkpt>
<trkpt lat="54.373242" lon="-3.106994"><ele>384</ele><time>2020-06-12T12:33:54Z</time><name>PT9301</name></trkpt>
<trkpt lat="54.373245" lon="-3.106977"><ele>384</ele><time>2020-06-12T12:33:55Z</time><name>PT9302</name></trkpt>
<trkpt lat="54.373249" lon="-3.106959"><ele>384</ele><time>2020-06-12T12:33:56Z</time><name>PT9303</name></trkpt>
<trkpt lat="54.373254" lon="-3.106942"><ele>384</ele><time>2020-06-12T12:33:57Z</time><name>PT9304</name></trkpt>
<trkpt lat="54.373257" lon="-3.106925"><ele>383</ele><time>2020-06-12T12:33:58Z</time><name>PT9305</name></trkpt>
<trkpt lat="54.373260" lon="-3.106907"><ele>383</ele><time>2020-06-12T12:33:59Z</time><name>PT9306</name></trkpt>
<trkpt lat="54.373264" lon="-3.106891"><ele>383</ele><time>2020-06-12T12:34:00Z</time><name>PT9307</name></trkpt>
<trkpt lat="54.373269" lon="-3.106878"><ele>383</ele><time>2020-06-12T12:34:01Z</time><name>PT9308</name></trkpt>
<trkpt lat="54.373274" lon="-3.106868"><ele>382</ele><time>2020-06-12T12:34:02Z</time><name>PT9309</name></trkpt>
<trkpt lat="54.373276" lon="-3.106855"><ele>382</ele><time>2020-06-12T12:34:03Z</time><name>PT9310</name></trkpt>
<trkpt lat="54.373277" lon="-3.106843"><ele>382</ele><time>2020-06-12T12:34:04Z</time><name>PT9311</name></trkpt>
<trkpt lat="54.373277" lon="-3.106831"><ele>382</ele><time>2020-06-12T12:34:05Z</time><name>PT9312</name></trkpt>
<trkpt lat="54.373277" lon="-3.106819"><ele>382</ele><time>2020-06-12T12:34:06Z</time><name>PT9313</name></trkpt>
<trkpt lat="54.373278" lon="-3.106803"><ele>382</ele><time>2020-06-12T12:34:07Z</time><name>PT9314</name></trkpt>
<trkpt lat="54.373278" lon="-3.106788"><ele>381</ele><time>2020-06-12T12:34:08Z</time><name>PT9315</name></trkpt>
<trkpt lat="54.373276" lon="-3.106775"><ele>380</ele><time>2020-06-12T12:34:09Z</time><name>PT9316</name></trkpt>
<trkpt lat="54.373274" lon="-3.106763"><ele>380</ele><time>2020-06-12T12:34:10Z</time><name>PT9317</name></trkpt>
<trkpt lat="54.373269" lon="-3.106752"><ele>379</ele><time>2020-06-12T12:34:11Z</time><name>PT9318</name></trkpt>
<trkpt lat="54.373264" lon="-3.106734"><ele>380</ele><time>2020-06-12T12:34:12Z</time><name>PT9319</name></trkpt>
<trkpt lat="54.373258" lon="-3.106724"><ele>379</ele><time>2020-06-12T12:34:13Z</time><name>PT9320</name></trkpt>
<trkpt lat="54.373252" lon="-3.106711"><ele>379</ele><time>2020-06-12T12:34:14Z</time><name>PT9321</name></trkpt>
<trkpt lat="54.373249" lon="-3.106704"><ele>379</ele><time>2020-06-12T12:34:15Z</time><name>PT9322</name></trkpt>
<trkpt lat="54.373244" lon="-3.106699"><ele>379</ele><time>2020-06-12T12:34:16Z</time><name>PT9323</name></trkpt>
<trkpt lat="54.373238" lon="-3.106693"><ele>378</ele><time>2020-06-12T12:34:17Z</time><name>PT9324</name></trkpt>
<trkpt lat="54.373232" lon="-3.106685"><ele>378</ele><time>2020-06-12T12:34:18Z</time><name>PT9325</name></trkpt>
<trkpt lat="54.373225" lon="-3.106678"><ele>377</ele><time>2020-06-12T12:34:19Z</time><name>PT9326</name></trkpt>
<trkpt lat="54.373220" lon="-3.106669"><ele>377</ele><time>2020-06-12T12:34:20Z</time><name>PT9327</name></trkpt>
<trkpt lat="54.373214" lon="-3.106656"><ele>377</ele><time>2020-06-12T12:34:21Z</time><name>PT9328</name></trkpt>
<trkpt lat="54.373206" lon="-3.106643"><ele>376</ele><time>2020-06-12T12:34:22Z</time><name>PT9329</name></trkpt>
<trkpt lat="54.373200" lon="-3.106634"><ele>376</ele><time>2020-06-12T12:34:23Z</time><name>PT9330</name></trkpt>
<trkpt lat="54.373193" lon="-3.106624"><ele>376</ele><time>2020-06-12T12:34:24Z</time><name>PT9331</name></trkpt>
<trkpt lat="54.373187" lon="-3.106620"><ele>376</ele><time>2020-06-12T12:34:25Z</time><name>PT9332</name></trkpt>
<trkpt lat="54.373180" lon="-3.106615"><ele>376</ele><time>2020-06-12T12:34:26Z</time><name>PT9333</name></trkpt>
<trkpt lat="54.373173" lon="-3.106610"><ele>376</ele><time>2020-06-12T12:34:27Z</time><name>PT9334</name></trkpt>
<trkpt lat="54.373166" lon="-3.106604"><ele>376</ele><time>2020-06-12T12:34:28Z</time><name>PT9335</name></trkpt>
<trkpt lat="54.373159" lon="-3.106599"><ele>375</ele><time>2020-06-12T12:34:29Z</time><name>PT9336</name></trkpt>
<trkpt lat="54.373153" lon="-3.106596"><ele>375</ele><time>2020-06-12T12:34:30Z</time><name>PT9337</name></trkpt>
<trkpt lat="54.373147" lon="-3.106592"><ele>375</ele><time>2020-06-12T12:34:31Z</time><name>PT9338</name></trkpt>
<trkpt lat="54.373141" lon="-3.106583"><ele>375</ele><time>2020-06-12T12:34:32Z</time><name>PT9339</name></trkpt>
<trkpt lat="54.373134" lon="-3.106573"><ele>375</ele><time>2020-06-12T12:34:33Z</time><name>PT9340</name></trkpt>
<trkpt lat="54.373128" lon="-3.106568"><ele>375</ele><time>2020-06-12T12:34:34Z</time><name>PT9341</name></trkpt>
<trkpt lat="54.373123" lon="-3.106564"><ele>374</ele><time>2020-06-12T12:34:35Z</time><name>PT9342</name></trkpt>
<trkpt lat="54.373117" lon="-3.106558"><ele>374</ele><time>2020-06-12T12:34:36Z</time><name>PT9343</name></trkpt>
<trkpt lat="54.373111" lon="-3.106548"><ele>374</ele><time>2020-06-12T12:34:37Z</time><name>PT9344</name></trkpt>
<trkpt lat="54.373106" lon="-3.106537"><ele>374</ele><time>2020-06-12T12:34:38Z</time><name>PT9345</name></trkpt>
<trkpt lat="54.373104" lon="-3.106522"><ele>374</ele><time>2020-06-12T12:34:39Z</time><name>PT9346</name></trkpt>
<trkpt lat="54.373099" lon="-3.106507"><ele>374</ele><time>2020-06-12T12:34:40Z</time><name>PT9347</name></trkpt>
<trkpt lat="54.373096" lon="-3.106492"><ele>373</ele><time>2020-06-12T12:34:41Z</time><name>PT9348</name></trkpt>
<trkpt lat="54.373094" lon="-3.106478"><ele>373</ele><time>2020-06-12T12:34:42Z</time><name>PT9349</name></trkpt>
<trkpt lat="54.373091" lon="-3.106466"><ele>373</ele><time>2020-06-12T12:34:43Z</time><name>PT9350</name></trkpt>
<trkpt lat="54.373086" lon="-3.106453"><ele>372</ele><time>2020-06-12T12:34:44Z</time><name>PT9351</name></trkpt>
<trkpt lat="54.373083" lon="-3.106440"><ele>372</ele><time>2020-06-12T12:34:45Z</time><name>PT9352</name></trkpt>
<trkpt lat="54.373079" lon="-3.106433"><ele>372</ele><time>2020-06-12T12:34:46Z</time><name>PT9353</name></trkpt>
<trkpt lat="54.373074" lon="-3.106426"><ele>371</ele><time>2020-06-12T12:34:47Z</time><name>PT9354</name></trkpt>
<trkpt lat="54.373071" lon="-3.106422"><ele>370</ele><time>2020-06-12T12:34:48Z</time><name>PT9355</name></trkpt>
<trkpt lat="54.373065" lon="-3.106415"><ele>370</ele><time>2020-06-12T12:34:49Z</time><name>PT9356</name></trkpt>
<trkpt lat="54.373060" lon="-3.106407"><ele>370</ele><time>2020-06-12T12:34:50Z</time><name>PT9357</name></trkpt>
<trkpt lat="54.373055" lon="-3.106396"><ele>370</ele><time>2020-06-12T12:34:51Z</time><name>PT9358</name></trkpt>
<trkpt lat="54.373048" lon="-3.106382"><ele>370</ele><time>2020-06-12T12:34:52Z</time><name>PT9359</name></trkpt>
<trkpt lat="54.373039" lon="-3.106375"><ele>370</ele><time>2020-06-12T12:34:53Z</time><name>PT9360</name></trkpt>
<trkpt lat="54.373033" lon="-3.106369"><ele>370</ele><time>2020-06-12T12:34:54Z</time><name>PT9361</name></trkpt>
<trkpt lat="54.373027" lon="-3.106367"><ele>370</ele><time>2020-06-12T12:34:55Z</time><name>PT9362</name></trkpt>
<trkpt lat="54.373023" lon="-3.106364"><ele>369</ele><time>2020-06-12T12:34:56Z</time><name>PT9363</name></trkpt>
<trkpt lat="54.373018" lon="-3.106357"><ele>369</ele><time>2020-06-12T12:34:57Z</time><name>PT9364</name></trkpt>
<trkpt lat="54.373014" lon="-3.106354"><ele>369</ele><time>2020-06-12T12:34:58Z</time><name>PT9365</name></trkpt>
<trkpt lat="54.373008" lon="-3.106349"><ele>369</ele><time>2020-06-12T12:34:59Z</time><name>PT9366</name></trkpt>
<trkpt lat="54.373001" lon="-3.106341"><ele>369</ele><time>2020-06-12T12:35:00Z</time><name>PT9367</name></trkpt>
<trkpt lat="54.372995" lon="-3.106333"><ele>369</ele><time>2020-06-12T12:35:01Z</time><name>PT9368</name></trkpt>
<trkpt lat="54.372990" lon="-3.106320"><ele>369</ele><time>2020-06-12T12:35:02Z</time><name>PT9369</name></trkpt>
<trkpt lat="54.372986" lon="-3.106306"><ele>369</ele><time>2020-06-12T12:35:03Z</time><name>PT9370</name></trkpt>
<trkpt lat="54.372981" lon="-3.106295"><ele>369</ele><time>2020-06-12T12:35:04Z</time><name>PT9371</name></trkpt>
<trkpt lat="54.372975" lon="-3.106294"><ele>368</ele><time>2020-06-12T12:35:05Z</time><name>PT9372</name></trkpt>
<trkpt lat="54.372970" lon="-3.106294"><ele>368</ele><time>2020-06-12T12:35:06Z</time><name>PT9373</name></trkpt>
<trkpt lat="54.372964" lon="-3.106287"><ele>368</ele><time>2020-06-12T12:35:07Z</time><name>PT9374</name></trkpt>
<trkpt lat="54.372957" lon="-3.106286"><ele>368</ele><time>2020-06-12T12:35:08Z</time><name>PT9375</name></trkpt>
<trkpt lat="54.372949" lon="-3.106283"><ele>368</ele><time>2020-06-12T12:35:09Z</time><name>PT9376</name></trkpt>
<trkpt lat="54.372943" lon="-3.106276"><ele>367</ele><time>2020-06-12T12:35:10Z</time><name>PT9377</name></trkpt>
<trkpt lat="54.372939" lon="-3.106267"><ele>367</ele><time>2020-06-12T12:35:11Z</time><name>PT9378</name></trkpt>
<trkpt lat="54.372935" lon="-3.106254"><ele>367</ele><time>2020-06-12T12:35:12Z</time><name>PT9379</name></trkpt>
<trkpt lat="54.372929" lon="-3.106242"><ele>366</ele><time>2020-06-12T12:35:13Z</time><name>PT9380</name></trkpt>
<trkpt lat="54.372923" lon="-3.106233"><ele>366</ele><time>2020-06-12T12:35:14Z</time><name>PT9381</name></trkpt>
<trkpt lat="54.372917" lon="-3.106227"><ele>366</ele><time>2020-06-12T12:35:15Z</time><name>PT9382</name></trkpt>
<trkpt lat="54.372908" lon="-3.106218"><ele>366</ele><time>2020-06-12T12:35:16Z</time><name>PT9383</name></trkpt>
<trkpt lat="54.372901" lon="-3.106206"><ele>366</ele><time>2020-06-12T12:35:17Z</time><name>PT9384</name></trkpt>
<trkpt lat="54.372893" lon="-3.106196"><ele>366</ele><time>2020-06-12T12:35:18Z</time><name>PT9385</name></trkpt>
<trkpt lat="54.372884" lon="-3.106186"><ele>366</ele><time>2020-06-12T12:35:19Z</time><name>PT9386</name></trkpt>
<trkpt lat="54.372880" lon="-3.106180"><ele>365</ele><time>2020-06-12T12:35:20Z</time><name>PT9387</name></trkpt>
<trkpt lat="54.372875" lon="-3.106171"><ele>365</ele><time>2020-06-12T12:35:21Z</time><name>PT9388</name></trkpt>
<trkpt lat="54.372871" lon="-3.106160"><ele>365</ele><time>2020-06-12T12:35:22Z</time><name>PT9389</name></trkpt>
<trkpt lat="54.372864" lon="-3.106149"><ele>365</ele><time>2020-06-12T12:35:23Z</time><name>PT9390</name></trkpt>
<trkpt lat="54.372857" lon="-3.106135"><ele>365</ele><time>2020-06-12T12:35:24Z</time><name>PT9391</name></trkpt>
<trkpt lat="54.372851" lon="-3.106123"><ele>365</ele><time>2020-06-12T12:35:25Z</time><name>PT9392</name></trkpt>
<trkpt lat="54.372848" lon="-3.106114"><ele>365</ele><time>2020-06-12T12:35:26Z</time><name>PT9393</name></trkpt>
<trkpt lat="54.372849" lon="-3.106102"><ele>365</ele><time>2020-06-12T12:35:27Z</time><name>PT9394</name></trkpt>
<trkpt lat="54.372849" lon="-3.106094"><ele>364</ele><time>2020-06-12T12:35:28Z</time><name>PT9395</name></trkpt>
<trkpt lat="54.372847" lon="-3.106084"><ele>364</ele><time>2020-06-12T12:35:29Z</time><name>PT9396</name></trkpt>
<trkpt lat="54.372846" lon="-3.106075"><ele>364</ele><time>2020-06-12T12:35:30Z</time><name>PT9397</name></trkpt>
<trkpt lat="54.372845" lon="-3.106068"><ele>364</ele><time>2020-06-12T12:35:31Z</time><name>PT9398</name></trkpt>
<trkpt lat="54.372843" lon="-3.106063"><ele>364</ele><time>2020-06-12T12:35:32Z</time><name>PT9399</name></trkpt>
<trkpt lat="54.372841" lon="-3.106057"><ele>363</ele><time>2020-06-12T12:35:33Z</time><name>PT9400</name></trkpt>
<trkpt lat="54.372842" lon="-3.106041"><ele>362</ele><time>2020-06-12T12:35:36Z</time><name>PT9401</name></trkpt>
<trkpt lat="54.372841" lon="-3.106032"><ele>362</ele><time>2020-06-12T12:35:37Z</time><name>PT9402</name></trkpt>
<trkpt lat="54.372837" lon="-3.106025"><ele>362</ele><time>2020-06-12T12:35:38Z</time><name>PT9403</name></trkpt>
<trkpt lat="54.372839" lon="-3.106016"><ele>362</ele><time>2020-06-12T12:35:39Z</time><name>PT9404</name></trkpt>
<trkpt lat="54.372839" lon="-3.106010"><ele>361</ele><time>2020-06-12T12:35:40Z</time><name>PT9405</name></trkpt>
<trkpt lat="54.372842" lon="-3.106010"><ele>361</ele><time>2020-06-12T12:35:41Z</time><name>PT9406</name></trkpt>
<trkpt lat="54.372844" lon="-3.106004"><ele>360</ele><time>2020-06-12T12:35:42Z</time><name>PT9407</name></trkpt>
<trkpt lat="54.372845" lon="-3.105999"><ele>360</ele><time>2020-06-12T12:35:43Z</time><name>PT9408</name></trkpt>
<trkpt lat="54.372845" lon="-3.105993"><ele>360</ele><time>2020-06-12T12:35:44Z</time><name>PT9409</name></trkpt>
<trkpt lat="54.372846" lon="-3.105984"><ele>360</ele><time>2020-06-12T12:35:45Z</time><name>PT9410</name></trkpt>
<trkpt lat="54.372842" lon="-3.105977"><ele>360</ele><time>2020-06-12T12:35:46Z</time><name>PT9411</name></trkpt>
<trkpt lat="54.372837" lon="-3.105972"><ele>361</ele><time>2020-06-12T12:35:47Z</time><name>PT9412</name></trkpt>
<trkpt lat="54.372837" lon="-3.105951"><ele>361</ele><time>2020-06-12T12:35:55Z</time><name>PT9413</name></trkpt>
<trkpt lat="54.372844" lon="-3.105936"><ele>360</ele><time>2020-06-12T12:35:56Z</time><name>PT9414</name></trkpt>
<trkpt lat="54.372837" lon="-3.105919"><ele>360</ele><time>2020-06-12T12:35:57Z</time><name>PT9415</name></trkpt>
<trkpt lat="54.372838" lon="-3.105903"><ele>359</ele><time>2020-06-12T12:35:58Z</time><name>PT9416</name></trkpt>
<trkpt lat="54.372838" lon="-3.105891"><ele>359</ele><time>2020-06-12T12:35:59Z</time><name>PT9417</name></trkpt>
<trkpt lat="54.372836" lon="-3.105879"><ele>359</ele><time>2020-06-12T12:36:00Z</time><name>PT9418</name></trkpt>
<trkpt lat="54.372831" lon="-3.105865"><ele>358</ele><time>2020-06-12T12:36:01Z</time><name>PT9419</name></trkpt>
<trkpt lat="54.372826" lon="-3.105851"><ele>358</ele><time>2020-06-12T12:36:02Z</time><name>PT9420</name></trkpt>
<trkpt lat="54.372826" lon="-3.105842"><ele>358</ele><time>2020-06-12T12:36:03Z</time><name>PT9421</name></trkpt>
<trkpt lat="54.372823" lon="-3.105832"><ele>357</ele><time>2020-06-12T12:36:04Z</time><name>PT9422</name></trkpt>
<trkpt lat="54.372819" lon="-3.105818"><ele>357</ele><time>2020-06-12T12:36:05Z</time><name>PT9423</name></trkpt>
<trkpt lat="54.372820" lon="-3.105806"><ele>357</ele><time>2020-06-12T12:36:06Z</time><name>PT9424</name></trkpt>
<trkpt lat="54.372823" lon="-3.105795"><ele>357</ele><time>2020-06-12T12:36:07Z</time><name>PT9425</name></trkpt>
<trkpt lat="54.372827" lon="-3.105783"><ele>357</ele><time>2020-06-12T12:36:08Z</time><name>PT9426</name></trkpt>
<trkpt lat="54.372829" lon="-3.105768"><ele>357</ele><time>2020-06-12T12:36:09Z</time><name>PT9427</name></trkpt>
<trkpt lat="54.372829" lon="-3.105753"><ele>357</ele><time>2020-06-12T12:36:10Z</time><name>PT9428</name></trkpt>
<trkpt lat="54.372827" lon="-3.105739"><ele>356</ele><time>2020-06-12T12:36:11Z</time><name>PT9429</name></trkpt>
<trkpt lat="54.372823" lon="-3.105712"><ele>356</ele><time>2020-06-12T12:36:12Z</time><name>PT9430</name></trkpt>
<trkpt lat="54.372828" lon="-3.105699"><ele>356</ele><time>2020-06-12T12:36:13Z</time><name>PT9431</name></trkpt>
<trkpt lat="54.372831" lon="-3.105686"><ele>356</ele><time>2020-06-12T12:36:14Z</time><name>PT9432</name></trkpt>
<trkpt lat="54.372834" lon="-3.105677"><ele>356</ele><time>2020-06-12T12:36:15Z</time><name>PT9433</name></trkpt>
<trkpt lat="54.372834" lon="-3.105664"><ele>356</ele><time>2020-06-12T12:36:16Z</time><name>PT9434</name></trkpt>
<trkpt lat="54.372831" lon="-3.105654"><ele>355</ele><time>2020-06-12T12:36:17Z</time><name>PT9435</name></trkpt>
<trkpt lat="54.372828" lon="-3.105646"><ele>354</ele><time>2020-06-12T12:36:18Z</time><name>PT9436</name></trkpt>
<trkpt lat="54.372828" lon="-3.105635"><ele>354</ele><time>2020-06-12T12:36:19Z</time><name>PT9437</name></trkpt>
<trkpt lat="54.372830" lon="-3.105619"><ele>354</ele><time>2020-06-12T12:36:20Z</time><name>PT9438</name></trkpt>
<trkpt lat="54.372830" lon="-3.105609"><ele>353</ele><time>2020-06-12T12:36:21Z</time><name>PT9439</name></trkpt>
<trkpt lat="54.372834" lon="-3.105597"><ele>353</ele><time>2020-06-12T12:36:22Z</time><name>PT9440</name></trkpt>
<trkpt lat="54.372836" lon="-3.105585"><ele>353</ele><time>2020-06-12T12:36:23Z</time><name>PT9441</name></trkpt>
<trkpt lat="54.372840" lon="-3.105564"><ele>353</ele><time>2020-06-12T12:36:24Z</time><name>PT9442</name></trkpt>
<trkpt lat="54.372846" lon="-3.105555"><ele>353</ele><time>2020-06-12T12:36:25Z</time><name>PT9443</name></trkpt>
<trkpt lat="54.372852" lon="-3.105545"><ele>353</ele><time>2020-06-12T12:36:26Z</time><name>PT9444</name></trkpt>
<trkpt lat="54.372858" lon="-3.105536"><ele>352</ele><time>2020-06-12T12:36:27Z</time><name>PT9445</name></trkpt>
<trkpt lat="54.372862" lon="-3.105524"><ele>353</ele><time>2020-06-12T12:36:28Z</time><name>PT9446</name></trkpt>
<trkpt lat="54.372864" lon="-3.105510"><ele>353</ele><time>2020-06-12T12:36:29Z</time><name>PT9447</name></trkpt>
<trkpt lat="54.372868" lon="-3.105494"><ele>353</ele><time>2020-06-12T12:36:30Z</time><name>PT9448</name></trkpt>
<trkpt lat="54.372873" lon="-3.105480"><ele>353</ele><time>2020-06-12T12:36:31Z</time><name>PT9449</name></trkpt>
<trkpt lat="54.372879" lon="-3.105470"><ele>353</ele><time>2020-06-12T12:36:32Z</time><name>PT9450</name></trkpt>
<trkpt lat="54.372889" lon="-3.105456"><ele>353</ele><time>2020-06-12T12:36:33Z</time><name>PT9451</name></trkpt>
<trkpt lat="54.372896" lon="-3.105449"><ele>352</ele><time>2020-06-12T12:36:34Z</time><name>PT9452</name></trkpt>
<trkpt lat="54.372902" lon="-3.105444"><ele>352</ele><time>2020-06-12T12:36:35Z</time><name>PT9453</name></trkpt>
<trkpt lat="54.372905" lon="-3.105439"><ele>352</ele><time>2020-06-12T12:36:36Z</time><name>PT9454</name></trkpt>
<trkpt lat="54.372907" lon="-3.105432"><ele>352</ele><time>2020-06-12T12:36:37Z</time><name>PT9455</name></trkpt>
<trkpt lat="54.372909" lon="-3.105424"><ele>352</ele><time>2020-06-12T12:36:38Z</time><name>PT9456</name></trkpt>
<trkpt lat="54.372914" lon="-3.105416"><ele>352</ele><time>2020-06-12T12:36:39Z</time><name>PT9457</name></trkpt>
<trkpt lat="54.372918" lon="-3.105408"><ele>352</ele><time>2020-06-12T12:36:40Z</time><name>PT9458</name></trkpt>
<trkpt lat="54.372921" lon="-3.105402"><ele>351</ele><time>2020-06-12T12:36:41Z</time><name>PT9459</name></trkpt>
<trkpt lat="54.372924" lon="-3.105397"><ele>351</ele><time>2020-06-12T12:36:42Z</time><name>PT9460</name></trkpt>
<trkpt lat="54.372928" lon="-3.105392"><ele>351</ele><time>2020-06-12T12:36:43Z</time><name>PT9461</name></trkpt>
<trkpt lat="54.372931" lon="-3.105385"><ele>351</ele><time>2020-06-12T12:36:44Z</time><name>PT9462</name></trkpt>
<trkpt lat="54.372935" lon="-3.105379"><ele>351</ele><time>2020-06-12T12:36:45Z</time><name>PT9463</name></trkpt>
<trkpt lat="54.372939" lon="-3.105374"><ele>351</ele><time>2020-06-12T12:36:46Z</time><name>PT9464</name></trkpt>
<trkpt lat="54.372943" lon="-3.105368"><ele>351</ele><time>2020-06-12T12:36:47Z</time><name>PT9465</name></trkpt>
<trkpt lat="54.372950" lon="-3.105358"><ele>351</ele><time>2020-06-12T12:36:49Z</time><name>PT9466</name></trkpt>
<trkpt lat="54.372954" lon="-3.105348"><ele>351</ele><time>2020-06-12T12:36:49Z</time><name>PT9467</name></trkpt>
<trkpt lat="54.372958" lon="-3.105341"><ele>351</ele><time>2020-06-12T12:36:50Z</time><name>PT9468</name></trkpt>
<trkpt lat="54.372964" lon="-3.105329"><ele>351</ele><time>2020-06-12T12:36:51Z</time><name>PT9469</name></trkpt>
<trkpt lat="54.372968" lon="-3.105320"><ele>352</ele><time>2020-06-12T12:36:52Z</time><name>PT9470</name></trkpt>
<trkpt lat="54.372972" lon="-3.105316"><ele>352</ele><time>2020-06-12T12:36:53Z</time><name>PT9471</name></trkpt>
<trkpt lat="54.372976" lon="-3.105307"><ele>351</ele><time>2020-06-12T12:36:54Z</time><name>PT9472</name></trkpt>
<trkpt lat="54.372976" lon="-3.105305"><ele>351</ele><time>2020-06-12T12:36:55Z</time><name>PT9473</name></trkpt>
<trkpt lat="54.372981" lon="-3.105303"><ele>351</ele><time>2020-06-12T12:36:56Z</time><name>PT9474</name></trkpt>
<trkpt lat="54.372985" lon="-3.105300"><ele>350</ele><time>2020-06-12T12:36:57Z</time><name>PT9475</name></trkpt>
<trkpt lat="54.372990" lon="-3.105300"><ele>350</ele><time>2020-06-12T12:36:58Z</time><name>PT9476</name></trkpt>
<trkpt lat="54.372996" lon="-3.105301"><ele>350</ele><time>2020-06-12T12:36:59Z</time><name>PT9477</name></trkpt>
<trkpt lat="54.373004" lon="-3.105298"><ele>351</ele><time>2020-06-12T12:37:00Z</time><name>PT9478</name></trkpt>
<trkpt lat="54.373005" lon="-3.105296"><ele>350</ele><time>2020-06-12T12:37:02Z</time><name>PT9479</name></trkpt>
<trkpt lat="54.373010" lon="-3.105291"><ele>350</ele><time>2020-06-12T12:37:03Z</time><name>PT9480</name></trkpt>
<trkpt lat="54.373012" lon="-3.105278"><ele>350</ele><time>2020-06-12T12:37:04Z</time><name>PT9481</name></trkpt>
<trkpt lat="54.373015" lon="-3.105267"><ele>350</ele><time>2020-06-12T12:37:05Z</time><name>PT9482</name></trkpt>
<trkpt lat="54.373020" lon="-3.105259"><ele>350</ele><time>2020-06-12T12:37:06Z</time><name>PT9483</name></trkpt>
<trkpt lat="54.373027" lon="-3.105251"><ele>350</ele><time>2020-06-12T12:37:07Z</time><name>PT9484</name></trkpt>
<trkpt lat="54.373033" lon="-3.105243"><ele>350</ele><time>2020-06-12T12:37:08Z</time><name>PT9485</name></trkpt>
<trkpt lat="54.373034" lon="-3.105235"><ele>349</ele><time>2020-06-12T12:37:09Z</time><name>PT9486</name></trkpt>
<trkpt lat="54.373035" lon="-3.105226"><ele>349</ele><time>2020-06-12T12:37:10Z</time><name>PT9487</name></trkpt>
<trkpt lat="54.373038" lon="-3.105218"><ele>349</ele><time>2020-06-12T12:37:11Z</time><name>PT9488</name></trkpt>
<trkpt lat="54.373045" lon="-3.105209"><ele>349</ele><time>2020-06-12T12:37:12Z</time><name>PT9489</name></trkpt>
<trkpt lat="54.373053" lon="-3.105199"><ele>349</ele><time>2020-06-12T12:37:13Z</time><name>PT9490</name></trkpt>
<trkpt lat="54.373056" lon="-3.105190"><ele>348</ele><time>2020-06-12T12:37:14Z</time><name>PT9491</name></trkpt>
<trkpt lat="54.373055" lon="-3.105184"><ele>348</ele><time>2020-06-12T12:37:15Z</time><name>PT9492</name></trkpt>
<trkpt lat="54.373058" lon="-3.105175"><ele>348</ele><time>2020-06-12T12:37:16Z</time><name>PT9493</name></trkpt>
<trkpt lat="54.373060" lon="-3.105164"><ele>348</ele><time>2020-06-12T12:37:17Z</time><name>PT9494</name></trkpt>
<trkpt lat="54.373062" lon="-3.105153"><ele>347</ele><time>2020-06-12T12:37:18Z</time><name>PT9495</name></trkpt>
<trkpt lat="54.373063" lon="-3.105145"><ele>347</ele><time>2020-06-12T12:37:19Z</time><name>PT9496</name></trkpt>
<trkpt lat="54.373067" lon="-3.105138"><ele>347</ele><time>2020-06-12T12:37:20Z</time><name>PT9497</name></trkpt>
<trkpt lat="54.373073" lon="-3.105129"><ele>346</ele><time>2020-06-12T12:37:21Z</time><name>PT9498</name></trkpt>
<trkpt lat="54.373080" lon="-3.105113"><ele>346</ele><time>2020-06-12T12:37:22Z</time><name>PT9499</name></trkpt>
<trkpt lat="54.373086" lon="-3.105104"><ele>346</ele><time>2020-06-12T12:37:23Z</time><name>PT9500</name></trkpt>
<trkpt lat="54.373090" lon="-3.105096"><ele>345</ele><time>2020-06-12T12:37:24Z</time><name>PT9501</name></trkpt>
<trkpt lat="54.373096" lon="-3.105084"><ele>345</ele><time>2020-06-12T12:37:25Z</time><name>PT9502</name></trkpt>
<trkpt lat="54.373102" lon="-3.105076"><ele>345</ele><time>2020-06-12T12:37:26Z</time><name>PT9503</name></trkpt>
<trkpt lat="54.373108" lon="-3.105069"><ele>345</ele><time>2020-06-12T12:37:27Z</time><name>PT9504</name></trkpt>
<trkpt lat="54.373110" lon="-3.105064"><ele>345</ele><time>2020-06-12T12:37:28Z</time><name>PT9505</name></trkpt>
<trkpt lat="54.373110" lon="-3.105061"><ele>344</ele><time>2020-06-12T12:37:29Z</time><name>PT9506</name></trkpt>
<trkpt lat="54.373111" lon="-3.105054"><ele>344</ele><time>2020-06-12T12:37:30Z</time><name>PT9507</name></trkpt>
<trkpt lat="54.373112" lon="-3.105043"><ele>343</ele><time>2020-06-12T12:37:31Z</time><name>PT9508</name></trkpt>
<trkpt lat="54.373116" lon="-3.105036"><ele>343</ele><time>2020-06-12T12:37:32Z</time><name>PT9509</name></trkpt>
<trkpt lat="54.373122" lon="-3.105027"><ele>344</ele><time>2020-06-12T12:37:33Z</time><name>PT9510</name></trkpt>
<trkpt lat="54.373126" lon="-3.105021"><ele>344</ele><time>2020-06-12T12:37:34Z</time><name>PT9511</name></trkpt>
<trkpt lat="54.373131" lon="-3.105012"><ele>343</ele><time>2020-06-12T12:37:39Z</time><name>PT9512</name></trkpt>
<trkpt lat="54.373138" lon="-3.104996"><ele>343</ele><time>2020-06-12T12:37:40Z</time><name>PT9513</name></trkpt>
<trkpt lat="54.373143" lon="-3.104988"><ele>343</ele><time>2020-06-12T12:37:41Z</time><name>PT9514</name></trkpt>
<trkpt lat="54.373146" lon="-3.104981"><ele>343</ele><time>2020-06-12T12:37:42Z</time><name>PT9515</name></trkpt>
<trkpt lat="54.373148" lon="-3.104970"><ele>343</ele><time>2020-06-12T12:37:43Z</time><name>PT9516</name></trkpt>
<trkpt lat="54.373149" lon="-3.104964"><ele>343</ele><time>2020-06-12T12:37:44Z</time><name>PT9517</name></trkpt>
<trkpt lat="54.373151" lon="-3.104963"><ele>342</ele><time>2020-06-12T12:37:45Z</time><name>PT9518</name></trkpt>
<trkpt lat="54.373152" lon="-3.104962"><ele>342</ele><time>2020-06-12T12:37:46Z</time><name>PT9519</name></trkpt>
<trkpt lat="54.373156" lon="-3.104957"><ele>342</ele><time>2020-06-12T12:37:47Z</time><name>PT9520</name></trkpt>
<trkpt lat="54.373159" lon="-3.104960"><ele>342</ele><time>2020-06-12T12:37:48Z</time><name>PT9521</name></trkpt>
<trkpt lat="54.373163" lon="-3.104961"><ele>342</ele><time>2020-06-12T12:37:49Z</time><name>PT9522</name></trkpt>
<trkpt lat="54.373165" lon="-3.104952"><ele>342</ele><time>2020-06-12T12:37:52Z</time><name>PT9523</name></trkpt>
<trkpt lat="54.373173" lon="-3.104934"><ele>342</ele><time>2020-06-12T12:37:53Z</time><name>PT9524</name></trkpt>
<trkpt lat="54.373177" lon="-3.104918"><ele>342</ele><time>2020-06-12T12:37:54Z</time><name>PT9525</name></trkpt>
<trkpt lat="54.373182" lon="-3.104908"><ele>342</ele><time>2020-06-12T12:37:55Z</time><name>PT9526</name></trkpt>
<trkpt lat="54.373186" lon="-3.104895"><ele>342</ele><time>2020-06-12T12:37:56Z</time><name>PT9527</name></trkpt>
<trkpt lat="54.373186" lon="-3.104891"><ele>341</ele><time>2020-06-12T12:37:57Z</time><name>PT9528</name></trkpt>
<trkpt lat="54.373191" lon="-3.104897"><ele>341</ele><time>2020-06-12T12:37:58Z</time><name>PT9529</name></trkpt>
<trkpt lat="54.373196" lon="-3.104894"><ele>341</ele><time>2020-06-12T12:37:59Z</time><name>PT9530</name></trkpt>
<trkpt lat="54.373202" lon="-3.104879"><ele>341</ele><time>2020-06-12T12:38:06Z</time><name>PT9531</name></trkpt>
<trkpt lat="54.373211" lon="-3.104869"><ele>341</ele><time>2020-06-12T12:38:07Z</time><name>PT9532</name></trkpt>
<trkpt lat="54.373214" lon="-3.104859"><ele>340</ele><time>2020-06-12T12:38:08Z</time><name>PT9533</name></trkpt>
<trkpt lat="54.373217" lon="-3.104848"><ele>340</ele><time>2020-06-12T12:38:09Z</time><name>PT9534</name></trkpt>
<trkpt lat="54.373220" lon="-3.104839"><ele>339</ele><time>2020-06-12T12:38:10Z</time><name>PT9535</name></trkpt>
<trkpt lat="54.373225" lon="-3.104827"><ele>339</ele><time>2020-06-12T12:38:11Z</time><name>PT9536</name></trkpt>
<trkpt lat="54.373227" lon="-3.104824"><ele>339</ele><time>2020-06-12T12:38:12Z</time><name>PT9537</name></trkpt>
<trkpt lat="54.373229" lon="-3.104818"><ele>338</ele><time>2020-06-12T12:38:13Z</time><name>PT9538</name></trkpt>
<trkpt lat="54.373233" lon="-3.104808"><ele>339</ele><time>2020-06-12T12:38:14Z</time><name>PT9539</name></trkpt>
<trkpt lat="54.373237" lon="-3.104804"><ele>338</ele><time>2020-06-12T12:38:15Z</time><name>PT9540</name></trkpt>
<trkpt lat="54.373243" lon="-3.104798"><ele>338</ele><time>2020-06-12T12:38:16Z</time><name>PT9541</name></trkpt>
<trkpt lat="54.373247" lon="-3.104794"><ele>338</ele><time>2020-06-12T12:38:17Z</time><name>PT9542</name></trkpt>
<trkpt lat="54.373251" lon="-3.104790"><ele>338</ele><time>2020-06-12T12:38:18Z</time><name>PT9543</name></trkpt>
<trkpt lat="54.373254" lon="-3.104784"><ele>338</ele><time>2020-06-12T12:38:19Z</time><name>PT9544</name></trkpt>
<trkpt lat="54.373265" lon="-3.104773"><ele>338</ele><time>2020-06-12T12:38:20Z</time><name>PT9545</name></trkpt>
<trkpt lat="54.373266" lon="-3.104767"><ele>338</ele><time>2020-06-12T12:38:21Z</time><name>PT9546</name></trkpt>
<trkpt lat="54.373265" lon="-3.104767"><ele>338</ele><time>2020-06-12T12:38:22Z</time><name>PT9547</name></trkpt>
<trkpt lat="54.373270" lon="-3.104760"><ele>338</ele><time>2020-06-12T12:38:23Z</time><name>PT9548</name></trkpt>
<trkpt lat="54.373277" lon="-3.104754"><ele>338</ele><time>2020-06-12T12:38:24Z</time><name>PT9549</name></trkpt>
<trkpt lat="54.373282" lon="-3.104749"><ele>338</ele><time>2020-06-12T12:38:25Z</time><name>PT9550</name></trkpt>
<trkpt lat="54.373290" lon="-3.104746"><ele>338</ele><time>2020-06-12T12:38:26Z</time><name>PT9551</name></trkpt>
<trkpt lat="54.373297" lon="-3.104736"><ele>338</ele><time>2020-06-12T12:38:27Z</time><name>PT9552</name></trkpt>
<trkpt lat="54.373302" lon="-3.104727"><ele>339</ele><time>2020-06-12T12:38:28Z</time><name>PT9553</name></trkpt>
<trkpt lat="54.373305" lon="-3.104718"><ele>338</ele><time>2020-06-12T12:38:29Z</time><name>PT9554</name></trkpt>
<trkpt lat="54.373311" lon="-3.104710"><ele>339</ele><time>2020-06-12T12:38:30Z</time><name>PT9555</name></trkpt>
<trkpt lat="54.373317" lon="-3.104704"><ele>339</ele><time>2020-06-12T12:38:31Z</time><name>PT9556</name></trkpt>
<trkpt lat="54.373318" lon="-3.104701"><ele>338</ele><time>2020-06-12T12:38:32Z</time><name>PT9557</name></trkpt>
<trkpt lat="54.373326" lon="-3.104697"><ele>338</ele><time>2020-06-12T12:38:33Z</time><name>PT9558</name></trkpt>
<trkpt lat="54.373331" lon="-3.104697"><ele>338</ele><time>2020-06-12T12:38:34Z</time><name>PT9559</name></trkpt>
<trkpt lat="54.373335" lon="-3.104690"><ele>338</ele><time>2020-06-12T12:38:35Z</time><name>PT9560</name></trkpt>
<trkpt lat="54.373340" lon="-3.104684"><ele>338</ele><time>2020-06-12T12:38:36Z</time><name>PT9561</name></trkpt>
<trkpt lat="54.373345" lon="-3.104678"><ele>338</ele><time>2020-06-12T12:38:37Z</time><name>PT9562</name></trkpt>
<trkpt lat="54.373346" lon="-3.104676"><ele>337</ele><time>2020-06-12T12:38:38Z</time><name>PT9563</name></trkpt>
<trkpt lat="54.373350" lon="-3.104680"><ele>337</ele><time>2020-06-12T12:38:39Z</time><name>PT9564</name></trkpt>
<trkpt lat="54.373350" lon="-3.104680"><ele>336</ele><time>2020-06-12T12:38:40Z</time><name>PT9565</name></trkpt>
<trkpt lat="54.373352" lon="-3.104673"><ele>336</ele><time>2020-06-12T12:38:41Z</time><name>PT9566</name></trkpt>
<trkpt lat="54.373350" lon="-3.104665"><ele>335</ele><time>2020-06-12T12:38:42Z</time><name>PT9567</name></trkpt>
<trkpt lat="54.373352" lon="-3.104656"><ele>335</ele><time>2020-06-12T12:38:43Z</time><name>PT9568</name></trkpt>
<trkpt lat="54.373357" lon="-3.104644"><ele>335</ele><time>2020-06-12T12:38:44Z</time><name>PT9569</name></trkpt>
<trkpt lat="54.373358" lon="-3.104633"><ele>335</ele><time>2020-06-12T12:38:45Z</time><name>PT9570</name></trkpt>
<trkpt lat="54.373361" lon="-3.104620"><ele>334</ele><time>2020-06-12T12:38:46Z</time><name>PT9571</name></trkpt>
<trkpt lat="54.373364" lon="-3.104605"><ele>334</ele><time>2020-06-12T12:38:47Z</time><name>PT9572</name></trkpt>
<trkpt lat="54.373364" lon="-3.104592"><ele>334</ele><time>2020-06-12T12:38:48Z</time><name>PT9573</name></trkpt>
<trkpt lat="54.373365" lon="-3.104575"><ele>334</ele><time>2020-06-12T12:38:49Z</time><name>PT9574</name></trkpt>
<trkpt lat="54.373364" lon="-3.104560"><ele>334</ele><time>2020-06-12T12:38:50Z</time><name>PT9575</name></trkpt>
<trkpt lat="54.373363" lon="-3.104545"><ele>334</ele><time>2020-06-12T12:38:51Z</time><name>PT9576</name></trkpt>
<trkpt lat="54.373360" lon="-3.104534"><ele>333</ele><time>2020-06-12T12:38:52Z</time><name>PT9577</name></trkpt>
<trkpt lat="54.373356" lon="-3.104528"><ele>333</ele><time>2020-06-12T12:38:53Z</time><name>PT9578</name></trkpt>
<trkpt lat="54.373354" lon="-3.104519"><ele>332</ele><time>2020-06-12T12:38:54Z</time><name>PT9579</name></trkpt>
<trkpt lat="54.373349" lon="-3.104513"><ele>332</ele><time>2020-06-12T12:38:55Z</time><name>PT9580</name></trkpt>
<trkpt lat="54.373345" lon="-3.104507"><ele>332</ele><time>2020-06-12T12:38:56Z</time><name>PT9581</name></trkpt>
<trkpt lat="54.373339" lon="-3.104501"><ele>332</ele><time>2020-06-12T12:38:57Z</time><name>PT9582</name></trkpt>
<trkpt lat="54.373335" lon="-3.104497"><ele>331</ele><time>2020-06-12T12:38:58Z</time><name>PT9583</name></trkpt>
<trkpt lat="54.373331" lon="-3.104493"><ele>331</ele><time>2020-06-12T12:38:59Z</time><name>PT9584</name></trkpt>
<trkpt lat="54.373326" lon="-3.104490"><ele>331</ele><time>2020-06-12T12:39:00Z</time><name>PT9585</name></trkpt>
<trkpt lat="54.373322" lon="-3.104490"><ele>330</ele><time>2020-06-12T12:39:01Z</time><name>PT9586</name></trkpt>
<trkpt lat="54.373316" lon="-3.104491"><ele>330</ele><time>2020-06-12T12:39:02Z</time><name>PT9587</name></trkpt>
<trkpt lat="54.373309" lon="-3.104489"><ele>330</ele><time>2020-06-12T12:39:03Z</time><name>PT9588</name></trkpt>
<trkpt lat="54.373305" lon="-3.104490"><ele>330</ele><time>2020-06-12T12:39:04Z</time><name>PT9589</name></trkpt>
<trkpt lat="54.373299" lon="-3.104489"><ele>330</ele><time>2020-06-12T12:39:05Z</time><name>PT9590</name></trkpt>
<trkpt lat="54.373294" lon="-3.104487"><ele>329</ele><time>2020-06-12T12:39:06Z</time><name>PT9591</name></trkpt>
<trkpt lat="54.373289" lon="-3.104482"><ele>329</ele><time>2020-06-12T12:39:07Z</time><name>PT9592</name></trkpt>
<trkpt lat="54.373287" lon="-3.104477"><ele>329</ele><time>2020-06-12T12:39:08Z</time><name>PT9593</name></trkpt>
<trkpt lat="54.373287" lon="-3.104471"><ele>329</ele><time>2020-06-12T12:39:09Z</time><name>PT9594</name></trkpt>
<trkpt lat="54.373287" lon="-3.104465"><ele>329</ele><time>2020-06-12T12:39:10Z</time><name>PT9595</name></trkpt>
<trkpt lat="54.373287" lon="-3.104457"><ele>328</ele><time>2020-06-12T12:39:11Z</time><name>PT9596</name></trkpt>
<trkpt lat="54.373286" lon="-3.104449"><ele>328</ele><time>2020-06-12T12:39:12Z</time><name>PT9597</name></trkpt>
<trkpt lat="54.373286" lon="-3.104446"><ele>328</ele><time>2020-06-12T12:39:13Z</time><name>PT9598</name></trkpt>
<trkpt lat="54.373283" lon="-3.104437"><ele>327</ele><time>2020-06-12T12:39:14Z</time><name>PT9599</name></trkpt>
<trkpt lat="54.373282" lon="-3.104429"><ele>327</ele><time>2020-06-12T12:39:15Z</time><name>PT9600</name></trkpt>
<trkpt lat="54.373280" lon="-3.104422"><ele>327</ele><time>2020-06-12T12:39:16Z</time><name>PT9601</name></trkpt>
<trkpt lat="54.373277" lon="-3.104418"><ele>326</ele><time>2020-06-12T12:39:17Z</time><name>PT9602</name></trkpt>
<trkpt lat="54.373275" lon="-3.104411"><ele>327</ele><time>2020-06-12T12:39:18Z</time><name>PT9603</name></trkpt>
<trkpt lat="54.373273" lon="-3.104403"><ele>326</ele><time>2020-06-12T12:39:19Z</time><name>PT9604</name></trkpt>
<trkpt lat="54.373269" lon="-3.104400"><ele>326</ele><time>2020-06-12T12:39:20Z</time><name>PT9605</name></trkpt>
<trkpt lat="54.373269" lon="-3.104398"><ele>326</ele><time>2020-06-12T12:39:21Z</time><name>PT9606</name></trkpt>
<trkpt lat="54.373270" lon="-3.104390"><ele>326</ele><time>2020-06-12T12:39:22Z</time><name>PT9607</name></trkpt>
<trkpt lat="54.373274" lon="-3.104381"><ele>326</ele><time>2020-06-12T12:39:23Z</time><name>PT9608</name></trkpt>
<trkpt lat="54.373280" lon="-3.104369"><ele>326</ele><time>2020-06-12T12:39:24Z</time><name>PT9609</name></trkpt>
<trkpt lat="54.373283" lon="-3.104355"><ele>326</ele><time>2020-06-12T12:39:25Z</time><name>PT9610</name></trkpt>
<trkpt lat="54.373285" lon="-3.104341"><ele>326</ele><time>2020-06-12T12:39:26Z</time><name>PT9611</name></trkpt>
<trkpt lat="54.373284" lon="-3.104329"><ele>326</ele><time>2020-06-12T12:39:27Z</time><name>PT9612</name></trkpt>
<trkpt lat="54.373284" lon="-3.104313"><ele>326</ele><time>2020-06-12T12:39:28Z</time><name>PT9613</name></trkpt>
<trkpt lat="54.373286" lon="-3.104303"><ele>326</ele><time>2020-06-12T12:39:29Z</time><name>PT9614</name></trkpt>
<trkpt lat="54.373291" lon="-3.104298"><ele>326</ele><time>2020-06-12T12:39:30Z</time><name>PT9615</name></trkpt>
<trkpt lat="54.373293" lon="-3.104287"><ele>326</ele><time>2020-06-12T12:39:31Z</time><name>PT9616</name></trkpt>
<trkpt lat="54.373295" lon="-3.104273"><ele>326</ele><time>2020-06-12T12:39:32Z</time><name>PT9617</name></trkpt>
<trkpt lat="54.373295" lon="-3.104256"><ele>325</ele><time>2020-06-12T12:39:33Z</time><name>PT9618</name></trkpt>
<trkpt lat="54.373295" lon="-3.104240"><ele>325</ele><time>2020-06-12T12:39:34Z</time><name>PT9619</name></trkpt>
<trkpt lat="54.373293" lon="-3.104224"><ele>325</ele><time>2020-06-12T12:39:35Z</time><name>PT9620</name></trkpt>
<trkpt lat="54.373290" lon="-3.104210"><ele>325</ele><time>2020-06-12T12:39:36Z</time><name>PT9621</name></trkpt>
<trkpt lat="54.373287" lon="-3.104189"><ele>324</ele><time>2020-06-12T12:39:37Z</time><name>PT9622</name></trkpt>
<trkpt lat="54.373281" lon="-3.104174"><ele>324</ele><time>2020-06-12T12:39:38Z</time><name>PT9623</name></trkpt>
<trkpt lat="54.373274" lon="-3.104158"><ele>324</ele><time>2020-06-12T12:39:39Z</time><name>PT9624</name></trkpt>
<trkpt lat="54.373268" lon="-3.104146"><ele>324</ele><time>2020-06-12T12:39:40Z</time><name>PT9625</name></trkpt>
<trkpt lat="54.373261" lon="-3.104134"><ele>323</ele><time>2020-06-12T12:39:41Z</time><name>PT9626</name></trkpt>
<trkpt lat="54.373254" lon="-3.104125"><ele>323</ele><time>2020-06-12T12:39:42Z</time><name>PT9627</name></trkpt>
<trkpt lat="54.373245" lon="-3.104116"><ele>323</ele><time>2020-06-12T12:39:43Z</time><name>PT9628</name></trkpt>
<trkpt lat="54.373235" lon="-3.104105"><ele>323</ele><time>2020-06-12T12:39:44Z</time><name>PT9629</name></trkpt>
<trkpt lat="54.373225" lon="-3.104096"><ele>323</ele><time>2020-06-12T12:39:45Z</time><name>PT9630</name></trkpt>
<trkpt lat="54.373218" lon="-3.104090"><ele>322</ele><time>2020-06-12T12:39:46Z</time><name>PT9631</name></trkpt>
<trkpt lat="54.373209" lon="-3.104085"><ele>322</ele><time>2020-06-12T12:39:47Z</time><name>PT9632</name></trkpt>
<trkpt lat="54.373200" lon="-3.104074"><ele>322</ele><time>2020-06-12T12:39:48Z</time><name>PT9633</name></trkpt>
<trkpt lat="54.373192" lon="-3.104069"><ele>322</ele><time>2020-06-12T12:39:49Z</time><name>PT9634</name></trkpt>
<trkpt lat="54.373178" lon="-3.104053"><ele>322</ele><time>2020-06-12T12:39:50Z</time><name>PT9635</name></trkpt>
<trkpt lat="54.373169" lon="-3.104049"><ele>322</ele><time>2020-06-12T12:39:51Z</time><name>PT9636</name></trkpt>
<trkpt lat="54.373160" lon="-3.104038"><ele>323</ele><time>2020-06-12T12:39:52Z</time><name>PT9637</name></trkpt>
<trkpt lat="54.373152" lon="-3.104034"><ele>322</ele><time>2020-06-12T12:39:53Z</time><name>PT9638</name></trkpt>
<trkpt lat="54.373143" lon="-3.104030"><ele>322</ele><time>2020-06-12T12:39:54Z</time><name>PT9639</name></trkpt>
<trkpt lat="54.373135" lon="-3.104025"><ele>322</ele><time>2020-06-12T12:39:55Z</time><name>PT9640</name></trkpt>
<trkpt lat="54.373128" lon="-3.104016"><ele>321</ele><time>2020-06-12T12:39:56Z</time><name>PT9641</name></trkpt>
<trkpt lat="54.373121" lon="-3.104009"><ele>321</ele><time>2020-06-12T12:39:57Z</time><name>PT9642</name></trkpt>
<trkpt lat="54.373114" lon="-3.104001"><ele>321</ele><time>2020-06-12T12:39:58Z</time><name>PT9643</name></trkpt>
<trkpt lat="54.373107" lon="-3.103993"><ele>321</ele><time>2020-06-12T12:39:59Z</time><name>PT9644</name></trkpt>
<trkpt lat="54.373101" lon="-3.103988"><ele>320</ele><time>2020-06-12T12:40:00Z</time><name>PT9645</name></trkpt>
<trkpt lat="54.373093" lon="-3.103981"><ele>320</ele><time>2020-06-12T12:40:01Z</time><name>PT9646</name></trkpt>
<trkpt lat="54.373084" lon="-3.103977"><ele>320</ele><time>2020-06-12T12:40:02Z</time><name>PT9647</name></trkpt>
<trkpt lat="54.373075" lon="-3.103974"><ele>319</ele><time>2020-06-12T12:40:03Z</time><name>PT9648</name></trkpt>
<trkpt lat="54.373067" lon="-3.103968"><ele>319</ele><time>2020-06-12T12:40:04Z</time><name>PT9649</name></trkpt>
<trkpt lat="54.373061" lon="-3.103960"><ele>319</ele><time>2020-06-12T12:40:05Z</time><name>PT9650</name></trkpt>
<trkpt lat="54.373055" lon="-3.103951"><ele>319</ele><time>2020-06-12T12:40:06Z</time><name>PT9651</name></trkpt>
<trkpt lat="54.373047" lon="-3.103949"><ele>319</ele><time>2020-06-12T12:40:07Z</time><name>PT9652</name></trkpt>
<trkpt lat="54.373040" lon="-3.103948"><ele>319</ele><time>2020-06-12T12:40:08Z</time><name>PT9653</name></trkpt>
<trkpt lat="54.373029" lon="-3.103940"><ele>319</ele><time>2020-06-12T12:40:09Z</time><name>PT9654</name></trkpt>
<trkpt lat="54.373020" lon="-3.103934"><ele>319</ele><time>2020-06-12T12:40:10Z</time><name>PT9655</name></trkpt>
<trkpt lat="54.373010" lon="-3.103923"><ele>319</ele><time>2020-06-12T12:40:11Z</time><name>PT9656</name></trkpt>
<trkpt lat="54.373004" lon="-3.103908"><ele>318</ele><time>2020-06-12T12:40:12Z</time><name>PT9657</name></trkpt>
<trkpt lat="54.373000" lon="-3.103892"><ele>318</ele><time>2020-06-12T12:40:13Z</time><name>PT9658</name></trkpt>
<trkpt lat="54.372995" lon="-3.103875"><ele>318</ele><time>2020-06-12T12:40:14Z</time><name>PT9659</name></trkpt>
<trkpt lat="54.372993" lon="-3.103860"><ele>318</ele><time>2020-06-12T12:40:15Z</time><name>PT9660</name></trkpt>
<trkpt lat="54.372992" lon="-3.103843"><ele>317</ele><time>2020-06-12T12:40:16Z</time><name>PT9661</name></trkpt>
<trkpt lat="54.372991" lon="-3.103828"><ele>317</ele><time>2020-06-12T12:40:17Z</time><name>PT9662</name></trkpt>
<trkpt lat="54.372991" lon="-3.103814"><ele>317</ele><time>2020-06-12T12:40:18Z</time><name>PT9663</name></trkpt>
<trkpt lat="54.372991" lon="-3.103800"><ele>317</ele><time>2020-06-12T12:40:19Z</time><name>PT9664</name></trkpt>
<trkpt lat="54.372988" lon="-3.103780"><ele>317</ele><time>2020-06-12T12:40:20Z</time><name>PT9665</name></trkpt>
<trkpt lat="54.372987" lon="-3.103768"><ele>316</ele><time>2020-06-12T12:40:21Z</time><name>PT9666</name></trkpt>
<trkpt lat="54.372988" lon="-3.103757"><ele>317</ele><time>2020-06-12T12:40:22Z</time><name>PT9667</name></trkpt>
<trkpt lat="54.372989" lon="-3.103747"><ele>317</ele><time>2020-06-12T12:40:23Z</time><name>PT9668</name></trkpt>
<trkpt lat="54.372992" lon="-3.103733"><ele>317</ele><time>2020-06-12T12:40:24Z</time><name>PT9669</name></trkpt>
<trkpt lat="54.372990" lon="-3.103727"><ele>317</ele><time>2020-06-12T12:40:25Z</time><name>PT9670</name></trkpt>
<trkpt lat="54.372985" lon="-3.103729"><ele>317</ele><time>2020-06-12T12:40:26Z</time><name>PT9671</name></trkpt>
<trkpt lat="54.372977" lon="-3.103721"><ele>317</ele><time>2020-06-12T12:40:27Z</time><name>PT9672</name></trkpt>
<trkpt lat="54.372971" lon="-3.103729"><ele>317</ele><time>2020-06-12T12:40:28Z</time><name>PT9673</name></trkpt>
<trkpt lat="54.372962" lon="-3.103737"><ele>317</ele><time>2020-06-12T12:40:29Z</time><name>PT9674</name></trkpt>
<trkpt lat="54.372955" lon="-3.103742"><ele>317</ele><time>2020-06-12T12:40:30Z</time><name>PT9675</name></trkpt>
<trkpt lat="54.372949" lon="-3.103744"><ele>317</ele><time>2020-06-12T12:40:31Z</time><name>PT9676</name></trkpt>
<trkpt lat="54.372941" lon="-3.103745"><ele>317</ele><time>2020-06-12T12:40:32Z</time><name>PT9677</name></trkpt>
<trkpt lat="54.372936" lon="-3.103747"><ele>317</ele><time>2020-06-12T12:40:33Z</time><name>PT9678</name></trkpt>
<trkpt lat="54.372929" lon="-3.103753"><ele>317</ele><time>2020-06-12T12:40:34Z</time><name>PT9679</name></trkpt>
<trkpt lat="54.372921" lon="-3.103760"><ele>317</ele><time>2020-06-12T12:40:35Z</time><name>PT9680</name></trkpt>
<trkpt lat="54.372915" lon="-3.103764"><ele>317</ele><time>2020-06-12T12:40:36Z</time><name>PT9681</name></trkpt>
<trkpt lat="54.372910" lon="-3.103766"><ele>317</ele><time>2020-06-12T12:40:37Z</time><name>PT9682</name></trkpt>
<trkpt lat="54.372906" lon="-3.103771"><ele>316</ele><time>2020-06-12T12:40:38Z</time><name>PT9683</name></trkpt>
<trkpt lat="54.372900" lon="-3.103776"><ele>316</ele><time>2020-06-12T12:40:39Z</time><name>PT9684</name></trkpt>
<trkpt lat="54.372894" lon="-3.103777"><ele>316</ele><time>2020-06-12T12:40:40Z</time><name>PT9685</name></trkpt>
<trkpt lat="54.372887" lon="-3.103779"><ele>316</ele><time>2020-06-12T12:40:41Z</time><name>PT9686</name></trkpt>
<trkpt lat="54.372883" lon="-3.103786"><ele>316</ele><time>2020-06-12T12:40:42Z</time><name>PT9687</name></trkpt>
<trkpt lat="54.372876" lon="-3.103787"><ele>315</ele><time>2020-06-12T12:40:43Z</time><name>PT9688</name></trkpt>
<trkpt lat="54.372868" lon="-3.103785"><ele>315</ele><time>2020-06-12T12:40:44Z</time><name>PT9689</name></trkpt>
<trkpt lat="54.372860" lon="-3.103781"><ele>315</ele><time>2020-06-12T12:40:45Z</time><name>PT9690</name></trkpt>
<trkpt lat="54.372853" lon="-3.103775"><ele>315</ele><time>2020-06-12T12:40:46Z</time><name>PT9691</name></trkpt>
<trkpt lat="54.372845" lon="-3.103777"><ele>315</ele><time>2020-06-12T12:40:47Z</time><name>PT9692</name></trkpt>
<trkpt lat="54.372838" lon="-3.103779"><ele>314</ele><time>2020-06-12T12:40:48Z</time><name>PT9693</name></trkpt>
<trkpt lat="54.372829" lon="-3.103782"><ele>314</ele><time>2020-06-12T12:40:49Z</time><name>PT9694</name></trkpt>
<trkpt lat="54.372820" lon="-3.103784"><ele>314</ele><time>2020-06-12T12:40:50Z</time><name>PT9695</name></trkpt>
<trkpt lat="54.372813" lon="-3.103783"><ele>314</ele><time>2020-06-12T12:40:51Z</time><name>PT9696</name></trkpt>
<trkpt lat="54.372803" lon="-3.103781"><ele>314</ele><time>2020-06-12T12:40:52Z</time><name>PT9697</name></trkpt>
<trkpt lat="54.372795" lon="-3.103779"><ele>313</ele><time>2020-06-12T12:40:53Z</time><name>PT9698</name></trkpt>
<trkpt lat="54.372784" lon="-3.103775"><ele>313</ele><time>2020-06-12T12:40:54Z</time><name>PT9699</name></trkpt>
<trkpt lat="54.372773" lon="-3.103771"><ele>313</ele><time>2020-06-12T12:40:55Z</time><name>PT9700</name></trkpt>
<trkpt lat="54.372765" lon="-3.103768"><ele>313</ele><time>2020-06-12T12:40:56Z</time><name>PT9701</name></trkpt>
<trkpt lat="54.372757" lon="-3.103769"><ele>313</ele><time>2020-06-12T12:40:57Z</time><name>PT9702</name></trkpt>
<trkpt lat="54.372749" lon="-3.103771"><ele>313</ele><time>2020-06-12T12:40:58Z</time><name>PT9703</name></trkpt>
<trkpt lat="54.372740" lon="-3.103772"><ele>313</ele><time>2020-06-12T12:40:59Z</time><name>PT9704</name></trkpt>
<trkpt lat="54.372730" lon="-3.103771"><ele>312</ele><time>2020-06-12T12:41:00Z</time><name>PT9705</name></trkpt>
<trkpt lat="54.372720" lon="-3.103770"><ele>312</ele><time>2020-06-12T12:41:01Z</time><name>PT9706</name></trkpt>
<trkpt lat="54.372712" lon="-3.103766"><ele>312</ele><time>2020-06-12T12:41:02Z</time><name>PT9707</name></trkpt>
<trkpt lat="54.372705" lon="-3.103761"><ele>311</ele><time>2020-06-12T12:41:03Z</time><name>PT9708</name></trkpt>
<trkpt lat="54.372695" lon="-3.103753"><ele>311</ele><time>2020-06-12T12:41:04Z</time><name>PT9709</name></trkpt>
<trkpt lat="54.372686" lon="-3.103748"><ele>311</ele><time>2020-06-12T12:41:05Z</time><name>PT9710</name></trkpt>
<trkpt lat="54.372678" lon="-3.103743"><ele>311</ele><time>2020-06-12T12:41:06Z</time><name>PT9711</name></trkpt>
<trkpt lat="54.372670" lon="-3.103738"><ele>311</ele><time>2020-06-12T12:41:07Z</time><name>PT9712</name></trkpt>
<trkpt lat="54.372662" lon="-3.103730"><ele>310</ele><time>2020-06-12T12:41:08Z</time><name>PT9713</name></trkpt>
<trkpt lat="54.372652" lon="-3.103726"><ele>310</ele><time>2020-06-12T12:41:09Z</time><name>PT9714</name></trkpt>
<trkpt lat="54.372642" lon="-3.103723"><ele>310</ele><time>2020-06-12T12:41:10Z</time><name>PT9715</name></trkpt>
<trkpt lat="54.372634" lon="-3.103718"><ele>310</ele><time>2020-06-12T12:41:11Z</time><name>PT9716</name></trkpt>
<trkpt lat="54.372626" lon="-3.103710"><ele>310</ele><time>2020-06-12T12:41:12Z</time><name>PT9717</name></trkpt>
<trkpt lat="54.372618" lon="-3.103702"><ele>309</ele><time>2020-06-12T12:41:13Z</time><name>PT9718</name></trkpt>
<trkpt lat="54.372610" lon="-3.103695"><ele>309</ele><time>2020-06-12T12:41:14Z</time><name>PT9719</name></trkpt>
<trkpt lat="54.372603" lon="-3.103688"><ele>309</ele><time>2020-06-12T12:41:15Z</time><name>PT9720</name></trkpt>
<trkpt lat="54.372597" lon="-3.103681"><ele>309</ele><time>2020-06-12T12:41:16Z</time><name>PT9721</name></trkpt>
<trkpt lat="54.372589" lon="-3.103675"><ele>309</ele><time>2020-06-12T12:41:17Z</time><name>PT9722</name></trkpt>
<trkpt lat="54.372581" lon="-3.103673"><ele>309</ele><time>2020-06-12T12:41:18Z</time><name>PT9723</name></trkpt>
<trkpt lat="54.372577" lon="-3.103677"><ele>308</ele><time>2020-06-12T12:41:19Z</time><name>PT9724</name></trkpt>
<trkpt lat="54.372566" lon="-3.103675"><ele>309</ele><time>2020-06-12T12:41:20Z</time><name>PT9725</name></trkpt>
<trkpt lat="54.372563" lon="-3.103682"><ele>308</ele><time>2020-06-12T12:41:21Z</time><name>PT9726</name></trkpt>
<trkpt lat="54.372559" lon="-3.103689"><ele>308</ele><time>2020-06-12T12:41:22Z</time><name>PT9727</name></trkpt>
<trkpt lat="54.372554" lon="-3.103695"><ele>308</ele><time>2020-06-12T12:41:23Z</time><name>PT9728</name></trkpt>
<trkpt lat="54.372548" lon="-3.103698"><ele>308</ele><time>2020-06-12T12:41:24Z</time><name>PT9729</name></trkpt>
<trkpt lat="54.372540" lon="-3.103698"><ele>307</ele><time>2020-06-12T12:41:25Z</time><name>PT9730</name></trkpt>
<trkpt lat="54.372533" lon="-3.103696"><ele>307</ele><time>2020-06-12T12:41:26Z</time><name>PT9731</name></trkpt>
<trkpt lat="54.372523" lon="-3.103688"><ele>307</ele><time>2020-06-12T12:41:27Z</time><name>PT9732</name></trkpt>
<trkpt lat="54.372518" lon="-3.103682"><ele>306</ele><time>2020-06-12T12:41:28Z</time><name>PT9733</name></trkpt>
<trkpt lat="54.372514" lon="-3.103675"><ele>306</ele><time>2020-06-12T12:41:29Z</time><name>PT9734</name></trkpt>
<trkpt lat="54.372509" lon="-3.103679"><ele>305</ele><time>2020-06-12T12:41:30Z</time><name>PT9735</name></trkpt>
<trkpt lat="54.372506" lon="-3.103684"><ele>304</ele><time>2020-06-12T12:41:31Z</time><name>PT9736</name></trkpt>
<trkpt lat="54.372500" lon="-3.103681"><ele>304</ele><time>2020-06-12T12:41:32Z</time><name>PT9737</name></trkpt>
<trkpt lat="54.372493" lon="-3.103680"><ele>304</ele><time>2020-06-12T12:41:33Z</time><name>PT9738</name></trkpt>
<trkpt lat="54.372486" lon="-3.103680"><ele>303</ele><time>2020-06-12T12:41:34Z</time><name>PT9739</name></trkpt>
<trkpt lat="54.372480" lon="-3.103681"><ele>303</ele><time>2020-06-12T12:41:35Z</time><name>PT9740</name></trkpt>
<trkpt lat="54.372474" lon="-3.103679"><ele>303</ele><time>2020-06-12T12:41:36Z</time><name>PT9741</name></trkpt>
<trkpt lat="54.372468" lon="-3.103676"><ele>303</ele><time>2020-06-12T12:41:37Z</time><name>PT9742</name></trkpt>
<trkpt lat="54.372461" lon="-3.103677"><ele>302</ele><time>2020-06-12T12:41:38Z</time><name>PT9743</name></trkpt>
<trkpt lat="54.372455" lon="-3.103678"><ele>302</ele><time>2020-06-12T12:41:39Z</time><name>PT9744</name></trkpt>
<trkpt lat="54.372453" lon="-3.103671"><ele>301</ele><time>2020-06-12T12:41:40Z</time><name>PT9745</name></trkpt>
<trkpt lat="54.372446" lon="-3.103665"><ele>301</ele><time>2020-06-12T12:41:41Z</time><name>PT9746</name></trkpt>
<trkpt lat="54.372438" lon="-3.103663"><ele>301</ele><time>2020-06-12T12:41:42Z</time><name>PT9747</name></trkpt>
<trkpt lat="54.372432" lon="-3.103664"><ele>301</ele><time>2020-06-12T12:41:43Z</time><name>PT9748</name></trkpt>
<trkpt lat="54.372425" lon="-3.103664"><ele>300</ele><time>2020-06-12T12:41:44Z</time><name>PT9749</name></trkpt>
<trkpt lat="54.372418" lon="-3.103662"><ele>300</ele><time>2020-06-12T12:41:45Z</time><name>PT9750</name></trkpt>
<trkpt lat="54.372410" lon="-3.103654"><ele>299</ele><time>2020-06-12T12:41:46Z</time><name>PT9751</name></trkpt>
<trkpt lat="54.372403" lon="-3.103646"><ele>299</ele><time>2020-06-12T12:41:47Z</time><name>PT9752</name></trkpt>
<trkpt lat="54.372398" lon="-3.103640"><ele>299</ele><time>2020-06-12T12:41:48Z</time><name>PT9753</name></trkpt>
<trkpt lat="54.372395" lon="-3.103635"><ele>298</ele><time>2020-06-12T12:41:49Z</time><name>PT9754</name></trkpt>
<trkpt lat="54.372390" lon="-3.103630"><ele>298</ele><time>2020-06-12T12:41:50Z</time><name>PT9755</name></trkpt>
<trkpt lat="54.372382" lon="-3.103621"><ele>298</ele><time>2020-06-12T12:41:51Z</time><name>PT9756</name></trkpt>
<trkpt lat="54.372375" lon="-3.103611"><ele>298</ele><time>2020-06-12T12:41:52Z</time><name>PT9757</name></trkpt>
<trkpt lat="54.372369" lon="-3.103604"><ele>297</ele><time>2020-06-12T12:41:53Z</time><name>PT9758</name></trkpt>
<trkpt lat="54.372363" lon="-3.103597"><ele>297</ele><time>2020-06-12T12:41:54Z</time><name>PT9759</name></trkpt>
<trkpt lat="54.372363" lon="-3.103591"><ele>297</ele><time>2020-06-12T12:41:55Z</time><name>PT9760</name></trkpt>
<trkpt lat="54.372360" lon="-3.103581"><ele>297</ele><time>2020-06-12T12:41:56Z</time><name>PT9761</name></trkpt>
<trkpt lat="54.372357" lon="-3.103576"><ele>297</ele><time>2020-06-12T12:41:57Z</time><name>PT9762</name></trkpt>
<trkpt lat="54.372354" lon="-3.103573"><ele>297</ele><time>2020-06-12T12:41:58Z</time><name>PT9763</name></trkpt>
<trkpt lat="54.372353" lon="-3.103570"><ele>297</ele><time>2020-06-12T12:41:59Z</time><name>PT9764</name></trkpt>
<trkpt lat="54.372353" lon="-3.103568"><ele>297</ele><time>2020-06-12T12:42:00Z</time><name>PT9765</name></trkpt>
<trkpt lat="54.372351" lon="-3.103566"><ele>297</ele><time>2020-06-12T12:42:01Z</time><name>PT9766</name></trkpt>
<trkpt lat="54.372348" lon="-3.103564"><ele>297</ele><time>2020-06-12T12:42:03Z</time><name>PT9767</name></trkpt>
<trkpt lat="54.372347" lon="-3.103560"><ele>297</ele><time>2020-06-12T12:42:04Z</time><name>PT9768</name></trkpt>
<trkpt lat="54.372348" lon="-3.103557"><ele>297</ele><time>2020-06-12T12:42:05Z</time><name>PT9769</name></trkpt>
<trkpt lat="54.372347" lon="-3.103551"><ele>297</ele><time>2020-06-12T12:42:06Z</time><name>PT9770</name></trkpt>
<trkpt lat="54.372344" lon="-3.103538"><ele>297</ele><time>2020-06-12T12:42:07Z</time><name>PT9771</name></trkpt>
<trkpt lat="54.372339" lon="-3.103534"><ele>296</ele><time>2020-06-12T12:42:08Z</time><name>PT9772</name></trkpt>
<trkpt lat="54.372333" lon="-3.103531"><ele>296</ele><time>2020-06-12T12:42:09Z</time><name>PT9773</name></trkpt>
<trkpt lat="54.372327" lon="-3.103526"><ele>296</ele><time>2020-06-12T12:42:10Z</time><name>PT9774</name></trkpt>
<trkpt lat="54.372321" lon="-3.103520"><ele>295</ele><time>2020-06-12T12:42:11Z</time><name>PT9775</name></trkpt>
<trkpt lat="54.372315" lon="-3.103515"><ele>295</ele><time>2020-06-12T12:42:12Z</time><name>PT9776</name></trkpt>
<trkpt lat="54.372312" lon="-3.103507"><ele>295</ele><time>2020-06-12T12:42:13Z</time><name>PT9777</name></trkpt>
<trkpt lat="54.372306" lon="-3.103502"><ele>295</ele><time>2020-06-12T12:42:14Z</time><name>PT9778</name></trkpt>
<trkpt lat="54.372300" lon="-3.103500"><ele>294</ele><time>2020-06-12T12:42:15Z</time><name>PT9779</name></trkpt>
<trkpt lat="54.372295" lon="-3.103496"><ele>294</ele><time>2020-06-12T12:42:16Z</time><name>PT9780</name></trkpt>
<trkpt lat="54.372289" lon="-3.103488"><ele>294</ele><time>2020-06-12T12:42:17Z</time><name>PT9781</name></trkpt>
<trkpt lat="54.372284" lon="-3.103481"><ele>294</ele><time>2020-06-12T12:42:18Z</time><name>PT9782</name></trkpt>
<trkpt lat="54.372278" lon="-3.103471"><ele>293</ele><time>2020-06-12T12:42:19Z</time><name>PT9783</name></trkpt>
<trkpt lat="54.372271" lon="-3.103460"><ele>293</ele><time>2020-06-12T12:42:20Z</time><name>PT9784</name></trkpt>
<trkpt lat="54.372264" lon="-3.103450"><ele>293</ele><time>2020-06-12T12:42:21Z</time><name>PT9785</name></trkpt>
<trkpt lat="54.372256" lon="-3.103440"><ele>292</ele><time>2020-06-12T12:42:22Z</time><name>PT9786</name></trkpt>
<trkpt lat="54.372248" lon="-3.103431"><ele>292</ele><time>2020-06-12T12:42:23Z</time><name>PT9787</name></trkpt>
<trkpt lat="54.372241" lon="-3.103427"><ele>292</ele><time>2020-06-12T12:42:24Z</time><name>PT9788</name></trkpt>
<trkpt lat="54.372233" lon="-3.103420"><ele>292</ele><time>2020-06-12T12:42:25Z</time><name>PT9789</name></trkpt>
<trkpt lat="54.372227" lon="-3.103412"><ele>291</ele><time>2020-06-12T12:42:26Z</time><name>PT9790</name></trkpt>
<trkpt lat="54.372222" lon="-3.103407"><ele>291</ele><time>2020-06-12T12:42:27Z</time><name>PT9791</name></trkpt>
<trkpt lat="54.372212" lon="-3.103397"><ele>290</ele><time>2020-06-12T12:42:28Z</time><name>PT9792</name></trkpt>
<trkpt lat="54.372203" lon="-3.103385"><ele>290</ele><time>2020-06-12T12:42:29Z</time><name>PT9793</name></trkpt>
<trkpt lat="54.372194" lon="-3.103369"><ele>290</ele><time>2020-06-12T12:42:30Z</time><name>PT9794</name></trkpt>
<trkpt lat="54.372186" lon="-3.103355"><ele>289</ele><time>2020-06-12T12:42:31Z</time><name>PT9795</name></trkpt>
<trkpt lat="54.372176" lon="-3.103337"><ele>290</ele><time>2020-06-12T12:42:32Z</time><name>PT9796</name></trkpt>
<trkpt lat="54.372170" lon="-3.103322"><ele>289</ele><time>2020-06-12T12:42:33Z</time><name>PT9797</name></trkpt>
<trkpt lat="54.372162" lon="-3.103302"><ele>289</ele><time>2020-06-12T12:42:34Z</time><name>PT9798</name></trkpt>
<trkpt lat="54.372154" lon="-3.103287"><ele>289</ele><time>2020-06-12T12:42:35Z</time><name>PT9799</name></trkpt>
<trkpt lat="54.372146" lon="-3.103267"><ele>289</ele><time>2020-06-12T12:42:36Z</time><name>PT9800</name></trkpt>
<trkpt lat="54.372143" lon="-3.103255"><ele>289</ele><time>2020-06-12T12:42:37Z</time><name>PT9801</name></trkpt>
<trkpt lat="54.372138" lon="-3.103239"><ele>289</ele><time>2020-06-12T12:42:38Z</time><name>PT9802</name></trkpt>
<trkpt lat="54.372129" lon="-3.103224"><ele>289</ele><time>2020-06-12T12:42:39Z</time><name>PT9803</name></trkpt>
<trkpt lat="54.372123" lon="-3.103212"><ele>289</ele><time>2020-06-12T12:42:40Z</time><name>PT9804</name></trkpt>
<trkpt lat="54.372111" lon="-3.103195"><ele>289</ele><time>2020-06-12T12:42:41Z</time><name>PT9805</name></trkpt>
<trkpt lat="54.372102" lon="-3.103179"><ele>289</ele><time>2020-06-12T12:42:42Z</time><name>PT9806</name></trkpt>
<trkpt lat="54.372093" lon="-3.103165"><ele>289</ele><time>2020-06-12T12:42:43Z</time><name>PT9807</name></trkpt>
<trkpt lat="54.372086" lon="-3.103152"><ele>289</ele><time>2020-06-12T12:42:44Z</time><name>PT9808</name></trkpt>
<trkpt lat="54.372073" lon="-3.103141"><ele>290</ele><time>2020-06-12T12:42:45Z</time><name>PT9809</name></trkpt>
<trkpt lat="54.372061" lon="-3.103128"><ele>290</ele><time>2020-06-12T12:42:46Z</time><name>PT9810</name></trkpt>
<trkpt lat="54.372052" lon="-3.103116"><ele>290</ele><time>2020-06-12T12:42:47Z</time><name>PT9811</name></trkpt>
<trkpt lat="54.372044" lon="-3.103103"><ele>290</ele><time>2020-06-12T12:42:48Z</time><name>PT9812</name></trkpt>
<trkpt lat="54.372036" lon="-3.103091"><ele>290</ele><time>2020-06-12T12:42:49Z</time><name>PT9813</name></trkpt>
<trkpt lat="54.372028" lon="-3.103075"><ele>290</ele><time>2020-06-12T12:42:50Z</time><name>PT9814</name></trkpt>
<trkpt lat="54.372019" lon="-3.103058"><ele>290</ele><time>2020-06-12T12:42:51Z</time><name>PT9815</name></trkpt>
<trkpt lat="54.372010" lon="-3.103039"><ele>291</ele><time>2020-06-12T12:42:52Z</time><name>PT9816</name></trkpt>
<trkpt lat="54.372003" lon="-3.103023"><ele>291</ele><time>2020-06-12T12:42:54Z</time><name>PT9817</name></trkpt>
<trkpt lat="54.371999" lon="-3.103010"><ele>291</ele><time>2020-06-12T12:42:54Z</time><name>PT9818</name></trkpt>
<trkpt lat="54.371994" lon="-3.102997"><ele>291</ele><time>2020-06-12T12:42:55Z</time><name>PT9819</name></trkpt>
<trkpt lat="54.371987" lon="-3.102983"><ele>291</ele><time>2020-06-12T12:42:56Z</time><name>PT9820</name></trkpt>
<trkpt lat="54.371980" lon="-3.102969"><ele>291</ele><time>2020-06-12T12:42:57Z</time><name>PT9821</name></trkpt>
<trkpt lat="54.371973" lon="-3.102956"><ele>292</ele><time>2020-06-12T12:42:58Z</time><name>PT9822</name></trkpt>
<trkpt lat="54.371966" lon="-3.102944"><ele>292</ele><time>2020-06-12T12:42:59Z</time><name>PT9823</name></trkpt>
<trkpt lat="54.371960" lon="-3.102928"><ele>292</ele><time>2020-06-12T12:43:00Z</time><name>PT9824</name></trkpt>
<trkpt lat="54.371953" lon="-3.102915"><ele>292</ele><time>2020-06-12T12:43:01Z</time><name>PT9825</name></trkpt>
<trkpt lat="54.371947" lon="-3.102902"><ele>292</ele><time>2020-06-12T12:43:02Z</time><name>PT9826</name></trkpt>
<trkpt lat="54.371941" lon="-3.102897"><ele>292</ele><time>2020-06-12T12:43:03Z</time><name>PT9827</name></trkpt>
<trkpt lat="54.371933" lon="-3.102886"><ele>292</ele><time>2020-06-12T12:43:04Z</time><name>PT9828</name></trkpt>
<trkpt lat="54.371924" lon="-3.102877"><ele>292</ele><time>2020-06-12T12:43:05Z</time><name>PT9829</name></trkpt>
<trkpt lat="54.371915" lon="-3.102865"><ele>292</ele><time>2020-06-12T12:43:06Z</time><name>PT9830</name></trkpt>
<trkpt lat="54.371909" lon="-3.102853"><ele>292</ele><time>2020-06-12T12:43:07Z</time><name>PT9831</name></trkpt>
<trkpt lat="54.371901" lon="-3.102842"><ele>292</ele><time>2020-06-12T12:43:08Z</time><name>PT9832</name></trkpt>
<trkpt lat="54.371895" lon="-3.102829"><ele>292</ele><time>2020-06-12T12:43:09Z</time><name>PT9833</name></trkpt>
<trkpt lat="54.371888" lon="-3.102819"><ele>292</ele><time>2020-06-12T12:43:10Z</time><name>PT9834</name></trkpt>
<trkpt lat="54.371877" lon="-3.102803"><ele>292</ele><time>2020-06-12T12:43:11Z</time><name>PT9835</name></trkpt>
<trkpt lat="54.371864" lon="-3.102786"><ele>292</ele><time>2020-06-12T12:43:12Z</time><name>PT9836</name></trkpt>
<trkpt lat="54.371856" lon="-3.102774"><ele>293</ele><time>2020-06-12T12:43:13Z</time><name>PT9837</name></trkpt>
<trkpt lat="54.371845" lon="-3.102761"><ele>293</ele><time>2020-06-12T12:43:14Z</time><name>PT9838</name></trkpt>
<trkpt lat="54.371835" lon="-3.102749"><ele>293</ele><time>2020-06-12T12:43:15Z</time><name>PT9839</name></trkpt>
<trkpt lat="54.371825" lon="-3.102735"><ele>293</ele><time>2020-06-12T12:43:16Z</time><name>PT9840</name></trkpt>
<trkpt lat="54.371815" lon="-3.102722"><ele>293</ele><time>2020-06-12T12:43:17Z</time><name>PT9841</name></trkpt>
<trkpt lat="54.371806" lon="-3.102710"><ele>293</ele><time>2020-06-12T12:43:18Z</time><name>PT9842</name></trkpt>
<trkpt lat="54.371798" lon="-3.102697"><ele>293</ele><time>2020-06-12T12:43:19Z</time><name>PT9843</name></trkpt>
<trkpt lat="54.371791" lon="-3.102685"><ele>293</ele><time>2020-06-12T12:43:20Z</time><name>PT9844</name></trkpt>
<trkpt lat="54.371785" lon="-3.102673"><ele>293</ele><time>2020-06-12T12:43:21Z</time><name>PT9845</name></trkpt>
<trkpt lat="54.371777" lon="-3.102659"><ele>293</ele><time>2020-06-12T12:43:22Z</time><name>PT9846</name></trkpt>
<trkpt lat="54.371769" lon="-3.102648"><ele>293</ele><time>2020-06-12T12:43:23Z</time><name>PT9847</name></trkpt>
<trkpt lat="54.371763" lon="-3.102640"><ele>293</ele><time>2020-06-12T12:43:24Z</time><name>PT9848</name></trkpt>
<trkpt lat="54.371756" lon="-3.102630"><ele>293</ele><time>2020-06-12T12:43:25Z</time><name>PT9849</name></trkpt>
<trkpt lat="54.371749" lon="-3.102620"><ele>293</ele><time>2020-06-12T12:43:26Z</time><name>PT9850</name></trkpt>
<trkpt lat="54.371741" lon="-3.102609"><ele>293</ele><time>2020-06-12T12:43:27Z</time><name>PT9851</name></trkpt>
<trkpt lat="54.371731" lon="-3.102598"><ele>293</ele><time>2020-06-12T12:43:28Z</time><name>PT9852</name></trkpt>
<trkpt lat="54.371725" lon="-3.102587"><ele>294</ele><time>2020-06-12T12:43:29Z</time><name>PT9853</name></trkpt>
<trkpt lat="54.371716" lon="-3.102576"><ele>294</ele><time>2020-06-12T12:43:30Z</time><name>PT9854</name></trkpt>
<trkpt lat="54.371709" lon="-3.102567"><ele>294</ele><time>2020-06-12T12:43:31Z</time><name>PT9855</name></trkpt>
<trkpt lat="54.371703" lon="-3.102559"><ele>294</ele><time>2020-06-12T12:43:32Z</time><name>PT9856</name></trkpt>
<trkpt lat="54.371696" lon="-3.102547"><ele>294</ele><time>2020-06-12T12:43:33Z</time><name>PT9857</name></trkpt>
<trkpt lat="54.371691" lon="-3.102535"><ele>294</ele><time>2020-06-12T12:43:34Z</time><name>PT9858</name></trkpt>
<trkpt lat="54.371685" lon="-3.102519"><ele>294</ele><time>2020-06-12T12:43:35Z</time><name>PT9859</name></trkpt>
<trkpt lat="54.371678" lon="-3.102514"><ele>294</ele><time>2020-06-12T12:43:36Z</time><name>PT9860</name></trkpt>
<trkpt lat="54.371662" lon="-3.102502"><ele>294</ele><time>2020-06-12T12:43:37Z</time><name>PT9861</name></trkpt>
<trkpt lat="54.371649" lon="-3.102500"><ele>294</ele><time>2020-06-12T12:43:38Z</time><name>PT9862</name></trkpt>
<trkpt lat="54.371639" lon="-3.102501"><ele>294</ele><time>2020-06-12T12:43:39Z</time><name>PT9863</name></trkpt>
<trkpt lat="54.371634" lon="-3.102515"><ele>294</ele><time>2020-06-12T12:43:40Z</time><name>PT9864</name></trkpt>
<trkpt lat="54.371625" lon="-3.102513"><ele>295</ele><time>2020-06-12T12:43:41Z</time><name>PT9865</name></trkpt>
<trkpt lat="54.371617" lon="-3.102518"><ele>294</ele><time>2020-06-12T12:43:42Z</time><name>PT9866</name></trkpt>
<trkpt lat="54.371606" lon="-3.102517"><ele>294</ele><time>2020-06-12T12:43:43Z</time><name>PT9867</name></trkpt>
<trkpt lat="54.371595" lon="-3.102519"><ele>294</ele><time>2020-06-12T12:43:44Z</time><name>PT9868</name></trkpt>
<trkpt lat="54.371584" lon="-3.102514"><ele>295</ele><time>2020-06-12T12:43:45Z</time><name>PT9869</name></trkpt>
<trkpt lat="54.371572" lon="-3.102506"><ele>295</ele><time>2020-06-12T12:43:46Z</time><name>PT9870</name></trkpt>
<trkpt lat="54.371563" lon="-3.102502"><ele>294</ele><time>2020-06-12T12:43:47Z</time><name>PT9871</name></trkpt>
<trkpt lat="54.371555" lon="-3.102501"><ele>294</ele><time>2020-06-12T12:43:48Z</time><name>PT9872</name></trkpt>
<trkpt lat="54.371544" lon="-3.102499"><ele>294</ele><time>2020-06-12T12:43:49Z</time><name>PT9873</name></trkpt>
<trkpt lat="54.371533" lon="-3.102495"><ele>294</ele><time>2020-06-12T12:43:50Z</time><name>PT9874</name></trkpt>
<trkpt lat="54.371525" lon="-3.102493"><ele>294</ele><time>2020-06-12T12:43:51Z</time><name>PT9875</name></trkpt>
<trkpt lat="54.371516" lon="-3.102492"><ele>294</ele><time>2020-06-12T12:43:52Z</time><name>PT9876</name></trkpt>
<trkpt lat="54.371506" lon="-3.102490"><ele>294</ele><time>2020-06-12T12:43:53Z</time><name>PT9877</name></trkpt>
<trkpt lat="54.371499" lon="-3.102495"><ele>294</ele><time>2020-06-12T12:43:54Z</time><name>PT9878</name></trkpt>
<trkpt lat="54.371493" lon="-3.102496"><ele>294</ele><time>2020-06-12T12:43:55Z</time><name>PT9879</name></trkpt>
<trkpt lat="54.371485" lon="-3.102492"><ele>294</ele><time>2020-06-12T12:43:56Z</time><name>PT9880</name></trkpt>
<trkpt lat="54.371478" lon="-3.102488"><ele>293</ele><time>2020-06-12T12:43:57Z</time><name>PT9881</name></trkpt>
<trkpt lat="54.371471" lon="-3.102483"><ele>293</ele><time>2020-06-12T12:43:58Z</time><name>PT9882</name></trkpt>
<trkpt lat="54.371461" lon="-3.102476"><ele>293</ele><time>2020-06-12T12:43:59Z</time><name>PT9883</name></trkpt>
<trkpt lat="54.371452" lon="-3.102474"><ele>293</ele><time>2020-06-12T12:44:00Z</time><name>PT9884</name></trkpt>
<trkpt lat="54.371444" lon="-3.102474"><ele>293</ele><time>2020-06-12T12:44:01Z</time><name>PT9885</name></trkpt>
<trkpt lat="54.371435" lon="-3.102473"><ele>292</ele><time>2020-06-12T12:44:02Z</time><name>PT9886</name></trkpt>
<trkpt lat="54.371428" lon="-3.102472"><ele>292</ele><time>2020-06-12T12:44:03Z</time><name>PT9887</name></trkpt>
<trkpt lat="54.371418" lon="-3.102471"><ele>292</ele><time>2020-06-12T12:44:04Z</time><name>PT9888</name></trkpt>
<trkpt lat="54.371409" lon="-3.102470"><ele>292</ele><time>2020-06-12T12:44:05Z</time><name>PT9889</name></trkpt>
<trkpt lat="54.371403" lon="-3.102468"><ele>291</ele><time>2020-06-12T12:44:06Z</time><name>PT9890</name></trkpt>
<trkpt lat="54.371392" lon="-3.102463"><ele>291</ele><time>2020-06-12T12:44:07Z</time><name>PT9891</name></trkpt>
<trkpt lat="54.371380" lon="-3.102451"><ele>291</ele><time>2020-06-12T12:44:08Z</time><name>PT9892</name></trkpt>
<trkpt lat="54.371360" lon="-3.102447"><ele>292</ele><time>2020-06-12T12:44:09Z</time><name>PT9893</name></trkpt>
<trkpt lat="54.371348" lon="-3.102444"><ele>292</ele><time>2020-06-12T12:44:10Z</time><name>PT9894</name></trkpt>
<trkpt lat="54.371341" lon="-3.102447"><ele>292</ele><time>2020-06-12T12:44:11Z</time><name>PT9895</name></trkpt>
<trkpt lat="54.371332" lon="-3.102451"><ele>291</ele><time>2020-06-12T12:44:12Z</time><name>PT9896</name></trkpt>
<trkpt lat="54.371319" lon="-3.102444"><ele>291</ele><time>2020-06-12T12:44:13Z</time><name>PT9897</name></trkpt>
<trkpt lat="54.371305" lon="-3.102439"><ele>291</ele><time>2020-06-12T12:44:14Z</time><name>PT9898</name></trkpt>
<trkpt lat="54.371295" lon="-3.102440"><ele>291</ele><time>2020-06-12T12:44:15Z</time><name>PT9899</name></trkpt>
<trkpt lat="54.371285" lon="-3.102438"><ele>291</ele><time>2020-06-12T12:44:16Z</time><name>PT9900</name></trkpt>
<trkpt lat="54.371273" lon="-3.102436"><ele>291</ele><time>2020-06-12T12:44:17Z</time><name>PT9901</name></trkpt>
<trkpt lat="54.371264" lon="-3.102433"><ele>291</ele><time>2020-06-12T12:44:18Z</time><name>PT9902</name></trkpt>
<trkpt lat="54.371255" lon="-3.102430"><ele>291</ele><time>2020-06-12T12:44:19Z</time><name>PT9903</name></trkpt>
<trkpt lat="54.371246" lon="-3.102429"><ele>291</ele><time>2020-06-12T12:44:20Z</time><name>PT9904</name></trkpt>
<trkpt lat="54.371236" lon="-3.102423"><ele>291</ele><time>2020-06-12T12:44:21Z</time><name>PT9905</name></trkpt>
<trkpt lat="54.371224" lon="-3.102419"><ele>290</ele><time>2020-06-12T12:44:22Z</time><name>PT9906</name></trkpt>
<trkpt lat="54.371214" lon="-3.102418"><ele>290</ele><time>2020-06-12T12:44:23Z</time><name>PT9907</name></trkpt>
<trkpt lat="54.371204" lon="-3.102419"><ele>290</ele><time>2020-06-12T12:44:24Z</time><name>PT9908</name></trkpt>
<trkpt lat="54.371195" lon="-3.102420"><ele>290</ele><time>2020-06-12T12:44:25Z</time><name>PT9909</name></trkpt>
<trkpt lat="54.371186" lon="-3.102420"><ele>290</ele><time>2020-06-12T12:44:26Z</time><name>PT9910</name></trkpt>
<trkpt lat="54.371177" lon="-3.102418"><ele>289</ele><time>2020-06-12T12:44:27Z</time><name>PT9911</name></trkpt>
<trkpt lat="54.371166" lon="-3.102418"><ele>289</ele><time>2020-06-12T12:44:28Z</time><name>PT9912</name></trkpt>
<trkpt lat="54.371155" lon="-3.102420"><ele>289</ele><time>2020-06-12T12:44:29Z</time><name>PT9913</name></trkpt>
<trkpt lat="54.371147" lon="-3.102423"><ele>289</ele><time>2020-06-12T12:44:30Z</time><name>PT9914</name></trkpt>
<trkpt lat="54.371141" lon="-3.102423"><ele>289</ele><time>2020-06-12T12:44:31Z</time><name>PT9915</name></trkpt>
<trkpt lat="54.371134" lon="-3.102422"><ele>289</ele><time>2020-06-12T12:44:32Z</time><name>PT9916</name></trkpt>
<trkpt lat="54.371124" lon="-3.102423"><ele>289</ele><time>2020-06-12T12:44:33Z</time><name>PT9917</name></trkpt>
<trkpt lat="54.371115" lon="-3.102426"><ele>288</ele><time>2020-06-12T12:44:34Z</time><name>PT9918</name></trkpt>
<trkpt lat="54.371107" lon="-3.102424"><ele>288</ele><time>2020-06-12T12:44:35Z</time><name>PT9919</name></trkpt>
<trkpt lat="54.371097" lon="-3.102421"><ele>288</ele><time>2020-06-12T12:44:36Z</time><name>PT9920</name></trkpt>
<trkpt lat="54.371087" lon="-3.102420"><ele>288</ele><time>2020-06-12T12:44:37Z</time><name>PT9921</name></trkpt>
<trkpt lat="54.371077" lon="-3.102417"><ele>288</ele><time>2020-06-12T12:44:38Z</time><name>PT9922</name></trkpt>
<trkpt lat="54.371069" lon="-3.102414"><ele>288</ele><time>2020-06-12T12:44:39Z</time><name>PT9923</name></trkpt>
<trkpt lat="54.371067" lon="-3.102399"><ele>289</ele><time>2020-06-12T12:44:40Z</time><name>PT9924</name></trkpt>
<trkpt lat="54.371060" lon="-3.102392"><ele>289</ele><time>2020-06-12T12:44:41Z</time><name>PT9925</name></trkpt>
<trkpt lat="54.371051" lon="-3.102389"><ele>288</ele><time>2020-06-12T12:44:42Z</time><name>PT9926</name></trkpt>
<trkpt lat="54.371043" lon="-3.102387"><ele>288</ele><time>2020-06-12T12:44:43Z</time><name>PT9927</name></trkpt>
<trkpt lat="54.371038" lon="-3.102384"><ele>288</ele><time>2020-06-12T12:44:44Z</time><name>PT9928</name></trkpt>
<trkpt lat="54.371039" lon="-3.102382"><ele>287</ele><time>2020-06-12T12:44:45Z</time><name>PT9929</name></trkpt>
<trkpt lat="54.371043" lon="-3.102385"><ele>287</ele><time>2020-06-12T12:44:46Z</time><name>PT9930</name></trkpt>
<trkpt lat="54.371043" lon="-3.102387"><ele>287</ele><time>2020-06-12T12:44:47Z</time><name>PT9931</name></trkpt>
<trkpt lat="54.371032" lon="-3.102392"><ele>287</ele><time>2020-06-12T12:45:02Z</time><name>PT9932</name></trkpt>
<trkpt lat="54.371021" lon="-3.102398"><ele>287</ele><time>2020-06-12T12:45:03Z</time><name>PT9933</name></trkpt>
<trkpt lat="54.371012" lon="-3.102397"><ele>286</ele><time>2020-06-12T12:45:04Z</time><name>PT9934</name></trkpt>
<trkpt lat="54.370997" lon="-3.102393"><ele>287</ele><time>2020-06-12T12:45:05Z</time><name>PT9935</name></trkpt>
<trkpt lat="54.370987" lon="-3.102392"><ele>286</ele><time>2020-06-12T12:45:06Z</time><name>PT9936</name></trkpt>
<trkpt lat="54.370977" lon="-3.102395"><ele>286</ele><time>2020-06-12T12:45:07Z</time><name>PT9937</name></trkpt>
<trkpt lat="54.370968" lon="-3.102395"><ele>286</ele><time>2020-06-12T12:45:08Z</time><name>PT9938</name></trkpt>
<trkpt lat="54.370959" lon="-3.102393"><ele>286</ele><time>2020-06-12T12:45:09Z</time><name>PT9939</name></trkpt>
<trkpt lat="54.370949" lon="-3.102392"><ele>285</ele><time>2020-06-12T12:45:10Z</time><name>PT9940</name></trkpt>
<trkpt lat="54.370938" lon="-3.102394"><ele>284</ele><time>2020-06-12T12:45:11Z</time><name>PT9941</name></trkpt>
<trkpt lat="54.370928" lon="-3.102396"><ele>284</ele><time>2020-06-12T12:45:12Z</time><name>PT9942</name></trkpt>
<trkpt lat="54.370918" lon="-3.102396"><ele>284</ele><time>2020-06-12T12:45:13Z</time><name>PT9943</name></trkpt>
<trkpt lat="54.370908" lon="-3.102395"><ele>284</ele><time>2020-06-12T12:45:14Z</time><name>PT9944</name></trkpt>
<trkpt lat="54.370900" lon="-3.102392"><ele>284</ele><time>2020-06-12T12:45:15Z</time><name>PT9945</name></trkpt>
<trkpt lat="54.370890" lon="-3.102391"><ele>284</ele><time>2020-06-12T12:45:16Z</time><name>PT9946</name></trkpt>
<trkpt lat="54.370882" lon="-3.102392"><ele>283</ele><time>2020-06-12T12:45:17Z</time><name>PT9947</name></trkpt>
<trkpt lat="54.370871" lon="-3.102392"><ele>283</ele><time>2020-06-12T12:45:18Z</time><name>PT9948</name></trkpt>
<trkpt lat="54.370860" lon="-3.102395"><ele>283</ele><time>2020-06-12T12:45:19Z</time><name>PT9949</name></trkpt>
<trkpt lat="54.370849" lon="-3.102395"><ele>282</ele><time>2020-06-12T12:45:20Z</time><name>PT9950</name></trkpt>
<trkpt lat="54.370839" lon="-3.102395"><ele>282</ele><time>2020-06-12T12:45:21Z</time><name>PT9951</name></trkpt>
<trkpt lat="54.370827" lon="-3.102399"><ele>282</ele><time>2020-06-12T12:45:22Z</time><name>PT9952</name></trkpt>
<trkpt lat="54.370816" lon="-3.102402"><ele>282</ele><time>2020-06-12T12:45:23Z</time><name>PT9953</name></trkpt>
<trkpt lat="54.370800" lon="-3.102409"><ele>282</ele><time>2020-06-12T12:45:24Z</time><name>PT9954</name></trkpt>
<trkpt lat="54.370787" lon="-3.102409"><ele>282</ele><time>2020-06-12T12:45:25Z</time><name>PT9955</name></trkpt>
<trkpt lat="54.370776" lon="-3.102408"><ele>282</ele><time>2020-06-12T12:45:26Z</time><name>PT9956</name></trkpt>
<trkpt lat="54.370764" lon="-3.102409"><ele>282</ele><time>2020-06-12T12:45:27Z</time><name>PT9957</name></trkpt>
<trkpt lat="54.370757" lon="-3.102411"><ele>282</ele><time>2020-06-12T12:45:28Z</time><name>PT9958</name></trkpt>
<trkpt lat="54.370744" lon="-3.102415"><ele>281</ele><time>2020-06-12T12:45:29Z</time><name>PT9959</name></trkpt>
<trkpt lat="54.370735" lon="-3.102415"><ele>281</ele><time>2020-06-12T12:45:30Z</time><name>PT9960</name></trkpt>
<trkpt lat="54.370729" lon="-3.102411"><ele>280</ele><time>2020-06-12T12:45:31Z</time><name>PT9961</name></trkpt>
<trkpt lat="54.370714" lon="-3.102414"><ele>281</ele><time>2020-06-12T12:45:32Z</time><name>PT9962</name></trkpt>
<trkpt lat="54.370706" lon="-3.102415"><ele>281</ele><time>2020-06-12T12:45:33Z</time><name>PT9963</name></trkpt>
<trkpt lat="54.370689" lon="-3.102419"><ele>281</ele><time>2020-06-12T12:45:34Z</time><name>PT9964</name></trkpt>
<trkpt lat="54.370676" lon="-3.102420"><ele>282</ele><time>2020-06-12T12:45:35Z</time><name>PT9965</name></trkpt>
<trkpt lat="54.370667" lon="-3.102423"><ele>282</ele><time>2020-06-12T12:45:36Z</time><name>PT9966</name></trkpt>
<trkpt lat="54.370656" lon="-3.102423"><ele>282</ele><time>2020-06-12T12:45:37Z</time><name>PT9967</name></trkpt>
<trkpt lat="54.370649" lon="-3.102421"><ele>281</ele><time>2020-06-12T12:45:38Z</time><name>PT9968</name></trkpt>
<trkpt lat="54.370639" lon="-3.102420"><ele>282</ele><time>2020-06-12T12:45:39Z</time><name>PT9969</name></trkpt>
<trkpt lat="54.370626" lon="-3.102418"><ele>282</ele><time>2020-06-12T12:45:40Z</time><name>PT9970</name></trkpt>
<trkpt lat="54.370616" lon="-3.102419"><ele>281</ele><time>2020-06-12T12:45:41Z</time><name>PT9971</name></trkpt>
<trkpt lat="54.370607" lon="-3.102412"><ele>281</ele><time>2020-06-12T12:45:42Z</time><name>PT9972</name></trkpt>
<trkpt lat="54.370597" lon="-3.102412"><ele>281</ele><time>2020-06-12T12:45:43Z</time><name>PT9973</name></trkpt>
<trkpt lat="54.370585" lon="-3.102404"><ele>281</ele><time>2020-06-12T12:45:44Z</time><name>PT9974</name></trkpt>
<trkpt lat="54.370575" lon="-3.102403"><ele>281</ele><time>2020-06-12T12:45:45Z</time><name>PT9975</name></trkpt>
<trkpt lat="54.370562" lon="-3.102400"><ele>281</ele><time>2020-06-12T12:45:46Z</time><name>PT9976</name></trkpt>
<trkpt lat="54.370548" lon="-3.102397"><ele>281</ele><time>2020-06-12T12:45:47Z</time><name>PT9977</name></trkpt>
<trkpt lat="54.370539" lon="-3.102390"><ele>281</ele><time>2020-06-12T12:45:48Z</time><name>PT9978</name></trkpt>
<trkpt lat="54.370522" lon="-3.102386"><ele>282</ele><time>2020-06-12T12:45:49Z</time><name>PT9979</name></trkpt>
<trkpt lat="54.370509" lon="-3.102379"><ele>283</ele><time>2020-06-12T12:45:50Z</time><name>PT9980</name></trkpt>
<trkpt lat="54.370498" lon="-3.102374"><ele>283</ele><time>2020-06-12T12:45:51Z</time><name>PT9981</name></trkpt>
<trkpt lat="54.370489" lon="-3.102368"><ele>283</ele><time>2020-06-12T12:45:52Z</time><name>PT9982</name></trkpt>
<trkpt lat="54.370474" lon="-3.102354"><ele>284</ele><time>2020-06-12T12:45:53Z</time><name>PT9983</name></trkpt>
<trkpt lat="54.370464" lon="-3.102348"><ele>283</ele><time>2020-06-12T12:45:54Z</time><name>PT9984</name></trkpt>
<trkpt lat="54.370453" lon="-3.102348"><ele>283</ele><time>2020-06-12T12:45:55Z</time><name>PT9985</name></trkpt>
<trkpt lat="54.370442" lon="-3.102342"><ele>283</ele><time>2020-06-12T12:45:56Z</time><name>PT9986</name></trkpt>
<trkpt lat="54.370432" lon="-3.102335"><ele>283</ele><time>2020-06-12T12:45:57Z</time><name>PT9987</name></trkpt>
<trkpt lat="54.370421" lon="-3.102328"><ele>283</ele><time>2020-06-12T12:45:58Z</time><name>PT9988</name></trkpt>
<trkpt lat="54.370412" lon="-3.102327"><ele>282</ele><time>2020-06-12T12:45:59Z</time><name>PT9989</name></trkpt>
<trkpt lat="54.370402" lon="-3.102327"><ele>282</ele><time>2020-06-12T12:46:00Z</time><name>PT9990</name></trkpt>
<trkpt lat="54.370392" lon="-3.102326"><ele>282</ele><time>2020-06-12T12:46:01Z</time><name>PT9991</name></trkpt>
<trkpt lat="54.370381" lon="-3.102325"><ele>282</ele><time>2020-06-12T12:46:02Z</time><name>PT9992</name></trkpt>
<trkpt lat="54.370369" lon="-3.102316"><ele>282</ele><time>2020-06-12T12:46:03Z</time><name>PT9993</name></trkpt>
<trkpt lat="54.370358" lon="-3.102315"><ele>282</ele><time>2020-06-12T12:46:04Z</time><name>PT9994</name></trkpt>
<trkpt lat="54.370346" lon="-3.102313"><ele>282</ele><time>2020-06-12T12:46:05Z</time><name>PT9995</name></trkpt>
<trkpt lat="54.370333" lon="-3.102312"><ele>282</ele><time>2020-06-12T12:46:06Z</time><name>PT9996</name></trkpt>
<trkpt lat="54.370319" lon="-3.102305"><ele>282</ele><time>2020-06-12T12:46:07Z</time><name>PT9997</name></trkpt>
<trkpt lat="54.370308" lon="-3.102298"><ele>282</ele><time>2020-06-12T12:46:08Z</time><name>PT9998</name></trkpt>
<trkpt lat="54.370295" lon="-3.102293"><ele>283</ele><time>2020-06-12T12:46:09Z</time><name>PT9999</name></trkpt>
<trkpt lat="54.370284" lon="-3.102290"><ele>283</ele><time>2020-06-12T12:46:10Z</time><name>PT10000</name></trkpt>
<trkpt lat="54.370269" lon="-3.102287"><ele>283</ele><time>2020-06-12T12:46:11Z</time><name>PT10001</name></trkpt>
<trkpt lat="54.370253" lon="-3.102284"><ele>283</ele><time>2020-06-12T12:46:12Z</time><name>PT10002</name></trkpt>
<trkpt lat="54.370245" lon="-3.102279"><ele>282</ele><time>2020-06-12T12:46:13Z</time><name>PT10003</name></trkpt>
<trkpt lat="54.370236" lon="-3.102272"><ele>281</ele><time>2020-06-12T12:46:14Z</time><name>PT10004</name></trkpt>
<trkpt lat="54.370228" lon="-3.102272"><ele>281</ele><time>2020-06-12T12:46:15Z</time><name>PT10005</name></trkpt>
<trkpt lat="54.370216" lon="-3.102270"><ele>281</ele><time>2020-06-12T12:46:16Z</time><name>PT10006</name></trkpt>
<trkpt lat="54.370204" lon="-3.102263"><ele>281</ele><time>2020-06-12T12:46:17Z</time><name>PT10007</name></trkpt>
<trkpt lat="54.370194" lon="-3.102257"><ele>281</ele><time>2020-06-12T12:46:18Z</time><name>PT10008</name></trkpt>
<trkpt lat="54.370186" lon="-3.102252"><ele>280</ele><time>2020-06-12T12:46:19Z</time><name>PT10009</name></trkpt>
<trkpt lat="54.370176" lon="-3.102250"><ele>280</ele><time>2020-06-12T12:46:20Z</time><name>PT10010</name></trkpt>
<trkpt lat="54.370166" lon="-3.102249"><ele>280</ele><time>2020-06-12T12:46:21Z</time><name>PT10011</name></trkpt>
<trkpt lat="54.370153" lon="-3.102245"><ele>280</ele><time>2020-06-12T12:46:22Z</time><name>PT10012</name></trkpt>
<trkpt lat="54.370142" lon="-3.102242"><ele>280</ele><time>2020-06-12T12:46:23Z</time><name>PT10013</name></trkpt>
<trkpt lat="54.370130" lon="-3.102236"><ele>280</ele><time>2020-06-12T12:46:24Z</time><name>PT10014</name></trkpt>
<trkpt lat="54.370123" lon="-3.102228"><ele>279</ele><time>2020-06-12T12:46:25Z</time><name>PT10015</name></trkpt>
<trkpt lat="54.370115" lon="-3.102224"><ele>279</ele><time>2020-06-12T12:46:26Z</time><name>PT10016</name></trkpt>
<trkpt lat="54.370104" lon="-3.102220"><ele>279</ele><time>2020-06-12T12:46:27Z</time><name>PT10017</name></trkpt>
<trkpt lat="54.370091" lon="-3.102215"><ele>279</ele><time>2020-06-12T12:46:28Z</time><name>PT10018</name></trkpt>
<trkpt lat="54.370081" lon="-3.102209"><ele>279</ele><time>2020-06-12T12:46:29Z</time><name>PT10019</name></trkpt>
<trkpt lat="54.370068" lon="-3.102203"><ele>279</ele><time>2020-06-12T12:46:30Z</time><name>PT10020</name></trkpt>
<trkpt lat="54.370056" lon="-3.102198"><ele>279</ele><time>2020-06-12T12:46:31Z</time><name>PT10021</name></trkpt>
<trkpt lat="54.370043" lon="-3.102191"><ele>279</ele><time>2020-06-12T12:46:32Z</time><name>PT10022</name></trkpt>
<trkpt lat="54.370032" lon="-3.102187"><ele>280</ele><time>2020-06-12T12:46:33Z</time><name>PT10023</name></trkpt>
<trkpt lat="54.370025" lon="-3.102180"><ele>279</ele><time>2020-06-12T12:46:34Z</time><name>PT10024</name></trkpt>
<trkpt lat="54.370015" lon="-3.102171"><ele>279</ele><time>2020-06-12T12:46:35Z</time><name>PT10025</name></trkpt>
<trkpt lat="54.370006" lon="-3.102161"><ele>279</ele><time>2020-06-12T12:46:36Z</time><name>PT10026</name></trkpt>
<trkpt lat="54.369992" lon="-3.102152"><ele>280</ele><time>2020-06-12T12:46:37Z</time><name>PT10027</name></trkpt>
<trkpt lat="54.369980" lon="-3.102140"><ele>280</ele><time>2020-06-12T12:46:38Z</time><name>PT10028</name></trkpt>
<trkpt lat="54.369967" lon="-3.102129"><ele>279</ele><time>2020-06-12T12:46:39Z</time><name>PT10029</name></trkpt>
<trkpt lat="54.369958" lon="-3.102119"><ele>279</ele><time>2020-06-12T12:46:40Z</time><name>PT10030</name></trkpt>
<trkpt lat="54.369947" lon="-3.102106"><ele>279</ele><time>2020-06-12T12:46:41Z</time><name>PT10031</name></trkpt>
<trkpt lat="54.369936" lon="-3.102103"><ele>280</ele><time>2020-06-12T12:46:42Z</time><name>PT10032</name></trkpt>
<trkpt lat="54.369928" lon="-3.102096"><ele>279</ele><time>2020-06-12T12:46:43Z</time><name>PT10033</name></trkpt>
<trkpt lat="54.369913" lon="-3.102088"><ele>279</ele><time>2020-06-12T12:46:44Z</time><name>PT10034</name></trkpt>
<trkpt lat="54.369903" lon="-3.102074"><ele>280</ele><time>2020-06-12T12:46:45Z</time><name>PT10035</name></trkpt>
<trkpt lat="54.369890" lon="-3.102065"><ele>280</ele><time>2020-06-12T12:46:46Z</time><name>PT10036</name></trkpt>
<trkpt lat="54.369880" lon="-3.102059"><ele>280</ele><time>2020-06-12T12:46:47Z</time><name>PT10037</name></trkpt>
<trkpt lat="54.369871" lon="-3.102059"><ele>280</ele><time>2020-06-12T12:46:48Z</time><name>PT10038</name></trkpt>
<trkpt lat="54.369864" lon="-3.102056"><ele>280</ele><time>2020-06-12T12:46:49Z</time><name>PT10039</name></trkpt>
<trkpt lat="54.369854" lon="-3.102050"><ele>280</ele><time>2020-06-12T12:46:50Z</time><name>PT10040</name></trkpt>
<trkpt lat="54.369838" lon="-3.102040"><ele>280</ele><time>2020-06-12T12:46:51Z</time><name>PT10041</name></trkpt>
<trkpt lat="54.369830" lon="-3.102035"><ele>280</ele><time>2020-06-12T12:46:52Z</time><name>PT10042</name></trkpt>
<trkpt lat="54.369822" lon="-3.102027"><ele>280</ele><time>2020-06-12T12:46:53Z</time><name>PT10043</name></trkpt>
<trkpt lat="54.369810" lon="-3.102019"><ele>280</ele><time>2020-06-12T12:46:54Z</time><name>PT10044</name></trkpt>
<trkpt lat="54.369801" lon="-3.102012"><ele>279</ele><time>2020-06-12T12:46:55Z</time><name>PT10045</name></trkpt>
<trkpt lat="54.369790" lon="-3.102000"><ele>279</ele><time>2020-06-12T12:46:56Z</time><name>PT10046</name></trkpt>
<trkpt lat="54.369779" lon="-3.101990"><ele>279</ele><time>2020-06-12T12:46:57Z</time><name>PT10047</name></trkpt>
<trkpt lat="54.369772" lon="-3.101987"><ele>278</ele><time>2020-06-12T12:46:58Z</time><name>PT10048</name></trkpt>
<trkpt lat="54.369763" lon="-3.101980"><ele>278</ele><time>2020-06-12T12:46:59Z</time><name>PT10049</name></trkpt>
<trkpt lat="54.369752" lon="-3.101969"><ele>278</ele><time>2020-06-12T12:47:00Z</time><name>PT10050</name></trkpt>
<trkpt lat="54.369743" lon="-3.101960"><ele>278</ele><time>2020-06-12T12:47:01Z</time><name>PT10051</name></trkpt>
<trkpt lat="54.369735" lon="-3.101949"><ele>277</ele><time>2020-06-12T12:47:02Z</time><name>PT10052</name></trkpt>
<trkpt lat="54.369726" lon="-3.101938"><ele>278</ele><time>2020-06-12T12:47:03Z</time><name>PT10053</name></trkpt>
<trkpt lat="54.369716" lon="-3.101928"><ele>278</ele><time>2020-06-12T12:47:04Z</time><name>PT10054</name></trkpt>
<trkpt lat="54.369706" lon="-3.101918"><ele>278</ele><time>2020-06-12T12:47:05Z</time><name>PT10055</name></trkpt>
<trkpt lat="54.369698" lon="-3.101912"><ele>278</ele><time>2020-06-12T12:47:06Z</time><name>PT10056</name></trkpt>
<trkpt lat="54.369692" lon="-3.101904"><ele>278</ele><time>2020-06-12T12:47:07Z</time><name>PT10057</name></trkpt>
<trkpt lat="54.369687" lon="-3.101891"><ele>278</ele><time>2020-06-12T12:47:08Z</time><name>PT10058</name></trkpt>
<trkpt lat="54.369678" lon="-3.101876"><ele>278</ele><time>2020-06-12T12:47:09Z</time><name>PT10059</name></trkpt>
<trkpt lat="54.369669" lon="-3.101867"><ele>278</ele><time>2020-06-12T12:47:10Z</time><name>PT10060</name></trkpt>
<trkpt lat="54.369659" lon="-3.101857"><ele>277</ele><time>2020-06-12T12:47:11Z</time><name>PT10061</name></trkpt>
<trkpt lat="54.369651" lon="-3.101846"><ele>277</ele><time>2020-06-12T12:47:12Z</time><name>PT10062</name></trkpt>
<trkpt lat="54.369642" lon="-3.101829"><ele>277</ele><time>2020-06-12T12:47:13Z</time><name>PT10063</name></trkpt>
<trkpt lat="54.369632" lon="-3.101813"><ele>277</ele><time>2020-06-12T12:47:14Z</time><name>PT10064</name></trkpt>
<trkpt lat="54.369623" lon="-3.101806"><ele>278</ele><time>2020-06-12T12:47:15Z</time><name>PT10065</name></trkpt>
<trkpt lat="54.369612" lon="-3.101796"><ele>278</ele><time>2020-06-12T12:47:16Z</time><name>PT10066</name></trkpt>
<trkpt lat="54.369604" lon="-3.101787"><ele>277</ele><time>2020-06-12T12:47:17Z</time><name>PT10067</name></trkpt>
<trkpt lat="54.369598" lon="-3.101784"><ele>277</ele><time>2020-06-12T12:47:18Z</time><name>PT10068</name></trkpt>
<trkpt lat="54.369589" lon="-3.101767"><ele>276</ele><time>2020-06-12T12:47:19Z</time><name>PT10069</name></trkpt>
<trkpt lat="54.369577" lon="-3.101751"><ele>277</ele><time>2020-06-12T12:47:20Z</time><name>PT10070</name></trkpt>
<trkpt lat="54.369571" lon="-3.101739"><ele>277</ele><time>2020-06-12T12:47:21Z</time><name>PT10071</name></trkpt>
<trkpt lat="54.369563" lon="-3.101725"><ele>277</ele><time>2020-06-12T12:47:22Z</time><name>PT10072</name></trkpt>
<trkpt lat="54.369554" lon="-3.101711"><ele>277</ele><time>2020-06-12T12:47:23Z</time><name>PT10073</name></trkpt>
<trkpt lat="54.369546" lon="-3.101703"><ele>276</ele><time>2020-06-12T12:47:24Z</time><name>PT10074</name></trkpt>
<trkpt lat="54.369535" lon="-3.101694"><ele>276</ele><time>2020-06-12T12:47:25Z</time><name>PT10075</name></trkpt>
<trkpt lat="54.369524" lon="-3.101680"><ele>276</ele><time>2020-06-12T12:47:26Z</time><name>PT10076</name></trkpt>
<trkpt lat="54.369515" lon="-3.101669"><ele>276</ele><time>2020-06-12T12:47:27Z</time><name>PT10077</name></trkpt>
<trkpt lat="54.369505" lon="-3.101657"><ele>276</ele><time>2020-06-12T12:47:28Z</time><name>PT10078</name></trkpt>
<trkpt lat="54.369495" lon="-3.101643"><ele>275</ele><time>2020-06-12T12:47:29Z</time><name>PT10079</name></trkpt>
<trkpt lat="54.369485" lon="-3.101629"><ele>275</ele><time>2020-06-12T12:47:30Z</time><name>PT10080</name></trkpt>
<trkpt lat="54.369476" lon="-3.101620"><ele>275</ele><time>2020-06-12T12:47:31Z</time><name>PT10081</name></trkpt>
<trkpt lat="54.369464" lon="-3.101608"><ele>275</ele><time>2020-06-12T12:47:32Z</time><name>PT10082</name></trkpt>
<trkpt lat="54.369454" lon="-3.101597"><ele>275</ele><time>2020-06-12T12:47:33Z</time><name>PT10083</name></trkpt>
<trkpt lat="54.369447" lon="-3.101590"><ele>274</ele><time>2020-06-12T12:47:34Z</time><name>PT10084</name></trkpt>
<trkpt lat="54.369438" lon="-3.101574"><ele>275</ele><time>2020-06-12T12:47:35Z</time><name>PT10085</name></trkpt>
<trkpt lat="54.369425" lon="-3.101567"><ele>274</ele><time>2020-06-12T12:47:36Z</time><name>PT10086</name></trkpt>
<trkpt lat="54.369412" lon="-3.101556"><ele>275</ele><time>2020-06-12T12:47:37Z</time><name>PT10087</name></trkpt>
<trkpt lat="54.369404" lon="-3.101539"><ele>275</ele><time>2020-06-12T12:47:38Z</time><name>PT10088</name></trkpt>
<trkpt lat="54.369396" lon="-3.101526"><ele>274</ele><time>2020-06-12T12:47:39Z</time><name>PT10089</name></trkpt>
<trkpt lat="54.369388" lon="-3.101508"><ele>274</ele><time>2020-06-12T12:47:40Z</time><name>PT10090</name></trkpt>
<trkpt lat="54.369379" lon="-3.101492"><ele>274</ele><time>2020-06-12T12:47:41Z</time><name>PT10091</name></trkpt>
<trkpt lat="54.369369" lon="-3.101475"><ele>275</ele><time>2020-06-12T12:47:42Z</time><name>PT10092</name></trkpt>
<trkpt lat="54.369361" lon="-3.101457"><ele>275</ele><time>2020-06-12T12:47:43Z</time><name>PT10093</name></trkpt>
<trkpt lat="54.369353" lon="-3.101440"><ele>275</ele><time>2020-06-12T12:47:44Z</time><name>PT10094</name></trkpt>
<trkpt lat="54.369345" lon="-3.101424"><ele>275</ele><time>2020-06-12T12:47:45Z</time><name>PT10095</name></trkpt>
<trkpt lat="54.369339" lon="-3.101408"><ele>276</ele><time>2020-06-12T12:47:46Z</time><name>PT10096</name></trkpt>
<trkpt lat="54.369332" lon="-3.101397"><ele>275</ele><time>2020-06-12T12:47:47Z</time><name>PT10097</name></trkpt>
<trkpt lat="54.369325" lon="-3.101387"><ele>275</ele><time>2020-06-12T12:47:48Z</time><name>PT10098</name></trkpt>
<trkpt lat="54.369320" lon="-3.101378"><ele>275</ele><time>2020-06-12T12:47:49Z</time><name>PT10099</name></trkpt>
<trkpt lat="54.369318" lon="-3.101367"><ele>275</ele><time>2020-06-12T12:47:50Z</time><name>PT10100</name></trkpt>
<trkpt lat="54.369317" lon="-3.101363"><ele>275</ele><time>2020-06-12T12:47:51Z</time><name>PT10101</name></trkpt>
<trkpt lat="54.369317" lon="-3.101364"><ele>275</ele><time>2020-06-12T12:47:52Z</time><name>PT10102</name></trkpt>
<trkpt lat="54.369318" lon="-3.101362"><ele>275</ele><time>2020-06-12T12:47:53Z</time><name>PT10103</name></trkpt>
<trkpt lat="54.369319" lon="-3.101361"><ele>275</ele><time>2020-06-12T12:47:54Z</time><name>PT10104</name></trkpt>
<trkpt lat="54.369313" lon="-3.101355"><ele>275</ele><time>2020-06-12T12:47:59Z</time><name>PT10105</name></trkpt>
<trkpt lat="54.369304" lon="-3.101343"><ele>275</ele><time>2020-06-12T12:48:00Z</time><name>PT10106</name></trkpt>
<trkpt lat="54.369293" lon="-3.101332"><ele>275</ele><time>2020-06-12T12:48:01Z</time><name>PT10107</name></trkpt>
<trkpt lat="54.369285" lon="-3.101314"><ele>274</ele><time>2020-06-12T12:48:02Z</time><name>PT10108</name></trkpt>
<trkpt lat="54.369278" lon="-3.101303"><ele>274</ele><time>2020-06-12T12:48:03Z</time><name>PT10109</name></trkpt>
<trkpt lat="54.369268" lon="-3.101295"><ele>273</ele><time>2020-06-12T12:48:04Z</time><name>PT10110</name></trkpt>
<trkpt lat="54.369260" lon="-3.101290"><ele>273</ele><time>2020-06-12T12:48:05Z</time><name>PT10111</name></trkpt>
<trkpt lat="54.369250" lon="-3.101277"><ele>272</ele><time>2020-06-12T12:48:06Z</time><name>PT10112</name></trkpt>
<trkpt lat="54.369242" lon="-3.101256"><ele>271</ele><time>2020-06-12T12:48:07Z</time><name>PT10113</name></trkpt>
<trkpt lat="54.369229" lon="-3.101242"><ele>270</ele><time>2020-06-12T12:48:08Z</time><name>PT10114</name></trkpt>
<trkpt lat="54.369219" lon="-3.101236"><ele>270</ele><time>2020-06-12T12:48:09Z</time><name>PT10115</name></trkpt>
<trkpt lat="54.369210" lon="-3.101221"><ele>270</ele><time>2020-06-12T12:48:10Z</time><name>PT10116</name></trkpt>
<trkpt lat="54.369206" lon="-3.101213"><ele>269</ele><time>2020-06-12T12:48:11Z</time><name>PT10117</name></trkpt>
<trkpt lat="54.369194" lon="-3.101199"><ele>270</ele><time>2020-06-12T12:48:12Z</time><name>PT10118</name></trkpt>
<trkpt lat="54.369190" lon="-3.101188"><ele>269</ele><time>2020-06-12T12:48:13Z</time><name>PT10119</name></trkpt>
<trkpt lat="54.369183" lon="-3.101182"><ele>269</ele><time>2020-06-12T12:48:14Z</time><name>PT10120</name></trkpt>
<trkpt lat="54.369175" lon="-3.101170"><ele>269</ele><time>2020-06-12T12:48:15Z</time><name>PT10121</name></trkpt>
<trkpt lat="54.369166" lon="-3.101156"><ele>269</ele><time>2020-06-12T12:48:16Z</time><name>PT10122</name></trkpt>
<trkpt lat="54.369154" lon="-3.101143"><ele>270</ele><time>2020-06-12T12:48:17Z</time><name>PT10123</name></trkpt>
<trkpt lat="54.369141" lon="-3.101134"><ele>269</ele><time>2020-06-12T12:48:18Z</time><name>PT10124</name></trkpt>
<trkpt lat="54.369132" lon="-3.101127"><ele>269</ele><time>2020-06-12T12:48:19Z</time><name>PT10125</name></trkpt>
<trkpt lat="54.369123" lon="-3.101121"><ele>269</ele><time>2020-06-12T12:48:20Z</time><name>PT10126</name></trkpt>
<trkpt lat="54.369113" lon="-3.101114"><ele>269</ele><time>2020-06-12T12:48:21Z</time><name>PT10127</name></trkpt>
<trkpt lat="54.369104" lon="-3.101103"><ele>269</ele><time>2020-06-12T12:48:22Z</time><name>PT10128</name></trkpt>
<trkpt lat="54.369094" lon="-3.101090"><ele>269</ele><time>2020-06-12T12:48:23Z</time><name>PT10129</name></trkpt>
<trkpt lat="54.369086" lon="-3.101091"><ele>268</ele><time>2020-06-12T12:48:24Z</time><name>PT10130</name></trkpt>
<trkpt lat="54.369078" lon="-3.101083"><ele>268</ele><time>2020-06-12T12:48:25Z</time><name>PT10131</name></trkpt>
<trkpt lat="54.369068" lon="-3.101075"><ele>268</ele><time>2020-06-12T12:48:26Z</time><name>PT10132</name></trkpt>
<trkpt lat="54.369058" lon="-3.101068"><ele>268</ele><time>2020-06-12T12:48:27Z</time><name>PT10133</name></trkpt>
<trkpt lat="54.369049" lon="-3.101056"><ele>268</ele><time>2020-06-12T12:48:28Z</time><name>PT10134</name></trkpt>
<trkpt lat="54.369039" lon="-3.101043"><ele>267</ele><time>2020-06-12T12:48:29Z</time><name>PT10135</name></trkpt>
<trkpt lat="54.369027" lon="-3.101038"><ele>268</ele><time>2020-06-12T12:48:30Z</time><name>PT10136</name></trkpt>
<trkpt lat="54.369017" lon="-3.101028"><ele>267</ele><time>2020-06-12T12:48:31Z</time><name>PT10137</name></trkpt>
<trkpt lat="54.369005" lon="-3.101017"><ele>267</ele><time>2020-06-12T12:48:32Z</time><name>PT10138</name></trkpt>
<trkpt lat="54.368996" lon="-3.101008"><ele>267</ele><time>2020-06-12T12:48:33Z</time><name>PT10139</name></trkpt>
<trkpt lat="54.368983" lon="-3.100996"><ele>268</ele><time>2020-06-12T12:48:34Z</time><name>PT10140</name></trkpt>
<trkpt lat="54.368972" lon="-3.100990"><ele>268</ele><time>2020-06-12T12:48:35Z</time><name>PT10141</name></trkpt>
<trkpt lat="54.368961" lon="-3.100986"><ele>268</ele><time>2020-06-12T12:48:36Z</time><name>PT10142</name></trkpt>
<trkpt lat="54.368948" lon="-3.100976"><ele>268</ele><time>2020-06-12T12:48:37Z</time><name>PT10143</name></trkpt>
<trkpt lat="54.368938" lon="-3.100968"><ele>267</ele><time>2020-06-12T12:48:38Z</time><name>PT10144</name></trkpt>
<trkpt lat="54.368928" lon="-3.100958"><ele>268</ele><time>2020-06-12T12:48:39Z</time><name>PT10145</name></trkpt>
<trkpt lat="54.368918" lon="-3.100945"><ele>268</ele><time>2020-06-12T12:48:40Z</time><name>PT10146</name></trkpt>
<trkpt lat="54.368909" lon="-3.100930"><ele>268</ele><time>2020-06-12T12:48:41Z</time><name>PT10147</name></trkpt>
<trkpt lat="54.368899" lon="-3.100925"><ele>268</ele><time>2020-06-12T12:48:42Z</time><name>PT10148</name></trkpt>
<trkpt lat="54.368885" lon="-3.100913"><ele>268</ele><time>2020-06-12T12:48:43Z</time><name>PT10149</name></trkpt>
<trkpt lat="54.368873" lon="-3.100904"><ele>269</ele><time>2020-06-12T12:48:44Z</time><name>PT10150</name></trkpt>
<trkpt lat="54.368860" lon="-3.100891"><ele>269</ele><time>2020-06-12T12:48:45Z</time><name>PT10151</name></trkpt>
<trkpt lat="54.368847" lon="-3.100878"><ele>268</ele><time>2020-06-12T12:48:46Z</time><name>PT10152</name></trkpt>
<trkpt lat="54.368838" lon="-3.100876"><ele>269</ele><time>2020-06-12T12:48:47Z</time><name>PT10153</name></trkpt>
<trkpt lat="54.368826" lon="-3.100870"><ele>269</ele><time>2020-06-12T12:48:48Z</time><name>PT10154</name></trkpt>
<trkpt lat="54.368814" lon="-3.100866"><ele>269</ele><time>2020-06-12T12:48:49Z</time><name>PT10155</name></trkpt>
<trkpt lat="54.368803" lon="-3.100862"><ele>269</ele><time>2020-06-12T12:48:50Z</time><name>PT10156</name></trkpt>
<trkpt lat="54.368791" lon="-3.100852"><ele>270</ele><time>2020-06-12T12:48:51Z</time><name>PT10157</name></trkpt>
<trkpt lat="54.368781" lon="-3.100843"><ele>270</ele><time>2020-06-12T12:48:52Z</time><name>PT10158</name></trkpt>
<trkpt lat="54.368772" lon="-3.100835"><ele>270</ele><time>2020-06-12T12:48:53Z</time><name>PT10159</name></trkpt>
<trkpt lat="54.368763" lon="-3.100830"><ele>269</ele><time>2020-06-12T12:48:54Z</time><name>PT10160</name></trkpt>
<trkpt lat="54.368750" lon="-3.100824"><ele>269</ele><time>2020-06-12T12:48:55Z</time><name>PT10161</name></trkpt>
<trkpt lat="54.368746" lon="-3.100818"><ele>268</ele><time>2020-06-12T12:48:56Z</time><name>PT10162</name></trkpt>
<trkpt lat="54.368735" lon="-3.100809"><ele>268</ele><time>2020-06-12T12:48:57Z</time><name>PT10163</name></trkpt>
<trkpt lat="54.368723" lon="-3.100804"><ele>268</ele><time>2020-06-12T12:48:58Z</time><name>PT10164</name></trkpt>
<trkpt lat="54.368707" lon="-3.100799"><ele>269</ele><time>2020-06-12T12:48:59Z</time><name>PT10165</name></trkpt>
<trkpt lat="54.368696" lon="-3.100792"><ele>270</ele><time>2020-06-12T12:49:00Z</time><name>PT10166</name></trkpt>
<trkpt lat="54.368686" lon="-3.100785"><ele>269</ele><time>2020-06-12T12:49:01Z</time><name>PT10167</name></trkpt>
<trkpt lat="54.368677" lon="-3.100778"><ele>269</ele><time>2020-06-12T12:49:02Z</time><name>PT10168</name></trkpt>
<trkpt lat="54.368663" lon="-3.100776"><ele>269</ele><time>2020-06-12T12:49:03Z</time><name>PT10169</name></trkpt>
<trkpt lat="54.368652" lon="-3.100775"><ele>270</ele><time>2020-06-12T12:49:04Z</time><name>PT10170</name></trkpt>
<trkpt lat="54.368645" lon="-3.100771"><ele>270</ele><time>2020-06-12T12:49:05Z</time><name>PT10171</name></trkpt>
<trkpt lat="54.368633" lon="-3.100770"><ele>270</ele><time>2020-06-12T12:49:06Z</time><name>PT10172</name></trkpt>
<trkpt lat="54.368624" lon="-3.100762"><ele>269</ele><time>2020-06-12T12:49:07Z</time><name>PT10173</name></trkpt>
<trkpt lat="54.368614" lon="-3.100753"><ele>269</ele><time>2020-06-12T12:49:08Z</time><name>PT10174</name></trkpt>
<trkpt lat="54.368602" lon="-3.100745"><ele>269</ele><time>2020-06-12T12:49:09Z</time><name>PT10175</name></trkpt>
<trkpt lat="54.368592" lon="-3.100737"><ele>269</ele><time>2020-06-12T12:49:10Z</time><name>PT10176</name></trkpt>
<trkpt lat="54.368586" lon="-3.100734"><ele>269</ele><time>2020-06-12T12:49:11Z</time><name>PT10177</name></trkpt>
<trkpt lat="54.368575" lon="-3.100730"><ele>269</ele><time>2020-06-12T12:49:12Z</time><name>PT10178</name></trkpt>
<trkpt lat="54.368564" lon="-3.100724"><ele>268</ele><time>2020-06-12T12:49:13Z</time><name>PT10179</name></trkpt>
<trkpt lat="54.368554" lon="-3.100721"><ele>268</ele><time>2020-06-12T12:49:14Z</time><name>PT10180</name></trkpt>
<trkpt lat="54.368545" lon="-3.100715"><ele>267</ele><time>2020-06-12T12:49:15Z</time><name>PT10181</name></trkpt>
<trkpt lat="54.368536" lon="-3.100705"><ele>266</ele><time>2020-06-12T12:49:16Z</time><name>PT10182</name></trkpt>
<trkpt lat="54.368526" lon="-3.100699"><ele>266</ele><time>2020-06-12T12:49:17Z</time><name>PT10183</name></trkpt>
<trkpt lat="54.368516" lon="-3.100696"><ele>266</ele><time>2020-06-12T12:49:18Z</time><name>PT10184</name></trkpt>
<trkpt lat="54.368503" lon="-3.100694"><ele>267</ele><time>2020-06-12T12:49:19Z</time><name>PT10185</name></trkpt>
<trkpt lat="54.368489" lon="-3.100687"><ele>266</ele><time>2020-06-12T12:49:20Z</time><name>PT10186</name></trkpt>
<trkpt lat="54.368477" lon="-3.100681"><ele>266</ele><time>2020-06-12T12:49:21Z</time><name>PT10187</name></trkpt>
<trkpt lat="54.368468" lon="-3.100673"><ele>266</ele><time>2020-06-12T12:49:22Z</time><name>PT10188</name></trkpt>
<trkpt lat="54.368455" lon="-3.100658"><ele>266</ele><time>2020-06-12T12:49:23Z</time><name>PT10189</name></trkpt>
<trkpt lat="54.368445" lon="-3.100651"><ele>267</ele><time>2020-06-12T12:49:24Z</time><name>PT10190</name></trkpt>
<trkpt lat="54.368433" lon="-3.100644"><ele>266</ele><time>2020-06-12T12:49:25Z</time><name>PT10191</name></trkpt>
<trkpt lat="54.368418" lon="-3.100631"><ele>266</ele><time>2020-06-12T12:49:26Z</time><name>PT10192</name></trkpt>
<trkpt lat="54.368409" lon="-3.100623"><ele>266</ele><time>2020-06-12T12:49:27Z</time><name>PT10193</name></trkpt>
<trkpt lat="54.368395" lon="-3.100607"><ele>267</ele><time>2020-06-12T12:49:28Z</time><name>PT10194</name></trkpt>
<trkpt lat="54.368378" lon="-3.100606"><ele>267</ele><time>2020-06-12T12:49:29Z</time><name>PT10195</name></trkpt>
<trkpt lat="54.368364" lon="-3.100594"><ele>267</ele><time>2020-06-12T12:49:30Z</time><name>PT10196</name></trkpt>
<trkpt lat="54.368354" lon="-3.100595"><ele>268</ele><time>2020-06-12T12:49:31Z</time><name>PT10197</name></trkpt>
<trkpt lat="54.368344" lon="-3.100586"><ele>268</ele><time>2020-06-12T12:49:32Z</time><name>PT10198</name></trkpt>
<trkpt lat="54.368332" lon="-3.100578"><ele>268</ele><time>2020-06-12T12:49:33Z</time><name>PT10199</name></trkpt>
<trkpt lat="54.368322" lon="-3.100570"><ele>268</ele><time>2020-06-12T12:49:34Z</time><name>PT10200</name></trkpt>
<trkpt lat="54.368308" lon="-3.100555"><ele>268</ele><time>2020-06-12T12:49:35Z</time><name>PT10201</name></trkpt>
<trkpt lat="54.368296" lon="-3.100544"><ele>268</ele><time>2020-06-12T12:49:36Z</time><name>PT10202</name></trkpt>
<trkpt lat="54.368284" lon="-3.100533"><ele>268</ele><time>2020-06-12T12:49:37Z</time><name>PT10203</name></trkpt>
<trkpt lat="54.368269" lon="-3.100525"><ele>268</ele><time>2020-06-12T12:49:38Z</time><name>PT10204</name></trkpt>
<trkpt lat="54.368253" lon="-3.100519"><ele>269</ele><time>2020-06-12T12:49:39Z</time><name>PT10205</name></trkpt>
<trkpt lat="54.368244" lon="-3.100520"><ele>269</ele><time>2020-06-12T12:49:40Z</time><name>PT10206</name></trkpt>
<trkpt lat="54.368241" lon="-3.100518"><ele>269</ele><time>2020-06-12T12:49:41Z</time><name>PT10207</name></trkpt>
<trkpt lat="54.368236" lon="-3.100518"><ele>268</ele><time>2020-06-12T12:49:42Z</time><name>PT10208</name></trkpt>
<trkpt lat="54.368230" lon="-3.100516"><ele>267</ele><time>2020-06-12T12:49:43Z</time><name>PT10209</name></trkpt>
<trkpt lat="54.368220" lon="-3.100513"><ele>267</ele><time>2020-06-12T12:49:44Z</time><name>PT10210</name></trkpt>
<trkpt lat="54.368211" lon="-3.100509"><ele>267</ele><time>2020-06-12T12:49:45Z</time><name>PT10211</name></trkpt>
<trkpt lat="54.368202" lon="-3.100503"><ele>267</ele><time>2020-06-12T12:49:46Z</time><name>PT10212</name></trkpt>
<trkpt lat="54.368188" lon="-3.100492"><ele>267</ele><time>2020-06-12T12:49:47Z</time><name>PT10213</name></trkpt>
<trkpt lat="54.368177" lon="-3.100484"><ele>266</ele><time>2020-06-12T12:49:48Z</time><name>PT10214</name></trkpt>
<trkpt lat="54.368167" lon="-3.100481"><ele>267</ele><time>2020-06-12T12:49:49Z</time><name>PT10215</name></trkpt>
<trkpt lat="54.368154" lon="-3.100472"><ele>267</ele><time>2020-06-12T12:49:50Z</time><name>PT10216</name></trkpt>
<trkpt lat="54.368146" lon="-3.100465"><ele>266</ele><time>2020-06-12T12:49:51Z</time><name>PT10217</name></trkpt>
<trkpt lat="54.368136" lon="-3.100456"><ele>266</ele><time>2020-06-12T12:49:52Z</time><name>PT10218</name></trkpt>
<trkpt lat="54.368125" lon="-3.100451"><ele>266</ele><time>2020-06-12T12:49:53Z</time><name>PT10219</name></trkpt>
<trkpt lat="54.368117" lon="-3.100448"><ele>266</ele><time>2020-06-12T12:49:54Z</time><name>PT10220</name></trkpt>
<trkpt lat="54.368110" lon="-3.100443"><ele>266</ele><time>2020-06-12T12:49:55Z</time><name>PT10221</name></trkpt>
<trkpt lat="54.368096" lon="-3.100440"><ele>266</ele><time>2020-06-12T12:49:56Z</time><name>PT10222</name></trkpt>
<trkpt lat="54.368085" lon="-3.100434"><ele>266</ele><time>2020-06-12T12:49:57Z</time><name>PT10223</name></trkpt>
<trkpt lat="54.368077" lon="-3.100429"><ele>266</ele><time>2020-06-12T12:49:58Z</time><name>PT10224</name></trkpt>
<trkpt lat="54.368067" lon="-3.100420"><ele>265</ele><time>2020-06-12T12:49:59Z</time><name>PT10225</name></trkpt>
<trkpt lat="54.368052" lon="-3.100413"><ele>266</ele><time>2020-06-12T12:50:00Z</time><name>PT10226</name></trkpt>
<trkpt lat="54.368042" lon="-3.100411"><ele>266</ele><time>2020-06-12T12:50:01Z</time><name>PT10227</name></trkpt>
<trkpt lat="54.368029" lon="-3.100406"><ele>266</ele><time>2020-06-12T12:50:02Z</time><name>PT10228</name></trkpt>
<trkpt lat="54.368015" lon="-3.100399"><ele>266</ele><time>2020-06-12T12:50:03Z</time><name>PT10229</name></trkpt>
<trkpt lat="54.368003" lon="-3.100391"><ele>266</ele><time>2020-06-12T12:50:04Z</time><name>PT10230</name></trkpt>
<trkpt lat="54.367993" lon="-3.100382"><ele>266</ele><time>2020-06-12T12:50:05Z</time><name>PT10231</name></trkpt>
<trkpt lat="54.367982" lon="-3.100387"><ele>266</ele><time>2020-06-12T12:50:07Z</time><name>PT10232</name></trkpt>
<trkpt lat="54.367971" lon="-3.100384"><ele>266</ele><time>2020-06-12T12:50:07Z</time><name>PT10233</name></trkpt>
<trkpt lat="54.367962" lon="-3.100378"><ele>266</ele><time>2020-06-12T12:50:08Z</time><name>PT10234</name></trkpt>
<trkpt lat="54.367950" lon="-3.100371"><ele>266</ele><time>2020-06-12T12:50:09Z</time><name>PT10235</name></trkpt>
<trkpt lat="54.367939" lon="-3.100366"><ele>266</ele><time>2020-06-12T12:50:10Z</time><name>PT10236</name></trkpt>
<trkpt lat="54.367931" lon="-3.100355"><ele>266</ele><time>2020-06-12T12:50:11Z</time><name>PT10237</name></trkpt>
<trkpt lat="54.367920" lon="-3.100346"><ele>266</ele><time>2020-06-12T12:50:12Z</time><name>PT10238</name></trkpt>
<trkpt lat="54.367912" lon="-3.100344"><ele>266</ele><time>2020-06-12T12:50:13Z</time><name>PT10239</name></trkpt>
<trkpt lat="54.367897" lon="-3.100336"><ele>266</ele><time>2020-06-12T12:50:14Z</time><name>PT10240</name></trkpt>
<trkpt lat="54.367886" lon="-3.100332"><ele>266</ele><time>2020-06-12T12:50:15Z</time><name>PT10241</name></trkpt>
<trkpt lat="54.367874" lon="-3.100327"><ele>266</ele><time>2020-06-12T12:50:16Z</time><name>PT10242</name></trkpt>
<trkpt lat="54.367863" lon="-3.100320"><ele>266</ele><time>2020-06-12T12:50:17Z</time><name>PT10243</name></trkpt>
<trkpt lat="54.367853" lon="-3.100312"><ele>266</ele><time>2020-06-12T12:50:18Z</time><name>PT10244</name></trkpt>
<trkpt lat="54.367845" lon="-3.100306"><ele>265</ele><time>2020-06-12T12:50:19Z</time><name>PT10245</name></trkpt>
<trkpt lat="54.367835" lon="-3.100301"><ele>265</ele><time>2020-06-12T12:50:20Z</time><name>PT10246</name></trkpt>
<trkpt lat="54.367822" lon="-3.100295"><ele>265</ele><time>2020-06-12T12:50:21Z</time><name>PT10247</name></trkpt>
<trkpt lat="54.367808" lon="-3.100290"><ele>265</ele><time>2020-06-12T12:50:22Z</time><name>PT10248</name></trkpt>
<trkpt lat="54.367801" lon="-3.100278"><ele>265</ele><time>2020-06-12T12:50:23Z</time><name>PT10249</name></trkpt>
<trkpt lat="54.367792" lon="-3.100275"><ele>264</ele><time>2020-06-12T12:50:24Z</time><name>PT10250</name></trkpt>
<trkpt lat="54.367780" lon="-3.100272"><ele>264</ele><time>2020-06-12T12:50:25Z</time><name>PT10251</name></trkpt>
<trkpt lat="54.367764" lon="-3.100275"><ele>264</ele><time>2020-06-12T12:50:26Z</time><name>PT10252</name></trkpt>
<trkpt lat="54.367756" lon="-3.100276"><ele>264</ele><time>2020-06-12T12:50:27Z</time><name>PT10253</name></trkpt>
<trkpt lat="54.367734" lon="-3.100275"><ele>266</ele><time>2020-06-12T12:50:28Z</time><name>PT10254</name></trkpt>
<trkpt lat="54.367727" lon="-3.100270"><ele>266</ele><time>2020-06-12T12:50:29Z</time><name>PT10255</name></trkpt>
<trkpt lat="54.367720" lon="-3.100267"><ele>266</ele><time>2020-06-12T12:50:30Z</time><name>PT10256</name></trkpt>
<trkpt lat="54.367712" lon="-3.100268"><ele>265</ele><time>2020-06-12T12:50:31Z</time><name>PT10257</name></trkpt>
<trkpt lat="54.367701" lon="-3.100264"><ele>265</ele><time>2020-06-12T12:50:32Z</time><name>PT10258</name></trkpt>
<trkpt lat="54.367689" lon="-3.100256"><ele>265</ele><time>2020-06-12T12:50:33Z</time><name>PT10259</name></trkpt>
<trkpt lat="54.367676" lon="-3.100247"><ele>265</ele><time>2020-06-12T12:50:34Z</time><name>PT10260</name></trkpt>
<trkpt lat="54.367665" lon="-3.100237"><ele>265</ele><time>2020-06-12T12:50:35Z</time><name>PT10261</name></trkpt>
<trkpt lat="54.367655" lon="-3.100225"><ele>265</ele><time>2020-06-12T12:50:36Z</time><name>PT10262</name></trkpt>
<trkpt lat="54.367647" lon="-3.100216"><ele>264</ele><time>2020-06-12T12:50:37Z</time><name>PT10263</name></trkpt>
<trkpt lat="54.367636" lon="-3.100205"><ele>265</ele><time>2020-06-12T12:50:38Z</time><name>PT10264</name></trkpt>
<trkpt lat="54.367625" lon="-3.100194"><ele>264</ele><time>2020-06-12T12:50:39Z</time><name>PT10265</name></trkpt>
<trkpt lat="54.367613" lon="-3.100181"><ele>264</ele><time>2020-06-12T12:50:40Z</time><name>PT10266</name></trkpt>
<trkpt lat="54.367602" lon="-3.100171"><ele>264</ele><time>2020-06-12T12:50:41Z</time><name>PT10267</name></trkpt>
<trkpt lat="54.367590" lon="-3.100160"><ele>264</ele><time>2020-06-12T12:50:42Z</time><name>PT10268</name></trkpt>
<trkpt lat="54.367580" lon="-3.100145"><ele>264</ele><time>2020-06-12T12:50:43Z</time><name>PT10269</name></trkpt>
<trkpt lat="54.367573" lon="-3.100129"><ele>264</ele><time>2020-06-12T12:50:44Z</time><name>PT10270</name></trkpt>
<trkpt lat="54.367559" lon="-3.100112"><ele>264</ele><time>2020-06-12T12:50:45Z</time><name>PT10271</name></trkpt>
<trkpt lat="54.367548" lon="-3.100096"><ele>264</ele><time>2020-06-12T12:50:46Z</time><name>PT10272</name></trkpt>
<trkpt lat="54.367535" lon="-3.100083"><ele>264</ele><time>2020-06-12T12:50:47Z</time><name>PT10273</name></trkpt>
<trkpt lat="54.367525" lon="-3.100070"><ele>264</ele><time>2020-06-12T12:50:48Z</time><name>PT10274</name></trkpt>
<trkpt lat="54.367518" lon="-3.100055"><ele>265</ele><time>2020-06-12T12:50:49Z</time><name>PT10275</name></trkpt>
<trkpt lat="54.367509" lon="-3.100038"><ele>264</ele><time>2020-06-12T12:50:50Z</time><name>PT10276</name></trkpt>
<trkpt lat="54.367500" lon="-3.100020"><ele>264</ele><time>2020-06-12T12:50:51Z</time><name>PT10277</name></trkpt>
<trkpt lat="54.367492" lon="-3.100010"><ele>264</ele><time>2020-06-12T12:50:52Z</time><name>PT10278</name></trkpt>
<trkpt lat="54.367482" lon="-3.099998"><ele>264</ele><time>2020-06-12T12:50:53Z</time><name>PT10279</name></trkpt>
<trkpt lat="54.367472" lon="-3.099987"><ele>264</ele><time>2020-06-12T12:50:54Z</time><name>PT10280</name></trkpt>
<trkpt lat="54.367464" lon="-3.099984"><ele>263</ele><time>2020-06-12T12:50:55Z</time><name>PT10281</name></trkpt>
<trkpt lat="54.367455" lon="-3.099973"><ele>263</ele><time>2020-06-12T12:50:56Z</time><name>PT10282</name></trkpt>
<trkpt lat="54.367443" lon="-3.099961"><ele>262</ele><time>2020-06-12T12:50:57Z</time><name>PT10283</name></trkpt>
<trkpt lat="54.367436" lon="-3.099956"><ele>262</ele><time>2020-06-12T12:50:58Z</time><name>PT10284</name></trkpt>
<trkpt lat="54.367424" lon="-3.099949"><ele>262</ele><time>2020-06-12T12:50:59Z</time><name>PT10285</name></trkpt>
<trkpt lat="54.367412" lon="-3.099941"><ele>262</ele><time>2020-06-12T12:51:00Z</time><name>PT10286</name></trkpt>
<trkpt lat="54.367401" lon="-3.099931"><ele>262</ele><time>2020-06-12T12:51:01Z</time><name>PT10287</name></trkpt>
<trkpt lat="54.367391" lon="-3.099917"><ele>262</ele><time>2020-06-12T12:51:02Z</time><name>PT10288</name></trkpt>
<trkpt lat="54.367383" lon="-3.099901"><ele>262</ele><time>2020-06-12T12:51:03Z</time><name>PT10289</name></trkpt>
<trkpt lat="54.367375" lon="-3.099891"><ele>260</ele><time>2020-06-12T12:51:04Z</time><name>PT10290</name></trkpt>
<trkpt lat="54.367364" lon="-3.099886"><ele>260</ele><time>2020-06-12T12:51:05Z</time><name>PT10291</name></trkpt>
<trkpt lat="54.367356" lon="-3.099875"><ele>259</ele><time>2020-06-12T12:51:06Z</time><name>PT10292</name></trkpt>
<trkpt lat="54.367348" lon="-3.099873"><ele>258</ele><time>2020-06-12T12:51:07Z</time><name>PT10293</name></trkpt>
<trkpt lat="54.367340" lon="-3.099863"><ele>258</ele><time>2020-06-12T12:51:08Z</time><name>PT10294</name></trkpt>
<trkpt lat="54.367332" lon="-3.099853"><ele>258</ele><time>2020-06-12T12:51:09Z</time><name>PT10295</name></trkpt>
<trkpt lat="54.367323" lon="-3.099835"><ele>258</ele><time>2020-06-12T12:51:10Z</time><name>PT10296</name></trkpt>
<trkpt lat="54.367317" lon="-3.099824"><ele>258</ele><time>2020-06-12T12:51:11Z</time><name>PT10297</name></trkpt>
<trkpt lat="54.367312" lon="-3.099813"><ele>257</ele><time>2020-06-12T12:51:12Z</time><name>PT10298</name></trkpt>
<trkpt lat="54.367301" lon="-3.099799"><ele>257</ele><time>2020-06-12T12:51:13Z</time><name>PT10299</name></trkpt>
<trkpt lat="54.367292" lon="-3.099791"><ele>257</ele><time>2020-06-12T12:51:14Z</time><name>PT10300</name></trkpt>
<trkpt lat="54.367283" lon="-3.099781"><ele>256</ele><time>2020-06-12T12:51:15Z</time><name>PT10301</name></trkpt>
<trkpt lat="54.367276" lon="-3.099770"><ele>256</ele><time>2020-06-12T12:51:16Z</time><name>PT10302</name></trkpt>
<trkpt lat="54.367268" lon="-3.099759"><ele>256</ele><time>2020-06-12T12:51:17Z</time><name>PT10303</name></trkpt>
<trkpt lat="54.367260" lon="-3.099746"><ele>256</ele><time>2020-06-12T12:51:18Z</time><name>PT10304</name></trkpt>
<trkpt lat="54.367252" lon="-3.099733"><ele>256</ele><time>2020-06-12T12:51:19Z</time><name>PT10305</name></trkpt>
<trkpt lat="54.367242" lon="-3.099722"><ele>256</ele><time>2020-06-12T12:51:20Z</time><name>PT10306</name></trkpt>
<trkpt lat="54.367230" lon="-3.099708"><ele>257</ele><time>2020-06-12T12:51:21Z</time><name>PT10307</name></trkpt>
<trkpt lat="54.367221" lon="-3.099695"><ele>257</ele><time>2020-06-12T12:51:22Z</time><name>PT10308</name></trkpt>
<trkpt lat="54.367214" lon="-3.099686"><ele>256</ele><time>2020-06-12T12:51:23Z</time><name>PT10309</name></trkpt>
<trkpt lat="54.367206" lon="-3.099677"><ele>256</ele><time>2020-06-12T12:51:24Z</time><name>PT10310</name></trkpt>
<trkpt lat="54.367200" lon="-3.099666"><ele>256</ele><time>2020-06-12T12:51:25Z</time><name>PT10311</name></trkpt>
<trkpt lat="54.367194" lon="-3.099651"><ele>255</ele><time>2020-06-12T12:51:26Z</time><name>PT10312</name></trkpt>
<trkpt lat="54.367185" lon="-3.099637"><ele>255</ele><time>2020-06-12T12:51:27Z</time><name>PT10313</name></trkpt>
<trkpt lat="54.367177" lon="-3.099623"><ele>255</ele><time>2020-06-12T12:51:28Z</time><name>PT10314</name></trkpt>
<trkpt lat="54.367169" lon="-3.099610"><ele>255</ele><time>2020-06-12T12:51:29Z</time><name>PT10315</name></trkpt>
<trkpt lat="54.367161" lon="-3.099596"><ele>255</ele><time>2020-06-12T12:51:30Z</time><name>PT10316</name></trkpt>
<trkpt lat="54.367155" lon="-3.099586"><ele>254</ele><time>2020-06-12T12:51:31Z</time><name>PT10317</name></trkpt>
<trkpt lat="54.367146" lon="-3.099574"><ele>254</ele><time>2020-06-12T12:51:32Z</time><name>PT10318</name></trkpt>
<trkpt lat="54.367136" lon="-3.099558"><ele>254</ele><time>2020-06-12T12:51:33Z</time><name>PT10319</name></trkpt>
<trkpt lat="54.367128" lon="-3.099547"><ele>254</ele><time>2020-06-12T12:51:34Z</time><name>PT10320</name></trkpt>
<trkpt lat="54.367118" lon="-3.099540"><ele>254</ele><time>2020-06-12T12:51:35Z</time><name>PT10321</name></trkpt>
<trkpt lat="54.367110" lon="-3.099532"><ele>253</ele><time>2020-06-12T12:51:36Z</time><name>PT10322</name></trkpt>
<trkpt lat="54.367097" lon="-3.099519"><ele>253</ele><time>2020-06-12T12:51:37Z</time><name>PT10323</name></trkpt>
<trkpt lat="54.367090" lon="-3.099510"><ele>254</ele><time>2020-06-12T12:51:38Z</time><name>PT10324</name></trkpt>
<trkpt lat="54.367078" lon="-3.099501"><ele>254</ele><time>2020-06-12T12:51:39Z</time><name>PT10325</name></trkpt>
<trkpt lat="54.367069" lon="-3.099487"><ele>254</ele><time>2020-06-12T12:51:40Z</time><name>PT10326</name></trkpt>
<trkpt lat="54.367057" lon="-3.099481"><ele>254</ele><time>2020-06-12T12:51:41Z</time><name>PT10327</name></trkpt>
<trkpt lat="54.367045" lon="-3.099477"><ele>254</ele><time>2020-06-12T12:51:42Z</time><name>PT10328</name></trkpt>
<trkpt lat="54.367035" lon="-3.099468"><ele>255</ele><time>2020-06-12T12:51:43Z</time><name>PT10329</name></trkpt>
<trkpt lat="54.367022" lon="-3.099462"><ele>255</ele><time>2020-06-12T12:51:44Z</time><name>PT10330</name></trkpt>
<trkpt lat="54.367012" lon="-3.099455"><ele>254</ele><time>2020-06-12T12:51:45Z</time><name>PT10331</name></trkpt>
<trkpt lat="54.367002" lon="-3.099448"><ele>254</ele><time>2020-06-12T12:51:46Z</time><name>PT10332</name></trkpt>
<trkpt lat="54.366989" lon="-3.099437"><ele>254</ele><time>2020-06-12T12:51:47Z</time><name>PT10333</name></trkpt>
<trkpt lat="54.366986" lon="-3.099440"><ele>253</ele><time>2020-06-12T12:51:48Z</time><name>PT10334</name></trkpt>
<trkpt lat="54.366974" lon="-3.099440"><ele>253</ele><time>2020-06-12T12:51:49Z</time><name>PT10335</name></trkpt>
<trkpt lat="54.366959" lon="-3.099435"><ele>253</ele><time>2020-06-12T12:51:50Z</time><name>PT10336</name></trkpt>
<trkpt lat="54.366947" lon="-3.099425"><ele>252</ele><time>2020-06-12T12:51:51Z</time><name>PT10337</name></trkpt>
<trkpt lat="54.366935" lon="-3.099418"><ele>252</ele><time>2020-06-12T12:51:52Z</time><name>PT10338</name></trkpt>
<trkpt lat="54.366924" lon="-3.099411"><ele>251</ele><time>2020-06-12T12:51:53Z</time><name>PT10339</name></trkpt>
<trkpt lat="54.366912" lon="-3.099401"><ele>251</ele><time>2020-06-12T12:51:54Z</time><name>PT10340</name></trkpt>
<trkpt lat="54.366902" lon="-3.099395"><ele>251</ele><time>2020-06-12T12:51:55Z</time><name>PT10341</name></trkpt>
<trkpt lat="54.366889" lon="-3.099389"><ele>251</ele><time>2020-06-12T12:51:56Z</time><name>PT10342</name></trkpt>
<trkpt lat="54.366876" lon="-3.099382"><ele>250</ele><time>2020-06-12T12:51:57Z</time><name>PT10343</name></trkpt>
<trkpt lat="54.366867" lon="-3.099370"><ele>251</ele><time>2020-06-12T12:51:58Z</time><name>PT10344</name></trkpt>
<trkpt lat="54.366860" lon="-3.099360"><ele>250</ele><time>2020-06-12T12:51:59Z</time><name>PT10345</name></trkpt>
<trkpt lat="54.366851" lon="-3.099349"><ele>250</ele><time>2020-06-12T12:52:00Z</time><name>PT10346</name></trkpt>
<trkpt lat="54.366842" lon="-3.099342"><ele>250</ele><time>2020-06-12T12:52:01Z</time><name>PT10347</name></trkpt>
<trkpt lat="54.366831" lon="-3.099340"><ele>250</ele><time>2020-06-12T12:52:02Z</time><name>PT10348</name></trkpt>
<trkpt lat="54.366820" lon="-3.099335"><ele>250</ele><time>2020-06-12T12:52:03Z</time><name>PT10349</name></trkpt>
<trkpt lat="54.366808" lon="-3.099328"><ele>250</ele><time>2020-06-12T12:52:04Z</time><name>PT10350</name></trkpt>
<trkpt lat="54.366799" lon="-3.099319"><ele>250</ele><time>2020-06-12T12:52:05Z</time><name>PT10351</name></trkpt>
<trkpt lat="54.366786" lon="-3.099305"><ele>250</ele><time>2020-06-12T12:52:06Z</time><name>PT10352</name></trkpt>
<trkpt lat="54.366773" lon="-3.099300"><ele>249</ele><time>2020-06-12T12:52:07Z</time><name>PT10353</name></trkpt>
<trkpt lat="54.366760" lon="-3.099289"><ele>250</ele><time>2020-06-12T12:52:08Z</time><name>PT10354</name></trkpt>
<trkpt lat="54.366747" lon="-3.099281"><ele>250</ele><time>2020-06-12T12:52:09Z</time><name>PT10355</name></trkpt>
<trkpt lat="54.366735" lon="-3.099275"><ele>250</ele><time>2020-06-12T12:52:10Z</time><name>PT10356</name></trkpt>
<trkpt lat="54.366722" lon="-3.099257"><ele>250</ele><time>2020-06-12T12:52:11Z</time><name>PT10357</name></trkpt>
<trkpt lat="54.366711" lon="-3.099248"><ele>249</ele><time>2020-06-12T12:52:12Z</time><name>PT10358</name></trkpt>
<trkpt lat="54.366698" lon="-3.099230"><ele>250</ele><time>2020-06-12T12:52:13Z</time><name>PT10359</name></trkpt>
<trkpt lat="54.366687" lon="-3.099220"><ele>249</ele><time>2020-06-12T12:52:14Z</time><name>PT10360</name></trkpt>
<trkpt lat="54.366675" lon="-3.099205"><ele>249</ele><time>2020-06-12T12:52:15Z</time><name>PT10361</name></trkpt>
<trkpt lat="54.366664" lon="-3.099196"><ele>249</ele><time>2020-06-12T12:52:16Z</time><name>PT10362</name></trkpt>
<trkpt lat="54.366651" lon="-3.099189"><ele>248</ele><time>2020-06-12T12:52:17Z</time><name>PT10363</name></trkpt>
<trkpt lat="54.366638" lon="-3.099175"><ele>248</ele><time>2020-06-12T12:52:18Z</time><name>PT10364</name></trkpt>
<trkpt lat="54.366629" lon="-3.099165"><ele>248</ele><time>2020-06-12T12:52:19Z</time><name>PT10365</name></trkpt>
<trkpt lat="54.366617" lon="-3.099153"><ele>248</ele><time>2020-06-12T12:52:20Z</time><name>PT10366</name></trkpt>
<trkpt lat="54.366603" lon="-3.099134"><ele>248</ele><time>2020-06-12T12:52:21Z</time><name>PT10367</name></trkpt>
<trkpt lat="54.366591" lon="-3.099124"><ele>247</ele><time>2020-06-12T12:52:22Z</time><name>PT10368</name></trkpt>
<trkpt lat="54.366580" lon="-3.099115"><ele>247</ele><time>2020-06-12T12:52:23Z</time><name>PT10369</name></trkpt>
<trkpt lat="54.366567" lon="-3.099105"><ele>247</ele><time>2020-06-12T12:52:24Z</time><name>PT10370</name></trkpt>
<trkpt lat="54.366556" lon="-3.099096"><ele>246</ele><time>2020-06-12T12:52:25Z</time><name>PT10371</name></trkpt>
<trkpt lat="54.366545" lon="-3.099088"><ele>246</ele><time>2020-06-12T12:52:26Z</time><name>PT10372</name></trkpt>
<trkpt lat="54.366533" lon="-3.099075"><ele>248</ele><time>2020-06-12T12:52:27Z</time><name>PT10373</name></trkpt>
<trkpt lat="54.366519" lon="-3.099066"><ele>248</ele><time>2020-06-12T12:52:28Z</time><name>PT10374</name></trkpt>
<trkpt lat="54.366506" lon="-3.099054"><ele>249</ele><time>2020-06-12T12:52:29Z</time><name>PT10375</name></trkpt>
<trkpt lat="54.366495" lon="-3.099045"><ele>250</ele><time>2020-06-12T12:52:30Z</time><name>PT10376</name></trkpt>
<trkpt lat="54.366483" lon="-3.099035"><ele>249</ele><time>2020-06-12T12:52:31Z</time><name>PT10377</name></trkpt>
<trkpt lat="54.366471" lon="-3.099027"><ele>249</ele><time>2020-06-12T12:52:32Z</time><name>PT10378</name></trkpt>
<trkpt lat="54.366461" lon="-3.099021"><ele>249</ele><time>2020-06-12T12:52:33Z</time><name>PT10379</name></trkpt>
<trkpt lat="54.366452" lon="-3.099015"><ele>248</ele><time>2020-06-12T12:52:34Z</time><name>PT10380</name></trkpt>
<trkpt lat="54.366443" lon="-3.099009"><ele>248</ele><time>2020-06-12T12:52:35Z</time><name>PT10381</name></trkpt>
<trkpt lat="54.366432" lon="-3.099004"><ele>248</ele><time>2020-06-12T12:52:36Z</time><name>PT10382</name></trkpt>
<trkpt lat="54.366420" lon="-3.098992"><ele>248</ele><time>2020-06-12T12:52:37Z</time><name>PT10383</name></trkpt>
<trkpt lat="54.366408" lon="-3.098979"><ele>248</ele><time>2020-06-12T12:52:38Z</time><name>PT10384</name></trkpt>
<trkpt lat="54.366400" lon="-3.098968"><ele>247</ele><time>2020-06-12T12:52:39Z</time><name>PT10385</name></trkpt>
<trkpt lat="54.366390" lon="-3.098952"><ele>248</ele><time>2020-06-12T12:52:40Z</time><name>PT10386</name></trkpt>
<trkpt lat="54.366380" lon="-3.098947"><ele>248</ele><time>2020-06-12T12:52:41Z</time><name>PT10387</name></trkpt>
<trkpt lat="54.366369" lon="-3.098941"><ele>247</ele><time>2020-06-12T12:52:42Z</time><name>PT10388</name></trkpt>
<trkpt lat="54.366358" lon="-3.098935"><ele>246</ele><time>2020-06-12T12:52:43Z</time><name>PT10389</name></trkpt>
<trkpt lat="54.366347" lon="-3.098918"><ele>246</ele><time>2020-06-12T12:52:44Z</time><name>PT10390</name></trkpt>
<trkpt lat="54.366336" lon="-3.098911"><ele>246</ele><time>2020-06-12T12:52:45Z</time><name>PT10391</name></trkpt>
<trkpt lat="54.366328" lon="-3.098907"><ele>246</ele><time>2020-06-12T12:52:46Z</time><name>PT10392</name></trkpt>
<trkpt lat="54.366320" lon="-3.098896"><ele>245</ele><time>2020-06-12T12:52:47Z</time><name>PT10393</name></trkpt>
<trkpt lat="54.366310" lon="-3.098886"><ele>244</ele><time>2020-06-12T12:52:48Z</time><name>PT10394</name></trkpt>
<trkpt lat="54.366299" lon="-3.098875"><ele>244</ele><time>2020-06-12T12:52:49Z</time><name>PT10395</name></trkpt>
<trkpt lat="54.366289" lon="-3.098862"><ele>244</ele><time>2020-06-12T12:52:50Z</time><name>PT10396</name></trkpt>
<trkpt lat="54.366279" lon="-3.098851"><ele>244</ele><time>2020-06-12T12:52:51Z</time><name>PT10397</name></trkpt>
<trkpt lat="54.366270" lon="-3.098831"><ele>244</ele><time>2020-06-12T12:52:52Z</time><name>PT10398</name></trkpt>
<trkpt lat="54.366263" lon="-3.098817"><ele>244</ele><time>2020-06-12T12:52:53Z</time><name>PT10399</name></trkpt>
<trkpt lat="54.366254" lon="-3.098804"><ele>244</ele><time>2020-06-12T12:52:54Z</time><name>PT10400</name></trkpt>
<trkpt lat="54.366246" lon="-3.098790"><ele>243</ele><time>2020-06-12T12:52:55Z</time><name>PT10401</name></trkpt>
<trkpt lat="54.366239" lon="-3.098772"><ele>243</ele><time>2020-06-12T12:52:56Z</time><name>PT10402</name></trkpt>
<trkpt lat="54.366232" lon="-3.098759"><ele>243</ele><time>2020-06-12T12:52:57Z</time><name>PT10403</name></trkpt>
<trkpt lat="54.366223" lon="-3.098742"><ele>243</ele><time>2020-06-12T12:52:58Z</time><name>PT10404</name></trkpt>
<trkpt lat="54.366213" lon="-3.098729"><ele>243</ele><time>2020-06-12T12:52:59Z</time><name>PT10405</name></trkpt>
<trkpt lat="54.366203" lon="-3.098716"><ele>244</ele><time>2020-06-12T12:53:00Z</time><name>PT10406</name></trkpt>
<trkpt lat="54.366194" lon="-3.098702"><ele>244</ele><time>2020-06-12T12:53:01Z</time><name>PT10407</name></trkpt>
<trkpt lat="54.366186" lon="-3.098690"><ele>244</ele><time>2020-06-12T12:53:02Z</time><name>PT10408</name></trkpt>
<trkpt lat="54.366178" lon="-3.098668"><ele>245</ele><time>2020-06-12T12:53:03Z</time><name>PT10409</name></trkpt>
<trkpt lat="54.366167" lon="-3.098648"><ele>245</ele><time>2020-06-12T12:53:04Z</time><name>PT10410</name></trkpt>
<trkpt lat="54.366158" lon="-3.098635"><ele>245</ele><time>2020-06-12T12:53:05Z</time><name>PT10411</name></trkpt>
<trkpt lat="54.366148" lon="-3.098617"><ele>245</ele><time>2020-06-12T12:53:06Z</time><name>PT10412</name></trkpt>
<trkpt lat="54.366137" lon="-3.098606"><ele>245</ele><time>2020-06-12T12:53:07Z</time><name>PT10413</name></trkpt>
<trkpt lat="54.366127" lon="-3.098593"><ele>245</ele><time>2020-06-12T12:53:08Z</time><name>PT10414</name></trkpt>
<trkpt lat="54.366117" lon="-3.098579"><ele>245</ele><time>2020-06-12T12:53:09Z</time><name>PT10415</name></trkpt>
<trkpt lat="54.366110" lon="-3.098574"><ele>245</ele><time>2020-06-12T12:53:10Z</time><name>PT10416</name></trkpt>
<trkpt lat="54.366101" lon="-3.098562"><ele>245</ele><time>2020-06-12T12:53:11Z</time><name>PT10417</name></trkpt>
<trkpt lat="54.366090" lon="-3.098548"><ele>246</ele><time>2020-06-12T12:53:12Z</time><name>PT10418</name></trkpt>
<trkpt lat="54.366081" lon="-3.098536"><ele>245</ele><time>2020-06-12T12:53:13Z</time><name>PT10419</name></trkpt>
<trkpt lat="54.366072" lon="-3.098524"><ele>246</ele><time>2020-06-12T12:53:14Z</time><name>PT10420</name></trkpt>
<trkpt lat="54.366063" lon="-3.098507"><ele>246</ele><time>2020-06-12T12:53:15Z</time><name>PT10421</name></trkpt>
<trkpt lat="54.366055" lon="-3.098481"><ele>248</ele><time>2020-06-12T12:53:16Z</time><name>PT10422</name></trkpt>
<trkpt lat="54.366047" lon="-3.098478"><ele>248</ele><time>2020-06-12T12:53:17Z</time><name>PT10423</name></trkpt>
<trkpt lat="54.366034" lon="-3.098465"><ele>247</ele><time>2020-06-12T12:53:18Z</time><name>PT10424</name></trkpt>
<trkpt lat="54.366025" lon="-3.098460"><ele>247</ele><time>2020-06-12T12:53:19Z</time><name>PT10425</name></trkpt>
<trkpt lat="54.366014" lon="-3.098459"><ele>246</ele><time>2020-06-12T12:53:20Z</time><name>PT10426</name></trkpt>
<trkpt lat="54.366004" lon="-3.098453"><ele>246</ele><time>2020-06-12T12:53:21Z</time><name>PT10427</name></trkpt>
<trkpt lat="54.365995" lon="-3.098446"><ele>247</ele><time>2020-06-12T12:53:22Z</time><name>PT10428</name></trkpt>
<trkpt lat="54.365987" lon="-3.098436"><ele>247</ele><time>2020-06-12T12:53:23Z</time><name>PT10429</name></trkpt>
<trkpt lat="54.365974" lon="-3.098432"><ele>247</ele><time>2020-06-12T12:53:24Z</time><name>PT10430</name></trkpt>
<trkpt lat="54.365975" lon="-3.098424"><ele>247</ele><time>2020-06-12T12:53:25Z</time><name>PT10431</name></trkpt>
<trkpt lat="54.365963" lon="-3.098426"><ele>247</ele><time>2020-06-12T12:53:26Z</time><name>PT10432</name></trkpt>
<trkpt lat="54.365952" lon="-3.098427"><ele>247</ele><time>2020-06-12T12:53:27Z</time><name>PT10433</name></trkpt>
<trkpt lat="54.365939" lon="-3.098427"><ele>247</ele><time>2020-06-12T12:53:28Z</time><name>PT10434</name></trkpt>
<trkpt lat="54.365927" lon="-3.098423"><ele>247</ele><time>2020-06-12T12:53:29Z</time><name>PT10435</name></trkpt>
<trkpt lat="54.365918" lon="-3.098418"><ele>247</ele><time>2020-06-12T12:53:30Z</time><name>PT10436</name></trkpt>
<trkpt lat="54.365913" lon="-3.098419"><ele>247</ele><time>2020-06-12T12:53:31Z</time><name>PT10437</name></trkpt>
<trkpt lat="54.365907" lon="-3.098423"><ele>247</ele><time>2020-06-12T12:53:32Z</time><name>PT10438</name></trkpt>
<trkpt lat="54.365898" lon="-3.098426"><ele>247</ele><time>2020-06-12T12:53:33Z</time><name>PT10439</name></trkpt>
<trkpt lat="54.365888" lon="-3.098427"><ele>247</ele><time>2020-06-12T12:53:34Z</time><name>PT10440</name></trkpt>
<trkpt lat="54.365880" lon="-3.098428"><ele>246</ele><time>2020-06-12T12:53:35Z</time><name>PT10441</name></trkpt>
<trkpt lat="54.365870" lon="-3.098431"><ele>246</ele><time>2020-06-12T12:53:36Z</time><name>PT10442</name></trkpt>
<trkpt lat="54.365860" lon="-3.098432"><ele>246</ele><time>2020-06-12T12:53:37Z</time><name>PT10443</name></trkpt>
<trkpt lat="54.365853" lon="-3.098432"><ele>246</ele><time>2020-06-12T12:53:38Z</time><name>PT10444</name></trkpt>
<trkpt lat="54.365847" lon="-3.098435"><ele>245</ele><time>2020-06-12T12:53:39Z</time><name>PT10445</name></trkpt>
<trkpt lat="54.365839" lon="-3.098440"><ele>245</ele><time>2020-06-12T12:53:40Z</time><name>PT10446</name></trkpt>
<trkpt lat="54.365826" lon="-3.098437"><ele>244</ele><time>2020-06-12T12:53:42Z</time><name>PT10447</name></trkpt>
<trkpt lat="54.365818" lon="-3.098442"><ele>243</ele><time>2020-06-12T12:53:42Z</time><name>PT10448</name></trkpt>
<trkpt lat="54.365807" lon="-3.098442"><ele>243</ele><time>2020-06-12T12:53:43Z</time><name>PT10449</name></trkpt>
<trkpt lat="54.365797" lon="-3.098439"><ele>243</ele><time>2020-06-12T12:53:44Z</time><name>PT10450</name></trkpt>
<trkpt lat="54.365787" lon="-3.098439"><ele>242</ele><time>2020-06-12T12:53:45Z</time><name>PT10451</name></trkpt>
<trkpt lat="54.365783" lon="-3.098447"><ele>242</ele><time>2020-06-12T12:53:46Z</time><name>PT10452</name></trkpt>
<trkpt lat="54.365774" lon="-3.098451"><ele>241</ele><time>2020-06-12T12:53:47Z</time><name>PT10453</name></trkpt>
<trkpt lat="54.365765" lon="-3.098452"><ele>241</ele><time>2020-06-12T12:53:48Z</time><name>PT10454</name></trkpt>
<trkpt lat="54.365755" lon="-3.098453"><ele>241</ele><time>2020-06-12T12:53:49Z</time><name>PT10455</name></trkpt>
<trkpt lat="54.365745" lon="-3.098454"><ele>240</ele><time>2020-06-12T12:53:50Z</time><name>PT10456</name></trkpt>
<trkpt lat="54.365731" lon="-3.098454"><ele>240</ele><time>2020-06-12T12:53:51Z</time><name>PT10457</name></trkpt>
<trkpt lat="54.365719" lon="-3.098455"><ele>240</ele><time>2020-06-12T12:53:52Z</time><name>PT10458</name></trkpt>
<trkpt lat="54.365710" lon="-3.098457"><ele>239</ele><time>2020-06-12T12:53:53Z</time><name>PT10459</name></trkpt>
<trkpt lat="54.365700" lon="-3.098459"><ele>239</ele><time>2020-06-12T12:53:54Z</time><name>PT10460</name></trkpt>
<trkpt lat="54.365686" lon="-3.098461"><ele>239</ele><time>2020-06-12T12:53:55Z</time><name>PT10461</name></trkpt>
<trkpt lat="54.365672" lon="-3.098466"><ele>239</ele><time>2020-06-12T12:53:56Z</time><name>PT10462</name></trkpt>
<trkpt lat="54.365663" lon="-3.098472"><ele>239</ele><time>2020-06-12T12:53:57Z</time><name>PT10463</name></trkpt>
<trkpt lat="54.365653" lon="-3.098479"><ele>239</ele><time>2020-06-12T12:53:58Z</time><name>PT10464</name></trkpt>
<trkpt lat="54.365642" lon="-3.098485"><ele>239</ele><time>2020-06-12T12:53:59Z</time><name>PT10465</name></trkpt>
<trkpt lat="54.365629" lon="-3.098490"><ele>238</ele><time>2020-06-12T12:54:00Z</time><name>PT10466</name></trkpt>
<trkpt lat="54.365615" lon="-3.098495"><ele>239</ele><time>2020-06-12T12:54:01Z</time><name>PT10467</name></trkpt>
<trkpt lat="54.365601" lon="-3.098495"><ele>239</ele><time>2020-06-12T12:54:02Z</time><name>PT10468</name></trkpt>
<trkpt lat="54.365591" lon="-3.098489"><ele>239</ele><time>2020-06-12T12:54:03Z</time><name>PT10469</name></trkpt>
<trkpt lat="54.365580" lon="-3.098495"><ele>239</ele><time>2020-06-12T12:54:04Z</time><name>PT10470</name></trkpt>
<trkpt lat="54.365572" lon="-3.098495"><ele>239</ele><time>2020-06-12T12:54:05Z</time><name>PT10471</name></trkpt>
<trkpt lat="54.365561" lon="-3.098490"><ele>239</ele><time>2020-06-12T12:54:06Z</time><name>PT10472</name></trkpt>
<trkpt lat="54.365551" lon="-3.098483"><ele>238</ele><time>2020-06-12T12:54:07Z</time><name>PT10473</name></trkpt>
<trkpt lat="54.365537" lon="-3.098479"><ele>238</ele><time>2020-06-12T12:54:08Z</time><name>PT10474</name></trkpt>
<trkpt lat="54.365521" lon="-3.098474"><ele>238</ele><time>2020-06-12T12:54:09Z</time><name>PT10475</name></trkpt>
<trkpt lat="54.365510" lon="-3.098466"><ele>239</ele><time>2020-06-12T12:54:10Z</time><name>PT10476</name></trkpt>
<trkpt lat="54.365500" lon="-3.098456"><ele>239</ele><time>2020-06-12T12:54:11Z</time><name>PT10477</name></trkpt>
<trkpt lat="54.365491" lon="-3.098449"><ele>239</ele><time>2020-06-12T12:54:12Z</time><name>PT10478</name></trkpt>
<trkpt lat="54.365481" lon="-3.098440"><ele>239</ele><time>2020-06-12T12:54:13Z</time><name>PT10479</name></trkpt>
<trkpt lat="54.365467" lon="-3.098425"><ele>240</ele><time>2020-06-12T12:54:14Z</time><name>PT10480</name></trkpt>
<trkpt lat="54.365457" lon="-3.098414"><ele>240</ele><time>2020-06-12T12:54:15Z</time><name>PT10481</name></trkpt>
<trkpt lat="54.365448" lon="-3.098402"><ele>240</ele><time>2020-06-12T12:54:16Z</time><name>PT10482</name></trkpt>
<trkpt lat="54.365440" lon="-3.098391"><ele>241</ele><time>2020-06-12T12:54:17Z</time><name>PT10483</name></trkpt>
<trkpt lat="54.365428" lon="-3.098381"><ele>241</ele><time>2020-06-12T12:54:18Z</time><name>PT10484</name></trkpt>
<trkpt lat="54.365416" lon="-3.098369"><ele>241</ele><time>2020-06-12T12:54:19Z</time><name>PT10485</name></trkpt>
<trkpt lat="54.365404" lon="-3.098361"><ele>241</ele><time>2020-06-12T12:54:20Z</time><name>PT10486</name></trkpt>
<trkpt lat="54.365394" lon="-3.098349"><ele>241</ele><time>2020-06-12T12:54:21Z</time><name>PT10487</name></trkpt>
<trkpt lat="54.365385" lon="-3.098336"><ele>241</ele><time>2020-06-12T12:54:22Z</time><name>PT10488</name></trkpt>
<trkpt lat="54.365377" lon="-3.098322"><ele>240</ele><time>2020-06-12T12:54:23Z</time><name>PT10489</name></trkpt>
<trkpt lat="54.365368" lon="-3.098308"><ele>240</ele><time>2020-06-12T12:54:24Z</time><name>PT10490</name></trkpt>
<trkpt lat="54.365359" lon="-3.098293"><ele>240</ele><time>2020-06-12T12:54:25Z</time><name>PT10491</name></trkpt>
<trkpt lat="54.365351" lon="-3.098284"><ele>240</ele><time>2020-06-12T12:54:26Z</time><name>PT10492</name></trkpt>
<trkpt lat="54.365340" lon="-3.098276"><ele>240</ele><time>2020-06-12T12:54:27Z</time><name>PT10493</name></trkpt>
<trkpt lat="54.365329" lon="-3.098264"><ele>240</ele><time>2020-06-12T12:54:28Z</time><name>PT10494</name></trkpt>
<trkpt lat="54.365319" lon="-3.098257"><ele>240</ele><time>2020-06-12T12:54:29Z</time><name>PT10495</name></trkpt>
<trkpt lat="54.365306" lon="-3.098244"><ele>241</ele><time>2020-06-12T12:54:30Z</time><name>PT10496</name></trkpt>
<trkpt lat="54.365294" lon="-3.098232"><ele>240</ele><time>2020-06-12T12:54:31Z</time><name>PT10497</name></trkpt>
<trkpt lat="54.365285" lon="-3.098219"><ele>240</ele><time>2020-06-12T12:54:32Z</time><name>PT10498</name></trkpt>
<trkpt lat="54.365276" lon="-3.098204"><ele>240</ele><time>2020-06-12T12:54:33Z</time><name>PT10499</name></trkpt>
<trkpt lat="54.365262" lon="-3.098189"><ele>239</ele><time>2020-06-12T12:54:34Z</time><name>PT10500</name></trkpt>
<trkpt lat="54.365249" lon="-3.098174"><ele>239</ele><time>2020-06-12T12:54:35Z</time><name>PT10501</name></trkpt>
<trkpt lat="54.365239" lon="-3.098164"><ele>239</ele><time>2020-06-12T12:54:36Z</time><name>PT10502</name></trkpt>
<trkpt lat="54.365220" lon="-3.098151"><ele>240</ele><time>2020-06-12T12:54:37Z</time><name>PT10503</name></trkpt>
<trkpt lat="54.365210" lon="-3.098133"><ele>240</ele><time>2020-06-12T12:54:38Z</time><name>PT10504</name></trkpt>
<trkpt lat="54.365199" lon="-3.098118"><ele>239</ele><time>2020-06-12T12:54:39Z</time><name>PT10505</name></trkpt>
<trkpt lat="54.365188" lon="-3.098108"><ele>238</ele><time>2020-06-12T12:54:40Z</time><name>PT10506</name></trkpt>
<trkpt lat="54.365181" lon="-3.098098"><ele>237</ele><time>2020-06-12T12:54:41Z</time><name>PT10507</name></trkpt>
<trkpt lat="54.365174" lon="-3.098082"><ele>238</ele><time>2020-06-12T12:54:42Z</time><name>PT10508</name></trkpt>
<trkpt lat="54.365163" lon="-3.098061"><ele>238</ele><time>2020-06-12T12:54:43Z</time><name>PT10509</name></trkpt>
<trkpt lat="54.365154" lon="-3.098043"><ele>238</ele><time>2020-06-12T12:54:44Z</time><name>PT10510</name></trkpt>
<trkpt lat="54.365145" lon="-3.098028"><ele>238</ele><time>2020-06-12T12:54:45Z</time><name>PT10511</name></trkpt>
<trkpt lat="54.365136" lon="-3.098009"><ele>237</ele><time>2020-06-12T12:54:46Z</time><name>PT10512</name></trkpt>
<trkpt lat="54.365131" lon="-3.097995"><ele>237</ele><time>2020-06-12T12:54:47Z</time><name>PT10513</name></trkpt>
<trkpt lat="54.365124" lon="-3.097977"><ele>237</ele><time>2020-06-12T12:54:48Z</time><name>PT10514</name></trkpt>
<trkpt lat="54.365113" lon="-3.097960"><ele>237</ele><time>2020-06-12T12:54:49Z</time><name>PT10515</name></trkpt>
<trkpt lat="54.365106" lon="-3.097944"><ele>237</ele><time>2020-06-12T12:54:50Z</time><name>PT10516</name></trkpt>
<trkpt lat="54.365100" lon="-3.097928"><ele>237</ele><time>2020-06-12T12:54:51Z</time><name>PT10517</name></trkpt>
<trkpt lat="54.365097" lon="-3.097910"><ele>236</ele><time>2020-06-12T12:54:52Z</time><name>PT10518</name></trkpt>
<trkpt lat="54.365094" lon="-3.097894"><ele>236</ele><time>2020-06-12T12:54:53Z</time><name>PT10519</name></trkpt>
<trkpt lat="54.365092" lon="-3.097875"><ele>236</ele><time>2020-06-12T12:54:54Z</time><name>PT10520</name></trkpt>
<trkpt lat="54.365087" lon="-3.097852"><ele>236</ele><time>2020-06-12T12:54:55Z</time><name>PT10521</name></trkpt>
<trkpt lat="54.365085" lon="-3.097845"><ele>235</ele><time>2020-06-12T12:54:56Z</time><name>PT10522</name></trkpt>
<trkpt lat="54.365080" lon="-3.097829"><ele>235</ele><time>2020-06-12T12:54:57Z</time><name>PT10523</name></trkpt>
<trkpt lat="54.365076" lon="-3.097806"><ele>235</ele><time>2020-06-12T12:54:58Z</time><name>PT10524</name></trkpt>
<trkpt lat="54.365073" lon="-3.097787"><ele>235</ele><time>2020-06-12T12:54:59Z</time><name>PT10525</name></trkpt>
<trkpt lat="54.365069" lon="-3.097765"><ele>235</ele><time>2020-06-12T12:55:00Z</time><name>PT10526</name></trkpt>
<trkpt lat="54.365064" lon="-3.097745"><ele>235</ele><time>2020-06-12T12:55:01Z</time><name>PT10527</name></trkpt>
<trkpt lat="54.365064" lon="-3.097729"><ele>234</ele><time>2020-06-12T12:55:02Z</time><name>PT10528</name></trkpt>
<trkpt lat="54.365058" lon="-3.097718"><ele>235</ele><time>2020-06-12T12:55:03Z</time><name>PT10529</name></trkpt>
<trkpt lat="54.365055" lon="-3.097703"><ele>234</ele><time>2020-06-12T12:55:04Z</time><name>PT10530</name></trkpt>
<trkpt lat="54.365054" lon="-3.097697"><ele>234</ele><time>2020-06-12T12:55:05Z</time><name>PT10531</name></trkpt>
<trkpt lat="54.365055" lon="-3.097689"><ele>234</ele><time>2020-06-12T12:55:06Z</time><name>PT10532</name></trkpt>
<trkpt lat="54.365054" lon="-3.097687"><ele>235</ele><time>2020-06-12T12:55:07Z</time><name>PT10533</name></trkpt>
<trkpt lat="54.365053" lon="-3.097675"><ele>235</ele><time>2020-06-12T12:55:21Z</time><name>PT10534</name></trkpt>
<trkpt lat="54.365055" lon="-3.097638"><ele>235</ele><time>2020-06-12T12:55:22Z</time><name>PT10535</name></trkpt>
<trkpt lat="54.365053" lon="-3.097625"><ele>235</ele><time>2020-06-12T12:55:23Z</time><name>PT10536</name></trkpt>
<trkpt lat="54.365049" lon="-3.097607"><ele>235</ele><time>2020-06-12T12:55:24Z</time><name>PT10537</name></trkpt>
<trkpt lat="54.365045" lon="-3.097584"><ele>235</ele><time>2020-06-12T12:55:25Z</time><name>PT10538</name></trkpt>
<trkpt lat="54.365040" lon="-3.097567"><ele>235</ele><time>2020-06-12T12:55:26Z</time><name>PT10539</name></trkpt>
<trkpt lat="54.365036" lon="-3.097551"><ele>234</ele><time>2020-06-12T12:55:27Z</time><name>PT10540</name></trkpt>
<trkpt lat="54.365032" lon="-3.097534"><ele>234</ele><time>2020-06-12T12:55:28Z</time><name>PT10541</name></trkpt>
<trkpt lat="54.365030" lon="-3.097512"><ele>234</ele><time>2020-06-12T12:55:29Z</time><name>PT10542</name></trkpt>
<trkpt lat="54.365025" lon="-3.097496"><ele>234</ele><time>2020-06-12T12:55:30Z</time><name>PT10543</name></trkpt>
<trkpt lat="54.365021" lon="-3.097479"><ele>234</ele><time>2020-06-12T12:55:31Z</time><name>PT10544</name></trkpt>
<trkpt lat="54.365015" lon="-3.097460"><ele>234</ele><time>2020-06-12T12:55:32Z</time><name>PT10545</name></trkpt>
<trkpt lat="54.365013" lon="-3.097440"><ele>233</ele><time>2020-06-12T12:55:33Z</time><name>PT10546</name></trkpt>
<trkpt lat="54.365010" lon="-3.097424"><ele>233</ele><time>2020-06-12T12:55:34Z</time><name>PT10547</name></trkpt>
<trkpt lat="54.365006" lon="-3.097402"><ele>233</ele><time>2020-06-12T12:55:35Z</time><name>PT10548</name></trkpt>
<trkpt lat="54.365002" lon="-3.097379"><ele>233</ele><time>2020-06-12T12:55:36Z</time><name>PT10549</name></trkpt>
<trkpt lat="54.364996" lon="-3.097363"><ele>233</ele><time>2020-06-12T12:55:37Z</time><name>PT10550</name></trkpt>
<trkpt lat="54.364991" lon="-3.097343"><ele>233</ele><time>2020-06-12T12:55:38Z</time><name>PT10551</name></trkpt>
<trkpt lat="54.364988" lon="-3.097320"><ele>233</ele><time>2020-06-12T12:55:39Z</time><name>PT10552</name></trkpt>
<trkpt lat="54.364984" lon="-3.097297"><ele>233</ele><time>2020-06-12T12:55:40Z</time><name>PT10553</name></trkpt>
<trkpt lat="54.364981" lon="-3.097275"><ele>232</ele><time>2020-06-12T12:55:41Z</time><name>PT10554</name></trkpt>
<trkpt lat="54.364976" lon="-3.097254"><ele>232</ele><time>2020-06-12T12:55:42Z</time><name>PT10555</name></trkpt>
<trkpt lat="54.364972" lon="-3.097231"><ele>231</ele><time>2020-06-12T12:55:43Z</time><name>PT10556</name></trkpt>
<trkpt lat="54.364966" lon="-3.097206"><ele>232</ele><time>2020-06-12T12:55:44Z</time><name>PT10557</name></trkpt>
<trkpt lat="54.364960" lon="-3.097186"><ele>232</ele><time>2020-06-12T12:55:45Z</time><name>PT10558</name></trkpt>
<trkpt lat="54.364953" lon="-3.097166"><ele>232</ele><time>2020-06-12T12:55:46Z</time><name>PT10559</name></trkpt>
<trkpt lat="54.364947" lon="-3.097151"><ele>231</ele><time>2020-06-12T12:55:47Z</time><name>PT10560</name></trkpt>
<trkpt lat="54.364941" lon="-3.097133"><ele>232</ele><time>2020-06-12T12:55:48Z</time><name>PT10561</name></trkpt>
<trkpt lat="54.364938" lon="-3.097111"><ele>232</ele><time>2020-06-12T12:55:49Z</time><name>PT10562</name></trkpt>
<trkpt lat="54.364933" lon="-3.097096"><ele>232</ele><time>2020-06-12T12:55:50Z</time><name>PT10563</name></trkpt>
<trkpt lat="54.364927" lon="-3.097081"><ele>232</ele><time>2020-06-12T12:55:51Z</time><name>PT10564</name></trkpt>
<trkpt lat="54.364924" lon="-3.097060"><ele>232</ele><time>2020-06-12T12:55:52Z</time><name>PT10565</name></trkpt>
<trkpt lat="54.364921" lon="-3.097040"><ele>232</ele><time>2020-06-12T12:55:53Z</time><name>PT10566</name></trkpt>
<trkpt lat="54.364917" lon="-3.097022"><ele>232</ele><time>2020-06-12T12:55:54Z</time><name>PT10567</name></trkpt>
<trkpt lat="54.364911" lon="-3.097011"><ele>231</ele><time>2020-06-12T12:55:55Z</time><name>PT10568</name></trkpt>
<trkpt lat="54.364903" lon="-3.096999"><ele>231</ele><time>2020-06-12T12:55:56Z</time><name>PT10569</name></trkpt>
<trkpt lat="54.364896" lon="-3.096978"><ele>231</ele><time>2020-06-12T12:55:57Z</time><name>PT10570</name></trkpt>
<trkpt lat="54.364891" lon="-3.096959"><ele>231</ele><time>2020-06-12T12:55:58Z</time><name>PT10571</name></trkpt>
<trkpt lat="54.364885" lon="-3.096937"><ele>231</ele><time>2020-06-12T12:55:59Z</time><name>PT10572</name></trkpt>
<trkpt lat="54.364879" lon="-3.096917"><ele>231</ele><time>2020-06-12T12:56:00Z</time><name>PT10573</name></trkpt>
<trkpt lat="54.364872" lon="-3.096905"><ele>231</ele><time>2020-06-12T12:56:01Z</time><name>PT10574</name></trkpt>
<trkpt lat="54.364864" lon="-3.096890"><ele>231</ele><time>2020-06-12T12:56:02Z</time><name>PT10575</name></trkpt>
<trkpt lat="54.364856" lon="-3.096875"><ele>231</ele><time>2020-06-12T12:56:03Z</time><name>PT10576</name></trkpt>
<trkpt lat="54.364851" lon="-3.096866"><ele>230</ele><time>2020-06-12T12:56:04Z</time><name>PT10577</name></trkpt>
<trkpt lat="54.364847" lon="-3.096849"><ele>230</ele><time>2020-06-12T12:56:05Z</time><name>PT10578</name></trkpt>
<trkpt lat="54.364839" lon="-3.096833"><ele>230</ele><time>2020-06-12T12:56:06Z</time><name>PT10579</name></trkpt>
<trkpt lat="54.364830" lon="-3.096818"><ele>230</ele><time>2020-06-12T12:56:07Z</time><name>PT10580</name></trkpt>
<trkpt lat="54.364824" lon="-3.096811"><ele>230</ele><time>2020-06-12T12:56:08Z</time><name>PT10581</name></trkpt>
<trkpt lat="54.364814" lon="-3.096806"><ele>230</ele><time>2020-06-12T12:56:09Z</time><name>PT10582</name></trkpt>
<trkpt lat="54.364807" lon="-3.096800"><ele>229</ele><time>2020-06-12T12:56:10Z</time><name>PT10583</name></trkpt>
<trkpt lat="54.364798" lon="-3.096798"><ele>228</ele><time>2020-06-12T12:56:11Z</time><name>PT10584</name></trkpt>
<trkpt lat="54.364791" lon="-3.096785"><ele>228</ele><time>2020-06-12T12:56:12Z</time><name>PT10585</name></trkpt>
<trkpt lat="54.364780" lon="-3.096773"><ele>228</ele><time>2020-06-12T12:56:13Z</time><name>PT10586</name></trkpt>
<trkpt lat="54.364770" lon="-3.096770"><ele>227</ele><time>2020-06-12T12:56:14Z</time><name>PT10587</name></trkpt>
<trkpt lat="54.364760" lon="-3.096762"><ele>227</ele><time>2020-06-12T12:56:15Z</time><name>PT10588</name></trkpt>
<trkpt lat="54.364750" lon="-3.096753"><ele>227</ele><time>2020-06-12T12:56:16Z</time><name>PT10589</name></trkpt>
<trkpt lat="54.364741" lon="-3.096738"><ele>226</ele><time>2020-06-12T12:56:17Z</time><name>PT10590</name></trkpt>
<trkpt lat="54.364733" lon="-3.096725"><ele>226</ele><time>2020-06-12T12:56:18Z</time><name>PT10591</name></trkpt>
<trkpt lat="54.364724" lon="-3.096714"><ele>226</ele><time>2020-06-12T12:56:19Z</time><name>PT10592</name></trkpt>
<trkpt lat="54.364711" lon="-3.096698"><ele>226</ele><time>2020-06-12T12:56:20Z</time><name>PT10593</name></trkpt>
<trkpt lat="54.364702" lon="-3.096686"><ele>225</ele><time>2020-06-12T12:56:21Z</time><name>PT10594</name></trkpt>
<trkpt lat="54.364684" lon="-3.096665"><ele>226</ele><time>2020-06-12T12:56:22Z</time><name>PT10595</name></trkpt>
<trkpt lat="54.364669" lon="-3.096653"><ele>226</ele><time>2020-06-12T12:56:23Z</time><name>PT10596</name></trkpt>
<trkpt lat="54.364658" lon="-3.096640"><ele>227</ele><time>2020-06-12T12:56:24Z</time><name>PT10597</name></trkpt>
<trkpt lat="54.364646" lon="-3.096631"><ele>227</ele><time>2020-06-12T12:56:25Z</time><name>PT10598</name></trkpt>
<trkpt lat="54.364630" lon="-3.096618"><ele>228</ele><time>2020-06-12T12:56:26Z</time><name>PT10599</name></trkpt>
<trkpt lat="54.364619" lon="-3.096612"><ele>228</ele><time>2020-06-12T12:56:27Z</time><name>PT10600</name></trkpt>
<trkpt lat="54.364606" lon="-3.096601"><ele>228</ele><time>2020-06-12T12:56:28Z</time><name>PT10601</name></trkpt>
<trkpt lat="54.364593" lon="-3.096593"><ele>229</ele><time>2020-06-12T12:56:29Z</time><name>PT10602</name></trkpt>
<trkpt lat="54.364581" lon="-3.096589"><ele>229</ele><time>2020-06-12T12:56:30Z</time><name>PT10603</name></trkpt>
<trkpt lat="54.364569" lon="-3.096588"><ele>229</ele><time>2020-06-12T12:56:31Z</time><name>PT10604</name></trkpt>
<trkpt lat="54.364560" lon="-3.096585"><ele>229</ele><time>2020-06-12T12:56:32Z</time><name>PT10605</name></trkpt>
<trkpt lat="54.364550" lon="-3.096576"><ele>230</ele><time>2020-06-12T12:56:33Z</time><name>PT10606</name></trkpt>
<trkpt lat="54.364539" lon="-3.096571"><ele>229</ele><time>2020-06-12T12:56:34Z</time><name>PT10607</name></trkpt>
<trkpt lat="54.364527" lon="-3.096564"><ele>230</ele><time>2020-06-12T12:56:35Z</time><name>PT10608</name></trkpt>
<trkpt lat="54.364516" lon="-3.096560"><ele>230</ele><time>2020-06-12T12:56:36Z</time><name>PT10609</name></trkpt>
<trkpt lat="54.364505" lon="-3.096555"><ele>230</ele><time>2020-06-12T12:56:37Z</time><name>PT10610</name></trkpt>
<trkpt lat="54.364493" lon="-3.096549"><ele>230</ele><time>2020-06-12T12:56:38Z</time><name>PT10611</name></trkpt>
<trkpt lat="54.364481" lon="-3.096547"><ele>230</ele><time>2020-06-12T12:56:39Z</time><name>PT10612</name></trkpt>
<trkpt lat="54.364470" lon="-3.096545"><ele>230</ele><time>2020-06-12T12:56:40Z</time><name>PT10613</name></trkpt>
<trkpt lat="54.364461" lon="-3.096539"><ele>230</ele><time>2020-06-12T12:56:41Z</time><name>PT10614</name></trkpt>
<trkpt lat="54.364448" lon="-3.096536"><ele>230</ele><time>2020-06-12T12:56:42Z</time><name>PT10615</name></trkpt>
<trkpt lat="54.364437" lon="-3.096532"><ele>230</ele><time>2020-06-12T12:56:43Z</time><name>PT10616</name></trkpt>
<trkpt lat="54.364425" lon="-3.096525"><ele>230</ele><time>2020-06-12T12:56:44Z</time><name>PT10617</name></trkpt>
<trkpt lat="54.364412" lon="-3.096525"><ele>230</ele><time>2020-06-12T12:56:45Z</time><name>PT10618</name></trkpt>
<trkpt lat="54.364401" lon="-3.096522"><ele>230</ele><time>2020-06-12T12:56:46Z</time><name>PT10619</name></trkpt>
<trkpt lat="54.364390" lon="-3.096522"><ele>230</ele><time>2020-06-12T12:56:47Z</time><name>PT10620</name></trkpt>
<trkpt lat="54.364377" lon="-3.096521"><ele>230</ele><time>2020-06-12T12:56:48Z</time><name>PT10621</name></trkpt>
<trkpt lat="54.364368" lon="-3.096519"><ele>230</ele><time>2020-06-12T12:56:49Z</time><name>PT10622</name></trkpt>
<trkpt lat="54.364356" lon="-3.096517"><ele>230</ele><time>2020-06-12T12:56:50Z</time><name>PT10623</name></trkpt>
<trkpt lat="54.364345" lon="-3.096515"><ele>230</ele><time>2020-06-12T12:56:51Z</time><name>PT10624</name></trkpt>
<trkpt lat="54.364335" lon="-3.096513"><ele>230</ele><time>2020-06-12T12:56:52Z</time><name>PT10625</name></trkpt>
<trkpt lat="54.364325" lon="-3.096506"><ele>230</ele><time>2020-06-12T12:56:53Z</time><name>PT10626</name></trkpt>
<trkpt lat="54.364316" lon="-3.096499"><ele>230</ele><time>2020-06-12T12:56:54Z</time><name>PT10627</name></trkpt>
<trkpt lat="54.364306" lon="-3.096492"><ele>230</ele><time>2020-06-12T12:56:55Z</time><name>PT10628</name></trkpt>
<trkpt lat="54.364296" lon="-3.096486"><ele>230</ele><time>2020-06-12T12:56:56Z</time><name>PT10629</name></trkpt>
<trkpt lat="54.364286" lon="-3.096477"><ele>230</ele><time>2020-06-12T12:56:57Z</time><name>PT10630</name></trkpt>
<trkpt lat="54.364275" lon="-3.096470"><ele>230</ele><time>2020-06-12T12:56:58Z</time><name>PT10631</name></trkpt>
<trkpt lat="54.364266" lon="-3.096460"><ele>230</ele><time>2020-06-12T12:56:59Z</time><name>PT10632</name></trkpt>
<trkpt lat="54.364256" lon="-3.096446"><ele>230</ele><time>2020-06-12T12:57:00Z</time><name>PT10633</name></trkpt>
<trkpt lat="54.364247" lon="-3.096434"><ele>230</ele><time>2020-06-12T12:57:01Z</time><name>PT10634</name></trkpt>
<trkpt lat="54.364238" lon="-3.096423"><ele>230</ele><time>2020-06-12T12:57:02Z</time><name>PT10635</name></trkpt>
<trkpt lat="54.364229" lon="-3.096411"><ele>230</ele><time>2020-06-12T12:57:03Z</time><name>PT10636</name></trkpt>
<trkpt lat="54.364220" lon="-3.096399"><ele>230</ele><time>2020-06-12T12:57:04Z</time><name>PT10637</name></trkpt>
<trkpt lat="54.364214" lon="-3.096385"><ele>230</ele><time>2020-06-12T12:57:05Z</time><name>PT10638</name></trkpt>
<trkpt lat="54.364207" lon="-3.096366"><ele>229</ele><time>2020-06-12T12:57:06Z</time><name>PT10639</name></trkpt>
<trkpt lat="54.364203" lon="-3.096355"><ele>229</ele><time>2020-06-12T12:57:07Z</time><name>PT10640</name></trkpt>
<trkpt lat="54.364203" lon="-3.096352"><ele>230</ele><time>2020-06-12T12:57:08Z</time><name>PT10641</name></trkpt>
<trkpt lat="54.364201" lon="-3.096356"><ele>229</ele><time>2020-06-12T12:57:09Z</time><name>PT10642</name></trkpt>
<trkpt lat="54.364201" lon="-3.096356"><ele>229</ele><time>2020-06-12T12:57:10Z</time><name>PT10643</name></trkpt>
<trkpt lat="54.364201" lon="-3.096354"><ele>229</ele><time>2020-06-12T12:57:11Z</time><name>PT10644</name></trkpt>
<trkpt lat="54.364201" lon="-3.096348"><ele>229</ele><time>2020-06-12T12:57:12Z</time><name>PT10645</name></trkpt>
<trkpt lat="54.364202" lon="-3.096348"><ele>229</ele><time>2020-06-12T12:57:13Z</time><name>PT10646</name></trkpt>
<trkpt lat="54.364202" lon="-3.096348"><ele>229</ele><time>2020-06-12T12:57:14Z</time><name>PT10647</name></trkpt>
<trkpt lat="54.364203" lon="-3.096353"><ele>230</ele><time>2020-06-12T12:57:15Z</time><name>PT10648</name></trkpt>
<trkpt lat="54.364199" lon="-3.096354"><ele>230</ele><time>2020-06-12T12:57:26Z</time><name>PT10649</name></trkpt>
<trkpt lat="54.364203" lon="-3.096340"><ele>230</ele><time>2020-06-12T12:57:27Z</time><name>PT10650</name></trkpt>
<trkpt lat="54.364200" lon="-3.096331"><ele>229</ele><time>2020-06-12T12:57:28Z</time><name>PT10651</name></trkpt>
<trkpt lat="54.364197" lon="-3.096326"><ele>229</ele><time>2020-06-12T12:57:29Z</time><name>PT10652</name></trkpt>
<trkpt lat="54.364195" lon="-3.096325"><ele>230</ele><time>2020-06-12T12:57:30Z</time><name>PT10653</name></trkpt>
<trkpt lat="54.364192" lon="-3.096324"><ele>229</ele><time>2020-06-12T12:57:31Z</time><name>PT10654</name></trkpt>
<trkpt lat="54.364193" lon="-3.096323"><ele>229</ele><time>2020-06-12T12:57:32Z</time><name>PT10655</name></trkpt>
<trkpt lat="54.364191" lon="-3.096323"><ele>229</ele><time>2020-06-12T12:57:33Z</time><name>PT10656</name></trkpt>
<trkpt lat="54.364189" lon="-3.096321"><ele>229</ele><time>2020-06-12T12:57:34Z</time><name>PT10657</name></trkpt>
<trkpt lat="54.364192" lon="-3.096318"><ele>229</ele><time>2020-06-12T12:57:35Z</time><name>PT10658</name></trkpt>
<trkpt lat="54.364192" lon="-3.096317"><ele>229</ele><time>2020-06-12T12:57:36Z</time><name>PT10659</name></trkpt>
<trkpt lat="54.364192" lon="-3.096317"><ele>229</ele><time>2020-06-12T12:57:37Z</time><name>PT10660</name></trkpt>
<trkpt lat="54.364183" lon="-3.096308"><ele>229</ele><time>2020-06-12T12:58:01Z</time><name>PT10661</name></trkpt>
<trkpt lat="54.364178" lon="-3.096293"><ele>229</ele><time>2020-06-12T12:58:02Z</time><name>PT10662</name></trkpt>
<trkpt lat="54.364172" lon="-3.096270"><ele>229</ele><time>2020-06-12T12:58:03Z</time><name>PT10663</name></trkpt>
<trkpt lat="54.364168" lon="-3.096250"><ele>229</ele><time>2020-06-12T12:58:04Z</time><name>PT10664</name></trkpt>
<trkpt lat="54.364166" lon="-3.096233"><ele>229</ele><time>2020-06-12T12:58:05Z</time><name>PT10665</name></trkpt>
<trkpt lat="54.364159" lon="-3.096217"><ele>228</ele><time>2020-06-12T12:58:06Z</time><name>PT10666</name></trkpt>
<trkpt lat="54.364161" lon="-3.096200"><ele>228</ele><time>2020-06-12T12:58:07Z</time><name>PT10667</name></trkpt>
<trkpt lat="54.364160" lon="-3.096184"><ele>228</ele><time>2020-06-12T12:58:08Z</time><name>PT10668</name></trkpt>
<trkpt lat="54.364158" lon="-3.096170"><ele>228</ele><time>2020-06-12T12:58:09Z</time><name>PT10669</name></trkpt>
<trkpt lat="54.364149" lon="-3.096156"><ele>228</ele><time>2020-06-12T12:58:10Z</time><name>PT10670</name></trkpt>
<trkpt lat="54.364142" lon="-3.096139"><ele>227</ele><time>2020-06-12T12:58:11Z</time><name>PT10671</name></trkpt>
<trkpt lat="54.364138" lon="-3.096121"><ele>227</ele><time>2020-06-12T12:58:12Z</time><name>PT10672</name></trkpt>
<trkpt lat="54.364132" lon="-3.096107"><ele>227</ele><time>2020-06-12T12:58:13Z</time><name>PT10673</name></trkpt>
<trkpt lat="54.364129" lon="-3.096082"><ele>226</ele><time>2020-06-12T12:58:14Z</time><name>PT10674</name></trkpt>
<trkpt lat="54.364126" lon="-3.096061"><ele>226</ele><time>2020-06-12T12:58:15Z</time><name>PT10675</name></trkpt>
<trkpt lat="54.364122" lon="-3.096045"><ele>226</ele><time>2020-06-12T12:58:16Z</time><name>PT10676</name></trkpt>
<trkpt lat="54.364119" lon="-3.096024"><ele>226</ele><time>2020-06-12T12:58:17Z</time><name>PT10677</name></trkpt>
<trkpt lat="54.364116" lon="-3.096006"><ele>226</ele><time>2020-06-12T12:58:18Z</time><name>PT10678</name></trkpt>
<trkpt lat="54.364115" lon="-3.095986"><ele>226</ele><time>2020-06-12T12:58:19Z</time><name>PT10679</name></trkpt>
<trkpt lat="54.364114" lon="-3.095967"><ele>226</ele><time>2020-06-12T12:58:20Z</time><name>PT10680</name></trkpt>
<trkpt lat="54.364113" lon="-3.095951"><ele>226</ele><time>2020-06-12T12:58:21Z</time><name>PT10681</name></trkpt>
<trkpt lat="54.364116" lon="-3.095929"><ele>226</ele><time>2020-06-12T12:58:22Z</time><name>PT10682</name></trkpt>
<trkpt lat="54.364118" lon="-3.095903"><ele>227</ele><time>2020-06-12T12:58:23Z</time><name>PT10683</name></trkpt>
<trkpt lat="54.364118" lon="-3.095890"><ele>227</ele><time>2020-06-12T12:58:24Z</time><name>PT10684</name></trkpt>
<trkpt lat="54.364116" lon="-3.095868"><ele>227</ele><time>2020-06-12T12:58:25Z</time><name>PT10685</name></trkpt>
<trkpt lat="54.364112" lon="-3.095851"><ele>227</ele><time>2020-06-12T12:58:26Z</time><name>PT10686</name></trkpt>
<trkpt lat="54.364108" lon="-3.095838"><ele>227</ele><time>2020-06-12T12:58:27Z</time><name>PT10687</name></trkpt>
<trkpt lat="54.364103" lon="-3.095815"><ele>227</ele><time>2020-06-12T12:58:28Z</time><name>PT10688</name></trkpt>
<trkpt lat="54.364099" lon="-3.095809"><ele>226</ele><time>2020-06-12T12:58:29Z</time><name>PT10689</name></trkpt>
<trkpt lat="54.364096" lon="-3.095795"><ele>227</ele><time>2020-06-12T12:58:30Z</time><name>PT10690</name></trkpt>
<trkpt lat="54.364091" lon="-3.095775"><ele>227</ele><time>2020-06-12T12:58:31Z</time><name>PT10691</name></trkpt>
<trkpt lat="54.364084" lon="-3.095758"><ele>227</ele><time>2020-06-12T12:58:32Z</time><name>PT10692</name></trkpt>
<trkpt lat="54.364078" lon="-3.095741"><ele>227</ele><time>2020-06-12T12:58:33Z</time><name>PT10693</name></trkpt>
<trkpt lat="54.364073" lon="-3.095723"><ele>227</ele><time>2020-06-12T12:58:34Z</time><name>PT10694</name></trkpt>
<trkpt lat="54.364069" lon="-3.095709"><ele>227</ele><time>2020-06-12T12:58:35Z</time><name>PT10695</name></trkpt>
<trkpt lat="54.364065" lon="-3.095694"><ele>227</ele><time>2020-06-12T12:58:36Z</time><name>PT10696</name></trkpt>
<trkpt lat="54.364061" lon="-3.095682"><ele>227</ele><time>2020-06-12T12:58:37Z</time><name>PT10697</name></trkpt>
<trkpt lat="54.364060" lon="-3.095671"><ele>227</ele><time>2020-06-12T12:58:38Z</time><name>PT10698</name></trkpt>
<trkpt lat="54.364061" lon="-3.095669"><ele>227</ele><time>2020-06-12T12:58:39Z</time><name>PT10699</name></trkpt>
<trkpt lat="54.364061" lon="-3.095663"><ele>227</ele><time>2020-06-12T12:58:40Z</time><name>PT10700</name></trkpt>
<trkpt lat="54.364060" lon="-3.095659"><ele>227</ele><time>2020-06-12T12:58:41Z</time><name>PT10701</name></trkpt>
<trkpt lat="54.364061" lon="-3.095656"><ele>227</ele><time>2020-06-12T12:58:42Z</time><name>PT10702</name></trkpt>
<trkpt lat="54.364060" lon="-3.095656"><ele>227</ele><time>2020-06-12T12:58:48Z</time><name>PT10703</name></trkpt>
<trkpt lat="54.364062" lon="-3.095651"><ele>226</ele><time>2020-06-12T12:58:49Z</time><name>PT10704</name></trkpt>
<trkpt lat="54.364065" lon="-3.095648"><ele>226</ele><time>2020-06-12T12:58:50Z</time><name>PT10705</name></trkpt>
<trkpt lat="54.364067" lon="-3.095644"><ele>226</ele><time>2020-06-12T12:58:51Z</time><name>PT10706</name></trkpt>
<trkpt lat="54.364064" lon="-3.095645"><ele>226</ele><time>2020-06-12T12:59:09Z</time><name>PT10707</name></trkpt>
<trkpt lat="54.364064" lon="-3.095642"><ele>227</ele><time>2020-06-12T12:59:10Z</time><name>PT10708</name></trkpt>
<trkpt lat="54.364064" lon="-3.095639"><ele>227</ele><time>2020-06-12T12:59:11Z</time><name>PT10709</name></trkpt>
<trkpt lat="54.364063" lon="-3.095638"><ele>227</ele><time>2020-06-12T12:59:12Z</time><name>PT10710</name></trkpt>
<trkpt lat="54.364066" lon="-3.095630"><ele>227</ele><time>2020-06-12T12:59:24Z</time><name>PT10711</name></trkpt>
<trkpt lat="54.364067" lon="-3.095623"><ele>227</ele><time>2020-06-12T12:59:25Z</time><name>PT10712</name></trkpt>
<trkpt lat="54.364064" lon="-3.095630"><ele>227</ele><time>2020-06-12T13:00:21Z</time><name>PT10713</name></trkpt>
<trkpt lat="54.364057" lon="-3.095633"><ele>227</ele><time>2020-06-12T13:00:22Z</time><name>PT10714</name></trkpt>
<trkpt lat="54.364048" lon="-3.095643"><ele>227</ele><time>2020-06-12T13:00:23Z</time><name>PT10715</name></trkpt>
<trkpt lat="54.364040" lon="-3.095653"><ele>227</ele><time>2020-06-12T13:00:24Z</time><name>PT10716</name></trkpt>
<trkpt lat="54.364028" lon="-3.095666"><ele>228</ele><time>2020-06-12T13:00:25Z</time><name>PT10717</name></trkpt>
<trkpt lat="54.364018" lon="-3.095682"><ele>228</ele><time>2020-06-12T13:00:26Z</time><name>PT10718</name></trkpt>
<trkpt lat="54.364018" lon="-3.095697"><ele>228</ele><time>2020-06-12T13:00:27Z</time><name>PT10719</name></trkpt>
<trkpt lat="54.364013" lon="-3.095704"><ele>228</ele><time>2020-06-12T13:00:28Z</time><name>PT10720</name></trkpt>
<trkpt lat="54.364014" lon="-3.095717"><ele>227</ele><time>2020-06-12T13:00:29Z</time><name>PT10721</name></trkpt>
<trkpt lat="54.364013" lon="-3.095730"><ele>227</ele><time>2020-06-12T13:00:30Z</time><name>PT10722</name></trkpt>
<trkpt lat="54.364011" lon="-3.095740"><ele>227</ele><time>2020-06-12T13:00:31Z</time><name>PT10723</name></trkpt>
<trkpt lat="54.364006" lon="-3.095748"><ele>227</ele><time>2020-06-12T13:00:32Z</time><name>PT10724</name></trkpt>
<trkpt lat="54.363996" lon="-3.095750"><ele>227</ele><time>2020-06-12T13:00:33Z</time><name>PT10725</name></trkpt>
<trkpt lat="54.363989" lon="-3.095763"><ele>228</ele><time>2020-06-12T13:00:34Z</time><name>PT10726</name></trkpt>
<trkpt lat="54.363985" lon="-3.095781"><ele>227</ele><time>2020-06-12T13:00:35Z</time><name>PT10727</name></trkpt>
<trkpt lat="54.363980" lon="-3.095800"><ele>227</ele><time>2020-06-12T13:00:36Z</time><name>PT10728</name></trkpt>
<trkpt lat="54.363975" lon="-3.095815"><ele>228</ele><time>2020-06-12T13:00:37Z</time><name>PT10729</name></trkpt>
<trkpt lat="54.363969" lon="-3.095828"><ele>228</ele><time>2020-06-12T13:00:38Z</time><name>PT10730</name></trkpt>
<trkpt lat="54.363963" lon="-3.095838"><ele>228</ele><time>2020-06-12T13:00:39Z</time><name>PT10731</name></trkpt>
<trkpt lat="54.363956" lon="-3.095851"><ele>228</ele><time>2020-06-12T13:00:40Z</time><name>PT10732</name></trkpt>
<trkpt lat="54.363948" lon="-3.095861"><ele>228</ele><time>2020-06-12T13:00:41Z</time><name>PT10733</name></trkpt>
<trkpt lat="54.363939" lon="-3.095870"><ele>228</ele><time>2020-06-12T13:00:42Z</time><name>PT10734</name></trkpt>
<trkpt lat="54.363935" lon="-3.095883"><ele>228</ele><time>2020-06-12T13:00:43Z</time><name>PT10735</name></trkpt>
<trkpt lat="54.363929" lon="-3.095898"><ele>228</ele><time>2020-06-12T13:00:44Z</time><name>PT10736</name></trkpt>
<trkpt lat="54.363923" lon="-3.095913"><ele>228</ele><time>2020-06-12T13:00:45Z</time><name>PT10737</name></trkpt>
<trkpt lat="54.363917" lon="-3.095931"><ele>228</ele><time>2020-06-12T13:00:46Z</time><name>PT10738</name></trkpt>
<trkpt lat="54.363912" lon="-3.095948"><ele>228</ele><time>2020-06-12T13:00:47Z</time><name>PT10739</name></trkpt>
<trkpt lat="54.363906" lon="-3.095961"><ele>229</ele><time>2020-06-12T13:00:48Z</time><name>PT10740</name></trkpt>
<trkpt lat="54.363900" lon="-3.095972"><ele>228</ele><time>2020-06-12T13:00:49Z</time><name>PT10741</name></trkpt>
<trkpt lat="54.363889" lon="-3.095983"><ele>228</ele><time>2020-06-12T13:00:50Z</time><name>PT10742</name></trkpt>
<trkpt lat="54.363882" lon="-3.095992"><ele>228</ele><time>2020-06-12T13:00:51Z</time><name>PT10743</name></trkpt>
<trkpt lat="54.363877" lon="-3.096001"><ele>228</ele><time>2020-06-12T13:00:52Z</time><name>PT10744</name></trkpt>
<trkpt lat="54.363868" lon="-3.096013"><ele>229</ele><time>2020-06-12T13:00:53Z</time><name>PT10745</name></trkpt>
<trkpt lat="54.363859" lon="-3.096022"><ele>229</ele><time>2020-06-12T13:00:54Z</time><name>PT10746</name></trkpt>
<trkpt lat="54.363849" lon="-3.096030"><ele>230</ele><time>2020-06-12T13:00:55Z</time><name>PT10747</name></trkpt>
<trkpt lat="54.363838" lon="-3.096039"><ele>230</ele><time>2020-06-12T13:00:56Z</time><name>PT10748</name></trkpt>
<trkpt lat="54.363828" lon="-3.096050"><ele>230</ele><time>2020-06-12T13:00:57Z</time><name>PT10749</name></trkpt>
<trkpt lat="54.363823" lon="-3.096064"><ele>230</ele><time>2020-06-12T13:00:58Z</time><name>PT10750</name></trkpt>
<trkpt lat="54.363821" lon="-3.096087"><ele>229</ele><time>2020-06-12T13:00:59Z</time><name>PT10751</name></trkpt>
<trkpt lat="54.363811" lon="-3.096104"><ele>230</ele><time>2020-06-12T13:01:00Z</time><name>PT10752</name></trkpt>
<trkpt lat="54.363803" lon="-3.096114"><ele>229</ele><time>2020-06-12T13:01:01Z</time><name>PT10753</name></trkpt>
<trkpt lat="54.363794" lon="-3.096119"><ele>230</ele><time>2020-06-12T13:01:02Z</time><name>PT10754</name></trkpt>
<trkpt lat="54.363786" lon="-3.096141"><ele>231</ele><time>2020-06-12T13:01:03Z</time><name>PT10755</name></trkpt>
<trkpt lat="54.363768" lon="-3.096152"><ele>232</ele><time>2020-06-12T13:01:04Z</time><name>PT10756</name></trkpt>
<trkpt lat="54.363762" lon="-3.096155"><ele>233</ele><time>2020-06-12T13:01:05Z</time><name>PT10757</name></trkpt>
<trkpt lat="54.363758" lon="-3.096160"><ele>233</ele><time>2020-06-12T13:01:06Z</time><name>PT10758</name></trkpt>
<trkpt lat="54.363754" lon="-3.096173"><ele>233</ele><time>2020-06-12T13:01:07Z</time><name>PT10759</name></trkpt>
<trkpt lat="54.363746" lon="-3.096188"><ele>234</ele><time>2020-06-12T13:01:08Z</time><name>PT10760</name></trkpt>
<trkpt lat="54.363736" lon="-3.096205"><ele>234</ele><time>2020-06-12T13:01:09Z</time><name>PT10761</name></trkpt>
<trkpt lat="54.363727" lon="-3.096217"><ele>234</ele><time>2020-06-12T13:01:10Z</time><name>PT10762</name></trkpt>
<trkpt lat="54.363719" lon="-3.096229"><ele>233</ele><time>2020-06-12T13:01:11Z</time><name>PT10763</name></trkpt>
<trkpt lat="54.363706" lon="-3.096235"><ele>233</ele><time>2020-06-12T13:01:12Z</time><name>PT10764</name></trkpt>
<trkpt lat="54.363694" lon="-3.096245"><ele>234</ele><time>2020-06-12T13:01:13Z</time><name>PT10765</name></trkpt>
<trkpt lat="54.363686" lon="-3.096250"><ele>234</ele><time>2020-06-12T13:01:14Z</time><name>PT10766</name></trkpt>
<trkpt lat="54.363679" lon="-3.096257"><ele>234</ele><time>2020-06-12T13:01:15Z</time><name>PT10767</name></trkpt>
<trkpt lat="54.363669" lon="-3.096263"><ele>233</ele><time>2020-06-12T13:01:16Z</time><name>PT10768</name></trkpt>
<trkpt lat="54.363658" lon="-3.096272"><ele>234</ele><time>2020-06-12T13:01:17Z</time><name>PT10769</name></trkpt>
<trkpt lat="54.363650" lon="-3.096284"><ele>234</ele><time>2020-06-12T13:01:18Z</time><name>PT10770</name></trkpt>
<trkpt lat="54.363638" lon="-3.096292"><ele>234</ele><time>2020-06-12T13:01:19Z</time><name>PT10771</name></trkpt>
<trkpt lat="54.363625" lon="-3.096293"><ele>234</ele><time>2020-06-12T13:01:20Z</time><name>PT10772</name></trkpt>
<trkpt lat="54.363614" lon="-3.096298"><ele>234</ele><time>2020-06-12T13:01:21Z</time><name>PT10773</name></trkpt>
<trkpt lat="54.363605" lon="-3.096302"><ele>234</ele><time>2020-06-12T13:01:22Z</time><name>PT10774</name></trkpt>
<trkpt lat="54.363595" lon="-3.096313"><ele>234</ele><time>2020-06-12T13:01:23Z</time><name>PT10775</name></trkpt>
<trkpt lat="54.363585" lon="-3.096327"><ele>235</ele><time>2020-06-12T13:01:24Z</time><name>PT10776</name></trkpt>
<trkpt lat="54.363574" lon="-3.096344"><ele>235</ele><time>2020-06-12T13:01:25Z</time><name>PT10777</name></trkpt>
<trkpt lat="54.363564" lon="-3.096355"><ele>235</ele><time>2020-06-12T13:01:26Z</time><name>PT10778</name></trkpt>
<trkpt lat="54.363555" lon="-3.096366"><ele>236</ele><time>2020-06-12T13:01:27Z</time><name>PT10779</name></trkpt>
<trkpt lat="54.363545" lon="-3.096377"><ele>236</ele><time>2020-06-12T13:01:28Z</time><name>PT10780</name></trkpt>
<trkpt lat="54.363535" lon="-3.096388"><ele>236</ele><time>2020-06-12T13:01:29Z</time><name>PT10781</name></trkpt>
<trkpt lat="54.363526" lon="-3.096401"><ele>237</ele><time>2020-06-12T13:01:30Z</time><name>PT10782</name></trkpt>
<trkpt lat="54.363521" lon="-3.096418"><ele>237</ele><time>2020-06-12T13:01:31Z</time><name>PT10783</name></trkpt>
<trkpt lat="54.363518" lon="-3.096438"><ele>237</ele><time>2020-06-12T13:01:32Z</time><name>PT10784</name></trkpt>
<trkpt lat="54.363514" lon="-3.096454"><ele>237</ele><time>2020-06-12T13:01:33Z</time><name>PT10785</name></trkpt>
<trkpt lat="54.363505" lon="-3.096470"><ele>238</ele><time>2020-06-12T13:01:34Z</time><name>PT10786</name></trkpt>
<trkpt lat="54.363497" lon="-3.096488"><ele>238</ele><time>2020-06-12T13:01:35Z</time><name>PT10787</name></trkpt>
<trkpt lat="54.363489" lon="-3.096504"><ele>238</ele><time>2020-06-12T13:01:36Z</time><name>PT10788</name></trkpt>
<trkpt lat="54.363483" lon="-3.096522"><ele>238</ele><time>2020-06-12T13:01:37Z</time><name>PT10789</name></trkpt>
<trkpt lat="54.363478" lon="-3.096544"><ele>238</ele><time>2020-06-12T13:01:38Z</time><name>PT10790</name></trkpt>
<trkpt lat="54.363474" lon="-3.096566"><ele>239</ele><time>2020-06-12T13:01:39Z</time><name>PT10791</name></trkpt>
<trkpt lat="54.363468" lon="-3.096586"><ele>239</ele><time>2020-06-12T13:01:40Z</time><name>PT10792</name></trkpt>
<trkpt lat="54.363459" lon="-3.096596"><ele>239</ele><time>2020-06-12T13:01:41Z</time><name>PT10793</name></trkpt>
<trkpt lat="54.363454" lon="-3.096607"><ele>239</ele><time>2020-06-12T13:01:42Z</time><name>PT10794</name></trkpt>
<trkpt lat="54.363451" lon="-3.096620"><ele>239</ele><time>2020-06-12T13:01:43Z</time><name>PT10795</name></trkpt>
<trkpt lat="54.363444" lon="-3.096637"><ele>239</ele><time>2020-06-12T13:01:44Z</time><name>PT10796</name></trkpt>
<trkpt lat="54.363435" lon="-3.096649"><ele>240</ele><time>2020-06-12T13:01:45Z</time><name>PT10797</name></trkpt>
<trkpt lat="54.363430" lon="-3.096665"><ele>240</ele><time>2020-06-12T13:01:46Z</time><name>PT10798</name></trkpt>
<trkpt lat="54.363424" lon="-3.096684"><ele>240</ele><time>2020-06-12T13:01:47Z</time><name>PT10799</name></trkpt>
<trkpt lat="54.363420" lon="-3.096702"><ele>240</ele><time>2020-06-12T13:01:48Z</time><name>PT10800</name></trkpt>
<trkpt lat="54.363416" lon="-3.096726"><ele>240</ele><time>2020-06-12T13:01:49Z</time><name>PT10801</name></trkpt>
<trkpt lat="54.363413" lon="-3.096747"><ele>239</ele><time>2020-06-12T13:01:50Z</time><name>PT10802</name></trkpt>
<trkpt lat="54.363406" lon="-3.096762"><ele>240</ele><time>2020-06-12T13:01:51Z</time><name>PT10803</name></trkpt>
<trkpt lat="54.363399" lon="-3.096777"><ele>240</ele><time>2020-06-12T13:01:52Z</time><name>PT10804</name></trkpt>
<trkpt lat="54.363391" lon="-3.096798"><ele>240</ele><time>2020-06-12T13:01:53Z</time><name>PT10805</name></trkpt>
<trkpt lat="54.363386" lon="-3.096815"><ele>240</ele><time>2020-06-12T13:01:54Z</time><name>PT10806</name></trkpt>
<trkpt lat="54.363381" lon="-3.096835"><ele>240</ele><time>2020-06-12T13:01:55Z</time><name>PT10807</name></trkpt>
<trkpt lat="54.363378" lon="-3.096859"><ele>240</ele><time>2020-06-12T13:01:56Z</time><name>PT10808</name></trkpt>
<trkpt lat="54.363373" lon="-3.096878"><ele>240</ele><time>2020-06-12T13:01:57Z</time><name>PT10809</name></trkpt>
<trkpt lat="54.363366" lon="-3.096899"><ele>240</ele><time>2020-06-12T13:01:58Z</time><name>PT10810</name></trkpt>
<trkpt lat="54.363361" lon="-3.096921"><ele>239</ele><time>2020-06-12T13:01:59Z</time><name>PT10811</name></trkpt>
<trkpt lat="54.363355" lon="-3.096949"><ele>239</ele><time>2020-06-12T13:02:00Z</time><name>PT10812</name></trkpt>
<trkpt lat="54.363350" lon="-3.096963"><ele>239</ele><time>2020-06-12T13:02:01Z</time><name>PT10813</name></trkpt>
<trkpt lat="54.363344" lon="-3.096978"><ele>240</ele><time>2020-06-12T13:02:02Z</time><name>PT10814</name></trkpt>
<trkpt lat="54.363342" lon="-3.096990"><ele>239</ele><time>2020-06-12T13:02:03Z</time><name>PT10815</name></trkpt>
<trkpt lat="54.363337" lon="-3.097005"><ele>239</ele><time>2020-06-12T13:02:04Z</time><name>PT10816</name></trkpt>
<trkpt lat="54.363330" lon="-3.097023"><ele>239</ele><time>2020-06-12T13:02:05Z</time><name>PT10817</name></trkpt>
<trkpt lat="54.363321" lon="-3.097036"><ele>239</ele><time>2020-06-12T13:02:06Z</time><name>PT10818</name></trkpt>
<trkpt lat="54.363312" lon="-3.097047"><ele>239</ele><time>2020-06-12T13:02:07Z</time><name>PT10819</name></trkpt>
<trkpt lat="54.363307" lon="-3.097062"><ele>240</ele><time>2020-06-12T13:02:08Z</time><name>PT10820</name></trkpt>
<trkpt lat="54.363304" lon="-3.097073"><ele>240</ele><time>2020-06-12T13:02:09Z</time><name>PT10821</name></trkpt>
<trkpt lat="54.363301" lon="-3.097074"><ele>239</ele><time>2020-06-12T13:02:10Z</time><name>PT10822</name></trkpt>
<trkpt lat="54.363298" lon="-3.097076"><ele>239</ele><time>2020-06-12T13:02:11Z</time><name>PT10823</name></trkpt>
<trkpt lat="54.363292" lon="-3.097078"><ele>239</ele><time>2020-06-12T13:02:12Z</time><name>PT10824</name></trkpt>
<trkpt lat="54.363288" lon="-3.097085"><ele>239</ele><time>2020-06-12T13:02:13Z</time><name>PT10825</name></trkpt>
<trkpt lat="54.363292" lon="-3.097096"><ele>237</ele><time>2020-06-12T13:02:14Z</time><name>PT10826</name></trkpt>
<trkpt lat="54.363292" lon="-3.097095"><ele>237</ele><time>2020-06-12T13:02:15Z</time><name>PT10827</name></trkpt>
<trkpt lat="54.363286" lon="-3.097092"><ele>238</ele><time>2020-06-12T13:02:16Z</time><name>PT10828</name></trkpt>
<trkpt lat="54.363283" lon="-3.097097"><ele>238</ele><time>2020-06-12T13:02:17Z</time><name>PT10829</name></trkpt>
<trkpt lat="54.363280" lon="-3.097101"><ele>238</ele><time>2020-06-12T13:02:18Z</time><name>PT10830</name></trkpt>
<trkpt lat="54.363276" lon="-3.097101"><ele>238</ele><time>2020-06-12T13:02:19Z</time><name>PT10831</name></trkpt>
<trkpt lat="54.363276" lon="-3.097103"><ele>238</ele><time>2020-06-12T13:02:20Z</time><name>PT10832</name></trkpt>
<trkpt lat="54.363273" lon="-3.097102"><ele>238</ele><time>2020-06-12T13:02:41Z</time><name>PT10833</name></trkpt>
<trkpt lat="54.363277" lon="-3.097102"><ele>238</ele><time>2020-06-12T13:02:42Z</time><name>PT10834</name></trkpt>
<trkpt lat="54.363278" lon="-3.097097"><ele>237</ele><time>2020-06-12T13:02:43Z</time><name>PT10835</name></trkpt>
<trkpt lat="54.363276" lon="-3.097099"><ele>237</ele><time>2020-06-12T13:02:44Z</time><name>PT10836</name></trkpt>
<trkpt lat="54.363276" lon="-3.097102"><ele>237</ele><time>2020-06-12T13:02:45Z</time><name>PT10837</name></trkpt>
<trkpt lat="54.363276" lon="-3.097103"><ele>237</ele><time>2020-06-12T13:02:46Z</time><name>PT10838</name></trkpt>
<trkpt lat="54.363275" lon="-3.097099"><ele>237</ele><time>2020-06-12T13:03:10Z</time><name>PT10839</name></trkpt>
<trkpt lat="54.363275" lon="-3.097098"><ele>237</ele><time>2020-06-12T13:03:11Z</time><name>PT10840</name></trkpt>
<trkpt lat="54.363270" lon="-3.097104"><ele>236</ele><time>2020-06-12T13:03:12Z</time><name>PT10841</name></trkpt>
<trkpt lat="54.363267" lon="-3.097112"><ele>237</ele><time>2020-06-12T13:03:17Z</time><name>PT10842</name></trkpt>
<trkpt lat="54.363266" lon="-3.097113"><ele>237</ele><time>2020-06-12T13:03:18Z</time><name>PT10843</name></trkpt>
<trkpt lat="54.363265" lon="-3.097111"><ele>237</ele><time>2020-06-12T13:03:19Z</time><name>PT10844</name></trkpt>
<trkpt lat="54.363266" lon="-3.097109"><ele>237</ele><time>2020-06-12T13:03:44Z</time><name>PT10845</name></trkpt>
<trkpt lat="54.363254" lon="-3.097107"><ele>237</ele><time>2020-06-12T13:03:45Z</time><name>PT10846</name></trkpt>
<trkpt lat="54.363253" lon="-3.097106"><ele>238</ele><time>2020-06-12T13:03:46Z</time><name>PT10847</name></trkpt>
<trkpt lat="54.363250" lon="-3.097117"><ele>239</ele><time>2020-06-12T13:04:16Z</time><name>PT10848</name></trkpt>
<trkpt lat="54.363245" lon="-3.097128"><ele>239</ele><time>2020-06-12T13:04:17Z</time><name>PT10849</name></trkpt>
<trkpt lat="54.363240" lon="-3.097139"><ele>239</ele><time>2020-06-12T13:04:18Z</time><name>PT10850</name></trkpt>
<trkpt lat="54.363235" lon="-3.097148"><ele>239</ele><time>2020-06-12T13:04:19Z</time><name>PT10851</name></trkpt>
<trkpt lat="54.363224" lon="-3.097158"><ele>239</ele><time>2020-06-12T13:04:20Z</time><name>PT10852</name></trkpt>
<trkpt lat="54.363218" lon="-3.097172"><ele>240</ele><time>2020-06-12T13:04:21Z</time><name>PT10853</name></trkpt>
<trkpt lat="54.363211" lon="-3.097188"><ele>240</ele><time>2020-06-12T13:04:22Z</time><name>PT10854</name></trkpt>
<trkpt lat="54.363205" lon="-3.097206"><ele>240</ele><time>2020-06-12T13:04:23Z</time><name>PT10855</name></trkpt>
<trkpt lat="54.363199" lon="-3.097221"><ele>240</ele><time>2020-06-12T13:04:24Z</time><name>PT10856</name></trkpt>
<trkpt lat="54.363193" lon="-3.097237"><ele>241</ele><time>2020-06-12T13:04:25Z</time><name>PT10857</name></trkpt>
<trkpt lat="54.363183" lon="-3.097252"><ele>242</ele><time>2020-06-12T13:04:26Z</time><name>PT10858</name></trkpt>
<trkpt lat="54.363172" lon="-3.097266"><ele>242</ele><time>2020-06-12T13:04:27Z</time><name>PT10859</name></trkpt>
<trkpt lat="54.363166" lon="-3.097280"><ele>242</ele><time>2020-06-12T13:04:28Z</time><name>PT10860</name></trkpt>
<trkpt lat="54.363157" lon="-3.097287"><ele>242</ele><time>2020-06-12T13:04:29Z</time><name>PT10861</name></trkpt>
<trkpt lat="54.363144" lon="-3.097290"><ele>243</ele><time>2020-06-12T13:04:30Z</time><name>PT10862</name></trkpt>
<trkpt lat="54.363139" lon="-3.097306"><ele>243</ele><time>2020-06-12T13:04:31Z</time><name>PT10863</name></trkpt>
<trkpt lat="54.363133" lon="-3.097320"><ele>243</ele><time>2020-06-12T13:04:32Z</time><name>PT10864</name></trkpt>
<trkpt lat="54.363128" lon="-3.097333"><ele>243</ele><time>2020-06-12T13:04:33Z</time><name>PT10865</name></trkpt>
<trkpt lat="54.363122" lon="-3.097354"><ele>243</ele><time>2020-06-12T13:04:34Z</time><name>PT10866</name></trkpt>
<trkpt lat="54.363117" lon="-3.097368"><ele>243</ele><time>2020-06-12T13:04:35Z</time><name>PT10867</name></trkpt>
<trkpt lat="54.363109" lon="-3.097388"><ele>244</ele><time>2020-06-12T13:04:36Z</time><name>PT10868</name></trkpt>
<trkpt lat="54.363103" lon="-3.097405"><ele>244</ele><time>2020-06-12T13:04:37Z</time><name>PT10869</name></trkpt>
<trkpt lat="54.363098" lon="-3.097417"><ele>244</ele><time>2020-06-12T13:04:38Z</time><name>PT10870</name></trkpt>
<trkpt lat="54.363091" lon="-3.097425"><ele>244</ele><time>2020-06-12T13:04:39Z</time><name>PT10871</name></trkpt>
<trkpt lat="54.363084" lon="-3.097436"><ele>244</ele><time>2020-06-12T13:04:40Z</time><name>PT10872</name></trkpt>
<trkpt lat="54.363072" lon="-3.097453"><ele>245</ele><time>2020-06-12T13:04:41Z</time><name>PT10873</name></trkpt>
<trkpt lat="54.363067" lon="-3.097472"><ele>245</ele><time>2020-06-12T13:04:42Z</time><name>PT10874</name></trkpt>
<trkpt lat="54.363064" lon="-3.097489"><ele>245</ele><time>2020-06-12T13:04:43Z</time><name>PT10875</name></trkpt>
<trkpt lat="54.363058" lon="-3.097503"><ele>246</ele><time>2020-06-12T13:04:44Z</time><name>PT10876</name></trkpt>
<trkpt lat="54.363050" lon="-3.097515"><ele>246</ele><time>2020-06-12T13:04:45Z</time><name>PT10877</name></trkpt>
<trkpt lat="54.363042" lon="-3.097527"><ele>246</ele><time>2020-06-12T13:04:46Z</time><name>PT10878</name></trkpt>
<trkpt lat="54.363037" lon="-3.097545"><ele>247</ele><time>2020-06-12T13:04:47Z</time><name>PT10879</name></trkpt>
<trkpt lat="54.363032" lon="-3.097559"><ele>247</ele><time>2020-06-12T13:04:48Z</time><name>PT10880</name></trkpt>
<trkpt lat="54.363022" lon="-3.097575"><ele>248</ele><time>2020-06-12T13:04:49Z</time><name>PT10881</name></trkpt>
<trkpt lat="54.363017" lon="-3.097587"><ele>248</ele><time>2020-06-12T13:04:50Z</time><name>PT10882</name></trkpt>
<trkpt lat="54.363012" lon="-3.097604"><ele>248</ele><time>2020-06-12T13:04:51Z</time><name>PT10883</name></trkpt>
<trkpt lat="54.363007" lon="-3.097621"><ele>248</ele><time>2020-06-12T13:04:52Z</time><name>PT10884</name></trkpt>
<trkpt lat="54.363006" lon="-3.097633"><ele>248</ele><time>2020-06-12T13:04:53Z</time><name>PT10885</name></trkpt>
<trkpt lat="54.363002" lon="-3.097648"><ele>248</ele><time>2020-06-12T13:04:54Z</time><name>PT10886</name></trkpt>
<trkpt lat="54.362995" lon="-3.097664"><ele>248</ele><time>2020-06-12T13:04:55Z</time><name>PT10887</name></trkpt>
<trkpt lat="54.362993" lon="-3.097679"><ele>248</ele><time>2020-06-12T13:04:56Z</time><name>PT10888</name></trkpt>
<trkpt lat="54.362991" lon="-3.097697"><ele>247</ele><time>2020-06-12T13:04:57Z</time><name>PT10889</name></trkpt>
<trkpt lat="54.362986" lon="-3.097715"><ele>247</ele><time>2020-06-12T13:04:58Z</time><name>PT10890</name></trkpt>
<trkpt lat="54.362982" lon="-3.097728"><ele>247</ele><time>2020-06-12T13:04:59Z</time><name>PT10891</name></trkpt>
<trkpt lat="54.362977" lon="-3.097742"><ele>247</ele><time>2020-06-12T13:05:00Z</time><name>PT10892</name></trkpt>
<trkpt lat="54.362971" lon="-3.097754"><ele>247</ele><time>2020-06-12T13:05:01Z</time><name>PT10893</name></trkpt>
<trkpt lat="54.362963" lon="-3.097767"><ele>248</ele><time>2020-06-12T13:05:02Z</time><name>PT10894</name></trkpt>
<trkpt lat="54.362960" lon="-3.097783"><ele>248</ele><time>2020-06-12T13:05:03Z</time><name>PT10895</name></trkpt>
<trkpt lat="54.362958" lon="-3.097802"><ele>247</ele><time>2020-06-12T13:05:04Z</time><name>PT10896</name></trkpt>
<trkpt lat="54.362957" lon="-3.097818"><ele>247</ele><time>2020-06-12T13:05:05Z</time><name>PT10897</name></trkpt>
<trkpt lat="54.362952" lon="-3.097830"><ele>247</ele><time>2020-06-12T13:05:06Z</time><name>PT10898</name></trkpt>
<trkpt lat="54.362949" lon="-3.097848"><ele>247</ele><time>2020-06-12T13:05:07Z</time><name>PT10899</name></trkpt>
<trkpt lat="54.362947" lon="-3.097866"><ele>247</ele><time>2020-06-12T13:05:08Z</time><name>PT10900</name></trkpt>
<trkpt lat="54.362943" lon="-3.097884"><ele>247</ele><time>2020-06-12T13:05:09Z</time><name>PT10901</name></trkpt>
<trkpt lat="54.362939" lon="-3.097902"><ele>247</ele><time>2020-06-12T13:05:10Z</time><name>PT10902</name></trkpt>
<trkpt lat="54.362936" lon="-3.097915"><ele>246</ele><time>2020-06-12T13:05:11Z</time><name>PT10903</name></trkpt>
<trkpt lat="54.362924" lon="-3.097932"><ele>247</ele><time>2020-06-12T13:05:12Z</time><name>PT10904</name></trkpt>
<trkpt lat="54.362921" lon="-3.097948"><ele>247</ele><time>2020-06-12T13:05:13Z</time><name>PT10905</name></trkpt>
<trkpt lat="54.362916" lon="-3.097970"><ele>247</ele><time>2020-06-12T13:05:14Z</time><name>PT10906</name></trkpt>
<trkpt lat="54.362913" lon="-3.097986"><ele>247</ele><time>2020-06-12T13:05:15Z</time><name>PT10907</name></trkpt>
<trkpt lat="54.362910" lon="-3.098001"><ele>247</ele><time>2020-06-12T13:05:16Z</time><name>PT10908</name></trkpt>
<trkpt lat="54.362907" lon="-3.098017"><ele>247</ele><time>2020-06-12T13:05:17Z</time><name>PT10909</name></trkpt>
<trkpt lat="54.362897" lon="-3.098035"><ele>247</ele><time>2020-06-12T13:05:18Z</time><name>PT10910</name></trkpt>
<trkpt lat="54.362891" lon="-3.098054"><ele>247</ele><time>2020-06-12T13:05:19Z</time><name>PT10911</name></trkpt>
<trkpt lat="54.362885" lon="-3.098071"><ele>247</ele><time>2020-06-12T13:05:20Z</time><name>PT10912</name></trkpt>
<trkpt lat="54.362880" lon="-3.098090"><ele>247</ele><time>2020-06-12T13:05:21Z</time><name>PT10913</name></trkpt>
<trkpt lat="54.362875" lon="-3.098107"><ele>247</ele><time>2020-06-12T13:05:22Z</time><name>PT10914</name></trkpt>
<trkpt lat="54.362870" lon="-3.098120"><ele>247</ele><time>2020-06-12T13:05:23Z</time><name>PT10915</name></trkpt>
<trkpt lat="54.362862" lon="-3.098137"><ele>247</ele><time>2020-06-12T13:05:24Z</time><name>PT10916</name></trkpt>
<trkpt lat="54.362855" lon="-3.098149"><ele>248</ele><time>2020-06-12T13:05:25Z</time><name>PT10917</name></trkpt>
<trkpt lat="54.362849" lon="-3.098164"><ele>248</ele><time>2020-06-12T13:05:26Z</time><name>PT10918</name></trkpt>
<trkpt lat="54.362845" lon="-3.098185"><ele>248</ele><time>2020-06-12T13:05:27Z</time><name>PT10919</name></trkpt>
<trkpt lat="54.362841" lon="-3.098205"><ele>247</ele><time>2020-06-12T13:05:28Z</time><name>PT10920</name></trkpt>
<trkpt lat="54.362837" lon="-3.098221"><ele>248</ele><time>2020-06-12T13:05:29Z</time><name>PT10921</name></trkpt>
<trkpt lat="54.362833" lon="-3.098242"><ele>248</ele><time>2020-06-12T13:05:30Z</time><name>PT10922</name></trkpt>
<trkpt lat="54.362828" lon="-3.098260"><ele>248</ele><time>2020-06-12T13:05:31Z</time><name>PT10923</name></trkpt>
<trkpt lat="54.362821" lon="-3.098275"><ele>248</ele><time>2020-06-12T13:05:32Z</time><name>PT10924</name></trkpt>
<trkpt lat="54.362812" lon="-3.098297"><ele>248</ele><time>2020-06-12T13:05:33Z</time><name>PT10925</name></trkpt>
<trkpt lat="54.362805" lon="-3.098314"><ele>249</ele><time>2020-06-12T13:05:34Z</time><name>PT10926</name></trkpt>
<trkpt lat="54.362798" lon="-3.098329"><ele>249</ele><time>2020-06-12T13:05:35Z</time><name>PT10927</name></trkpt>
<trkpt lat="54.362794" lon="-3.098343"><ele>249</ele><time>2020-06-12T13:05:36Z</time><name>PT10928</name></trkpt>
<trkpt lat="54.362789" lon="-3.098367"><ele>249</ele><time>2020-06-12T13:05:37Z</time><name>PT10929</name></trkpt>
<trkpt lat="54.362783" lon="-3.098386"><ele>248</ele><time>2020-06-12T13:05:38Z</time><name>PT10930</name></trkpt>
<trkpt lat="54.362777" lon="-3.098404"><ele>248</ele><time>2020-06-12T13:05:39Z</time><name>PT10931</name></trkpt>
<trkpt lat="54.362775" lon="-3.098422"><ele>248</ele><time>2020-06-12T13:05:40Z</time><name>PT10932</name></trkpt>
<trkpt lat="54.362769" lon="-3.098442"><ele>248</ele><time>2020-06-12T13:05:41Z</time><name>PT10933</name></trkpt>
<trkpt lat="54.362765" lon="-3.098461"><ele>248</ele><time>2020-06-12T13:05:42Z</time><name>PT10934</name></trkpt>
<trkpt lat="54.362762" lon="-3.098479"><ele>249</ele><time>2020-06-12T13:05:43Z</time><name>PT10935</name></trkpt>
<trkpt lat="54.362754" lon="-3.098495"><ele>249</ele><time>2020-06-12T13:05:44Z</time><name>PT10936</name></trkpt>
<trkpt lat="54.362746" lon="-3.098514"><ele>249</ele><time>2020-06-12T13:05:45Z</time><name>PT10937</name></trkpt>
<trkpt lat="54.362740" lon="-3.098534"><ele>249</ele><time>2020-06-12T13:05:46Z</time><name>PT10938</name></trkpt>
<trkpt lat="54.362734" lon="-3.098557"><ele>249</ele><time>2020-06-12T13:05:47Z</time><name>PT10939</name></trkpt>
<trkpt lat="54.362727" lon="-3.098573"><ele>249</ele><time>2020-06-12T13:05:48Z</time><name>PT10940</name></trkpt>
<trkpt lat="54.362720" lon="-3.098589"><ele>249</ele><time>2020-06-12T13:05:49Z</time><name>PT10941</name></trkpt>
<trkpt lat="54.362712" lon="-3.098608"><ele>250</ele><time>2020-06-12T13:05:50Z</time><name>PT10942</name></trkpt>
<trkpt lat="54.362707" lon="-3.098622"><ele>250</ele><time>2020-06-12T13:05:51Z</time><name>PT10943</name></trkpt>
<trkpt lat="54.362699" lon="-3.098639"><ele>250</ele><time>2020-06-12T13:05:52Z</time><name>PT10944</name></trkpt>
<trkpt lat="54.362691" lon="-3.098654"><ele>250</ele><time>2020-06-12T13:05:53Z</time><name>PT10945</name></trkpt>
<trkpt lat="54.362684" lon="-3.098673"><ele>250</ele><time>2020-06-12T13:05:54Z</time><name>PT10946</name></trkpt>
<trkpt lat="54.362674" lon="-3.098692"><ele>250</ele><time>2020-06-12T13:05:55Z</time><name>PT10947</name></trkpt>
<trkpt lat="54.362667" lon="-3.098708"><ele>250</ele><time>2020-06-12T13:05:56Z</time><name>PT10948</name></trkpt>
<trkpt lat="54.362659" lon="-3.098722"><ele>250</ele><time>2020-06-12T13:05:57Z</time><name>PT10949</name></trkpt>
<trkpt lat="54.362650" lon="-3.098740"><ele>250</ele><time>2020-06-12T13:05:58Z</time><name>PT10950</name></trkpt>
<trkpt lat="54.362644" lon="-3.098757"><ele>251</ele><time>2020-06-12T13:05:59Z</time><name>PT10951</name></trkpt>
<trkpt lat="54.362631" lon="-3.098775"><ele>251</ele><time>2020-06-12T13:06:00Z</time><name>PT10952</name></trkpt>
<trkpt lat="54.362625" lon="-3.098787"><ele>251</ele><time>2020-06-12T13:06:01Z</time><name>PT10953</name></trkpt>
<trkpt lat="54.362621" lon="-3.098807"><ele>251</ele><time>2020-06-12T13:06:02Z</time><name>PT10954</name></trkpt>
<trkpt lat="54.362618" lon="-3.098834"><ele>250</ele><time>2020-06-12T13:06:03Z</time><name>PT10955</name></trkpt>
<trkpt lat="54.362613" lon="-3.098848"><ele>251</ele><time>2020-06-12T13:06:04Z</time><name>PT10956</name></trkpt>
<trkpt lat="54.362605" lon="-3.098860"><ele>251</ele><time>2020-06-12T13:06:05Z</time><name>PT10957</name></trkpt>
<trkpt lat="54.362600" lon="-3.098876"><ele>250</ele><time>2020-06-12T13:06:06Z</time><name>PT10958</name></trkpt>
<trkpt lat="54.362594" lon="-3.098897"><ele>250</ele><time>2020-06-12T13:06:07Z</time><name>PT10959</name></trkpt>
<trkpt lat="54.362589" lon="-3.098915"><ele>250</ele><time>2020-06-12T13:06:08Z</time><name>PT10960</name></trkpt>
<trkpt lat="54.362586" lon="-3.098935"><ele>250</ele><time>2020-06-12T13:06:09Z</time><name>PT10961</name></trkpt>
<trkpt lat="54.362582" lon="-3.098954"><ele>251</ele><time>2020-06-12T13:06:10Z</time><name>PT10962</name></trkpt>
<trkpt lat="54.362578" lon="-3.098974"><ele>251</ele><time>2020-06-12T13:06:11Z</time><name>PT10963</name></trkpt>
<trkpt lat="54.362572" lon="-3.098996"><ele>251</ele><time>2020-06-12T13:06:12Z</time><name>PT10964</name></trkpt>
<trkpt lat="54.362572" lon="-3.099006"><ele>251</ele><time>2020-06-12T13:06:13Z</time><name>PT10965</name></trkpt>
<trkpt lat="54.362572" lon="-3.099024"><ele>251</ele><time>2020-06-12T13:06:14Z</time><name>PT10966</name></trkpt>
<trkpt lat="54.362569" lon="-3.099044"><ele>251</ele><time>2020-06-12T13:06:15Z</time><name>PT10967</name></trkpt>
<trkpt lat="54.362568" lon="-3.099062"><ele>251</ele><time>2020-06-12T13:06:16Z</time><name>PT10968</name></trkpt>
<trkpt lat="54.362566" lon="-3.099084"><ele>251</ele><time>2020-06-12T13:06:17Z</time><name>PT10969</name></trkpt>
<trkpt lat="54.362565" lon="-3.099105"><ele>251</ele><time>2020-06-12T13:06:18Z</time><name>PT10970</name></trkpt>
<trkpt lat="54.362562" lon="-3.099124"><ele>252</ele><time>2020-06-12T13:06:19Z</time><name>PT10971</name></trkpt>
<trkpt lat="54.362563" lon="-3.099151"><ele>251</ele><time>2020-06-12T13:06:20Z</time><name>PT10972</name></trkpt>
<trkpt lat="54.362561" lon="-3.099170"><ele>252</ele><time>2020-06-12T13:06:21Z</time><name>PT10973</name></trkpt>
<trkpt lat="54.362559" lon="-3.099191"><ele>252</ele><time>2020-06-12T13:06:22Z</time><name>PT10974</name></trkpt>
<trkpt lat="54.362556" lon="-3.099208"><ele>252</ele><time>2020-06-12T13:06:23Z</time><name>PT10975</name></trkpt>
<trkpt lat="54.362555" lon="-3.099225"><ele>252</ele><time>2020-06-12T13:06:24Z</time><name>PT10976</name></trkpt>
<trkpt lat="54.362557" lon="-3.099244"><ele>252</ele><time>2020-06-12T13:06:25Z</time><name>PT10977</name></trkpt>
<trkpt lat="54.362554" lon="-3.099264"><ele>252</ele><time>2020-06-12T13:06:26Z</time><name>PT10978</name></trkpt>
<trkpt lat="54.362551" lon="-3.099282"><ele>253</ele><time>2020-06-12T13:06:27Z</time><name>PT10979</name></trkpt>
<trkpt lat="54.362550" lon="-3.099298"><ele>253</ele><time>2020-06-12T13:06:28Z</time><name>PT10980</name></trkpt>
<trkpt lat="54.362549" lon="-3.099318"><ele>253</ele><time>2020-06-12T13:06:29Z</time><name>PT10981</name></trkpt>
<trkpt lat="54.362547" lon="-3.099340"><ele>253</ele><time>2020-06-12T13:06:30Z</time><name>PT10982</name></trkpt>
<trkpt lat="54.362545" lon="-3.099357"><ele>254</ele><time>2020-06-12T13:06:31Z</time><name>PT10983</name></trkpt>
<trkpt lat="54.362541" lon="-3.099372"><ele>254</ele><time>2020-06-12T13:06:32Z</time><name>PT10984</name></trkpt>
<trkpt lat="54.362537" lon="-3.099388"><ele>254</ele><time>2020-06-12T13:06:33Z</time><name>PT10985</name></trkpt>
<trkpt lat="54.362533" lon="-3.099406"><ele>254</ele><time>2020-06-12T13:06:34Z</time><name>PT10986</name></trkpt>
<trkpt lat="54.362532" lon="-3.099421"><ele>254</ele><time>2020-06-12T13:06:35Z</time><name>PT10987</name></trkpt>
<trkpt lat="54.362529" lon="-3.099441"><ele>254</ele><time>2020-06-12T13:06:36Z</time><name>PT10988</name></trkpt>
<trkpt lat="54.362528" lon="-3.099462"><ele>254</ele><time>2020-06-12T13:06:37Z</time><name>PT10989</name></trkpt>
<trkpt lat="54.362527" lon="-3.099478"><ele>254</ele><time>2020-06-12T13:06:38Z</time><name>PT10990</name></trkpt>
<trkpt lat="54.362527" lon="-3.099490"><ele>254</ele><time>2020-06-12T13:06:39Z</time><name>PT10991</name></trkpt>
<trkpt lat="54.362522" lon="-3.099507"><ele>254</ele><time>2020-06-12T13:06:40Z</time><name>PT10992</name></trkpt>
<trkpt lat="54.362518" lon="-3.099526"><ele>254</ele><time>2020-06-12T13:06:41Z</time><name>PT10993</name></trkpt>
<trkpt lat="54.362517" lon="-3.099545"><ele>253</ele><time>2020-06-12T13:06:42Z</time><name>PT10994</name></trkpt>
<trkpt lat="54.362516" lon="-3.099570"><ele>253</ele><time>2020-06-12T13:06:43Z</time><name>PT10995</name></trkpt>
<trkpt lat="54.362514" lon="-3.099585"><ele>253</ele><time>2020-06-12T13:06:44Z</time><name>PT10996</name></trkpt>
<trkpt lat="54.362512" lon="-3.099600"><ele>253</ele><time>2020-06-12T13:06:45Z</time><name>PT10997</name></trkpt>
<trkpt lat="54.362508" lon="-3.099616"><ele>253</ele><time>2020-06-12T13:06:46Z</time><name>PT10998</name></trkpt>
<trkpt lat="54.362504" lon="-3.099629"><ele>253</ele><time>2020-06-12T13:06:47Z</time><name>PT10999</name></trkpt>
<trkpt lat="54.362502" lon="-3.099643"><ele>253</ele><time>2020-06-12T13:06:48Z</time><name>PT11000</name></trkpt>
<trkpt lat="54.362501" lon="-3.099660"><ele>253</ele><time>2020-06-12T13:06:49Z</time><name>PT11001</name></trkpt>
<trkpt lat="54.362501" lon="-3.099671"><ele>253</ele><time>2020-06-12T13:06:50Z</time><name>PT11002</name></trkpt>
<trkpt lat="54.362500" lon="-3.099685"><ele>253</ele><time>2020-06-12T13:06:51Z</time><name>PT11003</name></trkpt>
<trkpt lat="54.362496" lon="-3.099699"><ele>253</ele><time>2020-06-12T13:06:52Z</time><name>PT11004</name></trkpt>
<trkpt lat="54.362493" lon="-3.099714"><ele>253</ele><time>2020-06-12T13:06:53Z</time><name>PT11005</name></trkpt>
<trkpt lat="54.362492" lon="-3.099729"><ele>253</ele><time>2020-06-12T13:06:54Z</time><name>PT11006</name></trkpt>
<trkpt lat="54.362489" lon="-3.099743"><ele>253</ele><time>2020-06-12T13:06:55Z</time><name>PT11007</name></trkpt>
<trkpt lat="54.362486" lon="-3.099756"><ele>253</ele><time>2020-06-12T13:06:56Z</time><name>PT11008</name></trkpt>
<trkpt lat="54.362484" lon="-3.099771"><ele>253</ele><time>2020-06-12T13:06:57Z</time><name>PT11009</name></trkpt>
<trkpt lat="54.362486" lon="-3.099785"><ele>253</ele><time>2020-06-12T13:06:58Z</time><name>PT11010</name></trkpt>
<trkpt lat="54.362488" lon="-3.099802"><ele>254</ele><time>2020-06-12T13:06:59Z</time><name>PT11011</name></trkpt>
<trkpt lat="54.362489" lon="-3.099816"><ele>254</ele><time>2020-06-12T13:07:00Z</time><name>PT11012</name></trkpt>
<trkpt lat="54.362490" lon="-3.099832"><ele>254</ele><time>2020-06-12T13:07:01Z</time><name>PT11013</name></trkpt>
<trkpt lat="54.362489" lon="-3.099852"><ele>255</ele><time>2020-06-12T13:07:02Z</time><name>PT11014</name></trkpt>
<trkpt lat="54.362488" lon="-3.099870"><ele>255</ele><time>2020-06-12T13:07:03Z</time><name>PT11015</name></trkpt>
<trkpt lat="54.362488" lon="-3.099889"><ele>255</ele><time>2020-06-12T13:07:04Z</time><name>PT11016</name></trkpt>
<trkpt lat="54.362484" lon="-3.099906"><ele>255</ele><time>2020-06-12T13:07:05Z</time><name>PT11017</name></trkpt>
<trkpt lat="54.362483" lon="-3.099919"><ele>256</ele><time>2020-06-12T13:07:06Z</time><name>PT11018</name></trkpt>
<trkpt lat="54.362480" lon="-3.099937"><ele>256</ele><time>2020-06-12T13:07:07Z</time><name>PT11019</name></trkpt>
<trkpt lat="54.362477" lon="-3.099953"><ele>255</ele><time>2020-06-12T13:07:08Z</time><name>PT11020</name></trkpt>
<trkpt lat="54.362473" lon="-3.099968"><ele>255</ele><time>2020-06-12T13:07:09Z</time><name>PT11021</name></trkpt>
<trkpt lat="54.362471" lon="-3.099985"><ele>255</ele><time>2020-06-12T13:07:10Z</time><name>PT11022</name></trkpt>
<trkpt lat="54.362468" lon="-3.099998"><ele>255</ele><time>2020-06-12T13:07:11Z</time><name>PT11023</name></trkpt>
<trkpt lat="54.362464" lon="-3.100015"><ele>254</ele><time>2020-06-12T13:07:12Z</time><name>PT11024</name></trkpt>
<trkpt lat="54.362461" lon="-3.100033"><ele>255</ele><time>2020-06-12T13:07:13Z</time><name>PT11025</name></trkpt>
<trkpt lat="54.362459" lon="-3.100051"><ele>254</ele><time>2020-06-12T13:07:14Z</time><name>PT11026</name></trkpt>
<trkpt lat="54.362457" lon="-3.100067"><ele>254</ele><time>2020-06-12T13:07:15Z</time><name>PT11027</name></trkpt>
<trkpt lat="54.362455" lon="-3.100082"><ele>255</ele><time>2020-06-12T13:07:16Z</time><name>PT11028</name></trkpt>
<trkpt lat="54.362453" lon="-3.100099"><ele>254</ele><time>2020-06-12T13:07:17Z</time><name>PT11029</name></trkpt>
<trkpt lat="54.362451" lon="-3.100115"><ele>255</ele><time>2020-06-12T13:07:18Z</time><name>PT11030</name></trkpt>
<trkpt lat="54.362448" lon="-3.100131"><ele>255</ele><time>2020-06-12T13:07:19Z</time><name>PT11031</name></trkpt>
<trkpt lat="54.362443" lon="-3.100149"><ele>255</ele><time>2020-06-12T13:07:20Z</time><name>PT11032</name></trkpt>
<trkpt lat="54.362443" lon="-3.100167"><ele>255</ele><time>2020-06-12T13:07:21Z</time><name>PT11033</name></trkpt>
<trkpt lat="54.362440" lon="-3.100184"><ele>255</ele><time>2020-06-12T13:07:22Z</time><name>PT11034</name></trkpt>
<trkpt lat="54.362439" lon="-3.100200"><ele>255</ele><time>2020-06-12T13:07:23Z</time><name>PT11035</name></trkpt>
<trkpt lat="54.362434" lon="-3.100225"><ele>256</ele><time>2020-06-12T13:07:24Z</time><name>PT11036</name></trkpt>
<trkpt lat="54.362434" lon="-3.100243"><ele>256</ele><time>2020-06-12T13:07:25Z</time><name>PT11037</name></trkpt>
<trkpt lat="54.362428" lon="-3.100261"><ele>256</ele><time>2020-06-12T13:07:26Z</time><name>PT11038</name></trkpt>
<trkpt lat="54.362423" lon="-3.100279"><ele>256</ele><time>2020-06-12T13:07:27Z</time><name>PT11039</name></trkpt>
<trkpt lat="54.362423" lon="-3.100298"><ele>256</ele><time>2020-06-12T13:07:28Z</time><name>PT11040</name></trkpt>
<trkpt lat="54.362421" lon="-3.100317"><ele>256</ele><time>2020-06-12T13:07:29Z</time><name>PT11041</name></trkpt>
<trkpt lat="54.362421" lon="-3.100336"><ele>256</ele><time>2020-06-12T13:07:30Z</time><name>PT11042</name></trkpt>
<trkpt lat="54.362422" lon="-3.100357"><ele>257</ele><time>2020-06-12T13:07:31Z</time><name>PT11043</name></trkpt>
<trkpt lat="54.362423" lon="-3.100380"><ele>257</ele><time>2020-06-12T13:07:32Z</time><name>PT11044</name></trkpt>
<trkpt lat="54.362424" lon="-3.100402"><ele>257</ele><time>2020-06-12T13:07:33Z</time><name>PT11045</name></trkpt>
<trkpt lat="54.362424" lon="-3.100422"><ele>257</ele><time>2020-06-12T13:07:34Z</time><name>PT11046</name></trkpt>
<trkpt lat="54.362424" lon="-3.100442"><ele>257</ele><time>2020-06-12T13:07:35Z</time><name>PT11047</name></trkpt>
<trkpt lat="54.362424" lon="-3.100461"><ele>257</ele><time>2020-06-12T13:07:36Z</time><name>PT11048</name></trkpt>
<trkpt lat="54.362426" lon="-3.100476"><ele>257</ele><time>2020-06-12T13:07:37Z</time><name>PT11049</name></trkpt>
<trkpt lat="54.362429" lon="-3.100491"><ele>257</ele><time>2020-06-12T13:07:38Z</time><name>PT11050</name></trkpt>
<trkpt lat="54.362428" lon="-3.100510"><ele>257</ele><time>2020-06-12T13:07:39Z</time><name>PT11051</name></trkpt>
<trkpt lat="54.362430" lon="-3.100526"><ele>257</ele><time>2020-06-12T13:07:40Z</time><name>PT11052</name></trkpt>
<trkpt lat="54.362433" lon="-3.100536"><ele>257</ele><time>2020-06-12T13:07:41Z</time><name>PT11053</name></trkpt>
<trkpt lat="54.362437" lon="-3.100555"><ele>257</ele><time>2020-06-12T13:07:42Z</time><name>PT11054</name></trkpt>
<trkpt lat="54.362442" lon="-3.100572"><ele>257</ele><time>2020-06-12T13:07:43Z</time><name>PT11055</name></trkpt>
<trkpt lat="54.362446" lon="-3.100589"><ele>257</ele><time>2020-06-12T13:07:44Z</time><name>PT11056</name></trkpt>
<trkpt lat="54.362447" lon="-3.100606"><ele>257</ele><time>2020-06-12T13:07:45Z</time><name>PT11057</name></trkpt>
<trkpt lat="54.362450" lon="-3.100621"><ele>257</ele><time>2020-06-12T13:07:46Z</time><name>PT11058</name></trkpt>
<trkpt lat="54.362452" lon="-3.100639"><ele>257</ele><time>2020-06-12T13:07:47Z</time><name>PT11059</name></trkpt>
<trkpt lat="54.362456" lon="-3.100656"><ele>257</ele><time>2020-06-12T13:07:48Z</time><name>PT11060</name></trkpt>
<trkpt lat="54.362455" lon="-3.100678"><ele>257</ele><time>2020-06-12T13:07:49Z</time><name>PT11061</name></trkpt>
<trkpt lat="54.362457" lon="-3.100700"><ele>258</ele><time>2020-06-12T13:07:50Z</time><name>PT11062</name></trkpt>
<trkpt lat="54.362458" lon="-3.100717"><ele>258</ele><time>2020-06-12T13:07:51Z</time><name>PT11063</name></trkpt>
<trkpt lat="54.362460" lon="-3.100734"><ele>258</ele><time>2020-06-12T13:07:52Z</time><name>PT11064</name></trkpt>
<trkpt lat="54.362461" lon="-3.100751"><ele>258</ele><time>2020-06-12T13:07:53Z</time><name>PT11065</name></trkpt>
<trkpt lat="54.362465" lon="-3.100771"><ele>259</ele><time>2020-06-12T13:07:54Z</time><name>PT11066</name></trkpt>
<trkpt lat="54.362467" lon="-3.100790"><ele>259</ele><time>2020-06-12T13:07:55Z</time><name>PT11067</name></trkpt>
<trkpt lat="54.362469" lon="-3.100807"><ele>260</ele><time>2020-06-12T13:07:56Z</time><name>PT11068</name></trkpt>
<trkpt lat="54.362471" lon="-3.100823"><ele>260</ele><time>2020-06-12T13:07:57Z</time><name>PT11069</name></trkpt>
<trkpt lat="54.362471" lon="-3.100842"><ele>260</ele><time>2020-06-12T13:07:58Z</time><name>PT11070</name></trkpt>
<trkpt lat="54.362471" lon="-3.100862"><ele>261</ele><time>2020-06-12T13:07:59Z</time><name>PT11071</name></trkpt>
<trkpt lat="54.362471" lon="-3.100882"><ele>261</ele><time>2020-06-12T13:08:00Z</time><name>PT11072</name></trkpt>
<trkpt lat="54.362471" lon="-3.100898"><ele>261</ele><time>2020-06-12T13:08:01Z</time><name>PT11073</name></trkpt>
<trkpt lat="54.362471" lon="-3.100914"><ele>262</ele><time>2020-06-12T13:08:02Z</time><name>PT11074</name></trkpt>
<trkpt lat="54.362471" lon="-3.100930"><ele>263</ele><time>2020-06-12T13:08:03Z</time><name>PT11075</name></trkpt>
<trkpt lat="54.362472" lon="-3.100951"><ele>263</ele><time>2020-06-12T13:08:04Z</time><name>PT11076</name></trkpt>
<trkpt lat="54.362473" lon="-3.100970"><ele>263</ele><time>2020-06-12T13:08:05Z</time><name>PT11077</name></trkpt>
<trkpt lat="54.362472" lon="-3.100987"><ele>263</ele><time>2020-06-12T13:08:06Z</time><name>PT11078</name></trkpt>
<trkpt lat="54.362473" lon="-3.101008"><ele>263</ele><time>2020-06-12T13:08:07Z</time><name>PT11079</name></trkpt>
<trkpt lat="54.362475" lon="-3.101026"><ele>264</ele><time>2020-06-12T13:08:08Z</time><name>PT11080</name></trkpt>
<trkpt lat="54.362476" lon="-3.101044"><ele>264</ele><time>2020-06-12T13:08:09Z</time><name>PT11081</name></trkpt>
<trkpt lat="54.362478" lon="-3.101056"><ele>264</ele><time>2020-06-12T13:08:10Z</time><name>PT11082</name></trkpt>
<trkpt lat="54.362480" lon="-3.101072"><ele>264</ele><time>2020-06-12T13:08:11Z</time><name>PT11083</name></trkpt>
<trkpt lat="54.362485" lon="-3.101097"><ele>265</ele><time>2020-06-12T13:08:12Z</time><name>PT11084</name></trkpt>
<trkpt lat="54.362487" lon="-3.101122"><ele>265</ele><time>2020-06-12T13:08:13Z</time><name>PT11085</name></trkpt>
<trkpt lat="54.362489" lon="-3.101144"><ele>265</ele><time>2020-06-12T13:08:14Z</time><name>PT11086</name></trkpt>
<trkpt lat="54.362494" lon="-3.101163"><ele>265</ele><time>2020-06-12T13:08:15Z</time><name>PT11087</name></trkpt>
<trkpt lat="54.362498" lon="-3.101180"><ele>266</ele><time>2020-06-12T13:08:16Z</time><name>PT11088</name></trkpt>
<trkpt lat="54.362502" lon="-3.101197"><ele>266</ele><time>2020-06-12T13:08:17Z</time><name>PT11089</name></trkpt>
<trkpt lat="54.362507" lon="-3.101219"><ele>265</ele><time>2020-06-12T13:08:18Z</time><name>PT11090</name></trkpt>
<trkpt lat="54.362511" lon="-3.101237"><ele>265</ele><time>2020-06-12T13:08:19Z</time><name>PT11091</name></trkpt>
<trkpt lat="54.362518" lon="-3.101253"><ele>265</ele><time>2020-06-12T13:08:20Z</time><name>PT11092</name></trkpt>
<trkpt lat="54.362525" lon="-3.101266"><ele>265</ele><time>2020-06-12T13:08:21Z</time><name>PT11093</name></trkpt>
<trkpt lat="54.362528" lon="-3.101284"><ele>265</ele><time>2020-06-12T13:08:22Z</time><name>PT11094</name></trkpt>
<trkpt lat="54.362534" lon="-3.101300"><ele>265</ele><time>2020-06-12T13:08:23Z</time><name>PT11095</name></trkpt>
<trkpt lat="54.362541" lon="-3.101315"><ele>264</ele><time>2020-06-12T13:08:24Z</time><name>PT11096</name></trkpt>
<trkpt lat="54.362550" lon="-3.101333"><ele>264</ele><time>2020-06-12T13:08:25Z</time><name>PT11097</name></trkpt>
<trkpt lat="54.362557" lon="-3.101347"><ele>264</ele><time>2020-06-12T13:08:26Z</time><name>PT11098</name></trkpt>
<trkpt lat="54.362564" lon="-3.101358"><ele>265</ele><time>2020-06-12T13:08:27Z</time><name>PT11099</name></trkpt>
<trkpt lat="54.362571" lon="-3.101373"><ele>264</ele><time>2020-06-12T13:08:28Z</time><name>PT11100</name></trkpt>
<trkpt lat="54.362580" lon="-3.101390"><ele>264</ele><time>2020-06-12T13:08:29Z</time><name>PT11101</name></trkpt>
<trkpt lat="54.362586" lon="-3.101406"><ele>264</ele><time>2020-06-12T13:08:30Z</time><name>PT11102</name></trkpt>
<trkpt lat="54.362595" lon="-3.101421"><ele>264</ele><time>2020-06-12T13:08:31Z</time><name>PT11103</name></trkpt>
<trkpt lat="54.362604" lon="-3.101433"><ele>264</ele><time>2020-06-12T13:08:32Z</time><name>PT11104</name></trkpt>
<trkpt lat="54.362611" lon="-3.101446"><ele>264</ele><time>2020-06-12T13:08:33Z</time><name>PT11105</name></trkpt>
<trkpt lat="54.362618" lon="-3.101462"><ele>264</ele><time>2020-06-12T13:08:34Z</time><name>PT11106</name></trkpt>
<trkpt lat="54.362626" lon="-3.101477"><ele>264</ele><time>2020-06-12T13:08:35Z</time><name>PT11107</name></trkpt>
<trkpt lat="54.362637" lon="-3.101497"><ele>264</ele><time>2020-06-12T13:08:36Z</time><name>PT11108</name></trkpt>
<trkpt lat="54.362644" lon="-3.101517"><ele>264</ele><time>2020-06-12T13:08:37Z</time><name>PT11109</name></trkpt>
<trkpt lat="54.362650" lon="-3.101532"><ele>264</ele><time>2020-06-12T13:08:38Z</time><name>PT11110</name></trkpt>
<trkpt lat="54.362655" lon="-3.101548"><ele>264</ele><time>2020-06-12T13:08:39Z</time><name>PT11111</name></trkpt>
<trkpt lat="54.362662" lon="-3.101568"><ele>264</ele><time>2020-06-12T13:08:40Z</time><name>PT11112</name></trkpt>
<trkpt lat="54.362669" lon="-3.101586"><ele>264</ele><time>2020-06-12T13:08:41Z</time><name>PT11113</name></trkpt>
<trkpt lat="54.362679" lon="-3.101606"><ele>264</ele><time>2020-06-12T13:08:42Z</time><name>PT11114</name></trkpt>
<trkpt lat="54.362685" lon="-3.101622"><ele>264</ele><time>2020-06-12T13:08:43Z</time><name>PT11115</name></trkpt>
<trkpt lat="54.362690" lon="-3.101638"><ele>264</ele><time>2020-06-12T13:08:44Z</time><name>PT11116</name></trkpt>
<trkpt lat="54.362693" lon="-3.101652"><ele>264</ele><time>2020-06-12T13:08:45Z</time><name>PT11117</name></trkpt>
<trkpt lat="54.362696" lon="-3.101671"><ele>264</ele><time>2020-06-12T13:08:46Z</time><name>PT11118</name></trkpt>
<trkpt lat="54.362702" lon="-3.101693"><ele>265</ele><time>2020-06-12T13:08:47Z</time><name>PT11119</name></trkpt>
<trkpt lat="54.362702" lon="-3.101710"><ele>264</ele><time>2020-06-12T13:08:48Z</time><name>PT11120</name></trkpt>
<trkpt lat="54.362702" lon="-3.101729"><ele>264</ele><time>2020-06-12T13:08:49Z</time><name>PT11121</name></trkpt>
<trkpt lat="54.362703" lon="-3.101745"><ele>264</ele><time>2020-06-12T13:08:50Z</time><name>PT11122</name></trkpt>
<trkpt lat="54.362705" lon="-3.101764"><ele>265</ele><time>2020-06-12T13:08:51Z</time><name>PT11123</name></trkpt>
<trkpt lat="54.362707" lon="-3.101783"><ele>265</ele><time>2020-06-12T13:08:52Z</time><name>PT11124</name></trkpt>
<trkpt lat="54.362704" lon="-3.101802"><ele>265</ele><time>2020-06-12T13:08:53Z</time><name>PT11125</name></trkpt>
<trkpt lat="54.362697" lon="-3.101820"><ele>265</ele><time>2020-06-12T13:08:54Z</time><name>PT11126</name></trkpt>
<trkpt lat="54.362693" lon="-3.101838"><ele>265</ele><time>2020-06-12T13:08:55Z</time><name>PT11127</name></trkpt>
<trkpt lat="54.362694" lon="-3.101854"><ele>265</ele><time>2020-06-12T13:08:56Z</time><name>PT11128</name></trkpt>
<trkpt lat="54.362693" lon="-3.101873"><ele>265</ele><time>2020-06-12T13:08:57Z</time><name>PT11129</name></trkpt>
<trkpt lat="54.362689" lon="-3.101891"><ele>265</ele><time>2020-06-12T13:08:58Z</time><name>PT11130</name></trkpt>
<trkpt lat="54.362683" lon="-3.101911"><ele>265</ele><time>2020-06-12T13:08:59Z</time><name>PT11131</name></trkpt>
<trkpt lat="54.362677" lon="-3.101932"><ele>265</ele><time>2020-06-12T13:09:00Z</time><name>PT11132</name></trkpt>
<trkpt lat="54.362672" lon="-3.101944"><ele>265</ele><time>2020-06-12T13:09:01Z</time><name>PT11133</name></trkpt>
<trkpt lat="54.362666" lon="-3.101963"><ele>265</ele><time>2020-06-12T13:09:02Z</time><name>PT11134</name></trkpt>
<trkpt lat="54.362661" lon="-3.101980"><ele>265</ele><time>2020-06-12T13:09:03Z</time><name>PT11135</name></trkpt>
<trkpt lat="54.362655" lon="-3.101997"><ele>265</ele><time>2020-06-12T13:09:04Z</time><name>PT11136</name></trkpt>
<trkpt lat="54.362649" lon="-3.102011"><ele>266</ele><time>2020-06-12T13:09:05Z</time><name>PT11137</name></trkpt>
<trkpt lat="54.362644" lon="-3.102029"><ele>266</ele><time>2020-06-12T13:09:06Z</time><name>PT11138</name></trkpt>
<trkpt lat="54.362640" lon="-3.102047"><ele>266</ele><time>2020-06-12T13:09:07Z</time><name>PT11139</name></trkpt>
<trkpt lat="54.362637" lon="-3.102063"><ele>266</ele><time>2020-06-12T13:09:08Z</time><name>PT11140</name></trkpt>
<trkpt lat="54.362638" lon="-3.102083"><ele>265</ele><time>2020-06-12T13:09:09Z</time><name>PT11141</name></trkpt>
<trkpt lat="54.362636" lon="-3.102092"><ele>266</ele><time>2020-06-12T13:09:10Z</time><name>PT11142</name></trkpt>
<trkpt lat="54.362632" lon="-3.102102"><ele>265</ele><time>2020-06-12T13:09:11Z</time><name>PT11143</name></trkpt>
<trkpt lat="54.362630" lon="-3.102114"><ele>265</ele><time>2020-06-12T13:09:12Z</time><name>PT11144</name></trkpt>
<trkpt lat="54.362625" lon="-3.102132"><ele>265</ele><time>2020-06-12T13:09:13Z</time><name>PT11145</name></trkpt>
<trkpt lat="54.362623" lon="-3.102149"><ele>265</ele><time>2020-06-12T13:09:14Z</time><name>PT11146</name></trkpt>
<trkpt lat="54.362621" lon="-3.102169"><ele>265</ele><time>2020-06-12T13:09:15Z</time><name>PT11147</name></trkpt>
<trkpt lat="54.362607" lon="-3.102199"><ele>266</ele><time>2020-06-12T13:09:16Z</time><name>PT11148</name></trkpt>
<trkpt lat="54.362598" lon="-3.102235"><ele>266</ele><time>2020-06-12T13:09:17Z</time><name>PT11149</name></trkpt>
<trkpt lat="54.362590" lon="-3.102260"><ele>266</ele><time>2020-06-12T13:09:18Z</time><name>PT11150</name></trkpt>
<trkpt lat="54.362585" lon="-3.102276"><ele>266</ele><time>2020-06-12T13:09:19Z</time><name>PT11151</name></trkpt>
<trkpt lat="54.362583" lon="-3.102290"><ele>266</ele><time>2020-06-12T13:09:20Z</time><name>PT11152</name></trkpt>
<trkpt lat="54.362579" lon="-3.102310"><ele>266</ele><time>2020-06-12T13:09:21Z</time><name>PT11153</name></trkpt>
<trkpt lat="54.362577" lon="-3.102326"><ele>266</ele><time>2020-06-12T13:09:22Z</time><name>PT11154</name></trkpt>
<trkpt lat="54.362574" lon="-3.102341"><ele>266</ele><time>2020-06-12T13:09:23Z</time><name>PT11155</name></trkpt>
<trkpt lat="54.362570" lon="-3.102361"><ele>266</ele><time>2020-06-12T13:09:24Z</time><name>PT11156</name></trkpt>
<trkpt lat="54.362567" lon="-3.102380"><ele>266</ele><time>2020-06-12T13:09:25Z</time><name>PT11157</name></trkpt>
<trkpt lat="54.362564" lon="-3.102398"><ele>266</ele><time>2020-06-12T13:09:26Z</time><name>PT11158</name></trkpt>
<trkpt lat="54.362561" lon="-3.102421"><ele>267</ele><time>2020-06-12T13:09:27Z</time><name>PT11159</name></trkpt>
<trkpt lat="54.362557" lon="-3.102442"><ele>267</ele><time>2020-06-12T13:09:28Z</time><name>PT11160</name></trkpt>
<trkpt lat="54.362554" lon="-3.102458"><ele>267</ele><time>2020-06-12T13:09:29Z</time><name>PT11161</name></trkpt>
<trkpt lat="54.362555" lon="-3.102476"><ele>267</ele><time>2020-06-12T13:09:30Z</time><name>PT11162</name></trkpt>
<trkpt lat="54.362555" lon="-3.102498"><ele>267</ele><time>2020-06-12T13:09:31Z</time><name>PT11163</name></trkpt>
<trkpt lat="54.362555" lon="-3.102515"><ele>267</ele><time>2020-06-12T13:09:32Z</time><name>PT11164</name></trkpt>
<trkpt lat="54.362555" lon="-3.102532"><ele>267</ele><time>2020-06-12T13:09:33Z</time><name>PT11165</name></trkpt>
<trkpt lat="54.362552" lon="-3.102555"><ele>268</ele><time>2020-06-12T13:09:34Z</time><name>PT11166</name></trkpt>
<trkpt lat="54.362552" lon="-3.102572"><ele>268</ele><time>2020-06-12T13:09:35Z</time><name>PT11167</name></trkpt>
<trkpt lat="54.362551" lon="-3.102583"><ele>268</ele><time>2020-06-12T13:09:36Z</time><name>PT11168</name></trkpt>
<trkpt lat="54.362551" lon="-3.102597"><ele>268</ele><time>2020-06-12T13:09:37Z</time><name>PT11169</name></trkpt>
<trkpt lat="54.362553" lon="-3.102610"><ele>269</ele><time>2020-06-12T13:09:38Z</time><name>PT11170</name></trkpt>
<trkpt lat="54.362553" lon="-3.102626"><ele>268</ele><time>2020-06-12T13:09:39Z</time><name>PT11171</name></trkpt>
<trkpt lat="54.362549" lon="-3.102644"><ele>269</ele><time>2020-06-12T13:09:40Z</time><name>PT11172</name></trkpt>
<trkpt lat="54.362548" lon="-3.102657"><ele>269</ele><time>2020-06-12T13:09:41Z</time><name>PT11173</name></trkpt>
<trkpt lat="54.362548" lon="-3.102676"><ele>269</ele><time>2020-06-12T13:09:42Z</time><name>PT11174</name></trkpt>
<trkpt lat="54.362549" lon="-3.102696"><ele>269</ele><time>2020-06-12T13:09:43Z</time><name>PT11175</name></trkpt>
<trkpt lat="54.362548" lon="-3.102717"><ele>269</ele><time>2020-06-12T13:09:44Z</time><name>PT11176</name></trkpt>
<trkpt lat="54.362546" lon="-3.102737"><ele>269</ele><time>2020-06-12T13:09:45Z</time><name>PT11177</name></trkpt>
<trkpt lat="54.362539" lon="-3.102746"><ele>269</ele><time>2020-06-12T13:09:46Z</time><name>PT11178</name></trkpt>
<trkpt lat="54.362533" lon="-3.102753"><ele>270</ele><time>2020-06-12T13:09:47Z</time><name>PT11179</name></trkpt>
<trkpt lat="54.362530" lon="-3.102772"><ele>270</ele><time>2020-06-12T13:09:48Z</time><name>PT11180</name></trkpt>
<trkpt lat="54.362527" lon="-3.102790"><ele>270</ele><time>2020-06-12T13:09:49Z</time><name>PT11181</name></trkpt>
<trkpt lat="54.362524" lon="-3.102809"><ele>271</ele><time>2020-06-12T13:09:50Z</time><name>PT11182</name></trkpt>
<trkpt lat="54.362517" lon="-3.102833"><ele>271</ele><time>2020-06-12T13:09:51Z</time><name>PT11183</name></trkpt>
<trkpt lat="54.362516" lon="-3.102846"><ele>271</ele><time>2020-06-12T13:09:52Z</time><name>PT11184</name></trkpt>
<trkpt lat="54.362515" lon="-3.102861"><ele>271</ele><time>2020-06-12T13:09:53Z</time><name>PT11185</name></trkpt>
<trkpt lat="54.362516" lon="-3.102878"><ele>271</ele><time>2020-06-12T13:09:54Z</time><name>PT11186</name></trkpt>
<trkpt lat="54.362516" lon="-3.102892"><ele>272</ele><time>2020-06-12T13:09:55Z</time><name>PT11187</name></trkpt>
<trkpt lat="54.362516" lon="-3.102901"><ele>272</ele><time>2020-06-12T13:09:56Z</time><name>PT11188</name></trkpt>
<trkpt lat="54.362519" lon="-3.102914"><ele>272</ele><time>2020-06-12T13:09:57Z</time><name>PT11189</name></trkpt>
<trkpt lat="54.362519" lon="-3.102927"><ele>272</ele><time>2020-06-12T13:09:58Z</time><name>PT11190</name></trkpt>
<trkpt lat="54.362520" lon="-3.102944"><ele>272</ele><time>2020-06-12T13:09:59Z</time><name>PT11191</name></trkpt>
<trkpt lat="54.362518" lon="-3.102965"><ele>272</ele><time>2020-06-12T13:10:00Z</time><name>PT11192</name></trkpt>
<trkpt lat="54.362514" lon="-3.102981"><ele>271</ele><time>2020-06-12T13:10:01Z</time><name>PT11193</name></trkpt>
<trkpt lat="54.362514" lon="-3.102993"><ele>271</ele><time>2020-06-12T13:10:02Z</time><name>PT11194</name></trkpt>
<trkpt lat="54.362515" lon="-3.103007"><ele>272</ele><time>2020-06-12T13:10:03Z</time><name>PT11195</name></trkpt>
<trkpt lat="54.362514" lon="-3.103024"><ele>272</ele><time>2020-06-12T13:10:04Z</time><name>PT11196</name></trkpt>
<trkpt lat="54.362516" lon="-3.103040"><ele>271</ele><time>2020-06-12T13:10:05Z</time><name>PT11197</name></trkpt>
<trkpt lat="54.362512" lon="-3.103059"><ele>271</ele><time>2020-06-12T13:10:06Z</time><name>PT11198</name></trkpt>
<trkpt lat="54.362507" lon="-3.103080"><ele>271</ele><time>2020-06-12T13:10:07Z</time><name>PT11199</name></trkpt>
<trkpt lat="54.362507" lon="-3.103102"><ele>271</ele><time>2020-06-12T13:10:08Z</time><name>PT11200</name></trkpt>
<trkpt lat="54.362505" lon="-3.103118"><ele>271</ele><time>2020-06-12T13:10:09Z</time><name>PT11201</name></trkpt>
<trkpt lat="54.362503" lon="-3.103135"><ele>271</ele><time>2020-06-12T13:10:10Z</time><name>PT11202</name></trkpt>
<trkpt lat="54.362501" lon="-3.103154"><ele>271</ele><time>2020-06-12T13:10:11Z</time><name>PT11203</name></trkpt>
<trkpt lat="54.362498" lon="-3.103167"><ele>271</ele><time>2020-06-12T13:10:12Z</time><name>PT11204</name></trkpt>
<trkpt lat="54.362494" lon="-3.103186"><ele>271</ele><time>2020-06-12T13:10:13Z</time><name>PT11205</name></trkpt>
<trkpt lat="54.362489" lon="-3.103190"><ele>273</ele><time>2020-06-12T13:10:14Z</time><name>PT11206</name></trkpt>
<trkpt lat="54.362486" lon="-3.103207"><ele>273</ele><time>2020-06-12T13:10:15Z</time><name>PT11207</name></trkpt>
<trkpt lat="54.362484" lon="-3.103222"><ele>273</ele><time>2020-06-12T13:10:16Z</time><name>PT11208</name></trkpt>
<trkpt lat="54.362480" lon="-3.103228"><ele>274</ele><time>2020-06-12T13:10:17Z</time><name>PT11209</name></trkpt>
<trkpt lat="54.362474" lon="-3.103238"><ele>275</ele><time>2020-06-12T13:10:18Z</time><name>PT11210</name></trkpt>
<trkpt lat="54.362468" lon="-3.103250"><ele>274</ele><time>2020-06-12T13:10:19Z</time><name>PT11211</name></trkpt>
<trkpt lat="54.362466" lon="-3.103268"><ele>274</ele><time>2020-06-12T13:10:20Z</time><name>PT11212</name></trkpt>
<trkpt lat="54.362462" lon="-3.103286"><ele>274</ele><time>2020-06-12T13:10:21Z</time><name>PT11213</name></trkpt>
<trkpt lat="54.362458" lon="-3.103301"><ele>274</ele><time>2020-06-12T13:10:22Z</time><name>PT11214</name></trkpt>
<trkpt lat="54.362452" lon="-3.103316"><ele>274</ele><time>2020-06-12T13:10:23Z</time><name>PT11215</name></trkpt>
<trkpt lat="54.362447" lon="-3.103335"><ele>274</ele><time>2020-06-12T13:10:24Z</time><name>PT11216</name></trkpt>
<trkpt lat="54.362446" lon="-3.103355"><ele>273</ele><time>2020-06-12T13:10:25Z</time><name>PT11217</name></trkpt>
<trkpt lat="54.362444" lon="-3.103374"><ele>273</ele><time>2020-06-12T13:10:26Z</time><name>PT11218</name></trkpt>
<trkpt lat="54.362442" lon="-3.103393"><ele>273</ele><time>2020-06-12T13:10:27Z</time><name>PT11219</name></trkpt>
<trkpt lat="54.362437" lon="-3.103411"><ele>273</ele><time>2020-06-12T13:10:28Z</time><name>PT11220</name></trkpt>
<trkpt lat="54.362433" lon="-3.103427"><ele>273</ele><time>2020-06-12T13:10:29Z</time><name>PT11221</name></trkpt>
<trkpt lat="54.362425" lon="-3.103441"><ele>273</ele><time>2020-06-12T13:10:30Z</time><name>PT11222</name></trkpt>
<trkpt lat="54.362420" lon="-3.103458"><ele>273</ele><time>2020-06-12T13:10:31Z</time><name>PT11223</name></trkpt>
<trkpt lat="54.362410" lon="-3.103480"><ele>272</ele><time>2020-06-12T13:10:32Z</time><name>PT11224</name></trkpt>
<trkpt lat="54.362407" lon="-3.103498"><ele>271</ele><time>2020-06-12T13:10:33Z</time><name>PT11225</name></trkpt>
<trkpt lat="54.362404" lon="-3.103518"><ele>271</ele><time>2020-06-12T13:10:34Z</time><name>PT11226</name></trkpt>
<trkpt lat="54.362401" lon="-3.103534"><ele>271</ele><time>2020-06-12T13:10:35Z</time><name>PT11227</name></trkpt>
<trkpt lat="54.362401" lon="-3.103550"><ele>270</ele><time>2020-06-12T13:10:36Z</time><name>PT11228</name></trkpt>
<trkpt lat="54.362395" lon="-3.103565"><ele>271</ele><time>2020-06-12T13:10:37Z</time><name>PT11229</name></trkpt>
<trkpt lat="54.362393" lon="-3.103579"><ele>271</ele><time>2020-06-12T13:10:38Z</time><name>PT11230</name></trkpt>
<trkpt lat="54.362391" lon="-3.103589"><ele>271</ele><time>2020-06-12T13:10:39Z</time><name>PT11231</name></trkpt>
<trkpt lat="54.362386" lon="-3.103605"><ele>271</ele><time>2020-06-12T13:10:40Z</time><name>PT11232</name></trkpt>
<trkpt lat="54.362386" lon="-3.103616"><ele>271</ele><time>2020-06-12T13:10:41Z</time><name>PT11233</name></trkpt>
<trkpt lat="54.362383" lon="-3.103632"><ele>271</ele><time>2020-06-12T13:10:42Z</time><name>PT11234</name></trkpt>
<trkpt lat="54.362379" lon="-3.103650"><ele>271</ele><time>2020-06-12T13:10:43Z</time><name>PT11235</name></trkpt>
<trkpt lat="54.362372" lon="-3.103664"><ele>272</ele><time>2020-06-12T13:10:44Z</time><name>PT11236</name></trkpt>
<trkpt lat="54.362369" lon="-3.103677"><ele>272</ele><time>2020-06-12T13:10:45Z</time><name>PT11237</name></trkpt>
<trkpt lat="54.362369" lon="-3.103687"><ele>272</ele><time>2020-06-12T13:10:46Z</time><name>PT11238</name></trkpt>
<trkpt lat="54.362369" lon="-3.103699"><ele>273</ele><time>2020-06-12T13:10:47Z</time><name>PT11239</name></trkpt>
<trkpt lat="54.362366" lon="-3.103715"><ele>273</ele><time>2020-06-12T13:10:48Z</time><name>PT11240</name></trkpt>
<trkpt lat="54.362359" lon="-3.103726"><ele>273</ele><time>2020-06-12T13:10:49Z</time><name>PT11241</name></trkpt>
<trkpt lat="54.362353" lon="-3.103743"><ele>274</ele><time>2020-06-12T13:10:50Z</time><name>PT11242</name></trkpt>
<trkpt lat="54.362343" lon="-3.103760"><ele>274</ele><time>2020-06-12T13:10:51Z</time><name>PT11243</name></trkpt>
<trkpt lat="54.362338" lon="-3.103776"><ele>274</ele><time>2020-06-12T13:10:52Z</time><name>PT11244</name></trkpt>
<trkpt lat="54.362338" lon="-3.103792"><ele>275</ele><time>2020-06-12T13:10:53Z</time><name>PT11245</name></trkpt>
<trkpt lat="54.362336" lon="-3.103811"><ele>275</ele><time>2020-06-12T13:10:54Z</time><name>PT11246</name></trkpt>
<trkpt lat="54.362331" lon="-3.103828"><ele>275</ele><time>2020-06-12T13:10:55Z</time><name>PT11247</name></trkpt>
<trkpt lat="54.362325" lon="-3.103843"><ele>275</ele><time>2020-06-12T13:10:56Z</time><name>PT11248</name></trkpt>
<trkpt lat="54.362317" lon="-3.103857"><ele>276</ele><time>2020-06-12T13:10:57Z</time><name>PT11249</name></trkpt>
<trkpt lat="54.362319" lon="-3.103879"><ele>275</ele><time>2020-06-12T13:10:58Z</time><name>PT11250</name></trkpt>
<trkpt lat="54.362314" lon="-3.103894"><ele>276</ele><time>2020-06-12T13:10:59Z</time><name>PT11251</name></trkpt>
<trkpt lat="54.362313" lon="-3.103906"><ele>277</ele><time>2020-06-12T13:11:00Z</time><name>PT11252</name></trkpt>
<trkpt lat="54.362311" lon="-3.103918"><ele>277</ele><time>2020-06-12T13:11:01Z</time><name>PT11253</name></trkpt>
<trkpt lat="54.362302" lon="-3.103936"><ele>277</ele><time>2020-06-12T13:11:02Z</time><name>PT11254</name></trkpt>
<trkpt lat="54.362293" lon="-3.103949"><ele>277</ele><time>2020-06-12T13:11:03Z</time><name>PT11255</name></trkpt>
<trkpt lat="54.362288" lon="-3.103965"><ele>276</ele><time>2020-06-12T13:11:04Z</time><name>PT11256</name></trkpt>
<trkpt lat="54.362286" lon="-3.103988"><ele>276</ele><time>2020-06-12T13:11:05Z</time><name>PT11257</name></trkpt>
<trkpt lat="54.362283" lon="-3.104001"><ele>276</ele><time>2020-06-12T13:11:06Z</time><name>PT11258</name></trkpt>
<trkpt lat="54.362281" lon="-3.104008"><ele>276</ele><time>2020-06-12T13:11:07Z</time><name>PT11259</name></trkpt>
<trkpt lat="54.362278" lon="-3.104015"><ele>276</ele><time>2020-06-12T13:11:08Z</time><name>PT11260</name></trkpt>
<trkpt lat="54.362271" lon="-3.104029"><ele>277</ele><time>2020-06-12T13:11:09Z</time><name>PT11261</name></trkpt>
<trkpt lat="54.362273" lon="-3.104044"><ele>277</ele><time>2020-06-12T13:11:10Z</time><name>PT11262</name></trkpt>
<trkpt lat="54.362275" lon="-3.104064"><ele>276</ele><time>2020-06-12T13:11:11Z</time><name>PT11263</name></trkpt>
<trkpt lat="54.362276" lon="-3.104085"><ele>276</ele><time>2020-06-12T13:11:12Z</time><name>PT11264</name></trkpt>
<trkpt lat="54.362275" lon="-3.104103"><ele>275</ele><time>2020-06-12T13:11:13Z</time><name>PT11265</name></trkpt>
<trkpt lat="54.362275" lon="-3.104114"><ele>275</ele><time>2020-06-12T13:11:14Z</time><name>PT11266</name></trkpt>
<trkpt lat="54.362276" lon="-3.104124"><ele>276</ele><time>2020-06-12T13:11:15Z</time><name>PT11267</name></trkpt>
<trkpt lat="54.362273" lon="-3.104140"><ele>276</ele><time>2020-06-12T13:11:16Z</time><name>PT11268</name></trkpt>
<trkpt lat="54.362265" lon="-3.104151"><ele>278</ele><time>2020-06-12T13:11:17Z</time><name>PT11269</name></trkpt>
<trkpt lat="54.362267" lon="-3.104165"><ele>278</ele><time>2020-06-12T13:11:18Z</time><name>PT11270</name></trkpt>
<trkpt lat="54.362262" lon="-3.104177"><ele>279</ele><time>2020-06-12T13:11:19Z</time><name>PT11271</name></trkpt>
<trkpt lat="54.362260" lon="-3.104187"><ele>280</ele><time>2020-06-12T13:11:20Z</time><name>PT11272</name></trkpt>
<trkpt lat="54.362256" lon="-3.104203"><ele>280</ele><time>2020-06-12T13:11:21Z</time><name>PT11273</name></trkpt>
<trkpt lat="54.362255" lon="-3.104214"><ele>281</ele><time>2020-06-12T13:11:22Z</time><name>PT11274</name></trkpt>
<trkpt lat="54.362249" lon="-3.104239"><ele>280</ele><time>2020-06-12T13:11:23Z</time><name>PT11275</name></trkpt>
<trkpt lat="54.362245" lon="-3.104253"><ele>280</ele><time>2020-06-12T13:11:24Z</time><name>PT11276</name></trkpt>
<trkpt lat="54.362240" lon="-3.104270"><ele>280</ele><time>2020-06-12T13:11:25Z</time><name>PT11277</name></trkpt>
<trkpt lat="54.362233" lon="-3.104286"><ele>281</ele><time>2020-06-12T13:11:26Z</time><name>PT11278</name></trkpt>
<trkpt lat="54.362225" lon="-3.104301"><ele>282</ele><time>2020-06-12T13:11:27Z</time><name>PT11279</name></trkpt>
<trkpt lat="54.362217" lon="-3.104316"><ele>282</ele><time>2020-06-12T13:11:28Z</time><name>PT11280</name></trkpt>
<trkpt lat="54.362210" lon="-3.104334"><ele>282</ele><time>2020-06-12T13:11:29Z</time><name>PT11281</name></trkpt>
<trkpt lat="54.362202" lon="-3.104352"><ele>282</ele><time>2020-06-12T13:11:30Z</time><name>PT11282</name></trkpt>
<trkpt lat="54.362197" lon="-3.104369"><ele>283</ele><time>2020-06-12T13:11:31Z</time><name>PT11283</name></trkpt>
<trkpt lat="54.362189" lon="-3.104388"><ele>282</ele><time>2020-06-12T13:11:32Z</time><name>PT11284</name></trkpt>
<trkpt lat="54.362181" lon="-3.104405"><ele>283</ele><time>2020-06-12T13:11:33Z</time><name>PT11285</name></trkpt>
<trkpt lat="54.362177" lon="-3.104429"><ele>282</ele><time>2020-06-12T13:11:34Z</time><name>PT11286</name></trkpt>
<trkpt lat="54.362169" lon="-3.104446"><ele>281</ele><time>2020-06-12T13:11:35Z</time><name>PT11287</name></trkpt>
<trkpt lat="54.362165" lon="-3.104468"><ele>281</ele><time>2020-06-12T13:11:36Z</time><name>PT11288</name></trkpt>
<trkpt lat="54.362156" lon="-3.104488"><ele>281</ele><time>2020-06-12T13:11:37Z</time><name>PT11289</name></trkpt>
<trkpt lat="54.362149" lon="-3.104503"><ele>280</ele><time>2020-06-12T13:11:38Z</time><name>PT11290</name></trkpt>
<trkpt lat="54.362142" lon="-3.104515"><ele>280</ele><time>2020-06-12T13:11:39Z</time><name>PT11291</name></trkpt>
<trkpt lat="54.362133" lon="-3.104535"><ele>280</ele><time>2020-06-12T13:11:40Z</time><name>PT11292</name></trkpt>
<trkpt lat="54.362124" lon="-3.104558"><ele>280</ele><time>2020-06-12T13:11:41Z</time><name>PT11293</name></trkpt>
<trkpt lat="54.362113" lon="-3.104575"><ele>280</ele><time>2020-06-12T13:11:42Z</time><name>PT11294</name></trkpt>
<trkpt lat="54.362105" lon="-3.104588"><ele>280</ele><time>2020-06-12T13:11:43Z</time><name>PT11295</name></trkpt>
<trkpt lat="54.362101" lon="-3.104605"><ele>280</ele><time>2020-06-12T13:11:44Z</time><name>PT11296</name></trkpt>
<trkpt lat="54.362093" lon="-3.104623"><ele>280</ele><time>2020-06-12T13:11:45Z</time><name>PT11297</name></trkpt>
<trkpt lat="54.362084" lon="-3.104641"><ele>280</ele><time>2020-06-12T13:11:46Z</time><name>PT11298</name></trkpt>
<trkpt lat="54.362076" lon="-3.104658"><ele>280</ele><time>2020-06-12T13:11:47Z</time><name>PT11299</name></trkpt>
<trkpt lat="54.362066" lon="-3.104677"><ele>279</ele><time>2020-06-12T13:11:48Z</time><name>PT11300</name></trkpt>
<trkpt lat="54.362058" lon="-3.104691"><ele>280</ele><time>2020-06-12T13:11:49Z</time><name>PT11301</name></trkpt>
<trkpt lat="54.362053" lon="-3.104709"><ele>280</ele><time>2020-06-12T13:11:50Z</time><name>PT11302</name></trkpt>
<trkpt lat="54.362046" lon="-3.104719"><ele>280</ele><time>2020-06-12T13:11:51Z</time><name>PT11303</name></trkpt>
<trkpt lat="54.362038" lon="-3.104732"><ele>281</ele><time>2020-06-12T13:11:52Z</time><name>PT11304</name></trkpt>
<trkpt lat="54.362030" lon="-3.104747"><ele>281</ele><time>2020-06-12T13:11:53Z</time><name>PT11305</name></trkpt>
<trkpt lat="54.362022" lon="-3.104758"><ele>281</ele><time>2020-06-12T13:11:54Z</time><name>PT11306</name></trkpt>
<trkpt lat="54.362012" lon="-3.104777"><ele>281</ele><time>2020-06-12T13:11:55Z</time><name>PT11307</name></trkpt>
<trkpt lat="54.362006" lon="-3.104799"><ele>281</ele><time>2020-06-12T13:11:56Z</time><name>PT11308</name></trkpt>
<trkpt lat="54.361999" lon="-3.104812"><ele>281</ele><time>2020-06-12T13:11:57Z</time><name>PT11309</name></trkpt>
<trkpt lat="54.361989" lon="-3.104827"><ele>281</ele><time>2020-06-12T13:11:58Z</time><name>PT11310</name></trkpt>
<trkpt lat="54.361982" lon="-3.104844"><ele>281</ele><time>2020-06-12T13:11:59Z</time><name>PT11311</name></trkpt>
<trkpt lat="54.361977" lon="-3.104855"><ele>281</ele><time>2020-06-12T13:12:00Z</time><name>PT11312</name></trkpt>
<trkpt lat="54.361970" lon="-3.104871"><ele>280</ele><time>2020-06-12T13:12:01Z</time><name>PT11313</name></trkpt>
<trkpt lat="54.361960" lon="-3.104885"><ele>280</ele><time>2020-06-12T13:12:02Z</time><name>PT11314</name></trkpt>
<trkpt lat="54.361953" lon="-3.104902"><ele>280</ele><time>2020-06-12T13:12:03Z</time><name>PT11315</name></trkpt>
<trkpt lat="54.361948" lon="-3.104918"><ele>281</ele><time>2020-06-12T13:12:04Z</time><name>PT11316</name></trkpt>
<trkpt lat="54.361943" lon="-3.104932"><ele>281</ele><time>2020-06-12T13:12:05Z</time><name>PT11317</name></trkpt>
<trkpt lat="54.361934" lon="-3.104944"><ele>281</ele><time>2020-06-12T13:12:06Z</time><name>PT11318</name></trkpt>
<trkpt lat="54.361927" lon="-3.104954"><ele>282</ele><time>2020-06-12T13:12:07Z</time><name>PT11319</name></trkpt>
<trkpt lat="54.361920" lon="-3.104961"><ele>282</ele><time>2020-06-12T13:12:08Z</time><name>PT11320</name></trkpt>
<trkpt lat="54.361916" lon="-3.104972"><ele>282</ele><time>2020-06-12T13:12:09Z</time><name>PT11321</name></trkpt>
<trkpt lat="54.361909" lon="-3.104987"><ele>282</ele><time>2020-06-12T13:12:10Z</time><name>PT11322</name></trkpt>
<trkpt lat="54.361900" lon="-3.104999"><ele>282</ele><time>2020-06-12T13:12:11Z</time><name>PT11323</name></trkpt>
<trkpt lat="54.361893" lon="-3.105010"><ele>283</ele><time>2020-06-12T13:12:12Z</time><name>PT11324</name></trkpt>
<trkpt lat="54.361888" lon="-3.105025"><ele>282</ele><time>2020-06-12T13:12:13Z</time><name>PT11325</name></trkpt>
<trkpt lat="54.361883" lon="-3.105047"><ele>281</ele><time>2020-06-12T13:12:14Z</time><name>PT11326</name></trkpt>
<trkpt lat="54.361882" lon="-3.105063"><ele>280</ele><time>2020-06-12T13:12:15Z</time><name>PT11327</name></trkpt>
<trkpt lat="54.361875" lon="-3.105079"><ele>280</ele><time>2020-06-12T13:12:16Z</time><name>PT11328</name></trkpt>
<trkpt lat="54.361867" lon="-3.105095"><ele>279</ele><time>2020-06-12T13:12:17Z</time><name>PT11329</name></trkpt>
<trkpt lat="54.361857" lon="-3.105108"><ele>279</ele><time>2020-06-12T13:12:18Z</time><name>PT11330</name></trkpt>
<trkpt lat="54.361848" lon="-3.105118"><ele>279</ele><time>2020-06-12T13:12:19Z</time><name>PT11331</name></trkpt>
<trkpt lat="54.361842" lon="-3.105129"><ele>279</ele><time>2020-06-12T13:12:20Z</time><name>PT11332</name></trkpt>
<trkpt lat="54.361833" lon="-3.105144"><ele>279</ele><time>2020-06-12T13:12:21Z</time><name>PT11333</name></trkpt>
<trkpt lat="54.361827" lon="-3.105156"><ele>279</ele><time>2020-06-12T13:12:22Z</time><name>PT11334</name></trkpt>
<trkpt lat="54.361818" lon="-3.105171"><ele>280</ele><time>2020-06-12T13:12:23Z</time><name>PT11335</name></trkpt>
<trkpt lat="54.361812" lon="-3.105188"><ele>279</ele><time>2020-06-12T13:12:24Z</time><name>PT11336</name></trkpt>
<trkpt lat="54.361805" lon="-3.105202"><ele>279</ele><time>2020-06-12T13:12:25Z</time><name>PT11337</name></trkpt>
<trkpt lat="54.361796" lon="-3.105215"><ele>280</ele><time>2020-06-12T13:12:26Z</time><name>PT11338</name></trkpt>
<trkpt lat="54.361787" lon="-3.105225"><ele>280</ele><time>2020-06-12T13:12:27Z</time><name>PT11339</name></trkpt>
<trkpt lat="54.361776" lon="-3.105235"><ele>281</ele><time>2020-06-12T13:12:28Z</time><name>PT11340</name></trkpt>
<trkpt lat="54.361768" lon="-3.105251"><ele>281</ele><time>2020-06-12T13:12:29Z</time><name>PT11341</name></trkpt>
<trkpt lat="54.361760" lon="-3.105269"><ele>281</ele><time>2020-06-12T13:12:30Z</time><name>PT11342</name></trkpt>
<trkpt lat="54.361754" lon="-3.105282"><ele>281</ele><time>2020-06-12T13:12:31Z</time><name>PT11343</name></trkpt>
<trkpt lat="54.361746" lon="-3.105296"><ele>281</ele><time>2020-06-12T13:12:32Z</time><name>PT11344</name></trkpt>
<trkpt lat="54.361739" lon="-3.105315"><ele>280</ele><time>2020-06-12T13:12:33Z</time><name>PT11345</name></trkpt>
<trkpt lat="54.361731" lon="-3.105326"><ele>280</ele><time>2020-06-12T13:12:34Z</time><name>PT11346</name></trkpt>
<trkpt lat="54.361721" lon="-3.105336"><ele>280</ele><time>2020-06-12T13:12:35Z</time><name>PT11347</name></trkpt>
<trkpt lat="54.361717" lon="-3.105348"><ele>280</ele><time>2020-06-12T13:12:36Z</time><name>PT11348</name></trkpt>
<trkpt lat="54.361710" lon="-3.105358"><ele>280</ele><time>2020-06-12T13:12:37Z</time><name>PT11349</name></trkpt>
<trkpt lat="54.361702" lon="-3.105369"><ele>280</ele><time>2020-06-12T13:12:38Z</time><name>PT11350</name></trkpt>
<trkpt lat="54.361694" lon="-3.105377"><ele>280</ele><time>2020-06-12T13:12:39Z</time><name>PT11351</name></trkpt>
<trkpt lat="54.361680" lon="-3.105382"><ele>281</ele><time>2020-06-12T13:12:40Z</time><name>PT11352</name></trkpt>
<trkpt lat="54.361666" lon="-3.105394"><ele>282</ele><time>2020-06-12T13:12:41Z</time><name>PT11353</name></trkpt>
<trkpt lat="54.361654" lon="-3.105406"><ele>283</ele><time>2020-06-12T13:12:42Z</time><name>PT11354</name></trkpt>
<trkpt lat="54.361644" lon="-3.105416"><ele>284</ele><time>2020-06-12T13:12:43Z</time><name>PT11355</name></trkpt>
<trkpt lat="54.361636" lon="-3.105431"><ele>284</ele><time>2020-06-12T13:12:44Z</time><name>PT11356</name></trkpt>
<trkpt lat="54.361628" lon="-3.105446"><ele>284</ele><time>2020-06-12T13:12:45Z</time><name>PT11357</name></trkpt>
<trkpt lat="54.361619" lon="-3.105460"><ele>284</ele><time>2020-06-12T13:12:46Z</time><name>PT11358</name></trkpt>
<trkpt lat="54.361611" lon="-3.105475"><ele>285</ele><time>2020-06-12T13:12:47Z</time><name>PT11359</name></trkpt>
<trkpt lat="54.361604" lon="-3.105491"><ele>285</ele><time>2020-06-12T13:12:48Z</time><name>PT11360</name></trkpt>
<trkpt lat="54.361593" lon="-3.105497"><ele>286</ele><time>2020-06-12T13:12:49Z</time><name>PT11361</name></trkpt>
<trkpt lat="54.361584" lon="-3.105511"><ele>286</ele><time>2020-06-12T13:12:50Z</time><name>PT11362</name></trkpt>
<trkpt lat="54.361578" lon="-3.105527"><ele>286</ele><time>2020-06-12T13:12:51Z</time><name>PT11363</name></trkpt>
<trkpt lat="54.361566" lon="-3.105540"><ele>287</ele><time>2020-06-12T13:12:52Z</time><name>PT11364</name></trkpt>
<trkpt lat="54.361560" lon="-3.105554"><ele>286</ele><time>2020-06-12T13:12:53Z</time><name>PT11365</name></trkpt>
<trkpt lat="54.361551" lon="-3.105567"><ele>287</ele><time>2020-06-12T13:12:54Z</time><name>PT11366</name></trkpt>
<trkpt lat="54.361545" lon="-3.105581"><ele>286</ele><time>2020-06-12T13:12:55Z</time><name>PT11367</name></trkpt>
<trkpt lat="54.361531" lon="-3.105595"><ele>287</ele><time>2020-06-12T13:12:56Z</time><name>PT11368</name></trkpt>
<trkpt lat="54.361520" lon="-3.105606"><ele>288</ele><time>2020-06-12T13:12:57Z</time><name>PT11369</name></trkpt>
<trkpt lat="54.361512" lon="-3.105627"><ele>287</ele><time>2020-06-12T13:12:58Z</time><name>PT11370</name></trkpt>
<trkpt lat="54.361503" lon="-3.105642"><ele>287</ele><time>2020-06-12T13:12:59Z</time><name>PT11371</name></trkpt>
<trkpt lat="54.361496" lon="-3.105651"><ele>287</ele><time>2020-06-12T13:13:00Z</time><name>PT11372</name></trkpt>
<trkpt lat="54.361489" lon="-3.105661"><ele>287</ele><time>2020-06-12T13:13:01Z</time><name>PT11373</name></trkpt>
<trkpt lat="54.361474" lon="-3.105680"><ele>287</ele><time>2020-06-12T13:13:02Z</time><name>PT11374</name></trkpt>
<trkpt lat="54.361463" lon="-3.105694"><ele>288</ele><time>2020-06-12T13:13:03Z</time><name>PT11375</name></trkpt>
<trkpt lat="54.361454" lon="-3.105708"><ele>288</ele><time>2020-06-12T13:13:04Z</time><name>PT11376</name></trkpt>
<trkpt lat="54.361448" lon="-3.105725"><ele>287</ele><time>2020-06-12T13:13:05Z</time><name>PT11377</name></trkpt>
<trkpt lat="54.361442" lon="-3.105745"><ele>287</ele><time>2020-06-12T13:13:06Z</time><name>PT11378</name></trkpt>
<trkpt lat="54.361435" lon="-3.105757"><ele>287</ele><time>2020-06-12T13:13:07Z</time><name>PT11379</name></trkpt>
<trkpt lat="54.361425" lon="-3.105777"><ele>287</ele><time>2020-06-12T13:13:08Z</time><name>PT11380</name></trkpt>
<trkpt lat="54.361417" lon="-3.105788"><ele>287</ele><time>2020-06-12T13:13:09Z</time><name>PT11381</name></trkpt>
<trkpt lat="54.361406" lon="-3.105799"><ele>288</ele><time>2020-06-12T13:13:10Z</time><name>PT11382</name></trkpt>
<trkpt lat="54.361396" lon="-3.105823"><ele>287</ele><time>2020-06-12T13:13:11Z</time><name>PT11383</name></trkpt>
<trkpt lat="54.361390" lon="-3.105842"><ele>287</ele><time>2020-06-12T13:13:12Z</time><name>PT11384</name></trkpt>
<trkpt lat="54.361380" lon="-3.105863"><ele>287</ele><time>2020-06-12T13:13:13Z</time><name>PT11385</name></trkpt>
<trkpt lat="54.361371" lon="-3.105883"><ele>286</ele><time>2020-06-12T13:13:14Z</time><name>PT11386</name></trkpt>
<trkpt lat="54.361362" lon="-3.105898"><ele>286</ele><time>2020-06-12T13:13:15Z</time><name>PT11387</name></trkpt>
<trkpt lat="54.361355" lon="-3.105913"><ele>286</ele><time>2020-06-12T13:13:16Z</time><name>PT11388</name></trkpt>
<trkpt lat="54.361349" lon="-3.105932"><ele>285</ele><time>2020-06-12T13:13:17Z</time><name>PT11389</name></trkpt>
<trkpt lat="54.361341" lon="-3.105945"><ele>286</ele><time>2020-06-12T13:13:18Z</time><name>PT11390</name></trkpt>
<trkpt lat="54.361333" lon="-3.105962"><ele>286</ele><time>2020-06-12T13:13:19Z</time><name>PT11391</name></trkpt>
<trkpt lat="54.361328" lon="-3.105976"><ele>285</ele><time>2020-06-12T13:13:20Z</time><name>PT11392</name></trkpt>
<trkpt lat="54.361325" lon="-3.105988"><ele>285</ele><time>2020-06-12T13:13:21Z</time><name>PT11393</name></trkpt>
<trkpt lat="54.361320" lon="-3.106001"><ele>284</ele><time>2020-06-12T13:13:22Z</time><name>PT11394</name></trkpt>
<trkpt lat="54.361312" lon="-3.106015"><ele>285</ele><time>2020-06-12T13:13:23Z</time><name>PT11395</name></trkpt>
<trkpt lat="54.361304" lon="-3.106032"><ele>285</ele><time>2020-06-12T13:13:24Z</time><name>PT11396</name></trkpt>
<trkpt lat="54.361297" lon="-3.106045"><ele>285</ele><time>2020-06-12T13:13:25Z</time><name>PT11397</name></trkpt>
<trkpt lat="54.361289" lon="-3.106055"><ele>285</ele><time>2020-06-12T13:13:26Z</time><name>PT11398</name></trkpt>
<trkpt lat="54.361279" lon="-3.106067"><ele>285</ele><time>2020-06-12T13:13:27Z</time><name>PT11399</name></trkpt>
<trkpt lat="54.361269" lon="-3.106077"><ele>286</ele><time>2020-06-12T13:13:28Z</time><name>PT11400</name></trkpt>
<trkpt lat="54.361262" lon="-3.106088"><ele>286</ele><time>2020-06-12T13:13:29Z</time><name>PT11401</name></trkpt>
<trkpt lat="54.361257" lon="-3.106101"><ele>286</ele><time>2020-06-12T13:13:30Z</time><name>PT11402</name></trkpt>
<trkpt lat="54.361251" lon="-3.106113"><ele>286</ele><time>2020-06-12T13:13:31Z</time><name>PT11403</name></trkpt>
<trkpt lat="54.361245" lon="-3.106126"><ele>286</ele><time>2020-06-12T13:13:32Z</time><name>PT11404</name></trkpt>
<trkpt lat="54.361238" lon="-3.106142"><ele>287</ele><time>2020-06-12T13:13:33Z</time><name>PT11405</name></trkpt>
<trkpt lat="54.361230" lon="-3.106154"><ele>287</ele><time>2020-06-12T13:13:34Z</time><name>PT11406</name></trkpt>
<trkpt lat="54.361222" lon="-3.106167"><ele>287</ele><time>2020-06-12T13:13:35Z</time><name>PT11407</name></trkpt>
<trkpt lat="54.361215" lon="-3.106178"><ele>287</ele><time>2020-06-12T13:13:36Z</time><name>PT11408</name></trkpt>
<trkpt lat="54.361213" lon="-3.106193"><ele>287</ele><time>2020-06-12T13:13:37Z</time><name>PT11409</name></trkpt>
<trkpt lat="54.361204" lon="-3.106208"><ele>287</ele><time>2020-06-12T13:13:38Z</time><name>PT11410</name></trkpt>
<trkpt lat="54.361192" lon="-3.106217"><ele>288</ele><time>2020-06-12T13:13:39Z</time><name>PT11411</name></trkpt>
<trkpt lat="54.361185" lon="-3.106231"><ele>288</ele><time>2020-06-12T13:13:40Z</time><name>PT11412</name></trkpt>
<trkpt lat="54.361177" lon="-3.106242"><ele>288</ele><time>2020-06-12T13:13:41Z</time><name>PT11413</name></trkpt>
<trkpt lat="54.361169" lon="-3.106256"><ele>289</ele><time>2020-06-12T13:13:42Z</time><name>PT11414</name></trkpt>
<trkpt lat="54.361159" lon="-3.106271"><ele>289</ele><time>2020-06-12T13:13:43Z</time><name>PT11415</name></trkpt>
<trkpt lat="54.361150" lon="-3.106285"><ele>289</ele><time>2020-06-12T13:13:44Z</time><name>PT11416</name></trkpt>
<trkpt lat="54.361139" lon="-3.106299"><ele>288</ele><time>2020-06-12T13:13:45Z</time><name>PT11417</name></trkpt>
<trkpt lat="54.361131" lon="-3.106311"><ele>288</ele><time>2020-06-12T13:13:46Z</time><name>PT11418</name></trkpt>
<trkpt lat="54.361121" lon="-3.106327"><ele>289</ele><time>2020-06-12T13:13:47Z</time><name>PT11419</name></trkpt>
<trkpt lat="54.361112" lon="-3.106344"><ele>288</ele><time>2020-06-12T13:13:48Z</time><name>PT11420</name></trkpt>
<trkpt lat="54.361103" lon="-3.106361"><ele>289</ele><time>2020-06-12T13:13:49Z</time><name>PT11421</name></trkpt>
<trkpt lat="54.361093" lon="-3.106376"><ele>289</ele><time>2020-06-12T13:13:50Z</time><name>PT11422</name></trkpt>
<trkpt lat="54.361084" lon="-3.106389"><ele>288</ele><time>2020-06-12T13:13:51Z</time><name>PT11423</name></trkpt>
<trkpt lat="54.361073" lon="-3.106401"><ele>288</ele><time>2020-06-12T13:13:52Z</time><name>PT11424</name></trkpt>
<trkpt lat="54.361063" lon="-3.106416"><ele>288</ele><time>2020-06-12T13:13:53Z</time><name>PT11425</name></trkpt>
<trkpt lat="54.361052" lon="-3.106431"><ele>289</ele><time>2020-06-12T13:13:54Z</time><name>PT11426</name></trkpt>
<trkpt lat="54.361040" lon="-3.106445"><ele>289</ele><time>2020-06-12T13:13:55Z</time><name>PT11427</name></trkpt>
<trkpt lat="54.361028" lon="-3.106459"><ele>288</ele><time>2020-06-12T13:13:56Z</time><name>PT11428</name></trkpt>
<trkpt lat="54.361018" lon="-3.106474"><ele>288</ele><time>2020-06-12T13:13:57Z</time><name>PT11429</name></trkpt>
<trkpt lat="54.361005" lon="-3.106489"><ele>289</ele><time>2020-06-12T13:13:58Z</time><name>PT11430</name></trkpt>
<trkpt lat="54.360995" lon="-3.106503"><ele>289</ele><time>2020-06-12T13:13:59Z</time><name>PT11431</name></trkpt>
<trkpt lat="54.360986" lon="-3.106515"><ele>290</ele><time>2020-06-12T13:14:00Z</time><name>PT11432</name></trkpt>
<trkpt lat="54.360977" lon="-3.106532"><ele>289</ele><time>2020-06-12T13:14:01Z</time><name>PT11433</name></trkpt>
<trkpt lat="54.360969" lon="-3.106550"><ele>290</ele><time>2020-06-12T13:14:02Z</time><name>PT11434</name></trkpt>
<trkpt lat="54.360961" lon="-3.106571"><ele>291</ele><time>2020-06-12T13:14:03Z</time><name>PT11435</name></trkpt>
<trkpt lat="54.360954" lon="-3.106583"><ele>291</ele><time>2020-06-12T13:14:04Z</time><name>PT11436</name></trkpt>
<trkpt lat="54.360942" lon="-3.106598"><ele>291</ele><time>2020-06-12T13:14:05Z</time><name>PT11437</name></trkpt>
<trkpt lat="54.360935" lon="-3.106616"><ele>290</ele><time>2020-06-12T13:14:06Z</time><name>PT11438</name></trkpt>
<trkpt lat="54.360926" lon="-3.106629"><ele>291</ele><time>2020-06-12T13:14:07Z</time><name>PT11439</name></trkpt>
<trkpt lat="54.360917" lon="-3.106642"><ele>291</ele><time>2020-06-12T13:14:08Z</time><name>PT11440</name></trkpt>
<trkpt lat="54.360908" lon="-3.106657"><ele>290</ele><time>2020-06-12T13:14:09Z</time><name>PT11441</name></trkpt>
<trkpt lat="54.360899" lon="-3.106670"><ele>291</ele><time>2020-06-12T13:14:10Z</time><name>PT11442</name></trkpt>
<trkpt lat="54.360888" lon="-3.106687"><ele>291</ele><time>2020-06-12T13:14:11Z</time><name>PT11443</name></trkpt>
<trkpt lat="54.360881" lon="-3.106697"><ele>291</ele><time>2020-06-12T13:14:12Z</time><name>PT11444</name></trkpt>
<trkpt lat="54.360874" lon="-3.106705"><ele>291</ele><time>2020-06-12T13:14:13Z</time><name>PT11445</name></trkpt>
<trkpt lat="54.360863" lon="-3.106714"><ele>291</ele><time>2020-06-12T13:14:14Z</time><name>PT11446</name></trkpt>
<trkpt lat="54.360853" lon="-3.106723"><ele>291</ele><time>2020-06-12T13:14:15Z</time><name>PT11447</name></trkpt>
<trkpt lat="54.360842" lon="-3.106732"><ele>291</ele><time>2020-06-12T13:14:16Z</time><name>PT11448</name></trkpt>
<trkpt lat="54.360831" lon="-3.106740"><ele>291</ele><time>2020-06-12T13:14:17Z</time><name>PT11449</name></trkpt>
<trkpt lat="54.360822" lon="-3.106749"><ele>291</ele><time>2020-06-12T13:14:18Z</time><name>PT11450</name></trkpt>
<trkpt lat="54.360813" lon="-3.106760"><ele>291</ele><time>2020-06-12T13:14:19Z</time><name>PT11451</name></trkpt>
<trkpt lat="54.360804" lon="-3.106767"><ele>291</ele><time>2020-06-12T13:14:20Z</time><name>PT11452</name></trkpt>
<trkpt lat="54.360795" lon="-3.106777"><ele>291</ele><time>2020-06-12T13:14:21Z</time><name>PT11453</name></trkpt>
<trkpt lat="54.360784" lon="-3.106787"><ele>290</ele><time>2020-06-12T13:14:22Z</time><name>PT11454</name></trkpt>
<trkpt lat="54.360775" lon="-3.106800"><ele>290</ele><time>2020-06-12T13:14:23Z</time><name>PT11455</name></trkpt>
<trkpt lat="54.360764" lon="-3.106814"><ele>290</ele><time>2020-06-12T13:14:24Z</time><name>PT11456</name></trkpt>
<trkpt lat="54.360756" lon="-3.106827"><ele>290</ele><time>2020-06-12T13:14:25Z</time><name>PT11457</name></trkpt>
<trkpt lat="54.360749" lon="-3.106839"><ele>290</ele><time>2020-06-12T13:14:26Z</time><name>PT11458</name></trkpt>
<trkpt lat="54.360744" lon="-3.106849"><ele>290</ele><time>2020-06-12T13:14:27Z</time><name>PT11459</name></trkpt>
<trkpt lat="54.360740" lon="-3.106861"><ele>290</ele><time>2020-06-12T13:14:28Z</time><name>PT11460</name></trkpt>
<trkpt lat="54.360731" lon="-3.106875"><ele>289</ele><time>2020-06-12T13:14:29Z</time><name>PT11461</name></trkpt>
<trkpt lat="54.360721" lon="-3.106889"><ele>289</ele><time>2020-06-12T13:14:30Z</time><name>PT11462</name></trkpt>
<trkpt lat="54.360713" lon="-3.106904"><ele>289</ele><time>2020-06-12T13:14:31Z</time><name>PT11463</name></trkpt>
<trkpt lat="54.360706" lon="-3.106916"><ele>288</ele><time>2020-06-12T13:14:32Z</time><name>PT11464</name></trkpt>
<trkpt lat="54.360695" lon="-3.106930"><ele>288</ele><time>2020-06-12T13:14:33Z</time><name>PT11465</name></trkpt>
<trkpt lat="54.360686" lon="-3.106943"><ele>288</ele><time>2020-06-12T13:14:34Z</time><name>PT11466</name></trkpt>
<trkpt lat="54.360680" lon="-3.106960"><ele>287</ele><time>2020-06-12T13:14:35Z</time><name>PT11467</name></trkpt>
<trkpt lat="54.360673" lon="-3.106978"><ele>287</ele><time>2020-06-12T13:14:36Z</time><name>PT11468</name></trkpt>
<trkpt lat="54.360669" lon="-3.106995"><ele>288</ele><time>2020-06-12T13:14:37Z</time><name>PT11469</name></trkpt>
<trkpt lat="54.360665" lon="-3.107012"><ele>287</ele><time>2020-06-12T13:14:38Z</time><name>PT11470</name></trkpt>
<trkpt lat="54.360656" lon="-3.107025"><ele>287</ele><time>2020-06-12T13:14:39Z</time><name>PT11471</name></trkpt>
<trkpt lat="54.360650" lon="-3.107038"><ele>287</ele><time>2020-06-12T13:14:40Z</time><name>PT11472</name></trkpt>
<trkpt lat="54.360645" lon="-3.107054"><ele>287</ele><time>2020-06-12T13:14:41Z</time><name>PT11473</name></trkpt>
<trkpt lat="54.360637" lon="-3.107069"><ele>287</ele><time>2020-06-12T13:14:42Z</time><name>PT11474</name></trkpt>
<trkpt lat="54.360634" lon="-3.107083"><ele>286</ele><time>2020-06-12T13:14:43Z</time><name>PT11475</name></trkpt>
<trkpt lat="54.360627" lon="-3.107104"><ele>286</ele><time>2020-06-12T13:14:44Z</time><name>PT11476</name></trkpt>
<trkpt lat="54.360620" lon="-3.107122"><ele>286</ele><time>2020-06-12T13:14:45Z</time><name>PT11477</name></trkpt>
<trkpt lat="54.360615" lon="-3.107137"><ele>286</ele><time>2020-06-12T13:14:46Z</time><name>PT11478</name></trkpt>
<trkpt lat="54.360607" lon="-3.107152"><ele>286</ele><time>2020-06-12T13:14:47Z</time><name>PT11479</name></trkpt>
<trkpt lat="54.360601" lon="-3.107166"><ele>285</ele><time>2020-06-12T13:14:48Z</time><name>PT11480</name></trkpt>
<trkpt lat="54.360597" lon="-3.107181"><ele>285</ele><time>2020-06-12T13:14:49Z</time><name>PT11481</name></trkpt>
<trkpt lat="54.360587" lon="-3.107201"><ele>285</ele><time>2020-06-12T13:14:50Z</time><name>PT11482</name></trkpt>
<trkpt lat="54.360579" lon="-3.107214"><ele>284</ele><time>2020-06-12T13:14:51Z</time><name>PT11483</name></trkpt>
<trkpt lat="54.360576" lon="-3.107222"><ele>284</ele><time>2020-06-12T13:14:52Z</time><name>PT11484</name></trkpt>
<trkpt lat="54.360575" lon="-3.107231"><ele>285</ele><time>2020-06-12T13:14:53Z</time><name>PT11485</name></trkpt>
<trkpt lat="54.360574" lon="-3.107245"><ele>285</ele><time>2020-06-12T13:14:54Z</time><name>PT11486</name></trkpt>
<trkpt lat="54.360572" lon="-3.107258"><ele>285</ele><time>2020-06-12T13:14:55Z</time><name>PT11487</name></trkpt>
<trkpt lat="54.360575" lon="-3.107274"><ele>285</ele><time>2020-06-12T13:14:56Z</time><name>PT11488</name></trkpt>
<trkpt lat="54.360579" lon="-3.107286"><ele>285</ele><time>2020-06-12T13:14:57Z</time><name>PT11489</name></trkpt>
<trkpt lat="54.360583" lon="-3.107299"><ele>284</ele><time>2020-06-12T13:14:58Z</time><name>PT11490</name></trkpt>
<trkpt lat="54.360587" lon="-3.107315"><ele>284</ele><time>2020-06-12T13:14:59Z</time><name>PT11491</name></trkpt>
<trkpt lat="54.360589" lon="-3.107328"><ele>284</ele><time>2020-06-12T13:15:00Z</time><name>PT11492</name></trkpt>
<trkpt lat="54.360591" lon="-3.107339"><ele>284</ele><time>2020-06-12T13:15:01Z</time><name>PT11493</name></trkpt>
<trkpt lat="54.360590" lon="-3.107350"><ele>284</ele><time>2020-06-12T13:15:02Z</time><name>PT11494</name></trkpt>
<trkpt lat="54.360590" lon="-3.107361"><ele>284</ele><time>2020-06-12T13:15:03Z</time><name>PT11495</name></trkpt>
<trkpt lat="54.360594" lon="-3.107370"><ele>284</ele><time>2020-06-12T13:15:04Z</time><name>PT11496</name></trkpt>
<trkpt lat="54.360598" lon="-3.107373"><ele>283</ele><time>2020-06-12T13:15:05Z</time><name>PT11497</name></trkpt>
<trkpt lat="54.360604" lon="-3.107387"><ele>283</ele><time>2020-06-12T13:15:06Z</time><name>PT11498</name></trkpt>
<trkpt lat="54.360610" lon="-3.107404"><ele>283</ele><time>2020-06-12T13:15:07Z</time><name>PT11499</name></trkpt>
<trkpt lat="54.360615" lon="-3.107423"><ele>283</ele><time>2020-06-12T13:15:08Z</time><name>PT11500</name></trkpt>
<trkpt lat="54.360623" lon="-3.107442"><ele>284</ele><time>2020-06-12T13:15:09Z</time><name>PT11501</name></trkpt>
<trkpt lat="54.360626" lon="-3.107459"><ele>284</ele><time>2020-06-12T13:15:10Z</time><name>PT11502</name></trkpt>
<trkpt lat="54.360627" lon="-3.107476"><ele>284</ele><time>2020-06-12T13:15:11Z</time><name>PT11503</name></trkpt>
<trkpt lat="54.360627" lon="-3.107495"><ele>284</ele><time>2020-06-12T13:15:12Z</time><name>PT11504</name></trkpt>
<trkpt lat="54.360625" lon="-3.107510"><ele>285</ele><time>2020-06-12T13:15:13Z</time><name>PT11505</name></trkpt>
<trkpt lat="54.360625" lon="-3.107529"><ele>285</ele><time>2020-06-12T13:15:14Z</time><name>PT11506</name></trkpt>
<trkpt lat="54.360623" lon="-3.107549"><ele>285</ele><time>2020-06-12T13:15:15Z</time><name>PT11507</name></trkpt>
<trkpt lat="54.360620" lon="-3.107572"><ele>285</ele><time>2020-06-12T13:15:16Z</time><name>PT11508</name></trkpt>
<trkpt lat="54.360615" lon="-3.107595"><ele>285</ele><time>2020-06-12T13:15:17Z</time><name>PT11509</name></trkpt>
<trkpt lat="54.360606" lon="-3.107618"><ele>286</ele><time>2020-06-12T13:15:18Z</time><name>PT11510</name></trkpt>
<trkpt lat="54.360599" lon="-3.107643"><ele>286</ele><time>2020-06-12T13:15:19Z</time><name>PT11511</name></trkpt>
<trkpt lat="54.360594" lon="-3.107664"><ele>286</ele><time>2020-06-12T13:15:20Z</time><name>PT11512</name></trkpt>
<trkpt lat="54.360589" lon="-3.107685"><ele>286</ele><time>2020-06-12T13:15:21Z</time><name>PT11513</name></trkpt>
<trkpt lat="54.360584" lon="-3.107705"><ele>286</ele><time>2020-06-12T13:15:22Z</time><name>PT11514</name></trkpt>
<trkpt lat="54.360578" lon="-3.107723"><ele>286</ele><time>2020-06-12T13:15:23Z</time><name>PT11515</name></trkpt>
<trkpt lat="54.360570" lon="-3.107741"><ele>285</ele><time>2020-06-12T13:15:24Z</time><name>PT11516</name></trkpt>
<trkpt lat="54.360570" lon="-3.107754"><ele>285</ele><time>2020-06-12T13:15:25Z</time><name>PT11517</name></trkpt>
<trkpt lat="54.360561" lon="-3.107764"><ele>285</ele><time>2020-06-12T13:15:26Z</time><name>PT11518</name></trkpt>
<trkpt lat="54.360556" lon="-3.107782"><ele>285</ele><time>2020-06-12T13:15:27Z</time><name>PT11519</name></trkpt>
<trkpt lat="54.360547" lon="-3.107794"><ele>285</ele><time>2020-06-12T13:15:28Z</time><name>PT11520</name></trkpt>
<trkpt lat="54.360538" lon="-3.107806"><ele>285</ele><time>2020-06-12T13:15:29Z</time><name>PT11521</name></trkpt>
<trkpt lat="54.360528" lon="-3.107813"><ele>285</ele><time>2020-06-12T13:15:30Z</time><name>PT11522</name></trkpt>
<trkpt lat="54.360520" lon="-3.107823"><ele>285</ele><time>2020-06-12T13:15:31Z</time><name>PT11523</name></trkpt>
<trkpt lat="54.360511" lon="-3.107829"><ele>285</ele><time>2020-06-12T13:15:32Z</time><name>PT11524</name></trkpt>
<trkpt lat="54.360500" lon="-3.107837"><ele>285</ele><time>2020-06-12T13:15:33Z</time><name>PT11525</name></trkpt>
<trkpt lat="54.360490" lon="-3.107854"><ele>285</ele><time>2020-06-12T13:15:34Z</time><name>PT11526</name></trkpt>
<trkpt lat="54.360478" lon="-3.107868"><ele>285</ele><time>2020-06-12T13:15:35Z</time><name>PT11527</name></trkpt>
<trkpt lat="54.360464" lon="-3.107884"><ele>285</ele><time>2020-06-12T13:15:36Z</time><name>PT11528</name></trkpt>
<trkpt lat="54.360451" lon="-3.107895"><ele>286</ele><time>2020-06-12T13:15:37Z</time><name>PT11529</name></trkpt>
<trkpt lat="54.360438" lon="-3.107904"><ele>286</ele><time>2020-06-12T13:15:38Z</time><name>PT11530</name></trkpt>
<trkpt lat="54.360429" lon="-3.107911"><ele>287</ele><time>2020-06-12T13:15:39Z</time><name>PT11531</name></trkpt>
<trkpt lat="54.360419" lon="-3.107923"><ele>287</ele><time>2020-06-12T13:15:40Z</time><name>PT11532</name></trkpt>
<trkpt lat="54.360408" lon="-3.107938"><ele>287</ele><time>2020-06-12T13:15:41Z</time><name>PT11533</name></trkpt>
<trkpt lat="54.360400" lon="-3.107958"><ele>286</ele><time>2020-06-12T13:15:42Z</time><name>PT11534</name></trkpt>
<trkpt lat="54.360387" lon="-3.107972"><ele>287</ele><time>2020-06-12T13:15:43Z</time><name>PT11535</name></trkpt>
<trkpt lat="54.360375" lon="-3.107983"><ele>287</ele><time>2020-06-12T13:15:44Z</time><name>PT11536</name></trkpt>
<trkpt lat="54.360365" lon="-3.107991"><ele>286</ele><time>2020-06-12T13:15:45Z</time><name>PT11537</name></trkpt>
<trkpt lat="54.360354" lon="-3.108003"><ele>286</ele><time>2020-06-12T13:15:46Z</time><name>PT11538</name></trkpt>
<trkpt lat="54.360344" lon="-3.108019"><ele>286</ele><time>2020-06-12T13:15:47Z</time><name>PT11539</name></trkpt>
<trkpt lat="54.360334" lon="-3.108033"><ele>287</ele><time>2020-06-12T13:15:48Z</time><name>PT11540</name></trkpt>
<trkpt lat="54.360327" lon="-3.108043"><ele>287</ele><time>2020-06-12T13:15:49Z</time><name>PT11541</name></trkpt>
<trkpt lat="54.360319" lon="-3.108053"><ele>286</ele><time>2020-06-12T13:15:50Z</time><name>PT11542</name></trkpt>
<trkpt lat="54.360309" lon="-3.108064"><ele>286</ele><time>2020-06-12T13:15:51Z</time><name>PT11543</name></trkpt>
<trkpt lat="54.360300" lon="-3.108078"><ele>286</ele><time>2020-06-12T13:15:52Z</time><name>PT11544</name></trkpt>
<trkpt lat="54.360293" lon="-3.108089"><ele>286</ele><time>2020-06-12T13:15:53Z</time><name>PT11545</name></trkpt>
<trkpt lat="54.360286" lon="-3.108102"><ele>286</ele><time>2020-06-12T13:15:54Z</time><name>PT11546</name></trkpt>
<trkpt lat="54.360276" lon="-3.108115"><ele>286</ele><time>2020-06-12T13:15:55Z</time><name>PT11547</name></trkpt>
<trkpt lat="54.360268" lon="-3.108125"><ele>286</ele><time>2020-06-12T13:15:56Z</time><name>PT11548</name></trkpt>
<trkpt lat="54.360258" lon="-3.108139"><ele>286</ele><time>2020-06-12T13:15:57Z</time><name>PT11549</name></trkpt>
<trkpt lat="54.360251" lon="-3.108150"><ele>286</ele><time>2020-06-12T13:15:58Z</time><name>PT11550</name></trkpt>
<trkpt lat="54.360243" lon="-3.108165"><ele>286</ele><time>2020-06-12T13:15:59Z</time><name>PT11551</name></trkpt>
<trkpt lat="54.360236" lon="-3.108181"><ele>286</ele><time>2020-06-12T13:16:00Z</time><name>PT11552</name></trkpt>
<trkpt lat="54.360230" lon="-3.108198"><ele>286</ele><time>2020-06-12T13:16:01Z</time><name>PT11553</name></trkpt>
<trkpt lat="54.360225" lon="-3.108212"><ele>285</ele><time>2020-06-12T13:16:02Z</time><name>PT11554</name></trkpt>
<trkpt lat="54.360221" lon="-3.108226"><ele>285</ele><time>2020-06-12T13:16:03Z</time><name>PT11555</name></trkpt>
<trkpt lat="54.360212" lon="-3.108248"><ele>285</ele><time>2020-06-12T13:16:04Z</time><name>PT11556</name></trkpt>
<trkpt lat="54.360204" lon="-3.108268"><ele>285</ele><time>2020-06-12T13:16:05Z</time><name>PT11557</name></trkpt>
<trkpt lat="54.360194" lon="-3.108290"><ele>285</ele><time>2020-06-12T13:16:06Z</time><name>PT11558</name></trkpt>
<trkpt lat="54.360187" lon="-3.108310"><ele>285</ele><time>2020-06-12T13:16:07Z</time><name>PT11559</name></trkpt>
<trkpt lat="54.360180" lon="-3.108335"><ele>285</ele><time>2020-06-12T13:16:08Z</time><name>PT11560</name></trkpt>
<trkpt lat="54.360175" lon="-3.108356"><ele>285</ele><time>2020-06-12T13:16:09Z</time><name>PT11561</name></trkpt>
<trkpt lat="54.360168" lon="-3.108374"><ele>284</ele><time>2020-06-12T13:16:10Z</time><name>PT11562</name></trkpt>
<trkpt lat="54.360158" lon="-3.108393"><ele>284</ele><time>2020-06-12T13:16:11Z</time><name>PT11563</name></trkpt>
<trkpt lat="54.360158" lon="-3.108403"><ele>283</ele><time>2020-06-12T13:16:12Z</time><name>PT11564</name></trkpt>
<trkpt lat="54.360151" lon="-3.108421"><ele>283</ele><time>2020-06-12T13:16:13Z</time><name>PT11565</name></trkpt>
<trkpt lat="54.360145" lon="-3.108441"><ele>282</ele><time>2020-06-12T13:16:14Z</time><name>PT11566</name></trkpt>
<trkpt lat="54.360140" lon="-3.108460"><ele>282</ele><time>2020-06-12T13:16:15Z</time><name>PT11567</name></trkpt>
<trkpt lat="54.360134" lon="-3.108479"><ele>282</ele><time>2020-06-12T13:16:16Z</time><name>PT11568</name></trkpt>
<trkpt lat="54.360128" lon="-3.108494"><ele>282</ele><time>2020-06-12T13:16:17Z</time><name>PT11569</name></trkpt>
<trkpt lat="54.360121" lon="-3.108505"><ele>282</ele><time>2020-06-12T13:16:18Z</time><name>PT11570</name></trkpt>
<trkpt lat="54.360113" lon="-3.108523"><ele>282</ele><time>2020-06-12T13:16:19Z</time><name>PT11571</name></trkpt>
<trkpt lat="54.360107" lon="-3.108539"><ele>281</ele><time>2020-06-12T13:16:20Z</time><name>PT11572</name></trkpt>
<trkpt lat="54.360095" lon="-3.108557"><ele>282</ele><time>2020-06-12T13:16:21Z</time><name>PT11573</name></trkpt>
<trkpt lat="54.360087" lon="-3.108572"><ele>282</ele><time>2020-06-12T13:16:22Z</time><name>PT11574</name></trkpt>
<trkpt lat="54.360079" lon="-3.108587"><ele>282</ele><time>2020-06-12T13:16:23Z</time><name>PT11575</name></trkpt>
<trkpt lat="54.360068" lon="-3.108606"><ele>282</ele><time>2020-06-12T13:16:24Z</time><name>PT11576</name></trkpt>
<trkpt lat="54.360058" lon="-3.108618"><ele>282</ele><time>2020-06-12T13:16:25Z</time><name>PT11577</name></trkpt>
<trkpt lat="54.360049" lon="-3.108631"><ele>282</ele><time>2020-06-12T13:16:26Z</time><name>PT11578</name></trkpt>
<trkpt lat="54.360042" lon="-3.108644"><ele>282</ele><time>2020-06-12T13:16:27Z</time><name>PT11579</name></trkpt>
<trkpt lat="54.360031" lon="-3.108661"><ele>282</ele><time>2020-06-12T13:16:28Z</time><name>PT11580</name></trkpt>
<trkpt lat="54.360021" lon="-3.108677"><ele>282</ele><time>2020-06-12T13:16:29Z</time><name>PT11581</name></trkpt>
<trkpt lat="54.360011" lon="-3.108691"><ele>282</ele><time>2020-06-12T13:16:30Z</time><name>PT11582</name></trkpt>
<trkpt lat="54.359998" lon="-3.108710"><ele>282</ele><time>2020-06-12T13:16:31Z</time><name>PT11583</name></trkpt>
<trkpt lat="54.359988" lon="-3.108727"><ele>282</ele><time>2020-06-12T13:16:32Z</time><name>PT11584</name></trkpt>
<trkpt lat="54.359983" lon="-3.108742"><ele>283</ele><time>2020-06-12T13:16:33Z</time><name>PT11585</name></trkpt>
<trkpt lat="54.359977" lon="-3.108761"><ele>283</ele><time>2020-06-12T13:16:34Z</time><name>PT11586</name></trkpt>
<trkpt lat="54.359967" lon="-3.108779"><ele>283</ele><time>2020-06-12T13:16:35Z</time><name>PT11587</name></trkpt>
<trkpt lat="54.359956" lon="-3.108794"><ele>283</ele><time>2020-06-12T13:16:36Z</time><name>PT11588</name></trkpt>
<trkpt lat="54.359953" lon="-3.108795"><ele>283</ele><time>2020-06-12T13:16:37Z</time><name>PT11589</name></trkpt>
<trkpt lat="54.359949" lon="-3.108803"><ele>283</ele><time>2020-06-12T13:16:38Z</time><name>PT11590</name></trkpt>
<trkpt lat="54.359943" lon="-3.108816"><ele>283</ele><time>2020-06-12T13:16:39Z</time><name>PT11591</name></trkpt>
<trkpt lat="54.359934" lon="-3.108831"><ele>284</ele><time>2020-06-12T13:16:40Z</time><name>PT11592</name></trkpt>
<trkpt lat="54.359922" lon="-3.108841"><ele>284</ele><time>2020-06-12T13:16:41Z</time><name>PT11593</name></trkpt>
<trkpt lat="54.359910" lon="-3.108851"><ele>285</ele><time>2020-06-12T13:16:42Z</time><name>PT11594</name></trkpt>
<trkpt lat="54.359901" lon="-3.108863"><ele>286</ele><time>2020-06-12T13:16:43Z</time><name>PT11595</name></trkpt>
<trkpt lat="54.359890" lon="-3.108875"><ele>285</ele><time>2020-06-12T13:16:44Z</time><name>PT11596</name></trkpt>
<trkpt lat="54.359877" lon="-3.108886"><ele>285</ele><time>2020-06-12T13:16:45Z</time><name>PT11597</name></trkpt>
<trkpt lat="54.359868" lon="-3.108897"><ele>285</ele><time>2020-06-12T13:16:46Z</time><name>PT11598</name></trkpt>
<trkpt lat="54.359859" lon="-3.108908"><ele>285</ele><time>2020-06-12T13:16:47Z</time><name>PT11599</name></trkpt>
<trkpt lat="54.359851" lon="-3.108920"><ele>285</ele><time>2020-06-12T13:16:48Z</time><name>PT11600</name></trkpt>
<trkpt lat="54.359844" lon="-3.108932"><ele>285</ele><time>2020-06-12T13:16:49Z</time><name>PT11601</name></trkpt>
<trkpt lat="54.359834" lon="-3.108943"><ele>285</ele><time>2020-06-12T13:16:50Z</time><name>PT11602</name></trkpt>
<trkpt lat="54.359825" lon="-3.108955"><ele>285</ele><time>2020-06-12T13:16:51Z</time><name>PT11603</name></trkpt>
<trkpt lat="54.359817" lon="-3.108966"><ele>285</ele><time>2020-06-12T13:16:52Z</time><name>PT11604</name></trkpt>
<trkpt lat="54.359810" lon="-3.108976"><ele>285</ele><time>2020-06-12T13:16:53Z</time><name>PT11605</name></trkpt>
<trkpt lat="54.359804" lon="-3.108988"><ele>285</ele><time>2020-06-12T13:16:54Z</time><name>PT11606</name></trkpt>
<trkpt lat="54.359797" lon="-3.109000"><ele>285</ele><time>2020-06-12T13:16:55Z</time><name>PT11607</name></trkpt>
<trkpt lat="54.359792" lon="-3.109013"><ele>285</ele><time>2020-06-12T13:16:56Z</time><name>PT11608</name></trkpt>
<trkpt lat="54.359789" lon="-3.109020"><ele>284</ele><time>2020-06-12T13:16:57Z</time><name>PT11609</name></trkpt>
<trkpt lat="54.359788" lon="-3.109021"><ele>284</ele><time>2020-06-12T13:16:58Z</time><name>PT11610</name></trkpt>
<trkpt lat="54.359788" lon="-3.109021"><ele>284</ele><time>2020-06-12T13:16:59Z</time><name>PT11611</name></trkpt>
<trkpt lat="54.359788" lon="-3.109021"><ele>284</ele><time>2020-06-12T13:17:00Z</time><name>PT11612</name></trkpt>
<trkpt lat="54.359790" lon="-3.109022"><ele>285</ele><time>2020-06-12T13:17:06Z</time><name>PT11613</name></trkpt>
<trkpt lat="54.359790" lon="-3.109022"><ele>284</ele><time>2020-06-12T13:17:07Z</time><name>PT11614</name></trkpt>
<trkpt lat="54.359790" lon="-3.109023"><ele>284</ele><time>2020-06-12T13:17:08Z</time><name>PT11615</name></trkpt>
<trkpt lat="54.359793" lon="-3.109035"><ele>285</ele><time>2020-06-12T13:17:09Z</time><name>PT11616</name></trkpt>
<trkpt lat="54.359792" lon="-3.109049"><ele>284</ele><time>2020-06-12T13:17:10Z</time><name>PT11617</name></trkpt>
<trkpt lat="54.359792" lon="-3.109070"><ele>285</ele><time>2020-06-12T13:17:11Z</time><name>PT11618</name></trkpt>
<trkpt lat="54.359794" lon="-3.109091"><ele>284</ele><time>2020-06-12T13:17:12Z</time><name>PT11619</name></trkpt>
<trkpt lat="54.359794" lon="-3.109111"><ele>284</ele><time>2020-06-12T13:17:13Z</time><name>PT11620</name></trkpt>
<trkpt lat="54.359793" lon="-3.109132"><ele>285</ele><time>2020-06-12T13:17:14Z</time><name>PT11621</name></trkpt>
<trkpt lat="54.359794" lon="-3.109152"><ele>284</ele><time>2020-06-12T13:17:15Z</time><name>PT11622</name></trkpt>
<trkpt lat="54.359795" lon="-3.109172"><ele>285</ele><time>2020-06-12T13:17:16Z</time><name>PT11623</name></trkpt>
<trkpt lat="54.359796" lon="-3.109192"><ele>285</ele><time>2020-06-12T13:17:17Z</time><name>PT11624</name></trkpt>
<trkpt lat="54.359795" lon="-3.109211"><ele>285</ele><time>2020-06-12T13:17:18Z</time><name>PT11625</name></trkpt>
<trkpt lat="54.359792" lon="-3.109229"><ele>285</ele><time>2020-06-12T13:17:19Z</time><name>PT11626</name></trkpt>
<trkpt lat="54.359789" lon="-3.109246"><ele>285</ele><time>2020-06-12T13:17:20Z</time><name>PT11627</name></trkpt>
<trkpt lat="54.359786" lon="-3.109261"><ele>284</ele><time>2020-06-12T13:17:21Z</time><name>PT11628</name></trkpt>
<trkpt lat="54.359785" lon="-3.109278"><ele>284</ele><time>2020-06-12T13:17:22Z</time><name>PT11629</name></trkpt>
<trkpt lat="54.359781" lon="-3.109295"><ele>284</ele><time>2020-06-12T13:17:23Z</time><name>PT11630</name></trkpt>
<trkpt lat="54.359777" lon="-3.109313"><ele>284</ele><time>2020-06-12T13:17:24Z</time><name>PT11631</name></trkpt>
<trkpt lat="54.359773" lon="-3.109334"><ele>283</ele><time>2020-06-12T13:17:25Z</time><name>PT11632</name></trkpt>
<trkpt lat="54.359772" lon="-3.109361"><ele>283</ele><time>2020-06-12T13:17:26Z</time><name>PT11633</name></trkpt>
<trkpt lat="54.359768" lon="-3.109388"><ele>283</ele><time>2020-06-12T13:17:27Z</time><name>PT11634</name></trkpt>
<trkpt lat="54.359763" lon="-3.109411"><ele>283</ele><time>2020-06-12T13:17:28Z</time><name>PT11635</name></trkpt>
<trkpt lat="54.359759" lon="-3.109431"><ele>283</ele><time>2020-06-12T13:17:29Z</time><name>PT11636</name></trkpt>
<trkpt lat="54.359752" lon="-3.109451"><ele>284</ele><time>2020-06-12T13:17:30Z</time><name>PT11637</name></trkpt>
<trkpt lat="54.359746" lon="-3.109471"><ele>283</ele><time>2020-06-12T13:17:31Z</time><name>PT11638</name></trkpt>
<trkpt lat="54.359740" lon="-3.109494"><ele>284</ele><time>2020-06-12T13:17:32Z</time><name>PT11639</name></trkpt>
<trkpt lat="54.359740" lon="-3.109511"><ele>283</ele><time>2020-06-12T13:17:33Z</time><name>PT11640</name></trkpt>
<trkpt lat="54.359739" lon="-3.109532"><ele>283</ele><time>2020-06-12T13:17:34Z</time><name>PT11641</name></trkpt>
<trkpt lat="54.359733" lon="-3.109548"><ele>283</ele><time>2020-06-12T13:17:35Z</time><name>PT11642</name></trkpt>
<trkpt lat="54.359726" lon="-3.109564"><ele>283</ele><time>2020-06-12T13:17:36Z</time><name>PT11643</name></trkpt>
<trkpt lat="54.359717" lon="-3.109585"><ele>283</ele><time>2020-06-12T13:17:37Z</time><name>PT11644</name></trkpt>
<trkpt lat="54.359712" lon="-3.109600"><ele>283</ele><time>2020-06-12T13:17:38Z</time><name>PT11645</name></trkpt>
<trkpt lat="54.359706" lon="-3.109616"><ele>283</ele><time>2020-06-12T13:17:39Z</time><name>PT11646</name></trkpt>
<trkpt lat="54.359701" lon="-3.109630"><ele>283</ele><time>2020-06-12T13:17:40Z</time><name>PT11647</name></trkpt>
<trkpt lat="54.359697" lon="-3.109645"><ele>283</ele><time>2020-06-12T13:17:41Z</time><name>PT11648</name></trkpt>
<trkpt lat="54.359692" lon="-3.109664"><ele>284</ele><time>2020-06-12T13:17:42Z</time><name>PT11649</name></trkpt>
<trkpt lat="54.359685" lon="-3.109681"><ele>284</ele><time>2020-06-12T13:17:43Z</time><name>PT11650</name></trkpt>
<trkpt lat="54.359676" lon="-3.109693"><ele>284</ele><time>2020-06-12T13:17:44Z</time><name>PT11651</name></trkpt>
<trkpt lat="54.359669" lon="-3.109711"><ele>284</ele><time>2020-06-12T13:17:45Z</time><name>PT11652</name></trkpt>
<trkpt lat="54.359661" lon="-3.109732"><ele>284</ele><time>2020-06-12T13:17:46Z</time><name>PT11653</name></trkpt>
<trkpt lat="54.359655" lon="-3.109751"><ele>284</ele><time>2020-06-12T13:17:47Z</time><name>PT11654</name></trkpt>
<trkpt lat="54.359652" lon="-3.109770"><ele>284</ele><time>2020-06-12T13:17:48Z</time><name>PT11655</name></trkpt>
<trkpt lat="54.359647" lon="-3.109792"><ele>284</ele><time>2020-06-12T13:17:49Z</time><name>PT11656</name></trkpt>
<trkpt lat="54.359641" lon="-3.109812"><ele>284</ele><time>2020-06-12T13:17:50Z</time><name>PT11657</name></trkpt>
<trkpt lat="54.359635" lon="-3.109834"><ele>284</ele><time>2020-06-12T13:17:51Z</time><name>PT11658</name></trkpt>
<trkpt lat="54.359631" lon="-3.109850"><ele>284</ele><time>2020-06-12T13:17:52Z</time><name>PT11659</name></trkpt>
<trkpt lat="54.359627" lon="-3.109860"><ele>285</ele><time>2020-06-12T13:17:53Z</time><name>PT11660</name></trkpt>
<trkpt lat="54.359619" lon="-3.109877"><ele>285</ele><time>2020-06-12T13:17:54Z</time><name>PT11661</name></trkpt>
<trkpt lat="54.359614" lon="-3.109895"><ele>284</ele><time>2020-06-12T13:17:55Z</time><name>PT11662</name></trkpt>
<trkpt lat="54.359606" lon="-3.109911"><ele>284</ele><time>2020-06-12T13:17:56Z</time><name>PT11663</name></trkpt>
<trkpt lat="54.359598" lon="-3.109928"><ele>284</ele><time>2020-06-12T13:17:57Z</time><name>PT11664</name></trkpt>
<trkpt lat="54.359588" lon="-3.109948"><ele>284</ele><time>2020-06-12T13:17:58Z</time><name>PT11665</name></trkpt>
<trkpt lat="54.359579" lon="-3.109969"><ele>284</ele><time>2020-06-12T13:17:59Z</time><name>PT11666</name></trkpt>
<trkpt lat="54.359569" lon="-3.109989"><ele>284</ele><time>2020-06-12T13:18:00Z</time><name>PT11667</name></trkpt>
<trkpt lat="54.359560" lon="-3.110002"><ele>284</ele><time>2020-06-12T13:18:01Z</time><name>PT11668</name></trkpt>
<trkpt lat="54.359551" lon="-3.110015"><ele>283</ele><time>2020-06-12T13:18:02Z</time><name>PT11669</name></trkpt>
<trkpt lat="54.359540" lon="-3.110028"><ele>284</ele><time>2020-06-12T13:18:03Z</time><name>PT11670</name></trkpt>
<trkpt lat="54.359529" lon="-3.110042"><ele>284</ele><time>2020-06-12T13:18:04Z</time><name>PT11671</name></trkpt>
<trkpt lat="54.359518" lon="-3.110052"><ele>284</ele><time>2020-06-12T13:18:05Z</time><name>PT11672</name></trkpt>
<trkpt lat="54.359509" lon="-3.110059"><ele>284</ele><time>2020-06-12T13:18:06Z</time><name>PT11673</name></trkpt>
<trkpt lat="54.359496" lon="-3.110072"><ele>284</ele><time>2020-06-12T13:18:07Z</time><name>PT11674</name></trkpt>
<trkpt lat="54.359487" lon="-3.110080"><ele>284</ele><time>2020-06-12T13:18:08Z</time><name>PT11675</name></trkpt>
<trkpt lat="54.359476" lon="-3.110088"><ele>284</ele><time>2020-06-12T13:18:09Z</time><name>PT11676</name></trkpt>
<trkpt lat="54.359465" lon="-3.110102"><ele>284</ele><time>2020-06-12T13:18:10Z</time><name>PT11677</name></trkpt>
<trkpt lat="54.359455" lon="-3.110113"><ele>284</ele><time>2020-06-12T13:18:11Z</time><name>PT11678</name></trkpt>
<trkpt lat="54.359445" lon="-3.110118"><ele>284</ele><time>2020-06-12T13:18:12Z</time><name>PT11679</name></trkpt>
<trkpt lat="54.359433" lon="-3.110126"><ele>285</ele><time>2020-06-12T13:18:13Z</time><name>PT11680</name></trkpt>
<trkpt lat="54.359421" lon="-3.110125"><ele>285</ele><time>2020-06-12T13:18:14Z</time><name>PT11681</name></trkpt>
<trkpt lat="54.359410" lon="-3.110133"><ele>285</ele><time>2020-06-12T13:18:15Z</time><name>PT11682</name></trkpt>
<trkpt lat="54.359402" lon="-3.110146"><ele>285</ele><time>2020-06-12T13:18:16Z</time><name>PT11683</name></trkpt>
<trkpt lat="54.359395" lon="-3.110163"><ele>284</ele><time>2020-06-12T13:18:17Z</time><name>PT11684</name></trkpt>
<trkpt lat="54.359383" lon="-3.110173"><ele>284</ele><time>2020-06-12T13:18:18Z</time><name>PT11685</name></trkpt>
<trkpt lat="54.359374" lon="-3.110185"><ele>283</ele><time>2020-06-12T13:18:19Z</time><name>PT11686</name></trkpt>
<trkpt lat="54.359362" lon="-3.110198"><ele>283</ele><time>2020-06-12T13:18:20Z</time><name>PT11687</name></trkpt>
<trkpt lat="54.359354" lon="-3.110212"><ele>283</ele><time>2020-06-12T13:18:21Z</time><name>PT11688</name></trkpt>
<trkpt lat="54.359348" lon="-3.110226"><ele>283</ele><time>2020-06-12T13:18:22Z</time><name>PT11689</name></trkpt>
<trkpt lat="54.359340" lon="-3.110241"><ele>283</ele><time>2020-06-12T13:18:23Z</time><name>PT11690</name></trkpt>
<trkpt lat="54.359332" lon="-3.110256"><ele>283</ele><time>2020-06-12T13:18:24Z</time><name>PT11691</name></trkpt>
<trkpt lat="54.359324" lon="-3.110272"><ele>282</ele><time>2020-06-12T13:18:25Z</time><name>PT11692</name></trkpt>
<trkpt lat="54.359316" lon="-3.110287"><ele>282</ele><time>2020-06-12T13:18:26Z</time><name>PT11693</name></trkpt>
<trkpt lat="54.359311" lon="-3.110306"><ele>282</ele><time>2020-06-12T13:18:27Z</time><name>PT11694</name></trkpt>
<trkpt lat="54.359307" lon="-3.110329"><ele>282</ele><time>2020-06-12T13:18:28Z</time><name>PT11695</name></trkpt>
<trkpt lat="54.359304" lon="-3.110349"><ele>281</ele><time>2020-06-12T13:18:29Z</time><name>PT11696</name></trkpt>
<trkpt lat="54.359301" lon="-3.110364"><ele>281</ele><time>2020-06-12T13:18:30Z</time><name>PT11697</name></trkpt>
<trkpt lat="54.359292" lon="-3.110374"><ele>282</ele><time>2020-06-12T13:18:31Z</time><name>PT11698</name></trkpt>
<trkpt lat="54.359285" lon="-3.110394"><ele>282</ele><time>2020-06-12T13:18:32Z</time><name>PT11699</name></trkpt>
<trkpt lat="54.359279" lon="-3.110414"><ele>282</ele><time>2020-06-12T13:18:33Z</time><name>PT11700</name></trkpt>
<trkpt lat="54.359276" lon="-3.110433"><ele>282</ele><time>2020-06-12T13:18:34Z</time><name>PT11701</name></trkpt>
<trkpt lat="54.359272" lon="-3.110452"><ele>282</ele><time>2020-06-12T13:18:35Z</time><name>PT11702</name></trkpt>
<trkpt lat="54.359266" lon="-3.110468"><ele>282</ele><time>2020-06-12T13:18:36Z</time><name>PT11703</name></trkpt>
<trkpt lat="54.359257" lon="-3.110482"><ele>283</ele><time>2020-06-12T13:18:37Z</time><name>PT11704</name></trkpt>
<trkpt lat="54.359251" lon="-3.110497"><ele>282</ele><time>2020-06-12T13:18:38Z</time><name>PT11705</name></trkpt>
<trkpt lat="54.359243" lon="-3.110513"><ele>282</ele><time>2020-06-12T13:18:39Z</time><name>PT11706</name></trkpt>
<trkpt lat="54.359236" lon="-3.110535"><ele>282</ele><time>2020-06-12T13:18:40Z</time><name>PT11707</name></trkpt>
<trkpt lat="54.359230" lon="-3.110552"><ele>282</ele><time>2020-06-12T13:18:41Z</time><name>PT11708</name></trkpt>
<trkpt lat="54.359223" lon="-3.110566"><ele>282</ele><time>2020-06-12T13:18:42Z</time><name>PT11709</name></trkpt>
<trkpt lat="54.359214" lon="-3.110585"><ele>282</ele><time>2020-06-12T13:18:43Z</time><name>PT11710</name></trkpt>
<trkpt lat="54.359205" lon="-3.110601"><ele>282</ele><time>2020-06-12T13:18:44Z</time><name>PT11711</name></trkpt>
<trkpt lat="54.359198" lon="-3.110618"><ele>282</ele><time>2020-06-12T13:18:45Z</time><name>PT11712</name></trkpt>
<trkpt lat="54.359195" lon="-3.110630"><ele>282</ele><time>2020-06-12T13:18:46Z</time><name>PT11713</name></trkpt>
<trkpt lat="54.359186" lon="-3.110650"><ele>282</ele><time>2020-06-12T13:18:47Z</time><name>PT11714</name></trkpt>
<trkpt lat="54.359178" lon="-3.110669"><ele>282</ele><time>2020-06-12T13:18:48Z</time><name>PT11715</name></trkpt>
<trkpt lat="54.359168" lon="-3.110683"><ele>283</ele><time>2020-06-12T13:18:49Z</time><name>PT11716</name></trkpt>
<trkpt lat="54.359161" lon="-3.110697"><ele>282</ele><time>2020-06-12T13:18:50Z</time><name>PT11717</name></trkpt>
<trkpt lat="54.359156" lon="-3.110712"><ele>282</ele><time>2020-06-12T13:18:51Z</time><name>PT11718</name></trkpt>
<trkpt lat="54.359152" lon="-3.110729"><ele>282</ele><time>2020-06-12T13:18:52Z</time><name>PT11719</name></trkpt>
<trkpt lat="54.359137" lon="-3.110755"><ele>282</ele><time>2020-06-12T13:18:53Z</time><name>PT11720</name></trkpt>
<trkpt lat="54.359126" lon="-3.110773"><ele>282</ele><time>2020-06-12T13:18:54Z</time><name>PT11721</name></trkpt>
<trkpt lat="54.359116" lon="-3.110790"><ele>282</ele><time>2020-06-12T13:18:55Z</time><name>PT11722</name></trkpt>
<trkpt lat="54.359106" lon="-3.110811"><ele>282</ele><time>2020-06-12T13:18:56Z</time><name>PT11723</name></trkpt>
<trkpt lat="54.359100" lon="-3.110825"><ele>282</ele><time>2020-06-12T13:18:57Z</time><name>PT11724</name></trkpt>
<trkpt lat="54.359093" lon="-3.110845"><ele>282</ele><time>2020-06-12T13:18:58Z</time><name>PT11725</name></trkpt>
<trkpt lat="54.359085" lon="-3.110861"><ele>282</ele><time>2020-06-12T13:18:59Z</time><name>PT11726</name></trkpt>
<trkpt lat="54.359077" lon="-3.110867"><ele>282</ele><time>2020-06-12T13:19:00Z</time><name>PT11727</name></trkpt>
<trkpt lat="54.359069" lon="-3.110876"><ele>282</ele><time>2020-06-12T13:19:01Z</time><name>PT11728</name></trkpt>
<trkpt lat="54.359057" lon="-3.110887"><ele>283</ele><time>2020-06-12T13:19:02Z</time><name>PT11729</name></trkpt>
<trkpt lat="54.359049" lon="-3.110905"><ele>282</ele><time>2020-06-12T13:19:03Z</time><name>PT11730</name></trkpt>
<trkpt lat="54.359041" lon="-3.110921"><ele>282</ele><time>2020-06-12T13:19:04Z</time><name>PT11731</name></trkpt>
<trkpt lat="54.359030" lon="-3.110935"><ele>282</ele><time>2020-06-12T13:19:05Z</time><name>PT11732</name></trkpt>
<trkpt lat="54.359017" lon="-3.110950"><ele>282</ele><time>2020-06-12T13:19:06Z</time><name>PT11733</name></trkpt>
<trkpt lat="54.359005" lon="-3.110961"><ele>282</ele><time>2020-06-12T13:19:07Z</time><name>PT11734</name></trkpt>
<trkpt lat="54.358992" lon="-3.110977"><ele>282</ele><time>2020-06-12T13:19:08Z</time><name>PT11735</name></trkpt>
<trkpt lat="54.358981" lon="-3.110994"><ele>283</ele><time>2020-06-12T13:19:09Z</time><name>PT11736</name></trkpt>
<trkpt lat="54.358974" lon="-3.111012"><ele>283</ele><time>2020-06-12T13:19:10Z</time><name>PT11737</name></trkpt>
<trkpt lat="54.358968" lon="-3.111030"><ele>283</ele><time>2020-06-12T13:19:11Z</time><name>PT11738</name></trkpt>
<trkpt lat="54.358963" lon="-3.111042"><ele>282</ele><time>2020-06-12T13:19:12Z</time><name>PT11739</name></trkpt>
<trkpt lat="54.358954" lon="-3.111054"><ele>283</ele><time>2020-06-12T13:19:13Z</time><name>PT11740</name></trkpt>
<trkpt lat="54.358942" lon="-3.111063"><ele>284</ele><time>2020-06-12T13:19:14Z</time><name>PT11741</name></trkpt>
<trkpt lat="54.358932" lon="-3.111072"><ele>285</ele><time>2020-06-12T13:19:15Z</time><name>PT11742</name></trkpt>
<trkpt lat="54.358928" lon="-3.111084"><ele>284</ele><time>2020-06-12T13:19:16Z</time><name>PT11743</name></trkpt>
<trkpt lat="54.358922" lon="-3.111102"><ele>284</ele><time>2020-06-12T13:19:17Z</time><name>PT11744</name></trkpt>
<trkpt lat="54.358919" lon="-3.111112"><ele>284</ele><time>2020-06-12T13:19:18Z</time><name>PT11745</name></trkpt>
<trkpt lat="54.358915" lon="-3.111127"><ele>285</ele><time>2020-06-12T13:19:19Z</time><name>PT11746</name></trkpt>
<trkpt lat="54.358904" lon="-3.111142"><ele>285</ele><time>2020-06-12T13:19:20Z</time><name>PT11747</name></trkpt>
<trkpt lat="54.358895" lon="-3.111159"><ele>285</ele><time>2020-06-12T13:19:21Z</time><name>PT11748</name></trkpt>
<trkpt lat="54.358885" lon="-3.111180"><ele>285</ele><time>2020-06-12T13:19:22Z</time><name>PT11749</name></trkpt>
<trkpt lat="54.358879" lon="-3.111199"><ele>285</ele><time>2020-06-12T13:19:23Z</time><name>PT11750</name></trkpt>
<trkpt lat="54.358876" lon="-3.111212"><ele>285</ele><time>2020-06-12T13:19:24Z</time><name>PT11751</name></trkpt>
<trkpt lat="54.358867" lon="-3.111223"><ele>285</ele><time>2020-06-12T13:19:25Z</time><name>PT11752</name></trkpt>
<trkpt lat="54.358859" lon="-3.111233"><ele>285</ele><time>2020-06-12T13:19:26Z</time><name>PT11753</name></trkpt>
<trkpt lat="54.358850" lon="-3.111242"><ele>285</ele><time>2020-06-12T13:19:27Z</time><name>PT11754</name></trkpt>
<trkpt lat="54.358840" lon="-3.111255"><ele>285</ele><time>2020-06-12T13:19:28Z</time><name>PT11755</name></trkpt>
<trkpt lat="54.358833" lon="-3.111268"><ele>285</ele><time>2020-06-12T13:19:29Z</time><name>PT11756</name></trkpt>
<trkpt lat="54.358823" lon="-3.111285"><ele>285</ele><time>2020-06-12T13:19:30Z</time><name>PT11757</name></trkpt>
<trkpt lat="54.358815" lon="-3.111290"><ele>285</ele><time>2020-06-12T13:19:31Z</time><name>PT11758</name></trkpt>
<trkpt lat="54.358806" lon="-3.111301"><ele>285</ele><time>2020-06-12T13:19:32Z</time><name>PT11759</name></trkpt>
<trkpt lat="54.358792" lon="-3.111317"><ele>285</ele><time>2020-06-12T13:19:33Z</time><name>PT11760</name></trkpt>
<trkpt lat="54.358782" lon="-3.111329"><ele>285</ele><time>2020-06-12T13:19:34Z</time><name>PT11761</name></trkpt>
<trkpt lat="54.358772" lon="-3.111340"><ele>285</ele><time>2020-06-12T13:19:35Z</time><name>PT11762</name></trkpt>
<trkpt lat="54.358764" lon="-3.111355"><ele>284</ele><time>2020-06-12T13:19:36Z</time><name>PT11763</name></trkpt>
<trkpt lat="54.358754" lon="-3.111374"><ele>284</ele><time>2020-06-12T13:19:37Z</time><name>PT11764</name></trkpt>
<trkpt lat="54.358745" lon="-3.111388"><ele>284</ele><time>2020-06-12T13:19:38Z</time><name>PT11765</name></trkpt>
<trkpt lat="54.358733" lon="-3.111400"><ele>284</ele><time>2020-06-12T13:19:39Z</time><name>PT11766</name></trkpt>
<trkpt lat="54.358720" lon="-3.111418"><ele>283</ele><time>2020-06-12T13:19:40Z</time><name>PT11767</name></trkpt>
<trkpt lat="54.358708" lon="-3.111439"><ele>284</ele><time>2020-06-12T13:19:41Z</time><name>PT11768</name></trkpt>
<trkpt lat="54.358700" lon="-3.111456"><ele>284</ele><time>2020-06-12T13:19:42Z</time><name>PT11769</name></trkpt>
<trkpt lat="54.358694" lon="-3.111476"><ele>284</ele><time>2020-06-12T13:19:43Z</time><name>PT11770</name></trkpt>
<trkpt lat="54.358689" lon="-3.111493"><ele>283</ele><time>2020-06-12T13:19:44Z</time><name>PT11771</name></trkpt>
<trkpt lat="54.358679" lon="-3.111506"><ele>283</ele><time>2020-06-12T13:19:45Z</time><name>PT11772</name></trkpt>
<trkpt lat="54.358668" lon="-3.111516"><ele>283</ele><time>2020-06-12T13:19:46Z</time><name>PT11773</name></trkpt>
<trkpt lat="54.358665" lon="-3.111534"><ele>283</ele><time>2020-06-12T13:19:47Z</time><name>PT11774</name></trkpt>
<trkpt lat="54.358660" lon="-3.111558"><ele>283</ele><time>2020-06-12T13:19:48Z</time><name>PT11775</name></trkpt>
<trkpt lat="54.358659" lon="-3.111579"><ele>283</ele><time>2020-06-12T13:19:49Z</time><name>PT11776</name></trkpt>
<trkpt lat="54.358655" lon="-3.111597"><ele>283</ele><time>2020-06-12T13:19:50Z</time><name>PT11777</name></trkpt>
<trkpt lat="54.358652" lon="-3.111611"><ele>283</ele><time>2020-06-12T13:19:51Z</time><name>PT11778</name></trkpt>
<trkpt lat="54.358645" lon="-3.111631"><ele>282</ele><time>2020-06-12T13:19:52Z</time><name>PT11779</name></trkpt>
<trkpt lat="54.358640" lon="-3.111647"><ele>283</ele><time>2020-06-12T13:19:53Z</time><name>PT11780</name></trkpt>
<trkpt lat="54.358636" lon="-3.111660"><ele>283</ele><time>2020-06-12T13:19:54Z</time><name>PT11781</name></trkpt>
<trkpt lat="54.358633" lon="-3.111671"><ele>283</ele><time>2020-06-12T13:19:55Z</time><name>PT11782</name></trkpt>
<trkpt lat="54.358627" lon="-3.111684"><ele>283</ele><time>2020-06-12T13:19:56Z</time><name>PT11783</name></trkpt>
<trkpt lat="54.358620" lon="-3.111696"><ele>283</ele><time>2020-06-12T13:19:57Z</time><name>PT11784</name></trkpt>
<trkpt lat="54.358612" lon="-3.111712"><ele>283</ele><time>2020-06-12T13:19:58Z</time><name>PT11785</name></trkpt>
<trkpt lat="54.358605" lon="-3.111727"><ele>284</ele><time>2020-06-12T13:19:59Z</time><name>PT11786</name></trkpt>
<trkpt lat="54.358598" lon="-3.111746"><ele>284</ele><time>2020-06-12T13:20:00Z</time><name>PT11787</name></trkpt>
<trkpt lat="54.358593" lon="-3.111766"><ele>284</ele><time>2020-06-12T13:20:01Z</time><name>PT11788</name></trkpt>
<trkpt lat="54.358587" lon="-3.111781"><ele>283</ele><time>2020-06-12T13:20:02Z</time><name>PT11789</name></trkpt>
<trkpt lat="54.358580" lon="-3.111803"><ele>283</ele><time>2020-06-12T13:20:03Z</time><name>PT11790</name></trkpt>
<trkpt lat="54.358573" lon="-3.111821"><ele>283</ele><time>2020-06-12T13:20:04Z</time><name>PT11791</name></trkpt>
<trkpt lat="54.358571" lon="-3.111840"><ele>283</ele><time>2020-06-12T13:20:05Z</time><name>PT11792</name></trkpt>
<trkpt lat="54.358570" lon="-3.111859"><ele>283</ele><time>2020-06-12T13:20:06Z</time><name>PT11793</name></trkpt>
<trkpt lat="54.358565" lon="-3.111877"><ele>283</ele><time>2020-06-12T13:20:07Z</time><name>PT11794</name></trkpt>
<trkpt lat="54.358556" lon="-3.111898"><ele>284</ele><time>2020-06-12T13:20:08Z</time><name>PT11795</name></trkpt>
<trkpt lat="54.358552" lon="-3.111914"><ele>283</ele><time>2020-06-12T13:20:09Z</time><name>PT11796</name></trkpt>
<trkpt lat="54.358549" lon="-3.111935"><ele>283</ele><time>2020-06-12T13:20:10Z</time><name>PT11797</name></trkpt>
<trkpt lat="54.358544" lon="-3.111956"><ele>284</ele><time>2020-06-12T13:20:11Z</time><name>PT11798</name></trkpt>
<trkpt lat="54.358538" lon="-3.111972"><ele>284</ele><time>2020-06-12T13:20:12Z</time><name>PT11799</name></trkpt>
<trkpt lat="54.358530" lon="-3.111990"><ele>284</ele><time>2020-06-12T13:20:13Z</time><name>PT11800</name></trkpt>
<trkpt lat="54.358523" lon="-3.112009"><ele>284</ele><time>2020-06-12T13:20:14Z</time><name>PT11801</name></trkpt>
<trkpt lat="54.358518" lon="-3.112029"><ele>284</ele><time>2020-06-12T13:20:15Z</time><name>PT11802</name></trkpt>
<trkpt lat="54.358513" lon="-3.112048"><ele>284</ele><time>2020-06-12T13:20:16Z</time><name>PT11803</name></trkpt>
<trkpt lat="54.358511" lon="-3.112063"><ele>284</ele><time>2020-06-12T13:20:17Z</time><name>PT11804</name></trkpt>
<trkpt lat="54.358507" lon="-3.112080"><ele>285</ele><time>2020-06-12T13:20:18Z</time><name>PT11805</name></trkpt>
<trkpt lat="54.358504" lon="-3.112094"><ele>284</ele><time>2020-06-12T13:20:19Z</time><name>PT11806</name></trkpt>
<trkpt lat="54.358503" lon="-3.112106"><ele>284</ele><time>2020-06-12T13:20:20Z</time><name>PT11807</name></trkpt>
<trkpt lat="54.358497" lon="-3.112117"><ele>285</ele><time>2020-06-12T13:20:21Z</time><name>PT11808</name></trkpt>
<trkpt lat="54.358496" lon="-3.112132"><ele>285</ele><time>2020-06-12T13:20:22Z</time><name>PT11809</name></trkpt>
<trkpt lat="54.358492" lon="-3.112156"><ele>285</ele><time>2020-06-12T13:20:23Z</time><name>PT11810</name></trkpt>
<trkpt lat="54.358486" lon="-3.112169"><ele>285</ele><time>2020-06-12T13:20:24Z</time><name>PT11811</name></trkpt>
<trkpt lat="54.358484" lon="-3.112182"><ele>284</ele><time>2020-06-12T13:20:25Z</time><name>PT11812</name></trkpt>
<trkpt lat="54.358480" lon="-3.112197"><ele>285</ele><time>2020-06-12T13:20:26Z</time><name>PT11813</name></trkpt>
<trkpt lat="54.358476" lon="-3.112214"><ele>285</ele><time>2020-06-12T13:20:27Z</time><name>PT11814</name></trkpt>
<trkpt lat="54.358471" lon="-3.112232"><ele>285</ele><time>2020-06-12T13:20:28Z</time><name>PT11815</name></trkpt>
<trkpt lat="54.358467" lon="-3.112247"><ele>284</ele><time>2020-06-12T13:20:29Z</time><name>PT11816</name></trkpt>
<trkpt lat="54.358462" lon="-3.112268"><ele>285</ele><time>2020-06-12T13:20:30Z</time><name>PT11817</name></trkpt>
<trkpt lat="54.358457" lon="-3.112289"><ele>285</ele><time>2020-06-12T13:20:31Z</time><name>PT11818</name></trkpt>
<trkpt lat="54.358452" lon="-3.112310"><ele>285</ele><time>2020-06-12T13:20:32Z</time><name>PT11819</name></trkpt>
<trkpt lat="54.358445" lon="-3.112326"><ele>285</ele><time>2020-06-12T13:20:33Z</time><name>PT11820</name></trkpt>
<trkpt lat="54.358436" lon="-3.112344"><ele>285</ele><time>2020-06-12T13:20:34Z</time><name>PT11821</name></trkpt>
<trkpt lat="54.358429" lon="-3.112365"><ele>285</ele><time>2020-06-12T13:20:35Z</time><name>PT11822</name></trkpt>
<trkpt lat="54.358422" lon="-3.112382"><ele>285</ele><time>2020-06-12T13:20:36Z</time><name>PT11823</name></trkpt>
<trkpt lat="54.358413" lon="-3.112404"><ele>286</ele><time>2020-06-12T13:20:37Z</time><name>PT11824</name></trkpt>
<trkpt lat="54.358411" lon="-3.112428"><ele>286</ele><time>2020-06-12T13:20:38Z</time><name>PT11825</name></trkpt>
<trkpt lat="54.358406" lon="-3.112446"><ele>286</ele><time>2020-06-12T13:20:39Z</time><name>PT11826</name></trkpt>
<trkpt lat="54.358402" lon="-3.112464"><ele>286</ele><time>2020-06-12T13:20:40Z</time><name>PT11827</name></trkpt>
<trkpt lat="54.358392" lon="-3.112484"><ele>286</ele><time>2020-06-12T13:20:41Z</time><name>PT11828</name></trkpt>
<trkpt lat="54.358380" lon="-3.112503"><ele>286</ele><time>2020-06-12T13:20:42Z</time><name>PT11829</name></trkpt>
<trkpt lat="54.358367" lon="-3.112524"><ele>287</ele><time>2020-06-12T13:20:43Z</time><name>PT11830</name></trkpt>
<trkpt lat="54.358356" lon="-3.112544"><ele>287</ele><time>2020-06-12T13:20:44Z</time><name>PT11831</name></trkpt>
<trkpt lat="54.358351" lon="-3.112559"><ele>287</ele><time>2020-06-12T13:20:45Z</time><name>PT11832</name></trkpt>
<trkpt lat="54.358346" lon="-3.112576"><ele>287</ele><time>2020-06-12T13:20:46Z</time><name>PT11833</name></trkpt>
<trkpt lat="54.358339" lon="-3.112592"><ele>287</ele><time>2020-06-12T13:20:47Z</time><name>PT11834</name></trkpt>
<trkpt lat="54.358331" lon="-3.112606"><ele>287</ele><time>2020-06-12T13:20:48Z</time><name>PT11835</name></trkpt>
<trkpt lat="54.358323" lon="-3.112623"><ele>286</ele><time>2020-06-12T13:20:49Z</time><name>PT11836</name></trkpt>
<trkpt lat="54.358315" lon="-3.112639"><ele>287</ele><time>2020-06-12T13:20:50Z</time><name>PT11837</name></trkpt>
<trkpt lat="54.358306" lon="-3.112659"><ele>287</ele><time>2020-06-12T13:20:51Z</time><name>PT11838</name></trkpt>
<trkpt lat="54.358299" lon="-3.112675"><ele>287</ele><time>2020-06-12T13:20:52Z</time><name>PT11839</name></trkpt>
<trkpt lat="54.358291" lon="-3.112691"><ele>287</ele><time>2020-06-12T13:20:53Z</time><name>PT11840</name></trkpt>
<trkpt lat="54.358282" lon="-3.112711"><ele>287</ele><time>2020-06-12T13:20:54Z</time><name>PT11841</name></trkpt>
<trkpt lat="54.358271" lon="-3.112723"><ele>287</ele><time>2020-06-12T13:20:55Z</time><name>PT11842</name></trkpt>
<trkpt lat="54.358262" lon="-3.112736"><ele>287</ele><time>2020-06-12T13:20:56Z</time><name>PT11843</name></trkpt>
<trkpt lat="54.358254" lon="-3.112753"><ele>287</ele><time>2020-06-12T13:20:57Z</time><name>PT11844</name></trkpt>
<trkpt lat="54.358245" lon="-3.112766"><ele>287</ele><time>2020-06-12T13:20:58Z</time><name>PT11845</name></trkpt>
<trkpt lat="54.358237" lon="-3.112782"><ele>287</ele><time>2020-06-12T13:20:59Z</time><name>PT11846</name></trkpt>
<trkpt lat="54.358228" lon="-3.112799"><ele>287</ele><time>2020-06-12T13:21:00Z</time><name>PT11847</name></trkpt>
<trkpt lat="54.358215" lon="-3.112820"><ele>288</ele><time>2020-06-12T13:21:01Z</time><name>PT11848</name></trkpt>
<trkpt lat="54.358205" lon="-3.112837"><ele>288</ele><time>2020-06-12T13:21:02Z</time><name>PT11849</name></trkpt>
<trkpt lat="54.358196" lon="-3.112854"><ele>288</ele><time>2020-06-12T13:21:03Z</time><name>PT11850</name></trkpt>
<trkpt lat="54.358186" lon="-3.112868"><ele>288</ele><time>2020-06-12T13:21:04Z</time><name>PT11851</name></trkpt>
<trkpt lat="54.358176" lon="-3.112882"><ele>288</ele><time>2020-06-12T13:21:05Z</time><name>PT11852</name></trkpt>
<trkpt lat="54.358170" lon="-3.112892"><ele>288</ele><time>2020-06-12T13:21:06Z</time><name>PT11853</name></trkpt>
<trkpt lat="54.358162" lon="-3.112905"><ele>288</ele><time>2020-06-12T13:21:07Z</time><name>PT11854</name></trkpt>
<trkpt lat="54.358152" lon="-3.112920"><ele>288</ele><time>2020-06-12T13:21:08Z</time><name>PT11855</name></trkpt>
<trkpt lat="54.358146" lon="-3.112932"><ele>287</ele><time>2020-06-12T13:21:09Z</time><name>PT11856</name></trkpt>
<trkpt lat="54.358138" lon="-3.112962"><ele>288</ele><time>2020-06-12T13:21:10Z</time><name>PT11857</name></trkpt>
<trkpt lat="54.358127" lon="-3.112985"><ele>288</ele><time>2020-06-12T13:21:11Z</time><name>PT11858</name></trkpt>
<trkpt lat="54.358119" lon="-3.113011"><ele>289</ele><time>2020-06-12T13:21:12Z</time><name>PT11859</name></trkpt>
<trkpt lat="54.358112" lon="-3.113025"><ele>289</ele><time>2020-06-12T13:21:13Z</time><name>PT11860</name></trkpt>
<trkpt lat="54.358107" lon="-3.113040"><ele>289</ele><time>2020-06-12T13:21:14Z</time><name>PT11861</name></trkpt>
<trkpt lat="54.358107" lon="-3.113056"><ele>289</ele><time>2020-06-12T13:21:15Z</time><name>PT11862</name></trkpt>
<trkpt lat="54.358101" lon="-3.113071"><ele>289</ele><time>2020-06-12T13:21:16Z</time><name>PT11863</name></trkpt>
<trkpt lat="54.358094" lon="-3.113080"><ele>288</ele><time>2020-06-12T13:21:17Z</time><name>PT11864</name></trkpt>
<trkpt lat="54.358082" lon="-3.113090"><ele>288</ele><time>2020-06-12T13:21:18Z</time><name>PT11865</name></trkpt>
<trkpt lat="54.358068" lon="-3.113103"><ele>288</ele><time>2020-06-12T13:21:19Z</time><name>PT11866</name></trkpt>
<trkpt lat="54.358060" lon="-3.113111"><ele>289</ele><time>2020-06-12T13:21:20Z</time><name>PT11867</name></trkpt>
<trkpt lat="54.358059" lon="-3.113114"><ele>289</ele><time>2020-06-12T13:21:21Z</time><name>PT11868</name></trkpt>
<trkpt lat="54.358059" lon="-3.113114"><ele>288</ele><time>2020-06-12T13:21:22Z</time><name>PT11869</name></trkpt>
<trkpt lat="54.358058" lon="-3.113117"><ele>288</ele><time>2020-06-12T13:21:23Z</time><name>PT11870</name></trkpt>
<trkpt lat="54.358057" lon="-3.113120"><ele>288</ele><time>2020-06-12T13:21:24Z</time><name>PT11871</name></trkpt>
<trkpt lat="54.358055" lon="-3.113121"><ele>288</ele><time>2020-06-12T13:21:25Z</time><name>PT11872</name></trkpt>
<trkpt lat="54.358052" lon="-3.113118"><ele>288</ele><time>2020-06-12T13:21:30Z</time><name>PT11873</name></trkpt>
<trkpt lat="54.358041" lon="-3.113116"><ele>288</ele><time>2020-06-12T13:21:31Z</time><name>PT11874</name></trkpt>
<trkpt lat="54.358028" lon="-3.113116"><ele>288</ele><time>2020-06-12T13:21:32Z</time><name>PT11875</name></trkpt>
<trkpt lat="54.358016" lon="-3.113122"><ele>288</ele><time>2020-06-12T13:21:33Z</time><name>PT11876</name></trkpt>
<trkpt lat="54.358005" lon="-3.113128"><ele>288</ele><time>2020-06-12T13:21:34Z</time><name>PT11877</name></trkpt>
<trkpt lat="54.357987" lon="-3.113129"><ele>287</ele><time>2020-06-12T13:21:35Z</time><name>PT11878</name></trkpt>
<trkpt lat="54.357975" lon="-3.113136"><ele>287</ele><time>2020-06-12T13:21:36Z</time><name>PT11879</name></trkpt>
<trkpt lat="54.357966" lon="-3.113149"><ele>287</ele><time>2020-06-12T13:21:37Z</time><name>PT11880</name></trkpt>
<trkpt lat="54.357956" lon="-3.113157"><ele>287</ele><time>2020-06-12T13:21:38Z</time><name>PT11881</name></trkpt>
<trkpt lat="54.357947" lon="-3.113169"><ele>287</ele><time>2020-06-12T13:21:39Z</time><name>PT11882</name></trkpt>
<trkpt lat="54.357936" lon="-3.113182"><ele>287</ele><time>2020-06-12T13:21:40Z</time><name>PT11883</name></trkpt>
<trkpt lat="54.357926" lon="-3.113193"><ele>287</ele><time>2020-06-12T13:21:41Z</time><name>PT11884</name></trkpt>
<trkpt lat="54.357915" lon="-3.113206"><ele>287</ele><time>2020-06-12T13:21:42Z</time><name>PT11885</name></trkpt>
<trkpt lat="54.357905" lon="-3.113218"><ele>287</ele><time>2020-06-12T13:21:43Z</time><name>PT11886</name></trkpt>
<trkpt lat="54.357893" lon="-3.113227"><ele>286</ele><time>2020-06-12T13:21:44Z</time><name>PT11887</name></trkpt>
<trkpt lat="54.357884" lon="-3.113237"><ele>286</ele><time>2020-06-12T13:21:45Z</time><name>PT11888</name></trkpt>
<trkpt lat="54.357879" lon="-3.113249"><ele>286</ele><time>2020-06-12T13:21:46Z</time><name>PT11889</name></trkpt>
<trkpt lat="54.357871" lon="-3.113263"><ele>286</ele><time>2020-06-12T13:21:47Z</time><name>PT11890</name></trkpt>
<trkpt lat="54.357863" lon="-3.113276"><ele>286</ele><time>2020-06-12T13:21:48Z</time><name>PT11891</name></trkpt>
<trkpt lat="54.357856" lon="-3.113283"><ele>285</ele><time>2020-06-12T13:21:49Z</time><name>PT11892</name></trkpt>
<trkpt lat="54.357845" lon="-3.113294"><ele>285</ele><time>2020-06-12T13:21:50Z</time><name>PT11893</name></trkpt>
<trkpt lat="54.357836" lon="-3.113302"><ele>285</ele><time>2020-06-12T13:21:51Z</time><name>PT11894</name></trkpt>
<trkpt lat="54.357823" lon="-3.113315"><ele>285</ele><time>2020-06-12T13:21:52Z</time><name>PT11895</name></trkpt>
<trkpt lat="54.357813" lon="-3.113329"><ele>284</ele><time>2020-06-12T13:21:53Z</time><name>PT11896</name></trkpt>
<trkpt lat="54.357802" lon="-3.113339"><ele>284</ele><time>2020-06-12T13:21:54Z</time><name>PT11897</name></trkpt>
<trkpt lat="54.357792" lon="-3.113353"><ele>284</ele><time>2020-06-12T13:21:55Z</time><name>PT11898</name></trkpt>
<trkpt lat="54.357782" lon="-3.113364"><ele>284</ele><time>2020-06-12T13:21:56Z</time><name>PT11899</name></trkpt>
<trkpt lat="54.357775" lon="-3.113375"><ele>284</ele><time>2020-06-12T13:21:57Z</time><name>PT11900</name></trkpt>
<trkpt lat="54.357765" lon="-3.113384"><ele>284</ele><time>2020-06-12T13:21:58Z</time><name>PT11901</name></trkpt>
<trkpt lat="54.357759" lon="-3.113392"><ele>284</ele><time>2020-06-12T13:21:59Z</time><name>PT11902</name></trkpt>
<trkpt lat="54.357749" lon="-3.113397"><ele>284</ele><time>2020-06-12T13:22:00Z</time><name>PT11903</name></trkpt>
<trkpt lat="54.357738" lon="-3.113405"><ele>284</ele><time>2020-06-12T13:22:01Z</time><name>PT11904</name></trkpt>
<trkpt lat="54.357730" lon="-3.113403"><ele>284</ele><time>2020-06-12T13:22:02Z</time><name>PT11905</name></trkpt>
<trkpt lat="54.357721" lon="-3.113406"><ele>284</ele><time>2020-06-12T13:22:03Z</time><name>PT11906</name></trkpt>
<trkpt lat="54.357712" lon="-3.113409"><ele>284</ele><time>2020-06-12T13:22:04Z</time><name>PT11907</name></trkpt>
<trkpt lat="54.357703" lon="-3.113411"><ele>284</ele><time>2020-06-12T13:22:05Z</time><name>PT11908</name></trkpt>
<trkpt lat="54.357694" lon="-3.113412"><ele>284</ele><time>2020-06-12T13:22:06Z</time><name>PT11909</name></trkpt>
<trkpt lat="54.357685" lon="-3.113418"><ele>284</ele><time>2020-06-12T13:22:07Z</time><name>PT11910</name></trkpt>
<trkpt lat="54.357674" lon="-3.113424"><ele>284</ele><time>2020-06-12T13:22:08Z</time><name>PT11911</name></trkpt>
<trkpt lat="54.357664" lon="-3.113430"><ele>284</ele><time>2020-06-12T13:22:09Z</time><name>PT11912</name></trkpt>
<trkpt lat="54.357660" lon="-3.113434"><ele>284</ele><time>2020-06-12T13:22:10Z</time><name>PT11913</name></trkpt>
<trkpt lat="54.357660" lon="-3.113443"><ele>284</ele><time>2020-06-12T13:22:11Z</time><name>PT11914</name></trkpt>
<trkpt lat="54.357660" lon="-3.113460"><ele>284</ele><time>2020-06-12T13:22:12Z</time><name>PT11915</name></trkpt>
<trkpt lat="54.357656" lon="-3.113472"><ele>285</ele><time>2020-06-12T13:22:13Z</time><name>PT11916</name></trkpt>
<trkpt lat="54.357646" lon="-3.113482"><ele>285</ele><time>2020-06-12T13:22:14Z</time><name>PT11917</name></trkpt>
<trkpt lat="54.357638" lon="-3.113490"><ele>285</ele><time>2020-06-12T13:22:15Z</time><name>PT11918</name></trkpt>
<trkpt lat="54.357628" lon="-3.113503"><ele>285</ele><time>2020-06-12T13:22:16Z</time><name>PT11919</name></trkpt>
<trkpt lat="54.357622" lon="-3.113514"><ele>285</ele><time>2020-06-12T13:22:17Z</time><name>PT11920</name></trkpt>
<trkpt lat="54.357614" lon="-3.113522"><ele>284</ele><time>2020-06-12T13:22:18Z</time><name>PT11921</name></trkpt>
<trkpt lat="54.357611" lon="-3.113534"><ele>285</ele><time>2020-06-12T13:22:19Z</time><name>PT11922</name></trkpt>
<trkpt lat="54.357607" lon="-3.113547"><ele>285</ele><time>2020-06-12T13:22:20Z</time><name>PT11923</name></trkpt>
<trkpt lat="54.357605" lon="-3.113559"><ele>285</ele><time>2020-06-12T13:22:21Z</time><name>PT11924</name></trkpt>
<trkpt lat="54.357603" lon="-3.113573"><ele>285</ele><time>2020-06-12T13:22:22Z</time><name>PT11925</name></trkpt>
<trkpt lat="54.357603" lon="-3.113587"><ele>285</ele><time>2020-06-12T13:22:23Z</time><name>PT11926</name></trkpt>
<trkpt lat="54.357605" lon="-3.113600"><ele>285</ele><time>2020-06-12T13:22:24Z</time><name>PT11927</name></trkpt>
<trkpt lat="54.357605" lon="-3.113613"><ele>285</ele><time>2020-06-12T13:22:25Z</time><name>PT11928</name></trkpt>
<trkpt lat="54.357605" lon="-3.113629"><ele>285</ele><time>2020-06-12T13:22:26Z</time><name>PT11929</name></trkpt>
<trkpt lat="54.357602" lon="-3.113648"><ele>285</ele><time>2020-06-12T13:22:27Z</time><name>PT11930</name></trkpt>
<trkpt lat="54.357596" lon="-3.113665"><ele>284</ele><time>2020-06-12T13:22:28Z</time><name>PT11931</name></trkpt>
<trkpt lat="54.357582" lon="-3.113686"><ele>286</ele><time>2020-06-12T13:22:29Z</time><name>PT11932</name></trkpt>
<trkpt lat="54.357573" lon="-3.113703"><ele>286</ele><time>2020-06-12T13:22:30Z</time><name>PT11933</name></trkpt>
<trkpt lat="54.357561" lon="-3.113722"><ele>285</ele><time>2020-06-12T13:22:31Z</time><name>PT11934</name></trkpt>
<trkpt lat="54.357553" lon="-3.113729"><ele>285</ele><time>2020-06-12T13:22:32Z</time><name>PT11935</name></trkpt>
<trkpt lat="54.357542" lon="-3.113737"><ele>285</ele><time>2020-06-12T13:22:33Z</time><name>PT11936</name></trkpt>
<trkpt lat="54.357529" lon="-3.113743"><ele>285</ele><time>2020-06-12T13:22:34Z</time><name>PT11937</name></trkpt>
<trkpt lat="54.357519" lon="-3.113746"><ele>284</ele><time>2020-06-12T13:22:35Z</time><name>PT11938</name></trkpt>
<trkpt lat="54.357501" lon="-3.113741"><ele>284</ele><time>2020-06-12T13:22:36Z</time><name>PT11939</name></trkpt>
<trkpt lat="54.357489" lon="-3.113738"><ele>284</ele><time>2020-06-12T13:22:37Z</time><name>PT11940</name></trkpt>
<trkpt lat="54.357480" lon="-3.113738"><ele>284</ele><time>2020-06-12T13:22:38Z</time><name>PT11941</name></trkpt>
<trkpt lat="54.357470" lon="-3.113736"><ele>284</ele><time>2020-06-12T13:22:39Z</time><name>PT11942</name></trkpt>
<trkpt lat="54.357460" lon="-3.113733"><ele>283</ele><time>2020-06-12T13:22:40Z</time><name>PT11943</name></trkpt>
<trkpt lat="54.357450" lon="-3.113732"><ele>283</ele><time>2020-06-12T13:22:41Z</time><name>PT11944</name></trkpt>
<trkpt lat="54.357441" lon="-3.113733"><ele>283</ele><time>2020-06-12T13:22:42Z</time><name>PT11945</name></trkpt>
<trkpt lat="54.357431" lon="-3.113737"><ele>283</ele><time>2020-06-12T13:22:43Z</time><name>PT11946</name></trkpt>
<trkpt lat="54.357417" lon="-3.113740"><ele>284</ele><time>2020-06-12T13:22:44Z</time><name>PT11947</name></trkpt>
<trkpt lat="54.357406" lon="-3.113736"><ele>284</ele><time>2020-06-12T13:22:45Z</time><name>PT11948</name></trkpt>
<trkpt lat="54.357395" lon="-3.113739"><ele>284</ele><time>2020-06-12T13:22:46Z</time><name>PT11949</name></trkpt>
<trkpt lat="54.357384" lon="-3.113749"><ele>284</ele><time>2020-06-12T13:22:47Z</time><name>PT11950</name></trkpt>
<trkpt lat="54.357373" lon="-3.113758"><ele>284</ele><time>2020-06-12T13:22:48Z</time><name>PT11951</name></trkpt>
<trkpt lat="54.357368" lon="-3.113766"><ele>284</ele><time>2020-06-12T13:22:49Z</time><name>PT11952</name></trkpt>
<trkpt lat="54.357361" lon="-3.113781"><ele>284</ele><time>2020-06-12T13:22:50Z</time><name>PT11953</name></trkpt>
<trkpt lat="54.357355" lon="-3.113800"><ele>284</ele><time>2020-06-12T13:22:51Z</time><name>PT11954</name></trkpt>
<trkpt lat="54.357349" lon="-3.113815"><ele>284</ele><time>2020-06-12T13:22:52Z</time><name>PT11955</name></trkpt>
<trkpt lat="54.357339" lon="-3.113831"><ele>284</ele><time>2020-06-12T13:22:53Z</time><name>PT11956</name></trkpt>
<trkpt lat="54.357327" lon="-3.113845"><ele>284</ele><time>2020-06-12T13:22:54Z</time><name>PT11957</name></trkpt>
<trkpt lat="54.357318" lon="-3.113858"><ele>284</ele><time>2020-06-12T13:22:55Z</time><name>PT11958</name></trkpt>
<trkpt lat="54.357310" lon="-3.113873"><ele>284</ele><time>2020-06-12T13:22:56Z</time><name>PT11959</name></trkpt>
<trkpt lat="54.357300" lon="-3.113888"><ele>284</ele><time>2020-06-12T13:22:57Z</time><name>PT11960</name></trkpt>
<trkpt lat="54.357291" lon="-3.113899"><ele>284</ele><time>2020-06-12T13:22:58Z</time><name>PT11961</name></trkpt>
<trkpt lat="54.357289" lon="-3.113905"><ele>284</ele><time>2020-06-12T13:22:59Z</time><name>PT11962</name></trkpt>
<trkpt lat="54.357282" lon="-3.113918"><ele>283</ele><time>2020-06-12T13:23:00Z</time><name>PT11963</name></trkpt>
<trkpt lat="54.357277" lon="-3.113930"><ele>283</ele><time>2020-06-12T13:23:01Z</time><name>PT11964</name></trkpt>
<trkpt lat="54.357270" lon="-3.113945"><ele>283</ele><time>2020-06-12T13:23:02Z</time><name>PT11965</name></trkpt>
<trkpt lat="54.357262" lon="-3.113959"><ele>283</ele><time>2020-06-12T13:23:03Z</time><name>PT11966</name></trkpt>
<trkpt lat="54.357255" lon="-3.113969"><ele>283</ele><time>2020-06-12T13:23:04Z</time><name>PT11967</name></trkpt>
<trkpt lat="54.357249" lon="-3.113976"><ele>282</ele><time>2020-06-12T13:23:05Z</time><name>PT11968</name></trkpt>
<trkpt lat="54.357240" lon="-3.113990"><ele>282</ele><time>2020-06-12T13:23:06Z</time><name>PT11969</name></trkpt>
<trkpt lat="54.357234" lon="-3.114005"><ele>283</ele><time>2020-06-12T13:23:07Z</time><name>PT11970</name></trkpt>
<trkpt lat="54.357226" lon="-3.114020"><ele>282</ele><time>2020-06-12T13:23:08Z</time><name>PT11971</name></trkpt>
<trkpt lat="54.357216" lon="-3.114037"><ele>282</ele><time>2020-06-12T13:23:09Z</time><name>PT11972</name></trkpt>
<trkpt lat="54.357205" lon="-3.114051"><ele>282</ele><time>2020-06-12T13:23:10Z</time><name>PT11973</name></trkpt>
<trkpt lat="54.357195" lon="-3.114068"><ele>282</ele><time>2020-06-12T13:23:11Z</time><name>PT11974</name></trkpt>
<trkpt lat="54.357193" lon="-3.114079"><ele>282</ele><time>2020-06-12T13:23:12Z</time><name>PT11975</name></trkpt>
<trkpt lat="54.357188" lon="-3.114097"><ele>282</ele><time>2020-06-12T13:23:13Z</time><name>PT11976</name></trkpt>
<trkpt lat="54.357184" lon="-3.114112"><ele>281</ele><time>2020-06-12T13:23:14Z</time><name>PT11977</name></trkpt>
<trkpt lat="54.357177" lon="-3.114128"><ele>281</ele><time>2020-06-12T13:23:15Z</time><name>PT11978</name></trkpt>
<trkpt lat="54.357174" lon="-3.114137"><ele>281</ele><time>2020-06-12T13:23:16Z</time><name>PT11979</name></trkpt>
<trkpt lat="54.357172" lon="-3.114151"><ele>280</ele><time>2020-06-12T13:23:17Z</time><name>PT11980</name></trkpt>
<trkpt lat="54.357167" lon="-3.114163"><ele>280</ele><time>2020-06-12T13:23:18Z</time><name>PT11981</name></trkpt>
<trkpt lat="54.357160" lon="-3.114175"><ele>280</ele><time>2020-06-12T13:23:19Z</time><name>PT11982</name></trkpt>
<trkpt lat="54.357154" lon="-3.114182"><ele>280</ele><time>2020-06-12T13:23:20Z</time><name>PT11983</name></trkpt>
<trkpt lat="54.357145" lon="-3.114194"><ele>280</ele><time>2020-06-12T13:23:21Z</time><name>PT11984</name></trkpt>
<trkpt lat="54.357135" lon="-3.114206"><ele>280</ele><time>2020-06-12T13:23:22Z</time><name>PT11985</name></trkpt>
<trkpt lat="54.357126" lon="-3.114219"><ele>280</ele><time>2020-06-12T13:23:23Z</time><name>PT11986</name></trkpt>
<trkpt lat="54.357116" lon="-3.114233"><ele>280</ele><time>2020-06-12T13:23:24Z</time><name>PT11987</name></trkpt>
<trkpt lat="54.357105" lon="-3.114248"><ele>281</ele><time>2020-06-12T13:23:25Z</time><name>PT11988</name></trkpt>
<trkpt lat="54.357094" lon="-3.114259"><ele>281</ele><time>2020-06-12T13:23:26Z</time><name>PT11989</name></trkpt>
<trkpt lat="54.357083" lon="-3.114271"><ele>281</ele><time>2020-06-12T13:23:27Z</time><name>PT11990</name></trkpt>
<trkpt lat="54.357074" lon="-3.114286"><ele>281</ele><time>2020-06-12T13:23:28Z</time><name>PT11991</name></trkpt>
<trkpt lat="54.357067" lon="-3.114303"><ele>281</ele><time>2020-06-12T13:23:29Z</time><name>PT11992</name></trkpt>
<trkpt lat="54.357061" lon="-3.114319"><ele>281</ele><time>2020-06-12T13:23:30Z</time><name>PT11993</name></trkpt>
<trkpt lat="54.357053" lon="-3.114333"><ele>281</ele><time>2020-06-12T13:23:31Z</time><name>PT11994</name></trkpt>
<trkpt lat="54.357042" lon="-3.114346"><ele>281</ele><time>2020-06-12T13:23:32Z</time><name>PT11995</name></trkpt>
<trkpt lat="54.357033" lon="-3.114355"><ele>281</ele><time>2020-06-12T13:23:33Z</time><name>PT11996</name></trkpt>
<trkpt lat="54.357026" lon="-3.114366"><ele>280</ele><time>2020-06-12T13:23:34Z</time><name>PT11997</name></trkpt>
<trkpt lat="54.357015" lon="-3.114382"><ele>281</ele><time>2020-06-12T13:23:35Z</time><name>PT11998</name></trkpt>
<trkpt lat="54.357007" lon="-3.114396"><ele>280</ele><time>2020-06-12T13:23:36Z</time><name>PT11999</name></trkpt>
<trkpt lat="54.356998" lon="-3.114408"><ele>280</ele><time>2020-06-12T13:23:37Z</time><name>PT12000</name></trkpt>
<trkpt lat="54.356987" lon="-3.114423"><ele>281</ele><time>2020-06-12T13:23:38Z</time><name>PT12001</name></trkpt>
<trkpt lat="54.356975" lon="-3.114437"><ele>281</ele><time>2020-06-12T13:23:39Z</time><name>PT12002</name></trkpt>
<trkpt lat="54.356961" lon="-3.114449"><ele>281</ele><time>2020-06-12T13:23:40Z</time><name>PT12003</name></trkpt>
<trkpt lat="54.356940" lon="-3.114464"><ele>281</ele><time>2020-06-12T13:23:41Z</time><name>PT12004</name></trkpt>
<trkpt lat="54.356919" lon="-3.114485"><ele>281</ele><time>2020-06-12T13:23:42Z</time><name>PT12005</name></trkpt>
<trkpt lat="54.356914" lon="-3.114503"><ele>281</ele><time>2020-06-12T13:23:43Z</time><name>PT12006</name></trkpt>
<trkpt lat="54.356905" lon="-3.114518"><ele>281</ele><time>2020-06-12T13:23:44Z</time><name>PT12007</name></trkpt>
<trkpt lat="54.356895" lon="-3.114533"><ele>281</ele><time>2020-06-12T13:23:45Z</time><name>PT12008</name></trkpt>
<trkpt lat="54.356888" lon="-3.114545"><ele>281</ele><time>2020-06-12T13:23:46Z</time><name>PT12009</name></trkpt>
<trkpt lat="54.356875" lon="-3.114559"><ele>281</ele><time>2020-06-12T13:23:47Z</time><name>PT12010</name></trkpt>
<trkpt lat="54.356866" lon="-3.114571"><ele>281</ele><time>2020-06-12T13:23:48Z</time><name>PT12011</name></trkpt>
<trkpt lat="54.356855" lon="-3.114585"><ele>282</ele><time>2020-06-12T13:23:49Z</time><name>PT12012</name></trkpt>
<trkpt lat="54.356845" lon="-3.114598"><ele>281</ele><time>2020-06-12T13:23:50Z</time><name>PT12013</name></trkpt>
<trkpt lat="54.356836" lon="-3.114611"><ele>282</ele><time>2020-06-12T13:23:51Z</time><name>PT12014</name></trkpt>
<trkpt lat="54.356827" lon="-3.114620"><ele>282</ele><time>2020-06-12T13:23:52Z</time><name>PT12015</name></trkpt>
<trkpt lat="54.356816" lon="-3.114631"><ele>281</ele><time>2020-06-12T13:23:53Z</time><name>PT12016</name></trkpt>
<trkpt lat="54.356804" lon="-3.114644"><ele>282</ele><time>2020-06-12T13:23:54Z</time><name>PT12017</name></trkpt>
<trkpt lat="54.356793" lon="-3.114655"><ele>282</ele><time>2020-06-12T13:23:55Z</time><name>PT12018</name></trkpt>
<trkpt lat="54.356784" lon="-3.114667"><ele>281</ele><time>2020-06-12T13:23:56Z</time><name>PT12019</name></trkpt>
<trkpt lat="54.356775" lon="-3.114679"><ele>281</ele><time>2020-06-12T13:23:57Z</time><name>PT12020</name></trkpt>
<trkpt lat="54.356765" lon="-3.114695"><ele>281</ele><time>2020-06-12T13:23:58Z</time><name>PT12021</name></trkpt>
<trkpt lat="54.356757" lon="-3.114705"><ele>281</ele><time>2020-06-12T13:23:59Z</time><name>PT12022</name></trkpt>
<trkpt lat="54.356746" lon="-3.114716"><ele>281</ele><time>2020-06-12T13:24:00Z</time><name>PT12023</name></trkpt>
<trkpt lat="54.356736" lon="-3.114727"><ele>281</ele><time>2020-06-12T13:24:01Z</time><name>PT12024</name></trkpt>
<trkpt lat="54.356730" lon="-3.114737"><ele>280</ele><time>2020-06-12T13:24:02Z</time><name>PT12025</name></trkpt>
<trkpt lat="54.356721" lon="-3.114752"><ele>280</ele><time>2020-06-12T13:24:03Z</time><name>PT12026</name></trkpt>
<trkpt lat="54.356711" lon="-3.114766"><ele>280</ele><time>2020-06-12T13:24:04Z</time><name>PT12027</name></trkpt>
<trkpt lat="54.356703" lon="-3.114777"><ele>280</ele><time>2020-06-12T13:24:05Z</time><name>PT12028</name></trkpt>
<trkpt lat="54.356698" lon="-3.114786"><ele>280</ele><time>2020-06-12T13:24:06Z</time><name>PT12029</name></trkpt>
<trkpt lat="54.356692" lon="-3.114799"><ele>280</ele><time>2020-06-12T13:24:07Z</time><name>PT12030</name></trkpt>
<trkpt lat="54.356683" lon="-3.114816"><ele>279</ele><time>2020-06-12T13:24:08Z</time><name>PT12031</name></trkpt>
<trkpt lat="54.356676" lon="-3.114831"><ele>279</ele><time>2020-06-12T13:24:09Z</time><name>PT12032</name></trkpt>
<trkpt lat="54.356667" lon="-3.114844"><ele>279</ele><time>2020-06-12T13:24:10Z</time><name>PT12033</name></trkpt>
<trkpt lat="54.356656" lon="-3.114855"><ele>279</ele><time>2020-06-12T13:24:11Z</time><name>PT12034</name></trkpt>
<trkpt lat="54.356650" lon="-3.114866"><ele>279</ele><time>2020-06-12T13:24:12Z</time><name>PT12035</name></trkpt>
<trkpt lat="54.356641" lon="-3.114876"><ele>278</ele><time>2020-06-12T13:24:13Z</time><name>PT12036</name></trkpt>
<trkpt lat="54.356633" lon="-3.114888"><ele>278</ele><time>2020-06-12T13:24:14Z</time><name>PT12037</name></trkpt>
<trkpt lat="54.356627" lon="-3.114899"><ele>278</ele><time>2020-06-12T13:24:15Z</time><name>PT12038</name></trkpt>
<trkpt lat="54.356617" lon="-3.114909"><ele>278</ele><time>2020-06-12T13:24:16Z</time><name>PT12039</name></trkpt>
<trkpt lat="54.356608" lon="-3.114918"><ele>278</ele><time>2020-06-12T13:24:17Z</time><name>PT12040</name></trkpt>
<trkpt lat="54.356597" lon="-3.114928"><ele>278</ele><time>2020-06-12T13:24:18Z</time><name>PT12041</name></trkpt>
<trkpt lat="54.356585" lon="-3.114941"><ele>278</ele><time>2020-06-12T13:24:19Z</time><name>PT12042</name></trkpt>
<trkpt lat="54.356574" lon="-3.114954"><ele>278</ele><time>2020-06-12T13:24:20Z</time><name>PT12043</name></trkpt>
<trkpt lat="54.356564" lon="-3.114964"><ele>278</ele><time>2020-06-12T13:24:21Z</time><name>PT12044</name></trkpt>
<trkpt lat="54.356555" lon="-3.114972"><ele>278</ele><time>2020-06-12T13:24:22Z</time><name>PT12045</name></trkpt>
<trkpt lat="54.356546" lon="-3.114982"><ele>278</ele><time>2020-06-12T13:24:23Z</time><name>PT12046</name></trkpt>
<trkpt lat="54.356535" lon="-3.114993"><ele>278</ele><time>2020-06-12T13:24:24Z</time><name>PT12047</name></trkpt>
<trkpt lat="54.356525" lon="-3.115001"><ele>278</ele><time>2020-06-12T13:24:25Z</time><name>PT12048</name></trkpt>
<trkpt lat="54.356517" lon="-3.115008"><ele>278</ele><time>2020-06-12T13:24:26Z</time><name>PT12049</name></trkpt>
<trkpt lat="54.356503" lon="-3.115017"><ele>278</ele><time>2020-06-12T13:24:27Z</time><name>PT12050</name></trkpt>
<trkpt lat="54.356492" lon="-3.115023"><ele>278</ele><time>2020-06-12T13:24:28Z</time><name>PT12051</name></trkpt>
<trkpt lat="54.356479" lon="-3.115029"><ele>278</ele><time>2020-06-12T13:24:29Z</time><name>PT12052</name></trkpt>
<trkpt lat="54.356466" lon="-3.115038"><ele>278</ele><time>2020-06-12T13:24:30Z</time><name>PT12053</name></trkpt>
<trkpt lat="54.356456" lon="-3.115045"><ele>278</ele><time>2020-06-12T13:24:31Z</time><name>PT12054</name></trkpt>
<trkpt lat="54.356443" lon="-3.115054"><ele>278</ele><time>2020-06-12T13:24:32Z</time><name>PT12055</name></trkpt>
<trkpt lat="54.356432" lon="-3.115059"><ele>278</ele><time>2020-06-12T13:24:33Z</time><name>PT12056</name></trkpt>
<trkpt lat="54.356424" lon="-3.115067"><ele>277</ele><time>2020-06-12T13:24:34Z</time><name>PT12057</name></trkpt>
<trkpt lat="54.356412" lon="-3.115075"><ele>277</ele><time>2020-06-12T13:24:35Z</time><name>PT12058</name></trkpt>
<trkpt lat="54.356400" lon="-3.115080"><ele>277</ele><time>2020-06-12T13:24:36Z</time><name>PT12059</name></trkpt>
<trkpt lat="54.356389" lon="-3.115083"><ele>278</ele><time>2020-06-12T13:24:37Z</time><name>PT12060</name></trkpt>
<trkpt lat="54.356380" lon="-3.115085"><ele>278</ele><time>2020-06-12T13:24:38Z</time><name>PT12061</name></trkpt>
<trkpt lat="54.356370" lon="-3.115088"><ele>277</ele><time>2020-06-12T13:24:39Z</time><name>PT12062</name></trkpt>
<trkpt lat="54.356359" lon="-3.115096"><ele>278</ele><time>2020-06-12T13:24:40Z</time><name>PT12063</name></trkpt>
<trkpt lat="54.356348" lon="-3.115100"><ele>279</ele><time>2020-06-12T13:24:41Z</time><name>PT12064</name></trkpt>
<trkpt lat="54.356334" lon="-3.115109"><ele>279</ele><time>2020-06-12T13:24:42Z</time><name>PT12065</name></trkpt>
<trkpt lat="54.356321" lon="-3.115111"><ele>280</ele><time>2020-06-12T13:24:43Z</time><name>PT12066</name></trkpt>
<trkpt lat="54.356308" lon="-3.115114"><ele>280</ele><time>2020-06-12T13:24:44Z</time><name>PT12067</name></trkpt>
<trkpt lat="54.356295" lon="-3.115114"><ele>281</ele><time>2020-06-12T13:24:45Z</time><name>PT12068</name></trkpt>
<trkpt lat="54.356281" lon="-3.115113"><ele>281</ele><time>2020-06-12T13:24:46Z</time><name>PT12069</name></trkpt>
<trkpt lat="54.356274" lon="-3.115114"><ele>280</ele><time>2020-06-12T13:24:47Z</time><name>PT12070</name></trkpt>
<trkpt lat="54.356262" lon="-3.115113"><ele>280</ele><time>2020-06-12T13:24:48Z</time><name>PT12071</name></trkpt>
<trkpt lat="54.356250" lon="-3.115110"><ele>281</ele><time>2020-06-12T13:24:49Z</time><name>PT12072</name></trkpt>
<trkpt lat="54.356237" lon="-3.115107"><ele>281</ele><time>2020-06-12T13:24:50Z</time><name>PT12073</name></trkpt>
<trkpt lat="54.356226" lon="-3.115106"><ele>280</ele><time>2020-06-12T13:24:51Z</time><name>PT12074</name></trkpt>
<trkpt lat="54.356216" lon="-3.115103"><ele>279</ele><time>2020-06-12T13:24:52Z</time><name>PT12075</name></trkpt>
<trkpt lat="54.356204" lon="-3.115101"><ele>279</ele><time>2020-06-12T13:24:53Z</time><name>PT12076</name></trkpt>
<trkpt lat="54.356196" lon="-3.115097"><ele>279</ele><time>2020-06-12T13:24:54Z</time><name>PT12077</name></trkpt>
<trkpt lat="54.356189" lon="-3.115092"><ele>279</ele><time>2020-06-12T13:24:55Z</time><name>PT12078</name></trkpt>
<trkpt lat="54.356181" lon="-3.115090"><ele>279</ele><time>2020-06-12T13:24:56Z</time><name>PT12079</name></trkpt>
<trkpt lat="54.356168" lon="-3.115085"><ele>278</ele><time>2020-06-12T13:24:57Z</time><name>PT12080</name></trkpt>
<trkpt lat="54.356158" lon="-3.115079"><ele>278</ele><time>2020-06-12T13:24:58Z</time><name>PT12081</name></trkpt>
<trkpt lat="54.356147" lon="-3.115071"><ele>278</ele><time>2020-06-12T13:24:59Z</time><name>PT12082</name></trkpt>
<trkpt lat="54.356137" lon="-3.115064"><ele>278</ele><time>2020-06-12T13:25:00Z</time><name>PT12083</name></trkpt>
<trkpt lat="54.356127" lon="-3.115056"><ele>278</ele><time>2020-06-12T13:25:01Z</time><name>PT12084</name></trkpt>
<trkpt lat="54.356117" lon="-3.115049"><ele>278</ele><time>2020-06-12T13:25:02Z</time><name>PT12085</name></trkpt>
<trkpt lat="54.356107" lon="-3.115040"><ele>277</ele><time>2020-06-12T13:25:03Z</time><name>PT12086</name></trkpt>
<trkpt lat="54.356097" lon="-3.115031"><ele>277</ele><time>2020-06-12T13:25:04Z</time><name>PT12087</name></trkpt>
<trkpt lat="54.356086" lon="-3.115025"><ele>278</ele><time>2020-06-12T13:25:05Z</time><name>PT12088</name></trkpt>
<trkpt lat="54.356077" lon="-3.115017"><ele>278</ele><time>2020-06-12T13:25:06Z</time><name>PT12089</name></trkpt>
<trkpt lat="54.356066" lon="-3.115008"><ele>278</ele><time>2020-06-12T13:25:07Z</time><name>PT12090</name></trkpt>
<trkpt lat="54.356057" lon="-3.114997"><ele>278</ele><time>2020-06-12T13:25:08Z</time><name>PT12091</name></trkpt>
<trkpt lat="54.356046" lon="-3.114986"><ele>278</ele><time>2020-06-12T13:25:09Z</time><name>PT12092</name></trkpt>
<trkpt lat="54.356039" lon="-3.114983"><ele>277</ele><time>2020-06-12T13:25:10Z</time><name>PT12093</name></trkpt>
<trkpt lat="54.356030" lon="-3.114980"><ele>277</ele><time>2020-06-12T13:25:11Z</time><name>PT12094</name></trkpt>
<trkpt lat="54.356021" lon="-3.114969"><ele>276</ele><time>2020-06-12T13:25:12Z</time><name>PT12095</name></trkpt>
<trkpt lat="54.356011" lon="-3.114958"><ele>276</ele><time>2020-06-12T13:25:13Z</time><name>PT12096</name></trkpt>
<trkpt lat="54.356001" lon="-3.114946"><ele>277</ele><time>2020-06-12T13:25:14Z</time><name>PT12097</name></trkpt>
<trkpt lat="54.355991" lon="-3.114938"><ele>277</ele><time>2020-06-12T13:25:15Z</time><name>PT12098</name></trkpt>
<trkpt lat="54.355980" lon="-3.114927"><ele>277</ele><time>2020-06-12T13:25:16Z</time><name>PT12099</name></trkpt>
<trkpt lat="54.355969" lon="-3.114916"><ele>277</ele><time>2020-06-12T13:25:17Z</time><name>PT12100</name></trkpt>
<trkpt lat="54.355960" lon="-3.114909"><ele>277</ele><time>2020-06-12T13:25:18Z</time><name>PT12101</name></trkpt>
<trkpt lat="54.355953" lon="-3.114897"><ele>276</ele><time>2020-06-12T13:25:19Z</time><name>PT12102</name></trkpt>
<trkpt lat="54.355944" lon="-3.114885"><ele>276</ele><time>2020-06-12T13:25:20Z</time><name>PT12103</name></trkpt>
<trkpt lat="54.355933" lon="-3.114876"><ele>276</ele><time>2020-06-12T13:25:21Z</time><name>PT12104</name></trkpt>
<trkpt lat="54.355926" lon="-3.114868"><ele>276</ele><time>2020-06-12T13:25:22Z</time><name>PT12105</name></trkpt>
<trkpt lat="54.355917" lon="-3.114856"><ele>276</ele><time>2020-06-12T13:25:23Z</time><name>PT12106</name></trkpt>
<trkpt lat="54.355903" lon="-3.114847"><ele>276</ele><time>2020-06-12T13:25:24Z</time><name>PT12107</name></trkpt>
<trkpt lat="54.355892" lon="-3.114838"><ele>276</ele><time>2020-06-12T13:25:25Z</time><name>PT12108</name></trkpt>
<trkpt lat="54.355883" lon="-3.114828"><ele>276</ele><time>2020-06-12T13:25:26Z</time><name>PT12109</name></trkpt>
<trkpt lat="54.355870" lon="-3.114817"><ele>276</ele><time>2020-06-12T13:25:27Z</time><name>PT12110</name></trkpt>
<trkpt lat="54.355852" lon="-3.114811"><ele>277</ele><time>2020-06-12T13:25:28Z</time><name>PT12111</name></trkpt>
<trkpt lat="54.355839" lon="-3.114802"><ele>277</ele><time>2020-06-12T13:25:29Z</time><name>PT12112</name></trkpt>
<trkpt lat="54.355828" lon="-3.114792"><ele>277</ele><time>2020-06-12T13:25:30Z</time><name>PT12113</name></trkpt>
<trkpt lat="54.355814" lon="-3.114781"><ele>278</ele><time>2020-06-12T13:25:31Z</time><name>PT12114</name></trkpt>
<trkpt lat="54.355808" lon="-3.114769"><ele>277</ele><time>2020-06-12T13:25:32Z</time><name>PT12115</name></trkpt>
<trkpt lat="54.355802" lon="-3.114755"><ele>278</ele><time>2020-06-12T13:25:33Z</time><name>PT12116</name></trkpt>
<trkpt lat="54.355794" lon="-3.114746"><ele>277</ele><time>2020-06-12T13:25:34Z</time><name>PT12117</name></trkpt>
<trkpt lat="54.355786" lon="-3.114735"><ele>277</ele><time>2020-06-12T13:25:35Z</time><name>PT12118</name></trkpt>
<trkpt lat="54.355778" lon="-3.114725"><ele>276</ele><time>2020-06-12T13:25:36Z</time><name>PT12119</name></trkpt>
<trkpt lat="54.355770" lon="-3.114718"><ele>276</ele><time>2020-06-12T13:25:37Z</time><name>PT12120</name></trkpt>
<trkpt lat="54.355762" lon="-3.114707"><ele>275</ele><time>2020-06-12T13:25:38Z</time><name>PT12121</name></trkpt>
<trkpt lat="54.355755" lon="-3.114694"><ele>275</ele><time>2020-06-12T13:25:39Z</time><name>PT12122</name></trkpt>
<trkpt lat="54.355748" lon="-3.114679"><ele>275</ele><time>2020-06-12T13:25:40Z</time><name>PT12123</name></trkpt>
<trkpt lat="54.355741" lon="-3.114665"><ele>275</ele><time>2020-06-12T13:25:41Z</time><name>PT12124</name></trkpt>
<trkpt lat="54.355736" lon="-3.114656"><ele>274</ele><time>2020-06-12T13:25:42Z</time><name>PT12125</name></trkpt>
<trkpt lat="54.355726" lon="-3.114641"><ele>274</ele><time>2020-06-12T13:25:43Z</time><name>PT12126</name></trkpt>
<trkpt lat="54.355714" lon="-3.114627"><ele>273</ele><time>2020-06-12T13:25:44Z</time><name>PT12127</name></trkpt>
<trkpt lat="54.355703" lon="-3.114610"><ele>274</ele><time>2020-06-12T13:25:45Z</time><name>PT12128</name></trkpt>
<trkpt lat="54.355693" lon="-3.114595"><ele>274</ele><time>2020-06-12T13:25:46Z</time><name>PT12129</name></trkpt>
<trkpt lat="54.355681" lon="-3.114581"><ele>274</ele><time>2020-06-12T13:25:47Z</time><name>PT12130</name></trkpt>
<trkpt lat="54.355670" lon="-3.114567"><ele>274</ele><time>2020-06-12T13:25:48Z</time><name>PT12131</name></trkpt>
<trkpt lat="54.355662" lon="-3.114559"><ele>274</ele><time>2020-06-12T13:25:49Z</time><name>PT12132</name></trkpt>
<trkpt lat="54.355651" lon="-3.114551"><ele>273</ele><time>2020-06-12T13:25:50Z</time><name>PT12133</name></trkpt>
<trkpt lat="54.355641" lon="-3.114547"><ele>273</ele><time>2020-06-12T13:25:51Z</time><name>PT12134</name></trkpt>
<trkpt lat="54.355630" lon="-3.114538"><ele>273</ele><time>2020-06-12T13:25:52Z</time><name>PT12135</name></trkpt>
<trkpt lat="54.355621" lon="-3.114528"><ele>272</ele><time>2020-06-12T13:25:53Z</time><name>PT12136</name></trkpt>
<trkpt lat="54.355610" lon="-3.114516"><ele>272</ele><time>2020-06-12T13:25:54Z</time><name>PT12137</name></trkpt>
<trkpt lat="54.355601" lon="-3.114501"><ele>272</ele><time>2020-06-12T13:25:55Z</time><name>PT12138</name></trkpt>
<trkpt lat="54.355592" lon="-3.114489"><ele>272</ele><time>2020-06-12T13:25:56Z</time><name>PT12139</name></trkpt>
<trkpt lat="54.355579" lon="-3.114480"><ele>272</ele><time>2020-06-12T13:25:57Z</time><name>PT12140</name></trkpt>
<trkpt lat="54.355568" lon="-3.114470"><ele>271</ele><time>2020-06-12T13:25:58Z</time><name>PT12141</name></trkpt>
<trkpt lat="54.355557" lon="-3.114456"><ele>271</ele><time>2020-06-12T13:25:59Z</time><name>PT12142</name></trkpt>
<trkpt lat="54.355546" lon="-3.114444"><ele>271</ele><time>2020-06-12T13:26:00Z</time><name>PT12143</name></trkpt>
<trkpt lat="54.355532" lon="-3.114433"><ele>271</ele><time>2020-06-12T13:26:01Z</time><name>PT12144</name></trkpt>
<trkpt lat="54.355525" lon="-3.114427"><ele>271</ele><time>2020-06-12T13:26:02Z</time><name>PT12145</name></trkpt>
<trkpt lat="54.355513" lon="-3.114419"><ele>271</ele><time>2020-06-12T13:26:03Z</time><name>PT12146</name></trkpt>
<trkpt lat="54.355501" lon="-3.114409"><ele>271</ele><time>2020-06-12T13:26:04Z</time><name>PT12147</name></trkpt>
<trkpt lat="54.355491" lon="-3.114399"><ele>271</ele><time>2020-06-12T13:26:05Z</time><name>PT12148</name></trkpt>
<trkpt lat="54.355480" lon="-3.114389"><ele>271</ele><time>2020-06-12T13:26:06Z</time><name>PT12149</name></trkpt>
<trkpt lat="54.355469" lon="-3.114379"><ele>272</ele><time>2020-06-12T13:26:07Z</time><name>PT12150</name></trkpt>
<trkpt lat="54.355460" lon="-3.114370"><ele>272</ele><time>2020-06-12T13:26:08Z</time><name>PT12151</name></trkpt>
<trkpt lat="54.355450" lon="-3.114361"><ele>272</ele><time>2020-06-12T13:26:09Z</time><name>PT12152</name></trkpt>
<trkpt lat="54.355440" lon="-3.114353"><ele>272</ele><time>2020-06-12T13:26:10Z</time><name>PT12153</name></trkpt>
<trkpt lat="54.355434" lon="-3.114343"><ele>271</ele><time>2020-06-12T13:26:11Z</time><name>PT12154</name></trkpt>
<trkpt lat="54.355426" lon="-3.114339"><ele>271</ele><time>2020-06-12T13:26:12Z</time><name>PT12155</name></trkpt>
<trkpt lat="54.355419" lon="-3.114331"><ele>270</ele><time>2020-06-12T13:26:13Z</time><name>PT12156</name></trkpt>
<trkpt lat="54.355411" lon="-3.114317"><ele>270</ele><time>2020-06-12T13:26:14Z</time><name>PT12157</name></trkpt>
<trkpt lat="54.355404" lon="-3.114307"><ele>270</ele><time>2020-06-12T13:26:15Z</time><name>PT12158</name></trkpt>
<trkpt lat="54.355396" lon="-3.114309"><ele>268</ele><time>2020-06-12T13:26:16Z</time><name>PT12159</name></trkpt>
<trkpt lat="54.355388" lon="-3.114298"><ele>269</ele><time>2020-06-12T13:26:17Z</time><name>PT12160</name></trkpt>
<trkpt lat="54.355382" lon="-3.114283"><ele>269</ele><time>2020-06-12T13:26:18Z</time><name>PT12161</name></trkpt>
<trkpt lat="54.355377" lon="-3.114270"><ele>268</ele><time>2020-06-12T13:26:19Z</time><name>PT12162</name></trkpt>
<trkpt lat="54.355371" lon="-3.114258"><ele>268</ele><time>2020-06-12T13:26:20Z</time><name>PT12163</name></trkpt>
<trkpt lat="54.355363" lon="-3.114246"><ele>268</ele><time>2020-06-12T13:26:21Z</time><name>PT12164</name></trkpt>
<trkpt lat="54.355354" lon="-3.114235"><ele>268</ele><time>2020-06-12T13:26:22Z</time><name>PT12165</name></trkpt>
<trkpt lat="54.355346" lon="-3.114221"><ele>269</ele><time>2020-06-12T13:26:23Z</time><name>PT12166</name></trkpt>
<trkpt lat="54.355341" lon="-3.114207"><ele>268</ele><time>2020-06-12T13:26:24Z</time><name>PT12167</name></trkpt>
<trkpt lat="54.355331" lon="-3.114194"><ele>268</ele><time>2020-06-12T13:26:25Z</time><name>PT12168</name></trkpt>
<trkpt lat="54.355323" lon="-3.114187"><ele>268</ele><time>2020-06-12T13:26:26Z</time><name>PT12169</name></trkpt>
<trkpt lat="54.355318" lon="-3.114180"><ele>268</ele><time>2020-06-12T13:26:27Z</time><name>PT12170</name></trkpt>
<trkpt lat="54.355308" lon="-3.114173"><ele>268</ele><time>2020-06-12T13:26:28Z</time><name>PT12171</name></trkpt>
<trkpt lat="54.355301" lon="-3.114164"><ele>267</ele><time>2020-06-12T13:26:29Z</time><name>PT12172</name></trkpt>
<trkpt lat="54.355296" lon="-3.114156"><ele>266</ele><time>2020-06-12T13:26:30Z</time><name>PT12173</name></trkpt>
<trkpt lat="54.355288" lon="-3.114155"><ele>266</ele><time>2020-06-12T13:26:31Z</time><name>PT12174</name></trkpt>
<trkpt lat="54.355277" lon="-3.114157"><ele>266</ele><time>2020-06-12T13:26:32Z</time><name>PT12175</name></trkpt>
<trkpt lat="54.355267" lon="-3.114157"><ele>266</ele><time>2020-06-12T13:26:33Z</time><name>PT12176</name></trkpt>
<trkpt lat="54.355254" lon="-3.114158"><ele>266</ele><time>2020-06-12T13:26:34Z</time><name>PT12177</name></trkpt>
<trkpt lat="54.355239" lon="-3.114161"><ele>267</ele><time>2020-06-12T13:26:35Z</time><name>PT12178</name></trkpt>
<trkpt lat="54.355228" lon="-3.114159"><ele>267</ele><time>2020-06-12T13:26:36Z</time><name>PT12179</name></trkpt>
<trkpt lat="54.355220" lon="-3.114154"><ele>267</ele><time>2020-06-12T13:26:37Z</time><name>PT12180</name></trkpt>
<trkpt lat="54.355215" lon="-3.114144"><ele>266</ele><time>2020-06-12T13:26:38Z</time><name>PT12181</name></trkpt>
<trkpt lat="54.355203" lon="-3.114138"><ele>265</ele><time>2020-06-12T13:26:39Z</time><name>PT12182</name></trkpt>
<trkpt lat="54.355197" lon="-3.114129"><ele>265</ele><time>2020-06-12T13:26:40Z</time><name>PT12183</name></trkpt>
<trkpt lat="54.355192" lon="-3.114118"><ele>265</ele><time>2020-06-12T13:26:41Z</time><name>PT12184</name></trkpt>
<trkpt lat="54.355185" lon="-3.114111"><ele>265</ele><time>2020-06-12T13:26:42Z</time><name>PT12185</name></trkpt>
<trkpt lat="54.355177" lon="-3.114101"><ele>265</ele><time>2020-06-12T13:26:43Z</time><name>PT12186</name></trkpt>
<trkpt lat="54.355168" lon="-3.114093"><ele>265</ele><time>2020-06-12T13:26:44Z</time><name>PT12187</name></trkpt>
<trkpt lat="54.355157" lon="-3.114084"><ele>265</ele><time>2020-06-12T13:26:45Z</time><name>PT12188</name></trkpt>
<trkpt lat="54.355147" lon="-3.114082"><ele>265</ele><time>2020-06-12T13:26:46Z</time><name>PT12189</name></trkpt>
<trkpt lat="54.355136" lon="-3.114079"><ele>266</ele><time>2020-06-12T13:26:47Z</time><name>PT12190</name></trkpt>
<trkpt lat="54.355127" lon="-3.114072"><ele>266</ele><time>2020-06-12T13:26:48Z</time><name>PT12191</name></trkpt>
<trkpt lat="54.355120" lon="-3.114061"><ele>266</ele><time>2020-06-12T13:26:49Z</time><name>PT12192</name></trkpt>
<trkpt lat="54.355115" lon="-3.114051"><ele>266</ele><time>2020-06-12T13:26:50Z</time><name>PT12193</name></trkpt>
<trkpt lat="54.355110" lon="-3.114043"><ele>265</ele><time>2020-06-12T13:26:51Z</time><name>PT12194</name></trkpt>
<trkpt lat="54.355105" lon="-3.114037"><ele>264</ele><time>2020-06-12T13:26:52Z</time><name>PT12195</name></trkpt>
<trkpt lat="54.355100" lon="-3.114032"><ele>264</ele><time>2020-06-12T13:26:53Z</time><name>PT12196</name></trkpt>
<trkpt lat="54.355095" lon="-3.114023"><ele>264</ele><time>2020-06-12T13:26:54Z</time><name>PT12197</name></trkpt>
<trkpt lat="54.355085" lon="-3.114016"><ele>264</ele><time>2020-06-12T13:26:55Z</time><name>PT12198</name></trkpt>
<trkpt lat="54.355078" lon="-3.114010"><ele>264</ele><time>2020-06-12T13:26:56Z</time><name>PT12199</name></trkpt>
<trkpt lat="54.355070" lon="-3.114005"><ele>264</ele><time>2020-06-12T13:26:57Z</time><name>PT12200</name></trkpt>
<trkpt lat="54.355060" lon="-3.114001"><ele>265</ele><time>2020-06-12T13:26:58Z</time><name>PT12201</name></trkpt>
<trkpt lat="54.355050" lon="-3.114003"><ele>264</ele><time>2020-06-12T13:26:59Z</time><name>PT12202</name></trkpt>
<trkpt lat="54.355038" lon="-3.113997"><ele>264</ele><time>2020-06-12T13:27:00Z</time><name>PT12203</name></trkpt>
<trkpt lat="54.355029" lon="-3.113985"><ele>265</ele><time>2020-06-12T13:27:01Z</time><name>PT12204</name></trkpt>
<trkpt lat="54.355022" lon="-3.113978"><ele>264</ele><time>2020-06-12T13:27:02Z</time><name>PT12205</name></trkpt>
<trkpt lat="54.355015" lon="-3.113969"><ele>264</ele><time>2020-06-12T13:27:03Z</time><name>PT12206</name></trkpt>
<trkpt lat="54.355006" lon="-3.113956"><ele>264</ele><time>2020-06-12T13:27:04Z</time><name>PT12207</name></trkpt>
<trkpt lat="54.355002" lon="-3.113944"><ele>264</ele><time>2020-06-12T13:27:05Z</time><name>PT12208</name></trkpt>
<trkpt lat="54.354998" lon="-3.113931"><ele>264</ele><time>2020-06-12T13:27:06Z</time><name>PT12209</name></trkpt>
<trkpt lat="54.354995" lon="-3.113921"><ele>264</ele><time>2020-06-12T13:27:07Z</time><name>PT12210</name></trkpt>
<trkpt lat="54.354991" lon="-3.113915"><ele>264</ele><time>2020-06-12T13:27:08Z</time><name>PT12211</name></trkpt>
<trkpt lat="54.354986" lon="-3.113904"><ele>264</ele><time>2020-06-12T13:27:09Z</time><name>PT12212</name></trkpt>
<trkpt lat="54.354983" lon="-3.113894"><ele>263</ele><time>2020-06-12T13:27:10Z</time><name>PT12213</name></trkpt>
<trkpt lat="54.354982" lon="-3.113887"><ele>263</ele><time>2020-06-12T13:27:11Z</time><name>PT12214</name></trkpt>
<trkpt lat="54.354980" lon="-3.113875"><ele>264</ele><time>2020-06-12T13:27:12Z</time><name>PT12215</name></trkpt>
<trkpt lat="54.354981" lon="-3.113866"><ele>263</ele><time>2020-06-12T13:27:13Z</time><name>PT12216</name></trkpt>
<trkpt lat="54.354978" lon="-3.113851"><ele>264</ele><time>2020-06-12T13:27:14Z</time><name>PT12217</name></trkpt>
<trkpt lat="54.354978" lon="-3.113838"><ele>264</ele><time>2020-06-12T13:27:15Z</time><name>PT12218</name></trkpt>
<trkpt lat="54.354977" lon="-3.113823"><ele>264</ele><time>2020-06-12T13:27:16Z</time><name>PT12219</name></trkpt>
<trkpt lat="54.354975" lon="-3.113808"><ele>263</ele><time>2020-06-12T13:27:17Z</time><name>PT12220</name></trkpt>
<trkpt lat="54.354972" lon="-3.113792"><ele>263</ele><time>2020-06-12T13:27:18Z</time><name>PT12221</name></trkpt>
<trkpt lat="54.354971" lon="-3.113777"><ele>263</ele><time>2020-06-12T13:27:19Z</time><name>PT12222</name></trkpt>
<trkpt lat="54.354969" lon="-3.113762"><ele>263</ele><time>2020-06-12T13:27:20Z</time><name>PT12223</name></trkpt>
<trkpt lat="54.354967" lon="-3.113745"><ele>264</ele><time>2020-06-12T13:27:21Z</time><name>PT12224</name></trkpt>
<trkpt lat="54.354968" lon="-3.113733"><ele>263</ele><time>2020-06-12T13:27:22Z</time><name>PT12225</name></trkpt>
<trkpt lat="54.354969" lon="-3.113717"><ele>263</ele><time>2020-06-12T13:27:23Z</time><name>PT12226</name></trkpt>
<trkpt lat="54.354971" lon="-3.113700"><ele>263</ele><time>2020-06-12T13:27:24Z</time><name>PT12227</name></trkpt>
<trkpt lat="54.354971" lon="-3.113687"><ele>263</ele><time>2020-06-12T13:27:25Z</time><name>PT12228</name></trkpt>
<trkpt lat="54.354969" lon="-3.113672"><ele>262</ele><time>2020-06-12T13:27:26Z</time><name>PT12229</name></trkpt>
<trkpt lat="54.354970" lon="-3.113656"><ele>262</ele><time>2020-06-12T13:27:27Z</time><name>PT12230</name></trkpt>
<trkpt lat="54.354970" lon="-3.113651"><ele>261</ele><time>2020-06-12T13:27:28Z</time><name>PT12231</name></trkpt>
<trkpt lat="54.354968" lon="-3.113633"><ele>261</ele><time>2020-06-12T13:27:29Z</time><name>PT12232</name></trkpt>
<trkpt lat="54.354966" lon="-3.113614"><ele>261</ele><time>2020-06-12T13:27:30Z</time><name>PT12233</name></trkpt>
<trkpt lat="54.354965" lon="-3.113599"><ele>261</ele><time>2020-06-12T13:27:31Z</time><name>PT12234</name></trkpt>
<trkpt lat="54.354964" lon="-3.113586"><ele>261</ele><time>2020-06-12T13:27:32Z</time><name>PT12235</name></trkpt>
<trkpt lat="54.354965" lon="-3.113569"><ele>261</ele><time>2020-06-12T13:27:33Z</time><name>PT12236</name></trkpt>
<trkpt lat="54.354965" lon="-3.113548"><ele>261</ele><time>2020-06-12T13:27:34Z</time><name>PT12237</name></trkpt>
<trkpt lat="54.354966" lon="-3.113527"><ele>261</ele><time>2020-06-12T13:27:35Z</time><name>PT12238</name></trkpt>
<trkpt lat="54.354966" lon="-3.113504"><ele>261</ele><time>2020-06-12T13:27:36Z</time><name>PT12239</name></trkpt>
<trkpt lat="54.354966" lon="-3.113487"><ele>261</ele><time>2020-06-12T13:27:37Z</time><name>PT12240</name></trkpt>
<trkpt lat="54.354966" lon="-3.113471"><ele>261</ele><time>2020-06-12T13:27:38Z</time><name>PT12241</name></trkpt>
<trkpt lat="54.354965" lon="-3.113451"><ele>260</ele><time>2020-06-12T13:27:39Z</time><name>PT12242</name></trkpt>
<trkpt lat="54.354966" lon="-3.113431"><ele>260</ele><time>2020-06-12T13:27:40Z</time><name>PT12243</name></trkpt>
<trkpt lat="54.354968" lon="-3.113411"><ele>260</ele><time>2020-06-12T13:27:41Z</time><name>PT12244</name></trkpt>
<trkpt lat="54.354970" lon="-3.113389"><ele>260</ele><time>2020-06-12T13:27:42Z</time><name>PT12245</name></trkpt>
<trkpt lat="54.354972" lon="-3.113372"><ele>260</ele><time>2020-06-12T13:27:43Z</time><name>PT12246</name></trkpt>
<trkpt lat="54.354973" lon="-3.113352"><ele>259</ele><time>2020-06-12T13:27:44Z</time><name>PT12247</name></trkpt>
<trkpt lat="54.354974" lon="-3.113333"><ele>259</ele><time>2020-06-12T13:27:45Z</time><name>PT12248</name></trkpt>
<trkpt lat="54.354975" lon="-3.113319"><ele>258</ele><time>2020-06-12T13:27:46Z</time><name>PT12249</name></trkpt>
<trkpt lat="54.354976" lon="-3.113302"><ele>258</ele><time>2020-06-12T13:27:47Z</time><name>PT12250</name></trkpt>
<trkpt lat="54.354979" lon="-3.113285"><ele>257</ele><time>2020-06-12T13:27:48Z</time><name>PT12251</name></trkpt>
<trkpt lat="54.354981" lon="-3.113267"><ele>256</ele><time>2020-06-12T13:27:49Z</time><name>PT12252</name></trkpt>
<trkpt lat="54.354978" lon="-3.113244"><ele>256</ele><time>2020-06-12T13:27:50Z</time><name>PT12253</name></trkpt>
<trkpt lat="54.354977" lon="-3.113224"><ele>256</ele><time>2020-06-12T13:27:51Z</time><name>PT12254</name></trkpt>
<trkpt lat="54.354977" lon="-3.113202"><ele>256</ele><time>2020-06-12T13:27:52Z</time><name>PT12255</name></trkpt>
<trkpt lat="54.354979" lon="-3.113183"><ele>256</ele><time>2020-06-12T13:27:53Z</time><name>PT12256</name></trkpt>
<trkpt lat="54.354986" lon="-3.113167"><ele>255</ele><time>2020-06-12T13:27:54Z</time><name>PT12257</name></trkpt>
<trkpt lat="54.354986" lon="-3.113148"><ele>256</ele><time>2020-06-12T13:27:55Z</time><name>PT12258</name></trkpt>
<trkpt lat="54.354986" lon="-3.113134"><ele>256</ele><time>2020-06-12T13:27:56Z</time><name>PT12259</name></trkpt>
<trkpt lat="54.354982" lon="-3.113104"><ele>256</ele><time>2020-06-12T13:27:57Z</time><name>PT12260</name></trkpt>
<trkpt lat="54.354980" lon="-3.113083"><ele>255</ele><time>2020-06-12T13:27:58Z</time><name>PT12261</name></trkpt>
<trkpt lat="54.354980" lon="-3.113067"><ele>255</ele><time>2020-06-12T13:27:59Z</time><name>PT12262</name></trkpt>
<trkpt lat="54.354980" lon="-3.113048"><ele>255</ele><time>2020-06-12T13:28:00Z</time><name>PT12263</name></trkpt>
<trkpt lat="54.354981" lon="-3.113027"><ele>255</ele><time>2020-06-12T13:28:01Z</time><name>PT12264</name></trkpt>
<trkpt lat="54.354980" lon="-3.113007"><ele>255</ele><time>2020-06-12T13:28:02Z</time><name>PT12265</name></trkpt>
<trkpt lat="54.354979" lon="-3.112987"><ele>255</ele><time>2020-06-12T13:28:03Z</time><name>PT12266</name></trkpt>
<trkpt lat="54.354978" lon="-3.112967"><ele>255</ele><time>2020-06-12T13:28:04Z</time><name>PT12267</name></trkpt>
<trkpt lat="54.354976" lon="-3.112947"><ele>254</ele><time>2020-06-12T13:28:05Z</time><name>PT12268</name></trkpt>
<trkpt lat="54.354979" lon="-3.112932"><ele>254</ele><time>2020-06-12T13:28:06Z</time><name>PT12269</name></trkpt>
<trkpt lat="54.354979" lon="-3.112913"><ele>254</ele><time>2020-06-12T13:28:07Z</time><name>PT12270</name></trkpt>
<trkpt lat="54.354981" lon="-3.112897"><ele>253</ele><time>2020-06-12T13:28:08Z</time><name>PT12271</name></trkpt>
<trkpt lat="54.354982" lon="-3.112876"><ele>253</ele><time>2020-06-12T13:28:09Z</time><name>PT12272</name></trkpt>
<trkpt lat="54.354982" lon="-3.112854"><ele>253</ele><time>2020-06-12T13:28:10Z</time><name>PT12273</name></trkpt>
<trkpt lat="54.354981" lon="-3.112836"><ele>252</ele><time>2020-06-12T13:28:11Z</time><name>PT12274</name></trkpt>
<trkpt lat="54.354984" lon="-3.112817"><ele>251</ele><time>2020-06-12T13:28:12Z</time><name>PT12275</name></trkpt>
<trkpt lat="54.354986" lon="-3.112792"><ele>252</ele><time>2020-06-12T13:28:13Z</time><name>PT12276</name></trkpt>
<trkpt lat="54.354984" lon="-3.112765"><ele>252</ele><time>2020-06-12T13:28:14Z</time><name>PT12277</name></trkpt>
<trkpt lat="54.354981" lon="-3.112741"><ele>252</ele><time>2020-06-12T13:28:15Z</time><name>PT12278</name></trkpt>
<trkpt lat="54.354980" lon="-3.112720"><ele>252</ele><time>2020-06-12T13:28:16Z</time><name>PT12279</name></trkpt>
<trkpt lat="54.354978" lon="-3.112691"><ele>251</ele><time>2020-06-12T13:28:17Z</time><name>PT12280</name></trkpt>
<trkpt lat="54.354974" lon="-3.112676"><ele>251</ele><time>2020-06-12T13:28:18Z</time><name>PT12281</name></trkpt>
<trkpt lat="54.354967" lon="-3.112658"><ele>251</ele><time>2020-06-12T13:28:19Z</time><name>PT12282</name></trkpt>
<trkpt lat="54.354963" lon="-3.112635"><ele>251</ele><time>2020-06-12T13:28:20Z</time><name>PT12283</name></trkpt>
<trkpt lat="54.354960" lon="-3.112612"><ele>251</ele><time>2020-06-12T13:28:21Z</time><name>PT12284</name></trkpt>
<trkpt lat="54.354957" lon="-3.112587"><ele>251</ele><time>2020-06-12T13:28:22Z</time><name>PT12285</name></trkpt>
<trkpt lat="54.354954" lon="-3.112562"><ele>251</ele><time>2020-06-12T13:28:23Z</time><name>PT12286</name></trkpt>
<trkpt lat="54.354952" lon="-3.112544"><ele>251</ele><time>2020-06-12T13:28:24Z</time><name>PT12287</name></trkpt>
<trkpt lat="54.354950" lon="-3.112522"><ele>251</ele><time>2020-06-12T13:28:25Z</time><name>PT12288</name></trkpt>
<trkpt lat="54.354946" lon="-3.112500"><ele>251</ele><time>2020-06-12T13:28:26Z</time><name>PT12289</name></trkpt>
<trkpt lat="54.354944" lon="-3.112476"><ele>251</ele><time>2020-06-12T13:28:27Z</time><name>PT12290</name></trkpt>
<trkpt lat="54.354943" lon="-3.112456"><ele>251</ele><time>2020-06-12T13:28:28Z</time><name>PT12291</name></trkpt>
<trkpt lat="54.354941" lon="-3.112436"><ele>250</ele><time>2020-06-12T13:28:29Z</time><name>PT12292</name></trkpt>
<trkpt lat="54.354938" lon="-3.112414"><ele>250</ele><time>2020-06-12T13:28:30Z</time><name>PT12293</name></trkpt>
<trkpt lat="54.354936" lon="-3.112394"><ele>249</ele><time>2020-06-12T13:28:31Z</time><name>PT12294</name></trkpt>
<trkpt lat="54.354933" lon="-3.112377"><ele>249</ele><time>2020-06-12T13:28:32Z</time><name>PT12295</name></trkpt>
<trkpt lat="54.354931" lon="-3.112359"><ele>249</ele><time>2020-06-12T13:28:33Z</time><name>PT12296</name></trkpt>
<trkpt lat="54.354929" lon="-3.112336"><ele>249</ele><time>2020-06-12T13:28:34Z</time><name>PT12297</name></trkpt>
<trkpt lat="54.354928" lon="-3.112322"><ele>249</ele><time>2020-06-12T13:28:35Z</time><name>PT12298</name></trkpt>
<trkpt lat="54.354926" lon="-3.112310"><ele>248</ele><time>2020-06-12T13:28:36Z</time><name>PT12299</name></trkpt>
<trkpt lat="54.354925" lon="-3.112294"><ele>247</ele><time>2020-06-12T13:28:37Z</time><name>PT12300</name></trkpt>
<trkpt lat="54.354923" lon="-3.112276"><ele>247</ele><time>2020-06-12T13:28:38Z</time><name>PT12301</name></trkpt>
<trkpt lat="54.354922" lon="-3.112258"><ele>247</ele><time>2020-06-12T13:28:39Z</time><name>PT12302</name></trkpt>
<trkpt lat="54.354921" lon="-3.112236"><ele>248</ele><time>2020-06-12T13:28:40Z</time><name>PT12303</name></trkpt>
<trkpt lat="54.354923" lon="-3.112223"><ele>248</ele><time>2020-06-12T13:28:41Z</time><name>PT12304</name></trkpt>
<trkpt lat="54.354921" lon="-3.112208"><ele>247</ele><time>2020-06-12T13:28:42Z</time><name>PT12305</name></trkpt>
<trkpt lat="54.354920" lon="-3.112191"><ele>247</ele><time>2020-06-12T13:28:43Z</time><name>PT12306</name></trkpt>
<trkpt lat="54.354920" lon="-3.112176"><ele>247</ele><time>2020-06-12T13:28:44Z</time><name>PT12307</name></trkpt>
<trkpt lat="54.354922" lon="-3.112155"><ele>247</ele><time>2020-06-12T13:28:45Z</time><name>PT12308</name></trkpt>
<trkpt lat="54.354922" lon="-3.112137"><ele>247</ele><time>2020-06-12T13:28:46Z</time><name>PT12309</name></trkpt>
<trkpt lat="54.354920" lon="-3.112118"><ele>246</ele><time>2020-06-12T13:28:47Z</time><name>PT12310</name></trkpt>
<trkpt lat="54.354918" lon="-3.112102"><ele>246</ele><time>2020-06-12T13:28:48Z</time><name>PT12311</name></trkpt>
<trkpt lat="54.354916" lon="-3.112088"><ele>246</ele><time>2020-06-12T13:28:49Z</time><name>PT12312</name></trkpt>
<trkpt lat="54.354910" lon="-3.112065"><ele>246</ele><time>2020-06-12T13:28:50Z</time><name>PT12313</name></trkpt>
<trkpt lat="54.354905" lon="-3.112054"><ele>246</ele><time>2020-06-12T13:28:51Z</time><name>PT12314</name></trkpt>
<trkpt lat="54.354901" lon="-3.112046"><ele>246</ele><time>2020-06-12T13:28:52Z</time><name>PT12315</name></trkpt>
<trkpt lat="54.354894" lon="-3.112028"><ele>246</ele><time>2020-06-12T13:28:53Z</time><name>PT12316</name></trkpt>
<trkpt lat="54.354889" lon="-3.112004"><ele>246</ele><time>2020-06-12T13:28:54Z</time><name>PT12317</name></trkpt>
<trkpt lat="54.354885" lon="-3.111987"><ele>246</ele><time>2020-06-12T13:28:55Z</time><name>PT12318</name></trkpt>
<trkpt lat="54.354881" lon="-3.111974"><ele>246</ele><time>2020-06-12T13:28:56Z</time><name>PT12319</name></trkpt>
<trkpt lat="54.354877" lon="-3.111958"><ele>246</ele><time>2020-06-12T13:28:57Z</time><name>PT12320</name></trkpt>
<trkpt lat="54.354874" lon="-3.111944"><ele>245</ele><time>2020-06-12T13:28:58Z</time><name>PT12321</name></trkpt>
<trkpt lat="54.354867" lon="-3.111921"><ele>245</ele><time>2020-06-12T13:28:59Z</time><name>PT12322</name></trkpt>
<trkpt lat="54.354859" lon="-3.111907"><ele>244</ele><time>2020-06-12T13:29:01Z</time><name>PT12323</name></trkpt>
<trkpt lat="54.354851" lon="-3.111893"><ele>244</ele><time>2020-06-12T13:29:01Z</time><name>PT12324</name></trkpt>
<trkpt lat="54.354845" lon="-3.111877"><ele>245</ele><time>2020-06-12T13:29:02Z</time><name>PT12325</name></trkpt>
<trkpt lat="54.354839" lon="-3.111865"><ele>244</ele><time>2020-06-12T13:29:03Z</time><name>PT12326</name></trkpt>
<trkpt lat="54.354832" lon="-3.111854"><ele>244</ele><time>2020-06-12T13:29:04Z</time><name>PT12327</name></trkpt>
<trkpt lat="54.354827" lon="-3.111843"><ele>243</ele><time>2020-06-12T13:29:05Z</time><name>PT12328</name></trkpt>
<trkpt lat="54.354821" lon="-3.111834"><ele>243</ele><time>2020-06-12T13:29:06Z</time><name>PT12329</name></trkpt>
<trkpt lat="54.354813" lon="-3.111821"><ele>243</ele><time>2020-06-12T13:29:07Z</time><name>PT12330</name></trkpt>
<trkpt lat="54.354805" lon="-3.111818"><ele>243</ele><time>2020-06-12T13:29:08Z</time><name>PT12331</name></trkpt>
<trkpt lat="54.354796" lon="-3.111810"><ele>243</ele><time>2020-06-12T13:29:09Z</time><name>PT12332</name></trkpt>
<trkpt lat="54.354786" lon="-3.111797"><ele>243</ele><time>2020-06-12T13:29:10Z</time><name>PT12333</name></trkpt>
<trkpt lat="54.354777" lon="-3.111790"><ele>242</ele><time>2020-06-12T13:29:11Z</time><name>PT12334</name></trkpt>
<trkpt lat="54.354766" lon="-3.111782"><ele>242</ele><time>2020-06-12T13:29:12Z</time><name>PT12335</name></trkpt>
<trkpt lat="54.354759" lon="-3.111774"><ele>242</ele><time>2020-06-12T13:29:13Z</time><name>PT12336</name></trkpt>
<trkpt lat="54.354748" lon="-3.111767"><ele>241</ele><time>2020-06-12T13:29:14Z</time><name>PT12337</name></trkpt>
<trkpt lat="54.354732" lon="-3.111761"><ele>242</ele><time>2020-06-12T13:29:15Z</time><name>PT12338</name></trkpt>
<trkpt lat="54.354719" lon="-3.111758"><ele>242</ele><time>2020-06-12T13:29:16Z</time><name>PT12339</name></trkpt>
<trkpt lat="54.354706" lon="-3.111755"><ele>242</ele><time>2020-06-12T13:29:17Z</time><name>PT12340</name></trkpt>
<trkpt lat="54.354693" lon="-3.111752"><ele>243</ele><time>2020-06-12T13:29:18Z</time><name>PT12341</name></trkpt>
<trkpt lat="54.354680" lon="-3.111754"><ele>243</ele><time>2020-06-12T13:29:19Z</time><name>PT12342</name></trkpt>
<trkpt lat="54.354667" lon="-3.111761"><ele>243</ele><time>2020-06-12T13:29:20Z</time><name>PT12343</name></trkpt>
<trkpt lat="54.354655" lon="-3.111765"><ele>243</ele><time>2020-06-12T13:29:21Z</time><name>PT12344</name></trkpt>
<trkpt lat="54.354643" lon="-3.111774"><ele>243</ele><time>2020-06-12T13:29:22Z</time><name>PT12345</name></trkpt>
<trkpt lat="54.354629" lon="-3.111782"><ele>244</ele><time>2020-06-12T13:29:23Z</time><name>PT12346</name></trkpt>
<trkpt lat="54.354617" lon="-3.111787"><ele>244</ele><time>2020-06-12T13:29:24Z</time><name>PT12347</name></trkpt>
<trkpt lat="54.354607" lon="-3.111792"><ele>243</ele><time>2020-06-12T13:29:25Z</time><name>PT12348</name></trkpt>
<trkpt lat="54.354595" lon="-3.111798"><ele>243</ele><time>2020-06-12T13:29:26Z</time><name>PT12349</name></trkpt>
<trkpt lat="54.354583" lon="-3.111805"><ele>243</ele><time>2020-06-12T13:29:27Z</time><name>PT12350</name></trkpt>
<trkpt lat="54.354570" lon="-3.111814"><ele>243</ele><time>2020-06-12T13:29:28Z</time><name>PT12351</name></trkpt>
<trkpt lat="54.354558" lon="-3.111820"><ele>242</ele><time>2020-06-12T13:29:29Z</time><name>PT12352</name></trkpt>
<trkpt lat="54.354548" lon="-3.111826"><ele>242</ele><time>2020-06-12T13:29:30Z</time><name>PT12353</name></trkpt>
<trkpt lat="54.354533" lon="-3.111833"><ele>243</ele><time>2020-06-12T13:29:31Z</time><name>PT12354</name></trkpt>
<trkpt lat="54.354521" lon="-3.111836"><ele>243</ele><time>2020-06-12T13:29:32Z</time><name>PT12355</name></trkpt>
<trkpt lat="54.354509" lon="-3.111843"><ele>243</ele><time>2020-06-12T13:29:33Z</time><name>PT12356</name></trkpt>
<trkpt lat="54.354499" lon="-3.111847"><ele>243</ele><time>2020-06-12T13:29:34Z</time><name>PT12357</name></trkpt>
<trkpt lat="54.354486" lon="-3.111853"><ele>243</ele><time>2020-06-12T13:29:35Z</time><name>PT12358</name></trkpt>
<trkpt lat="54.354473" lon="-3.111865"><ele>243</ele><time>2020-06-12T13:29:36Z</time><name>PT12359</name></trkpt>
<trkpt lat="54.354466" lon="-3.111872"><ele>243</ele><time>2020-06-12T13:29:37Z</time><name>PT12360</name></trkpt>
<trkpt lat="54.354457" lon="-3.111877"><ele>243</ele><time>2020-06-12T13:29:38Z</time><name>PT12361</name></trkpt>
<trkpt lat="54.354447" lon="-3.111880"><ele>243</ele><time>2020-06-12T13:29:39Z</time><name>PT12362</name></trkpt>
<trkpt lat="54.354436" lon="-3.111886"><ele>243</ele><time>2020-06-12T13:29:40Z</time><name>PT12363</name></trkpt>
<trkpt lat="54.354426" lon="-3.111891"><ele>243</ele><time>2020-06-12T13:29:41Z</time><name>PT12364</name></trkpt>
<trkpt lat="54.354415" lon="-3.111897"><ele>243</ele><time>2020-06-12T13:29:42Z</time><name>PT12365</name></trkpt>
<trkpt lat="54.354405" lon="-3.111901"><ele>242</ele><time>2020-06-12T13:29:43Z</time><name>PT12366</name></trkpt>
<trkpt lat="54.354392" lon="-3.111902"><ele>243</ele><time>2020-06-12T13:29:44Z</time><name>PT12367</name></trkpt>
<trkpt lat="54.354381" lon="-3.111904"><ele>242</ele><time>2020-06-12T13:29:45Z</time><name>PT12368</name></trkpt>
<trkpt lat="54.354372" lon="-3.111914"><ele>243</ele><time>2020-06-12T13:29:46Z</time><name>PT12369</name></trkpt>
<trkpt lat="54.354359" lon="-3.111927"><ele>244</ele><time>2020-06-12T13:29:47Z</time><name>PT12370</name></trkpt>
<trkpt lat="54.354349" lon="-3.111919"><ele>244</ele><time>2020-06-12T13:29:48Z</time><name>PT12371</name></trkpt>
<trkpt lat="54.354338" lon="-3.111915"><ele>244</ele><time>2020-06-12T13:29:49Z</time><name>PT12372</name></trkpt>
<trkpt lat="54.354327" lon="-3.111909"><ele>244</ele><time>2020-06-12T13:29:50Z</time><name>PT12373</name></trkpt>
<trkpt lat="54.354318" lon="-3.111901"><ele>243</ele><time>2020-06-12T13:29:51Z</time><name>PT12374</name></trkpt>
<trkpt lat="54.354304" lon="-3.111898"><ele>244</ele><time>2020-06-12T13:29:52Z</time><name>PT12375</name></trkpt>
<trkpt lat="54.354298" lon="-3.111890"><ele>243</ele><time>2020-06-12T13:29:53Z</time><name>PT12376</name></trkpt>
<trkpt lat="54.354290" lon="-3.111883"><ele>242</ele><time>2020-06-12T13:29:54Z</time><name>PT12377</name></trkpt>
<trkpt lat="54.354277" lon="-3.111871"><ele>243</ele><time>2020-06-12T13:29:55Z</time><name>PT12378</name></trkpt>
<trkpt lat="54.354278" lon="-3.111867"><ele>242</ele><time>2020-06-12T13:29:56Z</time><name>PT12379</name></trkpt>
<trkpt lat="54.354276" lon="-3.111870"><ele>242</ele><time>2020-06-12T13:29:57Z</time><name>PT12380</name></trkpt>
<trkpt lat="54.354276" lon="-3.111870"><ele>242</ele><time>2020-06-12T13:29:58Z</time><name>PT12381</name></trkpt>
<trkpt lat="54.354276" lon="-3.111873"><ele>242</ele><time>2020-06-12T13:30:05Z</time><name>PT12382</name></trkpt>
<trkpt lat="54.354265" lon="-3.111858"><ele>241</ele><time>2020-06-12T13:30:06Z</time><name>PT12383</name></trkpt>
<trkpt lat="54.354256" lon="-3.111842"><ele>240</ele><time>2020-06-12T13:30:07Z</time><name>PT12384</name></trkpt>
<trkpt lat="54.354251" lon="-3.111830"><ele>240</ele><time>2020-06-12T13:30:08Z</time><name>PT12385</name></trkpt>
<trkpt lat="54.354252" lon="-3.111812"><ele>240</ele><time>2020-06-12T13:30:09Z</time><name>PT12386</name></trkpt>
<trkpt lat="54.354248" lon="-3.111796"><ele>239</ele><time>2020-06-12T13:30:10Z</time><name>PT12387</name></trkpt>
<trkpt lat="54.354241" lon="-3.111779"><ele>239</ele><time>2020-06-12T13:30:11Z</time><name>PT12388</name></trkpt>
<trkpt lat="54.354237" lon="-3.111760"><ele>239</ele><time>2020-06-12T13:30:12Z</time><name>PT12389</name></trkpt>
<trkpt lat="54.354233" lon="-3.111738"><ele>239</ele><time>2020-06-12T13:30:13Z</time><name>PT12390</name></trkpt>
<trkpt lat="54.354230" lon="-3.111716"><ele>239</ele><time>2020-06-12T13:30:14Z</time><name>PT12391</name></trkpt>
<trkpt lat="54.354225" lon="-3.111695"><ele>239</ele><time>2020-06-12T13:30:15Z</time><name>PT12392</name></trkpt>
<trkpt lat="54.354224" lon="-3.111682"><ele>239</ele><time>2020-06-12T13:30:16Z</time><name>PT12393</name></trkpt>
<trkpt lat="54.354223" lon="-3.111668"><ele>239</ele><time>2020-06-12T13:30:17Z</time><name>PT12394</name></trkpt>
<trkpt lat="54.354219" lon="-3.111652"><ele>239</ele><time>2020-06-12T13:30:18Z</time><name>PT12395</name></trkpt>
<trkpt lat="54.354214" lon="-3.111634"><ele>239</ele><time>2020-06-12T13:30:19Z</time><name>PT12396</name></trkpt>
<trkpt lat="54.354210" lon="-3.111617"><ele>239</ele><time>2020-06-12T13:30:20Z</time><name>PT12397</name></trkpt>
<trkpt lat="54.354206" lon="-3.111599"><ele>238</ele><time>2020-06-12T13:30:21Z</time><name>PT12398</name></trkpt>
<trkpt lat="54.354203" lon="-3.111582"><ele>238</ele><time>2020-06-12T13:30:22Z</time><name>PT12399</name></trkpt>
<trkpt lat="54.354197" lon="-3.111564"><ele>237</ele><time>2020-06-12T13:30:23Z</time><name>PT12400</name></trkpt>
<trkpt lat="54.354194" lon="-3.111552"><ele>237</ele><time>2020-06-12T13:30:24Z</time><name>PT12401</name></trkpt>
<trkpt lat="54.354191" lon="-3.111539"><ele>237</ele><time>2020-06-12T13:30:25Z</time><name>PT12402</name></trkpt>
<trkpt lat="54.354191" lon="-3.111531"><ele>236</ele><time>2020-06-12T13:30:26Z</time><name>PT12403</name></trkpt>
<trkpt lat="54.354189" lon="-3.111521"><ele>236</ele><time>2020-06-12T13:30:27Z</time><name>PT12404</name></trkpt>
<trkpt lat="54.354185" lon="-3.111505"><ele>236</ele><time>2020-06-12T13:30:28Z</time><name>PT12405</name></trkpt>
<trkpt lat="54.354179" lon="-3.111488"><ele>236</ele><time>2020-06-12T13:30:29Z</time><name>PT12406</name></trkpt>
<trkpt lat="54.354175" lon="-3.111479"><ele>236</ele><time>2020-06-12T13:30:30Z</time><name>PT12407</name></trkpt>
<trkpt lat="54.354169" lon="-3.111463"><ele>235</ele><time>2020-06-12T13:30:31Z</time><name>PT12408</name></trkpt>
<trkpt lat="54.354166" lon="-3.111457"><ele>235</ele><time>2020-06-12T13:30:32Z</time><name>PT12409</name></trkpt>
<trkpt lat="54.354160" lon="-3.111445"><ele>234</ele><time>2020-06-12T13:30:33Z</time><name>PT12410</name></trkpt>
<trkpt lat="54.354157" lon="-3.111429"><ele>234</ele><time>2020-06-12T13:30:34Z</time><name>PT12411</name></trkpt>
<trkpt lat="54.354156" lon="-3.111416"><ele>234</ele><time>2020-06-12T13:30:35Z</time><name>PT12412</name></trkpt>
<trkpt lat="54.354153" lon="-3.111394"><ele>235</ele><time>2020-06-12T13:30:36Z</time><name>PT12413</name></trkpt>
<trkpt lat="54.354149" lon="-3.111380"><ele>235</ele><time>2020-06-12T13:30:37Z</time><name>PT12414</name></trkpt>
<trkpt lat="54.354148" lon="-3.111372"><ele>234</ele><time>2020-06-12T13:30:38Z</time><name>PT12415</name></trkpt>
<trkpt lat="54.354145" lon="-3.111355"><ele>233</ele><time>2020-06-12T13:30:39Z</time><name>PT12416</name></trkpt>
<trkpt lat="54.354142" lon="-3.111339"><ele>233</ele><time>2020-06-12T13:30:40Z</time><name>PT12417</name></trkpt>
<trkpt lat="54.354139" lon="-3.111326"><ele>234</ele><time>2020-06-12T13:30:41Z</time><name>PT12418</name></trkpt>
<trkpt lat="54.354133" lon="-3.111315"><ele>234</ele><time>2020-06-12T13:30:42Z</time><name>PT12419</name></trkpt>
<trkpt lat="54.354126" lon="-3.111296"><ele>234</ele><time>2020-06-12T13:30:43Z</time><name>PT12420</name></trkpt>
<trkpt lat="54.354121" lon="-3.111286"><ele>233</ele><time>2020-06-12T13:30:44Z</time><name>PT12421</name></trkpt>
<trkpt lat="54.354114" lon="-3.111260"><ele>234</ele><time>2020-06-12T13:30:45Z</time><name>PT12422</name></trkpt>
<trkpt lat="54.354108" lon="-3.111245"><ele>234</ele><time>2020-06-12T13:30:46Z</time><name>PT12423</name></trkpt>
<trkpt lat="54.354101" lon="-3.111229"><ele>234</ele><time>2020-06-12T13:30:47Z</time><name>PT12424</name></trkpt>
<trkpt lat="54.354093" lon="-3.111213"><ele>234</ele><time>2020-06-12T13:30:48Z</time><name>PT12425</name></trkpt>
<trkpt lat="54.354088" lon="-3.111203"><ele>233</ele><time>2020-06-12T13:30:49Z</time><name>PT12426</name></trkpt>
<trkpt lat="54.354083" lon="-3.111196"><ele>232</ele><time>2020-06-12T13:30:50Z</time><name>PT12427</name></trkpt>
<trkpt lat="54.354075" lon="-3.111179"><ele>232</ele><time>2020-06-12T13:30:51Z</time><name>PT12428</name></trkpt>
<trkpt lat="54.354069" lon="-3.111166"><ele>232</ele><time>2020-06-12T13:30:52Z</time><name>PT12429</name></trkpt>
<trkpt lat="54.354065" lon="-3.111150"><ele>232</ele><time>2020-06-12T13:30:53Z</time><name>PT12430</name></trkpt>
<trkpt lat="54.354059" lon="-3.111134"><ele>231</ele><time>2020-06-12T13:30:54Z</time><name>PT12431</name></trkpt>
<trkpt lat="54.354055" lon="-3.111120"><ele>231</ele><time>2020-06-12T13:30:55Z</time><name>PT12432</name></trkpt>
<trkpt lat="54.354048" lon="-3.111107"><ele>231</ele><time>2020-06-12T13:30:56Z</time><name>PT12433</name></trkpt>
<trkpt lat="54.354040" lon="-3.111092"><ele>231</ele><time>2020-06-12T13:30:57Z</time><name>PT12434</name></trkpt>
<trkpt lat="54.354033" lon="-3.111080"><ele>231</ele><time>2020-06-12T13:30:58Z</time><name>PT12435</name></trkpt>
<trkpt lat="54.354028" lon="-3.111063"><ele>231</ele><time>2020-06-12T13:30:59Z</time><name>PT12436</name></trkpt>
<trkpt lat="54.354024" lon="-3.111043"><ele>231</ele><time>2020-06-12T13:31:00Z</time><name>PT12437</name></trkpt>
<trkpt lat="54.354018" lon="-3.111025"><ele>231</ele><time>2020-06-12T13:31:01Z</time><name>PT12438</name></trkpt>
<trkpt lat="54.354012" lon="-3.111009"><ele>231</ele><time>2020-06-12T13:31:02Z</time><name>PT12439</name></trkpt>
<trkpt lat="54.354009" lon="-3.110988"><ele>230</ele><time>2020-06-12T13:31:03Z</time><name>PT12440</name></trkpt>
<trkpt lat="54.354003" lon="-3.110975"><ele>230</ele><time>2020-06-12T13:31:04Z</time><name>PT12441</name></trkpt>
<trkpt lat="54.353998" lon="-3.110967"><ele>230</ele><time>2020-06-12T13:31:05Z</time><name>PT12442</name></trkpt>
<trkpt lat="54.353997" lon="-3.110960"><ele>229</ele><time>2020-06-12T13:31:06Z</time><name>PT12443</name></trkpt>
<trkpt lat="54.353992" lon="-3.110947"><ele>229</ele><time>2020-06-12T13:31:07Z</time><name>PT12444</name></trkpt>
<trkpt lat="54.353987" lon="-3.110939"><ele>229</ele><time>2020-06-12T13:31:08Z</time><name>PT12445</name></trkpt>
<trkpt lat="54.353980" lon="-3.110933"><ele>228</ele><time>2020-06-12T13:31:09Z</time><name>PT12446</name></trkpt>
<trkpt lat="54.353973" lon="-3.110928"><ele>228</ele><time>2020-06-12T13:31:10Z</time><name>PT12447</name></trkpt>
<trkpt lat="54.353967" lon="-3.110916"><ele>227</ele><time>2020-06-12T13:31:11Z</time><name>PT12448</name></trkpt>
<trkpt lat="54.353959" lon="-3.110901"><ele>227</ele><time>2020-06-12T13:31:12Z</time><name>PT12449</name></trkpt>
<trkpt lat="54.353949" lon="-3.110891"><ele>228</ele><time>2020-06-12T13:31:13Z</time><name>PT12450</name></trkpt>
<trkpt lat="54.353941" lon="-3.110886"><ele>227</ele><time>2020-06-12T13:31:14Z</time><name>PT12451</name></trkpt>
<trkpt lat="54.353934" lon="-3.110881"><ele>227</ele><time>2020-06-12T13:31:15Z</time><name>PT12452</name></trkpt>
<trkpt lat="54.353923" lon="-3.110880"><ele>228</ele><time>2020-06-12T13:31:16Z</time><name>PT12453</name></trkpt>
<trkpt lat="54.353909" lon="-3.110880"><ele>227</ele><time>2020-06-12T13:31:17Z</time><name>PT12454</name></trkpt>
<trkpt lat="54.353898" lon="-3.110873"><ele>228</ele><time>2020-06-12T13:31:18Z</time><name>PT12455</name></trkpt>
<trkpt lat="54.353884" lon="-3.110871"><ele>228</ele><time>2020-06-12T13:31:19Z</time><name>PT12456</name></trkpt>
<trkpt lat="54.353869" lon="-3.110867"><ele>228</ele><time>2020-06-12T13:31:20Z</time><name>PT12457</name></trkpt>
<trkpt lat="54.353857" lon="-3.110867"><ele>228</ele><time>2020-06-12T13:31:21Z</time><name>PT12458</name></trkpt>
<trkpt lat="54.353849" lon="-3.110861"><ele>228</ele><time>2020-06-12T13:31:22Z</time><name>PT12459</name></trkpt>
<trkpt lat="54.353838" lon="-3.110856"><ele>228</ele><time>2020-06-12T13:31:23Z</time><name>PT12460</name></trkpt>
<trkpt lat="54.353828" lon="-3.110846"><ele>228</ele><time>2020-06-12T13:31:24Z</time><name>PT12461</name></trkpt>
<trkpt lat="54.353821" lon="-3.110840"><ele>228</ele><time>2020-06-12T13:31:25Z</time><name>PT12462</name></trkpt>
<trkpt lat="54.353811" lon="-3.110831"><ele>228</ele><time>2020-06-12T13:31:26Z</time><name>PT12463</name></trkpt>
<trkpt lat="54.353803" lon="-3.110829"><ele>227</ele><time>2020-06-12T13:31:27Z</time><name>PT12464</name></trkpt>
<trkpt lat="54.353788" lon="-3.110824"><ele>227</ele><time>2020-06-12T13:31:28Z</time><name>PT12465</name></trkpt>
<trkpt lat="54.353781" lon="-3.110818"><ele>228</ele><time>2020-06-12T13:31:29Z</time><name>PT12466</name></trkpt>
<trkpt lat="54.353774" lon="-3.110814"><ele>228</ele><time>2020-06-12T13:31:30Z</time><name>PT12467</name></trkpt>
<trkpt lat="54.353768" lon="-3.110813"><ele>228</ele><time>2020-06-12T13:31:31Z</time><name>PT12468</name></trkpt>
<trkpt lat="54.353765" lon="-3.110809"><ele>228</ele><time>2020-06-12T13:31:32Z</time><name>PT12469</name></trkpt>
<trkpt lat="54.353762" lon="-3.110805"><ele>228</ele><time>2020-06-12T13:31:33Z</time><name>PT12470</name></trkpt>
<trkpt lat="54.353759" lon="-3.110799"><ele>228</ele><time>2020-06-12T13:31:34Z</time><name>PT12471</name></trkpt>
<trkpt lat="54.353752" lon="-3.110793"><ele>228</ele><time>2020-06-12T13:31:51Z</time><name>PT12472</name></trkpt>
<trkpt lat="54.353738" lon="-3.110773"><ele>228</ele><time>2020-06-12T13:31:52Z</time><name>PT12473</name></trkpt>
<trkpt lat="54.353730" lon="-3.110765"><ele>228</ele><time>2020-06-12T13:31:53Z</time><name>PT12474</name></trkpt>
<trkpt lat="54.353723" lon="-3.110766"><ele>227</ele><time>2020-06-12T13:31:54Z</time><name>PT12475</name></trkpt>
<trkpt lat="54.353716" lon="-3.110768"><ele>226</ele><time>2020-06-12T13:31:55Z</time><name>PT12476</name></trkpt>
<trkpt lat="54.353710" lon="-3.110759"><ele>226</ele><time>2020-06-12T13:31:56Z</time><name>PT12477</name></trkpt>
<trkpt lat="54.353702" lon="-3.110747"><ele>226</ele><time>2020-06-12T13:31:57Z</time><name>PT12478</name></trkpt>
<trkpt lat="54.353696" lon="-3.110737"><ele>226</ele><time>2020-06-12T13:31:58Z</time><name>PT12479</name></trkpt>
<trkpt lat="54.353691" lon="-3.110728"><ele>226</ele><time>2020-06-12T13:31:59Z</time><name>PT12480</name></trkpt>
<trkpt lat="54.353687" lon="-3.110725"><ele>226</ele><time>2020-06-12T13:32:00Z</time><name>PT12481</name></trkpt>
<trkpt lat="54.353681" lon="-3.110716"><ele>225</ele><time>2020-06-12T13:32:01Z</time><name>PT12482</name></trkpt>
<trkpt lat="54.353676" lon="-3.110703"><ele>225</ele><time>2020-06-12T13:32:02Z</time><name>PT12483</name></trkpt>
<trkpt lat="54.353668" lon="-3.110684"><ele>226</ele><time>2020-06-12T13:32:03Z</time><name>PT12484</name></trkpt>
<trkpt lat="54.353663" lon="-3.110675"><ele>226</ele><time>2020-06-12T13:32:04Z</time><name>PT12485</name></trkpt>
<trkpt lat="54.353659" lon="-3.110664"><ele>226</ele><time>2020-06-12T13:32:05Z</time><name>PT12486</name></trkpt>
<trkpt lat="54.353653" lon="-3.110654"><ele>226</ele><time>2020-06-12T13:32:06Z</time><name>PT12487</name></trkpt>
<trkpt lat="54.353647" lon="-3.110644"><ele>226</ele><time>2020-06-12T13:32:07Z</time><name>PT12488</name></trkpt>
<trkpt lat="54.353639" lon="-3.110632"><ele>226</ele><time>2020-06-12T13:32:08Z</time><name>PT12489</name></trkpt>
<trkpt lat="54.353631" lon="-3.110631"><ele>226</ele><time>2020-06-12T13:32:09Z</time><name>PT12490</name></trkpt>
<trkpt lat="54.353625" lon="-3.110620"><ele>225</ele><time>2020-06-12T13:32:10Z</time><name>PT12491</name></trkpt>
<trkpt lat="54.353619" lon="-3.110610"><ele>225</ele><time>2020-06-12T13:32:11Z</time><name>PT12492</name></trkpt>
<trkpt lat="54.353615" lon="-3.110597"><ele>225</ele><time>2020-06-12T13:32:12Z</time><name>PT12493</name></trkpt>
<trkpt lat="54.353611" lon="-3.110591"><ele>224</ele><time>2020-06-12T13:32:13Z</time><name>PT12494</name></trkpt>
<trkpt lat="54.353605" lon="-3.110593"><ele>223</ele><time>2020-06-12T13:32:14Z</time><name>PT12495</name></trkpt>
<trkpt lat="54.353597" lon="-3.110579"><ele>223</ele><time>2020-06-12T13:32:15Z</time><name>PT12496</name></trkpt>
<trkpt lat="54.353593" lon="-3.110573"><ele>222</ele><time>2020-06-12T13:32:16Z</time><name>PT12497</name></trkpt>
<trkpt lat="54.353587" lon="-3.110562"><ele>222</ele><time>2020-06-12T13:32:17Z</time><name>PT12498</name></trkpt>
<trkpt lat="54.353579" lon="-3.110548"><ele>223</ele><time>2020-06-12T13:32:18Z</time><name>PT12499</name></trkpt>
<trkpt lat="54.353570" lon="-3.110534"><ele>223</ele><time>2020-06-12T13:32:19Z</time><name>PT12500</name></trkpt>
<trkpt lat="54.353563" lon="-3.110523"><ele>223</ele><time>2020-06-12T13:32:20Z</time><name>PT12501</name></trkpt>
<trkpt lat="54.353557" lon="-3.110508"><ele>223</ele><time>2020-06-12T13:32:21Z</time><name>PT12502</name></trkpt>
<trkpt lat="54.353554" lon="-3.110502"><ele>222</ele><time>2020-06-12T13:32:22Z</time><name>PT12503</name></trkpt>
<trkpt lat="54.353549" lon="-3.110488"><ele>222</ele><time>2020-06-12T13:32:23Z</time><name>PT12504</name></trkpt>
<trkpt lat="54.353544" lon="-3.110474"><ele>221</ele><time>2020-06-12T13:32:24Z</time><name>PT12505</name></trkpt>
<trkpt lat="54.353540" lon="-3.110463"><ele>221</ele><time>2020-06-12T13:32:25Z</time><name>PT12506</name></trkpt>
<trkpt lat="54.353534" lon="-3.110447"><ele>221</ele><time>2020-06-12T13:32:26Z</time><name>PT12507</name></trkpt>
<trkpt lat="54.353526" lon="-3.110432"><ele>221</ele><time>2020-06-12T13:32:27Z</time><name>PT12508</name></trkpt>
<trkpt lat="54.353520" lon="-3.110421"><ele>221</ele><time>2020-06-12T13:32:28Z</time><name>PT12509</name></trkpt>
<trkpt lat="54.353513" lon="-3.110406"><ele>221</ele><time>2020-06-12T13:32:29Z</time><name>PT12510</name></trkpt>
<trkpt lat="54.353506" lon="-3.110394"><ele>221</ele><time>2020-06-12T13:32:30Z</time><name>PT12511</name></trkpt>
<trkpt lat="54.353501" lon="-3.110378"><ele>221</ele><time>2020-06-12T13:32:31Z</time><name>PT12512</name></trkpt>
<trkpt lat="54.353496" lon="-3.110367"><ele>221</ele><time>2020-06-12T13:32:32Z</time><name>PT12513</name></trkpt>
<trkpt lat="54.353489" lon="-3.110354"><ele>221</ele><time>2020-06-12T13:32:33Z</time><name>PT12514</name></trkpt>
<trkpt lat="54.353484" lon="-3.110339"><ele>220</ele><time>2020-06-12T13:32:34Z</time><name>PT12515</name></trkpt>
<trkpt lat="54.353477" lon="-3.110325"><ele>220</ele><time>2020-06-12T13:32:35Z</time><name>PT12516</name></trkpt>
<trkpt lat="54.353473" lon="-3.110314"><ele>219</ele><time>2020-06-12T13:32:36Z</time><name>PT12517</name></trkpt>
<trkpt lat="54.353469" lon="-3.110310"><ele>219</ele><time>2020-06-12T13:32:37Z</time><name>PT12518</name></trkpt>
<trkpt lat="54.353460" lon="-3.110296"><ele>219</ele><time>2020-06-12T13:32:38Z</time><name>PT12519</name></trkpt>
<trkpt lat="54.353454" lon="-3.110285"><ele>219</ele><time>2020-06-12T13:32:39Z</time><name>PT12520</name></trkpt>
<trkpt lat="54.353451" lon="-3.110276"><ele>218</ele><time>2020-06-12T13:32:40Z</time><name>PT12521</name></trkpt>
<trkpt lat="54.353448" lon="-3.110263"><ele>218</ele><time>2020-06-12T13:32:41Z</time><name>PT12522</name></trkpt>
<trkpt lat="54.353443" lon="-3.110253"><ele>218</ele><time>2020-06-12T13:32:42Z</time><name>PT12523</name></trkpt>
<trkpt lat="54.353439" lon="-3.110245"><ele>218</ele><time>2020-06-12T13:32:43Z</time><name>PT12524</name></trkpt>
<trkpt lat="54.353434" lon="-3.110234"><ele>218</ele><time>2020-06-12T13:32:44Z</time><name>PT12525</name></trkpt>
<trkpt lat="54.353429" lon="-3.110222"><ele>218</ele><time>2020-06-12T13:32:45Z</time><name>PT12526</name></trkpt>
<trkpt lat="54.353426" lon="-3.110196"><ele>218</ele><time>2020-06-12T13:32:46Z</time><name>PT12527</name></trkpt>
<trkpt lat="54.353420" lon="-3.110184"><ele>218</ele><time>2020-06-12T13:32:47Z</time><name>PT12528</name></trkpt>
<trkpt lat="54.353418" lon="-3.110186"><ele>216</ele><time>2020-06-12T13:32:48Z</time><name>PT12529</name></trkpt>
<trkpt lat="54.353411" lon="-3.110183"><ele>216</ele><time>2020-06-12T13:32:49Z</time><name>PT12530</name></trkpt>
<trkpt lat="54.353406" lon="-3.110177"><ele>216</ele><time>2020-06-12T13:32:50Z</time><name>PT12531</name></trkpt>
<trkpt lat="54.353399" lon="-3.110170"><ele>217</ele><time>2020-06-12T13:32:51Z</time><name>PT12532</name></trkpt>
<trkpt lat="54.353393" lon="-3.110161"><ele>216</ele><time>2020-06-12T13:32:52Z</time><name>PT12533</name></trkpt>
<trkpt lat="54.353389" lon="-3.110152"><ele>216</ele><time>2020-06-12T13:32:53Z</time><name>PT12534</name></trkpt>
<trkpt lat="54.353384" lon="-3.110130"><ele>216</ele><time>2020-06-12T13:32:54Z</time><name>PT12535</name></trkpt>
<trkpt lat="54.353379" lon="-3.110122"><ele>215</ele><time>2020-06-12T13:32:55Z</time><name>PT12536</name></trkpt>
<trkpt lat="54.353375" lon="-3.110114"><ele>215</ele><time>2020-06-12T13:32:56Z</time><name>PT12537</name></trkpt>
<trkpt lat="54.353369" lon="-3.110105"><ele>216</ele><time>2020-06-12T13:32:57Z</time><name>PT12538</name></trkpt>
<trkpt lat="54.353365" lon="-3.110097"><ele>215</ele><time>2020-06-12T13:32:58Z</time><name>PT12539</name></trkpt>
<trkpt lat="54.353360" lon="-3.110089"><ele>216</ele><time>2020-06-12T13:32:59Z</time><name>PT12540</name></trkpt>
<trkpt lat="54.353353" lon="-3.110077"><ele>216</ele><time>2020-06-12T13:33:00Z</time><name>PT12541</name></trkpt>
<trkpt lat="54.353345" lon="-3.110066"><ele>215</ele><time>2020-06-12T13:33:01Z</time><name>PT12542</name></trkpt>
<trkpt lat="54.353340" lon="-3.110056"><ele>215</ele><time>2020-06-12T13:33:02Z</time><name>PT12543</name></trkpt>
<trkpt lat="54.353338" lon="-3.110044"><ele>215</ele><time>2020-06-12T13:33:03Z</time><name>PT12544</name></trkpt>
<trkpt lat="54.353332" lon="-3.110032"><ele>215</ele><time>2020-06-12T13:33:04Z</time><name>PT12545</name></trkpt>
<trkpt lat="54.353326" lon="-3.110021"><ele>215</ele><time>2020-06-12T13:33:05Z</time><name>PT12546</name></trkpt>
<trkpt lat="54.353320" lon="-3.110017"><ele>214</ele><time>2020-06-12T13:33:06Z</time><name>PT12547</name></trkpt>
<trkpt lat="54.353315" lon="-3.110013"><ele>214</ele><time>2020-06-12T13:33:07Z</time><name>PT12548</name></trkpt>
<trkpt lat="54.353305" lon="-3.110004"><ele>215</ele><time>2020-06-12T13:33:08Z</time><name>PT12549</name></trkpt>
<trkpt lat="54.353298" lon="-3.109998"><ele>214</ele><time>2020-06-12T13:33:09Z</time><name>PT12550</name></trkpt>
<trkpt lat="54.353289" lon="-3.109990"><ele>215</ele><time>2020-06-12T13:33:10Z</time><name>PT12551</name></trkpt>
<trkpt lat="54.353280" lon="-3.109980"><ele>215</ele><time>2020-06-12T13:33:11Z</time><name>PT12552</name></trkpt>
<trkpt lat="54.353276" lon="-3.109971"><ele>214</ele><time>2020-06-12T13:33:12Z</time><name>PT12553</name></trkpt>
<trkpt lat="54.353270" lon="-3.109958"><ele>214</ele><time>2020-06-12T13:33:13Z</time><name>PT12554</name></trkpt>
<trkpt lat="54.353263" lon="-3.109944"><ele>214</ele><time>2020-06-12T13:33:14Z</time><name>PT12555</name></trkpt>
<trkpt lat="54.353258" lon="-3.109931"><ele>214</ele><time>2020-06-12T13:33:15Z</time><name>PT12556</name></trkpt>
<trkpt lat="54.353251" lon="-3.109919"><ele>214</ele><time>2020-06-12T13:33:16Z</time><name>PT12557</name></trkpt>
<trkpt lat="54.353245" lon="-3.109907"><ele>214</ele><time>2020-06-12T13:33:17Z</time><name>PT12558</name></trkpt>
<trkpt lat="54.353243" lon="-3.109896"><ele>213</ele><time>2020-06-12T13:33:18Z</time><name>PT12559</name></trkpt>
<trkpt lat="54.353238" lon="-3.109882"><ele>214</ele><time>2020-06-12T13:33:19Z</time><name>PT12560</name></trkpt>
<trkpt lat="54.353232" lon="-3.109868"><ele>214</ele><time>2020-06-12T13:33:20Z</time><name>PT12561</name></trkpt>
<trkpt lat="54.353227" lon="-3.109854"><ele>213</ele><time>2020-06-12T13:33:21Z</time><name>PT12562</name></trkpt>
<trkpt lat="54.353226" lon="-3.109844"><ele>213</ele><time>2020-06-12T13:33:22Z</time><name>PT12563</name></trkpt>
<trkpt lat="54.353225" lon="-3.109835"><ele>212</ele><time>2020-06-12T13:33:23Z</time><name>PT12564</name></trkpt>
<trkpt lat="54.353221" lon="-3.109828"><ele>211</ele><time>2020-06-12T13:33:24Z</time><name>PT12565</name></trkpt>
<trkpt lat="54.353213" lon="-3.109812"><ele>211</ele><time>2020-06-12T13:33:25Z</time><name>PT12566</name></trkpt>
<trkpt lat="54.353206" lon="-3.109797"><ele>211</ele><time>2020-06-12T13:33:26Z</time><name>PT12567</name></trkpt>
<trkpt lat="54.353202" lon="-3.109784"><ele>211</ele><time>2020-06-12T13:33:27Z</time><name>PT12568</name></trkpt>
<trkpt lat="54.353198" lon="-3.109773"><ele>211</ele><time>2020-06-12T13:33:28Z</time><name>PT12569</name></trkpt>
<trkpt lat="54.353198" lon="-3.109762"><ele>210</ele><time>2020-06-12T13:33:29Z</time><name>PT12570</name></trkpt>
<trkpt lat="54.353197" lon="-3.109753"><ele>210</ele><time>2020-06-12T13:33:30Z</time><name>PT12571</name></trkpt>
<trkpt lat="54.353195" lon="-3.109746"><ele>210</ele><time>2020-06-12T13:33:31Z</time><name>PT12572</name></trkpt>
<trkpt lat="54.353190" lon="-3.109727"><ele>210</ele><time>2020-06-12T13:33:32Z</time><name>PT12573</name></trkpt>
<trkpt lat="54.353188" lon="-3.109713"><ele>209</ele><time>2020-06-12T13:33:33Z</time><name>PT12574</name></trkpt>
<trkpt lat="54.353185" lon="-3.109697"><ele>209</ele><time>2020-06-12T13:33:34Z</time><name>PT12575</name></trkpt>
<trkpt lat="54.353180" lon="-3.109669"><ele>210</ele><time>2020-06-12T13:33:35Z</time><name>PT12576</name></trkpt>
<trkpt lat="54.353182" lon="-3.109656"><ele>209</ele><time>2020-06-12T13:33:36Z</time><name>PT12577</name></trkpt>
<trkpt lat="54.353183" lon="-3.109646"><ele>208</ele><time>2020-06-12T13:33:37Z</time><name>PT12578</name></trkpt>
<trkpt lat="54.353181" lon="-3.109628"><ele>207</ele><time>2020-06-12T13:33:38Z</time><name>PT12579</name></trkpt>
<trkpt lat="54.353180" lon="-3.109616"><ele>207</ele><time>2020-06-12T13:33:39Z</time><name>PT12580</name></trkpt>
<trkpt lat="54.353178" lon="-3.109600"><ele>207</ele><time>2020-06-12T13:33:40Z</time><name>PT12581</name></trkpt>
<trkpt lat="54.353178" lon="-3.109584"><ele>206</ele><time>2020-06-12T13:33:41Z</time><name>PT12582</name></trkpt>
<trkpt lat="54.353179" lon="-3.109571"><ele>206</ele><time>2020-06-12T13:33:42Z</time><name>PT12583</name></trkpt>
<trkpt lat="54.353177" lon="-3.109550"><ele>206</ele><time>2020-06-12T13:33:43Z</time><name>PT12584</name></trkpt>
<trkpt lat="54.353174" lon="-3.109531"><ele>206</ele><time>2020-06-12T13:33:44Z</time><name>PT12585</name></trkpt>
<trkpt lat="54.353173" lon="-3.109515"><ele>205</ele><time>2020-06-12T13:33:45Z</time><name>PT12586</name></trkpt>
<trkpt lat="54.353172" lon="-3.109497"><ele>205</ele><time>2020-06-12T13:33:46Z</time><name>PT12587</name></trkpt>
<trkpt lat="54.353170" lon="-3.109482"><ele>205</ele><time>2020-06-12T13:33:47Z</time><name>PT12588</name></trkpt>
<trkpt lat="54.353169" lon="-3.109472"><ele>204</ele><time>2020-06-12T13:33:48Z</time><name>PT12589</name></trkpt>
<trkpt lat="54.353165" lon="-3.109454"><ele>204</ele><time>2020-06-12T13:33:49Z</time><name>PT12590</name></trkpt>
<trkpt lat="54.353163" lon="-3.109433"><ele>204</ele><time>2020-06-12T13:33:50Z</time><name>PT12591</name></trkpt>
<trkpt lat="54.353159" lon="-3.109416"><ele>204</ele><time>2020-06-12T13:33:51Z</time><name>PT12592</name></trkpt>
<trkpt lat="54.353156" lon="-3.109405"><ele>204</ele><time>2020-06-12T13:33:52Z</time><name>PT12593</name></trkpt>
<trkpt lat="54.353152" lon="-3.109385"><ele>204</ele><time>2020-06-12T13:33:53Z</time><name>PT12594</name></trkpt>
<trkpt lat="54.353149" lon="-3.109364"><ele>204</ele><time>2020-06-12T13:33:54Z</time><name>PT12595</name></trkpt>
<trkpt lat="54.353147" lon="-3.109345"><ele>204</ele><time>2020-06-12T13:33:55Z</time><name>PT12596</name></trkpt>
<trkpt lat="54.353144" lon="-3.109325"><ele>204</ele><time>2020-06-12T13:33:56Z</time><name>PT12597</name></trkpt>
<trkpt lat="54.353140" lon="-3.109308"><ele>203</ele><time>2020-06-12T13:33:57Z</time><name>PT12598</name></trkpt>
<trkpt lat="54.353139" lon="-3.109291"><ele>203</ele><time>2020-06-12T13:33:58Z</time><name>PT12599</name></trkpt>
<trkpt lat="54.353137" lon="-3.109275"><ele>202</ele><time>2020-06-12T13:33:59Z</time><name>PT12600</name></trkpt>
<trkpt lat="54.353136" lon="-3.109255"><ele>203</ele><time>2020-06-12T13:34:00Z</time><name>PT12601</name></trkpt>
<trkpt lat="54.353133" lon="-3.109230"><ele>203</ele><time>2020-06-12T13:34:01Z</time><name>PT12602</name></trkpt>
<trkpt lat="54.353131" lon="-3.109208"><ele>203</ele><time>2020-06-12T13:34:02Z</time><name>PT12603</name></trkpt>
<trkpt lat="54.353126" lon="-3.109188"><ele>203</ele><time>2020-06-12T13:34:03Z</time><name>PT12604</name></trkpt>
<trkpt lat="54.353123" lon="-3.109170"><ele>203</ele><time>2020-06-12T13:34:04Z</time><name>PT12605</name></trkpt>
<trkpt lat="54.353118" lon="-3.109153"><ele>204</ele><time>2020-06-12T13:34:05Z</time><name>PT12606</name></trkpt>
<trkpt lat="54.353120" lon="-3.109142"><ele>202</ele><time>2020-06-12T13:34:06Z</time><name>PT12607</name></trkpt>
<trkpt lat="54.353114" lon="-3.109122"><ele>204</ele><time>2020-06-12T13:34:07Z</time><name>PT12608</name></trkpt>
<trkpt lat="54.353114" lon="-3.109117"><ele>203</ele><time>2020-06-12T13:34:08Z</time><name>PT12609</name></trkpt>
<trkpt lat="54.353111" lon="-3.109098"><ele>203</ele><time>2020-06-12T13:34:09Z</time><name>PT12610</name></trkpt>
<trkpt lat="54.353106" lon="-3.109078"><ele>203</ele><time>2020-06-12T13:34:10Z</time><name>PT12611</name></trkpt>
<trkpt lat="54.353106" lon="-3.109063"><ele>203</ele><time>2020-06-12T13:34:11Z</time><name>PT12612</name></trkpt>
<trkpt lat="54.353100" lon="-3.109041"><ele>204</ele><time>2020-06-12T13:34:12Z</time><name>PT12613</name></trkpt>
<trkpt lat="54.353095" lon="-3.109021"><ele>205</ele><time>2020-06-12T13:34:13Z</time><name>PT12614</name></trkpt>
<trkpt lat="54.353092" lon="-3.109002"><ele>205</ele><time>2020-06-12T13:34:14Z</time><name>PT12615</name></trkpt>
<trkpt lat="54.353090" lon="-3.108984"><ele>205</ele><time>2020-06-12T13:34:15Z</time><name>PT12616</name></trkpt>
<trkpt lat="54.353087" lon="-3.108968"><ele>205</ele><time>2020-06-12T13:34:16Z</time><name>PT12617</name></trkpt>
<trkpt lat="54.353085" lon="-3.108950"><ele>205</ele><time>2020-06-12T13:34:17Z</time><name>PT12618</name></trkpt>
<trkpt lat="54.353083" lon="-3.108937"><ele>205</ele><time>2020-06-12T13:34:18Z</time><name>PT12619</name></trkpt>
<trkpt lat="54.353083" lon="-3.108917"><ele>204</ele><time>2020-06-12T13:34:19Z</time><name>PT12620</name></trkpt>
<trkpt lat="54.353082" lon="-3.108899"><ele>204</ele><time>2020-06-12T13:34:20Z</time><name>PT12621</name></trkpt>
<trkpt lat="54.353080" lon="-3.108878"><ele>204</ele><time>2020-06-12T13:34:21Z</time><name>PT12622</name></trkpt>
<trkpt lat="54.353075" lon="-3.108859"><ele>204</ele><time>2020-06-12T13:34:22Z</time><name>PT12623</name></trkpt>
<trkpt lat="54.353073" lon="-3.108841"><ele>204</ele><time>2020-06-12T13:34:23Z</time><name>PT12624</name></trkpt>
<trkpt lat="54.353068" lon="-3.108824"><ele>204</ele><time>2020-06-12T13:34:24Z</time><name>PT12625</name></trkpt>
<trkpt lat="54.353064" lon="-3.108811"><ele>203</ele><time>2020-06-12T13:34:25Z</time><name>PT12626</name></trkpt>
<trkpt lat="54.353059" lon="-3.108797"><ele>203</ele><time>2020-06-12T13:34:26Z</time><name>PT12627</name></trkpt>
<trkpt lat="54.353056" lon="-3.108784"><ele>202</ele><time>2020-06-12T13:34:27Z</time><name>PT12628</name></trkpt>
<trkpt lat="54.353052" lon="-3.108773"><ele>202</ele><time>2020-06-12T13:34:28Z</time><name>PT12629</name></trkpt>
<trkpt lat="54.353045" lon="-3.108753"><ele>202</ele><time>2020-06-12T13:34:29Z</time><name>PT12630</name></trkpt>
<trkpt lat="54.353044" lon="-3.108740"><ele>202</ele><time>2020-06-12T13:34:30Z</time><name>PT12631</name></trkpt>
<trkpt lat="54.353043" lon="-3.108724"><ele>202</ele><time>2020-06-12T13:34:31Z</time><name>PT12632</name></trkpt>
<trkpt lat="54.353040" lon="-3.108704"><ele>202</ele><time>2020-06-12T13:34:32Z</time><name>PT12633</name></trkpt>
<trkpt lat="54.353038" lon="-3.108685"><ele>202</ele><time>2020-06-12T13:34:33Z</time><name>PT12634</name></trkpt>
<trkpt lat="54.353033" lon="-3.108662"><ele>202</ele><time>2020-06-12T13:34:34Z</time><name>PT12635</name></trkpt>
<trkpt lat="54.353029" lon="-3.108639"><ele>202</ele><time>2020-06-12T13:34:35Z</time><name>PT12636</name></trkpt>
<trkpt lat="54.353026" lon="-3.108623"><ele>202</ele><time>2020-06-12T13:34:36Z</time><name>PT12637</name></trkpt>
<trkpt lat="54.353021" lon="-3.108599"><ele>202</ele><time>2020-06-12T13:34:37Z</time><name>PT12638</name></trkpt>
<trkpt lat="54.353017" lon="-3.108573"><ele>202</ele><time>2020-06-12T13:34:38Z</time><name>PT12639</name></trkpt>
<trkpt lat="54.353014" lon="-3.108550"><ele>202</ele><time>2020-06-12T13:34:39Z</time><name>PT12640</name></trkpt>
<trkpt lat="54.353007" lon="-3.108526"><ele>203</ele><time>2020-06-12T13:34:40Z</time><name>PT12641</name></trkpt>
<trkpt lat="54.353001" lon="-3.108508"><ele>202</ele><time>2020-06-12T13:34:41Z</time><name>PT12642</name></trkpt>
<trkpt lat="54.352998" lon="-3.108493"><ele>202</ele><time>2020-06-12T13:34:42Z</time><name>PT12643</name></trkpt>
<trkpt lat="54.353000" lon="-3.108481"><ele>202</ele><time>2020-06-12T13:34:43Z</time><name>PT12644</name></trkpt>
<trkpt lat="54.352995" lon="-3.108462"><ele>202</ele><time>2020-06-12T13:34:44Z</time><name>PT12645</name></trkpt>
<trkpt lat="54.352991" lon="-3.108450"><ele>202</ele><time>2020-06-12T13:34:45Z</time><name>PT12646</name></trkpt>
<trkpt lat="54.352988" lon="-3.108429"><ele>202</ele><time>2020-06-12T13:34:46Z</time><name>PT12647</name></trkpt>
<trkpt lat="54.352986" lon="-3.108408"><ele>203</ele><time>2020-06-12T13:34:47Z</time><name>PT12648</name></trkpt>
<trkpt lat="54.352982" lon="-3.108394"><ele>202</ele><time>2020-06-12T13:34:48Z</time><name>PT12649</name></trkpt>
<trkpt lat="54.352979" lon="-3.108382"><ele>202</ele><time>2020-06-12T13:34:49Z</time><name>PT12650</name></trkpt>
<trkpt lat="54.352975" lon="-3.108368"><ele>202</ele><time>2020-06-12T13:34:50Z</time><name>PT12651</name></trkpt>
<trkpt lat="54.352972" lon="-3.108350"><ele>202</ele><time>2020-06-12T13:34:51Z</time><name>PT12652</name></trkpt>
<trkpt lat="54.352970" lon="-3.108333"><ele>202</ele><time>2020-06-12T13:34:52Z</time><name>PT12653</name></trkpt>
<trkpt lat="54.352970" lon="-3.108317"><ele>201</ele><time>2020-06-12T13:34:53Z</time><name>PT12654</name></trkpt>
<trkpt lat="54.352970" lon="-3.108300"><ele>201</ele><time>2020-06-12T13:34:54Z</time><name>PT12655</name></trkpt>
<trkpt lat="54.352972" lon="-3.108285"><ele>202</ele><time>2020-06-12T13:34:55Z</time><name>PT12656</name></trkpt>
<trkpt lat="54.352973" lon="-3.108267"><ele>202</ele><time>2020-06-12T13:34:56Z</time><name>PT12657</name></trkpt>
<trkpt lat="54.352972" lon="-3.108252"><ele>201</ele><time>2020-06-12T13:34:57Z</time><name>PT12658</name></trkpt>
<trkpt lat="54.352970" lon="-3.108236"><ele>202</ele><time>2020-06-12T13:34:58Z</time><name>PT12659</name></trkpt>
<trkpt lat="54.352970" lon="-3.108216"><ele>202</ele><time>2020-06-12T13:34:59Z</time><name>PT12660</name></trkpt>
<trkpt lat="54.352967" lon="-3.108190"><ele>202</ele><time>2020-06-12T13:35:00Z</time><name>PT12661</name></trkpt>
<trkpt lat="54.352968" lon="-3.108171"><ele>202</ele><time>2020-06-12T13:35:01Z</time><name>PT12662</name></trkpt>
<trkpt lat="54.352968" lon="-3.108153"><ele>202</ele><time>2020-06-12T13:35:02Z</time><name>PT12663</name></trkpt>
<trkpt lat="54.352968" lon="-3.108133"><ele>202</ele><time>2020-06-12T13:35:03Z</time><name>PT12664</name></trkpt>
<trkpt lat="54.352966" lon="-3.108104"><ele>203</ele><time>2020-06-12T13:35:04Z</time><name>PT12665</name></trkpt>
<trkpt lat="54.352966" lon="-3.108083"><ele>203</ele><time>2020-06-12T13:35:05Z</time><name>PT12666</name></trkpt>
<trkpt lat="54.352963" lon="-3.108058"><ele>203</ele><time>2020-06-12T13:35:06Z</time><name>PT12667</name></trkpt>
<trkpt lat="54.352960" lon="-3.108042"><ele>203</ele><time>2020-06-12T13:35:07Z</time><name>PT12668</name></trkpt>
<trkpt lat="54.352958" lon="-3.108022"><ele>203</ele><time>2020-06-12T13:35:08Z</time><name>PT12669</name></trkpt>
<trkpt lat="54.352957" lon="-3.108006"><ele>203</ele><time>2020-06-12T13:35:09Z</time><name>PT12670</name></trkpt>
<trkpt lat="54.352954" lon="-3.108003"><ele>202</ele><time>2020-06-12T13:35:10Z</time><name>PT12671</name></trkpt>
<trkpt lat="54.352945" lon="-3.107986"><ele>202</ele><time>2020-06-12T13:35:11Z</time><name>PT12672</name></trkpt>
<trkpt lat="54.352940" lon="-3.107974"><ele>202</ele><time>2020-06-12T13:35:12Z</time><name>PT12673</name></trkpt>
<trkpt lat="54.352939" lon="-3.107968"><ele>202</ele><time>2020-06-12T13:35:13Z</time><name>PT12674</name></trkpt>
<trkpt lat="54.352940" lon="-3.107960"><ele>202</ele><time>2020-06-12T13:35:14Z</time><name>PT12675</name></trkpt>
<trkpt lat="54.352940" lon="-3.107944"><ele>202</ele><time>2020-06-12T13:35:15Z</time><name>PT12676</name></trkpt>
<trkpt lat="54.352938" lon="-3.107930"><ele>202</ele><time>2020-06-12T13:35:16Z</time><name>PT12677</name></trkpt>
<trkpt lat="54.352933" lon="-3.107915"><ele>202</ele><time>2020-06-12T13:35:17Z</time><name>PT12678</name></trkpt>
<trkpt lat="54.352928" lon="-3.107895"><ele>202</ele><time>2020-06-12T13:35:18Z</time><name>PT12679</name></trkpt>
<trkpt lat="54.352924" lon="-3.107876"><ele>202</ele><time>2020-06-12T13:35:19Z</time><name>PT12680</name></trkpt>
<trkpt lat="54.352921" lon="-3.107854"><ele>202</ele><time>2020-06-12T13:35:20Z</time><name>PT12681</name></trkpt>
<trkpt lat="54.352920" lon="-3.107833"><ele>202</ele><time>2020-06-12T13:35:21Z</time><name>PT12682</name></trkpt>
<trkpt lat="54.352920" lon="-3.107809"><ele>202</ele><time>2020-06-12T13:35:22Z</time><name>PT12683</name></trkpt>
<trkpt lat="54.352920" lon="-3.107791"><ele>202</ele><time>2020-06-12T13:35:23Z</time><name>PT12684</name></trkpt>
<trkpt lat="54.352921" lon="-3.107772"><ele>201</ele><time>2020-06-12T13:35:24Z</time><name>PT12685</name></trkpt>
<trkpt lat="54.352922" lon="-3.107749"><ele>201</ele><time>2020-06-12T13:35:25Z</time><name>PT12686</name></trkpt>
<trkpt lat="54.352921" lon="-3.107733"><ele>201</ele><time>2020-06-12T13:35:26Z</time><name>PT12687</name></trkpt>
<trkpt lat="54.352921" lon="-3.107717"><ele>201</ele><time>2020-06-12T13:35:27Z</time><name>PT12688</name></trkpt>
<trkpt lat="54.352922" lon="-3.107702"><ele>200</ele><time>2020-06-12T13:35:28Z</time><name>PT12689</name></trkpt>
<trkpt lat="54.352918" lon="-3.107683"><ele>200</ele><time>2020-06-12T13:35:29Z</time><name>PT12690</name></trkpt>
<trkpt lat="54.352917" lon="-3.107667"><ele>200</ele><time>2020-06-12T13:35:30Z</time><name>PT12691</name></trkpt>
<trkpt lat="54.352916" lon="-3.107653"><ele>199</ele><time>2020-06-12T13:35:31Z</time><name>PT12692</name></trkpt>
<trkpt lat="54.352916" lon="-3.107641"><ele>199</ele><time>2020-06-12T13:35:32Z</time><name>PT12693</name></trkpt>
<trkpt lat="54.352918" lon="-3.107622"><ele>199</ele><time>2020-06-12T13:35:33Z</time><name>PT12694</name></trkpt>
<trkpt lat="54.352919" lon="-3.107602"><ele>199</ele><time>2020-06-12T13:35:34Z</time><name>PT12695</name></trkpt>
<trkpt lat="54.352921" lon="-3.107584"><ele>199</ele><time>2020-06-12T13:35:35Z</time><name>PT12696</name></trkpt>
<trkpt lat="54.352923" lon="-3.107567"><ele>198</ele><time>2020-06-12T13:35:36Z</time><name>PT12697</name></trkpt>
<trkpt lat="54.352925" lon="-3.107549"><ele>198</ele><time>2020-06-12T13:35:37Z</time><name>PT12698</name></trkpt>
<trkpt lat="54.352924" lon="-3.107536"><ele>198</ele><time>2020-06-12T13:35:38Z</time><name>PT12699</name></trkpt>
<trkpt lat="54.352922" lon="-3.107535"><ele>197</ele><time>2020-06-12T13:35:39Z</time><name>PT12700</name></trkpt>
<trkpt lat="54.352920" lon="-3.107530"><ele>197</ele><time>2020-06-12T13:35:40Z</time><name>PT12701</name></trkpt>
<trkpt lat="54.352921" lon="-3.107521"><ele>197</ele><time>2020-06-12T13:35:41Z</time><name>PT12702</name></trkpt>
<trkpt lat="54.352924" lon="-3.107505"><ele>197</ele><time>2020-06-12T13:35:42Z</time><name>PT12703</name></trkpt>
<trkpt lat="54.352927" lon="-3.107486"><ele>197</ele><time>2020-06-12T13:35:43Z</time><name>PT12704</name></trkpt>
<trkpt lat="54.352931" lon="-3.107465"><ele>197</ele><time>2020-06-12T13:35:44Z</time><name>PT12705</name></trkpt>
<trkpt lat="54.352934" lon="-3.107449"><ele>197</ele><time>2020-06-12T13:35:45Z</time><name>PT12706</name></trkpt>
<trkpt lat="54.352940" lon="-3.107429"><ele>197</ele><time>2020-06-12T13:35:46Z</time><name>PT12707</name></trkpt>
<trkpt lat="54.352945" lon="-3.107409"><ele>197</ele><time>2020-06-12T13:35:47Z</time><name>PT12708</name></trkpt>
<trkpt lat="54.352948" lon="-3.107390"><ele>198</ele><time>2020-06-12T13:35:48Z</time><name>PT12709</name></trkpt>
<trkpt lat="54.352953" lon="-3.107373"><ele>197</ele><time>2020-06-12T13:35:49Z</time><name>PT12710</name></trkpt>
<trkpt lat="54.352957" lon="-3.107354"><ele>198</ele><time>2020-06-12T13:35:50Z</time><name>PT12711</name></trkpt>
<trkpt lat="54.352961" lon="-3.107337"><ele>197</ele><time>2020-06-12T13:35:51Z</time><name>PT12712</name></trkpt>
<trkpt lat="54.352966" lon="-3.107319"><ele>197</ele><time>2020-06-12T13:35:52Z</time><name>PT12713</name></trkpt>
<trkpt lat="54.352971" lon="-3.107302"><ele>197</ele><time>2020-06-12T13:35:53Z</time><name>PT12714</name></trkpt>
<trkpt lat="54.352976" lon="-3.107278"><ele>197</ele><time>2020-06-12T13:35:54Z</time><name>PT12715</name></trkpt>
<trkpt lat="54.352978" lon="-3.107258"><ele>197</ele><time>2020-06-12T13:35:55Z</time><name>PT12716</name></trkpt>
<trkpt lat="54.352982" lon="-3.107240"><ele>196</ele><time>2020-06-12T13:35:56Z</time><name>PT12717</name></trkpt>
<trkpt lat="54.352983" lon="-3.107225"><ele>196</ele><time>2020-06-12T13:35:57Z</time><name>PT12718</name></trkpt>
<trkpt lat="54.352986" lon="-3.107210"><ele>196</ele><time>2020-06-12T13:35:58Z</time><name>PT12719</name></trkpt>
<trkpt lat="54.352987" lon="-3.107198"><ele>196</ele><time>2020-06-12T13:35:59Z</time><name>PT12720</name></trkpt>
<trkpt lat="54.352988" lon="-3.107187"><ele>196</ele><time>2020-06-12T13:36:00Z</time><name>PT12721</name></trkpt>
<trkpt lat="54.352988" lon="-3.107176"><ele>196</ele><time>2020-06-12T13:36:01Z</time><name>PT12722</name></trkpt>
<trkpt lat="54.352986" lon="-3.107165"><ele>197</ele><time>2020-06-12T13:36:02Z</time><name>PT12723</name></trkpt>
<trkpt lat="54.352988" lon="-3.107161"><ele>197</ele><time>2020-06-12T13:36:03Z</time><name>PT12724</name></trkpt>
<trkpt lat="54.352991" lon="-3.107154"><ele>197</ele><time>2020-06-12T13:36:04Z</time><name>PT12725</name></trkpt>
<trkpt lat="54.352994" lon="-3.107146"><ele>197</ele><time>2020-06-12T13:36:05Z</time><name>PT12726</name></trkpt>
<trkpt lat="54.352994" lon="-3.107136"><ele>197</ele><time>2020-06-12T13:36:06Z</time><name>PT12727</name></trkpt>
<trkpt lat="54.352995" lon="-3.107130"><ele>197</ele><time>2020-06-12T13:36:07Z</time><name>PT12728</name></trkpt>
<trkpt lat="54.352995" lon="-3.107124"><ele>197</ele><time>2020-06-12T13:36:08Z</time><name>PT12729</name></trkpt>
<trkpt lat="54.352995" lon="-3.107116"><ele>197</ele><time>2020-06-12T13:36:09Z</time><name>PT12730</name></trkpt>
<trkpt lat="54.352995" lon="-3.107109"><ele>197</ele><time>2020-06-12T13:36:10Z</time><name>PT12731</name></trkpt>
<trkpt lat="54.352995" lon="-3.107096"><ele>197</ele><time>2020-06-12T13:36:11Z</time><name>PT12732</name></trkpt>
<trkpt lat="54.352996" lon="-3.107084"><ele>197</ele><time>2020-06-12T13:36:12Z</time><name>PT12733</name></trkpt>
<trkpt lat="54.352998" lon="-3.107077"><ele>196</ele><time>2020-06-12T13:36:13Z</time><name>PT12734</name></trkpt>
<trkpt lat="54.353002" lon="-3.107066"><ele>195</ele><time>2020-06-12T13:36:14Z</time><name>PT12735</name></trkpt>
<trkpt lat="54.353003" lon="-3.107047"><ele>195</ele><time>2020-06-12T13:36:15Z</time><name>PT12736</name></trkpt>
<trkpt lat="54.353004" lon="-3.107038"><ele>195</ele><time>2020-06-12T13:36:16Z</time><name>PT12737</name></trkpt>
<trkpt lat="54.353007" lon="-3.107025"><ele>195</ele><time>2020-06-12T13:36:17Z</time><name>PT12738</name></trkpt>
<trkpt lat="54.353006" lon="-3.107008"><ele>195</ele><time>2020-06-12T13:36:18Z</time><name>PT12739</name></trkpt>
<trkpt lat="54.353006" lon="-3.106992"><ele>195</ele><time>2020-06-12T13:36:19Z</time><name>PT12740</name></trkpt>
<trkpt lat="54.353008" lon="-3.106978"><ele>194</ele><time>2020-06-12T13:36:20Z</time><name>PT12741</name></trkpt>
<trkpt lat="54.353006" lon="-3.106959"><ele>195</ele><time>2020-06-12T13:36:21Z</time><name>PT12742</name></trkpt>
<trkpt lat="54.353004" lon="-3.106946"><ele>194</ele><time>2020-06-12T13:36:22Z</time><name>PT12743</name></trkpt>
<trkpt lat="54.352999" lon="-3.106928"><ele>193</ele><time>2020-06-12T13:36:23Z</time><name>PT12744</name></trkpt>
<trkpt lat="54.353000" lon="-3.106909"><ele>194</ele><time>2020-06-12T13:36:24Z</time><name>PT12745</name></trkpt>
<trkpt lat="54.353002" lon="-3.106889"><ele>194</ele><time>2020-06-12T13:36:25Z</time><name>PT12746</name></trkpt>
<trkpt lat="54.353000" lon="-3.106871"><ele>193</ele><time>2020-06-12T13:36:26Z</time><name>PT12747</name></trkpt>
<trkpt lat="54.352994" lon="-3.106851"><ele>193</ele><time>2020-06-12T13:36:27Z</time><name>PT12748</name></trkpt>
<trkpt lat="54.352987" lon="-3.106833"><ele>194</ele><time>2020-06-12T13:36:28Z</time><name>PT12749</name></trkpt>
<trkpt lat="54.352983" lon="-3.106817"><ele>194</ele><time>2020-06-12T13:36:29Z</time><name>PT12750</name></trkpt>
<trkpt lat="54.352974" lon="-3.106791"><ele>195</ele><time>2020-06-12T13:36:30Z</time><name>PT12751</name></trkpt>
<trkpt lat="54.352967" lon="-3.106777"><ele>195</ele><time>2020-06-12T13:36:31Z</time><name>PT12752</name></trkpt>
<trkpt lat="54.352960" lon="-3.106759"><ele>195</ele><time>2020-06-12T13:36:32Z</time><name>PT12753</name></trkpt>
<trkpt lat="54.352953" lon="-3.106740"><ele>195</ele><time>2020-06-12T13:36:33Z</time><name>PT12754</name></trkpt>
<trkpt lat="54.352949" lon="-3.106725"><ele>194</ele><time>2020-06-12T13:36:34Z</time><name>PT12755</name></trkpt>
<trkpt lat="54.352944" lon="-3.106703"><ele>194</ele><time>2020-06-12T13:36:35Z</time><name>PT12756</name></trkpt>
<trkpt lat="54.352938" lon="-3.106689"><ele>194</ele><time>2020-06-12T13:36:36Z</time><name>PT12757</name></trkpt>
<trkpt lat="54.352933" lon="-3.106673"><ele>194</ele><time>2020-06-12T13:36:37Z</time><name>PT12758</name></trkpt>
<trkpt lat="54.352927" lon="-3.106658"><ele>193</ele><time>2020-06-12T13:36:38Z</time><name>PT12759</name></trkpt>
<trkpt lat="54.352922" lon="-3.106636"><ele>193</ele><time>2020-06-12T13:36:39Z</time><name>PT12760</name></trkpt>
<trkpt lat="54.352918" lon="-3.106616"><ele>193</ele><time>2020-06-12T13:36:40Z</time><name>PT12761</name></trkpt>
<trkpt lat="54.352913" lon="-3.106601"><ele>193</ele><time>2020-06-12T13:36:41Z</time><name>PT12762</name></trkpt>
<trkpt lat="54.352905" lon="-3.106585"><ele>193</ele><time>2020-06-12T13:36:42Z</time><name>PT12763</name></trkpt>
<trkpt lat="54.352900" lon="-3.106569"><ele>193</ele><time>2020-06-12T13:36:43Z</time><name>PT12764</name></trkpt>
<trkpt lat="54.352897" lon="-3.106551"><ele>192</ele><time>2020-06-12T13:36:44Z</time><name>PT12765</name></trkpt>
<trkpt lat="54.352895" lon="-3.106534"><ele>191</ele><time>2020-06-12T13:36:45Z</time><name>PT12766</name></trkpt>
<trkpt lat="54.352888" lon="-3.106518"><ele>191</ele><time>2020-06-12T13:36:46Z</time><name>PT12767</name></trkpt>
<trkpt lat="54.352881" lon="-3.106501"><ele>191</ele><time>2020-06-12T13:36:47Z</time><name>PT12768</name></trkpt>
<trkpt lat="54.352875" lon="-3.106487"><ele>191</ele><time>2020-06-12T13:36:48Z</time><name>PT12769</name></trkpt>
<trkpt lat="54.352868" lon="-3.106469"><ele>191</ele><time>2020-06-12T13:36:49Z</time><name>PT12770</name></trkpt>
<trkpt lat="54.352858" lon="-3.106448"><ele>192</ele><time>2020-06-12T13:36:50Z</time><name>PT12771</name></trkpt>
<trkpt lat="54.352851" lon="-3.106433"><ele>192</ele><time>2020-06-12T13:36:51Z</time><name>PT12772</name></trkpt>
<trkpt lat="54.352841" lon="-3.106417"><ele>192</ele><time>2020-06-12T13:36:52Z</time><name>PT12773</name></trkpt>
<trkpt lat="54.352836" lon="-3.106403"><ele>192</ele><time>2020-06-12T13:36:53Z</time><name>PT12774</name></trkpt>
<trkpt lat="54.352830" lon="-3.106385"><ele>193</ele><time>2020-06-12T13:36:54Z</time><name>PT12775</name></trkpt>
<trkpt lat="54.352827" lon="-3.106376"><ele>192</ele><time>2020-06-12T13:36:55Z</time><name>PT12776</name></trkpt>
<trkpt lat="54.352823" lon="-3.106363"><ele>192</ele><time>2020-06-12T13:36:56Z</time><name>PT12777</name></trkpt>
<trkpt lat="54.352822" lon="-3.106353"><ele>192</ele><time>2020-06-12T13:36:57Z</time><name>PT12778</name></trkpt>
<trkpt lat="54.352820" lon="-3.106346"><ele>192</ele><time>2020-06-12T13:36:58Z</time><name>PT12779</name></trkpt>
<trkpt lat="54.352819" lon="-3.106348"><ele>192</ele><time>2020-06-12T13:36:59Z</time><name>PT12780</name></trkpt>
<trkpt lat="54.352816" lon="-3.106344"><ele>192</ele><time>2020-06-12T13:37:00Z</time><name>PT12781</name></trkpt>
<trkpt lat="54.352813" lon="-3.106332"><ele>193</ele><time>2020-06-12T13:37:01Z</time><name>PT12782</name></trkpt>
<trkpt lat="54.352815" lon="-3.106325"><ele>192</ele><time>2020-06-12T13:37:02Z</time><name>PT12783</name></trkpt>
<trkpt lat="54.352814" lon="-3.106318"><ele>193</ele><time>2020-06-12T13:37:03Z</time><name>PT12784</name></trkpt>
<trkpt lat="54.352811" lon="-3.106315"><ele>193</ele><time>2020-06-12T13:37:04Z</time><name>PT12785</name></trkpt>
<trkpt lat="54.352808" lon="-3.106302"><ele>192</ele><time>2020-06-12T13:37:05Z</time><name>PT12786</name></trkpt>
<trkpt lat="54.352804" lon="-3.106283"><ele>193</ele><time>2020-06-12T13:37:06Z</time><name>PT12787</name></trkpt>
<trkpt lat="54.352801" lon="-3.106263"><ele>193</ele><time>2020-06-12T13:37:07Z</time><name>PT12788</name></trkpt>
<trkpt lat="54.352794" lon="-3.106239"><ele>194</ele><time>2020-06-12T13:37:08Z</time><name>PT12789</name></trkpt>
<trkpt lat="54.352787" lon="-3.106215"><ele>194</ele><time>2020-06-12T13:37:09Z</time><name>PT12790</name></trkpt>
<trkpt lat="54.352780" lon="-3.106193"><ele>194</ele><time>2020-06-12T13:37:10Z</time><name>PT12791</name></trkpt>
<trkpt lat="54.352776" lon="-3.106170"><ele>194</ele><time>2020-06-12T13:37:11Z</time><name>PT12792</name></trkpt>
<trkpt lat="54.352774" lon="-3.106147"><ele>194</ele><time>2020-06-12T13:37:12Z</time><name>PT12793</name></trkpt>
<trkpt lat="54.352773" lon="-3.106124"><ele>194</ele><time>2020-06-12T13:37:13Z</time><name>PT12794</name></trkpt>
<trkpt lat="54.352771" lon="-3.106102"><ele>194</ele><time>2020-06-12T13:37:14Z</time><name>PT12795</name></trkpt>
<trkpt lat="54.352769" lon="-3.106077"><ele>194</ele><time>2020-06-12T13:37:15Z</time><name>PT12796</name></trkpt>
<trkpt lat="54.352767" lon="-3.106053"><ele>194</ele><time>2020-06-12T13:37:16Z</time><name>PT12797</name></trkpt>
<trkpt lat="54.352766" lon="-3.106029"><ele>195</ele><time>2020-06-12T13:37:17Z</time><name>PT12798</name></trkpt>
<trkpt lat="54.352766" lon="-3.106010"><ele>194</ele><time>2020-06-12T13:37:18Z</time><name>PT12799</name></trkpt>
<trkpt lat="54.352765" lon="-3.105990"><ele>194</ele><time>2020-06-12T13:37:19Z</time><name>PT12800</name></trkpt>
<trkpt lat="54.352766" lon="-3.105973"><ele>193</ele><time>2020-06-12T13:37:20Z</time><name>PT12801</name></trkpt>
<trkpt lat="54.352766" lon="-3.105953"><ele>193</ele><time>2020-06-12T13:37:21Z</time><name>PT12802</name></trkpt>
<trkpt lat="54.352764" lon="-3.105930"><ele>193</ele><time>2020-06-12T13:37:22Z</time><name>PT12803</name></trkpt>
<trkpt lat="54.352761" lon="-3.105910"><ele>193</ele><time>2020-06-12T13:37:23Z</time><name>PT12804</name></trkpt>
<trkpt lat="54.352760" lon="-3.105889"><ele>192</ele><time>2020-06-12T13:37:24Z</time><name>PT12805</name></trkpt>
<trkpt lat="54.352758" lon="-3.105860"><ele>193</ele><time>2020-06-12T13:37:25Z</time><name>PT12806</name></trkpt>
<trkpt lat="54.352756" lon="-3.105837"><ele>193</ele><time>2020-06-12T13:37:26Z</time><name>PT12807</name></trkpt>
<trkpt lat="54.352751" lon="-3.105810"><ele>193</ele><time>2020-06-12T13:37:27Z</time><name>PT12808</name></trkpt>
<trkpt lat="54.352750" lon="-3.105790"><ele>193</ele><time>2020-06-12T13:37:28Z</time><name>PT12809</name></trkpt>
<trkpt lat="54.352749" lon="-3.105763"><ele>195</ele><time>2020-06-12T13:37:29Z</time><name>PT12810</name></trkpt>
<trkpt lat="54.352750" lon="-3.105746"><ele>195</ele><time>2020-06-12T13:37:30Z</time><name>PT12811</name></trkpt>
<trkpt lat="54.352745" lon="-3.105728"><ele>195</ele><time>2020-06-12T13:37:31Z</time><name>PT12812</name></trkpt>
<trkpt lat="54.352737" lon="-3.105712"><ele>196</ele><time>2020-06-12T13:37:32Z</time><name>PT12813</name></trkpt>
<trkpt lat="54.352731" lon="-3.105699"><ele>195</ele><time>2020-06-12T13:37:33Z</time><name>PT12814</name></trkpt>
<trkpt lat="54.352725" lon="-3.105684"><ele>195</ele><time>2020-06-12T13:37:34Z</time><name>PT12815</name></trkpt>
<trkpt lat="54.352718" lon="-3.105673"><ele>194</ele><time>2020-06-12T13:37:35Z</time><name>PT12816</name></trkpt>
<trkpt lat="54.352710" lon="-3.105666"><ele>195</ele><time>2020-06-12T13:37:36Z</time><name>PT12817</name></trkpt>
<trkpt lat="54.352701" lon="-3.105663"><ele>194</ele><time>2020-06-12T13:37:37Z</time><name>PT12818</name></trkpt>
<trkpt lat="54.352693" lon="-3.105654"><ele>194</ele><time>2020-06-12T13:37:38Z</time><name>PT12819</name></trkpt>
<trkpt lat="54.352687" lon="-3.105646"><ele>194</ele><time>2020-06-12T13:37:39Z</time><name>PT12820</name></trkpt>
<trkpt lat="54.352680" lon="-3.105632"><ele>193</ele><time>2020-06-12T13:37:40Z</time><name>PT12821</name></trkpt>
<trkpt lat="54.352671" lon="-3.105622"><ele>193</ele><time>2020-06-12T13:37:41Z</time><name>PT12822</name></trkpt>
<trkpt lat="54.352665" lon="-3.105617"><ele>192</ele><time>2020-06-12T13:37:42Z</time><name>PT12823</name></trkpt>
<trkpt lat="54.352658" lon="-3.105613"><ele>192</ele><time>2020-06-12T13:37:43Z</time><name>PT12824</name></trkpt>
<trkpt lat="54.352655" lon="-3.105605"><ele>191</ele><time>2020-06-12T13:37:44Z</time><name>PT12825</name></trkpt>
<trkpt lat="54.352646" lon="-3.105594"><ele>191</ele><time>2020-06-12T13:37:45Z</time><name>PT12826</name></trkpt>
<trkpt lat="54.352636" lon="-3.105582"><ele>191</ele><time>2020-06-12T13:37:46Z</time><name>PT12827</name></trkpt>
<trkpt lat="54.352626" lon="-3.105576"><ele>191</ele><time>2020-06-12T13:37:47Z</time><name>PT12828</name></trkpt>
<trkpt lat="54.352617" lon="-3.105568"><ele>190</ele><time>2020-06-12T13:37:48Z</time><name>PT12829</name></trkpt>
<trkpt lat="54.352606" lon="-3.105562"><ele>190</ele><time>2020-06-12T13:37:49Z</time><name>PT12830</name></trkpt>
<trkpt lat="54.352597" lon="-3.105551"><ele>189</ele><time>2020-06-12T13:37:50Z</time><name>PT12831</name></trkpt>
<trkpt lat="54.352586" lon="-3.105531"><ele>191</ele><time>2020-06-12T13:37:51Z</time><name>PT12832</name></trkpt>
<trkpt lat="54.352576" lon="-3.105521"><ele>191</ele><time>2020-06-12T13:37:52Z</time><name>PT12833</name></trkpt>
<trkpt lat="54.352565" lon="-3.105508"><ele>192</ele><time>2020-06-12T13:37:53Z</time><name>PT12834</name></trkpt>
<trkpt lat="54.352553" lon="-3.105495"><ele>192</ele><time>2020-06-12T13:37:54Z</time><name>PT12835</name></trkpt>
<trkpt lat="54.352542" lon="-3.105485"><ele>192</ele><time>2020-06-12T13:37:55Z</time><name>PT12836</name></trkpt>
<trkpt lat="54.352533" lon="-3.105475"><ele>192</ele><time>2020-06-12T13:37:56Z</time><name>PT12837</name></trkpt>
<trkpt lat="54.352522" lon="-3.105457"><ele>192</ele><time>2020-06-12T13:37:57Z</time><name>PT12838</name></trkpt>
<trkpt lat="54.352514" lon="-3.105448"><ele>192</ele><time>2020-06-12T13:37:58Z</time><name>PT12839</name></trkpt>
<trkpt lat="54.352502" lon="-3.105433"><ele>192</ele><time>2020-06-12T13:37:59Z</time><name>PT12840</name></trkpt>
<trkpt lat="54.352494" lon="-3.105421"><ele>191</ele><time>2020-06-12T13:38:00Z</time><name>PT12841</name></trkpt>
<trkpt lat="54.352486" lon="-3.105410"><ele>191</ele><time>2020-06-12T13:38:01Z</time><name>PT12842</name></trkpt>
<trkpt lat="54.352479" lon="-3.105393"><ele>191</ele><time>2020-06-12T13:38:02Z</time><name>PT12843</name></trkpt>
<trkpt lat="54.352471" lon="-3.105379"><ele>192</ele><time>2020-06-12T13:38:03Z</time><name>PT12844</name></trkpt>
<trkpt lat="54.352462" lon="-3.105364"><ele>191</ele><time>2020-06-12T13:38:04Z</time><name>PT12845</name></trkpt>
<trkpt lat="54.352448" lon="-3.105347"><ele>192</ele><time>2020-06-12T13:38:05Z</time><name>PT12846</name></trkpt>
<trkpt lat="54.352441" lon="-3.105338"><ele>191</ele><time>2020-06-12T13:38:06Z</time><name>PT12847</name></trkpt>
<trkpt lat="54.352436" lon="-3.105324"><ele>192</ele><time>2020-06-12T13:38:07Z</time><name>PT12848</name></trkpt>
<trkpt lat="54.352430" lon="-3.105315"><ele>192</ele><time>2020-06-12T13:38:08Z</time><name>PT12849</name></trkpt>
<trkpt lat="54.352422" lon="-3.105305"><ele>192</ele><time>2020-06-12T13:38:09Z</time><name>PT12850</name></trkpt>
<trkpt lat="54.352413" lon="-3.105293"><ele>191</ele><time>2020-06-12T13:38:10Z</time><name>PT12851</name></trkpt>
<trkpt lat="54.352405" lon="-3.105283"><ele>191</ele><time>2020-06-12T13:38:11Z</time><name>PT12852</name></trkpt>
<trkpt lat="54.352396" lon="-3.105277"><ele>191</ele><time>2020-06-12T13:38:12Z</time><name>PT12853</name></trkpt>
<trkpt lat="54.352389" lon="-3.105268"><ele>191</ele><time>2020-06-12T13:38:13Z</time><name>PT12854</name></trkpt>
<trkpt lat="54.352377" lon="-3.105260"><ele>191</ele><time>2020-06-12T13:38:14Z</time><name>PT12855</name></trkpt>
<trkpt lat="54.352367" lon="-3.105252"><ele>191</ele><time>2020-06-12T13:38:15Z</time><name>PT12856</name></trkpt>
<trkpt lat="54.352357" lon="-3.105248"><ele>191</ele><time>2020-06-12T13:38:16Z</time><name>PT12857</name></trkpt>
<trkpt lat="54.352350" lon="-3.105241"><ele>191</ele><time>2020-06-12T13:38:17Z</time><name>PT12858</name></trkpt>
<trkpt lat="54.352346" lon="-3.105240"><ele>190</ele><time>2020-06-12T13:38:18Z</time><name>PT12859</name></trkpt>
<trkpt lat="54.352338" lon="-3.105234"><ele>190</ele><time>2020-06-12T13:38:19Z</time><name>PT12860</name></trkpt>
<trkpt lat="54.352324" lon="-3.105226"><ele>190</ele><time>2020-06-12T13:38:20Z</time><name>PT12861</name></trkpt>
<trkpt lat="54.352313" lon="-3.105219"><ele>189</ele><time>2020-06-12T13:38:21Z</time><name>PT12862</name></trkpt>
<trkpt lat="54.352301" lon="-3.105208"><ele>190</ele><time>2020-06-12T13:38:22Z</time><name>PT12863</name></trkpt>
<trkpt lat="54.352294" lon="-3.105193"><ele>189</ele><time>2020-06-12T13:38:23Z</time><name>PT12864</name></trkpt>
<trkpt lat="54.352287" lon="-3.105179"><ele>188</ele><time>2020-06-12T13:38:24Z</time><name>PT12865</name></trkpt>
<trkpt lat="54.352280" lon="-3.105169"><ele>188</ele><time>2020-06-12T13:38:25Z</time><name>PT12866</name></trkpt>
<trkpt lat="54.352273" lon="-3.105159"><ele>188</ele><time>2020-06-12T13:38:26Z</time><name>PT12867</name></trkpt>
<trkpt lat="54.352267" lon="-3.105148"><ele>188</ele><time>2020-06-12T13:38:27Z</time><name>PT12868</name></trkpt>
<trkpt lat="54.352259" lon="-3.105137"><ele>188</ele><time>2020-06-12T13:38:28Z</time><name>PT12869</name></trkpt>
<trkpt lat="54.352252" lon="-3.105135"><ele>187</ele><time>2020-06-12T13:38:29Z</time><name>PT12870</name></trkpt>
<trkpt lat="54.352244" lon="-3.105126"><ele>186</ele><time>2020-06-12T13:38:30Z</time><name>PT12871</name></trkpt>
<trkpt lat="54.352238" lon="-3.105113"><ele>186</ele><time>2020-06-12T13:38:31Z</time><name>PT12872</name></trkpt>
<trkpt lat="54.352228" lon="-3.105100"><ele>186</ele><time>2020-06-12T13:38:32Z</time><name>PT12873</name></trkpt>
<trkpt lat="54.352221" lon="-3.105090"><ele>185</ele><time>2020-06-12T13:38:33Z</time><name>PT12874</name></trkpt>
<trkpt lat="54.352206" lon="-3.105076"><ele>185</ele><time>2020-06-12T13:38:34Z</time><name>PT12875</name></trkpt>
<trkpt lat="54.352196" lon="-3.105065"><ele>186</ele><time>2020-06-12T13:38:35Z</time><name>PT12876</name></trkpt>
<trkpt lat="54.352185" lon="-3.105050"><ele>185</ele><time>2020-06-12T13:38:36Z</time><name>PT12877</name></trkpt>
<trkpt lat="54.352171" lon="-3.105037"><ele>186</ele><time>2020-06-12T13:38:37Z</time><name>PT12878</name></trkpt>
<trkpt lat="54.352162" lon="-3.105021"><ele>186</ele><time>2020-06-12T13:38:38Z</time><name>PT12879</name></trkpt>
<trkpt lat="54.352154" lon="-3.105014"><ele>185</ele><time>2020-06-12T13:38:39Z</time><name>PT12880</name></trkpt>
<trkpt lat="54.352141" lon="-3.105006"><ele>186</ele><time>2020-06-12T13:38:40Z</time><name>PT12881</name></trkpt>
<trkpt lat="54.352129" lon="-3.105000"><ele>186</ele><time>2020-06-12T13:38:41Z</time><name>PT12882</name></trkpt>
<trkpt lat="54.352116" lon="-3.104992"><ele>186</ele><time>2020-06-12T13:38:42Z</time><name>PT12883</name></trkpt>
<trkpt lat="54.352106" lon="-3.104983"><ele>185</ele><time>2020-06-12T13:38:43Z</time><name>PT12884</name></trkpt>
<trkpt lat="54.352095" lon="-3.104978"><ele>185</ele><time>2020-06-12T13:38:44Z</time><name>PT12885</name></trkpt>
<trkpt lat="54.352082" lon="-3.104965"><ele>185</ele><time>2020-06-12T13:38:45Z</time><name>PT12886</name></trkpt>
<trkpt lat="54.352068" lon="-3.104955"><ele>186</ele><time>2020-06-12T13:38:46Z</time><name>PT12887</name></trkpt>
<trkpt lat="54.352059" lon="-3.104940"><ele>186</ele><time>2020-06-12T13:38:47Z</time><name>PT12888</name></trkpt>
<trkpt lat="54.352049" lon="-3.104930"><ele>186</ele><time>2020-06-12T13:38:48Z</time><name>PT12889</name></trkpt>
<trkpt lat="54.352041" lon="-3.104921"><ele>185</ele><time>2020-06-12T13:38:49Z</time><name>PT12890</name></trkpt>
<trkpt lat="54.352033" lon="-3.104909"><ele>186</ele><time>2020-06-12T13:38:50Z</time><name>PT12891</name></trkpt>
<trkpt lat="54.352026" lon="-3.104900"><ele>185</ele><time>2020-06-12T13:38:51Z</time><name>PT12892</name></trkpt>
<trkpt lat="54.352017" lon="-3.104883"><ele>185</ele><time>2020-06-12T13:38:52Z</time><name>PT12893</name></trkpt>
<trkpt lat="54.352009" lon="-3.104868"><ele>184</ele><time>2020-06-12T13:38:53Z</time><name>PT12894</name></trkpt>
<trkpt lat="54.351998" lon="-3.104850"><ele>184</ele><time>2020-06-12T13:38:54Z</time><name>PT12895</name></trkpt>
<trkpt lat="54.351989" lon="-3.104838"><ele>184</ele><time>2020-06-12T13:38:55Z</time><name>PT12896</name></trkpt>
<trkpt lat="54.351979" lon="-3.104824"><ele>185</ele><time>2020-06-12T13:38:56Z</time><name>PT12897</name></trkpt>
<trkpt lat="54.351969" lon="-3.104812"><ele>184</ele><time>2020-06-12T13:38:57Z</time><name>PT12898</name></trkpt>
<trkpt lat="54.351960" lon="-3.104800"><ele>184</ele><time>2020-06-12T13:38:58Z</time><name>PT12899</name></trkpt>
<trkpt lat="54.351947" lon="-3.104785"><ele>185</ele><time>2020-06-12T13:38:59Z</time><name>PT12900</name></trkpt>
<trkpt lat="54.351939" lon="-3.104769"><ele>185</ele><time>2020-06-12T13:39:00Z</time><name>PT12901</name></trkpt>
<trkpt lat="54.351931" lon="-3.104754"><ele>184</ele><time>2020-06-12T13:39:01Z</time><name>PT12902</name></trkpt>
<trkpt lat="54.351923" lon="-3.104744"><ele>184</ele><time>2020-06-12T13:39:02Z</time><name>PT12903</name></trkpt>
<trkpt lat="54.351918" lon="-3.104736"><ele>184</ele><time>2020-06-12T13:39:03Z</time><name>PT12904</name></trkpt>
<trkpt lat="54.351906" lon="-3.104725"><ele>184</ele><time>2020-06-12T13:39:04Z</time><name>PT12905</name></trkpt>
<trkpt lat="54.351899" lon="-3.104709"><ele>185</ele><time>2020-06-12T13:39:05Z</time><name>PT12906</name></trkpt>
<trkpt lat="54.351891" lon="-3.104698"><ele>185</ele><time>2020-06-12T13:39:06Z</time><name>PT12907</name></trkpt>
<trkpt lat="54.351881" lon="-3.104687"><ele>185</ele><time>2020-06-12T13:39:07Z</time><name>PT12908</name></trkpt>
<trkpt lat="54.351871" lon="-3.104676"><ele>185</ele><time>2020-06-12T13:39:08Z</time><name>PT12909</name></trkpt>
<trkpt lat="54.351864" lon="-3.104665"><ele>185</ele><time>2020-06-12T13:39:09Z</time><name>PT12910</name></trkpt>
<trkpt lat="54.351859" lon="-3.104648"><ele>185</ele><time>2020-06-12T13:39:10Z</time><name>PT12911</name></trkpt>
<trkpt lat="54.351849" lon="-3.104632"><ele>185</ele><time>2020-06-12T13:39:11Z</time><name>PT12912</name></trkpt>
<trkpt lat="54.351841" lon="-3.104618"><ele>185</ele><time>2020-06-12T13:39:12Z</time><name>PT12913</name></trkpt>
<trkpt lat="54.351831" lon="-3.104598"><ele>185</ele><time>2020-06-12T13:39:13Z</time><name>PT12914</name></trkpt>
<trkpt lat="54.351825" lon="-3.104581"><ele>185</ele><time>2020-06-12T13:39:14Z</time><name>PT12915</name></trkpt>
<trkpt lat="54.351818" lon="-3.104566"><ele>184</ele><time>2020-06-12T13:39:15Z</time><name>PT12916</name></trkpt>
<trkpt lat="54.351807" lon="-3.104544"><ele>184</ele><time>2020-06-12T13:39:16Z</time><name>PT12917</name></trkpt>
<trkpt lat="54.351799" lon="-3.104521"><ele>184</ele><time>2020-06-12T13:39:17Z</time><name>PT12918</name></trkpt>
<trkpt lat="54.351790" lon="-3.104500"><ele>185</ele><time>2020-06-12T13:39:18Z</time><name>PT12919</name></trkpt>
<trkpt lat="54.351783" lon="-3.104478"><ele>185</ele><time>2020-06-12T13:39:19Z</time><name>PT12920</name></trkpt>
<trkpt lat="54.351777" lon="-3.104457"><ele>185</ele><time>2020-06-12T13:39:20Z</time><name>PT12921</name></trkpt>
<trkpt lat="54.351772" lon="-3.104436"><ele>185</ele><time>2020-06-12T13:39:21Z</time><name>PT12922</name></trkpt>
<trkpt lat="54.351766" lon="-3.104417"><ele>185</ele><time>2020-06-12T13:39:22Z</time><name>PT12923</name></trkpt>
<trkpt lat="54.351758" lon="-3.104398"><ele>185</ele><time>2020-06-12T13:39:23Z</time><name>PT12924</name></trkpt>
<trkpt lat="54.351753" lon="-3.104379"><ele>185</ele><time>2020-06-12T13:39:24Z</time><name>PT12925</name></trkpt>
<trkpt lat="54.351747" lon="-3.104361"><ele>184</ele><time>2020-06-12T13:39:25Z</time><name>PT12926</name></trkpt>
<trkpt lat="54.351740" lon="-3.104344"><ele>184</ele><time>2020-06-12T13:39:26Z</time><name>PT12927</name></trkpt>
<trkpt lat="54.351734" lon="-3.104327"><ele>184</ele><time>2020-06-12T13:39:27Z</time><name>PT12928</name></trkpt>
<trkpt lat="54.351724" lon="-3.104306"><ele>185</ele><time>2020-06-12T13:39:28Z</time><name>PT12929</name></trkpt>
<trkpt lat="54.351714" lon="-3.104289"><ele>185</ele><time>2020-06-12T13:39:29Z</time><name>PT12930</name></trkpt>
<trkpt lat="54.351706" lon="-3.104274"><ele>185</ele><time>2020-06-12T13:39:30Z</time><name>PT12931</name></trkpt>
<trkpt lat="54.351696" lon="-3.104256"><ele>185</ele><time>2020-06-12T13:39:31Z</time><name>PT12932</name></trkpt>
<trkpt lat="54.351689" lon="-3.104241"><ele>185</ele><time>2020-06-12T13:39:32Z</time><name>PT12933</name></trkpt>
<trkpt lat="54.351682" lon="-3.104225"><ele>185</ele><time>2020-06-12T13:39:33Z</time><name>PT12934</name></trkpt>
<trkpt lat="54.351672" lon="-3.104206"><ele>186</ele><time>2020-06-12T13:39:34Z</time><name>PT12935</name></trkpt>
<trkpt lat="54.351664" lon="-3.104191"><ele>186</ele><time>2020-06-12T13:39:35Z</time><name>PT12936</name></trkpt>
<trkpt lat="54.351655" lon="-3.104180"><ele>185</ele><time>2020-06-12T13:39:36Z</time><name>PT12937</name></trkpt>
<trkpt lat="54.351647" lon="-3.104166"><ele>185</ele><time>2020-06-12T13:39:37Z</time><name>PT12938</name></trkpt>
<trkpt lat="54.351638" lon="-3.104152"><ele>185</ele><time>2020-06-12T13:39:38Z</time><name>PT12939</name></trkpt>
<trkpt lat="54.351631" lon="-3.104139"><ele>185</ele><time>2020-06-12T13:39:39Z</time><name>PT12940</name></trkpt>
<trkpt lat="54.351620" lon="-3.104122"><ele>186</ele><time>2020-06-12T13:39:40Z</time><name>PT12941</name></trkpt>
<trkpt lat="54.351608" lon="-3.104108"><ele>186</ele><time>2020-06-12T13:39:41Z</time><name>PT12942</name></trkpt>
<trkpt lat="54.351598" lon="-3.104095"><ele>186</ele><time>2020-06-12T13:39:42Z</time><name>PT12943</name></trkpt>
<trkpt lat="54.351587" lon="-3.104085"><ele>186</ele><time>2020-06-12T13:39:43Z</time><name>PT12944</name></trkpt>
<trkpt lat="54.351579" lon="-3.104070"><ele>186</ele><time>2020-06-12T13:39:44Z</time><name>PT12945</name></trkpt>
<trkpt lat="54.351573" lon="-3.104054"><ele>185</ele><time>2020-06-12T13:39:45Z</time><name>PT12946</name></trkpt>
<trkpt lat="54.351565" lon="-3.104042"><ele>185</ele><time>2020-06-12T13:39:46Z</time><name>PT12947</name></trkpt>
<trkpt lat="54.351556" lon="-3.104033"><ele>186</ele><time>2020-06-12T13:39:47Z</time><name>PT12948</name></trkpt>
<trkpt lat="54.351548" lon="-3.104020"><ele>186</ele><time>2020-06-12T13:39:48Z</time><name>PT12949</name></trkpt>
<trkpt lat="54.351536" lon="-3.104005"><ele>186</ele><time>2020-06-12T13:39:49Z</time><name>PT12950</name></trkpt>
<trkpt lat="54.351530" lon="-3.103988"><ele>186</ele><time>2020-06-12T13:39:50Z</time><name>PT12951</name></trkpt>
<trkpt lat="54.351524" lon="-3.103977"><ele>186</ele><time>2020-06-12T13:39:51Z</time><name>PT12952</name></trkpt>
<trkpt lat="54.351516" lon="-3.103965"><ele>186</ele><time>2020-06-12T13:39:52Z</time><name>PT12953</name></trkpt>
<trkpt lat="54.351510" lon="-3.103953"><ele>186</ele><time>2020-06-12T13:39:53Z</time><name>PT12954</name></trkpt>
<trkpt lat="54.351501" lon="-3.103940"><ele>186</ele><time>2020-06-12T13:39:54Z</time><name>PT12955</name></trkpt>
<trkpt lat="54.351492" lon="-3.103930"><ele>186</ele><time>2020-06-12T13:39:55Z</time><name>PT12956</name></trkpt>
<trkpt lat="54.351486" lon="-3.103923"><ele>185</ele><time>2020-06-12T13:39:56Z</time><name>PT12957</name></trkpt>
<trkpt lat="54.351479" lon="-3.103908"><ele>185</ele><time>2020-06-12T13:39:57Z</time><name>PT12958</name></trkpt>
<trkpt lat="54.351470" lon="-3.103890"><ele>186</ele><time>2020-06-12T13:39:58Z</time><name>PT12959</name></trkpt>
<trkpt lat="54.351461" lon="-3.103874"><ele>186</ele><time>2020-06-12T13:39:59Z</time><name>PT12960</name></trkpt>
<trkpt lat="54.351450" lon="-3.103856"><ele>186</ele><time>2020-06-12T13:40:00Z</time><name>PT12961</name></trkpt>
<trkpt lat="54.351444" lon="-3.103840"><ele>186</ele><time>2020-06-12T13:40:01Z</time><name>PT12962</name></trkpt>
<trkpt lat="54.351438" lon="-3.103824"><ele>185</ele><time>2020-06-12T13:40:02Z</time><name>PT12963</name></trkpt>
<trkpt lat="54.351432" lon="-3.103809"><ele>185</ele><time>2020-06-12T13:40:03Z</time><name>PT12964</name></trkpt>
<trkpt lat="54.351423" lon="-3.103792"><ele>185</ele><time>2020-06-12T13:40:04Z</time><name>PT12965</name></trkpt>
<trkpt lat="54.351414" lon="-3.103777"><ele>186</ele><time>2020-06-12T13:40:05Z</time><name>PT12966</name></trkpt>
<trkpt lat="54.351406" lon="-3.103762"><ele>186</ele><time>2020-06-12T13:40:06Z</time><name>PT12967</name></trkpt>
<trkpt lat="54.351400" lon="-3.103749"><ele>185</ele><time>2020-06-12T13:40:07Z</time><name>PT12968</name></trkpt>
<trkpt lat="54.351392" lon="-3.103734"><ele>186</ele><time>2020-06-12T13:40:08Z</time><name>PT12969</name></trkpt>
<trkpt lat="54.351383" lon="-3.103720"><ele>185</ele><time>2020-06-12T13:40:09Z</time><name>PT12970</name></trkpt>
<trkpt lat="54.351375" lon="-3.103709"><ele>185</ele><time>2020-06-12T13:40:10Z</time><name>PT12971</name></trkpt>
<trkpt lat="54.351365" lon="-3.103692"><ele>186</ele><time>2020-06-12T13:40:11Z</time><name>PT12972</name></trkpt>
<trkpt lat="54.351355" lon="-3.103682"><ele>187</ele><time>2020-06-12T13:40:12Z</time><name>PT12973</name></trkpt>
<trkpt lat="54.351348" lon="-3.103677"><ele>186</ele><time>2020-06-12T13:40:13Z</time><name>PT12974</name></trkpt>
<trkpt lat="54.351340" lon="-3.103661"><ele>185</ele><time>2020-06-12T13:40:14Z</time><name>PT12975</name></trkpt>
<trkpt lat="54.351332" lon="-3.103648"><ele>186</ele><time>2020-06-12T13:40:15Z</time><name>PT12976</name></trkpt>
<trkpt lat="54.351324" lon="-3.103626"><ele>186</ele><time>2020-06-12T13:40:16Z</time><name>PT12977</name></trkpt>
<trkpt lat="54.351318" lon="-3.103612"><ele>185</ele><time>2020-06-12T13:40:17Z</time><name>PT12978</name></trkpt>
<trkpt lat="54.351309" lon="-3.103595"><ele>186</ele><time>2020-06-12T13:40:18Z</time><name>PT12979</name></trkpt>
<trkpt lat="54.351299" lon="-3.103580"><ele>186</ele><time>2020-06-12T13:40:19Z</time><name>PT12980</name></trkpt>
<trkpt lat="54.351291" lon="-3.103566"><ele>185</ele><time>2020-06-12T13:40:20Z</time><name>PT12981</name></trkpt>
<trkpt lat="54.351284" lon="-3.103555"><ele>184</ele><time>2020-06-12T13:40:21Z</time><name>PT12982</name></trkpt>
<trkpt lat="54.351276" lon="-3.103547"><ele>184</ele><time>2020-06-12T13:40:22Z</time><name>PT12983</name></trkpt>
<trkpt lat="54.351266" lon="-3.103528"><ele>183</ele><time>2020-06-12T13:40:23Z</time><name>PT12984</name></trkpt>
<trkpt lat="54.351258" lon="-3.103517"><ele>183</ele><time>2020-06-12T13:40:24Z</time><name>PT12985</name></trkpt>
<trkpt lat="54.351249" lon="-3.103501"><ele>183</ele><time>2020-06-12T13:40:25Z</time><name>PT12986</name></trkpt>
<trkpt lat="54.351236" lon="-3.103493"><ele>183</ele><time>2020-06-12T13:40:26Z</time><name>PT12987</name></trkpt>
<trkpt lat="54.351222" lon="-3.103464"><ele>184</ele><time>2020-06-12T13:40:27Z</time><name>PT12988</name></trkpt>
<trkpt lat="54.351215" lon="-3.103451"><ele>184</ele><time>2020-06-12T13:40:28Z</time><name>PT12989</name></trkpt>
<trkpt lat="54.351207" lon="-3.103434"><ele>185</ele><time>2020-06-12T13:40:29Z</time><name>PT12990</name></trkpt>
<trkpt lat="54.351195" lon="-3.103415"><ele>186</ele><time>2020-06-12T13:40:30Z</time><name>PT12991</name></trkpt>
<trkpt lat="54.351185" lon="-3.103406"><ele>185</ele><time>2020-06-12T13:40:31Z</time><name>PT12992</name></trkpt>
<trkpt lat="54.351176" lon="-3.103396"><ele>185</ele><time>2020-06-12T13:40:32Z</time><name>PT12993</name></trkpt>
<trkpt lat="54.351166" lon="-3.103385"><ele>185</ele><time>2020-06-12T13:40:33Z</time><name>PT12994</name></trkpt>
<trkpt lat="54.351157" lon="-3.103372"><ele>185</ele><time>2020-06-12T13:40:34Z</time><name>PT12995</name></trkpt>
<trkpt lat="54.351149" lon="-3.103365"><ele>185</ele><time>2020-06-12T13:40:35Z</time><name>PT12996</name></trkpt>
<trkpt lat="54.351140" lon="-3.103356"><ele>185</ele><time>2020-06-12T13:40:36Z</time><name>PT12997</name></trkpt>
<trkpt lat="54.351131" lon="-3.103343"><ele>185</ele><time>2020-06-12T13:40:37Z</time><name>PT12998</name></trkpt>
<trkpt lat="54.351121" lon="-3.103329"><ele>186</ele><time>2020-06-12T13:40:38Z</time><name>PT12999</name></trkpt>
<trkpt lat="54.351110" lon="-3.103320"><ele>186</ele><time>2020-06-12T13:40:39Z</time><name>PT13000</name></trkpt>
<trkpt lat="54.351100" lon="-3.103312"><ele>186</ele><time>2020-06-12T13:40:40Z</time><name>PT13001</name></trkpt>
<trkpt lat="54.351091" lon="-3.103301"><ele>187</ele><time>2020-06-12T13:40:41Z</time><name>PT13002</name></trkpt>
<trkpt lat="54.351084" lon="-3.103290"><ele>187</ele><time>2020-06-12T13:40:42Z</time><name>PT13003</name></trkpt>
<trkpt lat="54.351076" lon="-3.103283"><ele>187</ele><time>2020-06-12T13:40:43Z</time><name>PT13004</name></trkpt>
<trkpt lat="54.351067" lon="-3.103276"><ele>187</ele><time>2020-06-12T13:40:44Z</time><name>PT13005</name></trkpt>
<trkpt lat="54.351056" lon="-3.103264"><ele>187</ele><time>2020-06-12T13:40:45Z</time><name>PT13006</name></trkpt>
<trkpt lat="54.351046" lon="-3.103251"><ele>187</ele><time>2020-06-12T13:40:46Z</time><name>PT13007</name></trkpt>
<trkpt lat="54.351039" lon="-3.103240"><ele>187</ele><time>2020-06-12T13:40:47Z</time><name>PT13008</name></trkpt>
<trkpt lat="54.351028" lon="-3.103233"><ele>188</ele><time>2020-06-12T13:40:48Z</time><name>PT13009</name></trkpt>
<trkpt lat="54.351017" lon="-3.103226"><ele>188</ele><time>2020-06-12T13:40:49Z</time><name>PT13010</name></trkpt>
<trkpt lat="54.351007" lon="-3.103220"><ele>188</ele><time>2020-06-12T13:40:50Z</time><name>PT13011</name></trkpt>
<trkpt lat="54.350999" lon="-3.103210"><ele>188</ele><time>2020-06-12T13:40:51Z</time><name>PT13012</name></trkpt>
<trkpt lat="54.350991" lon="-3.103204"><ele>188</ele><time>2020-06-12T13:40:52Z</time><name>PT13013</name></trkpt>
<trkpt lat="54.350984" lon="-3.103201"><ele>188</ele><time>2020-06-12T13:40:53Z</time><name>PT13014</name></trkpt>
<trkpt lat="54.350976" lon="-3.103198"><ele>188</ele><time>2020-06-12T13:40:54Z</time><name>PT13015</name></trkpt>
<trkpt lat="54.350965" lon="-3.103192"><ele>188</ele><time>2020-06-12T13:40:55Z</time><name>PT13016</name></trkpt>
<trkpt lat="54.350955" lon="-3.103189"><ele>188</ele><time>2020-06-12T13:40:56Z</time><name>PT13017</name></trkpt>
<trkpt lat="54.350944" lon="-3.103187"><ele>188</ele><time>2020-06-12T13:40:57Z</time><name>PT13018</name></trkpt>
<trkpt lat="54.350934" lon="-3.103185"><ele>188</ele><time>2020-06-12T13:40:58Z</time><name>PT13019</name></trkpt>
<trkpt lat="54.350925" lon="-3.103182"><ele>187</ele><time>2020-06-12T13:40:59Z</time><name>PT13020</name></trkpt>
<trkpt lat="54.350914" lon="-3.103178"><ele>187</ele><time>2020-06-12T13:41:00Z</time><name>PT13021</name></trkpt>
<trkpt lat="54.350904" lon="-3.103172"><ele>187</ele><time>2020-06-12T13:41:01Z</time><name>PT13022</name></trkpt>
<trkpt lat="54.350895" lon="-3.103165"><ele>187</ele><time>2020-06-12T13:41:02Z</time><name>PT13023</name></trkpt>
<trkpt lat="54.350882" lon="-3.103157"><ele>188</ele><time>2020-06-12T13:41:03Z</time><name>PT13024</name></trkpt>
<trkpt lat="54.350873" lon="-3.103152"><ele>187</ele><time>2020-06-12T13:41:04Z</time><name>PT13025</name></trkpt>
<trkpt lat="54.350860" lon="-3.103148"><ele>187</ele><time>2020-06-12T13:41:05Z</time><name>PT13026</name></trkpt>
<trkpt lat="54.350846" lon="-3.103143"><ele>188</ele><time>2020-06-12T13:41:06Z</time><name>PT13027</name></trkpt>
<trkpt lat="54.350836" lon="-3.103138"><ele>188</ele><time>2020-06-12T13:41:07Z</time><name>PT13028</name></trkpt>
<trkpt lat="54.350823" lon="-3.103134"><ele>188</ele><time>2020-06-12T13:41:08Z</time><name>PT13029</name></trkpt>
<trkpt lat="54.350814" lon="-3.103121"><ele>188</ele><time>2020-06-12T13:41:09Z</time><name>PT13030</name></trkpt>
<trkpt lat="54.350805" lon="-3.103112"><ele>188</ele><time>2020-06-12T13:41:10Z</time><name>PT13031</name></trkpt>
<trkpt lat="54.350796" lon="-3.103109"><ele>187</ele><time>2020-06-12T13:41:11Z</time><name>PT13032</name></trkpt>
<trkpt lat="54.350784" lon="-3.103106"><ele>187</ele><time>2020-06-12T13:41:12Z</time><name>PT13033</name></trkpt>
<trkpt lat="54.350775" lon="-3.103100"><ele>187</ele><time>2020-06-12T13:41:13Z</time><name>PT13034</name></trkpt>
<trkpt lat="54.350764" lon="-3.103096"><ele>187</ele><time>2020-06-12T13:41:14Z</time><name>PT13035</name></trkpt>
<trkpt lat="54.350749" lon="-3.103097"><ele>188</ele><time>2020-06-12T13:41:15Z</time><name>PT13036</name></trkpt>
<trkpt lat="54.350737" lon="-3.103093"><ele>188</ele><time>2020-06-12T13:41:16Z</time><name>PT13037</name></trkpt>
<trkpt lat="54.350724" lon="-3.103090"><ele>188</ele><time>2020-06-12T13:41:17Z</time><name>PT13038</name></trkpt>
<trkpt lat="54.350712" lon="-3.103084"><ele>188</ele><time>2020-06-12T13:41:18Z</time><name>PT13039</name></trkpt>
<trkpt lat="54.350698" lon="-3.103079"><ele>188</ele><time>2020-06-12T13:41:19Z</time><name>PT13040</name></trkpt>
<trkpt lat="54.350682" lon="-3.103070"><ele>188</ele><time>2020-06-12T13:41:20Z</time><name>PT13041</name></trkpt>
<trkpt lat="54.350671" lon="-3.103062"><ele>188</ele><time>2020-06-12T13:41:21Z</time><name>PT13042</name></trkpt>
<trkpt lat="54.350657" lon="-3.103058"><ele>189</ele><time>2020-06-12T13:41:22Z</time><name>PT13043</name></trkpt>
<trkpt lat="54.350646" lon="-3.103050"><ele>189</ele><time>2020-06-12T13:41:23Z</time><name>PT13044</name></trkpt>
<trkpt lat="54.350635" lon="-3.103043"><ele>189</ele><time>2020-06-12T13:41:24Z</time><name>PT13045</name></trkpt>
<trkpt lat="54.350626" lon="-3.103037"><ele>189</ele><time>2020-06-12T13:41:25Z</time><name>PT13046</name></trkpt>
<trkpt lat="54.350615" lon="-3.103030"><ele>189</ele><time>2020-06-12T13:41:26Z</time><name>PT13047</name></trkpt>
<trkpt lat="54.350602" lon="-3.103022"><ele>189</ele><time>2020-06-12T13:41:27Z</time><name>PT13048</name></trkpt>
<trkpt lat="54.350590" lon="-3.103016"><ele>189</ele><time>2020-06-12T13:41:28Z</time><name>PT13049</name></trkpt>
<trkpt lat="54.350578" lon="-3.103004"><ele>189</ele><time>2020-06-12T13:41:29Z</time><name>PT13050</name></trkpt>
<trkpt lat="54.350568" lon="-3.102990"><ele>190</ele><time>2020-06-12T13:41:30Z</time><name>PT13051</name></trkpt>
<trkpt lat="54.350560" lon="-3.102978"><ele>190</ele><time>2020-06-12T13:41:31Z</time><name>PT13052</name></trkpt>
<trkpt lat="54.350554" lon="-3.102962"><ele>189</ele><time>2020-06-12T13:41:32Z</time><name>PT13053</name></trkpt>
<trkpt lat="54.350549" lon="-3.102950"><ele>189</ele><time>2020-06-12T13:41:33Z</time><name>PT13054</name></trkpt>
<trkpt lat="54.350543" lon="-3.102932"><ele>189</ele><time>2020-06-12T13:41:34Z</time><name>PT13055</name></trkpt>
<trkpt lat="54.350537" lon="-3.102914"><ele>189</ele><time>2020-06-12T13:41:35Z</time><name>PT13056</name></trkpt>
<trkpt lat="54.350529" lon="-3.102901"><ele>189</ele><time>2020-06-12T13:41:36Z</time><name>PT13057</name></trkpt>
<trkpt lat="54.350522" lon="-3.102888"><ele>189</ele><time>2020-06-12T13:41:37Z</time><name>PT13058</name></trkpt>
<trkpt lat="54.350514" lon="-3.102874"><ele>189</ele><time>2020-06-12T13:41:38Z</time><name>PT13059</name></trkpt>
<trkpt lat="54.350510" lon="-3.102859"><ele>189</ele><time>2020-06-12T13:41:39Z</time><name>PT13060</name></trkpt>
<trkpt lat="54.350506" lon="-3.102847"><ele>188</ele><time>2020-06-12T13:41:40Z</time><name>PT13061</name></trkpt>
<trkpt lat="54.350499" lon="-3.102832"><ele>188</ele><time>2020-06-12T13:41:41Z</time><name>PT13062</name></trkpt>
<trkpt lat="54.350493" lon="-3.102820"><ele>187</ele><time>2020-06-12T13:41:42Z</time><name>PT13063</name></trkpt>
<trkpt lat="54.350487" lon="-3.102809"><ele>187</ele><time>2020-06-12T13:41:43Z</time><name>PT13064</name></trkpt>
<trkpt lat="54.350481" lon="-3.102800"><ele>187</ele><time>2020-06-12T13:41:44Z</time><name>PT13065</name></trkpt>
<trkpt lat="54.350474" lon="-3.102786"><ele>187</ele><time>2020-06-12T13:41:45Z</time><name>PT13066</name></trkpt>
<trkpt lat="54.350467" lon="-3.102774"><ele>187</ele><time>2020-06-12T13:41:46Z</time><name>PT13067</name></trkpt>
<trkpt lat="54.350457" lon="-3.102757"><ele>186</ele><time>2020-06-12T13:41:47Z</time><name>PT13068</name></trkpt>
<trkpt lat="54.350450" lon="-3.102741"><ele>186</ele><time>2020-06-12T13:41:48Z</time><name>PT13069</name></trkpt>
<trkpt lat="54.350443" lon="-3.102727"><ele>186</ele><time>2020-06-12T13:41:49Z</time><name>PT13070</name></trkpt>
<trkpt lat="54.350434" lon="-3.102717"><ele>186</ele><time>2020-06-12T13:41:50Z</time><name>PT13071</name></trkpt>
<trkpt lat="54.350429" lon="-3.102709"><ele>186</ele><time>2020-06-12T13:41:51Z</time><name>PT13072</name></trkpt>
<trkpt lat="54.350427" lon="-3.102701"><ele>186</ele><time>2020-06-12T13:41:52Z</time><name>PT13073</name></trkpt>
<trkpt lat="54.350421" lon="-3.102690"><ele>186</ele><time>2020-06-12T13:41:53Z</time><name>PT13074</name></trkpt>
<trkpt lat="54.350418" lon="-3.102685"><ele>185</ele><time>2020-06-12T13:41:54Z</time><name>PT13075</name></trkpt>
<trkpt lat="54.350410" lon="-3.102678"><ele>185</ele><time>2020-06-12T13:41:55Z</time><name>PT13076</name></trkpt>
<trkpt lat="54.350404" lon="-3.102668"><ele>184</ele><time>2020-06-12T13:41:56Z</time><name>PT13077</name></trkpt>
<trkpt lat="54.350398" lon="-3.102660"><ele>183</ele><time>2020-06-12T13:41:57Z</time><name>PT13078</name></trkpt>
<trkpt lat="54.350392" lon="-3.102646"><ele>183</ele><time>2020-06-12T13:41:58Z</time><name>PT13079</name></trkpt>
<trkpt lat="54.350386" lon="-3.102630"><ele>183</ele><time>2020-06-12T13:41:59Z</time><name>PT13080</name></trkpt>
<trkpt lat="54.350381" lon="-3.102616"><ele>183</ele><time>2020-06-12T13:42:00Z</time><name>PT13081</name></trkpt>
<trkpt lat="54.350376" lon="-3.102608"><ele>183</ele><time>2020-06-12T13:42:01Z</time><name>PT13082</name></trkpt>
<trkpt lat="54.350365" lon="-3.102608"><ele>184</ele><time>2020-06-12T13:42:02Z</time><name>PT13083</name></trkpt>
<trkpt lat="54.350357" lon="-3.102597"><ele>184</ele><time>2020-06-12T13:42:03Z</time><name>PT13084</name></trkpt>
<trkpt lat="54.350350" lon="-3.102589"><ele>183</ele><time>2020-06-12T13:42:04Z</time><name>PT13085</name></trkpt>
<trkpt lat="54.350345" lon="-3.102581"><ele>183</ele><time>2020-06-12T13:42:05Z</time><name>PT13086</name></trkpt>
<trkpt lat="54.350342" lon="-3.102567"><ele>183</ele><time>2020-06-12T13:42:06Z</time><name>PT13087</name></trkpt>
<trkpt lat="54.350337" lon="-3.102551"><ele>183</ele><time>2020-06-12T13:42:07Z</time><name>PT13088</name></trkpt>
<trkpt lat="54.350331" lon="-3.102542"><ele>183</ele><time>2020-06-12T13:42:08Z</time><name>PT13089</name></trkpt>
<trkpt lat="54.350325" lon="-3.102531"><ele>182</ele><time>2020-06-12T13:42:09Z</time><name>PT13090</name></trkpt>
<trkpt lat="54.350317" lon="-3.102518"><ele>182</ele><time>2020-06-12T13:42:10Z</time><name>PT13091</name></trkpt>
<trkpt lat="54.350308" lon="-3.102506"><ele>181</ele><time>2020-06-12T13:42:11Z</time><name>PT13092</name></trkpt>
<trkpt lat="54.350299" lon="-3.102495"><ele>181</ele><time>2020-06-12T13:42:12Z</time><name>PT13093</name></trkpt>
<trkpt lat="54.350291" lon="-3.102484"><ele>181</ele><time>2020-06-12T13:42:13Z</time><name>PT13094</name></trkpt>
<trkpt lat="54.350286" lon="-3.102475"><ele>180</ele><time>2020-06-12T13:42:14Z</time><name>PT13095</name></trkpt>
<trkpt lat="54.350280" lon="-3.102466"><ele>180</ele><time>2020-06-12T13:42:15Z</time><name>PT13096</name></trkpt>
<trkpt lat="54.350277" lon="-3.102468"><ele>180</ele><time>2020-06-12T13:42:16Z</time><name>PT13097</name></trkpt>
<trkpt lat="54.350268" lon="-3.102460"><ele>181</ele><time>2020-06-12T13:42:17Z</time><name>PT13098</name></trkpt>
<trkpt lat="54.350257" lon="-3.102459"><ele>181</ele><time>2020-06-12T13:42:18Z</time><name>PT13099</name></trkpt>
<trkpt lat="54.350246" lon="-3.102458"><ele>181</ele><time>2020-06-12T13:42:19Z</time><name>PT13100</name></trkpt>
<trkpt lat="54.350238" lon="-3.102452"><ele>180</ele><time>2020-06-12T13:42:20Z</time><name>PT13101</name></trkpt>
<trkpt lat="54.350227" lon="-3.102446"><ele>180</ele><time>2020-06-12T13:42:21Z</time><name>PT13102</name></trkpt>
<trkpt lat="54.350218" lon="-3.102434"><ele>180</ele><time>2020-06-12T13:42:22Z</time><name>PT13103</name></trkpt>
<trkpt lat="54.350207" lon="-3.102421"><ele>179</ele><time>2020-06-12T13:42:23Z</time><name>PT13104</name></trkpt>
<trkpt lat="54.350199" lon="-3.102408"><ele>179</ele><time>2020-06-12T13:42:24Z</time><name>PT13105</name></trkpt>
<trkpt lat="54.350186" lon="-3.102395"><ele>179</ele><time>2020-06-12T13:42:25Z</time><name>PT13106</name></trkpt>
<trkpt lat="54.350176" lon="-3.102378"><ele>179</ele><time>2020-06-12T13:42:26Z</time><name>PT13107</name></trkpt>
<trkpt lat="54.350167" lon="-3.102359"><ele>179</ele><time>2020-06-12T13:42:27Z</time><name>PT13108</name></trkpt>
<trkpt lat="54.350160" lon="-3.102344"><ele>178</ele><time>2020-06-12T13:42:28Z</time><name>PT13109</name></trkpt>
<trkpt lat="54.350153" lon="-3.102325"><ele>178</ele><time>2020-06-12T13:42:29Z</time><name>PT13110</name></trkpt>
<trkpt lat="54.350148" lon="-3.102309"><ele>177</ele><time>2020-06-12T13:42:30Z</time><name>PT13111</name></trkpt>
<trkpt lat="54.350144" lon="-3.102295"><ele>176</ele><time>2020-06-12T13:42:31Z</time><name>PT13112</name></trkpt>
<trkpt lat="54.350136" lon="-3.102279"><ele>176</ele><time>2020-06-12T13:42:32Z</time><name>PT13113</name></trkpt>
<trkpt lat="54.350128" lon="-3.102259"><ele>176</ele><time>2020-06-12T13:42:33Z</time><name>PT13114</name></trkpt>
<trkpt lat="54.350121" lon="-3.102244"><ele>176</ele><time>2020-06-12T13:42:34Z</time><name>PT13115</name></trkpt>
<trkpt lat="54.350115" lon="-3.102228"><ele>176</ele><time>2020-06-12T13:42:35Z</time><name>PT13116</name></trkpt>
<trkpt lat="54.350107" lon="-3.102210"><ele>176</ele><time>2020-06-12T13:42:36Z</time><name>PT13117</name></trkpt>
<trkpt lat="54.350100" lon="-3.102189"><ele>176</ele><time>2020-06-12T13:42:37Z</time><name>PT13118</name></trkpt>
<trkpt lat="54.350094" lon="-3.102170"><ele>176</ele><time>2020-06-12T13:42:38Z</time><name>PT13119</name></trkpt>
<trkpt lat="54.350087" lon="-3.102154"><ele>177</ele><time>2020-06-12T13:42:39Z</time><name>PT13120</name></trkpt>
<trkpt lat="54.350081" lon="-3.102136"><ele>177</ele><time>2020-06-12T13:42:40Z</time><name>PT13121</name></trkpt>
<trkpt lat="54.350075" lon="-3.102116"><ele>176</ele><time>2020-06-12T13:42:41Z</time><name>PT13122</name></trkpt>
<trkpt lat="54.350070" lon="-3.102103"><ele>176</ele><time>2020-06-12T13:42:42Z</time><name>PT13123</name></trkpt>
<trkpt lat="54.350068" lon="-3.102087"><ele>176</ele><time>2020-06-12T13:42:43Z</time><name>PT13124</name></trkpt>
<trkpt lat="54.350062" lon="-3.102074"><ele>176</ele><time>2020-06-12T13:42:44Z</time><name>PT13125</name></trkpt>
<trkpt lat="54.350057" lon="-3.102066"><ele>177</ele><time>2020-06-12T13:42:45Z</time><name>PT13126</name></trkpt>
<trkpt lat="54.350054" lon="-3.102055"><ele>177</ele><time>2020-06-12T13:42:46Z</time><name>PT13127</name></trkpt>
<trkpt lat="54.350056" lon="-3.102050"><ele>177</ele><time>2020-06-12T13:42:47Z</time><name>PT13128</name></trkpt>
<trkpt lat="54.350058" lon="-3.102054"><ele>177</ele><time>2020-06-12T13:42:48Z</time><name>PT13129</name></trkpt>
<trkpt lat="54.350057" lon="-3.102060"><ele>177</ele><time>2020-06-12T13:42:49Z</time><name>PT13130</name></trkpt>
<trkpt lat="54.350057" lon="-3.102061"><ele>177</ele><time>2020-06-12T13:42:50Z</time><name>PT13131</name></trkpt>
<trkpt lat="54.350054" lon="-3.102055"><ele>177</ele><time>2020-06-12T13:42:51Z</time><name>PT13132</name></trkpt>
<trkpt lat="54.350048" lon="-3.102046"><ele>177</ele><time>2020-06-12T13:42:52Z</time><name>PT13133</name></trkpt>
<trkpt lat="54.350043" lon="-3.102032"><ele>178</ele><time>2020-06-12T13:42:53Z</time><name>PT13134</name></trkpt>
<trkpt lat="54.350038" lon="-3.102022"><ele>178</ele><time>2020-06-12T13:42:54Z</time><name>PT13135</name></trkpt>
<trkpt lat="54.350031" lon="-3.102010"><ele>178</ele><time>2020-06-12T13:42:55Z</time><name>PT13136</name></trkpt>
<trkpt lat="54.350021" lon="-3.102001"><ele>177</ele><time>2020-06-12T13:42:56Z</time><name>PT13137</name></trkpt>
<trkpt lat="54.350011" lon="-3.101991"><ele>177</ele><time>2020-06-12T13:42:57Z</time><name>PT13138</name></trkpt>
<trkpt lat="54.350002" lon="-3.101987"><ele>177</ele><time>2020-06-12T13:42:58Z</time><name>PT13139</name></trkpt>
<trkpt lat="54.349992" lon="-3.101982"><ele>178</ele><time>2020-06-12T13:42:59Z</time><name>PT13140</name></trkpt>
<trkpt lat="54.349979" lon="-3.101980"><ele>178</ele><time>2020-06-12T13:43:00Z</time><name>PT13141</name></trkpt>
<trkpt lat="54.349971" lon="-3.101975"><ele>178</ele><time>2020-06-12T13:43:01Z</time><name>PT13142</name></trkpt>
<trkpt lat="54.349958" lon="-3.101971"><ele>179</ele><time>2020-06-12T13:43:02Z</time><name>PT13143</name></trkpt>
<trkpt lat="54.349943" lon="-3.101966"><ele>179</ele><time>2020-06-12T13:43:03Z</time><name>PT13144</name></trkpt>
<trkpt lat="54.349937" lon="-3.101959"><ele>178</ele><time>2020-06-12T13:43:04Z</time><name>PT13145</name></trkpt>
<trkpt lat="54.349926" lon="-3.101955"><ele>179</ele><time>2020-06-12T13:43:05Z</time><name>PT13146</name></trkpt>
<trkpt lat="54.349918" lon="-3.101951"><ele>179</ele><time>2020-06-12T13:43:06Z</time><name>PT13147</name></trkpt>
<trkpt lat="54.349911" lon="-3.101944"><ele>179</ele><time>2020-06-12T13:43:07Z</time><name>PT13148</name></trkpt>
<trkpt lat="54.349893" lon="-3.101951"><ele>178</ele><time>2020-06-12T13:43:08Z</time><name>PT13149</name></trkpt>
<trkpt lat="54.349883" lon="-3.101953"><ele>178</ele><time>2020-06-12T13:43:09Z</time><name>PT13150</name></trkpt>
<trkpt lat="54.349876" lon="-3.101943"><ele>178</ele><time>2020-06-12T13:43:10Z</time><name>PT13151</name></trkpt>
<trkpt lat="54.349869" lon="-3.101940"><ele>178</ele><time>2020-06-12T13:43:11Z</time><name>PT13152</name></trkpt>
<trkpt lat="54.349860" lon="-3.101933"><ele>178</ele><time>2020-06-12T13:43:12Z</time><name>PT13153</name></trkpt>
<trkpt lat="54.349851" lon="-3.101927"><ele>178</ele><time>2020-06-12T13:43:13Z</time><name>PT13154</name></trkpt>
<trkpt lat="54.349840" lon="-3.101921"><ele>178</ele><time>2020-06-12T13:43:14Z</time><name>PT13155</name></trkpt>
<trkpt lat="54.349827" lon="-3.101917"><ele>178</ele><time>2020-06-12T13:43:15Z</time><name>PT13156</name></trkpt>
<trkpt lat="54.349817" lon="-3.101921"><ele>177</ele><time>2020-06-12T13:43:16Z</time><name>PT13157</name></trkpt>
<trkpt lat="54.349808" lon="-3.101916"><ele>177</ele><time>2020-06-12T13:43:17Z</time><name>PT13158</name></trkpt>
<trkpt lat="54.349797" lon="-3.101912"><ele>178</ele><time>2020-06-12T13:43:18Z</time><name>PT13159</name></trkpt>
<trkpt lat="54.349785" lon="-3.101907"><ele>178</ele><time>2020-06-12T13:43:19Z</time><name>PT13160</name></trkpt>
<trkpt lat="54.349777" lon="-3.101900"><ele>178</ele><time>2020-06-12T13:43:20Z</time><name>PT13161</name></trkpt>
<trkpt lat="54.349766" lon="-3.101894"><ele>177</ele><time>2020-06-12T13:43:21Z</time><name>PT13162</name></trkpt>
<trkpt lat="54.349759" lon="-3.101897"><ele>177</ele><time>2020-06-12T13:43:22Z</time><name>PT13163</name></trkpt>
<trkpt lat="54.349754" lon="-3.101894"><ele>177</ele><time>2020-06-12T13:43:23Z</time><name>PT13164</name></trkpt>
<trkpt lat="54.349742" lon="-3.101891"><ele>177</ele><time>2020-06-12T13:43:24Z</time><name>PT13165</name></trkpt>
<trkpt lat="54.349732" lon="-3.101885"><ele>176</ele><time>2020-06-12T13:43:25Z</time><name>PT13166</name></trkpt>
<trkpt lat="54.349724" lon="-3.101882"><ele>176</ele><time>2020-06-12T13:43:26Z</time><name>PT13167</name></trkpt>
<trkpt lat="54.349715" lon="-3.101881"><ele>176</ele><time>2020-06-12T13:43:27Z</time><name>PT13168</name></trkpt>
<trkpt lat="54.349704" lon="-3.101876"><ele>176</ele><time>2020-06-12T13:43:28Z</time><name>PT13169</name></trkpt>
<trkpt lat="54.349692" lon="-3.101871"><ele>175</ele><time>2020-06-12T13:43:29Z</time><name>PT13170</name></trkpt>
<trkpt lat="54.349683" lon="-3.101871"><ele>175</ele><time>2020-06-12T13:43:30Z</time><name>PT13171</name></trkpt>
<trkpt lat="54.349671" lon="-3.101876"><ele>175</ele><time>2020-06-12T13:43:31Z</time><name>PT13172</name></trkpt>
<trkpt lat="54.349665" lon="-3.101875"><ele>175</ele><time>2020-06-12T13:43:32Z</time><name>PT13173</name></trkpt>
<trkpt lat="54.349658" lon="-3.101871"><ele>175</ele><time>2020-06-12T13:43:33Z</time><name>PT13174</name></trkpt>
<trkpt lat="54.349650" lon="-3.101867"><ele>175</ele><time>2020-06-12T13:43:34Z</time><name>PT13175</name></trkpt>
<trkpt lat="54.349643" lon="-3.101865"><ele>174</ele><time>2020-06-12T13:43:35Z</time><name>PT13176</name></trkpt>
<trkpt lat="54.349635" lon="-3.101858"><ele>174</ele><time>2020-06-12T13:43:36Z</time><name>PT13177</name></trkpt>
<trkpt lat="54.349626" lon="-3.101860"><ele>173</ele><time>2020-06-12T13:43:37Z</time><name>PT13178</name></trkpt>
<trkpt lat="54.349617" lon="-3.101858"><ele>173</ele><time>2020-06-12T13:43:38Z</time><name>PT13179</name></trkpt>
<trkpt lat="54.349611" lon="-3.101853"><ele>173</ele><time>2020-06-12T13:43:39Z</time><name>PT13180</name></trkpt>
<trkpt lat="54.349602" lon="-3.101849"><ele>173</ele><time>2020-06-12T13:43:40Z</time><name>PT13181</name></trkpt>
<trkpt lat="54.349590" lon="-3.101846"><ele>172</ele><time>2020-06-12T13:43:41Z</time><name>PT13182</name></trkpt>
<trkpt lat="54.349580" lon="-3.101838"><ele>172</ele><time>2020-06-12T13:43:42Z</time><name>PT13183</name></trkpt>
<trkpt lat="54.349568" lon="-3.101849"><ele>170</ele><time>2020-06-12T13:43:43Z</time><name>PT13184</name></trkpt>
<trkpt lat="54.349557" lon="-3.101848"><ele>170</ele><time>2020-06-12T13:43:44Z</time><name>PT13185</name></trkpt>
<trkpt lat="54.349551" lon="-3.101845"><ele>169</ele><time>2020-06-12T13:43:45Z</time><name>PT13186</name></trkpt>
<trkpt lat="54.349542" lon="-3.101839"><ele>169</ele><time>2020-06-12T13:43:46Z</time><name>PT13187</name></trkpt>
<trkpt lat="54.349529" lon="-3.101835"><ele>169</ele><time>2020-06-12T13:43:47Z</time><name>PT13188</name></trkpt>
<trkpt lat="54.349521" lon="-3.101830"><ele>169</ele><time>2020-06-12T13:43:48Z</time><name>PT13189</name></trkpt>
<trkpt lat="54.349515" lon="-3.101819"><ele>170</ele><time>2020-06-12T13:43:49Z</time><name>PT13190</name></trkpt>
<trkpt lat="54.349505" lon="-3.101811"><ele>170</ele><time>2020-06-12T13:43:50Z</time><name>PT13191</name></trkpt>
<trkpt lat="54.349494" lon="-3.101800"><ele>170</ele><time>2020-06-12T13:43:51Z</time><name>PT13192</name></trkpt>
<trkpt lat="54.349481" lon="-3.101787"><ele>170</ele><time>2020-06-12T13:43:52Z</time><name>PT13193</name></trkpt>
<trkpt lat="54.349470" lon="-3.101781"><ele>171</ele><time>2020-06-12T13:43:53Z</time><name>PT13194</name></trkpt>
<trkpt lat="54.349463" lon="-3.101770"><ele>171</ele><time>2020-06-12T13:43:54Z</time><name>PT13195</name></trkpt>
<trkpt lat="54.349450" lon="-3.101759"><ele>171</ele><time>2020-06-12T13:43:55Z</time><name>PT13196</name></trkpt>
<trkpt lat="54.349444" lon="-3.101751"><ele>171</ele><time>2020-06-12T13:43:56Z</time><name>PT13197</name></trkpt>
<trkpt lat="54.349437" lon="-3.101736"><ele>171</ele><time>2020-06-12T13:43:57Z</time><name>PT13198</name></trkpt>
<trkpt lat="54.349430" lon="-3.101724"><ele>171</ele><time>2020-06-12T13:43:58Z</time><name>PT13199</name></trkpt>
<trkpt lat="54.349425" lon="-3.101726"><ele>170</ele><time>2020-06-12T13:43:59Z</time><name>PT13200</name></trkpt>
<trkpt lat="54.349416" lon="-3.101721"><ele>170</ele><time>2020-06-12T13:44:00Z</time><name>PT13201</name></trkpt>
<trkpt lat="54.349406" lon="-3.101711"><ele>170</ele><time>2020-06-12T13:44:01Z</time><name>PT13202</name></trkpt>
<trkpt lat="54.349399" lon="-3.101698"><ele>169</ele><time>2020-06-12T13:44:02Z</time><name>PT13203</name></trkpt>
<trkpt lat="54.349393" lon="-3.101686"><ele>169</ele><time>2020-06-12T13:44:03Z</time><name>PT13204</name></trkpt>
<trkpt lat="54.349387" lon="-3.101678"><ele>168</ele><time>2020-06-12T13:44:04Z</time><name>PT13205</name></trkpt>
<trkpt lat="54.349378" lon="-3.101667"><ele>169</ele><time>2020-06-12T13:44:05Z</time><name>PT13206</name></trkpt>
<trkpt lat="54.349370" lon="-3.101658"><ele>169</ele><time>2020-06-12T13:44:06Z</time><name>PT13207</name></trkpt>
<trkpt lat="54.349358" lon="-3.101646"><ele>170</ele><time>2020-06-12T13:44:07Z</time><name>PT13208</name></trkpt>
<trkpt lat="54.349343" lon="-3.101625"><ele>170</ele><time>2020-06-12T13:44:08Z</time><name>PT13209</name></trkpt>
<trkpt lat="54.349334" lon="-3.101619"><ele>170</ele><time>2020-06-12T13:44:09Z</time><name>PT13210</name></trkpt>
<trkpt lat="54.349328" lon="-3.101616"><ele>170</ele><time>2020-06-12T13:44:10Z</time><name>PT13211</name></trkpt>
<trkpt lat="54.349316" lon="-3.101610"><ele>170</ele><time>2020-06-12T13:44:11Z</time><name>PT13212</name></trkpt>
<trkpt lat="54.349301" lon="-3.101598"><ele>170</ele><time>2020-06-12T13:44:12Z</time><name>PT13213</name></trkpt>
<trkpt lat="54.349290" lon="-3.101591"><ele>171</ele><time>2020-06-12T13:44:13Z</time><name>PT13214</name></trkpt>
<trkpt lat="54.349278" lon="-3.101586"><ele>171</ele><time>2020-06-12T13:44:14Z</time><name>PT13215</name></trkpt>
<trkpt lat="54.349264" lon="-3.101581"><ele>171</ele><time>2020-06-12T13:44:15Z</time><name>PT13216</name></trkpt>
<trkpt lat="54.349259" lon="-3.101578"><ele>171</ele><time>2020-06-12T13:44:16Z</time><name>PT13217</name></trkpt>
<trkpt lat="54.349250" lon="-3.101567"><ele>173</ele><time>2020-06-12T13:44:17Z</time><name>PT13218</name></trkpt>
<trkpt lat="54.349247" lon="-3.101565"><ele>171</ele><time>2020-06-12T13:44:18Z</time><name>PT13219</name></trkpt>
<trkpt lat="54.349235" lon="-3.101562"><ele>171</ele><time>2020-06-12T13:44:19Z</time><name>PT13220</name></trkpt>
<trkpt lat="54.349228" lon="-3.101561"><ele>170</ele><time>2020-06-12T13:44:20Z</time><name>PT13221</name></trkpt>
<trkpt lat="54.349222" lon="-3.101562"><ele>170</ele><time>2020-06-12T13:44:21Z</time><name>PT13222</name></trkpt>
<trkpt lat="54.349217" lon="-3.101555"><ele>170</ele><time>2020-06-12T13:44:22Z</time><name>PT13223</name></trkpt>
<trkpt lat="54.349206" lon="-3.101544"><ele>170</ele><time>2020-06-12T13:44:23Z</time><name>PT13224</name></trkpt>
<trkpt lat="54.349194" lon="-3.101527"><ele>170</ele><time>2020-06-12T13:44:24Z</time><name>PT13225</name></trkpt>
<trkpt lat="54.349186" lon="-3.101519"><ele>170</ele><time>2020-06-12T13:44:25Z</time><name>PT13226</name></trkpt>
<trkpt lat="54.349174" lon="-3.101515"><ele>171</ele><time>2020-06-12T13:44:26Z</time><name>PT13227</name></trkpt>
<trkpt lat="54.349159" lon="-3.101507"><ele>172</ele><time>2020-06-12T13:44:27Z</time><name>PT13228</name></trkpt>
<trkpt lat="54.349147" lon="-3.101495"><ele>172</ele><time>2020-06-12T13:44:28Z</time><name>PT13229</name></trkpt>
<trkpt lat="54.349135" lon="-3.101482"><ele>173</ele><time>2020-06-12T13:44:29Z</time><name>PT13230</name></trkpt>
<trkpt lat="54.349127" lon="-3.101469"><ele>173</ele><time>2020-06-12T13:44:30Z</time><name>PT13231</name></trkpt>
<trkpt lat="54.349117" lon="-3.101462"><ele>173</ele><time>2020-06-12T13:44:31Z</time><name>PT13232</name></trkpt>
<trkpt lat="54.349104" lon="-3.101451"><ele>173</ele><time>2020-06-12T13:44:32Z</time><name>PT13233</name></trkpt>
<trkpt lat="54.349092" lon="-3.101438"><ele>174</ele><time>2020-06-12T13:44:33Z</time><name>PT13234</name></trkpt>
<trkpt lat="54.349084" lon="-3.101427"><ele>175</ele><time>2020-06-12T13:44:34Z</time><name>PT13235</name></trkpt>
<trkpt lat="54.349074" lon="-3.101418"><ele>175</ele><time>2020-06-12T13:44:35Z</time><name>PT13236</name></trkpt>
<trkpt lat="54.349064" lon="-3.101408"><ele>175</ele><time>2020-06-12T13:44:36Z</time><name>PT13237</name></trkpt>
<trkpt lat="54.349056" lon="-3.101397"><ele>174</ele><time>2020-06-12T13:44:37Z</time><name>PT13238</name></trkpt>
<trkpt lat="54.349045" lon="-3.101386"><ele>174</ele><time>2020-06-12T13:44:38Z</time><name>PT13239</name></trkpt>
<trkpt lat="54.349036" lon="-3.101368"><ele>174</ele><time>2020-06-12T13:44:39Z</time><name>PT13240</name></trkpt>
<trkpt lat="54.349026" lon="-3.101355"><ele>174</ele><time>2020-06-12T13:44:40Z</time><name>PT13241</name></trkpt>
<trkpt lat="54.349018" lon="-3.101347"><ele>174</ele><time>2020-06-12T13:44:41Z</time><name>PT13242</name></trkpt>
<trkpt lat="54.349013" lon="-3.101335"><ele>175</ele><time>2020-06-12T13:44:42Z</time><name>PT13243</name></trkpt>
<trkpt lat="54.349003" lon="-3.101325"><ele>175</ele><time>2020-06-12T13:44:43Z</time><name>PT13244</name></trkpt>
<trkpt lat="54.348995" lon="-3.101307"><ele>175</ele><time>2020-06-12T13:44:44Z</time><name>PT13245</name></trkpt>
<trkpt lat="54.348982" lon="-3.101285"><ele>176</ele><time>2020-06-12T13:44:45Z</time><name>PT13246</name></trkpt>
<trkpt lat="54.348975" lon="-3.101268"><ele>177</ele><time>2020-06-12T13:44:46Z</time><name>PT13247</name></trkpt>
<trkpt lat="54.348965" lon="-3.101255"><ele>177</ele><time>2020-06-12T13:44:47Z</time><name>PT13248</name></trkpt>
<trkpt lat="54.348958" lon="-3.101244"><ele>177</ele><time>2020-06-12T13:44:48Z</time><name>PT13249</name></trkpt>
<trkpt lat="54.348953" lon="-3.101232"><ele>177</ele><time>2020-06-12T13:44:49Z</time><name>PT13250</name></trkpt>
<trkpt lat="54.348947" lon="-3.101213"><ele>176</ele><time>2020-06-12T13:44:50Z</time><name>PT13251</name></trkpt>
<trkpt lat="54.348942" lon="-3.101195"><ele>177</ele><time>2020-06-12T13:44:51Z</time><name>PT13252</name></trkpt>
<trkpt lat="54.348937" lon="-3.101179"><ele>177</ele><time>2020-06-12T13:44:52Z</time><name>PT13253</name></trkpt>
<trkpt lat="54.348929" lon="-3.101164"><ele>177</ele><time>2020-06-12T13:44:53Z</time><name>PT13254</name></trkpt>
<trkpt lat="54.348923" lon="-3.101149"><ele>177</ele><time>2020-06-12T13:44:54Z</time><name>PT13255</name></trkpt>
<trkpt lat="54.348919" lon="-3.101129"><ele>176</ele><time>2020-06-12T13:44:55Z</time><name>PT13256</name></trkpt>
<trkpt lat="54.348912" lon="-3.101108"><ele>177</ele><time>2020-06-12T13:44:56Z</time><name>PT13257</name></trkpt>
<trkpt lat="54.348906" lon="-3.101090"><ele>177</ele><time>2020-06-12T13:44:57Z</time><name>PT13258</name></trkpt>
<trkpt lat="54.348903" lon="-3.101073"><ele>176</ele><time>2020-06-12T13:44:58Z</time><name>PT13259</name></trkpt>
<trkpt lat="54.348899" lon="-3.101058"><ele>176</ele><time>2020-06-12T13:44:59Z</time><name>PT13260</name></trkpt>
<trkpt lat="54.348893" lon="-3.101041"><ele>176</ele><time>2020-06-12T13:45:00Z</time><name>PT13261</name></trkpt>
<trkpt lat="54.348890" lon="-3.101025"><ele>176</ele><time>2020-06-12T13:45:01Z</time><name>PT13262</name></trkpt>
<trkpt lat="54.348882" lon="-3.101014"><ele>176</ele><time>2020-06-12T13:45:02Z</time><name>PT13263</name></trkpt>
<trkpt lat="54.348872" lon="-3.101001"><ele>176</ele><time>2020-06-12T13:45:03Z</time><name>PT13264</name></trkpt>
<trkpt lat="54.348864" lon="-3.100986"><ele>176</ele><time>2020-06-12T13:45:04Z</time><name>PT13265</name></trkpt>
<trkpt lat="54.348857" lon="-3.100967"><ele>176</ele><time>2020-06-12T13:45:05Z</time><name>PT13266</name></trkpt>
<trkpt lat="54.348848" lon="-3.100950"><ele>176</ele><time>2020-06-12T13:45:06Z</time><name>PT13267</name></trkpt>
<trkpt lat="54.348839" lon="-3.100930"><ele>177</ele><time>2020-06-12T13:45:07Z</time><name>PT13268</name></trkpt>
<trkpt lat="54.348836" lon="-3.100916"><ele>177</ele><time>2020-06-12T13:45:08Z</time><name>PT13269</name></trkpt>
<trkpt lat="54.348831" lon="-3.100901"><ele>177</ele><time>2020-06-12T13:45:09Z</time><name>PT13270</name></trkpt>
<trkpt lat="54.348823" lon="-3.100882"><ele>177</ele><time>2020-06-12T13:45:10Z</time><name>PT13271</name></trkpt>
<trkpt lat="54.348819" lon="-3.100861"><ele>178</ele><time>2020-06-12T13:45:11Z</time><name>PT13272</name></trkpt>
<trkpt lat="54.348817" lon="-3.100850"><ele>176</ele><time>2020-06-12T13:45:12Z</time><name>PT13273</name></trkpt>
<trkpt lat="54.348808" lon="-3.100838"><ele>176</ele><time>2020-06-12T13:45:13Z</time><name>PT13274</name></trkpt>
<trkpt lat="54.348799" lon="-3.100823"><ele>176</ele><time>2020-06-12T13:45:14Z</time><name>PT13275</name></trkpt>
<trkpt lat="54.348791" lon="-3.100803"><ele>177</ele><time>2020-06-12T13:45:15Z</time><name>PT13276</name></trkpt>
<trkpt lat="54.348789" lon="-3.100783"><ele>175</ele><time>2020-06-12T13:45:16Z</time><name>PT13277</name></trkpt>
<trkpt lat="54.348784" lon="-3.100762"><ele>174</ele><time>2020-06-12T13:45:17Z</time><name>PT13278</name></trkpt>
<trkpt lat="54.348780" lon="-3.100743"><ele>174</ele><time>2020-06-12T13:45:18Z</time><name>PT13279</name></trkpt>
<trkpt lat="54.348768" lon="-3.100725"><ele>173</ele><time>2020-06-12T13:45:19Z</time><name>PT13280</name></trkpt>
<trkpt lat="54.348759" lon="-3.100710"><ele>173</ele><time>2020-06-12T13:45:20Z</time><name>PT13281</name></trkpt>
<trkpt lat="54.348749" lon="-3.100698"><ele>173</ele><time>2020-06-12T13:45:21Z</time><name>PT13282</name></trkpt>
<trkpt lat="54.348738" lon="-3.100679"><ele>174</ele><time>2020-06-12T13:45:22Z</time><name>PT13283</name></trkpt>
<trkpt lat="54.348730" lon="-3.100665"><ele>173</ele><time>2020-06-12T13:45:23Z</time><name>PT13284</name></trkpt>
<trkpt lat="54.348720" lon="-3.100654"><ele>173</ele><time>2020-06-12T13:45:24Z</time><name>PT13285</name></trkpt>
<trkpt lat="54.348711" lon="-3.100644"><ele>173</ele><time>2020-06-12T13:45:25Z</time><name>PT13286</name></trkpt>
<trkpt lat="54.348703" lon="-3.100624"><ele>174</ele><time>2020-06-12T13:45:26Z</time><name>PT13287</name></trkpt>
<trkpt lat="54.348694" lon="-3.100609"><ele>174</ele><time>2020-06-12T13:45:27Z</time><name>PT13288</name></trkpt>
<trkpt lat="54.348683" lon="-3.100595"><ele>175</ele><time>2020-06-12T13:45:28Z</time><name>PT13289</name></trkpt>
<trkpt lat="54.348675" lon="-3.100582"><ele>174</ele><time>2020-06-12T13:45:29Z</time><name>PT13290</name></trkpt>
<trkpt lat="54.348671" lon="-3.100568"><ele>174</ele><time>2020-06-12T13:45:30Z</time><name>PT13291</name></trkpt>
<trkpt lat="54.348666" lon="-3.100550"><ele>174</ele><time>2020-06-12T13:45:31Z</time><name>PT13292</name></trkpt>
<trkpt lat="54.348657" lon="-3.100534"><ele>175</ele><time>2020-06-12T13:45:32Z</time><name>PT13293</name></trkpt>
<trkpt lat="54.348648" lon="-3.100522"><ele>175</ele><time>2020-06-12T13:45:33Z</time><name>PT13294</name></trkpt>
<trkpt lat="54.348638" lon="-3.100512"><ele>175</ele><time>2020-06-12T13:45:34Z</time><name>PT13295</name></trkpt>
<trkpt lat="54.348634" lon="-3.100502"><ele>174</ele><time>2020-06-12T13:45:35Z</time><name>PT13296</name></trkpt>
<trkpt lat="54.348625" lon="-3.100486"><ele>174</ele><time>2020-06-12T13:45:36Z</time><name>PT13297</name></trkpt>
<trkpt lat="54.348614" lon="-3.100470"><ele>175</ele><time>2020-06-12T13:45:37Z</time><name>PT13298</name></trkpt>
<trkpt lat="54.348609" lon="-3.100456"><ele>175</ele><time>2020-06-12T13:45:38Z</time><name>PT13299</name></trkpt>
<trkpt lat="54.348602" lon="-3.100445"><ele>175</ele><time>2020-06-12T13:45:39Z</time><name>PT13300</name></trkpt>
<trkpt lat="54.348598" lon="-3.100435"><ele>174</ele><time>2020-06-12T13:45:40Z</time><name>PT13301</name></trkpt>
<trkpt lat="54.348590" lon="-3.100421"><ele>174</ele><time>2020-06-12T13:45:41Z</time><name>PT13302</name></trkpt>
<trkpt lat="54.348584" lon="-3.100408"><ele>174</ele><time>2020-06-12T13:45:42Z</time><name>PT13303</name></trkpt>
<trkpt lat="54.348579" lon="-3.100393"><ele>174</ele><time>2020-06-12T13:45:43Z</time><name>PT13304</name></trkpt>
<trkpt lat="54.348571" lon="-3.100378"><ele>174</ele><time>2020-06-12T13:45:44Z</time><name>PT13305</name></trkpt>
<trkpt lat="54.348565" lon="-3.100366"><ele>174</ele><time>2020-06-12T13:45:45Z</time><name>PT13306</name></trkpt>
<trkpt lat="54.348559" lon="-3.100353"><ele>174</ele><time>2020-06-12T13:45:46Z</time><name>PT13307</name></trkpt>
<trkpt lat="54.348551" lon="-3.100339"><ele>174</ele><time>2020-06-12T13:45:47Z</time><name>PT13308</name></trkpt>
<trkpt lat="54.348544" lon="-3.100326"><ele>174</ele><time>2020-06-12T13:45:48Z</time><name>PT13309</name></trkpt>
<trkpt lat="54.348540" lon="-3.100309"><ele>174</ele><time>2020-06-12T13:45:49Z</time><name>PT13310</name></trkpt>
<trkpt lat="54.348535" lon="-3.100293"><ele>174</ele><time>2020-06-12T13:45:50Z</time><name>PT13311</name></trkpt>
<trkpt lat="54.348532" lon="-3.100279"><ele>174</ele><time>2020-06-12T13:45:51Z</time><name>PT13312</name></trkpt>
<trkpt lat="54.348531" lon="-3.100268"><ele>174</ele><time>2020-06-12T13:45:52Z</time><name>PT13313</name></trkpt>
<trkpt lat="54.348528" lon="-3.100255"><ele>174</ele><time>2020-06-12T13:45:53Z</time><name>PT13314</name></trkpt>
<trkpt lat="54.348527" lon="-3.100241"><ele>174</ele><time>2020-06-12T13:45:54Z</time><name>PT13315</name></trkpt>
<trkpt lat="54.348528" lon="-3.100228"><ele>173</ele><time>2020-06-12T13:45:55Z</time><name>PT13316</name></trkpt>
<trkpt lat="54.348526" lon="-3.100211"><ele>173</ele><time>2020-06-12T13:45:56Z</time><name>PT13317</name></trkpt>
<trkpt lat="54.348520" lon="-3.100195"><ele>173</ele><time>2020-06-12T13:45:57Z</time><name>PT13318</name></trkpt>
<trkpt lat="54.348514" lon="-3.100178"><ele>173</ele><time>2020-06-12T13:45:58Z</time><name>PT13319</name></trkpt>
<trkpt lat="54.348510" lon="-3.100161"><ele>173</ele><time>2020-06-12T13:45:59Z</time><name>PT13320</name></trkpt>
<trkpt lat="54.348505" lon="-3.100144"><ele>172</ele><time>2020-06-12T13:46:00Z</time><name>PT13321</name></trkpt>
<trkpt lat="54.348499" lon="-3.100133"><ele>172</ele><time>2020-06-12T13:46:01Z</time><name>PT13322</name></trkpt>
<trkpt lat="54.348489" lon="-3.100115"><ele>172</ele><time>2020-06-12T13:46:02Z</time><name>PT13323</name></trkpt>
<trkpt lat="54.348483" lon="-3.100098"><ele>172</ele><time>2020-06-12T13:46:03Z</time><name>PT13324</name></trkpt>
<trkpt lat="54.348483" lon="-3.100088"><ele>173</ele><time>2020-06-12T13:46:04Z</time><name>PT13325</name></trkpt>
<trkpt lat="54.348481" lon="-3.100072"><ele>173</ele><time>2020-06-12T13:46:05Z</time><name>PT13326</name></trkpt>
<trkpt lat="54.348478" lon="-3.100056"><ele>172</ele><time>2020-06-12T13:46:06Z</time><name>PT13327</name></trkpt>
<trkpt lat="54.348475" lon="-3.100038"><ele>172</ele><time>2020-06-12T13:46:07Z</time><name>PT13328</name></trkpt>
<trkpt lat="54.348471" lon="-3.100023"><ele>172</ele><time>2020-06-12T13:46:08Z</time><name>PT13329</name></trkpt>
<trkpt lat="54.348465" lon="-3.100006"><ele>172</ele><time>2020-06-12T13:46:09Z</time><name>PT13330</name></trkpt>
<trkpt lat="54.348461" lon="-3.099994"><ele>172</ele><time>2020-06-12T13:46:10Z</time><name>PT13331</name></trkpt>
<trkpt lat="54.348458" lon="-3.099978"><ele>172</ele><time>2020-06-12T13:46:11Z</time><name>PT13332</name></trkpt>
<trkpt lat="54.348453" lon="-3.099961"><ele>172</ele><time>2020-06-12T13:46:12Z</time><name>PT13333</name></trkpt>
<trkpt lat="54.348450" lon="-3.099943"><ele>171</ele><time>2020-06-12T13:46:13Z</time><name>PT13334</name></trkpt>
<trkpt lat="54.348446" lon="-3.099927"><ele>171</ele><time>2020-06-12T13:46:14Z</time><name>PT13335</name></trkpt>
<trkpt lat="54.348444" lon="-3.099909"><ele>170</ele><time>2020-06-12T13:46:15Z</time><name>PT13336</name></trkpt>
<trkpt lat="54.348439" lon="-3.099880"><ele>170</ele><time>2020-06-12T13:46:16Z</time><name>PT13337</name></trkpt>
<trkpt lat="54.348432" lon="-3.099858"><ele>170</ele><time>2020-06-12T13:46:17Z</time><name>PT13338</name></trkpt>
<trkpt lat="54.348425" lon="-3.099842"><ele>170</ele><time>2020-06-12T13:46:18Z</time><name>PT13339</name></trkpt>
<trkpt lat="54.348419" lon="-3.099832"><ele>170</ele><time>2020-06-12T13:46:19Z</time><name>PT13340</name></trkpt>
<trkpt lat="54.348413" lon="-3.099816"><ele>170</ele><time>2020-06-12T13:46:20Z</time><name>PT13341</name></trkpt>
<trkpt lat="54.348407" lon="-3.099801"><ele>169</ele><time>2020-06-12T13:46:21Z</time><name>PT13342</name></trkpt>
<trkpt lat="54.348400" lon="-3.099784"><ele>169</ele><time>2020-06-12T13:46:22Z</time><name>PT13343</name></trkpt>
<trkpt lat="54.348391" lon="-3.099769"><ele>170</ele><time>2020-06-12T13:46:23Z</time><name>PT13344</name></trkpt>
<trkpt lat="54.348381" lon="-3.099756"><ele>170</ele><time>2020-06-12T13:46:24Z</time><name>PT13345</name></trkpt>
<trkpt lat="54.348371" lon="-3.099740"><ele>169</ele><time>2020-06-12T13:46:25Z</time><name>PT13346</name></trkpt>
<trkpt lat="54.348365" lon="-3.099722"><ele>169</ele><time>2020-06-12T13:46:26Z</time><name>PT13347</name></trkpt>
<trkpt lat="54.348357" lon="-3.099706"><ele>169</ele><time>2020-06-12T13:46:27Z</time><name>PT13348</name></trkpt>
<trkpt lat="54.348349" lon="-3.099691"><ele>169</ele><time>2020-06-12T13:46:28Z</time><name>PT13349</name></trkpt>
<trkpt lat="54.348340" lon="-3.099671"><ele>169</ele><time>2020-06-12T13:46:29Z</time><name>PT13350</name></trkpt>
<trkpt lat="54.348332" lon="-3.099657"><ele>168</ele><time>2020-06-12T13:46:30Z</time><name>PT13351</name></trkpt>
<trkpt lat="54.348325" lon="-3.099641"><ele>168</ele><time>2020-06-12T13:46:31Z</time><name>PT13352</name></trkpt>
<trkpt lat="54.348316" lon="-3.099621"><ele>169</ele><time>2020-06-12T13:46:32Z</time><name>PT13353</name></trkpt>
<trkpt lat="54.348306" lon="-3.099611"><ele>170</ele><time>2020-06-12T13:46:33Z</time><name>PT13354</name></trkpt>
<trkpt lat="54.348296" lon="-3.099600"><ele>170</ele><time>2020-06-12T13:46:34Z</time><name>PT13355</name></trkpt>
<trkpt lat="54.348290" lon="-3.099588"><ele>170</ele><time>2020-06-12T13:46:35Z</time><name>PT13356</name></trkpt>
<trkpt lat="54.348283" lon="-3.099577"><ele>171</ele><time>2020-06-12T13:46:36Z</time><name>PT13357</name></trkpt>
<trkpt lat="54.348272" lon="-3.099563"><ele>171</ele><time>2020-06-12T13:46:37Z</time><name>PT13358</name></trkpt>
<trkpt lat="54.348263" lon="-3.099546"><ele>170</ele><time>2020-06-12T13:46:38Z</time><name>PT13359</name></trkpt>
<trkpt lat="54.348250" lon="-3.099530"><ele>170</ele><time>2020-06-12T13:46:39Z</time><name>PT13360</name></trkpt>
<trkpt lat="54.348240" lon="-3.099520"><ele>170</ele><time>2020-06-12T13:46:40Z</time><name>PT13361</name></trkpt>
<trkpt lat="54.348232" lon="-3.099514"><ele>170</ele><time>2020-06-12T13:46:41Z</time><name>PT13362</name></trkpt>
<trkpt lat="54.348222" lon="-3.099507"><ele>170</ele><time>2020-06-12T13:46:42Z</time><name>PT13363</name></trkpt>
<trkpt lat="54.348213" lon="-3.099501"><ele>170</ele><time>2020-06-12T13:46:43Z</time><name>PT13364</name></trkpt>
<trkpt lat="54.348201" lon="-3.099492"><ele>170</ele><time>2020-06-12T13:46:44Z</time><name>PT13365</name></trkpt>
<trkpt lat="54.348185" lon="-3.099489"><ele>170</ele><time>2020-06-12T13:46:45Z</time><name>PT13366</name></trkpt>
<trkpt lat="54.348174" lon="-3.099486"><ele>170</ele><time>2020-06-12T13:46:46Z</time><name>PT13367</name></trkpt>
<trkpt lat="54.348164" lon="-3.099478"><ele>170</ele><time>2020-06-12T13:46:47Z</time><name>PT13368</name></trkpt>
<trkpt lat="54.348152" lon="-3.099472"><ele>170</ele><time>2020-06-12T13:46:48Z</time><name>PT13369</name></trkpt>
<trkpt lat="54.348139" lon="-3.099464"><ele>171</ele><time>2020-06-12T13:46:49Z</time><name>PT13370</name></trkpt>
<trkpt lat="54.348127" lon="-3.099452"><ele>171</ele><time>2020-06-12T13:46:50Z</time><name>PT13371</name></trkpt>
<trkpt lat="54.348116" lon="-3.099440"><ele>171</ele><time>2020-06-12T13:46:51Z</time><name>PT13372</name></trkpt>
<trkpt lat="54.348107" lon="-3.099428"><ele>171</ele><time>2020-06-12T13:46:52Z</time><name>PT13373</name></trkpt>
<trkpt lat="54.348097" lon="-3.099418"><ele>171</ele><time>2020-06-12T13:46:53Z</time><name>PT13374</name></trkpt>
<trkpt lat="54.348083" lon="-3.099406"><ele>171</ele><time>2020-06-12T13:46:54Z</time><name>PT13375</name></trkpt>
<trkpt lat="54.348070" lon="-3.099389"><ele>171</ele><time>2020-06-12T13:46:55Z</time><name>PT13376</name></trkpt>
<trkpt lat="54.348063" lon="-3.099376"><ele>171</ele><time>2020-06-12T13:46:56Z</time><name>PT13377</name></trkpt>
<trkpt lat="54.348054" lon="-3.099362"><ele>171</ele><time>2020-06-12T13:46:57Z</time><name>PT13378</name></trkpt>
<trkpt lat="54.348045" lon="-3.099351"><ele>171</ele><time>2020-06-12T13:46:58Z</time><name>PT13379</name></trkpt>
<trkpt lat="54.348036" lon="-3.099341"><ele>171</ele><time>2020-06-12T13:46:59Z</time><name>PT13380</name></trkpt>
<trkpt lat="54.348026" lon="-3.099330"><ele>172</ele><time>2020-06-12T13:47:00Z</time><name>PT13381</name></trkpt>
<trkpt lat="54.348020" lon="-3.099324"><ele>171</ele><time>2020-06-12T13:47:01Z</time><name>PT13382</name></trkpt>
<trkpt lat="54.348015" lon="-3.099317"><ele>171</ele><time>2020-06-12T13:47:02Z</time><name>PT13383</name></trkpt>
<trkpt lat="54.348009" lon="-3.099311"><ele>171</ele><time>2020-06-12T13:47:03Z</time><name>PT13384</name></trkpt>
<trkpt lat="54.347999" lon="-3.099306"><ele>170</ele><time>2020-06-12T13:47:04Z</time><name>PT13385</name></trkpt>
<trkpt lat="54.347991" lon="-3.099294"><ele>170</ele><time>2020-06-12T13:47:05Z</time><name>PT13386</name></trkpt>
<trkpt lat="54.347985" lon="-3.099285"><ele>170</ele><time>2020-06-12T13:47:06Z</time><name>PT13387</name></trkpt>
<trkpt lat="54.347973" lon="-3.099277"><ele>169</ele><time>2020-06-12T13:47:07Z</time><name>PT13388</name></trkpt>
<trkpt lat="54.347963" lon="-3.099265"><ele>169</ele><time>2020-06-12T13:47:08Z</time><name>PT13389</name></trkpt>
<trkpt lat="54.347964" lon="-3.099237"><ele>170</ele><time>2020-06-12T13:47:09Z</time><name>PT13390</name></trkpt>
<trkpt lat="54.347953" lon="-3.099223"><ele>170</ele><time>2020-06-12T13:47:10Z</time><name>PT13391</name></trkpt>
<trkpt lat="54.347944" lon="-3.099208"><ele>170</ele><time>2020-06-12T13:47:11Z</time><name>PT13392</name></trkpt>
<trkpt lat="54.347938" lon="-3.099195"><ele>170</ele><time>2020-06-12T13:47:12Z</time><name>PT13393</name></trkpt>
<trkpt lat="54.347928" lon="-3.099183"><ele>170</ele><time>2020-06-12T13:47:13Z</time><name>PT13394</name></trkpt>
<trkpt lat="54.347921" lon="-3.099166"><ele>170</ele><time>2020-06-12T13:47:14Z</time><name>PT13395</name></trkpt>
<trkpt lat="54.347914" lon="-3.099147"><ele>170</ele><time>2020-06-12T13:47:15Z</time><name>PT13396</name></trkpt>
<trkpt lat="54.347902" lon="-3.099137"><ele>170</ele><time>2020-06-12T13:47:16Z</time><name>PT13397</name></trkpt>
<trkpt lat="54.347898" lon="-3.099126"><ele>170</ele><time>2020-06-12T13:47:17Z</time><name>PT13398</name></trkpt>
<trkpt lat="54.347886" lon="-3.099117"><ele>170</ele><time>2020-06-12T13:47:18Z</time><name>PT13399</name></trkpt>
<trkpt lat="54.347875" lon="-3.099107"><ele>170</ele><time>2020-06-12T13:47:19Z</time><name>PT13400</name></trkpt>
<trkpt lat="54.347862" lon="-3.099099"><ele>170</ele><time>2020-06-12T13:47:20Z</time><name>PT13401</name></trkpt>
<trkpt lat="54.347849" lon="-3.099092"><ele>171</ele><time>2020-06-12T13:47:21Z</time><name>PT13402</name></trkpt>
<trkpt lat="54.347841" lon="-3.099080"><ele>171</ele><time>2020-06-12T13:47:22Z</time><name>PT13403</name></trkpt>
<trkpt lat="54.347830" lon="-3.099072"><ele>171</ele><time>2020-06-12T13:47:23Z</time><name>PT13404</name></trkpt>
<trkpt lat="54.347817" lon="-3.099068"><ele>172</ele><time>2020-06-12T13:47:24Z</time><name>PT13405</name></trkpt>
<trkpt lat="54.347806" lon="-3.099066"><ele>173</ele><time>2020-06-12T13:47:25Z</time><name>PT13406</name></trkpt>
<trkpt lat="54.347792" lon="-3.099062"><ele>173</ele><time>2020-06-12T13:47:26Z</time><name>PT13407</name></trkpt>
<trkpt lat="54.347783" lon="-3.099059"><ele>173</ele><time>2020-06-12T13:47:27Z</time><name>PT13408</name></trkpt>
<trkpt lat="54.347769" lon="-3.099058"><ele>173</ele><time>2020-06-12T13:47:28Z</time><name>PT13409</name></trkpt>
<trkpt lat="54.347757" lon="-3.099048"><ele>174</ele><time>2020-06-12T13:47:29Z</time><name>PT13410</name></trkpt>
<trkpt lat="54.347746" lon="-3.099045"><ele>174</ele><time>2020-06-12T13:47:30Z</time><name>PT13411</name></trkpt>
<trkpt lat="54.347733" lon="-3.099037"><ele>174</ele><time>2020-06-12T13:47:31Z</time><name>PT13412</name></trkpt>
<trkpt lat="54.347720" lon="-3.099031"><ele>174</ele><time>2020-06-12T13:47:32Z</time><name>PT13413</name></trkpt>
<trkpt lat="54.347713" lon="-3.099023"><ele>173</ele><time>2020-06-12T13:47:33Z</time><name>PT13414</name></trkpt>
<trkpt lat="54.347703" lon="-3.099014"><ele>173</ele><time>2020-06-12T13:47:34Z</time><name>PT13415</name></trkpt>
<trkpt lat="54.347696" lon="-3.099012"><ele>173</ele><time>2020-06-12T13:47:35Z</time><name>PT13416</name></trkpt>
<trkpt lat="54.347686" lon="-3.099010"><ele>173</ele><time>2020-06-12T13:47:36Z</time><name>PT13417</name></trkpt>
<trkpt lat="54.347672" lon="-3.098996"><ele>173</ele><time>2020-06-12T13:47:37Z</time><name>PT13418</name></trkpt>
<trkpt lat="54.347658" lon="-3.098988"><ele>173</ele><time>2020-06-12T13:47:38Z</time><name>PT13419</name></trkpt>
<trkpt lat="54.347644" lon="-3.098977"><ele>173</ele><time>2020-06-12T13:47:39Z</time><name>PT13420</name></trkpt>
<trkpt lat="54.347633" lon="-3.098966"><ele>173</ele><time>2020-06-12T13:47:40Z</time><name>PT13421</name></trkpt>
<trkpt lat="54.347619" lon="-3.098966"><ele>173</ele><time>2020-06-12T13:47:41Z</time><name>PT13422</name></trkpt>
<trkpt lat="54.347607" lon="-3.098962"><ele>173</ele><time>2020-06-12T13:47:42Z</time><name>PT13423</name></trkpt>
<trkpt lat="54.347593" lon="-3.098952"><ele>173</ele><time>2020-06-12T13:47:43Z</time><name>PT13424</name></trkpt>
<trkpt lat="54.347582" lon="-3.098943"><ele>173</ele><time>2020-06-12T13:47:44Z</time><name>PT13425</name></trkpt>
<trkpt lat="54.347567" lon="-3.098942"><ele>174</ele><time>2020-06-12T13:47:45Z</time><name>PT13426</name></trkpt>
<trkpt lat="54.347557" lon="-3.098935"><ele>174</ele><time>2020-06-12T13:47:46Z</time><name>PT13427</name></trkpt>
<trkpt lat="54.347546" lon="-3.098931"><ele>175</ele><time>2020-06-12T13:47:47Z</time><name>PT13428</name></trkpt>
<trkpt lat="54.347542" lon="-3.098927"><ele>174</ele><time>2020-06-12T13:47:48Z</time><name>PT13429</name></trkpt>
<trkpt lat="54.347537" lon="-3.098924"><ele>173</ele><time>2020-06-12T13:47:49Z</time><name>PT13430</name></trkpt>
<trkpt lat="54.347533" lon="-3.098917"><ele>171</ele><time>2020-06-12T13:47:50Z</time><name>PT13431</name></trkpt>
<trkpt lat="54.347525" lon="-3.098911"><ele>171</ele><time>2020-06-12T13:47:51Z</time><name>PT13432</name></trkpt>
<trkpt lat="54.347513" lon="-3.098901"><ele>171</ele><time>2020-06-12T13:47:52Z</time><name>PT13433</name></trkpt>
<trkpt lat="54.347504" lon="-3.098891"><ele>171</ele><time>2020-06-12T13:47:53Z</time><name>PT13434</name></trkpt>
<trkpt lat="54.347495" lon="-3.098882"><ele>171</ele><time>2020-06-12T13:47:54Z</time><name>PT13435</name></trkpt>
<trkpt lat="54.347490" lon="-3.098877"><ele>170</ele><time>2020-06-12T13:47:55Z</time><name>PT13436</name></trkpt>
<trkpt lat="54.347481" lon="-3.098873"><ele>170</ele><time>2020-06-12T13:47:56Z</time><name>PT13437</name></trkpt>
<trkpt lat="54.347471" lon="-3.098870"><ele>171</ele><time>2020-06-12T13:47:57Z</time><name>PT13438</name></trkpt>
<trkpt lat="54.347464" lon="-3.098868"><ele>171</ele><time>2020-06-12T13:47:58Z</time><name>PT13439</name></trkpt>
<trkpt lat="54.347456" lon="-3.098864"><ele>171</ele><time>2020-06-12T13:47:59Z</time><name>PT13440</name></trkpt>
<trkpt lat="54.347446" lon="-3.098860"><ele>171</ele><time>2020-06-12T13:48:00Z</time><name>PT13441</name></trkpt>
<trkpt lat="54.347438" lon="-3.098858"><ele>171</ele><time>2020-06-12T13:48:01Z</time><name>PT13442</name></trkpt>
<trkpt lat="54.347431" lon="-3.098856"><ele>171</ele><time>2020-06-12T13:48:02Z</time><name>PT13443</name></trkpt>
<trkpt lat="54.347422" lon="-3.098851"><ele>172</ele><time>2020-06-12T13:48:03Z</time><name>PT13444</name></trkpt>
<trkpt lat="54.347419" lon="-3.098848"><ele>172</ele><time>2020-06-12T13:48:04Z</time><name>PT13445</name></trkpt>
<trkpt lat="54.347414" lon="-3.098830"><ele>172</ele><time>2020-06-12T13:48:10Z</time><name>PT13446</name></trkpt>
<trkpt lat="54.347407" lon="-3.098822"><ele>171</ele><time>2020-06-12T13:48:11Z</time><name>PT13447</name></trkpt>
<trkpt lat="54.347399" lon="-3.098819"><ele>171</ele><time>2020-06-12T13:48:12Z</time><name>PT13448</name></trkpt>
<trkpt lat="54.347399" lon="-3.098822"><ele>171</ele><time>2020-06-12T13:48:13Z</time><name>PT13449</name></trkpt>
<trkpt lat="54.347399" lon="-3.098821"><ele>171</ele><time>2020-06-12T13:48:14Z</time><name>PT13450</name></trkpt>
<trkpt lat="54.347397" lon="-3.098825"><ele>171</ele><time>2020-06-12T13:48:15Z</time><name>PT13451</name></trkpt>
<trkpt lat="54.347391" lon="-3.098821"><ele>171</ele><time>2020-06-12T13:48:19Z</time><name>PT13452</name></trkpt>
<trkpt lat="54.347381" lon="-3.098822"><ele>171</ele><time>2020-06-12T13:48:20Z</time><name>PT13453</name></trkpt>
<trkpt lat="54.347365" lon="-3.098818"><ele>171</ele><time>2020-06-12T13:48:21Z</time><name>PT13454</name></trkpt>
<trkpt lat="54.347349" lon="-3.098825"><ele>171</ele><time>2020-06-12T13:48:22Z</time><name>PT13455</name></trkpt>
<trkpt lat="54.347333" lon="-3.098824"><ele>170</ele><time>2020-06-12T13:48:23Z</time><name>PT13456</name></trkpt>
<trkpt lat="54.347317" lon="-3.098817"><ele>171</ele><time>2020-06-12T13:48:24Z</time><name>PT13457</name></trkpt>
<trkpt lat="54.347305" lon="-3.098819"><ele>171</ele><time>2020-06-12T13:48:25Z</time><name>PT13458</name></trkpt>
<trkpt lat="54.347295" lon="-3.098820"><ele>171</ele><time>2020-06-12T13:48:26Z</time><name>PT13459</name></trkpt>
<trkpt lat="54.347282" lon="-3.098821"><ele>171</ele><time>2020-06-12T13:48:27Z</time><name>PT13460</name></trkpt>
<trkpt lat="54.347271" lon="-3.098820"><ele>171</ele><time>2020-06-12T13:48:28Z</time><name>PT13461</name></trkpt>
<trkpt lat="54.347262" lon="-3.098815"><ele>171</ele><time>2020-06-12T13:48:29Z</time><name>PT13462</name></trkpt>
<trkpt lat="54.347251" lon="-3.098810"><ele>171</ele><time>2020-06-12T13:48:30Z</time><name>PT13463</name></trkpt>
<trkpt lat="54.347241" lon="-3.098808"><ele>171</ele><time>2020-06-12T13:48:31Z</time><name>PT13464</name></trkpt>
<trkpt lat="54.347228" lon="-3.098808"><ele>171</ele><time>2020-06-12T13:48:32Z</time><name>PT13465</name></trkpt>
<trkpt lat="54.347218" lon="-3.098805"><ele>172</ele><time>2020-06-12T13:48:33Z</time><name>PT13466</name></trkpt>
<trkpt lat="54.347208" lon="-3.098806"><ele>172</ele><time>2020-06-12T13:48:34Z</time><name>PT13467</name></trkpt>
<trkpt lat="54.347196" lon="-3.098810"><ele>172</ele><time>2020-06-12T13:48:35Z</time><name>PT13468</name></trkpt>
<trkpt lat="54.347184" lon="-3.098815"><ele>172</ele><time>2020-06-12T13:48:36Z</time><name>PT13469</name></trkpt>
<trkpt lat="54.347172" lon="-3.098817"><ele>172</ele><time>2020-06-12T13:48:37Z</time><name>PT13470</name></trkpt>
<trkpt lat="54.347161" lon="-3.098819"><ele>171</ele><time>2020-06-12T13:48:38Z</time><name>PT13471</name></trkpt>
<trkpt lat="54.347152" lon="-3.098819"><ele>172</ele><time>2020-06-12T13:48:39Z</time><name>PT13472</name></trkpt>
<trkpt lat="54.347144" lon="-3.098822"><ele>172</ele><time>2020-06-12T13:48:40Z</time><name>PT13473</name></trkpt>
<trkpt lat="54.347136" lon="-3.098823"><ele>172</ele><time>2020-06-12T13:48:41Z</time><name>PT13474</name></trkpt>
<trkpt lat="54.347125" lon="-3.098820"><ele>172</ele><time>2020-06-12T13:48:42Z</time><name>PT13475</name></trkpt>
<trkpt lat="54.347114" lon="-3.098819"><ele>172</ele><time>2020-06-12T13:48:43Z</time><name>PT13476</name></trkpt>
<trkpt lat="54.347104" lon="-3.098829"><ele>172</ele><time>2020-06-12T13:48:44Z</time><name>PT13477</name></trkpt>
<trkpt lat="54.347095" lon="-3.098830"><ele>172</ele><time>2020-06-12T13:48:45Z</time><name>PT13478</name></trkpt>
<trkpt lat="54.347084" lon="-3.098832"><ele>172</ele><time>2020-06-12T13:48:46Z</time><name>PT13479</name></trkpt>
<trkpt lat="54.347073" lon="-3.098833"><ele>172</ele><time>2020-06-12T13:48:47Z</time><name>PT13480</name></trkpt>
<trkpt lat="54.347060" lon="-3.098838"><ele>172</ele><time>2020-06-12T13:48:48Z</time><name>PT13481</name></trkpt>
<trkpt lat="54.347046" lon="-3.098845"><ele>172</ele><time>2020-06-12T13:48:49Z</time><name>PT13482</name></trkpt>
<trkpt lat="54.347035" lon="-3.098850"><ele>172</ele><time>2020-06-12T13:48:50Z</time><name>PT13483</name></trkpt>
<trkpt lat="54.347024" lon="-3.098854"><ele>172</ele><time>2020-06-12T13:48:51Z</time><name>PT13484</name></trkpt>
<trkpt lat="54.347008" lon="-3.098861"><ele>172</ele><time>2020-06-12T13:48:52Z</time><name>PT13485</name></trkpt>
<trkpt lat="54.346998" lon="-3.098862"><ele>172</ele><time>2020-06-12T13:48:53Z</time><name>PT13486</name></trkpt>
<trkpt lat="54.346984" lon="-3.098863"><ele>173</ele><time>2020-06-12T13:48:54Z</time><name>PT13487</name></trkpt>
<trkpt lat="54.346972" lon="-3.098868"><ele>173</ele><time>2020-06-12T13:48:55Z</time><name>PT13488</name></trkpt>
<trkpt lat="54.346963" lon="-3.098871"><ele>173</ele><time>2020-06-12T13:48:56Z</time><name>PT13489</name></trkpt>
<trkpt lat="54.346954" lon="-3.098872"><ele>173</ele><time>2020-06-12T13:48:57Z</time><name>PT13490</name></trkpt>
<trkpt lat="54.346946" lon="-3.098873"><ele>173</ele><time>2020-06-12T13:48:58Z</time><name>PT13491</name></trkpt>
<trkpt lat="54.346935" lon="-3.098879"><ele>173</ele><time>2020-06-12T13:48:59Z</time><name>PT13492</name></trkpt>
<trkpt lat="54.346925" lon="-3.098882"><ele>172</ele><time>2020-06-12T13:49:00Z</time><name>PT13493</name></trkpt>
<trkpt lat="54.346916" lon="-3.098884"><ele>172</ele><time>2020-06-12T13:49:01Z</time><name>PT13494</name></trkpt>
<trkpt lat="54.346906" lon="-3.098882"><ele>172</ele><time>2020-06-12T13:49:02Z</time><name>PT13495</name></trkpt>
<trkpt lat="54.346898" lon="-3.098887"><ele>172</ele><time>2020-06-12T13:49:03Z</time><name>PT13496</name></trkpt>
<trkpt lat="54.346885" lon="-3.098883"><ele>172</ele><time>2020-06-12T13:49:04Z</time><name>PT13497</name></trkpt>
<trkpt lat="54.346875" lon="-3.098881"><ele>172</ele><time>2020-06-12T13:49:05Z</time><name>PT13498</name></trkpt>
<trkpt lat="54.346865" lon="-3.098881"><ele>172</ele><time>2020-06-12T13:49:06Z</time><name>PT13499</name></trkpt>
<trkpt lat="54.346859" lon="-3.098880"><ele>172</ele><time>2020-06-12T13:49:07Z</time><name>PT13500</name></trkpt>
<trkpt lat="54.346850" lon="-3.098881"><ele>172</ele><time>2020-06-12T13:49:08Z</time><name>PT13501</name></trkpt>
<trkpt lat="54.346843" lon="-3.098885"><ele>171</ele><time>2020-06-12T13:49:09Z</time><name>PT13502</name></trkpt>
<trkpt lat="54.346836" lon="-3.098885"><ele>171</ele><time>2020-06-12T13:49:10Z</time><name>PT13503</name></trkpt>
<trkpt lat="54.346827" lon="-3.098887"><ele>171</ele><time>2020-06-12T13:49:11Z</time><name>PT13504</name></trkpt>
<trkpt lat="54.346822" lon="-3.098880"><ele>170</ele><time>2020-06-12T13:49:12Z</time><name>PT13505</name></trkpt>
<trkpt lat="54.346806" lon="-3.098878"><ele>170</ele><time>2020-06-12T13:49:13Z</time><name>PT13506</name></trkpt>
<trkpt lat="54.346795" lon="-3.098887"><ele>170</ele><time>2020-06-12T13:49:14Z</time><name>PT13507</name></trkpt>
<trkpt lat="54.346783" lon="-3.098889"><ele>169</ele><time>2020-06-12T13:49:15Z</time><name>PT13508</name></trkpt>
<trkpt lat="54.346774" lon="-3.098890"><ele>169</ele><time>2020-06-12T13:49:16Z</time><name>PT13509</name></trkpt>
<trkpt lat="54.346766" lon="-3.098891"><ele>169</ele><time>2020-06-12T13:49:17Z</time><name>PT13510</name></trkpt>
<trkpt lat="54.346757" lon="-3.098893"><ele>168</ele><time>2020-06-12T13:49:18Z</time><name>PT13511</name></trkpt>
<trkpt lat="54.346750" lon="-3.098895"><ele>168</ele><time>2020-06-12T13:49:19Z</time><name>PT13512</name></trkpt>
<trkpt lat="54.346744" lon="-3.098896"><ele>168</ele><time>2020-06-12T13:49:20Z</time><name>PT13513</name></trkpt>
<trkpt lat="54.346738" lon="-3.098896"><ele>167</ele><time>2020-06-12T13:49:21Z</time><name>PT13514</name></trkpt>
<trkpt lat="54.346735" lon="-3.098895"><ele>168</ele><time>2020-06-12T13:49:22Z</time><name>PT13515</name></trkpt>
<trkpt lat="54.346736" lon="-3.098897"><ele>167</ele><time>2020-06-12T13:49:23Z</time><name>PT13516</name></trkpt>
<trkpt lat="54.346730" lon="-3.098896"><ele>168</ele><time>2020-06-12T13:49:24Z</time><name>PT13517</name></trkpt>
<trkpt lat="54.346724" lon="-3.098893"><ele>167</ele><time>2020-06-12T13:49:25Z</time><name>PT13518</name></trkpt>
<trkpt lat="54.346718" lon="-3.098893"><ele>167</ele><time>2020-06-12T13:49:26Z</time><name>PT13519</name></trkpt>
<trkpt lat="54.346714" lon="-3.098891"><ele>167</ele><time>2020-06-12T13:49:27Z</time><name>PT13520</name></trkpt>
<trkpt lat="54.346711" lon="-3.098887"><ele>167</ele><time>2020-06-12T13:49:28Z</time><name>PT13521</name></trkpt>
<trkpt lat="54.346711" lon="-3.098886"><ele>168</ele><time>2020-06-12T13:49:29Z</time><name>PT13522</name></trkpt>
<trkpt lat="54.346709" lon="-3.098887"><ele>168</ele><time>2020-06-12T13:49:30Z</time><name>PT13523</name></trkpt>
<trkpt lat="54.346704" lon="-3.098890"><ele>168</ele><time>2020-06-12T13:49:31Z</time><name>PT13524</name></trkpt>
<trkpt lat="54.346702" lon="-3.098897"><ele>168</ele><time>2020-06-12T13:49:32Z</time><name>PT13525</name></trkpt>
<trkpt lat="54.346700" lon="-3.098893"><ele>168</ele><time>2020-06-12T13:49:33Z</time><name>PT13526</name></trkpt>
<trkpt lat="54.346701" lon="-3.098897"><ele>168</ele><time>2020-06-12T13:49:34Z</time><name>PT13527</name></trkpt>
<trkpt lat="54.346699" lon="-3.098899"><ele>168</ele><time>2020-06-12T13:49:35Z</time><name>PT13528</name></trkpt>
<trkpt lat="54.346700" lon="-3.098897"><ele>168</ele><time>2020-06-12T13:49:36Z</time><name>PT13529</name></trkpt>
<trkpt lat="54.346700" lon="-3.098894"><ele>168</ele><time>2020-06-12T13:49:37Z</time><name>PT13530</name></trkpt>
<trkpt lat="54.346698" lon="-3.098893"><ele>169</ele><time>2020-06-12T13:49:38Z</time><name>PT13531</name></trkpt>
<trkpt lat="54.346694" lon="-3.098891"><ele>168</ele><time>2020-06-12T13:49:39Z</time><name>PT13532</name></trkpt>
<trkpt lat="54.346687" lon="-3.098890"><ele>168</ele><time>2020-06-12T13:49:40Z</time><name>PT13533</name></trkpt>
<trkpt lat="54.346680" lon="-3.098890"><ele>168</ele><time>2020-06-12T13:49:41Z</time><name>PT13534</name></trkpt>
<trkpt lat="54.346672" lon="-3.098887"><ele>168</ele><time>2020-06-12T13:49:42Z</time><name>PT13535</name></trkpt>
<trkpt lat="54.346666" lon="-3.098885"><ele>168</ele><time>2020-06-12T13:49:43Z</time><name>PT13536</name></trkpt>
<trkpt lat="54.346661" lon="-3.098886"><ele>168</ele><time>2020-06-12T13:49:44Z</time><name>PT13537</name></trkpt>
<trkpt lat="54.346652" lon="-3.098887"><ele>167</ele><time>2020-06-12T13:49:45Z</time><name>PT13538</name></trkpt>
<trkpt lat="54.346645" lon="-3.098883"><ele>167</ele><time>2020-06-12T13:49:46Z</time><name>PT13539</name></trkpt>
<trkpt lat="54.346639" lon="-3.098879"><ele>167</ele><time>2020-06-12T13:49:47Z</time><name>PT13540</name></trkpt>
<trkpt lat="54.346631" lon="-3.098876"><ele>167</ele><time>2020-06-12T13:49:48Z</time><name>PT13541</name></trkpt>
<trkpt lat="54.346623" lon="-3.098872"><ele>167</ele><time>2020-06-12T13:49:49Z</time><name>PT13542</name></trkpt>
<trkpt lat="54.346611" lon="-3.098867"><ele>167</ele><time>2020-06-12T13:49:50Z</time><name>PT13543</name></trkpt>
<trkpt lat="54.346600" lon="-3.098863"><ele>167</ele><time>2020-06-12T13:49:51Z</time><name>PT13544</name></trkpt>
<trkpt lat="54.346592" lon="-3.098862"><ele>166</ele><time>2020-06-12T13:49:52Z</time><name>PT13545</name></trkpt>
<trkpt lat="54.346584" lon="-3.098863"><ele>166</ele><time>2020-06-12T13:49:53Z</time><name>PT13546</name></trkpt>
<trkpt lat="54.346580" lon="-3.098863"><ele>166</ele><time>2020-06-12T13:49:54Z</time><name>PT13547</name></trkpt>
<trkpt lat="54.346576" lon="-3.098865"><ele>166</ele><time>2020-06-12T13:49:55Z</time><name>PT13548</name></trkpt>
<trkpt lat="54.346570" lon="-3.098863"><ele>165</ele><time>2020-06-12T13:49:56Z</time><name>PT13549</name></trkpt>
<trkpt lat="54.346567" lon="-3.098861"><ele>165</ele><time>2020-06-12T13:49:57Z</time><name>PT13550</name></trkpt>
<trkpt lat="54.346567" lon="-3.098864"><ele>165</ele><time>2020-06-12T13:49:58Z</time><name>PT13551</name></trkpt>
<trkpt lat="54.346563" lon="-3.098866"><ele>165</ele><time>2020-06-12T13:49:59Z</time><name>PT13552</name></trkpt>
<trkpt lat="54.346561" lon="-3.098871"><ele>165</ele><time>2020-06-12T13:50:00Z</time><name>PT13553</name></trkpt>
<trkpt lat="54.346560" lon="-3.098873"><ele>164</ele><time>2020-06-12T13:50:01Z</time><name>PT13554</name></trkpt>
<trkpt lat="54.346558" lon="-3.098873"><ele>164</ele><time>2020-06-12T13:50:02Z</time><name>PT13555</name></trkpt>
<trkpt lat="54.346557" lon="-3.098874"><ele>165</ele><time>2020-06-12T13:50:03Z</time><name>PT13556</name></trkpt>
<trkpt lat="54.346545" lon="-3.098882"><ele>166</ele><time>2020-06-12T13:50:39Z</time><name>PT13557</name></trkpt>
<trkpt lat="54.346536" lon="-3.098875"><ele>166</ele><time>2020-06-12T13:50:40Z</time><name>PT13558</name></trkpt>
<trkpt lat="54.346523" lon="-3.098871"><ele>165</ele><time>2020-06-12T13:50:41Z</time><name>PT13559</name></trkpt>
<trkpt lat="54.346514" lon="-3.098867"><ele>165</ele><time>2020-06-12T13:50:42Z</time><name>PT13560</name></trkpt>
<trkpt lat="54.346507" lon="-3.098865"><ele>165</ele><time>2020-06-12T13:50:43Z</time><name>PT13561</name></trkpt>
<trkpt lat="54.346496" lon="-3.098864"><ele>164</ele><time>2020-06-12T13:50:44Z</time><name>PT13562</name></trkpt>
<trkpt lat="54.346485" lon="-3.098860"><ele>163</ele><time>2020-06-12T13:50:45Z</time><name>PT13563</name></trkpt>
<trkpt lat="54.346475" lon="-3.098856"><ele>163</ele><time>2020-06-12T13:50:46Z</time><name>PT13564</name></trkpt>
<trkpt lat="54.346463" lon="-3.098848"><ele>163</ele><time>2020-06-12T13:50:47Z</time><name>PT13565</name></trkpt>
<trkpt lat="54.346452" lon="-3.098843"><ele>162</ele><time>2020-06-12T13:50:48Z</time><name>PT13566</name></trkpt>
<trkpt lat="54.346441" lon="-3.098842"><ele>162</ele><time>2020-06-12T13:50:49Z</time><name>PT13567</name></trkpt>
<trkpt lat="54.346433" lon="-3.098833"><ele>162</ele><time>2020-06-12T13:50:50Z</time><name>PT13568</name></trkpt>
<trkpt lat="54.346423" lon="-3.098828"><ele>162</ele><time>2020-06-12T13:50:51Z</time><name>PT13569</name></trkpt>
<trkpt lat="54.346412" lon="-3.098824"><ele>161</ele><time>2020-06-12T13:50:52Z</time><name>PT13570</name></trkpt>
<trkpt lat="54.346400" lon="-3.098813"><ele>161</ele><time>2020-06-12T13:50:53Z</time><name>PT13571</name></trkpt>
<trkpt lat="54.346394" lon="-3.098810"><ele>160</ele><time>2020-06-12T13:50:54Z</time><name>PT13572</name></trkpt>
<trkpt lat="54.346388" lon="-3.098802"><ele>159</ele><time>2020-06-12T13:50:55Z</time><name>PT13573</name></trkpt>
<trkpt lat="54.346381" lon="-3.098790"><ele>159</ele><time>2020-06-12T13:50:56Z</time><name>PT13574</name></trkpt>
<trkpt lat="54.346373" lon="-3.098784"><ele>159</ele><time>2020-06-12T13:50:57Z</time><name>PT13575</name></trkpt>
<trkpt lat="54.346366" lon="-3.098779"><ele>158</ele><time>2020-06-12T13:50:58Z</time><name>PT13576</name></trkpt>
<trkpt lat="54.346357" lon="-3.098776"><ele>158</ele><time>2020-06-12T13:50:59Z</time><name>PT13577</name></trkpt>
<trkpt lat="54.346351" lon="-3.098771"><ele>158</ele><time>2020-06-12T13:51:00Z</time><name>PT13578</name></trkpt>
<trkpt lat="54.346342" lon="-3.098764"><ele>157</ele><time>2020-06-12T13:51:01Z</time><name>PT13579</name></trkpt>
<trkpt lat="54.346335" lon="-3.098758"><ele>157</ele><time>2020-06-12T13:51:02Z</time><name>PT13580</name></trkpt>
<trkpt lat="54.346323" lon="-3.098757"><ele>157</ele><time>2020-06-12T13:51:03Z</time><name>PT13581</name></trkpt>
<trkpt lat="54.346315" lon="-3.098755"><ele>156</ele><time>2020-06-12T13:51:04Z</time><name>PT13582</name></trkpt>
<trkpt lat="54.346307" lon="-3.098746"><ele>156</ele><time>2020-06-12T13:51:05Z</time><name>PT13583</name></trkpt>
<trkpt lat="54.346301" lon="-3.098738"><ele>156</ele><time>2020-06-12T13:51:06Z</time><name>PT13584</name></trkpt>
<trkpt lat="54.346292" lon="-3.098728"><ele>155</ele><time>2020-06-12T13:51:07Z</time><name>PT13585</name></trkpt>
<trkpt lat="54.346282" lon="-3.098718"><ele>155</ele><time>2020-06-12T13:51:08Z</time><name>PT13586</name></trkpt>
<trkpt lat="54.346277" lon="-3.098706"><ele>155</ele><time>2020-06-12T13:51:09Z</time><name>PT13587</name></trkpt>
<trkpt lat="54.346269" lon="-3.098702"><ele>154</ele><time>2020-06-12T13:51:10Z</time><name>PT13588</name></trkpt>
<trkpt lat="54.346258" lon="-3.098696"><ele>153</ele><time>2020-06-12T13:51:11Z</time><name>PT13589</name></trkpt>
<trkpt lat="54.346252" lon="-3.098686"><ele>153</ele><time>2020-06-12T13:51:12Z</time><name>PT13590</name></trkpt>
<trkpt lat="54.346246" lon="-3.098677"><ele>153</ele><time>2020-06-12T13:51:13Z</time><name>PT13591</name></trkpt>
<trkpt lat="54.346239" lon="-3.098668"><ele>153</ele><time>2020-06-12T13:51:14Z</time><name>PT13592</name></trkpt>
<trkpt lat="54.346234" lon="-3.098652"><ele>154</ele><time>2020-06-12T13:51:15Z</time><name>PT13593</name></trkpt>
<trkpt lat="54.346223" lon="-3.098647"><ele>154</ele><time>2020-06-12T13:51:16Z</time><name>PT13594</name></trkpt>
<trkpt lat="54.346218" lon="-3.098643"><ele>153</ele><time>2020-06-12T13:51:17Z</time><name>PT13595</name></trkpt>
<trkpt lat="54.346215" lon="-3.098631"><ele>154</ele><time>2020-06-12T13:51:18Z</time><name>PT13596</name></trkpt>
<trkpt lat="54.346207" lon="-3.098616"><ele>153</ele><time>2020-06-12T13:51:19Z</time><name>PT13597</name></trkpt>
<trkpt lat="54.346199" lon="-3.098604"><ele>153</ele><time>2020-06-12T13:51:20Z</time><name>PT13598</name></trkpt>
<trkpt lat="54.346189" lon="-3.098593"><ele>153</ele><time>2020-06-12T13:51:21Z</time><name>PT13599</name></trkpt>
<trkpt lat="54.346181" lon="-3.098580"><ele>153</ele><time>2020-06-12T13:51:22Z</time><name>PT13600</name></trkpt>
<trkpt lat="54.346173" lon="-3.098566"><ele>153</ele><time>2020-06-12T13:51:23Z</time><name>PT13601</name></trkpt>
<trkpt lat="54.346166" lon="-3.098543"><ele>153</ele><time>2020-06-12T13:51:24Z</time><name>PT13602</name></trkpt>
<trkpt lat="54.346162" lon="-3.098526"><ele>153</ele><time>2020-06-12T13:51:25Z</time><name>PT13603</name></trkpt>
<trkpt lat="54.346152" lon="-3.098510"><ele>153</ele><time>2020-06-12T13:51:26Z</time><name>PT13604</name></trkpt>
<trkpt lat="54.346148" lon="-3.098494"><ele>153</ele><time>2020-06-12T13:51:27Z</time><name>PT13605</name></trkpt>
<trkpt lat="54.346150" lon="-3.098480"><ele>153</ele><time>2020-06-12T13:51:28Z</time><name>PT13606</name></trkpt>
<trkpt lat="54.346151" lon="-3.098466"><ele>153</ele><time>2020-06-12T13:51:29Z</time><name>PT13607</name></trkpt>
<trkpt lat="54.346153" lon="-3.098453"><ele>153</ele><time>2020-06-12T13:51:30Z</time><name>PT13608</name></trkpt>
<trkpt lat="54.346155" lon="-3.098441"><ele>153</ele><time>2020-06-12T13:51:31Z</time><name>PT13609</name></trkpt>
<trkpt lat="54.346156" lon="-3.098421"><ele>153</ele><time>2020-06-12T13:51:32Z</time><name>PT13610</name></trkpt>
<trkpt lat="54.346158" lon="-3.098407"><ele>153</ele><time>2020-06-12T13:51:33Z</time><name>PT13611</name></trkpt>
<trkpt lat="54.346159" lon="-3.098403"><ele>153</ele><time>2020-06-12T13:51:34Z</time><name>PT13612</name></trkpt>
<trkpt lat="54.346159" lon="-3.098401"><ele>153</ele><time>2020-06-12T13:51:35Z</time><name>PT13613</name></trkpt>
<trkpt lat="54.346154" lon="-3.098397"><ele>153</ele><time>2020-06-12T13:51:36Z</time><name>PT13614</name></trkpt>
<trkpt lat="54.346145" lon="-3.098383"><ele>153</ele><time>2020-06-12T13:51:37Z</time><name>PT13615</name></trkpt>
<trkpt lat="54.346144" lon="-3.098383"><ele>153</ele><time>2020-06-12T13:51:38Z</time><name>PT13616</name></trkpt>
<trkpt lat="54.346137" lon="-3.098376"><ele>154</ele><time>2020-06-12T13:51:39Z</time><name>PT13617</name></trkpt>
<trkpt lat="54.346138" lon="-3.098380"><ele>154</ele><time>2020-06-12T13:51:40Z</time><name>PT13618</name></trkpt>
<trkpt lat="54.346139" lon="-3.098383"><ele>156</ele><time>2020-06-12T13:51:41Z</time><name>PT13619</name></trkpt>
<trkpt lat="54.346140" lon="-3.098385"><ele>156</ele><time>2020-06-12T13:51:42Z</time><name>PT13620</name></trkpt>
<trkpt lat="54.346138" lon="-3.098387"><ele>156</ele><time>2020-06-12T13:52:07Z</time><name>PT13621</name></trkpt>
<trkpt lat="54.346146" lon="-3.098368"><ele>156</ele><time>2020-06-12T13:52:08Z</time><name>PT13622</name></trkpt>
<trkpt lat="54.346156" lon="-3.098349"><ele>156</ele><time>2020-06-12T13:52:09Z</time><name>PT13623</name></trkpt>
<trkpt lat="54.346165" lon="-3.098316"><ele>156</ele><time>2020-06-12T13:52:10Z</time><name>PT13624</name></trkpt>
<trkpt lat="54.346173" lon="-3.098301"><ele>157</ele><time>2020-06-12T13:52:11Z</time><name>PT13625</name></trkpt>
<trkpt lat="54.346179" lon="-3.098291"><ele>157</ele><time>2020-06-12T13:52:12Z</time><name>PT13626</name></trkpt>
<trkpt lat="54.346184" lon="-3.098280"><ele>157</ele><time>2020-06-12T13:52:13Z</time><name>PT13627</name></trkpt>
<trkpt lat="54.346185" lon="-3.098263"><ele>158</ele><time>2020-06-12T13:52:14Z</time><name>PT13628</name></trkpt>
<trkpt lat="54.346189" lon="-3.098246"><ele>157</ele><time>2020-06-12T13:52:15Z</time><name>PT13629</name></trkpt>
<trkpt lat="54.346195" lon="-3.098225"><ele>157</ele><time>2020-06-12T13:52:16Z</time><name>PT13630</name></trkpt>
<trkpt lat="54.346198" lon="-3.098207"><ele>156</ele><time>2020-06-12T13:52:17Z</time><name>PT13631</name></trkpt>
<trkpt lat="54.346202" lon="-3.098193"><ele>156</ele><time>2020-06-12T13:52:18Z</time><name>PT13632</name></trkpt>
<trkpt lat="54.346205" lon="-3.098183"><ele>156</ele><time>2020-06-12T13:52:19Z</time><name>PT13633</name></trkpt>
<trkpt lat="54.346213" lon="-3.098169"><ele>156</ele><time>2020-06-12T13:52:20Z</time><name>PT13634</name></trkpt>
<trkpt lat="54.346216" lon="-3.098156"><ele>155</ele><time>2020-06-12T13:52:21Z</time><name>PT13635</name></trkpt>
<trkpt lat="54.346219" lon="-3.098142"><ele>156</ele><time>2020-06-12T13:52:22Z</time><name>PT13636</name></trkpt>
<trkpt lat="54.346220" lon="-3.098132"><ele>156</ele><time>2020-06-12T13:52:23Z</time><name>PT13637</name></trkpt>
<trkpt lat="54.346223" lon="-3.098122"><ele>156</ele><time>2020-06-12T13:52:24Z</time><name>PT13638</name></trkpt>
<trkpt lat="54.346228" lon="-3.098107"><ele>156</ele><time>2020-06-12T13:52:25Z</time><name>PT13639</name></trkpt>
<trkpt lat="54.346237" lon="-3.098089"><ele>158</ele><time>2020-06-12T13:52:26Z</time><name>PT13640</name></trkpt>
<trkpt lat="54.346240" lon="-3.098078"><ele>159</ele><time>2020-06-12T13:52:27Z</time><name>PT13641</name></trkpt>
<trkpt lat="54.346243" lon="-3.098074"><ele>159</ele><time>2020-06-12T13:52:28Z</time><name>PT13642</name></trkpt>
<trkpt lat="54.346244" lon="-3.098070"><ele>159</ele><time>2020-06-12T13:52:29Z</time><name>PT13643</name></trkpt>
<trkpt lat="54.346244" lon="-3.098061"><ele>159</ele><time>2020-06-12T13:52:30Z</time><name>PT13644</name></trkpt>
<trkpt lat="54.346248" lon="-3.098049"><ele>159</ele><time>2020-06-12T13:52:31Z</time><name>PT13645</name></trkpt>
<trkpt lat="54.346250" lon="-3.098037"><ele>159</ele><time>2020-06-12T13:52:32Z</time><name>PT13646</name></trkpt>
<trkpt lat="54.346255" lon="-3.098031"><ele>159</ele><time>2020-06-12T13:52:33Z</time><name>PT13647</name></trkpt>
<trkpt lat="54.346256" lon="-3.098018"><ele>159</ele><time>2020-06-12T13:52:34Z</time><name>PT13648</name></trkpt>
<trkpt lat="54.346254" lon="-3.098014"><ele>159</ele><time>2020-06-12T13:52:35Z</time><name>PT13649</name></trkpt>
<trkpt lat="54.346250" lon="-3.098018"><ele>159</ele><time>2020-06-12T13:52:36Z</time><name>PT13650</name></trkpt>
<trkpt lat="54.346250" lon="-3.098025"><ele>160</ele><time>2020-06-12T13:52:37Z</time><name>PT13651</name></trkpt>
<trkpt lat="54.346249" lon="-3.098024"><ele>160</ele><time>2020-06-12T13:52:38Z</time><name>PT13652</name></trkpt>
<trkpt lat="54.346247" lon="-3.098024"><ele>160</ele><time>2020-06-12T13:52:39Z</time><name>PT13653</name></trkpt>
<trkpt lat="54.346245" lon="-3.098024"><ele>160</ele><time>2020-06-12T13:52:40Z</time><name>PT13654</name></trkpt>
<trkpt lat="54.346245" lon="-3.098023"><ele>160</ele><time>2020-06-12T13:52:41Z</time><name>PT13655</name></trkpt>
<trkpt lat="54.346249" lon="-3.098014"><ele>159</ele><time>2020-06-12T13:52:43Z</time><name>PT13656</name></trkpt>
<trkpt lat="54.346248" lon="-3.098001"><ele>159</ele><time>2020-06-12T13:52:44Z</time><name>PT13657</name></trkpt>
<trkpt lat="54.346242" lon="-3.097981"><ele>159</ele><time>2020-06-12T13:52:45Z</time><name>PT13658</name></trkpt>
<trkpt lat="54.346233" lon="-3.097966"><ele>158</ele><time>2020-06-12T13:52:46Z</time><name>PT13659</name></trkpt>
<trkpt lat="54.346228" lon="-3.097944"><ele>159</ele><time>2020-06-12T13:52:47Z</time><name>PT13660</name></trkpt>
<trkpt lat="54.346221" lon="-3.097922"><ele>159</ele><time>2020-06-12T13:52:48Z</time><name>PT13661</name></trkpt>
<trkpt lat="54.346218" lon="-3.097903"><ele>159</ele><time>2020-06-12T13:52:49Z</time><name>PT13662</name></trkpt>
<trkpt lat="54.346213" lon="-3.097886"><ele>157</ele><time>2020-06-12T13:52:50Z</time><name>PT13663</name></trkpt>
<trkpt lat="54.346207" lon="-3.097873"><ele>157</ele><time>2020-06-12T13:52:51Z</time><name>PT13664</name></trkpt>
<trkpt lat="54.346204" lon="-3.097853"><ele>156</ele><time>2020-06-12T13:52:52Z</time><name>PT13665</name></trkpt>
<trkpt lat="54.346201" lon="-3.097836"><ele>155</ele><time>2020-06-12T13:52:53Z</time><name>PT13666</name></trkpt>
<trkpt lat="54.346198" lon="-3.097826"><ele>154</ele><time>2020-06-12T13:52:54Z</time><name>PT13667</name></trkpt>
<trkpt lat="54.346192" lon="-3.097821"><ele>153</ele><time>2020-06-12T13:52:55Z</time><name>PT13668</name></trkpt>
<trkpt lat="54.346185" lon="-3.097810"><ele>153</ele><time>2020-06-12T13:52:56Z</time><name>PT13669</name></trkpt>
<trkpt lat="54.346180" lon="-3.097802"><ele>153</ele><time>2020-06-12T13:52:57Z</time><name>PT13670</name></trkpt>
<trkpt lat="54.346173" lon="-3.097796"><ele>152</ele><time>2020-06-12T13:52:58Z</time><name>PT13671</name></trkpt>
<trkpt lat="54.346165" lon="-3.097790"><ele>151</ele><time>2020-06-12T13:52:59Z</time><name>PT13672</name></trkpt>
<trkpt lat="54.346159" lon="-3.097782"><ele>151</ele><time>2020-06-12T13:53:00Z</time><name>PT13673</name></trkpt>
<trkpt lat="54.346154" lon="-3.097772"><ele>150</ele><time>2020-06-12T13:53:01Z</time><name>PT13674</name></trkpt>
<trkpt lat="54.346147" lon="-3.097766"><ele>149</ele><time>2020-06-12T13:53:02Z</time><name>PT13675</name></trkpt>
<trkpt lat="54.346144" lon="-3.097752"><ele>150</ele><time>2020-06-12T13:53:03Z</time><name>PT13676</name></trkpt>
<trkpt lat="54.346135" lon="-3.097741"><ele>150</ele><time>2020-06-12T13:53:04Z</time><name>PT13677</name></trkpt>
<trkpt lat="54.346122" lon="-3.097729"><ele>150</ele><time>2020-06-12T13:53:05Z</time><name>PT13678</name></trkpt>
<trkpt lat="54.346113" lon="-3.097718"><ele>150</ele><time>2020-06-12T13:53:06Z</time><name>PT13679</name></trkpt>
<trkpt lat="54.346108" lon="-3.097706"><ele>150</ele><time>2020-06-12T13:53:07Z</time><name>PT13680</name></trkpt>
<trkpt lat="54.346103" lon="-3.097697"><ele>150</ele><time>2020-06-12T13:53:08Z</time><name>PT13681</name></trkpt>
<trkpt lat="54.346098" lon="-3.097689"><ele>150</ele><time>2020-06-12T13:53:09Z</time><name>PT13682</name></trkpt>
<trkpt lat="54.346096" lon="-3.097683"><ele>150</ele><time>2020-06-12T13:53:10Z</time><name>PT13683</name></trkpt>
<trkpt lat="54.346092" lon="-3.097677"><ele>150</ele><time>2020-06-12T13:53:11Z</time><name>PT13684</name></trkpt>
<trkpt lat="54.346087" lon="-3.097672"><ele>150</ele><time>2020-06-12T13:53:12Z</time><name>PT13685</name></trkpt>
<trkpt lat="54.346078" lon="-3.097668"><ele>150</ele><time>2020-06-12T13:53:13Z</time><name>PT13686</name></trkpt>
<trkpt lat="54.346070" lon="-3.097655"><ele>150</ele><time>2020-06-12T13:53:14Z</time><name>PT13687</name></trkpt>
<trkpt lat="54.346065" lon="-3.097640"><ele>150</ele><time>2020-06-12T13:53:15Z</time><name>PT13688</name></trkpt>
<trkpt lat="54.346063" lon="-3.097625"><ele>150</ele><time>2020-06-12T13:53:16Z</time><name>PT13689</name></trkpt>
<trkpt lat="54.346058" lon="-3.097611"><ele>150</ele><time>2020-06-12T13:53:17Z</time><name>PT13690</name></trkpt>
<trkpt lat="54.346053" lon="-3.097600"><ele>149</ele><time>2020-06-12T13:53:18Z</time><name>PT13691</name></trkpt>
<trkpt lat="54.346038" lon="-3.097582"><ele>147</ele><time>2020-06-12T13:53:19Z</time><name>PT13692</name></trkpt>
<trkpt lat="54.346034" lon="-3.097570"><ele>146</ele><time>2020-06-12T13:53:20Z</time><name>PT13693</name></trkpt>
<trkpt lat="54.346032" lon="-3.097559"><ele>145</ele><time>2020-06-12T13:53:21Z</time><name>PT13694</name></trkpt>
<trkpt lat="54.346031" lon="-3.097550"><ele>145</ele><time>2020-06-12T13:53:22Z</time><name>PT13695</name></trkpt>
<trkpt lat="54.346029" lon="-3.097540"><ele>145</ele><time>2020-06-12T13:53:23Z</time><name>PT13696</name></trkpt>
<trkpt lat="54.346026" lon="-3.097526"><ele>144</ele><time>2020-06-12T13:53:24Z</time><name>PT13697</name></trkpt>
<trkpt lat="54.346023" lon="-3.097510"><ele>143</ele><time>2020-06-12T13:53:25Z</time><name>PT13698</name></trkpt>
<trkpt lat="54.346020" lon="-3.097494"><ele>142</ele><time>2020-06-12T13:53:26Z</time><name>PT13699</name></trkpt>
<trkpt lat="54.346021" lon="-3.097484"><ele>142</ele><time>2020-06-12T13:53:27Z</time><name>PT13700</name></trkpt>
<trkpt lat="54.346026" lon="-3.097476"><ele>142</ele><time>2020-06-12T13:53:28Z</time><name>PT13701</name></trkpt>
<trkpt lat="54.346029" lon="-3.097466"><ele>142</ele><time>2020-06-12T13:53:29Z</time><name>PT13702</name></trkpt>
<trkpt lat="54.346031" lon="-3.097450"><ele>142</ele><time>2020-06-12T13:53:30Z</time><name>PT13703</name></trkpt>
<trkpt lat="54.346033" lon="-3.097437"><ele>142</ele><time>2020-06-12T13:53:31Z</time><name>PT13704</name></trkpt>
<trkpt lat="54.346030" lon="-3.097419"><ele>142</ele><time>2020-06-12T13:53:32Z</time><name>PT13705</name></trkpt>
<trkpt lat="54.346028" lon="-3.097405"><ele>142</ele><time>2020-06-12T13:53:33Z</time><name>PT13706</name></trkpt>
<trkpt lat="54.346027" lon="-3.097394"><ele>142</ele><time>2020-06-12T13:53:34Z</time><name>PT13707</name></trkpt>
<trkpt lat="54.346024" lon="-3.097382"><ele>142</ele><time>2020-06-12T13:53:35Z</time><name>PT13708</name></trkpt>
<trkpt lat="54.346028" lon="-3.097372"><ele>141</ele><time>2020-06-12T13:53:36Z</time><name>PT13709</name></trkpt>
<trkpt lat="54.346024" lon="-3.097361"><ele>140</ele><time>2020-06-12T13:53:37Z</time><name>PT13710</name></trkpt>
<trkpt lat="54.346021" lon="-3.097351"><ele>140</ele><time>2020-06-12T13:53:38Z</time><name>PT13711</name></trkpt>
<trkpt lat="54.346020" lon="-3.097339"><ele>140</ele><time>2020-06-12T13:53:39Z</time><name>PT13712</name></trkpt>
<trkpt lat="54.346016" lon="-3.097325"><ele>139</ele><time>2020-06-12T13:53:40Z</time><name>PT13713</name></trkpt>
<trkpt lat="54.346013" lon="-3.097311"><ele>139</ele><time>2020-06-12T13:53:41Z</time><name>PT13714</name></trkpt>
<trkpt lat="54.346009" lon="-3.097298"><ele>140</ele><time>2020-06-12T13:53:42Z</time><name>PT13715</name></trkpt>
<trkpt lat="54.346009" lon="-3.097290"><ele>139</ele><time>2020-06-12T13:53:43Z</time><name>PT13716</name></trkpt>
<trkpt lat="54.346009" lon="-3.097276"><ele>139</ele><time>2020-06-12T13:53:44Z</time><name>PT13717</name></trkpt>
<trkpt lat="54.346012" lon="-3.097266"><ele>138</ele><time>2020-06-12T13:53:45Z</time><name>PT13718</name></trkpt>
<trkpt lat="54.346016" lon="-3.097260"><ele>138</ele><time>2020-06-12T13:53:46Z</time><name>PT13719</name></trkpt>
<trkpt lat="54.346023" lon="-3.097245"><ele>139</ele><time>2020-06-12T13:53:47Z</time><name>PT13720</name></trkpt>
<trkpt lat="54.346024" lon="-3.097245"><ele>138</ele><time>2020-06-12T13:53:48Z</time><name>PT13721</name></trkpt>
<trkpt lat="54.346024" lon="-3.097232"><ele>139</ele><time>2020-06-12T13:53:49Z</time><name>PT13722</name></trkpt>
<trkpt lat="54.346025" lon="-3.097221"><ele>139</ele><time>2020-06-12T13:53:50Z</time><name>PT13723</name></trkpt>
<trkpt lat="54.346028" lon="-3.097210"><ele>139</ele><time>2020-06-12T13:53:51Z</time><name>PT13724</name></trkpt>
<trkpt lat="54.346035" lon="-3.097201"><ele>139</ele><time>2020-06-12T13:53:52Z</time><name>PT13725</name></trkpt>
<trkpt lat="54.346042" lon="-3.097190"><ele>140</ele><time>2020-06-12T13:53:53Z</time><name>PT13726</name></trkpt>
<trkpt lat="54.346045" lon="-3.097174"><ele>142</ele><time>2020-06-12T13:53:54Z</time><name>PT13727</name></trkpt>
<trkpt lat="54.346047" lon="-3.097162"><ele>141</ele><time>2020-06-12T13:53:55Z</time><name>PT13728</name></trkpt>
<trkpt lat="54.346048" lon="-3.097153"><ele>141</ele><time>2020-06-12T13:53:56Z</time><name>PT13729</name></trkpt>
<trkpt lat="54.346053" lon="-3.097149"><ele>141</ele><time>2020-06-12T13:53:57Z</time><name>PT13730</name></trkpt>
<trkpt lat="54.346058" lon="-3.097137"><ele>141</ele><time>2020-06-12T13:53:58Z</time><name>PT13731</name></trkpt>
<trkpt lat="54.346064" lon="-3.097119"><ele>141</ele><time>2020-06-12T13:53:59Z</time><name>PT13732</name></trkpt>
<trkpt lat="54.346071" lon="-3.097112"><ele>141</ele><time>2020-06-12T13:54:00Z</time><name>PT13733</name></trkpt>
<trkpt lat="54.346078" lon="-3.097108"><ele>141</ele><time>2020-06-12T13:54:01Z</time><name>PT13734</name></trkpt>
<trkpt lat="54.346083" lon="-3.097098"><ele>141</ele><time>2020-06-12T13:54:02Z</time><name>PT13735</name></trkpt>
<trkpt lat="54.346081" lon="-3.097080"><ele>142</ele><time>2020-06-12T13:54:03Z</time><name>PT13736</name></trkpt>
<trkpt lat="54.346079" lon="-3.097053"><ele>141</ele><time>2020-06-12T13:54:04Z</time><name>PT13737</name></trkpt>
<trkpt lat="54.346080" lon="-3.097031"><ele>142</ele><time>2020-06-12T13:54:05Z</time><name>PT13738</name></trkpt>
<trkpt lat="54.346081" lon="-3.097018"><ele>141</ele><time>2020-06-12T13:54:06Z</time><name>PT13739</name></trkpt>
<trkpt lat="54.346087" lon="-3.097005"><ele>143</ele><time>2020-06-12T13:54:07Z</time><name>PT13740</name></trkpt>
<trkpt lat="54.346085" lon="-3.096992"><ele>144</ele><time>2020-06-12T13:54:08Z</time><name>PT13741</name></trkpt>
<trkpt lat="54.346086" lon="-3.096967"><ele>143</ele><time>2020-06-12T13:54:09Z</time><name>PT13742</name></trkpt>
<trkpt lat="54.346083" lon="-3.096945"><ele>143</ele><time>2020-06-12T13:54:10Z</time><name>PT13743</name></trkpt>
<trkpt lat="54.346077" lon="-3.096925"><ele>143</ele><time>2020-06-12T13:54:11Z</time><name>PT13744</name></trkpt>
<trkpt lat="54.346071" lon="-3.096901"><ele>142</ele><time>2020-06-12T13:54:12Z</time><name>PT13745</name></trkpt>
<trkpt lat="54.346066" lon="-3.096895"><ele>140</ele><time>2020-06-12T13:54:13Z</time><name>PT13746</name></trkpt>
<trkpt lat="54.346059" lon="-3.096883"><ele>140</ele><time>2020-06-12T13:54:14Z</time><name>PT13747</name></trkpt>
<trkpt lat="54.346054" lon="-3.096874"><ele>140</ele><time>2020-06-12T13:54:15Z</time><name>PT13748</name></trkpt>
<trkpt lat="54.346056" lon="-3.096866"><ele>139</ele><time>2020-06-12T13:54:16Z</time><name>PT13749</name></trkpt>
<trkpt lat="54.346052" lon="-3.096844"><ele>140</ele><time>2020-06-12T13:54:17Z</time><name>PT13750</name></trkpt>
<trkpt lat="54.346050" lon="-3.096829"><ele>139</ele><time>2020-06-12T13:54:18Z</time><name>PT13751</name></trkpt>
<trkpt lat="54.346045" lon="-3.096805"><ele>140</ele><time>2020-06-12T13:54:19Z</time><name>PT13752</name></trkpt>
<trkpt lat="54.346042" lon="-3.096784"><ele>140</ele><time>2020-06-12T13:54:20Z</time><name>PT13753</name></trkpt>
<trkpt lat="54.346035" lon="-3.096765"><ele>141</ele><time>2020-06-12T13:54:21Z</time><name>PT13754</name></trkpt>
<trkpt lat="54.346029" lon="-3.096755"><ele>141</ele><time>2020-06-12T13:54:22Z</time><name>PT13755</name></trkpt>
<trkpt lat="54.346028" lon="-3.096745"><ele>141</ele><time>2020-06-12T13:54:23Z</time><name>PT13756</name></trkpt>
<trkpt lat="54.346024" lon="-3.096732"><ele>141</ele><time>2020-06-12T13:54:24Z</time><name>PT13757</name></trkpt>
<trkpt lat="54.346019" lon="-3.096714"><ele>140</ele><time>2020-06-12T13:54:25Z</time><name>PT13758</name></trkpt>
<trkpt lat="54.346017" lon="-3.096700"><ele>140</ele><time>2020-06-12T13:54:26Z</time><name>PT13759</name></trkpt>
<trkpt lat="54.346016" lon="-3.096686"><ele>140</ele><time>2020-06-12T13:54:27Z</time><name>PT13760</name></trkpt>
<trkpt lat="54.346012" lon="-3.096676"><ele>139</ele><time>2020-06-12T13:54:28Z</time><name>PT13761</name></trkpt>
<trkpt lat="54.346007" lon="-3.096658"><ele>138</ele><time>2020-06-12T13:54:29Z</time><name>PT13762</name></trkpt>
<trkpt lat="54.345998" lon="-3.096635"><ele>137</ele><time>2020-06-12T13:54:30Z</time><name>PT13763</name></trkpt>
<trkpt lat="54.345992" lon="-3.096623"><ele>136</ele><time>2020-06-12T13:54:31Z</time><name>PT13764</name></trkpt>
<trkpt lat="54.345991" lon="-3.096603"><ele>136</ele><time>2020-06-12T13:54:32Z</time><name>PT13765</name></trkpt>
<trkpt lat="54.345992" lon="-3.096591"><ele>136</ele><time>2020-06-12T13:54:33Z</time><name>PT13766</name></trkpt>
<trkpt lat="54.346000" lon="-3.096579"><ele>136</ele><time>2020-06-12T13:54:34Z</time><name>PT13767</name></trkpt>
<trkpt lat="54.346005" lon="-3.096569"><ele>136</ele><time>2020-06-12T13:54:35Z</time><name>PT13768</name></trkpt>
<trkpt lat="54.346011" lon="-3.096561"><ele>136</ele><time>2020-06-12T13:54:36Z</time><name>PT13769</name></trkpt>
<trkpt lat="54.346015" lon="-3.096547"><ele>136</ele><time>2020-06-12T13:54:37Z</time><name>PT13770</name></trkpt>
<trkpt lat="54.346019" lon="-3.096530"><ele>136</ele><time>2020-06-12T13:54:38Z</time><name>PT13771</name></trkpt>
<trkpt lat="54.346016" lon="-3.096512"><ele>135</ele><time>2020-06-12T13:54:39Z</time><name>PT13772</name></trkpt>
<trkpt lat="54.346010" lon="-3.096497"><ele>135</ele><time>2020-06-12T13:54:40Z</time><name>PT13773</name></trkpt>
<trkpt lat="54.346004" lon="-3.096479"><ele>135</ele><time>2020-06-12T13:54:41Z</time><name>PT13774</name></trkpt>
<trkpt lat="54.346000" lon="-3.096466"><ele>134</ele><time>2020-06-12T13:54:42Z</time><name>PT13775</name></trkpt>
<trkpt lat="54.345992" lon="-3.096454"><ele>134</ele><time>2020-06-12T13:54:43Z</time><name>PT13776</name></trkpt>
<trkpt lat="54.345984" lon="-3.096435"><ele>133</ele><time>2020-06-12T13:54:44Z</time><name>PT13777</name></trkpt>
<trkpt lat="54.345980" lon="-3.096418"><ele>133</ele><time>2020-06-12T13:54:45Z</time><name>PT13778</name></trkpt>
<trkpt lat="54.345971" lon="-3.096403"><ele>133</ele><time>2020-06-12T13:54:46Z</time><name>PT13779</name></trkpt>
<trkpt lat="54.345967" lon="-3.096388"><ele>132</ele><time>2020-06-12T13:54:47Z</time><name>PT13780</name></trkpt>
<trkpt lat="54.345964" lon="-3.096370"><ele>132</ele><time>2020-06-12T13:54:48Z</time><name>PT13781</name></trkpt>
<trkpt lat="54.345950" lon="-3.096355"><ele>133</ele><time>2020-06-12T13:54:49Z</time><name>PT13782</name></trkpt>
<trkpt lat="54.345939" lon="-3.096343"><ele>132</ele><time>2020-06-12T13:54:50Z</time><name>PT13783</name></trkpt>
<trkpt lat="54.345932" lon="-3.096329"><ele>132</ele><time>2020-06-12T13:54:51Z</time><name>PT13784</name></trkpt>
<trkpt lat="54.345926" lon="-3.096316"><ele>132</ele><time>2020-06-12T13:54:52Z</time><name>PT13785</name></trkpt>
<trkpt lat="54.345921" lon="-3.096302"><ele>132</ele><time>2020-06-12T13:54:53Z</time><name>PT13786</name></trkpt>
<trkpt lat="54.345914" lon="-3.096288"><ele>132</ele><time>2020-06-12T13:54:54Z</time><name>PT13787</name></trkpt>
<trkpt lat="54.345912" lon="-3.096278"><ele>131</ele><time>2020-06-12T13:54:55Z</time><name>PT13788</name></trkpt>
<trkpt lat="54.345910" lon="-3.096264"><ele>131</ele><time>2020-06-12T13:54:56Z</time><name>PT13789</name></trkpt>
<trkpt lat="54.345909" lon="-3.096245"><ele>131</ele><time>2020-06-12T13:54:57Z</time><name>PT13790</name></trkpt>
<trkpt lat="54.345908" lon="-3.096227"><ele>130</ele><time>2020-06-12T13:54:58Z</time><name>PT13791</name></trkpt>
<trkpt lat="54.345905" lon="-3.096207"><ele>129</ele><time>2020-06-12T13:54:59Z</time><name>PT13792</name></trkpt>
<trkpt lat="54.345900" lon="-3.096190"><ele>129</ele><time>2020-06-12T13:55:00Z</time><name>PT13793</name></trkpt>
<trkpt lat="54.345892" lon="-3.096178"><ele>129</ele><time>2020-06-12T13:55:01Z</time><name>PT13794</name></trkpt>
<trkpt lat="54.345884" lon="-3.096174"><ele>129</ele><time>2020-06-12T13:55:02Z</time><name>PT13795</name></trkpt>
<trkpt lat="54.345872" lon="-3.096161"><ele>129</ele><time>2020-06-12T13:55:03Z</time><name>PT13796</name></trkpt>
<trkpt lat="54.345857" lon="-3.096151"><ele>130</ele><time>2020-06-12T13:55:04Z</time><name>PT13797</name></trkpt>
<trkpt lat="54.345849" lon="-3.096146"><ele>130</ele><time>2020-06-12T13:55:05Z</time><name>PT13798</name></trkpt>
<trkpt lat="54.345838" lon="-3.096142"><ele>129</ele><time>2020-06-12T13:55:06Z</time><name>PT13799</name></trkpt>
<trkpt lat="54.345826" lon="-3.096135"><ele>129</ele><time>2020-06-12T13:55:07Z</time><name>PT13800</name></trkpt>
<trkpt lat="54.345818" lon="-3.096130"><ele>129</ele><time>2020-06-12T13:55:08Z</time><name>PT13801</name></trkpt>
<trkpt lat="54.345809" lon="-3.096122"><ele>129</ele><time>2020-06-12T13:55:09Z</time><name>PT13802</name></trkpt>
<trkpt lat="54.345801" lon="-3.096113"><ele>129</ele><time>2020-06-12T13:55:10Z</time><name>PT13803</name></trkpt>
<trkpt lat="54.345796" lon="-3.096104"><ele>128</ele><time>2020-06-12T13:55:11Z</time><name>PT13804</name></trkpt>
<trkpt lat="54.345790" lon="-3.096087"><ele>127</ele><time>2020-06-12T13:55:12Z</time><name>PT13805</name></trkpt>
<trkpt lat="54.345786" lon="-3.096073"><ele>127</ele><time>2020-06-12T13:55:13Z</time><name>PT13806</name></trkpt>
<trkpt lat="54.345784" lon="-3.096063"><ele>126</ele><time>2020-06-12T13:55:14Z</time><name>PT13807</name></trkpt>
<trkpt lat="54.345784" lon="-3.096049"><ele>126</ele><time>2020-06-12T13:55:15Z</time><name>PT13808</name></trkpt>
<trkpt lat="54.345783" lon="-3.096033"><ele>126</ele><time>2020-06-12T13:55:16Z</time><name>PT13809</name></trkpt>
<trkpt lat="54.345780" lon="-3.096020"><ele>126</ele><time>2020-06-12T13:55:17Z</time><name>PT13810</name></trkpt>
<trkpt lat="54.345780" lon="-3.096002"><ele>126</ele><time>2020-06-12T13:55:18Z</time><name>PT13811</name></trkpt>
<trkpt lat="54.345773" lon="-3.095989"><ele>125</ele><time>2020-06-12T13:55:19Z</time><name>PT13812</name></trkpt>
<trkpt lat="54.345768" lon="-3.095977"><ele>125</ele><time>2020-06-12T13:55:20Z</time><name>PT13813</name></trkpt>
<trkpt lat="54.345764" lon="-3.095964"><ele>125</ele><time>2020-06-12T13:55:21Z</time><name>PT13814</name></trkpt>
<trkpt lat="54.345764" lon="-3.095953"><ele>125</ele><time>2020-06-12T13:55:22Z</time><name>PT13815</name></trkpt>
<trkpt lat="54.345765" lon="-3.095943"><ele>125</ele><time>2020-06-12T13:55:23Z</time><name>PT13816</name></trkpt>
<trkpt lat="54.345761" lon="-3.095927"><ele>125</ele><time>2020-06-12T13:55:24Z</time><name>PT13817</name></trkpt>
<trkpt lat="54.345760" lon="-3.095907"><ele>125</ele><time>2020-06-12T13:55:25Z</time><name>PT13818</name></trkpt>
<trkpt lat="54.345762" lon="-3.095898"><ele>125</ele><time>2020-06-12T13:55:26Z</time><name>PT13819</name></trkpt>
<trkpt lat="54.345762" lon="-3.095882"><ele>125</ele><time>2020-06-12T13:55:27Z</time><name>PT13820</name></trkpt>
<trkpt lat="54.345762" lon="-3.095862"><ele>125</ele><time>2020-06-12T13:55:28Z</time><name>PT13821</name></trkpt>
<trkpt lat="54.345758" lon="-3.095844"><ele>125</ele><time>2020-06-12T13:55:29Z</time><name>PT13822</name></trkpt>
<trkpt lat="54.345755" lon="-3.095823"><ele>125</ele><time>2020-06-12T13:55:30Z</time><name>PT13823</name></trkpt>
<trkpt lat="54.345750" lon="-3.095804"><ele>125</ele><time>2020-06-12T13:55:31Z</time><name>PT13824</name></trkpt>
<trkpt lat="54.345747" lon="-3.095783"><ele>125</ele><time>2020-06-12T13:55:32Z</time><name>PT13825</name></trkpt>
<trkpt lat="54.345743" lon="-3.095761"><ele>124</ele><time>2020-06-12T13:55:33Z</time><name>PT13826</name></trkpt>
<trkpt lat="54.345741" lon="-3.095740"><ele>124</ele><time>2020-06-12T13:55:34Z</time><name>PT13827</name></trkpt>
<trkpt lat="54.345741" lon="-3.095717"><ele>124</ele><time>2020-06-12T13:55:35Z</time><name>PT13828</name></trkpt>
<trkpt lat="54.345737" lon="-3.095696"><ele>124</ele><time>2020-06-12T13:55:36Z</time><name>PT13829</name></trkpt>
<trkpt lat="54.345733" lon="-3.095678"><ele>124</ele><time>2020-06-12T13:55:37Z</time><name>PT13830</name></trkpt>
<trkpt lat="54.345728" lon="-3.095662"><ele>124</ele><time>2020-06-12T13:55:38Z</time><name>PT13831</name></trkpt>
<trkpt lat="54.345724" lon="-3.095646"><ele>123</ele><time>2020-06-12T13:55:39Z</time><name>PT13832</name></trkpt>
<trkpt lat="54.345726" lon="-3.095624"><ele>123</ele><time>2020-06-12T13:55:40Z</time><name>PT13833</name></trkpt>
<trkpt lat="54.345722" lon="-3.095606"><ele>123</ele><time>2020-06-12T13:55:41Z</time><name>PT13834</name></trkpt>
<trkpt lat="54.345719" lon="-3.095590"><ele>123</ele><time>2020-06-12T13:55:42Z</time><name>PT13835</name></trkpt>
<trkpt lat="54.345719" lon="-3.095578"><ele>123</ele><time>2020-06-12T13:55:43Z</time><name>PT13836</name></trkpt>
<trkpt lat="54.345717" lon="-3.095563"><ele>123</ele><time>2020-06-12T13:55:44Z</time><name>PT13837</name></trkpt>
<trkpt lat="54.345712" lon="-3.095544"><ele>123</ele><time>2020-06-12T13:55:45Z</time><name>PT13838</name></trkpt>
<trkpt lat="54.345706" lon="-3.095528"><ele>123</ele><time>2020-06-12T13:55:46Z</time><name>PT13839</name></trkpt>
<trkpt lat="54.345702" lon="-3.095510"><ele>123</ele><time>2020-06-12T13:55:47Z</time><name>PT13840</name></trkpt>
<trkpt lat="54.345699" lon="-3.095491"><ele>122</ele><time>2020-06-12T13:55:48Z</time><name>PT13841</name></trkpt>
<trkpt lat="54.345698" lon="-3.095476"><ele>122</ele><time>2020-06-12T13:55:49Z</time><name>PT13842</name></trkpt>
<trkpt lat="54.345697" lon="-3.095464"><ele>122</ele><time>2020-06-12T13:55:50Z</time><name>PT13843</name></trkpt>
<trkpt lat="54.345695" lon="-3.095452"><ele>122</ele><time>2020-06-12T13:55:51Z</time><name>PT13844</name></trkpt>
<trkpt lat="54.345690" lon="-3.095439"><ele>122</ele><time>2020-06-12T13:55:52Z</time><name>PT13845</name></trkpt>
<trkpt lat="54.345686" lon="-3.095428"><ele>121</ele><time>2020-06-12T13:55:53Z</time><name>PT13846</name></trkpt>
<trkpt lat="54.345685" lon="-3.095414"><ele>121</ele><time>2020-06-12T13:55:54Z</time><name>PT13847</name></trkpt>
<trkpt lat="54.345682" lon="-3.095401"><ele>121</ele><time>2020-06-12T13:55:55Z</time><name>PT13848</name></trkpt>
<trkpt lat="54.345680" lon="-3.095388"><ele>121</ele><time>2020-06-12T13:55:56Z</time><name>PT13849</name></trkpt>
<trkpt lat="54.345677" lon="-3.095371"><ele>120</ele><time>2020-06-12T13:55:57Z</time><name>PT13850</name></trkpt>
<trkpt lat="54.345678" lon="-3.095358"><ele>120</ele><time>2020-06-12T13:55:58Z</time><name>PT13851</name></trkpt>
<trkpt lat="54.345675" lon="-3.095345"><ele>120</ele><time>2020-06-12T13:55:59Z</time><name>PT13852</name></trkpt>
<trkpt lat="54.345673" lon="-3.095331"><ele>120</ele><time>2020-06-12T13:56:00Z</time><name>PT13853</name></trkpt>
<trkpt lat="54.345669" lon="-3.095315"><ele>121</ele><time>2020-06-12T13:56:01Z</time><name>PT13854</name></trkpt>
<trkpt lat="54.345665" lon="-3.095298"><ele>121</ele><time>2020-06-12T13:56:02Z</time><name>PT13855</name></trkpt>
<trkpt lat="54.345659" lon="-3.095277"><ele>121</ele><time>2020-06-12T13:56:03Z</time><name>PT13856</name></trkpt>
<trkpt lat="54.345655" lon="-3.095266"><ele>121</ele><time>2020-06-12T13:56:04Z</time><name>PT13857</name></trkpt>
<trkpt lat="54.345653" lon="-3.095256"><ele>121</ele><time>2020-06-12T13:56:05Z</time><name>PT13858</name></trkpt>
<trkpt lat="54.345652" lon="-3.095245"><ele>121</ele><time>2020-06-12T13:56:06Z</time><name>PT13859</name></trkpt>
<trkpt lat="54.345651" lon="-3.095232"><ele>120</ele><time>2020-06-12T13:56:07Z</time><name>PT13860</name></trkpt>
<trkpt lat="54.345649" lon="-3.095221"><ele>120</ele><time>2020-06-12T13:56:08Z</time><name>PT13861</name></trkpt>
<trkpt lat="54.345644" lon="-3.095208"><ele>120</ele><time>2020-06-12T13:56:09Z</time><name>PT13862</name></trkpt>
<trkpt lat="54.345641" lon="-3.095197"><ele>119</ele><time>2020-06-12T13:56:10Z</time><name>PT13863</name></trkpt>
<trkpt lat="54.345639" lon="-3.095184"><ele>119</ele><time>2020-06-12T13:56:11Z</time><name>PT13864</name></trkpt>
<trkpt lat="54.345637" lon="-3.095171"><ele>119</ele><time>2020-06-12T13:56:12Z</time><name>PT13865</name></trkpt>
<trkpt lat="54.345635" lon="-3.095162"><ele>119</ele><time>2020-06-12T13:56:13Z</time><name>PT13866</name></trkpt>
<trkpt lat="54.345626" lon="-3.095149"><ele>118</ele><time>2020-06-12T13:56:14Z</time><name>PT13867</name></trkpt>
<trkpt lat="54.345615" lon="-3.095137"><ele>118</ele><time>2020-06-12T13:56:15Z</time><name>PT13868</name></trkpt>
<trkpt lat="54.345609" lon="-3.095125"><ele>117</ele><time>2020-06-12T13:56:16Z</time><name>PT13869</name></trkpt>
<trkpt lat="54.345603" lon="-3.095114"><ele>116</ele><time>2020-06-12T13:56:17Z</time><name>PT13870</name></trkpt>
<trkpt lat="54.345594" lon="-3.095097"><ele>117</ele><time>2020-06-12T13:56:18Z</time><name>PT13871</name></trkpt>
<trkpt lat="54.345584" lon="-3.095077"><ele>118</ele><time>2020-06-12T13:56:19Z</time><name>PT13872</name></trkpt>
<trkpt lat="54.345578" lon="-3.095068"><ele>117</ele><time>2020-06-12T13:56:20Z</time><name>PT13873</name></trkpt>
<trkpt lat="54.345572" lon="-3.095062"><ele>117</ele><time>2020-06-12T13:56:21Z</time><name>PT13874</name></trkpt>
<trkpt lat="54.345568" lon="-3.095048"><ele>117</ele><time>2020-06-12T13:56:22Z</time><name>PT13875</name></trkpt>
<trkpt lat="54.345563" lon="-3.095032"><ele>116</ele><time>2020-06-12T13:56:23Z</time><name>PT13876</name></trkpt>
<trkpt lat="54.345556" lon="-3.095015"><ele>116</ele><time>2020-06-12T13:56:24Z</time><name>PT13877</name></trkpt>
<trkpt lat="54.345547" lon="-3.094998"><ele>116</ele><time>2020-06-12T13:56:25Z</time><name>PT13878</name></trkpt>
<trkpt lat="54.345538" lon="-3.094980"><ele>116</ele><time>2020-06-12T13:56:26Z</time><name>PT13879</name></trkpt>
<trkpt lat="54.345529" lon="-3.094963"><ele>116</ele><time>2020-06-12T13:56:27Z</time><name>PT13880</name></trkpt>
<trkpt lat="54.345525" lon="-3.094946"><ele>116</ele><time>2020-06-12T13:56:28Z</time><name>PT13881</name></trkpt>
<trkpt lat="54.345522" lon="-3.094934"><ele>116</ele><time>2020-06-12T13:56:29Z</time><name>PT13882</name></trkpt>
<trkpt lat="54.345519" lon="-3.094921"><ele>116</ele><time>2020-06-12T13:56:30Z</time><name>PT13883</name></trkpt>
<trkpt lat="54.345516" lon="-3.094901"><ele>117</ele><time>2020-06-12T13:56:31Z</time><name>PT13884</name></trkpt>
<trkpt lat="54.345518" lon="-3.094888"><ele>117</ele><time>2020-06-12T13:56:32Z</time><name>PT13885</name></trkpt>
<trkpt lat="54.345523" lon="-3.094871"><ele>116</ele><time>2020-06-12T13:56:33Z</time><name>PT13886</name></trkpt>
<trkpt lat="54.345527" lon="-3.094851"><ele>116</ele><time>2020-06-12T13:56:34Z</time><name>PT13887</name></trkpt>
<trkpt lat="54.345527" lon="-3.094830"><ele>116</ele><time>2020-06-12T13:56:35Z</time><name>PT13888</name></trkpt>
<trkpt lat="54.345532" lon="-3.094812"><ele>116</ele><time>2020-06-12T13:56:36Z</time><name>PT13889</name></trkpt>
<trkpt lat="54.345537" lon="-3.094799"><ele>115</ele><time>2020-06-12T13:56:37Z</time><name>PT13890</name></trkpt>
<trkpt lat="54.345543" lon="-3.094788"><ele>115</ele><time>2020-06-12T13:56:38Z</time><name>PT13891</name></trkpt>
<trkpt lat="54.345550" lon="-3.094776"><ele>116</ele><time>2020-06-12T13:56:39Z</time><name>PT13892</name></trkpt>
<trkpt lat="54.345553" lon="-3.094765"><ele>116</ele><time>2020-06-12T13:56:40Z</time><name>PT13893</name></trkpt>
<trkpt lat="54.345556" lon="-3.094761"><ele>116</ele><time>2020-06-12T13:56:41Z</time><name>PT13894</name></trkpt>
<trkpt lat="54.345557" lon="-3.094758"><ele>115</ele><time>2020-06-12T13:56:42Z</time><name>PT13895</name></trkpt>
<trkpt lat="54.345546" lon="-3.094726"><ele>118</ele><time>2020-06-12T13:56:43Z</time><name>PT13896</name></trkpt>
<trkpt lat="54.345546" lon="-3.094721"><ele>118</ele><time>2020-06-12T13:56:44Z</time><name>PT13897</name></trkpt>
<trkpt lat="54.345543" lon="-3.094713"><ele>118</ele><time>2020-06-12T13:56:45Z</time><name>PT13898</name></trkpt>
<trkpt lat="54.345540" lon="-3.094716"><ele>118</ele><time>2020-06-12T13:56:46Z</time><name>PT13899</name></trkpt>
<trkpt lat="54.345539" lon="-3.094714"><ele>118</ele><time>2020-06-12T13:56:47Z</time><name>PT13900</name></trkpt>
<trkpt lat="54.345538" lon="-3.094713"><ele>118</ele><time>2020-06-12T13:56:48Z</time><name>PT13901</name></trkpt>
<trkpt lat="54.345534" lon="-3.094712"><ele>117</ele><time>2020-06-12T13:56:51Z</time><name>PT13902</name></trkpt>
<trkpt lat="54.345532" lon="-3.094709"><ele>118</ele><time>2020-06-12T13:56:52Z</time><name>PT13903</name></trkpt>
<trkpt lat="54.345531" lon="-3.094697"><ele>117</ele><time>2020-06-12T13:56:53Z</time><name>PT13904</name></trkpt>
<trkpt lat="54.345531" lon="-3.094688"><ele>117</ele><time>2020-06-12T13:56:54Z</time><name>PT13905</name></trkpt>
<trkpt lat="54.345535" lon="-3.094683"><ele>117</ele><time>2020-06-12T13:56:55Z</time><name>PT13906</name></trkpt>
<trkpt lat="54.345538" lon="-3.094675"><ele>117</ele><time>2020-06-12T13:56:56Z</time><name>PT13907</name></trkpt>
<trkpt lat="54.345538" lon="-3.094674"><ele>117</ele><time>2020-06-12T13:56:57Z</time><name>PT13908</name></trkpt>
<trkpt lat="54.345540" lon="-3.094676"><ele>116</ele><time>2020-06-12T13:56:58Z</time><name>PT13909</name></trkpt>
<trkpt lat="54.345547" lon="-3.094674"><ele>116</ele><time>2020-06-12T13:56:59Z</time><name>PT13910</name></trkpt>
<trkpt lat="54.345554" lon="-3.094664"><ele>116</ele><time>2020-06-12T13:57:00Z</time><name>PT13911</name></trkpt>
<trkpt lat="54.345558" lon="-3.094649"><ele>115</ele><time>2020-06-12T13:57:01Z</time><name>PT13912</name></trkpt>
<trkpt lat="54.345562" lon="-3.094627"><ele>116</ele><time>2020-06-12T13:57:02Z</time><name>PT13913</name></trkpt>
<trkpt lat="54.345565" lon="-3.094604"><ele>116</ele><time>2020-06-12T13:57:03Z</time><name>PT13914</name></trkpt>
<trkpt lat="54.345570" lon="-3.094588"><ele>116</ele><time>2020-06-12T13:57:04Z</time><name>PT13915</name></trkpt>
<trkpt lat="54.345574" lon="-3.094567"><ele>116</ele><time>2020-06-12T13:57:05Z</time><name>PT13916</name></trkpt>
<trkpt lat="54.345573" lon="-3.094541"><ele>116</ele><time>2020-06-12T13:57:06Z</time><name>PT13917</name></trkpt>
<trkpt lat="54.345570" lon="-3.094520"><ele>116</ele><time>2020-06-12T13:57:07Z</time><name>PT13918</name></trkpt>
<trkpt lat="54.345565" lon="-3.094500"><ele>116</ele><time>2020-06-12T13:57:08Z</time><name>PT13919</name></trkpt>
<trkpt lat="54.345569" lon="-3.094482"><ele>116</ele><time>2020-06-12T13:57:09Z</time><name>PT13920</name></trkpt>
<trkpt lat="54.345573" lon="-3.094466"><ele>115</ele><time>2020-06-12T13:57:10Z</time><name>PT13921</name></trkpt>
<trkpt lat="54.345576" lon="-3.094445"><ele>116</ele><time>2020-06-12T13:57:11Z</time><name>PT13922</name></trkpt>
<trkpt lat="54.345577" lon="-3.094423"><ele>116</ele><time>2020-06-12T13:57:12Z</time><name>PT13923</name></trkpt>
<trkpt lat="54.345582" lon="-3.094414"><ele>115</ele><time>2020-06-12T13:57:13Z</time><name>PT13924</name></trkpt>
<trkpt lat="54.345584" lon="-3.094402"><ele>115</ele><time>2020-06-12T13:57:14Z</time><name>PT13925</name></trkpt>
<trkpt lat="54.345583" lon="-3.094379"><ele>115</ele><time>2020-06-12T13:57:15Z</time><name>PT13926</name></trkpt>
<trkpt lat="54.345587" lon="-3.094364"><ele>114</ele><time>2020-06-12T13:57:16Z</time><name>PT13927</name></trkpt>
<trkpt lat="54.345589" lon="-3.094337"><ele>115</ele><time>2020-06-12T13:57:17Z</time><name>PT13928</name></trkpt>
<trkpt lat="54.345593" lon="-3.094314"><ele>115</ele><time>2020-06-12T13:57:18Z</time><name>PT13929</name></trkpt>
<trkpt lat="54.345596" lon="-3.094292"><ele>115</ele><time>2020-06-12T13:57:19Z</time><name>PT13930</name></trkpt>
<trkpt lat="54.345595" lon="-3.094273"><ele>114</ele><time>2020-06-12T13:57:20Z</time><name>PT13931</name></trkpt>
<trkpt lat="54.345596" lon="-3.094256"><ele>114</ele><time>2020-06-12T13:57:21Z</time><name>PT13932</name></trkpt>
<trkpt lat="54.345597" lon="-3.094238"><ele>114</ele><time>2020-06-12T13:57:22Z</time><name>PT13933</name></trkpt>
<trkpt lat="54.345599" lon="-3.094220"><ele>113</ele><time>2020-06-12T13:57:23Z</time><name>PT13934</name></trkpt>
<trkpt lat="54.345599" lon="-3.094202"><ele>113</ele><time>2020-06-12T13:57:24Z</time><name>PT13935</name></trkpt>
<trkpt lat="54.345600" lon="-3.094185"><ele>113</ele><time>2020-06-12T13:57:25Z</time><name>PT13936</name></trkpt>
<trkpt lat="54.345599" lon="-3.094171"><ele>113</ele><time>2020-06-12T13:57:26Z</time><name>PT13937</name></trkpt>
<trkpt lat="54.345604" lon="-3.094159"><ele>112</ele><time>2020-06-12T13:57:27Z</time><name>PT13938</name></trkpt>
<trkpt lat="54.345606" lon="-3.094151"><ele>112</ele><time>2020-06-12T13:57:28Z</time><name>PT13939</name></trkpt>
<trkpt lat="54.345611" lon="-3.094143"><ele>112</ele><time>2020-06-12T13:57:29Z</time><name>PT13940</name></trkpt>
<trkpt lat="54.345613" lon="-3.094134"><ele>112</ele><time>2020-06-12T13:57:30Z</time><name>PT13941</name></trkpt>
<trkpt lat="54.345614" lon="-3.094130"><ele>112</ele><time>2020-06-12T13:57:31Z</time><name>PT13942</name></trkpt>
<trkpt lat="54.345613" lon="-3.094126"><ele>112</ele><time>2020-06-12T13:57:32Z</time><name>PT13943</name></trkpt>
<trkpt lat="54.345611" lon="-3.094117"><ele>112</ele><time>2020-06-12T13:57:33Z</time><name>PT13944</name></trkpt>
<trkpt lat="54.345610" lon="-3.094105"><ele>112</ele><time>2020-06-12T13:57:34Z</time><name>PT13945</name></trkpt>
<trkpt lat="54.345610" lon="-3.094089"><ele>113</ele><time>2020-06-12T13:57:35Z</time><name>PT13946</name></trkpt>
<trkpt lat="54.345617" lon="-3.094086"><ele>113</ele><time>2020-06-12T13:57:36Z</time><name>PT13947</name></trkpt>
<trkpt lat="54.345617" lon="-3.094068"><ele>112</ele><time>2020-06-12T13:57:37Z</time><name>PT13948</name></trkpt>
<trkpt lat="54.345618" lon="-3.094045"><ele>112</ele><time>2020-06-12T13:57:38Z</time><name>PT13949</name></trkpt>
<trkpt lat="54.345620" lon="-3.094024"><ele>112</ele><time>2020-06-12T13:57:39Z</time><name>PT13950</name></trkpt>
<trkpt lat="54.345621" lon="-3.094003"><ele>112</ele><time>2020-06-12T13:57:40Z</time><name>PT13951</name></trkpt>
<trkpt lat="54.345625" lon="-3.093977"><ele>113</ele><time>2020-06-12T13:57:41Z</time><name>PT13952</name></trkpt>
<trkpt lat="54.345622" lon="-3.093951"><ele>113</ele><time>2020-06-12T13:57:42Z</time><name>PT13953</name></trkpt>
<trkpt lat="54.345623" lon="-3.093933"><ele>113</ele><time>2020-06-12T13:57:43Z</time><name>PT13954</name></trkpt>
<trkpt lat="54.345627" lon="-3.093915"><ele>113</ele><time>2020-06-12T13:57:44Z</time><name>PT13955</name></trkpt>
<trkpt lat="54.345630" lon="-3.093896"><ele>113</ele><time>2020-06-12T13:57:45Z</time><name>PT13956</name></trkpt>
<trkpt lat="54.345633" lon="-3.093868"><ele>114</ele><time>2020-06-12T13:57:46Z</time><name>PT13957</name></trkpt>
<trkpt lat="54.345638" lon="-3.093844"><ele>114</ele><time>2020-06-12T13:57:47Z</time><name>PT13958</name></trkpt>
<trkpt lat="54.345639" lon="-3.093824"><ele>114</ele><time>2020-06-12T13:57:48Z</time><name>PT13959</name></trkpt>
<trkpt lat="54.345640" lon="-3.093805"><ele>115</ele><time>2020-06-12T13:57:49Z</time><name>PT13960</name></trkpt>
<trkpt lat="54.345639" lon="-3.093786"><ele>114</ele><time>2020-06-12T13:57:50Z</time><name>PT13961</name></trkpt>
<trkpt lat="54.345640" lon="-3.093767"><ele>114</ele><time>2020-06-12T13:57:51Z</time><name>PT13962</name></trkpt>
<trkpt lat="54.345641" lon="-3.093747"><ele>114</ele><time>2020-06-12T13:57:52Z</time><name>PT13963</name></trkpt>
<trkpt lat="54.345644" lon="-3.093728"><ele>114</ele><time>2020-06-12T13:57:53Z</time><name>PT13964</name></trkpt>
<trkpt lat="54.345645" lon="-3.093713"><ele>114</ele><time>2020-06-12T13:57:54Z</time><name>PT13965</name></trkpt>
<trkpt lat="54.345646" lon="-3.093693"><ele>113</ele><time>2020-06-12T13:57:55Z</time><name>PT13966</name></trkpt>
<trkpt lat="54.345646" lon="-3.093680"><ele>113</ele><time>2020-06-12T13:57:56Z</time><name>PT13967</name></trkpt>
<trkpt lat="54.345646" lon="-3.093662"><ele>113</ele><time>2020-06-12T13:57:57Z</time><name>PT13968</name></trkpt>
<trkpt lat="54.345645" lon="-3.093638"><ele>113</ele><time>2020-06-12T13:57:58Z</time><name>PT13969</name></trkpt>
<trkpt lat="54.345643" lon="-3.093620"><ele>112</ele><time>2020-06-12T13:57:59Z</time><name>PT13970</name></trkpt>
<trkpt lat="54.345644" lon="-3.093602"><ele>112</ele><time>2020-06-12T13:58:00Z</time><name>PT13971</name></trkpt>
<trkpt lat="54.345646" lon="-3.093584"><ele>112</ele><time>2020-06-12T13:58:01Z</time><name>PT13972</name></trkpt>
<trkpt lat="54.345648" lon="-3.093565"><ele>112</ele><time>2020-06-12T13:58:02Z</time><name>PT13973</name></trkpt>
<trkpt lat="54.345648" lon="-3.093546"><ele>112</ele><time>2020-06-12T13:58:03Z</time><name>PT13974</name></trkpt>
<trkpt lat="54.345649" lon="-3.093528"><ele>112</ele><time>2020-06-12T13:58:04Z</time><name>PT13975</name></trkpt>
<trkpt lat="54.345647" lon="-3.093510"><ele>111</ele><time>2020-06-12T13:58:05Z</time><name>PT13976</name></trkpt>
<trkpt lat="54.345646" lon="-3.093496"><ele>111</ele><time>2020-06-12T13:58:06Z</time><name>PT13977</name></trkpt>
<trkpt lat="54.345644" lon="-3.093476"><ele>111</ele><time>2020-06-12T13:58:07Z</time><name>PT13978</name></trkpt>
<trkpt lat="54.345641" lon="-3.093458"><ele>111</ele><time>2020-06-12T13:58:08Z</time><name>PT13979</name></trkpt>
<trkpt lat="54.345636" lon="-3.093441"><ele>110</ele><time>2020-06-12T13:58:09Z</time><name>PT13980</name></trkpt>
<trkpt lat="54.345630" lon="-3.093420"><ele>111</ele><time>2020-06-12T13:58:10Z</time><name>PT13981</name></trkpt>
<trkpt lat="54.345622" lon="-3.093398"><ele>110</ele><time>2020-06-12T13:58:11Z</time><name>PT13982</name></trkpt>
<trkpt lat="54.345616" lon="-3.093379"><ele>110</ele><time>2020-06-12T13:58:12Z</time><name>PT13983</name></trkpt>
<trkpt lat="54.345612" lon="-3.093358"><ele>110</ele><time>2020-06-12T13:58:13Z</time><name>PT13984</name></trkpt>
<trkpt lat="54.345609" lon="-3.093337"><ele>110</ele><time>2020-06-12T13:58:14Z</time><name>PT13985</name></trkpt>
<trkpt lat="54.345605" lon="-3.093320"><ele>110</ele><time>2020-06-12T13:58:15Z</time><name>PT13986</name></trkpt>
<trkpt lat="54.345600" lon="-3.093300"><ele>110</ele><time>2020-06-12T13:58:16Z</time><name>PT13987</name></trkpt>
<trkpt lat="54.345595" lon="-3.093281"><ele>110</ele><time>2020-06-12T13:58:17Z</time><name>PT13988</name></trkpt>
<trkpt lat="54.345591" lon="-3.093264"><ele>109</ele><time>2020-06-12T13:58:18Z</time><name>PT13989</name></trkpt>
<trkpt lat="54.345587" lon="-3.093242"><ele>110</ele><time>2020-06-12T13:58:19Z</time><name>PT13990</name></trkpt>
<trkpt lat="54.345582" lon="-3.093222"><ele>110</ele><time>2020-06-12T13:58:20Z</time><name>PT13991</name></trkpt>
<trkpt lat="54.345577" lon="-3.093205"><ele>110</ele><time>2020-06-12T13:58:21Z</time><name>PT13992</name></trkpt>
<trkpt lat="54.345570" lon="-3.093187"><ele>110</ele><time>2020-06-12T13:58:22Z</time><name>PT13993</name></trkpt>
<trkpt lat="54.345566" lon="-3.093176"><ele>110</ele><time>2020-06-12T13:58:23Z</time><name>PT13994</name></trkpt>
<trkpt lat="54.345561" lon="-3.093163"><ele>110</ele><time>2020-06-12T13:58:24Z</time><name>PT13995</name></trkpt>
<trkpt lat="54.345557" lon="-3.093147"><ele>110</ele><time>2020-06-12T13:58:25Z</time><name>PT13996</name></trkpt>
<trkpt lat="54.345552" lon="-3.093128"><ele>109</ele><time>2020-06-12T13:58:26Z</time><name>PT13997</name></trkpt>
<trkpt lat="54.345543" lon="-3.093104"><ele>110</ele><time>2020-06-12T13:58:27Z</time><name>PT13998</name></trkpt>
<trkpt lat="54.345534" lon="-3.093091"><ele>110</ele><time>2020-06-12T13:58:28Z</time><name>PT13999</name></trkpt>
<trkpt lat="54.345525" lon="-3.093082"><ele>109</ele><time>2020-06-12T13:58:29Z</time><name>PT14000</name></trkpt>
<trkpt lat="54.345515" lon="-3.093081"><ele>110</ele><time>2020-06-12T13:58:30Z</time><name>PT14001</name></trkpt>
<trkpt lat="54.345504" lon="-3.093074"><ele>110</ele><time>2020-06-12T13:58:31Z</time><name>PT14002</name></trkpt>
<trkpt lat="54.345491" lon="-3.093074"><ele>110</ele><time>2020-06-12T13:58:32Z</time><name>PT14003</name></trkpt>
<trkpt lat="54.345482" lon="-3.093076"><ele>110</ele><time>2020-06-12T13:58:33Z</time><name>PT14004</name></trkpt>
<trkpt lat="54.345473" lon="-3.093079"><ele>110</ele><time>2020-06-12T13:58:34Z</time><name>PT14005</name></trkpt>
<trkpt lat="54.345465" lon="-3.093081"><ele>111</ele><time>2020-06-12T13:58:35Z</time><name>PT14006</name></trkpt>
<trkpt lat="54.345455" lon="-3.093086"><ele>111</ele><time>2020-06-12T13:58:36Z</time><name>PT14007</name></trkpt>
<trkpt lat="54.345444" lon="-3.093094"><ele>111</ele><time>2020-06-12T13:58:37Z</time><name>PT14008</name></trkpt>
<trkpt lat="54.345435" lon="-3.093099"><ele>111</ele><time>2020-06-12T13:58:38Z</time><name>PT14009</name></trkpt>
<trkpt lat="54.345425" lon="-3.093099"><ele>112</ele><time>2020-06-12T13:58:39Z</time><name>PT14010</name></trkpt>
<trkpt lat="54.345419" lon="-3.093101"><ele>112</ele><time>2020-06-12T13:58:40Z</time><name>PT14011</name></trkpt>
<trkpt lat="54.345412" lon="-3.093107"><ele>112</ele><time>2020-06-12T13:58:41Z</time><name>PT14012</name></trkpt>
<trkpt lat="54.345402" lon="-3.093108"><ele>112</ele><time>2020-06-12T13:58:42Z</time><name>PT14013</name></trkpt>
<trkpt lat="54.345395" lon="-3.093116"><ele>112</ele><time>2020-06-12T13:58:43Z</time><name>PT14014</name></trkpt>
<trkpt lat="54.345393" lon="-3.093125"><ele>112</ele><time>2020-06-12T13:58:44Z</time><name>PT14015</name></trkpt>
<trkpt lat="54.345390" lon="-3.093129"><ele>111</ele><time>2020-06-12T13:58:45Z</time><name>PT14016</name></trkpt>
<trkpt lat="54.345391" lon="-3.093131"><ele>110</ele><time>2020-06-12T13:58:46Z</time><name>PT14017</name></trkpt>
<trkpt lat="54.345389" lon="-3.093130"><ele>110</ele><time>2020-06-12T13:58:47Z</time><name>PT14018</name></trkpt>
<trkpt lat="54.345388" lon="-3.093128"><ele>110</ele><time>2020-06-12T13:58:48Z</time><name>PT14019</name></trkpt>
<trkpt lat="54.345389" lon="-3.093124"><ele>110</ele><time>2020-06-12T13:58:53Z</time><name>PT14020</name></trkpt>
<trkpt lat="54.345387" lon="-3.093123"><ele>110</ele><time>2020-06-12T13:58:54Z</time><name>PT14021</name></trkpt></trkseg></trk></gpx>